<?xml version="1.0" encoding="UTF-8" standalone="no" ?>
<gpx xmlns="http://www.topografix.com/GPX/1/1" creator="www.cicloide.com" version="1.1" xmlns:xsi="http://www.w3.org/2001/XMLSchema-instance" xsi:schemaLocation="http://www.topografix.com/GPX/1/1 http://www.topografix.com/GPX/1/1/gpx.xsd">
  <trk>
    <name>www.cicloide.com 342895</name>
    <desc>www.cicloide.com 342895</desc>
    <trkseg>
      <trkpt lat="42.466021000" lon="-2.470425000">
        <ele>427.00</ele>
        <time>2017-02-18T05:58:40Z</time>
      </trkpt>
      <trkpt lat="42.465943000" lon="-2.470418000">
        <ele>426.90</ele>
        <time>2017-02-18T05:58:41Z</time>
      </trkpt>
      <trkpt lat="42.465896000" lon="-2.470412000">
        <ele>426.90</ele>
        <time>2017-02-18T05:58:42Z</time>
      </trkpt>
      <trkpt lat="42.465833000" lon="-2.470417000">
        <ele>426.90</ele>
        <time>2017-02-18T05:58:43Z</time>
      </trkpt>
      <trkpt lat="42.465771000" lon="-2.470416000">
        <ele>426.80</ele>
        <time>2017-02-18T05:58:44Z</time>
      </trkpt>
      <trkpt lat="42.465711000" lon="-2.470412000">
        <ele>426.80</ele>
        <time>2017-02-18T05:58:45Z</time>
      </trkpt>
      <trkpt lat="42.465683000" lon="-2.470497000">
        <ele>426.00</ele>
        <time>2017-02-18T05:58:47Z</time>
      </trkpt>
      <trkpt lat="42.465599000" lon="-2.470507000">
        <ele>426.70</ele>
        <time>2017-02-18T05:58:50Z</time>
      </trkpt>
      <trkpt lat="42.465567000" lon="-2.470503000">
        <ele>426.80</ele>
        <time>2017-02-18T05:58:51Z</time>
      </trkpt>
      <trkpt lat="42.465538000" lon="-2.470498000">
        <ele>426.90</ele>
        <time>2017-02-18T05:58:52Z</time>
      </trkpt>
      <trkpt lat="42.465506000" lon="-2.470495000">
        <ele>426.80</ele>
        <time>2017-02-18T05:58:53Z</time>
      </trkpt>
      <trkpt lat="42.465471000" lon="-2.470493000">
        <ele>426.70</ele>
        <time>2017-02-18T05:58:54Z</time>
      </trkpt>
      <trkpt lat="42.465432000" lon="-2.470487000">
        <ele>426.90</ele>
        <time>2017-02-18T05:58:55Z</time>
      </trkpt>
      <trkpt lat="42.465390000" lon="-2.470482000">
        <ele>427.00</ele>
        <time>2017-02-18T05:58:56Z</time>
      </trkpt>
      <trkpt lat="42.465346000" lon="-2.470475000">
        <ele>426.70</ele>
        <time>2017-02-18T05:58:57Z</time>
      </trkpt>
      <trkpt lat="42.465301000" lon="-2.470470000">
        <ele>426.60</ele>
        <time>2017-02-18T05:58:58Z</time>
      </trkpt>
      <trkpt lat="42.465254000" lon="-2.470463000">
        <ele>426.30</ele>
        <time>2017-02-18T05:58:59Z</time>
      </trkpt>
      <trkpt lat="42.465207000" lon="-2.470455000">
        <ele>426.10</ele>
        <time>2017-02-18T05:59:00Z</time>
      </trkpt>
      <trkpt lat="42.465186000" lon="-2.470477000">
        <ele>426.00</ele>
        <time>2017-02-18T05:59:01Z</time>
      </trkpt>
      <trkpt lat="42.465169000" lon="-2.470497000">
        <ele>425.90</ele>
        <time>2017-02-18T05:59:02Z</time>
      </trkpt>
      <trkpt lat="42.465153000" lon="-2.470517000">
        <ele>426.00</ele>
        <time>2017-02-18T05:59:03Z</time>
      </trkpt>
      <trkpt lat="42.465298000" lon="-2.470858000">
        <ele>426.00</ele>
        <time>2017-02-18T05:59:08Z</time>
      </trkpt>
      <trkpt lat="42.465246000" lon="-2.471004000">
        <ele>426.40</ele>
        <time>2017-02-18T05:59:13Z</time>
      </trkpt>
      <trkpt lat="42.465228000" lon="-2.471026000">
        <ele>426.40</ele>
        <time>2017-02-18T05:59:14Z</time>
      </trkpt>
      <trkpt lat="42.465207000" lon="-2.471042000">
        <ele>426.50</ele>
        <time>2017-02-18T05:59:15Z</time>
      </trkpt>
      <trkpt lat="42.465183000" lon="-2.471057000">
        <ele>426.50</ele>
        <time>2017-02-18T05:59:16Z</time>
      </trkpt>
      <trkpt lat="42.465158000" lon="-2.471072000">
        <ele>426.50</ele>
        <time>2017-02-18T05:59:17Z</time>
      </trkpt>
      <trkpt lat="42.465133000" lon="-2.471092000">
        <ele>426.50</ele>
        <time>2017-02-18T05:59:18Z</time>
      </trkpt>
      <trkpt lat="42.465110000" lon="-2.471118000">
        <ele>426.50</ele>
        <time>2017-02-18T05:59:19Z</time>
      </trkpt>
      <trkpt lat="42.465090000" lon="-2.471144000">
        <ele>426.50</ele>
        <time>2017-02-18T05:59:20Z</time>
      </trkpt>
      <trkpt lat="42.465071000" lon="-2.471166000">
        <ele>426.50</ele>
        <time>2017-02-18T05:59:21Z</time>
      </trkpt>
      <trkpt lat="42.465054000" lon="-2.471189000">
        <ele>426.40</ele>
        <time>2017-02-18T05:59:22Z</time>
      </trkpt>
      <trkpt lat="42.465041000" lon="-2.471206000">
        <ele>426.50</ele>
        <time>2017-02-18T05:59:23Z</time>
      </trkpt>
      <trkpt lat="42.465046000" lon="-2.471210000">
        <ele>426.60</ele>
        <time>2017-02-18T05:59:24Z</time>
      </trkpt>
      <trkpt lat="42.465054000" lon="-2.471211000">
        <ele>426.70</ele>
        <time>2017-02-18T05:59:25Z</time>
      </trkpt>
      <trkpt lat="42.465067000" lon="-2.471212000">
        <ele>426.70</ele>
        <time>2017-02-18T05:59:26Z</time>
      </trkpt>
      <trkpt lat="42.465086000" lon="-2.471212000">
        <ele>426.70</ele>
        <time>2017-02-18T05:59:27Z</time>
      </trkpt>
      <trkpt lat="42.465111000" lon="-2.471205000">
        <ele>426.80</ele>
        <time>2017-02-18T05:59:28Z</time>
      </trkpt>
      <trkpt lat="42.465131000" lon="-2.471199000">
        <ele>426.60</ele>
        <time>2017-02-18T05:59:29Z</time>
      </trkpt>
      <trkpt lat="42.465152000" lon="-2.471194000">
        <ele>426.60</ele>
        <time>2017-02-18T05:59:30Z</time>
      </trkpt>
      <trkpt lat="42.465169000" lon="-2.471194000">
        <ele>426.50</ele>
        <time>2017-02-18T05:59:31Z</time>
      </trkpt>
      <trkpt lat="42.465182000" lon="-2.471199000">
        <ele>426.50</ele>
        <time>2017-02-18T05:59:32Z</time>
      </trkpt>
      <trkpt lat="42.465202000" lon="-2.471197000">
        <ele>426.60</ele>
        <time>2017-02-18T05:59:33Z</time>
      </trkpt>
      <trkpt lat="42.465227000" lon="-2.471186000">
        <ele>426.70</ele>
        <time>2017-02-18T05:59:34Z</time>
      </trkpt>
      <trkpt lat="42.465247000" lon="-2.471175000">
        <ele>426.80</ele>
        <time>2017-02-18T05:59:35Z</time>
      </trkpt>
      <trkpt lat="42.465262000" lon="-2.471163000">
        <ele>426.80</ele>
        <time>2017-02-18T05:59:36Z</time>
      </trkpt>
      <trkpt lat="42.465278000" lon="-2.471149000">
        <ele>426.90</ele>
        <time>2017-02-18T05:59:37Z</time>
      </trkpt>
      <trkpt lat="42.465292000" lon="-2.471137000">
        <ele>426.90</ele>
        <time>2017-02-18T05:59:38Z</time>
      </trkpt>
      <trkpt lat="42.465301000" lon="-2.471129000">
        <ele>426.80</ele>
        <time>2017-02-18T05:59:39Z</time>
      </trkpt>
      <trkpt lat="42.465306000" lon="-2.471126000">
        <ele>426.60</ele>
        <time>2017-02-18T05:59:40Z</time>
      </trkpt>
      <trkpt lat="42.465310000" lon="-2.471127000">
        <ele>426.60</ele>
        <time>2017-02-18T05:59:41Z</time>
      </trkpt>
      <trkpt lat="42.465314000" lon="-2.471130000">
        <ele>426.50</ele>
        <time>2017-02-18T05:59:42Z</time>
      </trkpt>
      <trkpt lat="42.465325000" lon="-2.471137000">
        <ele>426.40</ele>
        <time>2017-02-18T05:59:44Z</time>
      </trkpt>
      <trkpt lat="42.465332000" lon="-2.471139000">
        <ele>426.40</ele>
        <time>2017-02-18T05:59:45Z</time>
      </trkpt>
      <trkpt lat="42.465340000" lon="-2.471142000">
        <ele>426.40</ele>
        <time>2017-02-18T05:59:46Z</time>
      </trkpt>
      <trkpt lat="42.465346000" lon="-2.471150000">
        <ele>426.50</ele>
        <time>2017-02-18T05:59:47Z</time>
      </trkpt>
      <trkpt lat="42.465354000" lon="-2.471155000">
        <ele>426.50</ele>
        <time>2017-02-18T05:59:48Z</time>
      </trkpt>
      <trkpt lat="42.465361000" lon="-2.471157000">
        <ele>426.50</ele>
        <time>2017-02-18T05:59:49Z</time>
      </trkpt>
      <trkpt lat="42.465370000" lon="-2.471159000">
        <ele>426.50</ele>
        <time>2017-02-18T05:59:50Z</time>
      </trkpt>
      <trkpt lat="42.465747000" lon="-2.471489000">
        <ele>426.00</ele>
        <time>2017-02-18T05:59:55Z</time>
      </trkpt>
      <trkpt lat="42.465939000" lon="-2.471488000">
        <ele>426.70</ele>
        <time>2017-02-18T06:00:00Z</time>
      </trkpt>
      <trkpt lat="42.465938000" lon="-2.471487000">
        <ele>426.80</ele>
        <time>2017-02-18T06:00:01Z</time>
      </trkpt>
      <trkpt lat="42.465937000" lon="-2.471486000">
        <ele>426.90</ele>
        <time>2017-02-18T06:00:02Z</time>
      </trkpt>
      <trkpt lat="42.465936000" lon="-2.471486000">
        <ele>426.90</ele>
        <time>2017-02-18T06:00:03Z</time>
      </trkpt>
      <trkpt lat="42.465936000" lon="-2.471482000">
        <ele>426.90</ele>
        <time>2017-02-18T06:00:04Z</time>
      </trkpt>
      <trkpt lat="42.465935000" lon="-2.471478000">
        <ele>426.80</ele>
        <time>2017-02-18T06:00:05Z</time>
      </trkpt>
      <trkpt lat="42.465933000" lon="-2.471475000">
        <ele>426.70</ele>
        <time>2017-02-18T06:00:06Z</time>
      </trkpt>
      <trkpt lat="42.465931000" lon="-2.471475000">
        <ele>426.60</ele>
        <time>2017-02-18T06:00:07Z</time>
      </trkpt>
      <trkpt lat="42.465928000" lon="-2.471475000">
        <ele>426.60</ele>
        <time>2017-02-18T06:00:08Z</time>
      </trkpt>
      <trkpt lat="42.465926000" lon="-2.471477000">
        <ele>426.50</ele>
        <time>2017-02-18T06:00:09Z</time>
      </trkpt>
      <trkpt lat="42.465924000" lon="-2.471480000">
        <ele>426.50</ele>
        <time>2017-02-18T06:00:10Z</time>
      </trkpt>
      <trkpt lat="42.465921000" lon="-2.471489000">
        <ele>426.60</ele>
        <time>2017-02-18T06:00:11Z</time>
      </trkpt>
      <trkpt lat="42.465919000" lon="-2.471499000">
        <ele>426.70</ele>
        <time>2017-02-18T06:00:12Z</time>
      </trkpt>
      <trkpt lat="42.465917000" lon="-2.471512000">
        <ele>426.60</ele>
        <time>2017-02-18T06:00:13Z</time>
      </trkpt>
      <trkpt lat="42.465917000" lon="-2.471523000">
        <ele>426.60</ele>
        <time>2017-02-18T06:00:14Z</time>
      </trkpt>
      <trkpt lat="42.465914000" lon="-2.471535000">
        <ele>426.60</ele>
        <time>2017-02-18T06:00:15Z</time>
      </trkpt>
      <trkpt lat="42.465910000" lon="-2.471545000">
        <ele>426.50</ele>
        <time>2017-02-18T06:00:16Z</time>
      </trkpt>
      <trkpt lat="42.465906000" lon="-2.471552000">
        <ele>426.50</ele>
        <time>2017-02-18T06:00:17Z</time>
      </trkpt>
      <trkpt lat="42.465902000" lon="-2.471554000">
        <ele>426.50</ele>
        <time>2017-02-18T06:00:18Z</time>
      </trkpt>
      <trkpt lat="42.465898000" lon="-2.471552000">
        <ele>426.50</ele>
        <time>2017-02-18T06:00:19Z</time>
      </trkpt>
      <trkpt lat="42.465895000" lon="-2.471549000">
        <ele>426.50</ele>
        <time>2017-02-18T06:00:20Z</time>
      </trkpt>
      <trkpt lat="42.465890000" lon="-2.471545000">
        <ele>426.60</ele>
        <time>2017-02-18T06:00:21Z</time>
      </trkpt>
      <trkpt lat="42.465885000" lon="-2.471540000">
        <ele>426.70</ele>
        <time>2017-02-18T06:00:22Z</time>
      </trkpt>
      <trkpt lat="42.465880000" lon="-2.471533000">
        <ele>426.70</ele>
        <time>2017-02-18T06:00:23Z</time>
      </trkpt>
      <trkpt lat="42.465873000" lon="-2.471528000">
        <ele>426.70</ele>
        <time>2017-02-18T06:00:24Z</time>
      </trkpt>
      <trkpt lat="42.465790000" lon="-2.471457000">
        <ele>426.80</ele>
        <time>2017-02-18T06:00:25Z</time>
      </trkpt>
      <trkpt lat="42.465708000" lon="-2.471387000">
        <ele>426.80</ele>
        <time>2017-02-18T06:00:26Z</time>
      </trkpt>
      <trkpt lat="42.465628000" lon="-2.471316000">
        <ele>426.80</ele>
        <time>2017-02-18T06:00:27Z</time>
      </trkpt>
      <trkpt lat="42.465549000" lon="-2.471249000">
        <ele>426.80</ele>
        <time>2017-02-18T06:00:28Z</time>
      </trkpt>
      <trkpt lat="42.465473000" lon="-2.471187000">
        <ele>426.80</ele>
        <time>2017-02-18T06:00:29Z</time>
      </trkpt>
      <trkpt lat="42.465399000" lon="-2.471121000">
        <ele>426.80</ele>
        <time>2017-02-18T06:00:30Z</time>
      </trkpt>
      <trkpt lat="42.465329000" lon="-2.471052000">
        <ele>426.80</ele>
        <time>2017-02-18T06:00:31Z</time>
      </trkpt>
      <trkpt lat="42.465260000" lon="-2.470982000">
        <ele>426.70</ele>
        <time>2017-02-18T06:00:32Z</time>
      </trkpt>
      <trkpt lat="42.465192000" lon="-2.470916000">
        <ele>426.70</ele>
        <time>2017-02-18T06:00:33Z</time>
      </trkpt>
      <trkpt lat="42.465126000" lon="-2.470851000">
        <ele>426.60</ele>
        <time>2017-02-18T06:00:34Z</time>
      </trkpt>
      <trkpt lat="42.465061000" lon="-2.470793000">
        <ele>426.60</ele>
        <time>2017-02-18T06:00:35Z</time>
      </trkpt>
      <trkpt lat="42.464996000" lon="-2.470738000">
        <ele>426.60</ele>
        <time>2017-02-18T06:00:36Z</time>
      </trkpt>
      <trkpt lat="42.464931000" lon="-2.470690000">
        <ele>426.60</ele>
        <time>2017-02-18T06:00:37Z</time>
      </trkpt>
      <trkpt lat="42.464866000" lon="-2.470649000">
        <ele>426.70</ele>
        <time>2017-02-18T06:00:38Z</time>
      </trkpt>
      <trkpt lat="42.464803000" lon="-2.470608000">
        <ele>426.70</ele>
        <time>2017-02-18T06:00:39Z</time>
      </trkpt>
      <trkpt lat="42.464739000" lon="-2.470565000">
        <ele>426.70</ele>
        <time>2017-02-18T06:00:40Z</time>
      </trkpt>
      <trkpt lat="42.464679000" lon="-2.470522000">
        <ele>426.60</ele>
        <time>2017-02-18T06:00:41Z</time>
      </trkpt>
      <trkpt lat="42.464620000" lon="-2.470477000">
        <ele>426.60</ele>
        <time>2017-02-18T06:00:42Z</time>
      </trkpt>
      <trkpt lat="42.464564000" lon="-2.470427000">
        <ele>426.60</ele>
        <time>2017-02-18T06:00:43Z</time>
      </trkpt>
      <trkpt lat="42.464456000" lon="-2.470318000">
        <ele>426.50</ele>
        <time>2017-02-18T06:00:45Z</time>
      </trkpt>
      <trkpt lat="42.464405000" lon="-2.470257000">
        <ele>426.50</ele>
        <time>2017-02-18T06:00:46Z</time>
      </trkpt>
      <trkpt lat="42.464355000" lon="-2.470195000">
        <ele>426.50</ele>
        <time>2017-02-18T06:00:47Z</time>
      </trkpt>
      <trkpt lat="42.464307000" lon="-2.470133000">
        <ele>426.50</ele>
        <time>2017-02-18T06:00:48Z</time>
      </trkpt>
      <trkpt lat="42.464261000" lon="-2.470070000">
        <ele>426.50</ele>
        <time>2017-02-18T06:00:49Z</time>
      </trkpt>
      <trkpt lat="42.464215000" lon="-2.470015000">
        <ele>426.50</ele>
        <time>2017-02-18T06:00:50Z</time>
      </trkpt>
      <trkpt lat="42.464169000" lon="-2.469963000">
        <ele>426.60</ele>
        <time>2017-02-18T06:00:51Z</time>
      </trkpt>
      <trkpt lat="42.464125000" lon="-2.469911000">
        <ele>426.60</ele>
        <time>2017-02-18T06:00:52Z</time>
      </trkpt>
      <trkpt lat="42.464081000" lon="-2.469864000">
        <ele>426.60</ele>
        <time>2017-02-18T06:00:53Z</time>
      </trkpt>
      <trkpt lat="42.464038000" lon="-2.469818000">
        <ele>426.60</ele>
        <time>2017-02-18T06:00:54Z</time>
      </trkpt>
      <trkpt lat="42.463995000" lon="-2.469775000">
        <ele>426.70</ele>
        <time>2017-02-18T06:00:55Z</time>
      </trkpt>
      <trkpt lat="42.463952000" lon="-2.469733000">
        <ele>426.80</ele>
        <time>2017-02-18T06:00:56Z</time>
      </trkpt>
      <trkpt lat="42.463910000" lon="-2.469693000">
        <ele>426.80</ele>
        <time>2017-02-18T06:00:57Z</time>
      </trkpt>
      <trkpt lat="42.463870000" lon="-2.469654000">
        <ele>426.80</ele>
        <time>2017-02-18T06:00:58Z</time>
      </trkpt>
      <trkpt lat="42.463830000" lon="-2.469616000">
        <ele>426.80</ele>
        <time>2017-02-18T06:00:59Z</time>
      </trkpt>
      <trkpt lat="42.463790000" lon="-2.469577000">
        <ele>426.90</ele>
        <time>2017-02-18T06:01:00Z</time>
      </trkpt>
      <trkpt lat="42.463751000" lon="-2.469538000">
        <ele>426.90</ele>
        <time>2017-02-18T06:01:01Z</time>
      </trkpt>
      <trkpt lat="42.463713000" lon="-2.469499000">
        <ele>426.90</ele>
        <time>2017-02-18T06:01:02Z</time>
      </trkpt>
      <trkpt lat="42.463675000" lon="-2.469461000">
        <ele>426.90</ele>
        <time>2017-02-18T06:01:03Z</time>
      </trkpt>
      <trkpt lat="42.463638000" lon="-2.469426000">
        <ele>426.90</ele>
        <time>2017-02-18T06:01:04Z</time>
      </trkpt>
      <trkpt lat="42.463600000" lon="-2.469393000">
        <ele>426.80</ele>
        <time>2017-02-18T06:01:05Z</time>
      </trkpt>
      <trkpt lat="42.463563000" lon="-2.469362000">
        <ele>426.80</ele>
        <time>2017-02-18T06:01:06Z</time>
      </trkpt>
      <trkpt lat="42.463526000" lon="-2.469332000">
        <ele>426.80</ele>
        <time>2017-02-18T06:01:07Z</time>
      </trkpt>
      <trkpt lat="42.463489000" lon="-2.469301000">
        <ele>426.70</ele>
        <time>2017-02-18T06:01:08Z</time>
      </trkpt>
      <trkpt lat="42.463452000" lon="-2.469275000">
        <ele>426.70</ele>
        <time>2017-02-18T06:01:09Z</time>
      </trkpt>
      <trkpt lat="42.463415000" lon="-2.469247000">
        <ele>426.70</ele>
        <time>2017-02-18T06:01:10Z</time>
      </trkpt>
      <trkpt lat="42.463378000" lon="-2.469216000">
        <ele>426.60</ele>
        <time>2017-02-18T06:01:11Z</time>
      </trkpt>
      <trkpt lat="42.463341000" lon="-2.469185000">
        <ele>426.50</ele>
        <time>2017-02-18T06:01:12Z</time>
      </trkpt>
      <trkpt lat="42.463304000" lon="-2.469156000">
        <ele>426.50</ele>
        <time>2017-02-18T06:01:13Z</time>
      </trkpt>
      <trkpt lat="42.463273000" lon="-2.469131000">
        <ele>426.40</ele>
        <time>2017-02-18T06:01:14Z</time>
      </trkpt>
      <trkpt lat="42.463241000" lon="-2.469110000">
        <ele>426.40</ele>
        <time>2017-02-18T06:01:15Z</time>
      </trkpt>
      <trkpt lat="42.463211000" lon="-2.469091000">
        <ele>426.40</ele>
        <time>2017-02-18T06:01:16Z</time>
      </trkpt>
      <trkpt lat="42.463178000" lon="-2.469072000">
        <ele>426.40</ele>
        <time>2017-02-18T06:01:17Z</time>
      </trkpt>
      <trkpt lat="42.463144000" lon="-2.469052000">
        <ele>426.50</ele>
        <time>2017-02-18T06:01:18Z</time>
      </trkpt>
      <trkpt lat="42.463111000" lon="-2.469030000">
        <ele>426.60</ele>
        <time>2017-02-18T06:01:19Z</time>
      </trkpt>
      <trkpt lat="42.463078000" lon="-2.469004000">
        <ele>426.60</ele>
        <time>2017-02-18T06:01:20Z</time>
      </trkpt>
      <trkpt lat="42.463046000" lon="-2.468976000">
        <ele>426.70</ele>
        <time>2017-02-18T06:01:21Z</time>
      </trkpt>
      <trkpt lat="42.463013000" lon="-2.468949000">
        <ele>426.70</ele>
        <time>2017-02-18T06:01:22Z</time>
      </trkpt>
      <trkpt lat="42.462982000" lon="-2.468922000">
        <ele>426.70</ele>
        <time>2017-02-18T06:01:23Z</time>
      </trkpt>
      <trkpt lat="42.462951000" lon="-2.468895000">
        <ele>426.80</ele>
        <time>2017-02-18T06:01:24Z</time>
      </trkpt>
      <trkpt lat="42.462914000" lon="-2.468857000">
        <ele>426.70</ele>
        <time>2017-02-18T06:01:25Z</time>
      </trkpt>
      <trkpt lat="42.462877000" lon="-2.468821000">
        <ele>426.60</ele>
        <time>2017-02-18T06:01:26Z</time>
      </trkpt>
      <trkpt lat="42.462842000" lon="-2.468786000">
        <ele>426.50</ele>
        <time>2017-02-18T06:01:27Z</time>
      </trkpt>
      <trkpt lat="42.462808000" lon="-2.468750000">
        <ele>426.50</ele>
        <time>2017-02-18T06:01:28Z</time>
      </trkpt>
      <trkpt lat="42.462776000" lon="-2.468714000">
        <ele>426.40</ele>
        <time>2017-02-18T06:01:29Z</time>
      </trkpt>
      <trkpt lat="42.462746000" lon="-2.468678000">
        <ele>426.40</ele>
        <time>2017-02-18T06:01:30Z</time>
      </trkpt>
      <trkpt lat="42.462718000" lon="-2.468640000">
        <ele>426.60</ele>
        <time>2017-02-18T06:01:31Z</time>
      </trkpt>
      <trkpt lat="42.462690000" lon="-2.468605000">
        <ele>426.80</ele>
        <time>2017-02-18T06:01:32Z</time>
      </trkpt>
      <trkpt lat="42.462662000" lon="-2.468572000">
        <ele>426.90</ele>
        <time>2017-02-18T06:01:33Z</time>
      </trkpt>
      <trkpt lat="42.462283000" lon="-2.468114000">
        <ele>426.00</ele>
        <time>2017-02-18T06:01:38Z</time>
      </trkpt>
      <trkpt lat="42.461793000" lon="-2.467681000">
        <ele>427.00</ele>
        <time>2017-02-18T06:01:43Z</time>
      </trkpt>
      <trkpt lat="42.461153000" lon="-2.467107000">
        <ele>426.00</ele>
        <time>2017-02-18T06:01:48Z</time>
      </trkpt>
      <trkpt lat="42.460658000" lon="-2.466594000">
        <ele>426.50</ele>
        <time>2017-02-18T06:01:54Z</time>
      </trkpt>
      <trkpt lat="42.460608000" lon="-2.466545000">
        <ele>426.40</ele>
        <time>2017-02-18T06:01:55Z</time>
      </trkpt>
      <trkpt lat="42.460562000" lon="-2.466495000">
        <ele>426.40</ele>
        <time>2017-02-18T06:01:56Z</time>
      </trkpt>
      <trkpt lat="42.460521000" lon="-2.466451000">
        <ele>426.40</ele>
        <time>2017-02-18T06:01:57Z</time>
      </trkpt>
      <trkpt lat="42.460482000" lon="-2.466412000">
        <ele>426.40</ele>
        <time>2017-02-18T06:01:58Z</time>
      </trkpt>
      <trkpt lat="42.460446000" lon="-2.466373000">
        <ele>426.50</ele>
        <time>2017-02-18T06:01:59Z</time>
      </trkpt>
      <trkpt lat="42.460415000" lon="-2.466336000">
        <ele>426.60</ele>
        <time>2017-02-18T06:02:00Z</time>
      </trkpt>
      <trkpt lat="42.460387000" lon="-2.466304000">
        <ele>426.70</ele>
        <time>2017-02-18T06:02:01Z</time>
      </trkpt>
      <trkpt lat="42.460361000" lon="-2.466274000">
        <ele>426.80</ele>
        <time>2017-02-18T06:02:02Z</time>
      </trkpt>
      <trkpt lat="42.460339000" lon="-2.466250000">
        <ele>426.80</ele>
        <time>2017-02-18T06:02:03Z</time>
      </trkpt>
      <trkpt lat="42.460318000" lon="-2.466222000">
        <ele>426.80</ele>
        <time>2017-02-18T06:02:04Z</time>
      </trkpt>
      <trkpt lat="42.460296000" lon="-2.466186000">
        <ele>426.80</ele>
        <time>2017-02-18T06:02:05Z</time>
      </trkpt>
      <trkpt lat="42.460273000" lon="-2.466156000">
        <ele>426.90</ele>
        <time>2017-02-18T06:02:06Z</time>
      </trkpt>
      <trkpt lat="42.460254000" lon="-2.466131000">
        <ele>426.90</ele>
        <time>2017-02-18T06:02:07Z</time>
      </trkpt>
      <trkpt lat="42.460235000" lon="-2.466108000">
        <ele>426.90</ele>
        <time>2017-02-18T06:02:08Z</time>
      </trkpt>
      <trkpt lat="42.460217000" lon="-2.466087000">
        <ele>427.00</ele>
        <time>2017-02-18T06:02:09Z</time>
      </trkpt>
      <trkpt lat="42.460158000" lon="-2.466077000">
        <ele>427.00</ele>
        <time>2017-02-18T06:02:10Z</time>
      </trkpt>
      <trkpt lat="42.460117000" lon="-2.466066000">
        <ele>427.10</ele>
        <time>2017-02-18T06:02:11Z</time>
      </trkpt>
      <trkpt lat="42.460085000" lon="-2.466051000">
        <ele>427.10</ele>
        <time>2017-02-18T06:02:12Z</time>
      </trkpt>
      <trkpt lat="42.460061000" lon="-2.466037000">
        <ele>427.00</ele>
        <time>2017-02-18T06:02:13Z</time>
      </trkpt>
      <trkpt lat="42.460041000" lon="-2.466022000">
        <ele>427.00</ele>
        <time>2017-02-18T06:02:14Z</time>
      </trkpt>
      <trkpt lat="42.459476000" lon="-2.465630000">
        <ele>426.00</ele>
        <time>2017-02-18T06:02:19Z</time>
      </trkpt>
      <trkpt lat="42.459269000" lon="-2.465493000">
        <ele>426.20</ele>
        <time>2017-02-18T06:02:24Z</time>
      </trkpt>
      <trkpt lat="42.459248000" lon="-2.465485000">
        <ele>426.20</ele>
        <time>2017-02-18T06:02:25Z</time>
      </trkpt>
      <trkpt lat="42.459232000" lon="-2.465476000">
        <ele>426.10</ele>
        <time>2017-02-18T06:02:26Z</time>
      </trkpt>
      <trkpt lat="42.459217000" lon="-2.465467000">
        <ele>426.10</ele>
        <time>2017-02-18T06:02:27Z</time>
      </trkpt>
      <trkpt lat="42.459204000" lon="-2.465458000">
        <ele>426.10</ele>
        <time>2017-02-18T06:02:28Z</time>
      </trkpt>
      <trkpt lat="42.459190000" lon="-2.465451000">
        <ele>426.20</ele>
        <time>2017-02-18T06:02:29Z</time>
      </trkpt>
      <trkpt lat="42.459177000" lon="-2.465444000">
        <ele>426.20</ele>
        <time>2017-02-18T06:02:30Z</time>
      </trkpt>
      <trkpt lat="42.459164000" lon="-2.465438000">
        <ele>426.30</ele>
        <time>2017-02-18T06:02:31Z</time>
      </trkpt>
      <trkpt lat="42.459102000" lon="-2.465398000">
        <ele>426.40</ele>
        <time>2017-02-18T06:02:32Z</time>
      </trkpt>
      <trkpt lat="42.459068000" lon="-2.465377000">
        <ele>426.40</ele>
        <time>2017-02-18T06:02:33Z</time>
      </trkpt>
      <trkpt lat="42.459050000" lon="-2.465368000">
        <ele>426.50</ele>
        <time>2017-02-18T06:02:34Z</time>
      </trkpt>
      <trkpt lat="42.459033000" lon="-2.465358000">
        <ele>426.50</ele>
        <time>2017-02-18T06:02:35Z</time>
      </trkpt>
      <trkpt lat="42.459019000" lon="-2.465350000">
        <ele>426.50</ele>
        <time>2017-02-18T06:02:36Z</time>
      </trkpt>
      <trkpt lat="42.459007000" lon="-2.465344000">
        <ele>426.50</ele>
        <time>2017-02-18T06:02:37Z</time>
      </trkpt>
      <trkpt lat="42.458996000" lon="-2.465338000">
        <ele>426.50</ele>
        <time>2017-02-18T06:02:38Z</time>
      </trkpt>
      <trkpt lat="42.458986000" lon="-2.465332000">
        <ele>426.70</ele>
        <time>2017-02-18T06:02:39Z</time>
      </trkpt>
      <trkpt lat="42.458978000" lon="-2.465327000">
        <ele>426.90</ele>
        <time>2017-02-18T06:02:40Z</time>
      </trkpt>
      <trkpt lat="42.458972000" lon="-2.465322000">
        <ele>427.00</ele>
        <time>2017-02-18T06:02:41Z</time>
      </trkpt>
      <trkpt lat="42.458966000" lon="-2.465318000">
        <ele>427.10</ele>
        <time>2017-02-18T06:02:42Z</time>
      </trkpt>
      <trkpt lat="42.458962000" lon="-2.465314000">
        <ele>427.20</ele>
        <time>2017-02-18T06:02:43Z</time>
      </trkpt>
      <trkpt lat="42.458959000" lon="-2.465310000">
        <ele>427.20</ele>
        <time>2017-02-18T06:02:44Z</time>
      </trkpt>
      <trkpt lat="42.458955000" lon="-2.465308000">
        <ele>427.20</ele>
        <time>2017-02-18T06:02:45Z</time>
      </trkpt>
      <trkpt lat="42.458952000" lon="-2.465306000">
        <ele>427.20</ele>
        <time>2017-02-18T06:02:46Z</time>
      </trkpt>
      <trkpt lat="42.458949000" lon="-2.465304000">
        <ele>427.20</ele>
        <time>2017-02-18T06:02:47Z</time>
      </trkpt>
      <trkpt lat="42.458948000" lon="-2.465302000">
        <ele>427.20</ele>
        <time>2017-02-18T06:02:48Z</time>
      </trkpt>
      <trkpt lat="42.458945000" lon="-2.465303000">
        <ele>427.20</ele>
        <time>2017-02-18T06:02:49Z</time>
      </trkpt>
      <trkpt lat="42.458941000" lon="-2.465305000">
        <ele>427.10</ele>
        <time>2017-02-18T06:02:50Z</time>
      </trkpt>
      <trkpt lat="42.458938000" lon="-2.465306000">
        <ele>427.00</ele>
        <time>2017-02-18T06:02:51Z</time>
      </trkpt>
      <trkpt lat="42.458936000" lon="-2.465307000">
        <ele>427.00</ele>
        <time>2017-02-18T06:02:52Z</time>
      </trkpt>
      <trkpt lat="42.458933000" lon="-2.465308000">
        <ele>426.90</ele>
        <time>2017-02-18T06:02:53Z</time>
      </trkpt>
      <trkpt lat="42.458939000" lon="-2.465322000">
        <ele>426.80</ele>
        <time>2017-02-18T06:02:55Z</time>
      </trkpt>
      <trkpt lat="42.458947000" lon="-2.465330000">
        <ele>426.80</ele>
        <time>2017-02-18T06:02:56Z</time>
      </trkpt>
      <trkpt lat="42.458952000" lon="-2.465325000">
        <ele>426.70</ele>
        <time>2017-02-18T06:02:57Z</time>
      </trkpt>
      <trkpt lat="42.458949000" lon="-2.465318000">
        <ele>426.70</ele>
        <time>2017-02-18T06:02:58Z</time>
      </trkpt>
      <trkpt lat="42.458955000" lon="-2.465316000">
        <ele>426.60</ele>
        <time>2017-02-18T06:02:59Z</time>
      </trkpt>
      <trkpt lat="42.458960000" lon="-2.465312000">
        <ele>426.60</ele>
        <time>2017-02-18T06:03:00Z</time>
      </trkpt>
      <trkpt lat="42.458962000" lon="-2.465308000">
        <ele>426.70</ele>
        <time>2017-02-18T06:03:01Z</time>
      </trkpt>
      <trkpt lat="42.458964000" lon="-2.465303000">
        <ele>426.80</ele>
        <time>2017-02-18T06:03:02Z</time>
      </trkpt>
      <trkpt lat="42.458963000" lon="-2.465299000">
        <ele>426.90</ele>
        <time>2017-02-18T06:03:03Z</time>
      </trkpt>
      <trkpt lat="42.458961000" lon="-2.465291000">
        <ele>427.00</ele>
        <time>2017-02-18T06:03:04Z</time>
      </trkpt>
      <trkpt lat="42.458959000" lon="-2.465284000">
        <ele>427.00</ele>
        <time>2017-02-18T06:03:05Z</time>
      </trkpt>
      <trkpt lat="42.458956000" lon="-2.465277000">
        <ele>427.00</ele>
        <time>2017-02-18T06:03:06Z</time>
      </trkpt>
      <trkpt lat="42.458952000" lon="-2.465269000">
        <ele>427.10</ele>
        <time>2017-02-18T06:03:07Z</time>
      </trkpt>
      <trkpt lat="42.458947000" lon="-2.465262000">
        <ele>427.10</ele>
        <time>2017-02-18T06:03:08Z</time>
      </trkpt>
      <trkpt lat="42.458941000" lon="-2.465254000">
        <ele>427.10</ele>
        <time>2017-02-18T06:03:09Z</time>
      </trkpt>
      <trkpt lat="42.458936000" lon="-2.465246000">
        <ele>427.10</ele>
        <time>2017-02-18T06:03:10Z</time>
      </trkpt>
      <trkpt lat="42.458932000" lon="-2.465240000">
        <ele>427.00</ele>
        <time>2017-02-18T06:03:11Z</time>
      </trkpt>
      <trkpt lat="42.458929000" lon="-2.465234000">
        <ele>427.00</ele>
        <time>2017-02-18T06:03:12Z</time>
      </trkpt>
      <trkpt lat="42.458928000" lon="-2.465229000">
        <ele>427.00</ele>
        <time>2017-02-18T06:03:13Z</time>
      </trkpt>
      <trkpt lat="42.458935000" lon="-2.465222000">
        <ele>427.00</ele>
        <time>2017-02-18T06:03:14Z</time>
      </trkpt>
      <trkpt lat="42.458935000" lon="-2.465229000">
        <ele>426.90</ele>
        <time>2017-02-18T06:03:15Z</time>
      </trkpt>
      <trkpt lat="42.458936000" lon="-2.465236000">
        <ele>426.90</ele>
        <time>2017-02-18T06:03:16Z</time>
      </trkpt>
      <trkpt lat="42.458936000" lon="-2.465245000">
        <ele>426.90</ele>
        <time>2017-02-18T06:03:17Z</time>
      </trkpt>
      <trkpt lat="42.458937000" lon="-2.465260000">
        <ele>426.80</ele>
        <time>2017-02-18T06:03:18Z</time>
      </trkpt>
      <trkpt lat="42.458939000" lon="-2.465278000">
        <ele>426.80</ele>
        <time>2017-02-18T06:03:19Z</time>
      </trkpt>
      <trkpt lat="42.458943000" lon="-2.465296000">
        <ele>426.80</ele>
        <time>2017-02-18T06:03:20Z</time>
      </trkpt>
      <trkpt lat="42.458943000" lon="-2.465308000">
        <ele>426.70</ele>
        <time>2017-02-18T06:03:21Z</time>
      </trkpt>
      <trkpt lat="42.458945000" lon="-2.465320000">
        <ele>426.60</ele>
        <time>2017-02-18T06:03:22Z</time>
      </trkpt>
      <trkpt lat="42.458947000" lon="-2.465328000">
        <ele>426.60</ele>
        <time>2017-02-18T06:03:23Z</time>
      </trkpt>
      <trkpt lat="42.458950000" lon="-2.465332000">
        <ele>426.60</ele>
        <time>2017-02-18T06:03:24Z</time>
      </trkpt>
      <trkpt lat="42.458952000" lon="-2.465336000">
        <ele>426.60</ele>
        <time>2017-02-18T06:03:25Z</time>
      </trkpt>
      <trkpt lat="42.458955000" lon="-2.465337000">
        <ele>426.50</ele>
        <time>2017-02-18T06:03:26Z</time>
      </trkpt>
      <trkpt lat="42.458958000" lon="-2.465336000">
        <ele>426.60</ele>
        <time>2017-02-18T06:03:27Z</time>
      </trkpt>
      <trkpt lat="42.458961000" lon="-2.465335000">
        <ele>426.70</ele>
        <time>2017-02-18T06:03:28Z</time>
      </trkpt>
      <trkpt lat="42.458963000" lon="-2.465332000">
        <ele>426.70</ele>
        <time>2017-02-18T06:03:29Z</time>
      </trkpt>
      <trkpt lat="42.458963000" lon="-2.465327000">
        <ele>426.80</ele>
        <time>2017-02-18T06:03:30Z</time>
      </trkpt>
      <trkpt lat="42.458963000" lon="-2.465322000">
        <ele>426.80</ele>
        <time>2017-02-18T06:03:31Z</time>
      </trkpt>
      <trkpt lat="42.458961000" lon="-2.465318000">
        <ele>426.80</ele>
        <time>2017-02-18T06:03:32Z</time>
      </trkpt>
      <trkpt lat="42.458959000" lon="-2.465312000">
        <ele>426.70</ele>
        <time>2017-02-18T06:03:33Z</time>
      </trkpt>
      <trkpt lat="42.458956000" lon="-2.465308000">
        <ele>426.60</ele>
        <time>2017-02-18T06:03:34Z</time>
      </trkpt>
      <trkpt lat="42.458952000" lon="-2.465303000">
        <ele>426.60</ele>
        <time>2017-02-18T06:03:35Z</time>
      </trkpt>
      <trkpt lat="42.458947000" lon="-2.465297000">
        <ele>426.50</ele>
        <time>2017-02-18T06:03:36Z</time>
      </trkpt>
      <trkpt lat="42.458943000" lon="-2.465292000">
        <ele>426.50</ele>
        <time>2017-02-18T06:03:37Z</time>
      </trkpt>
      <trkpt lat="42.458938000" lon="-2.465288000">
        <ele>426.50</ele>
        <time>2017-02-18T06:03:38Z</time>
      </trkpt>
      <trkpt lat="42.458935000" lon="-2.465288000">
        <ele>426.50</ele>
        <time>2017-02-18T06:03:39Z</time>
      </trkpt>
      <trkpt lat="42.458935000" lon="-2.465282000">
        <ele>426.60</ele>
        <time>2017-02-18T06:03:40Z</time>
      </trkpt>
      <trkpt lat="42.458933000" lon="-2.465281000">
        <ele>426.60</ele>
        <time>2017-02-18T06:03:41Z</time>
      </trkpt>
      <trkpt lat="42.458930000" lon="-2.465282000">
        <ele>426.60</ele>
        <time>2017-02-18T06:03:42Z</time>
      </trkpt>
      <trkpt lat="42.458931000" lon="-2.465283000">
        <ele>426.70</ele>
        <time>2017-02-18T06:03:43Z</time>
      </trkpt>
      <trkpt lat="42.458929000" lon="-2.465285000">
        <ele>426.70</ele>
        <time>2017-02-18T06:03:44Z</time>
      </trkpt>
      <trkpt lat="42.458928000" lon="-2.465288000">
        <ele>426.80</ele>
        <time>2017-02-18T06:03:45Z</time>
      </trkpt>
      <trkpt lat="42.458928000" lon="-2.465288000">
        <ele>426.80</ele>
        <time>2017-02-18T06:03:46Z</time>
      </trkpt>
      <trkpt lat="42.458929000" lon="-2.465287000">
        <ele>426.80</ele>
        <time>2017-02-18T06:03:47Z</time>
      </trkpt>
      <trkpt lat="42.458928000" lon="-2.465285000">
        <ele>426.90</ele>
        <time>2017-02-18T06:03:48Z</time>
      </trkpt>
      <trkpt lat="42.458928000" lon="-2.465282000">
        <ele>426.90</ele>
        <time>2017-02-18T06:03:49Z</time>
      </trkpt>
      <trkpt lat="42.458929000" lon="-2.465275000">
        <ele>426.90</ele>
        <time>2017-02-18T06:03:50Z</time>
      </trkpt>
      <trkpt lat="42.458929000" lon="-2.465268000">
        <ele>426.90</ele>
        <time>2017-02-18T06:03:51Z</time>
      </trkpt>
      <trkpt lat="42.458931000" lon="-2.465261000">
        <ele>427.00</ele>
        <time>2017-02-18T06:03:52Z</time>
      </trkpt>
      <trkpt lat="42.458933000" lon="-2.465258000">
        <ele>427.00</ele>
        <time>2017-02-18T06:03:53Z</time>
      </trkpt>
      <trkpt lat="42.458934000" lon="-2.465258000">
        <ele>427.00</ele>
        <time>2017-02-18T06:03:54Z</time>
      </trkpt>
      <trkpt lat="42.458940000" lon="-2.465258000">
        <ele>427.00</ele>
        <time>2017-02-18T06:03:56Z</time>
      </trkpt>
      <trkpt lat="42.458941000" lon="-2.465256000">
        <ele>427.10</ele>
        <time>2017-02-18T06:03:57Z</time>
      </trkpt>
      <trkpt lat="42.458943000" lon="-2.465257000">
        <ele>427.10</ele>
        <time>2017-02-18T06:03:58Z</time>
      </trkpt>
      <trkpt lat="42.458943000" lon="-2.465257000">
        <ele>427.10</ele>
        <time>2017-02-18T06:03:59Z</time>
      </trkpt>
      <trkpt lat="42.458941000" lon="-2.465254000">
        <ele>427.10</ele>
        <time>2017-02-18T06:04:00Z</time>
      </trkpt>
      <trkpt lat="42.458941000" lon="-2.465250000">
        <ele>427.00</ele>
        <time>2017-02-18T06:04:01Z</time>
      </trkpt>
      <trkpt lat="42.458940000" lon="-2.465248000">
        <ele>427.00</ele>
        <time>2017-02-18T06:04:02Z</time>
      </trkpt>
      <trkpt lat="42.458937000" lon="-2.465247000">
        <ele>426.90</ele>
        <time>2017-02-18T06:04:03Z</time>
      </trkpt>
      <trkpt lat="42.458944000" lon="-2.465250000">
        <ele>426.90</ele>
        <time>2017-02-18T06:04:04Z</time>
      </trkpt>
      <trkpt lat="42.458946000" lon="-2.465254000">
        <ele>426.90</ele>
        <time>2017-02-18T06:04:05Z</time>
      </trkpt>
      <trkpt lat="42.458948000" lon="-2.465257000">
        <ele>426.90</ele>
        <time>2017-02-18T06:04:06Z</time>
      </trkpt>
      <trkpt lat="42.458945000" lon="-2.465253000">
        <ele>426.80</ele>
        <time>2017-02-18T06:04:07Z</time>
      </trkpt>
      <trkpt lat="42.458940000" lon="-2.465247000">
        <ele>426.70</ele>
        <time>2017-02-18T06:04:08Z</time>
      </trkpt>
      <trkpt lat="42.458936000" lon="-2.465239000">
        <ele>426.70</ele>
        <time>2017-02-18T06:04:09Z</time>
      </trkpt>
      <trkpt lat="42.458931000" lon="-2.465225000">
        <ele>426.70</ele>
        <time>2017-02-18T06:04:10Z</time>
      </trkpt>
      <trkpt lat="42.458928000" lon="-2.465221000">
        <ele>426.60</ele>
        <time>2017-02-18T06:04:11Z</time>
      </trkpt>
      <trkpt lat="42.458927000" lon="-2.465221000">
        <ele>426.60</ele>
        <time>2017-02-18T06:04:12Z</time>
      </trkpt>
      <trkpt lat="42.458924000" lon="-2.465220000">
        <ele>426.70</ele>
        <time>2017-02-18T06:04:13Z</time>
      </trkpt>
      <trkpt lat="42.458923000" lon="-2.465219000">
        <ele>426.80</ele>
        <time>2017-02-18T06:04:14Z</time>
      </trkpt>
      <trkpt lat="42.458920000" lon="-2.465218000">
        <ele>426.90</ele>
        <time>2017-02-18T06:04:15Z</time>
      </trkpt>
      <trkpt lat="42.458920000" lon="-2.465210000">
        <ele>426.90</ele>
        <time>2017-02-18T06:04:16Z</time>
      </trkpt>
      <trkpt lat="42.458920000" lon="-2.465200000">
        <ele>427.00</ele>
        <time>2017-02-18T06:04:17Z</time>
      </trkpt>
      <trkpt lat="42.458920000" lon="-2.465196000">
        <ele>427.00</ele>
        <time>2017-02-18T06:04:18Z</time>
      </trkpt>
      <trkpt lat="42.458919000" lon="-2.465194000">
        <ele>427.00</ele>
        <time>2017-02-18T06:04:19Z</time>
      </trkpt>
      <trkpt lat="42.458918000" lon="-2.465197000">
        <ele>427.00</ele>
        <time>2017-02-18T06:04:20Z</time>
      </trkpt>
      <trkpt lat="42.458916000" lon="-2.465192000">
        <ele>427.10</ele>
        <time>2017-02-18T06:04:21Z</time>
      </trkpt>
      <trkpt lat="42.458914000" lon="-2.465194000">
        <ele>427.10</ele>
        <time>2017-02-18T06:04:22Z</time>
      </trkpt>
      <trkpt lat="42.458913000" lon="-2.465195000">
        <ele>427.10</ele>
        <time>2017-02-18T06:04:23Z</time>
      </trkpt>
      <trkpt lat="42.458913000" lon="-2.465201000">
        <ele>427.20</ele>
        <time>2017-02-18T06:04:24Z</time>
      </trkpt>
      <trkpt lat="42.458914000" lon="-2.465205000">
        <ele>427.20</ele>
        <time>2017-02-18T06:04:25Z</time>
      </trkpt>
      <trkpt lat="42.458915000" lon="-2.465207000">
        <ele>427.20</ele>
        <time>2017-02-18T06:04:26Z</time>
      </trkpt>
      <trkpt lat="42.458917000" lon="-2.465210000">
        <ele>427.20</ele>
        <time>2017-02-18T06:04:27Z</time>
      </trkpt>
      <trkpt lat="42.458920000" lon="-2.465214000">
        <ele>427.20</ele>
        <time>2017-02-18T06:04:28Z</time>
      </trkpt>
      <trkpt lat="42.458923000" lon="-2.465219000">
        <ele>427.20</ele>
        <time>2017-02-18T06:04:29Z</time>
      </trkpt>
      <trkpt lat="42.458925000" lon="-2.465225000">
        <ele>427.10</ele>
        <time>2017-02-18T06:04:30Z</time>
      </trkpt>
      <trkpt lat="42.458926000" lon="-2.465231000">
        <ele>427.10</ele>
        <time>2017-02-18T06:04:31Z</time>
      </trkpt>
      <trkpt lat="42.458927000" lon="-2.465238000">
        <ele>427.10</ele>
        <time>2017-02-18T06:04:32Z</time>
      </trkpt>
      <trkpt lat="42.458927000" lon="-2.465241000">
        <ele>427.10</ele>
        <time>2017-02-18T06:04:33Z</time>
      </trkpt>
      <trkpt lat="42.458930000" lon="-2.465244000">
        <ele>427.00</ele>
        <time>2017-02-18T06:04:34Z</time>
      </trkpt>
      <trkpt lat="42.458931000" lon="-2.465243000">
        <ele>427.10</ele>
        <time>2017-02-18T06:04:35Z</time>
      </trkpt>
      <trkpt lat="42.458933000" lon="-2.465240000">
        <ele>427.10</ele>
        <time>2017-02-18T06:04:36Z</time>
      </trkpt>
      <trkpt lat="42.458934000" lon="-2.465239000">
        <ele>427.20</ele>
        <time>2017-02-18T06:04:37Z</time>
      </trkpt>
      <trkpt lat="42.458935000" lon="-2.465238000">
        <ele>427.20</ele>
        <time>2017-02-18T06:04:38Z</time>
      </trkpt>
      <trkpt lat="42.458937000" lon="-2.465234000">
        <ele>427.10</ele>
        <time>2017-02-18T06:04:39Z</time>
      </trkpt>
      <trkpt lat="42.458936000" lon="-2.465234000">
        <ele>427.10</ele>
        <time>2017-02-18T06:04:40Z</time>
      </trkpt>
      <trkpt lat="42.458938000" lon="-2.465229000">
        <ele>426.90</ele>
        <time>2017-02-18T06:04:41Z</time>
      </trkpt>
      <trkpt lat="42.458938000" lon="-2.465228000">
        <ele>426.70</ele>
        <time>2017-02-18T06:04:42Z</time>
      </trkpt>
      <trkpt lat="42.458937000" lon="-2.465232000">
        <ele>426.60</ele>
        <time>2017-02-18T06:04:43Z</time>
      </trkpt>
      <trkpt lat="42.458938000" lon="-2.465233000">
        <ele>426.50</ele>
        <time>2017-02-18T06:04:44Z</time>
      </trkpt>
      <trkpt lat="42.458939000" lon="-2.465233000">
        <ele>426.50</ele>
        <time>2017-02-18T06:04:45Z</time>
      </trkpt>
      <trkpt lat="42.458942000" lon="-2.465232000">
        <ele>426.50</ele>
        <time>2017-02-18T06:04:46Z</time>
      </trkpt>
      <trkpt lat="42.458945000" lon="-2.465228000">
        <ele>426.60</ele>
        <time>2017-02-18T06:04:47Z</time>
      </trkpt>
      <trkpt lat="42.458945000" lon="-2.465232000">
        <ele>426.70</ele>
        <time>2017-02-18T06:04:48Z</time>
      </trkpt>
      <trkpt lat="42.458944000" lon="-2.465237000">
        <ele>426.80</ele>
        <time>2017-02-18T06:04:49Z</time>
      </trkpt>
      <trkpt lat="42.458943000" lon="-2.465243000">
        <ele>426.90</ele>
        <time>2017-02-18T06:04:50Z</time>
      </trkpt>
      <trkpt lat="42.458943000" lon="-2.465249000">
        <ele>426.90</ele>
        <time>2017-02-18T06:04:51Z</time>
      </trkpt>
      <trkpt lat="42.458946000" lon="-2.465254000">
        <ele>426.90</ele>
        <time>2017-02-18T06:04:52Z</time>
      </trkpt>
      <trkpt lat="42.458943000" lon="-2.465258000">
        <ele>426.90</ele>
        <time>2017-02-18T06:04:53Z</time>
      </trkpt>
      <trkpt lat="42.458940000" lon="-2.465262000">
        <ele>426.90</ele>
        <time>2017-02-18T06:04:54Z</time>
      </trkpt>
      <trkpt lat="42.458937000" lon="-2.465266000">
        <ele>426.80</ele>
        <time>2017-02-18T06:04:55Z</time>
      </trkpt>
      <trkpt lat="42.458940000" lon="-2.465267000">
        <ele>426.80</ele>
        <time>2017-02-18T06:04:57Z</time>
      </trkpt>
      <trkpt lat="42.458945000" lon="-2.465257000">
        <ele>426.70</ele>
        <time>2017-02-18T06:04:58Z</time>
      </trkpt>
      <trkpt lat="42.458954000" lon="-2.465244000">
        <ele>426.70</ele>
        <time>2017-02-18T06:04:59Z</time>
      </trkpt>
      <trkpt lat="42.458957000" lon="-2.465229000">
        <ele>426.70</ele>
        <time>2017-02-18T06:05:00Z</time>
      </trkpt>
      <trkpt lat="42.458968000" lon="-2.465213000">
        <ele>426.80</ele>
        <time>2017-02-18T06:05:01Z</time>
      </trkpt>
      <trkpt lat="42.458975000" lon="-2.465188000">
        <ele>426.90</ele>
        <time>2017-02-18T06:05:02Z</time>
      </trkpt>
      <trkpt lat="42.458978000" lon="-2.465171000">
        <ele>426.90</ele>
        <time>2017-02-18T06:05:03Z</time>
      </trkpt>
      <trkpt lat="42.458982000" lon="-2.465151000">
        <ele>427.00</ele>
        <time>2017-02-18T06:05:04Z</time>
      </trkpt>
      <trkpt lat="42.458985000" lon="-2.465128000">
        <ele>427.00</ele>
        <time>2017-02-18T06:05:05Z</time>
      </trkpt>
      <trkpt lat="42.458990000" lon="-2.465112000">
        <ele>426.90</ele>
        <time>2017-02-18T06:05:06Z</time>
      </trkpt>
      <trkpt lat="42.459005000" lon="-2.465082000">
        <ele>426.80</ele>
        <time>2017-02-18T06:05:07Z</time>
      </trkpt>
      <trkpt lat="42.459023000" lon="-2.465000000">
        <ele>426.80</ele>
        <time>2017-02-18T06:05:08Z</time>
      </trkpt>
      <trkpt lat="42.459034000" lon="-2.464937000">
        <ele>426.70</ele>
        <time>2017-02-18T06:05:09Z</time>
      </trkpt>
      <trkpt lat="42.459033000" lon="-2.464895000">
        <ele>426.70</ele>
        <time>2017-02-18T06:05:10Z</time>
      </trkpt>
      <trkpt lat="42.459035000" lon="-2.464851000">
        <ele>426.70</ele>
        <time>2017-02-18T06:05:11Z</time>
      </trkpt>
      <trkpt lat="42.459036000" lon="-2.464807000">
        <ele>426.60</ele>
        <time>2017-02-18T06:05:12Z</time>
      </trkpt>
      <trkpt lat="42.459038000" lon="-2.464771000">
        <ele>426.70</ele>
        <time>2017-02-18T06:05:13Z</time>
      </trkpt>
      <trkpt lat="42.459041000" lon="-2.464735000">
        <ele>426.80</ele>
        <time>2017-02-18T06:05:14Z</time>
      </trkpt>
      <trkpt lat="42.459045000" lon="-2.464704000">
        <ele>426.90</ele>
        <time>2017-02-18T06:05:15Z</time>
      </trkpt>
      <trkpt lat="42.459053000" lon="-2.464672000">
        <ele>426.90</ele>
        <time>2017-02-18T06:05:16Z</time>
      </trkpt>
      <trkpt lat="42.459059000" lon="-2.464640000">
        <ele>426.90</ele>
        <time>2017-02-18T06:05:17Z</time>
      </trkpt>
      <trkpt lat="42.459067000" lon="-2.464612000">
        <ele>426.90</ele>
        <time>2017-02-18T06:05:18Z</time>
      </trkpt>
      <trkpt lat="42.459073000" lon="-2.464585000">
        <ele>426.70</ele>
        <time>2017-02-18T06:05:19Z</time>
      </trkpt>
      <trkpt lat="42.459075000" lon="-2.464558000">
        <ele>426.60</ele>
        <time>2017-02-18T06:05:20Z</time>
      </trkpt>
      <trkpt lat="42.459080000" lon="-2.464532000">
        <ele>426.60</ele>
        <time>2017-02-18T06:05:21Z</time>
      </trkpt>
      <trkpt lat="42.459084000" lon="-2.464504000">
        <ele>426.50</ele>
        <time>2017-02-18T06:05:22Z</time>
      </trkpt>
      <trkpt lat="42.459086000" lon="-2.464479000">
        <ele>426.50</ele>
        <time>2017-02-18T06:05:23Z</time>
      </trkpt>
      <trkpt lat="42.459087000" lon="-2.464453000">
        <ele>426.50</ele>
        <time>2017-02-18T06:05:24Z</time>
      </trkpt>
      <trkpt lat="42.459092000" lon="-2.464427000">
        <ele>426.50</ele>
        <time>2017-02-18T06:05:25Z</time>
      </trkpt>
      <trkpt lat="42.459096000" lon="-2.464402000">
        <ele>426.50</ele>
        <time>2017-02-18T06:05:26Z</time>
      </trkpt>
      <trkpt lat="42.459101000" lon="-2.464380000">
        <ele>426.70</ele>
        <time>2017-02-18T06:05:27Z</time>
      </trkpt>
      <trkpt lat="42.459106000" lon="-2.464356000">
        <ele>426.80</ele>
        <time>2017-02-18T06:05:28Z</time>
      </trkpt>
      <trkpt lat="42.459110000" lon="-2.464331000">
        <ele>426.80</ele>
        <time>2017-02-18T06:05:29Z</time>
      </trkpt>
      <trkpt lat="42.459117000" lon="-2.464306000">
        <ele>426.80</ele>
        <time>2017-02-18T06:05:30Z</time>
      </trkpt>
      <trkpt lat="42.459122000" lon="-2.464277000">
        <ele>426.80</ele>
        <time>2017-02-18T06:05:31Z</time>
      </trkpt>
      <trkpt lat="42.459130000" lon="-2.464248000">
        <ele>426.80</ele>
        <time>2017-02-18T06:05:32Z</time>
      </trkpt>
      <trkpt lat="42.459134000" lon="-2.464220000">
        <ele>426.80</ele>
        <time>2017-02-18T06:05:33Z</time>
      </trkpt>
      <trkpt lat="42.459143000" lon="-2.464192000">
        <ele>426.80</ele>
        <time>2017-02-18T06:05:34Z</time>
      </trkpt>
      <trkpt lat="42.459152000" lon="-2.464166000">
        <ele>426.60</ele>
        <time>2017-02-18T06:05:35Z</time>
      </trkpt>
      <trkpt lat="42.459158000" lon="-2.464142000">
        <ele>426.40</ele>
        <time>2017-02-18T06:05:36Z</time>
      </trkpt>
      <trkpt lat="42.459166000" lon="-2.464114000">
        <ele>426.20</ele>
        <time>2017-02-18T06:05:37Z</time>
      </trkpt>
      <trkpt lat="42.459178000" lon="-2.464085000">
        <ele>426.10</ele>
        <time>2017-02-18T06:05:38Z</time>
      </trkpt>
      <trkpt lat="42.459184000" lon="-2.464055000">
        <ele>426.20</ele>
        <time>2017-02-18T06:05:39Z</time>
      </trkpt>
      <trkpt lat="42.459191000" lon="-2.464025000">
        <ele>426.20</ele>
        <time>2017-02-18T06:05:40Z</time>
      </trkpt>
      <trkpt lat="42.459200000" lon="-2.463996000">
        <ele>426.20</ele>
        <time>2017-02-18T06:05:41Z</time>
      </trkpt>
      <trkpt lat="42.459205000" lon="-2.463967000">
        <ele>426.30</ele>
        <time>2017-02-18T06:05:42Z</time>
      </trkpt>
      <trkpt lat="42.459211000" lon="-2.463940000">
        <ele>426.10</ele>
        <time>2017-02-18T06:05:43Z</time>
      </trkpt>
      <trkpt lat="42.459230000" lon="-2.463921000">
        <ele>426.10</ele>
        <time>2017-02-18T06:05:44Z</time>
      </trkpt>
      <trkpt lat="42.459250000" lon="-2.463907000">
        <ele>426.00</ele>
        <time>2017-02-18T06:05:45Z</time>
      </trkpt>
      <trkpt lat="42.459271000" lon="-2.463892000">
        <ele>425.90</ele>
        <time>2017-02-18T06:05:46Z</time>
      </trkpt>
      <trkpt lat="42.459294000" lon="-2.463877000">
        <ele>425.90</ele>
        <time>2017-02-18T06:05:47Z</time>
      </trkpt>
      <trkpt lat="42.459320000" lon="-2.463876000">
        <ele>425.90</ele>
        <time>2017-02-18T06:05:48Z</time>
      </trkpt>
      <trkpt lat="42.459341000" lon="-2.463883000">
        <ele>426.00</ele>
        <time>2017-02-18T06:05:49Z</time>
      </trkpt>
      <trkpt lat="42.459360000" lon="-2.463893000">
        <ele>426.00</ele>
        <time>2017-02-18T06:05:50Z</time>
      </trkpt>
      <trkpt lat="42.459385000" lon="-2.463904000">
        <ele>426.30</ele>
        <time>2017-02-18T06:05:51Z</time>
      </trkpt>
      <trkpt lat="42.459410000" lon="-2.463914000">
        <ele>426.50</ele>
        <time>2017-02-18T06:05:52Z</time>
      </trkpt>
      <trkpt lat="42.459436000" lon="-2.463930000">
        <ele>426.60</ele>
        <time>2017-02-18T06:05:53Z</time>
      </trkpt>
      <trkpt lat="42.459462000" lon="-2.463942000">
        <ele>426.70</ele>
        <time>2017-02-18T06:05:54Z</time>
      </trkpt>
      <trkpt lat="42.459486000" lon="-2.463954000">
        <ele>426.80</ele>
        <time>2017-02-18T06:05:55Z</time>
      </trkpt>
      <trkpt lat="42.459511000" lon="-2.463962000">
        <ele>426.80</ele>
        <time>2017-02-18T06:05:56Z</time>
      </trkpt>
      <trkpt lat="42.459560000" lon="-2.463982000">
        <ele>426.80</ele>
        <time>2017-02-18T06:05:58Z</time>
      </trkpt>
      <trkpt lat="42.459584000" lon="-2.463991000">
        <ele>426.80</ele>
        <time>2017-02-18T06:05:59Z</time>
      </trkpt>
      <trkpt lat="42.459607000" lon="-2.464000000">
        <ele>426.80</ele>
        <time>2017-02-18T06:06:00Z</time>
      </trkpt>
      <trkpt lat="42.459627000" lon="-2.464006000">
        <ele>426.90</ele>
        <time>2017-02-18T06:06:01Z</time>
      </trkpt>
      <trkpt lat="42.459649000" lon="-2.464015000">
        <ele>426.90</ele>
        <time>2017-02-18T06:06:02Z</time>
      </trkpt>
      <trkpt lat="42.459669000" lon="-2.464026000">
        <ele>426.90</ele>
        <time>2017-02-18T06:06:03Z</time>
      </trkpt>
      <trkpt lat="42.459692000" lon="-2.464029000">
        <ele>426.90</ele>
        <time>2017-02-18T06:06:04Z</time>
      </trkpt>
      <trkpt lat="42.459712000" lon="-2.464031000">
        <ele>426.80</ele>
        <time>2017-02-18T06:06:05Z</time>
      </trkpt>
      <trkpt lat="42.459738000" lon="-2.464036000">
        <ele>426.80</ele>
        <time>2017-02-18T06:06:06Z</time>
      </trkpt>
      <trkpt lat="42.459764000" lon="-2.464040000">
        <ele>426.80</ele>
        <time>2017-02-18T06:06:07Z</time>
      </trkpt>
      <trkpt lat="42.459794000" lon="-2.464041000">
        <ele>426.70</ele>
        <time>2017-02-18T06:06:08Z</time>
      </trkpt>
      <trkpt lat="42.459823000" lon="-2.464039000">
        <ele>426.70</ele>
        <time>2017-02-18T06:06:09Z</time>
      </trkpt>
      <trkpt lat="42.459851000" lon="-2.464038000">
        <ele>426.60</ele>
        <time>2017-02-18T06:06:10Z</time>
      </trkpt>
      <trkpt lat="42.459879000" lon="-2.464031000">
        <ele>426.50</ele>
        <time>2017-02-18T06:06:11Z</time>
      </trkpt>
      <trkpt lat="42.459904000" lon="-2.464015000">
        <ele>426.50</ele>
        <time>2017-02-18T06:06:12Z</time>
      </trkpt>
      <trkpt lat="42.459930000" lon="-2.463995000">
        <ele>426.50</ele>
        <time>2017-02-18T06:06:13Z</time>
      </trkpt>
      <trkpt lat="42.459964000" lon="-2.463977000">
        <ele>426.50</ele>
        <time>2017-02-18T06:06:14Z</time>
      </trkpt>
      <trkpt lat="42.460000000" lon="-2.463958000">
        <ele>426.40</ele>
        <time>2017-02-18T06:06:15Z</time>
      </trkpt>
      <trkpt lat="42.460039000" lon="-2.463941000">
        <ele>426.30</ele>
        <time>2017-02-18T06:06:16Z</time>
      </trkpt>
      <trkpt lat="42.460078000" lon="-2.463920000">
        <ele>426.20</ele>
        <time>2017-02-18T06:06:17Z</time>
      </trkpt>
      <trkpt lat="42.460117000" lon="-2.463894000">
        <ele>426.00</ele>
        <time>2017-02-18T06:06:18Z</time>
      </trkpt>
      <trkpt lat="42.460160000" lon="-2.463864000">
        <ele>425.80</ele>
        <time>2017-02-18T06:06:19Z</time>
      </trkpt>
      <trkpt lat="42.460206000" lon="-2.463838000">
        <ele>425.60</ele>
        <time>2017-02-18T06:06:20Z</time>
      </trkpt>
      <trkpt lat="42.460257000" lon="-2.463810000">
        <ele>425.40</ele>
        <time>2017-02-18T06:06:21Z</time>
      </trkpt>
      <trkpt lat="42.460309000" lon="-2.463779000">
        <ele>425.10</ele>
        <time>2017-02-18T06:06:22Z</time>
      </trkpt>
      <trkpt lat="42.460364000" lon="-2.463744000">
        <ele>424.90</ele>
        <time>2017-02-18T06:06:23Z</time>
      </trkpt>
      <trkpt lat="42.460420000" lon="-2.463714000">
        <ele>424.80</ele>
        <time>2017-02-18T06:06:24Z</time>
      </trkpt>
      <trkpt lat="42.460471000" lon="-2.463684000">
        <ele>424.70</ele>
        <time>2017-02-18T06:06:25Z</time>
      </trkpt>
      <trkpt lat="42.460525000" lon="-2.463652000">
        <ele>424.10</ele>
        <time>2017-02-18T06:06:26Z</time>
      </trkpt>
      <trkpt lat="42.460572000" lon="-2.463621000">
        <ele>423.60</ele>
        <time>2017-02-18T06:06:27Z</time>
      </trkpt>
      <trkpt lat="42.460613000" lon="-2.463594000">
        <ele>423.20</ele>
        <time>2017-02-18T06:06:28Z</time>
      </trkpt>
      <trkpt lat="42.460652000" lon="-2.463565000">
        <ele>422.90</ele>
        <time>2017-02-18T06:06:29Z</time>
      </trkpt>
      <trkpt lat="42.460695000" lon="-2.463543000">
        <ele>422.10</ele>
        <time>2017-02-18T06:06:30Z</time>
      </trkpt>
      <trkpt lat="42.460733000" lon="-2.463541000">
        <ele>421.60</ele>
        <time>2017-02-18T06:06:31Z</time>
      </trkpt>
      <trkpt lat="42.460774000" lon="-2.463548000">
        <ele>421.10</ele>
        <time>2017-02-18T06:06:32Z</time>
      </trkpt>
      <trkpt lat="42.460818000" lon="-2.463563000">
        <ele>420.80</ele>
        <time>2017-02-18T06:06:33Z</time>
      </trkpt>
      <trkpt lat="42.460859000" lon="-2.463579000">
        <ele>420.50</ele>
        <time>2017-02-18T06:06:34Z</time>
      </trkpt>
      <trkpt lat="42.460895000" lon="-2.463594000">
        <ele>420.40</ele>
        <time>2017-02-18T06:06:35Z</time>
      </trkpt>
      <trkpt lat="42.460931000" lon="-2.463609000">
        <ele>420.10</ele>
        <time>2017-02-18T06:06:36Z</time>
      </trkpt>
      <trkpt lat="42.460966000" lon="-2.463622000">
        <ele>420.00</ele>
        <time>2017-02-18T06:06:37Z</time>
      </trkpt>
      <trkpt lat="42.460998000" lon="-2.463635000">
        <ele>420.00</ele>
        <time>2017-02-18T06:06:38Z</time>
      </trkpt>
      <trkpt lat="42.461028000" lon="-2.463647000">
        <ele>420.00</ele>
        <time>2017-02-18T06:06:39Z</time>
      </trkpt>
      <trkpt lat="42.461060000" lon="-2.463658000">
        <ele>419.90</ele>
        <time>2017-02-18T06:06:40Z</time>
      </trkpt>
      <trkpt lat="42.461088000" lon="-2.463671000">
        <ele>419.80</ele>
        <time>2017-02-18T06:06:41Z</time>
      </trkpt>
      <trkpt lat="42.461119000" lon="-2.463683000">
        <ele>419.80</ele>
        <time>2017-02-18T06:06:42Z</time>
      </trkpt>
      <trkpt lat="42.461149000" lon="-2.463693000">
        <ele>419.80</ele>
        <time>2017-02-18T06:06:43Z</time>
      </trkpt>
      <trkpt lat="42.461179000" lon="-2.463700000">
        <ele>419.70</ele>
        <time>2017-02-18T06:06:44Z</time>
      </trkpt>
      <trkpt lat="42.461208000" lon="-2.463709000">
        <ele>419.60</ele>
        <time>2017-02-18T06:06:45Z</time>
      </trkpt>
      <trkpt lat="42.461238000" lon="-2.463718000">
        <ele>419.60</ele>
        <time>2017-02-18T06:06:46Z</time>
      </trkpt>
      <trkpt lat="42.461266000" lon="-2.463730000">
        <ele>419.50</ele>
        <time>2017-02-18T06:06:47Z</time>
      </trkpt>
      <trkpt lat="42.461296000" lon="-2.463739000">
        <ele>419.50</ele>
        <time>2017-02-18T06:06:48Z</time>
      </trkpt>
      <trkpt lat="42.461326000" lon="-2.463750000">
        <ele>419.50</ele>
        <time>2017-02-18T06:06:49Z</time>
      </trkpt>
      <trkpt lat="42.461358000" lon="-2.463763000">
        <ele>419.50</ele>
        <time>2017-02-18T06:06:50Z</time>
      </trkpt>
      <trkpt lat="42.461389000" lon="-2.463778000">
        <ele>419.50</ele>
        <time>2017-02-18T06:06:51Z</time>
      </trkpt>
      <trkpt lat="42.461421000" lon="-2.463790000">
        <ele>419.50</ele>
        <time>2017-02-18T06:06:52Z</time>
      </trkpt>
      <trkpt lat="42.461452000" lon="-2.463803000">
        <ele>419.50</ele>
        <time>2017-02-18T06:06:53Z</time>
      </trkpt>
      <trkpt lat="42.461483000" lon="-2.463817000">
        <ele>419.30</ele>
        <time>2017-02-18T06:06:54Z</time>
      </trkpt>
      <trkpt lat="42.461516000" lon="-2.463830000">
        <ele>419.20</ele>
        <time>2017-02-18T06:06:55Z</time>
      </trkpt>
      <trkpt lat="42.461543000" lon="-2.463843000">
        <ele>419.10</ele>
        <time>2017-02-18T06:06:56Z</time>
      </trkpt>
      <trkpt lat="42.461567000" lon="-2.463856000">
        <ele>419.00</ele>
        <time>2017-02-18T06:06:57Z</time>
      </trkpt>
      <trkpt lat="42.461620000" lon="-2.463884000">
        <ele>418.90</ele>
        <time>2017-02-18T06:06:59Z</time>
      </trkpt>
      <trkpt lat="42.461645000" lon="-2.463900000">
        <ele>418.80</ele>
        <time>2017-02-18T06:07:00Z</time>
      </trkpt>
      <trkpt lat="42.461668000" lon="-2.463919000">
        <ele>418.80</ele>
        <time>2017-02-18T06:07:01Z</time>
      </trkpt>
      <trkpt lat="42.461691000" lon="-2.463942000">
        <ele>418.80</ele>
        <time>2017-02-18T06:07:02Z</time>
      </trkpt>
      <trkpt lat="42.461718000" lon="-2.463957000">
        <ele>418.80</ele>
        <time>2017-02-18T06:07:03Z</time>
      </trkpt>
      <trkpt lat="42.461748000" lon="-2.463973000">
        <ele>418.80</ele>
        <time>2017-02-18T06:07:04Z</time>
      </trkpt>
      <trkpt lat="42.461779000" lon="-2.463988000">
        <ele>418.80</ele>
        <time>2017-02-18T06:07:05Z</time>
      </trkpt>
      <trkpt lat="42.461809000" lon="-2.464006000">
        <ele>418.80</ele>
        <time>2017-02-18T06:07:06Z</time>
      </trkpt>
      <trkpt lat="42.461841000" lon="-2.464022000">
        <ele>418.80</ele>
        <time>2017-02-18T06:07:07Z</time>
      </trkpt>
      <trkpt lat="42.461872000" lon="-2.464034000">
        <ele>418.90</ele>
        <time>2017-02-18T06:07:08Z</time>
      </trkpt>
      <trkpt lat="42.461905000" lon="-2.464047000">
        <ele>418.90</ele>
        <time>2017-02-18T06:07:09Z</time>
      </trkpt>
      <trkpt lat="42.461944000" lon="-2.464060000">
        <ele>418.90</ele>
        <time>2017-02-18T06:07:10Z</time>
      </trkpt>
      <trkpt lat="42.461989000" lon="-2.464068000">
        <ele>418.90</ele>
        <time>2017-02-18T06:07:11Z</time>
      </trkpt>
      <trkpt lat="42.462031000" lon="-2.464078000">
        <ele>418.90</ele>
        <time>2017-02-18T06:07:12Z</time>
      </trkpt>
      <trkpt lat="42.462070000" lon="-2.464090000">
        <ele>418.90</ele>
        <time>2017-02-18T06:07:13Z</time>
      </trkpt>
      <trkpt lat="42.462111000" lon="-2.464106000">
        <ele>419.00</ele>
        <time>2017-02-18T06:07:14Z</time>
      </trkpt>
      <trkpt lat="42.462148000" lon="-2.464120000">
        <ele>419.00</ele>
        <time>2017-02-18T06:07:15Z</time>
      </trkpt>
      <trkpt lat="42.462182000" lon="-2.464138000">
        <ele>419.10</ele>
        <time>2017-02-18T06:07:16Z</time>
      </trkpt>
      <trkpt lat="42.462215000" lon="-2.464154000">
        <ele>419.10</ele>
        <time>2017-02-18T06:07:17Z</time>
      </trkpt>
      <trkpt lat="42.462247000" lon="-2.464171000">
        <ele>419.10</ele>
        <time>2017-02-18T06:07:18Z</time>
      </trkpt>
      <trkpt lat="42.462280000" lon="-2.464186000">
        <ele>419.10</ele>
        <time>2017-02-18T06:07:19Z</time>
      </trkpt>
      <trkpt lat="42.462312000" lon="-2.464201000">
        <ele>419.20</ele>
        <time>2017-02-18T06:07:20Z</time>
      </trkpt>
      <trkpt lat="42.462346000" lon="-2.464218000">
        <ele>419.20</ele>
        <time>2017-02-18T06:07:21Z</time>
      </trkpt>
      <trkpt lat="42.462376000" lon="-2.464236000">
        <ele>419.20</ele>
        <time>2017-02-18T06:07:22Z</time>
      </trkpt>
      <trkpt lat="42.462407000" lon="-2.464253000">
        <ele>419.20</ele>
        <time>2017-02-18T06:07:23Z</time>
      </trkpt>
      <trkpt lat="42.462434000" lon="-2.464266000">
        <ele>419.20</ele>
        <time>2017-02-18T06:07:24Z</time>
      </trkpt>
      <trkpt lat="42.462464000" lon="-2.464279000">
        <ele>419.20</ele>
        <time>2017-02-18T06:07:25Z</time>
      </trkpt>
      <trkpt lat="42.462491000" lon="-2.464293000">
        <ele>419.20</ele>
        <time>2017-02-18T06:07:26Z</time>
      </trkpt>
      <trkpt lat="42.462520000" lon="-2.464306000">
        <ele>419.20</ele>
        <time>2017-02-18T06:07:27Z</time>
      </trkpt>
      <trkpt lat="42.462548000" lon="-2.464319000">
        <ele>419.20</ele>
        <time>2017-02-18T06:07:28Z</time>
      </trkpt>
      <trkpt lat="42.462575000" lon="-2.464331000">
        <ele>419.20</ele>
        <time>2017-02-18T06:07:29Z</time>
      </trkpt>
      <trkpt lat="42.462600000" lon="-2.464343000">
        <ele>419.20</ele>
        <time>2017-02-18T06:07:30Z</time>
      </trkpt>
      <trkpt lat="42.462623000" lon="-2.464353000">
        <ele>419.20</ele>
        <time>2017-02-18T06:07:31Z</time>
      </trkpt>
      <trkpt lat="42.462648000" lon="-2.464362000">
        <ele>419.20</ele>
        <time>2017-02-18T06:07:32Z</time>
      </trkpt>
      <trkpt lat="42.462671000" lon="-2.464372000">
        <ele>419.20</ele>
        <time>2017-02-18T06:07:33Z</time>
      </trkpt>
      <trkpt lat="42.462694000" lon="-2.464378000">
        <ele>419.20</ele>
        <time>2017-02-18T06:07:34Z</time>
      </trkpt>
      <trkpt lat="42.462714000" lon="-2.464385000">
        <ele>419.30</ele>
        <time>2017-02-18T06:07:35Z</time>
      </trkpt>
      <trkpt lat="42.462733000" lon="-2.464392000">
        <ele>419.30</ele>
        <time>2017-02-18T06:07:36Z</time>
      </trkpt>
      <trkpt lat="42.462750000" lon="-2.464397000">
        <ele>419.30</ele>
        <time>2017-02-18T06:07:37Z</time>
      </trkpt>
      <trkpt lat="42.462766000" lon="-2.464401000">
        <ele>419.40</ele>
        <time>2017-02-18T06:07:38Z</time>
      </trkpt>
      <trkpt lat="42.462782000" lon="-2.464404000">
        <ele>419.40</ele>
        <time>2017-02-18T06:07:39Z</time>
      </trkpt>
      <trkpt lat="42.462786000" lon="-2.464405000">
        <ele>419.40</ele>
        <time>2017-02-18T06:07:40Z</time>
      </trkpt>
      <trkpt lat="42.462795000" lon="-2.464406000">
        <ele>419.40</ele>
        <time>2017-02-18T06:07:41Z</time>
      </trkpt>
      <trkpt lat="42.462802000" lon="-2.464408000">
        <ele>419.40</ele>
        <time>2017-02-18T06:07:42Z</time>
      </trkpt>
      <trkpt lat="42.462803000" lon="-2.464410000">
        <ele>419.50</ele>
        <time>2017-02-18T06:07:43Z</time>
      </trkpt>
      <trkpt lat="42.462801000" lon="-2.464409000">
        <ele>419.60</ele>
        <time>2017-02-18T06:07:44Z</time>
      </trkpt>
      <trkpt lat="42.462799000" lon="-2.464407000">
        <ele>419.60</ele>
        <time>2017-02-18T06:07:45Z</time>
      </trkpt>
      <trkpt lat="42.462806000" lon="-2.464404000">
        <ele>419.60</ele>
        <time>2017-02-18T06:07:46Z</time>
      </trkpt>
      <trkpt lat="42.462816000" lon="-2.464407000">
        <ele>419.60</ele>
        <time>2017-02-18T06:07:47Z</time>
      </trkpt>
      <trkpt lat="42.462829000" lon="-2.464403000">
        <ele>419.70</ele>
        <time>2017-02-18T06:07:48Z</time>
      </trkpt>
      <trkpt lat="42.462841000" lon="-2.464391000">
        <ele>419.70</ele>
        <time>2017-02-18T06:07:49Z</time>
      </trkpt>
      <trkpt lat="42.462850000" lon="-2.464376000">
        <ele>419.60</ele>
        <time>2017-02-18T06:07:50Z</time>
      </trkpt>
      <trkpt lat="42.462861000" lon="-2.464356000">
        <ele>419.60</ele>
        <time>2017-02-18T06:07:51Z</time>
      </trkpt>
      <trkpt lat="42.462870000" lon="-2.464329000">
        <ele>419.60</ele>
        <time>2017-02-18T06:07:52Z</time>
      </trkpt>
      <trkpt lat="42.462880000" lon="-2.464301000">
        <ele>419.60</ele>
        <time>2017-02-18T06:07:53Z</time>
      </trkpt>
      <trkpt lat="42.462887000" lon="-2.464268000">
        <ele>419.60</ele>
        <time>2017-02-18T06:07:54Z</time>
      </trkpt>
      <trkpt lat="42.462894000" lon="-2.464233000">
        <ele>419.50</ele>
        <time>2017-02-18T06:07:55Z</time>
      </trkpt>
      <trkpt lat="42.462896000" lon="-2.464195000">
        <ele>419.50</ele>
        <time>2017-02-18T06:07:56Z</time>
      </trkpt>
      <trkpt lat="42.462904000" lon="-2.464155000">
        <ele>419.50</ele>
        <time>2017-02-18T06:07:57Z</time>
      </trkpt>
      <trkpt lat="42.462911000" lon="-2.464114000">
        <ele>419.50</ele>
        <time>2017-02-18T06:07:58Z</time>
      </trkpt>
      <trkpt lat="42.462924000" lon="-2.464031000">
        <ele>419.50</ele>
        <time>2017-02-18T06:08:00Z</time>
      </trkpt>
      <trkpt lat="42.462931000" lon="-2.463988000">
        <ele>419.60</ele>
        <time>2017-02-18T06:08:01Z</time>
      </trkpt>
      <trkpt lat="42.462941000" lon="-2.463946000">
        <ele>419.60</ele>
        <time>2017-02-18T06:08:02Z</time>
      </trkpt>
      <trkpt lat="42.462953000" lon="-2.463905000">
        <ele>419.40</ele>
        <time>2017-02-18T06:08:03Z</time>
      </trkpt>
      <trkpt lat="42.462964000" lon="-2.463864000">
        <ele>419.30</ele>
        <time>2017-02-18T06:08:04Z</time>
      </trkpt>
      <trkpt lat="42.462974000" lon="-2.463823000">
        <ele>419.20</ele>
        <time>2017-02-18T06:08:05Z</time>
      </trkpt>
      <trkpt lat="42.462985000" lon="-2.463785000">
        <ele>419.10</ele>
        <time>2017-02-18T06:08:06Z</time>
      </trkpt>
      <trkpt lat="42.462996000" lon="-2.463746000">
        <ele>419.10</ele>
        <time>2017-02-18T06:08:07Z</time>
      </trkpt>
      <trkpt lat="42.463006000" lon="-2.463708000">
        <ele>419.10</ele>
        <time>2017-02-18T06:08:08Z</time>
      </trkpt>
      <trkpt lat="42.463019000" lon="-2.463666000">
        <ele>419.20</ele>
        <time>2017-02-18T06:08:09Z</time>
      </trkpt>
      <trkpt lat="42.463030000" lon="-2.463626000">
        <ele>419.20</ele>
        <time>2017-02-18T06:08:10Z</time>
      </trkpt>
      <trkpt lat="42.463041000" lon="-2.463587000">
        <ele>419.30</ele>
        <time>2017-02-18T06:08:11Z</time>
      </trkpt>
      <trkpt lat="42.463051000" lon="-2.463550000">
        <ele>419.30</ele>
        <time>2017-02-18T06:08:12Z</time>
      </trkpt>
      <trkpt lat="42.463061000" lon="-2.463510000">
        <ele>419.30</ele>
        <time>2017-02-18T06:08:13Z</time>
      </trkpt>
      <trkpt lat="42.463074000" lon="-2.463472000">
        <ele>419.30</ele>
        <time>2017-02-18T06:08:14Z</time>
      </trkpt>
      <trkpt lat="42.463083000" lon="-2.463432000">
        <ele>419.20</ele>
        <time>2017-02-18T06:08:15Z</time>
      </trkpt>
      <trkpt lat="42.463092000" lon="-2.463385000">
        <ele>419.10</ele>
        <time>2017-02-18T06:08:16Z</time>
      </trkpt>
      <trkpt lat="42.463100000" lon="-2.463340000">
        <ele>419.10</ele>
        <time>2017-02-18T06:08:17Z</time>
      </trkpt>
      <trkpt lat="42.463108000" lon="-2.463293000">
        <ele>419.10</ele>
        <time>2017-02-18T06:08:18Z</time>
      </trkpt>
      <trkpt lat="42.463119000" lon="-2.463247000">
        <ele>419.00</ele>
        <time>2017-02-18T06:08:19Z</time>
      </trkpt>
      <trkpt lat="42.463126000" lon="-2.463200000">
        <ele>419.00</ele>
        <time>2017-02-18T06:08:20Z</time>
      </trkpt>
      <trkpt lat="42.463135000" lon="-2.463153000">
        <ele>419.00</ele>
        <time>2017-02-18T06:08:21Z</time>
      </trkpt>
      <trkpt lat="42.463144000" lon="-2.463101000">
        <ele>418.90</ele>
        <time>2017-02-18T06:08:22Z</time>
      </trkpt>
      <trkpt lat="42.463150000" lon="-2.463046000">
        <ele>418.90</ele>
        <time>2017-02-18T06:08:23Z</time>
      </trkpt>
      <trkpt lat="42.463162000" lon="-2.462991000">
        <ele>418.80</ele>
        <time>2017-02-18T06:08:24Z</time>
      </trkpt>
      <trkpt lat="42.463176000" lon="-2.462936000">
        <ele>418.70</ele>
        <time>2017-02-18T06:08:25Z</time>
      </trkpt>
      <trkpt lat="42.463190000" lon="-2.462880000">
        <ele>418.70</ele>
        <time>2017-02-18T06:08:26Z</time>
      </trkpt>
      <trkpt lat="42.463206000" lon="-2.462823000">
        <ele>418.60</ele>
        <time>2017-02-18T06:08:27Z</time>
      </trkpt>
      <trkpt lat="42.463224000" lon="-2.462767000">
        <ele>418.50</ele>
        <time>2017-02-18T06:08:28Z</time>
      </trkpt>
      <trkpt lat="42.463243000" lon="-2.462705000">
        <ele>418.40</ele>
        <time>2017-02-18T06:08:29Z</time>
      </trkpt>
      <trkpt lat="42.463264000" lon="-2.462642000">
        <ele>418.30</ele>
        <time>2017-02-18T06:08:30Z</time>
      </trkpt>
      <trkpt lat="42.463282000" lon="-2.462579000">
        <ele>418.00</ele>
        <time>2017-02-18T06:08:31Z</time>
      </trkpt>
      <trkpt lat="42.463298000" lon="-2.462520000">
        <ele>417.90</ele>
        <time>2017-02-18T06:08:32Z</time>
      </trkpt>
      <trkpt lat="42.463316000" lon="-2.462462000">
        <ele>417.80</ele>
        <time>2017-02-18T06:08:33Z</time>
      </trkpt>
      <trkpt lat="42.463330000" lon="-2.462405000">
        <ele>417.70</ele>
        <time>2017-02-18T06:08:34Z</time>
      </trkpt>
      <trkpt lat="42.463337000" lon="-2.462346000">
        <ele>417.60</ele>
        <time>2017-02-18T06:08:35Z</time>
      </trkpt>
      <trkpt lat="42.463336000" lon="-2.462293000">
        <ele>417.60</ele>
        <time>2017-02-18T06:08:36Z</time>
      </trkpt>
      <trkpt lat="42.463332000" lon="-2.462227000">
        <ele>417.30</ele>
        <time>2017-02-18T06:08:37Z</time>
      </trkpt>
      <trkpt lat="42.463336000" lon="-2.462153000">
        <ele>417.10</ele>
        <time>2017-02-18T06:08:38Z</time>
      </trkpt>
      <trkpt lat="42.463358000" lon="-2.462082000">
        <ele>416.80</ele>
        <time>2017-02-18T06:08:39Z</time>
      </trkpt>
      <trkpt lat="42.463398000" lon="-2.462033000">
        <ele>416.50</ele>
        <time>2017-02-18T06:08:40Z</time>
      </trkpt>
      <trkpt lat="42.463446000" lon="-2.462011000">
        <ele>416.20</ele>
        <time>2017-02-18T06:08:41Z</time>
      </trkpt>
      <trkpt lat="42.463500000" lon="-2.462021000">
        <ele>416.10</ele>
        <time>2017-02-18T06:08:42Z</time>
      </trkpt>
      <trkpt lat="42.463544000" lon="-2.462054000">
        <ele>415.80</ele>
        <time>2017-02-18T06:08:43Z</time>
      </trkpt>
      <trkpt lat="42.463584000" lon="-2.462095000">
        <ele>415.60</ele>
        <time>2017-02-18T06:08:44Z</time>
      </trkpt>
      <trkpt lat="42.463617000" lon="-2.462137000">
        <ele>415.60</ele>
        <time>2017-02-18T06:08:45Z</time>
      </trkpt>
      <trkpt lat="42.463660000" lon="-2.462163000">
        <ele>415.50</ele>
        <time>2017-02-18T06:08:46Z</time>
      </trkpt>
      <trkpt lat="42.463708000" lon="-2.462188000">
        <ele>415.30</ele>
        <time>2017-02-18T06:08:47Z</time>
      </trkpt>
      <trkpt lat="42.463754000" lon="-2.462204000">
        <ele>415.20</ele>
        <time>2017-02-18T06:08:48Z</time>
      </trkpt>
      <trkpt lat="42.463799000" lon="-2.462229000">
        <ele>415.20</ele>
        <time>2017-02-18T06:08:49Z</time>
      </trkpt>
      <trkpt lat="42.463847000" lon="-2.462252000">
        <ele>415.10</ele>
        <time>2017-02-18T06:08:50Z</time>
      </trkpt>
      <trkpt lat="42.463893000" lon="-2.462272000">
        <ele>415.00</ele>
        <time>2017-02-18T06:08:51Z</time>
      </trkpt>
      <trkpt lat="42.463936000" lon="-2.462296000">
        <ele>415.00</ele>
        <time>2017-02-18T06:08:52Z</time>
      </trkpt>
      <trkpt lat="42.463979000" lon="-2.462314000">
        <ele>414.90</ele>
        <time>2017-02-18T06:08:53Z</time>
      </trkpt>
      <trkpt lat="42.464022000" lon="-2.462336000">
        <ele>414.90</ele>
        <time>2017-02-18T06:08:54Z</time>
      </trkpt>
      <trkpt lat="42.464062000" lon="-2.462359000">
        <ele>414.80</ele>
        <time>2017-02-18T06:08:55Z</time>
      </trkpt>
      <trkpt lat="42.464104000" lon="-2.462382000">
        <ele>414.80</ele>
        <time>2017-02-18T06:08:56Z</time>
      </trkpt>
      <trkpt lat="42.464146000" lon="-2.462409000">
        <ele>414.80</ele>
        <time>2017-02-18T06:08:57Z</time>
      </trkpt>
      <trkpt lat="42.464186000" lon="-2.462431000">
        <ele>414.80</ele>
        <time>2017-02-18T06:08:58Z</time>
      </trkpt>
      <trkpt lat="42.464229000" lon="-2.462457000">
        <ele>414.80</ele>
        <time>2017-02-18T06:08:59Z</time>
      </trkpt>
      <trkpt lat="42.464315000" lon="-2.462507000">
        <ele>414.80</ele>
        <time>2017-02-18T06:09:01Z</time>
      </trkpt>
      <trkpt lat="42.464357000" lon="-2.462532000">
        <ele>414.70</ele>
        <time>2017-02-18T06:09:02Z</time>
      </trkpt>
      <trkpt lat="42.464401000" lon="-2.462557000">
        <ele>414.70</ele>
        <time>2017-02-18T06:09:03Z</time>
      </trkpt>
      <trkpt lat="42.464444000" lon="-2.462584000">
        <ele>414.70</ele>
        <time>2017-02-18T06:09:04Z</time>
      </trkpt>
      <trkpt lat="42.464488000" lon="-2.462604000">
        <ele>414.60</ele>
        <time>2017-02-18T06:09:05Z</time>
      </trkpt>
      <trkpt lat="42.464532000" lon="-2.462622000">
        <ele>414.50</ele>
        <time>2017-02-18T06:09:06Z</time>
      </trkpt>
      <trkpt lat="42.464573000" lon="-2.462641000">
        <ele>414.40</ele>
        <time>2017-02-18T06:09:07Z</time>
      </trkpt>
      <trkpt lat="42.464615000" lon="-2.462659000">
        <ele>414.30</ele>
        <time>2017-02-18T06:09:08Z</time>
      </trkpt>
      <trkpt lat="42.464661000" lon="-2.462678000">
        <ele>414.30</ele>
        <time>2017-02-18T06:09:09Z</time>
      </trkpt>
      <trkpt lat="42.464700000" lon="-2.462701000">
        <ele>414.40</ele>
        <time>2017-02-18T06:09:10Z</time>
      </trkpt>
      <trkpt lat="42.464741000" lon="-2.462719000">
        <ele>414.40</ele>
        <time>2017-02-18T06:09:11Z</time>
      </trkpt>
      <trkpt lat="42.464780000" lon="-2.462735000">
        <ele>414.40</ele>
        <time>2017-02-18T06:09:12Z</time>
      </trkpt>
      <trkpt lat="42.464821000" lon="-2.462745000">
        <ele>414.40</ele>
        <time>2017-02-18T06:09:13Z</time>
      </trkpt>
      <trkpt lat="42.464861000" lon="-2.462758000">
        <ele>414.40</ele>
        <time>2017-02-18T06:09:14Z</time>
      </trkpt>
      <trkpt lat="42.464900000" lon="-2.462761000">
        <ele>414.30</ele>
        <time>2017-02-18T06:09:15Z</time>
      </trkpt>
      <trkpt lat="42.464945000" lon="-2.462770000">
        <ele>414.20</ele>
        <time>2017-02-18T06:09:16Z</time>
      </trkpt>
      <trkpt lat="42.464988000" lon="-2.462776000">
        <ele>414.00</ele>
        <time>2017-02-18T06:09:17Z</time>
      </trkpt>
      <trkpt lat="42.465028000" lon="-2.462779000">
        <ele>413.90</ele>
        <time>2017-02-18T06:09:18Z</time>
      </trkpt>
      <trkpt lat="42.465067000" lon="-2.462783000">
        <ele>413.90</ele>
        <time>2017-02-18T06:09:19Z</time>
      </trkpt>
      <trkpt lat="42.465109000" lon="-2.462790000">
        <ele>413.80</ele>
        <time>2017-02-18T06:09:20Z</time>
      </trkpt>
      <trkpt lat="42.465145000" lon="-2.462791000">
        <ele>413.80</ele>
        <time>2017-02-18T06:09:21Z</time>
      </trkpt>
      <trkpt lat="42.465184000" lon="-2.462780000">
        <ele>413.70</ele>
        <time>2017-02-18T06:09:22Z</time>
      </trkpt>
      <trkpt lat="42.465228000" lon="-2.462772000">
        <ele>413.80</ele>
        <time>2017-02-18T06:09:23Z</time>
      </trkpt>
      <trkpt lat="42.465264000" lon="-2.462772000">
        <ele>413.80</ele>
        <time>2017-02-18T06:09:24Z</time>
      </trkpt>
      <trkpt lat="42.465303000" lon="-2.462767000">
        <ele>413.90</ele>
        <time>2017-02-18T06:09:25Z</time>
      </trkpt>
      <trkpt lat="42.465341000" lon="-2.462766000">
        <ele>413.90</ele>
        <time>2017-02-18T06:09:26Z</time>
      </trkpt>
      <trkpt lat="42.465377000" lon="-2.462752000">
        <ele>414.00</ele>
        <time>2017-02-18T06:09:27Z</time>
      </trkpt>
      <trkpt lat="42.465417000" lon="-2.462746000">
        <ele>414.00</ele>
        <time>2017-02-18T06:09:28Z</time>
      </trkpt>
      <trkpt lat="42.465461000" lon="-2.462741000">
        <ele>414.00</ele>
        <time>2017-02-18T06:09:29Z</time>
      </trkpt>
      <trkpt lat="42.465502000" lon="-2.462733000">
        <ele>414.00</ele>
        <time>2017-02-18T06:09:30Z</time>
      </trkpt>
      <trkpt lat="42.465537000" lon="-2.462728000">
        <ele>413.90</ele>
        <time>2017-02-18T06:09:31Z</time>
      </trkpt>
      <trkpt lat="42.465575000" lon="-2.462717000">
        <ele>413.80</ele>
        <time>2017-02-18T06:09:32Z</time>
      </trkpt>
      <trkpt lat="42.465614000" lon="-2.462701000">
        <ele>413.70</ele>
        <time>2017-02-18T06:09:33Z</time>
      </trkpt>
      <trkpt lat="42.465653000" lon="-2.462690000">
        <ele>413.70</ele>
        <time>2017-02-18T06:09:34Z</time>
      </trkpt>
      <trkpt lat="42.465696000" lon="-2.462679000">
        <ele>413.70</ele>
        <time>2017-02-18T06:09:35Z</time>
      </trkpt>
      <trkpt lat="42.465738000" lon="-2.462672000">
        <ele>413.60</ele>
        <time>2017-02-18T06:09:36Z</time>
      </trkpt>
      <trkpt lat="42.465785000" lon="-2.462658000">
        <ele>413.70</ele>
        <time>2017-02-18T06:09:37Z</time>
      </trkpt>
      <trkpt lat="42.465839000" lon="-2.462644000">
        <ele>413.80</ele>
        <time>2017-02-18T06:09:38Z</time>
      </trkpt>
      <trkpt lat="42.465885000" lon="-2.462636000">
        <ele>413.90</ele>
        <time>2017-02-18T06:09:39Z</time>
      </trkpt>
      <trkpt lat="42.465929000" lon="-2.462630000">
        <ele>413.90</ele>
        <time>2017-02-18T06:09:40Z</time>
      </trkpt>
      <trkpt lat="42.465977000" lon="-2.462622000">
        <ele>413.80</ele>
        <time>2017-02-18T06:09:41Z</time>
      </trkpt>
      <trkpt lat="42.466025000" lon="-2.462617000">
        <ele>413.60</ele>
        <time>2017-02-18T06:09:42Z</time>
      </trkpt>
      <trkpt lat="42.466072000" lon="-2.462615000">
        <ele>413.60</ele>
        <time>2017-02-18T06:09:43Z</time>
      </trkpt>
      <trkpt lat="42.466115000" lon="-2.462610000">
        <ele>413.50</ele>
        <time>2017-02-18T06:09:44Z</time>
      </trkpt>
      <trkpt lat="42.466163000" lon="-2.462604000">
        <ele>413.40</ele>
        <time>2017-02-18T06:09:45Z</time>
      </trkpt>
      <trkpt lat="42.466206000" lon="-2.462595000">
        <ele>413.40</ele>
        <time>2017-02-18T06:09:46Z</time>
      </trkpt>
      <trkpt lat="42.466248000" lon="-2.462581000">
        <ele>413.30</ele>
        <time>2017-02-18T06:09:47Z</time>
      </trkpt>
      <trkpt lat="42.466290000" lon="-2.462564000">
        <ele>413.20</ele>
        <time>2017-02-18T06:09:48Z</time>
      </trkpt>
      <trkpt lat="42.466331000" lon="-2.462547000">
        <ele>413.20</ele>
        <time>2017-02-18T06:09:49Z</time>
      </trkpt>
      <trkpt lat="42.466373000" lon="-2.462527000">
        <ele>413.30</ele>
        <time>2017-02-18T06:09:50Z</time>
      </trkpt>
      <trkpt lat="42.466414000" lon="-2.462510000">
        <ele>413.30</ele>
        <time>2017-02-18T06:09:51Z</time>
      </trkpt>
      <trkpt lat="42.466455000" lon="-2.462493000">
        <ele>413.30</ele>
        <time>2017-02-18T06:09:52Z</time>
      </trkpt>
      <trkpt lat="42.466495000" lon="-2.462474000">
        <ele>413.30</ele>
        <time>2017-02-18T06:09:53Z</time>
      </trkpt>
      <trkpt lat="42.466536000" lon="-2.462451000">
        <ele>413.30</ele>
        <time>2017-02-18T06:09:54Z</time>
      </trkpt>
      <trkpt lat="42.466579000" lon="-2.462431000">
        <ele>413.30</ele>
        <time>2017-02-18T06:09:55Z</time>
      </trkpt>
      <trkpt lat="42.466618000" lon="-2.462409000">
        <ele>413.30</ele>
        <time>2017-02-18T06:09:56Z</time>
      </trkpt>
      <trkpt lat="42.466655000" lon="-2.462385000">
        <ele>413.20</ele>
        <time>2017-02-18T06:09:57Z</time>
      </trkpt>
      <trkpt lat="42.466691000" lon="-2.462361000">
        <ele>413.10</ele>
        <time>2017-02-18T06:09:58Z</time>
      </trkpt>
      <trkpt lat="42.466730000" lon="-2.462334000">
        <ele>413.00</ele>
        <time>2017-02-18T06:09:59Z</time>
      </trkpt>
      <trkpt lat="42.466768000" lon="-2.462309000">
        <ele>412.90</ele>
        <time>2017-02-18T06:10:00Z</time>
      </trkpt>
      <trkpt lat="42.466842000" lon="-2.462260000">
        <ele>412.90</ele>
        <time>2017-02-18T06:10:02Z</time>
      </trkpt>
      <trkpt lat="42.466877000" lon="-2.462240000">
        <ele>412.80</ele>
        <time>2017-02-18T06:10:03Z</time>
      </trkpt>
      <trkpt lat="42.466911000" lon="-2.462215000">
        <ele>412.80</ele>
        <time>2017-02-18T06:10:04Z</time>
      </trkpt>
      <trkpt lat="42.466944000" lon="-2.462195000">
        <ele>412.70</ele>
        <time>2017-02-18T06:10:05Z</time>
      </trkpt>
      <trkpt lat="42.466968000" lon="-2.462186000">
        <ele>412.70</ele>
        <time>2017-02-18T06:10:06Z</time>
      </trkpt>
      <trkpt lat="42.466993000" lon="-2.462174000">
        <ele>412.60</ele>
        <time>2017-02-18T06:10:07Z</time>
      </trkpt>
      <trkpt lat="42.467018000" lon="-2.462155000">
        <ele>412.60</ele>
        <time>2017-02-18T06:10:08Z</time>
      </trkpt>
      <trkpt lat="42.467044000" lon="-2.462132000">
        <ele>412.60</ele>
        <time>2017-02-18T06:10:09Z</time>
      </trkpt>
      <trkpt lat="42.467062000" lon="-2.462108000">
        <ele>412.50</ele>
        <time>2017-02-18T06:10:10Z</time>
      </trkpt>
      <trkpt lat="42.467086000" lon="-2.462060000">
        <ele>412.50</ele>
        <time>2017-02-18T06:10:11Z</time>
      </trkpt>
      <trkpt lat="42.467113000" lon="-2.462005000">
        <ele>412.50</ele>
        <time>2017-02-18T06:10:12Z</time>
      </trkpt>
      <trkpt lat="42.467146000" lon="-2.461954000">
        <ele>412.50</ele>
        <time>2017-02-18T06:10:13Z</time>
      </trkpt>
      <trkpt lat="42.467185000" lon="-2.461915000">
        <ele>412.50</ele>
        <time>2017-02-18T06:10:14Z</time>
      </trkpt>
      <trkpt lat="42.467229000" lon="-2.461889000">
        <ele>412.60</ele>
        <time>2017-02-18T06:10:15Z</time>
      </trkpt>
      <trkpt lat="42.467274000" lon="-2.461877000">
        <ele>412.70</ele>
        <time>2017-02-18T06:10:16Z</time>
      </trkpt>
      <trkpt lat="42.467318000" lon="-2.461882000">
        <ele>412.70</ele>
        <time>2017-02-18T06:10:17Z</time>
      </trkpt>
      <trkpt lat="42.467357000" lon="-2.461899000">
        <ele>412.80</ele>
        <time>2017-02-18T06:10:18Z</time>
      </trkpt>
      <trkpt lat="42.467394000" lon="-2.461924000">
        <ele>412.80</ele>
        <time>2017-02-18T06:10:19Z</time>
      </trkpt>
      <trkpt lat="42.467429000" lon="-2.461954000">
        <ele>412.70</ele>
        <time>2017-02-18T06:10:20Z</time>
      </trkpt>
      <trkpt lat="42.467461000" lon="-2.461981000">
        <ele>412.70</ele>
        <time>2017-02-18T06:10:21Z</time>
      </trkpt>
      <trkpt lat="42.467492000" lon="-2.462002000">
        <ele>412.70</ele>
        <time>2017-02-18T06:10:22Z</time>
      </trkpt>
      <trkpt lat="42.467528000" lon="-2.462014000">
        <ele>412.60</ele>
        <time>2017-02-18T06:10:23Z</time>
      </trkpt>
      <trkpt lat="42.467557000" lon="-2.462024000">
        <ele>412.60</ele>
        <time>2017-02-18T06:10:24Z</time>
      </trkpt>
      <trkpt lat="42.467585000" lon="-2.462027000">
        <ele>412.50</ele>
        <time>2017-02-18T06:10:25Z</time>
      </trkpt>
      <trkpt lat="42.467617000" lon="-2.462031000">
        <ele>412.40</ele>
        <time>2017-02-18T06:10:26Z</time>
      </trkpt>
      <trkpt lat="42.467649000" lon="-2.462028000">
        <ele>412.30</ele>
        <time>2017-02-18T06:10:27Z</time>
      </trkpt>
      <trkpt lat="42.467683000" lon="-2.462027000">
        <ele>412.30</ele>
        <time>2017-02-18T06:10:28Z</time>
      </trkpt>
      <trkpt lat="42.467720000" lon="-2.462025000">
        <ele>412.30</ele>
        <time>2017-02-18T06:10:29Z</time>
      </trkpt>
      <trkpt lat="42.467760000" lon="-2.462025000">
        <ele>412.20</ele>
        <time>2017-02-18T06:10:30Z</time>
      </trkpt>
      <trkpt lat="42.467800000" lon="-2.462025000">
        <ele>412.20</ele>
        <time>2017-02-18T06:10:31Z</time>
      </trkpt>
      <trkpt lat="42.467843000" lon="-2.462023000">
        <ele>412.20</ele>
        <time>2017-02-18T06:10:32Z</time>
      </trkpt>
      <trkpt lat="42.467884000" lon="-2.462020000">
        <ele>412.20</ele>
        <time>2017-02-18T06:10:33Z</time>
      </trkpt>
      <trkpt lat="42.467921000" lon="-2.462016000">
        <ele>412.20</ele>
        <time>2017-02-18T06:10:34Z</time>
      </trkpt>
      <trkpt lat="42.467969000" lon="-2.462012000">
        <ele>412.10</ele>
        <time>2017-02-18T06:10:35Z</time>
      </trkpt>
      <trkpt lat="42.468022000" lon="-2.462005000">
        <ele>412.00</ele>
        <time>2017-02-18T06:10:36Z</time>
      </trkpt>
      <trkpt lat="42.468074000" lon="-2.461993000">
        <ele>411.90</ele>
        <time>2017-02-18T06:10:37Z</time>
      </trkpt>
      <trkpt lat="42.468126000" lon="-2.461987000">
        <ele>411.80</ele>
        <time>2017-02-18T06:10:38Z</time>
      </trkpt>
      <trkpt lat="42.468177000" lon="-2.461981000">
        <ele>411.60</ele>
        <time>2017-02-18T06:10:39Z</time>
      </trkpt>
      <trkpt lat="42.468225000" lon="-2.461972000">
        <ele>411.40</ele>
        <time>2017-02-18T06:10:40Z</time>
      </trkpt>
      <trkpt lat="42.468274000" lon="-2.461970000">
        <ele>411.30</ele>
        <time>2017-02-18T06:10:41Z</time>
      </trkpt>
      <trkpt lat="42.468322000" lon="-2.461965000">
        <ele>411.20</ele>
        <time>2017-02-18T06:10:42Z</time>
      </trkpt>
      <trkpt lat="42.468370000" lon="-2.461959000">
        <ele>411.10</ele>
        <time>2017-02-18T06:10:43Z</time>
      </trkpt>
      <trkpt lat="42.468415000" lon="-2.461955000">
        <ele>411.10</ele>
        <time>2017-02-18T06:10:44Z</time>
      </trkpt>
      <trkpt lat="42.468462000" lon="-2.461950000">
        <ele>411.20</ele>
        <time>2017-02-18T06:10:45Z</time>
      </trkpt>
      <trkpt lat="42.468509000" lon="-2.461943000">
        <ele>411.30</ele>
        <time>2017-02-18T06:10:46Z</time>
      </trkpt>
      <trkpt lat="42.468553000" lon="-2.461936000">
        <ele>411.40</ele>
        <time>2017-02-18T06:10:47Z</time>
      </trkpt>
      <trkpt lat="42.468596000" lon="-2.461928000">
        <ele>411.50</ele>
        <time>2017-02-18T06:10:48Z</time>
      </trkpt>
      <trkpt lat="42.468642000" lon="-2.461922000">
        <ele>411.50</ele>
        <time>2017-02-18T06:10:49Z</time>
      </trkpt>
      <trkpt lat="42.468690000" lon="-2.461911000">
        <ele>411.50</ele>
        <time>2017-02-18T06:10:50Z</time>
      </trkpt>
      <trkpt lat="42.468739000" lon="-2.461898000">
        <ele>411.40</ele>
        <time>2017-02-18T06:10:51Z</time>
      </trkpt>
      <trkpt lat="42.468788000" lon="-2.461881000">
        <ele>411.30</ele>
        <time>2017-02-18T06:10:52Z</time>
      </trkpt>
      <trkpt lat="42.468836000" lon="-2.461865000">
        <ele>411.10</ele>
        <time>2017-02-18T06:10:53Z</time>
      </trkpt>
      <trkpt lat="42.468883000" lon="-2.461849000">
        <ele>410.90</ele>
        <time>2017-02-18T06:10:54Z</time>
      </trkpt>
      <trkpt lat="42.468928000" lon="-2.461829000">
        <ele>410.80</ele>
        <time>2017-02-18T06:10:55Z</time>
      </trkpt>
      <trkpt lat="42.468967000" lon="-2.461798000">
        <ele>410.70</ele>
        <time>2017-02-18T06:10:56Z</time>
      </trkpt>
      <trkpt lat="42.468996000" lon="-2.461769000">
        <ele>410.60</ele>
        <time>2017-02-18T06:10:57Z</time>
      </trkpt>
      <trkpt lat="42.469034000" lon="-2.461740000">
        <ele>410.50</ele>
        <time>2017-02-18T06:10:58Z</time>
      </trkpt>
      <trkpt lat="42.469070000" lon="-2.461708000">
        <ele>410.50</ele>
        <time>2017-02-18T06:10:59Z</time>
      </trkpt>
      <trkpt lat="42.469103000" lon="-2.461675000">
        <ele>410.50</ele>
        <time>2017-02-18T06:11:00Z</time>
      </trkpt>
      <trkpt lat="42.469139000" lon="-2.461645000">
        <ele>410.40</ele>
        <time>2017-02-18T06:11:01Z</time>
      </trkpt>
      <trkpt lat="42.469209000" lon="-2.461584000">
        <ele>410.30</ele>
        <time>2017-02-18T06:11:03Z</time>
      </trkpt>
      <trkpt lat="42.469246000" lon="-2.461551000">
        <ele>410.30</ele>
        <time>2017-02-18T06:11:04Z</time>
      </trkpt>
      <trkpt lat="42.469286000" lon="-2.461518000">
        <ele>410.20</ele>
        <time>2017-02-18T06:11:05Z</time>
      </trkpt>
      <trkpt lat="42.469326000" lon="-2.461485000">
        <ele>410.30</ele>
        <time>2017-02-18T06:11:06Z</time>
      </trkpt>
      <trkpt lat="42.469366000" lon="-2.461452000">
        <ele>410.40</ele>
        <time>2017-02-18T06:11:07Z</time>
      </trkpt>
      <trkpt lat="42.469405000" lon="-2.461421000">
        <ele>410.50</ele>
        <time>2017-02-18T06:11:08Z</time>
      </trkpt>
      <trkpt lat="42.469441000" lon="-2.461394000">
        <ele>410.50</ele>
        <time>2017-02-18T06:11:09Z</time>
      </trkpt>
      <trkpt lat="42.469478000" lon="-2.461364000">
        <ele>410.30</ele>
        <time>2017-02-18T06:11:10Z</time>
      </trkpt>
      <trkpt lat="42.469512000" lon="-2.461335000">
        <ele>410.10</ele>
        <time>2017-02-18T06:11:11Z</time>
      </trkpt>
      <trkpt lat="42.469546000" lon="-2.461306000">
        <ele>409.90</ele>
        <time>2017-02-18T06:11:12Z</time>
      </trkpt>
      <trkpt lat="42.469583000" lon="-2.461277000">
        <ele>409.80</ele>
        <time>2017-02-18T06:11:13Z</time>
      </trkpt>
      <trkpt lat="42.469618000" lon="-2.461250000">
        <ele>409.70</ele>
        <time>2017-02-18T06:11:14Z</time>
      </trkpt>
      <trkpt lat="42.469653000" lon="-2.461224000">
        <ele>409.60</ele>
        <time>2017-02-18T06:11:15Z</time>
      </trkpt>
      <trkpt lat="42.469689000" lon="-2.461202000">
        <ele>409.60</ele>
        <time>2017-02-18T06:11:16Z</time>
      </trkpt>
      <trkpt lat="42.469725000" lon="-2.461171000">
        <ele>409.60</ele>
        <time>2017-02-18T06:11:17Z</time>
      </trkpt>
      <trkpt lat="42.469757000" lon="-2.461139000">
        <ele>409.70</ele>
        <time>2017-02-18T06:11:18Z</time>
      </trkpt>
      <trkpt lat="42.469791000" lon="-2.461107000">
        <ele>409.80</ele>
        <time>2017-02-18T06:11:19Z</time>
      </trkpt>
      <trkpt lat="42.469830000" lon="-2.461082000">
        <ele>409.80</ele>
        <time>2017-02-18T06:11:20Z</time>
      </trkpt>
      <trkpt lat="42.469865000" lon="-2.461055000">
        <ele>409.80</ele>
        <time>2017-02-18T06:11:21Z</time>
      </trkpt>
      <trkpt lat="42.469899000" lon="-2.461027000">
        <ele>409.80</ele>
        <time>2017-02-18T06:11:22Z</time>
      </trkpt>
      <trkpt lat="42.469931000" lon="-2.461007000">
        <ele>409.80</ele>
        <time>2017-02-18T06:11:23Z</time>
      </trkpt>
      <trkpt lat="42.469964000" lon="-2.460981000">
        <ele>409.70</ele>
        <time>2017-02-18T06:11:24Z</time>
      </trkpt>
      <trkpt lat="42.469995000" lon="-2.460954000">
        <ele>409.60</ele>
        <time>2017-02-18T06:11:25Z</time>
      </trkpt>
      <trkpt lat="42.470024000" lon="-2.460928000">
        <ele>409.60</ele>
        <time>2017-02-18T06:11:26Z</time>
      </trkpt>
      <trkpt lat="42.470052000" lon="-2.460902000">
        <ele>409.50</ele>
        <time>2017-02-18T06:11:27Z</time>
      </trkpt>
      <trkpt lat="42.470084000" lon="-2.460879000">
        <ele>409.50</ele>
        <time>2017-02-18T06:11:28Z</time>
      </trkpt>
      <trkpt lat="42.470114000" lon="-2.460858000">
        <ele>409.40</ele>
        <time>2017-02-18T06:11:29Z</time>
      </trkpt>
      <trkpt lat="42.470148000" lon="-2.460839000">
        <ele>409.40</ele>
        <time>2017-02-18T06:11:30Z</time>
      </trkpt>
      <trkpt lat="42.470175000" lon="-2.460817000">
        <ele>409.40</ele>
        <time>2017-02-18T06:11:31Z</time>
      </trkpt>
      <trkpt lat="42.470201000" lon="-2.460795000">
        <ele>409.40</ele>
        <time>2017-02-18T06:11:32Z</time>
      </trkpt>
      <trkpt lat="42.470227000" lon="-2.460773000">
        <ele>409.40</ele>
        <time>2017-02-18T06:11:33Z</time>
      </trkpt>
      <trkpt lat="42.470255000" lon="-2.460752000">
        <ele>409.40</ele>
        <time>2017-02-18T06:11:34Z</time>
      </trkpt>
      <trkpt lat="42.470283000" lon="-2.460734000">
        <ele>409.40</ele>
        <time>2017-02-18T06:11:35Z</time>
      </trkpt>
      <trkpt lat="42.470307000" lon="-2.460715000">
        <ele>409.40</ele>
        <time>2017-02-18T06:11:36Z</time>
      </trkpt>
      <trkpt lat="42.470334000" lon="-2.460692000">
        <ele>409.40</ele>
        <time>2017-02-18T06:11:37Z</time>
      </trkpt>
      <trkpt lat="42.470359000" lon="-2.460672000">
        <ele>409.30</ele>
        <time>2017-02-18T06:11:38Z</time>
      </trkpt>
      <trkpt lat="42.470384000" lon="-2.460650000">
        <ele>409.30</ele>
        <time>2017-02-18T06:11:39Z</time>
      </trkpt>
      <trkpt lat="42.470409000" lon="-2.460628000">
        <ele>409.30</ele>
        <time>2017-02-18T06:11:40Z</time>
      </trkpt>
      <trkpt lat="42.470431000" lon="-2.460608000">
        <ele>409.30</ele>
        <time>2017-02-18T06:11:41Z</time>
      </trkpt>
      <trkpt lat="42.470453000" lon="-2.460588000">
        <ele>409.30</ele>
        <time>2017-02-18T06:11:42Z</time>
      </trkpt>
      <trkpt lat="42.470473000" lon="-2.460577000">
        <ele>409.30</ele>
        <time>2017-02-18T06:11:43Z</time>
      </trkpt>
      <trkpt lat="42.470487000" lon="-2.460573000">
        <ele>409.50</ele>
        <time>2017-02-18T06:11:44Z</time>
      </trkpt>
      <trkpt lat="42.470500000" lon="-2.460569000">
        <ele>409.60</ele>
        <time>2017-02-18T06:11:45Z</time>
      </trkpt>
      <trkpt lat="42.470510000" lon="-2.460560000">
        <ele>409.60</ele>
        <time>2017-02-18T06:11:46Z</time>
      </trkpt>
      <trkpt lat="42.470528000" lon="-2.460556000">
        <ele>409.70</ele>
        <time>2017-02-18T06:11:47Z</time>
      </trkpt>
      <trkpt lat="42.470543000" lon="-2.460547000">
        <ele>409.80</ele>
        <time>2017-02-18T06:11:48Z</time>
      </trkpt>
      <trkpt lat="42.470555000" lon="-2.460532000">
        <ele>409.90</ele>
        <time>2017-02-18T06:11:49Z</time>
      </trkpt>
      <trkpt lat="42.470573000" lon="-2.460538000">
        <ele>409.90</ele>
        <time>2017-02-18T06:11:50Z</time>
      </trkpt>
      <trkpt lat="42.470590000" lon="-2.460524000">
        <ele>410.00</ele>
        <time>2017-02-18T06:11:51Z</time>
      </trkpt>
      <trkpt lat="42.470606000" lon="-2.460506000">
        <ele>410.10</ele>
        <time>2017-02-18T06:11:52Z</time>
      </trkpt>
      <trkpt lat="42.470613000" lon="-2.460488000">
        <ele>410.20</ele>
        <time>2017-02-18T06:11:53Z</time>
      </trkpt>
      <trkpt lat="42.470621000" lon="-2.460480000">
        <ele>410.20</ele>
        <time>2017-02-18T06:11:54Z</time>
      </trkpt>
      <trkpt lat="42.470632000" lon="-2.460473000">
        <ele>410.20</ele>
        <time>2017-02-18T06:11:55Z</time>
      </trkpt>
      <trkpt lat="42.470635000" lon="-2.460474000">
        <ele>410.30</ele>
        <time>2017-02-18T06:11:56Z</time>
      </trkpt>
      <trkpt lat="42.470637000" lon="-2.460469000">
        <ele>410.30</ele>
        <time>2017-02-18T06:11:57Z</time>
      </trkpt>
      <trkpt lat="42.470647000" lon="-2.460469000">
        <ele>410.30</ele>
        <time>2017-02-18T06:11:58Z</time>
      </trkpt>
      <trkpt lat="42.470658000" lon="-2.460468000">
        <ele>410.20</ele>
        <time>2017-02-18T06:11:59Z</time>
      </trkpt>
      <trkpt lat="42.470666000" lon="-2.460472000">
        <ele>410.30</ele>
        <time>2017-02-18T06:12:00Z</time>
      </trkpt>
      <trkpt lat="42.470673000" lon="-2.460474000">
        <ele>410.30</ele>
        <time>2017-02-18T06:12:01Z</time>
      </trkpt>
      <trkpt lat="42.470684000" lon="-2.460477000">
        <ele>410.30</ele>
        <time>2017-02-18T06:12:02Z</time>
      </trkpt>
      <trkpt lat="42.470697000" lon="-2.460478000">
        <ele>410.30</ele>
        <time>2017-02-18T06:12:03Z</time>
      </trkpt>
      <trkpt lat="42.470712000" lon="-2.460481000">
        <ele>410.30</ele>
        <time>2017-02-18T06:12:05Z</time>
      </trkpt>
      <trkpt lat="42.470708000" lon="-2.460478000">
        <ele>410.40</ele>
        <time>2017-02-18T06:12:06Z</time>
      </trkpt>
      <trkpt lat="42.470705000" lon="-2.460482000">
        <ele>410.40</ele>
        <time>2017-02-18T06:12:07Z</time>
      </trkpt>
      <trkpt lat="42.470709000" lon="-2.460485000">
        <ele>410.40</ele>
        <time>2017-02-18T06:12:08Z</time>
      </trkpt>
      <trkpt lat="42.470718000" lon="-2.460489000">
        <ele>410.40</ele>
        <time>2017-02-18T06:12:09Z</time>
      </trkpt>
      <trkpt lat="42.470724000" lon="-2.460491000">
        <ele>410.40</ele>
        <time>2017-02-18T06:12:10Z</time>
      </trkpt>
      <trkpt lat="42.470730000" lon="-2.460487000">
        <ele>410.40</ele>
        <time>2017-02-18T06:12:11Z</time>
      </trkpt>
      <trkpt lat="42.470727000" lon="-2.460477000">
        <ele>410.30</ele>
        <time>2017-02-18T06:12:12Z</time>
      </trkpt>
      <trkpt lat="42.470732000" lon="-2.460479000">
        <ele>410.30</ele>
        <time>2017-02-18T06:12:13Z</time>
      </trkpt>
      <trkpt lat="42.470735000" lon="-2.460480000">
        <ele>410.20</ele>
        <time>2017-02-18T06:12:14Z</time>
      </trkpt>
      <trkpt lat="42.470738000" lon="-2.460485000">
        <ele>410.10</ele>
        <time>2017-02-18T06:12:15Z</time>
      </trkpt>
      <trkpt lat="42.470738000" lon="-2.460485000">
        <ele>410.10</ele>
        <time>2017-02-18T06:12:16Z</time>
      </trkpt>
      <trkpt lat="42.470746000" lon="-2.460503000">
        <ele>410.10</ele>
        <time>2017-02-18T06:12:17Z</time>
      </trkpt>
      <trkpt lat="42.470756000" lon="-2.460522000">
        <ele>410.10</ele>
        <time>2017-02-18T06:12:18Z</time>
      </trkpt>
      <trkpt lat="42.470759000" lon="-2.460529000">
        <ele>410.10</ele>
        <time>2017-02-18T06:12:19Z</time>
      </trkpt>
      <trkpt lat="42.470761000" lon="-2.460541000">
        <ele>410.20</ele>
        <time>2017-02-18T06:12:20Z</time>
      </trkpt>
      <trkpt lat="42.470771000" lon="-2.460527000">
        <ele>410.20</ele>
        <time>2017-02-18T06:12:21Z</time>
      </trkpt>
      <trkpt lat="42.470775000" lon="-2.460521000">
        <ele>410.30</ele>
        <time>2017-02-18T06:12:22Z</time>
      </trkpt>
      <trkpt lat="42.470776000" lon="-2.460506000">
        <ele>410.30</ele>
        <time>2017-02-18T06:12:23Z</time>
      </trkpt>
      <trkpt lat="42.470771000" lon="-2.460479000">
        <ele>410.30</ele>
        <time>2017-02-18T06:12:24Z</time>
      </trkpt>
      <trkpt lat="42.470778000" lon="-2.460450000">
        <ele>410.30</ele>
        <time>2017-02-18T06:12:25Z</time>
      </trkpt>
      <trkpt lat="42.470788000" lon="-2.460421000">
        <ele>410.30</ele>
        <time>2017-02-18T06:12:26Z</time>
      </trkpt>
      <trkpt lat="42.470804000" lon="-2.460386000">
        <ele>410.30</ele>
        <time>2017-02-18T06:12:27Z</time>
      </trkpt>
      <trkpt lat="42.470820000" lon="-2.460347000">
        <ele>410.30</ele>
        <time>2017-02-18T06:12:28Z</time>
      </trkpt>
      <trkpt lat="42.470842000" lon="-2.460309000">
        <ele>410.20</ele>
        <time>2017-02-18T06:12:29Z</time>
      </trkpt>
      <trkpt lat="42.470865000" lon="-2.460278000">
        <ele>410.20</ele>
        <time>2017-02-18T06:12:30Z</time>
      </trkpt>
      <trkpt lat="42.470886000" lon="-2.460259000">
        <ele>410.20</ele>
        <time>2017-02-18T06:12:31Z</time>
      </trkpt>
      <trkpt lat="42.470901000" lon="-2.460241000">
        <ele>410.20</ele>
        <time>2017-02-18T06:12:32Z</time>
      </trkpt>
      <trkpt lat="42.470918000" lon="-2.460224000">
        <ele>410.20</ele>
        <time>2017-02-18T06:12:33Z</time>
      </trkpt>
      <trkpt lat="42.470928000" lon="-2.460203000">
        <ele>410.20</ele>
        <time>2017-02-18T06:12:34Z</time>
      </trkpt>
      <trkpt lat="42.470937000" lon="-2.460184000">
        <ele>410.20</ele>
        <time>2017-02-18T06:12:35Z</time>
      </trkpt>
      <trkpt lat="42.470943000" lon="-2.460163000">
        <ele>410.30</ele>
        <time>2017-02-18T06:12:36Z</time>
      </trkpt>
      <trkpt lat="42.470957000" lon="-2.460141000">
        <ele>410.30</ele>
        <time>2017-02-18T06:12:37Z</time>
      </trkpt>
      <trkpt lat="42.470974000" lon="-2.460124000">
        <ele>410.30</ele>
        <time>2017-02-18T06:12:38Z</time>
      </trkpt>
      <trkpt lat="42.470992000" lon="-2.460106000">
        <ele>410.30</ele>
        <time>2017-02-18T06:12:39Z</time>
      </trkpt>
      <trkpt lat="42.471008000" lon="-2.460090000">
        <ele>410.30</ele>
        <time>2017-02-18T06:12:40Z</time>
      </trkpt>
      <trkpt lat="42.471025000" lon="-2.460076000">
        <ele>410.30</ele>
        <time>2017-02-18T06:12:41Z</time>
      </trkpt>
      <trkpt lat="42.471040000" lon="-2.460064000">
        <ele>410.30</ele>
        <time>2017-02-18T06:12:42Z</time>
      </trkpt>
      <trkpt lat="42.471051000" lon="-2.460055000">
        <ele>410.20</ele>
        <time>2017-02-18T06:12:43Z</time>
      </trkpt>
      <trkpt lat="42.471060000" lon="-2.460042000">
        <ele>410.20</ele>
        <time>2017-02-18T06:12:44Z</time>
      </trkpt>
      <trkpt lat="42.471075000" lon="-2.460028000">
        <ele>410.20</ele>
        <time>2017-02-18T06:12:45Z</time>
      </trkpt>
      <trkpt lat="42.471091000" lon="-2.460010000">
        <ele>410.20</ele>
        <time>2017-02-18T06:12:46Z</time>
      </trkpt>
      <trkpt lat="42.471112000" lon="-2.460003000">
        <ele>410.30</ele>
        <time>2017-02-18T06:12:47Z</time>
      </trkpt>
      <trkpt lat="42.471125000" lon="-2.460012000">
        <ele>410.30</ele>
        <time>2017-02-18T06:12:48Z</time>
      </trkpt>
      <trkpt lat="42.471135000" lon="-2.460034000">
        <ele>410.30</ele>
        <time>2017-02-18T06:12:49Z</time>
      </trkpt>
      <trkpt lat="42.471147000" lon="-2.460057000">
        <ele>410.30</ele>
        <time>2017-02-18T06:12:50Z</time>
      </trkpt>
      <trkpt lat="42.471159000" lon="-2.460082000">
        <ele>410.30</ele>
        <time>2017-02-18T06:12:51Z</time>
      </trkpt>
      <trkpt lat="42.471172000" lon="-2.460110000">
        <ele>410.30</ele>
        <time>2017-02-18T06:12:52Z</time>
      </trkpt>
      <trkpt lat="42.471186000" lon="-2.460138000">
        <ele>410.40</ele>
        <time>2017-02-18T06:12:53Z</time>
      </trkpt>
      <trkpt lat="42.471203000" lon="-2.460162000">
        <ele>410.40</ele>
        <time>2017-02-18T06:12:54Z</time>
      </trkpt>
      <trkpt lat="42.471222000" lon="-2.460185000">
        <ele>410.40</ele>
        <time>2017-02-18T06:12:55Z</time>
      </trkpt>
      <trkpt lat="42.471237000" lon="-2.460207000">
        <ele>410.40</ele>
        <time>2017-02-18T06:12:56Z</time>
      </trkpt>
      <trkpt lat="42.471251000" lon="-2.460227000">
        <ele>410.40</ele>
        <time>2017-02-18T06:12:57Z</time>
      </trkpt>
      <trkpt lat="42.471265000" lon="-2.460246000">
        <ele>410.40</ele>
        <time>2017-02-18T06:12:58Z</time>
      </trkpt>
      <trkpt lat="42.471281000" lon="-2.460268000">
        <ele>410.40</ele>
        <time>2017-02-18T06:12:59Z</time>
      </trkpt>
      <trkpt lat="42.471299000" lon="-2.460293000">
        <ele>410.40</ele>
        <time>2017-02-18T06:13:00Z</time>
      </trkpt>
      <trkpt lat="42.471318000" lon="-2.460319000">
        <ele>410.40</ele>
        <time>2017-02-18T06:13:01Z</time>
      </trkpt>
      <trkpt lat="42.471339000" lon="-2.460347000">
        <ele>410.20</ele>
        <time>2017-02-18T06:13:02Z</time>
      </trkpt>
      <trkpt lat="42.471367000" lon="-2.460382000">
        <ele>410.10</ele>
        <time>2017-02-18T06:13:03Z</time>
      </trkpt>
      <trkpt lat="42.471399000" lon="-2.460420000">
        <ele>410.00</ele>
        <time>2017-02-18T06:13:04Z</time>
      </trkpt>
      <trkpt lat="42.471474000" lon="-2.460515000">
        <ele>409.70</ele>
        <time>2017-02-18T06:13:06Z</time>
      </trkpt>
      <trkpt lat="42.471517000" lon="-2.460565000">
        <ele>409.50</ele>
        <time>2017-02-18T06:13:07Z</time>
      </trkpt>
      <trkpt lat="42.471562000" lon="-2.460622000">
        <ele>409.40</ele>
        <time>2017-02-18T06:13:08Z</time>
      </trkpt>
      <trkpt lat="42.471612000" lon="-2.460684000">
        <ele>409.20</ele>
        <time>2017-02-18T06:13:09Z</time>
      </trkpt>
      <trkpt lat="42.471667000" lon="-2.460750000">
        <ele>408.70</ele>
        <time>2017-02-18T06:13:10Z</time>
      </trkpt>
      <trkpt lat="42.471720000" lon="-2.460813000">
        <ele>408.30</ele>
        <time>2017-02-18T06:13:11Z</time>
      </trkpt>
      <trkpt lat="42.471775000" lon="-2.460876000">
        <ele>407.90</ele>
        <time>2017-02-18T06:13:12Z</time>
      </trkpt>
      <trkpt lat="42.471826000" lon="-2.460944000">
        <ele>407.60</ele>
        <time>2017-02-18T06:13:13Z</time>
      </trkpt>
      <trkpt lat="42.471875000" lon="-2.461010000">
        <ele>406.90</ele>
        <time>2017-02-18T06:13:14Z</time>
      </trkpt>
      <trkpt lat="42.471926000" lon="-2.461076000">
        <ele>406.40</ele>
        <time>2017-02-18T06:13:15Z</time>
      </trkpt>
      <trkpt lat="42.471973000" lon="-2.461138000">
        <ele>406.00</ele>
        <time>2017-02-18T06:13:16Z</time>
      </trkpt>
      <trkpt lat="42.472011000" lon="-2.461186000">
        <ele>405.60</ele>
        <time>2017-02-18T06:13:17Z</time>
      </trkpt>
      <trkpt lat="42.472034000" lon="-2.461219000">
        <ele>404.90</ele>
        <time>2017-02-18T06:13:18Z</time>
      </trkpt>
      <trkpt lat="42.472055000" lon="-2.461242000">
        <ele>404.40</ele>
        <time>2017-02-18T06:13:19Z</time>
      </trkpt>
      <trkpt lat="42.472087000" lon="-2.461250000">
        <ele>403.60</ele>
        <time>2017-02-18T06:13:20Z</time>
      </trkpt>
      <trkpt lat="42.472116000" lon="-2.461239000">
        <ele>403.10</ele>
        <time>2017-02-18T06:13:21Z</time>
      </trkpt>
      <trkpt lat="42.472142000" lon="-2.461217000">
        <ele>402.50</ele>
        <time>2017-02-18T06:13:22Z</time>
      </trkpt>
      <trkpt lat="42.472169000" lon="-2.461193000">
        <ele>402.10</ele>
        <time>2017-02-18T06:13:23Z</time>
      </trkpt>
      <trkpt lat="42.472196000" lon="-2.461164000">
        <ele>401.80</ele>
        <time>2017-02-18T06:13:24Z</time>
      </trkpt>
      <trkpt lat="42.472219000" lon="-2.461134000">
        <ele>401.50</ele>
        <time>2017-02-18T06:13:25Z</time>
      </trkpt>
      <trkpt lat="42.472242000" lon="-2.461106000">
        <ele>401.30</ele>
        <time>2017-02-18T06:13:26Z</time>
      </trkpt>
      <trkpt lat="42.472265000" lon="-2.461070000">
        <ele>401.10</ele>
        <time>2017-02-18T06:13:27Z</time>
      </trkpt>
      <trkpt lat="42.472286000" lon="-2.461041000">
        <ele>401.00</ele>
        <time>2017-02-18T06:13:28Z</time>
      </trkpt>
      <trkpt lat="42.472309000" lon="-2.461013000">
        <ele>400.90</ele>
        <time>2017-02-18T06:13:29Z</time>
      </trkpt>
      <trkpt lat="42.472334000" lon="-2.460985000">
        <ele>400.90</ele>
        <time>2017-02-18T06:13:30Z</time>
      </trkpt>
      <trkpt lat="42.472357000" lon="-2.460960000">
        <ele>400.90</ele>
        <time>2017-02-18T06:13:31Z</time>
      </trkpt>
      <trkpt lat="42.472376000" lon="-2.460939000">
        <ele>400.90</ele>
        <time>2017-02-18T06:13:32Z</time>
      </trkpt>
      <trkpt lat="42.472395000" lon="-2.460918000">
        <ele>400.90</ele>
        <time>2017-02-18T06:13:33Z</time>
      </trkpt>
      <trkpt lat="42.472414000" lon="-2.460898000">
        <ele>400.90</ele>
        <time>2017-02-18T06:13:34Z</time>
      </trkpt>
      <trkpt lat="42.472434000" lon="-2.460875000">
        <ele>400.90</ele>
        <time>2017-02-18T06:13:35Z</time>
      </trkpt>
      <trkpt lat="42.472455000" lon="-2.460853000">
        <ele>400.80</ele>
        <time>2017-02-18T06:13:36Z</time>
      </trkpt>
      <trkpt lat="42.472482000" lon="-2.460832000">
        <ele>400.80</ele>
        <time>2017-02-18T06:13:37Z</time>
      </trkpt>
      <trkpt lat="42.472510000" lon="-2.460804000">
        <ele>400.70</ele>
        <time>2017-02-18T06:13:38Z</time>
      </trkpt>
      <trkpt lat="42.472539000" lon="-2.460773000">
        <ele>400.70</ele>
        <time>2017-02-18T06:13:39Z</time>
      </trkpt>
      <trkpt lat="42.472567000" lon="-2.460742000">
        <ele>400.70</ele>
        <time>2017-02-18T06:13:40Z</time>
      </trkpt>
      <trkpt lat="42.472600000" lon="-2.460707000">
        <ele>400.70</ele>
        <time>2017-02-18T06:13:41Z</time>
      </trkpt>
      <trkpt lat="42.472632000" lon="-2.460670000">
        <ele>400.60</ele>
        <time>2017-02-18T06:13:42Z</time>
      </trkpt>
      <trkpt lat="42.472666000" lon="-2.460629000">
        <ele>400.60</ele>
        <time>2017-02-18T06:13:43Z</time>
      </trkpt>
      <trkpt lat="42.472703000" lon="-2.460586000">
        <ele>400.60</ele>
        <time>2017-02-18T06:13:44Z</time>
      </trkpt>
      <trkpt lat="42.472741000" lon="-2.460541000">
        <ele>400.60</ele>
        <time>2017-02-18T06:13:45Z</time>
      </trkpt>
      <trkpt lat="42.472785000" lon="-2.460498000">
        <ele>400.40</ele>
        <time>2017-02-18T06:13:46Z</time>
      </trkpt>
      <trkpt lat="42.472834000" lon="-2.460474000">
        <ele>400.30</ele>
        <time>2017-02-18T06:13:47Z</time>
      </trkpt>
      <trkpt lat="42.472882000" lon="-2.460467000">
        <ele>400.10</ele>
        <time>2017-02-18T06:13:48Z</time>
      </trkpt>
      <trkpt lat="42.472931000" lon="-2.460467000">
        <ele>400.00</ele>
        <time>2017-02-18T06:13:49Z</time>
      </trkpt>
      <trkpt lat="42.472982000" lon="-2.460475000">
        <ele>399.90</ele>
        <time>2017-02-18T06:13:50Z</time>
      </trkpt>
      <trkpt lat="42.473030000" lon="-2.460488000">
        <ele>399.80</ele>
        <time>2017-02-18T06:13:51Z</time>
      </trkpt>
      <trkpt lat="42.473079000" lon="-2.460502000">
        <ele>399.80</ele>
        <time>2017-02-18T06:13:52Z</time>
      </trkpt>
      <trkpt lat="42.473124000" lon="-2.460521000">
        <ele>399.70</ele>
        <time>2017-02-18T06:13:53Z</time>
      </trkpt>
      <trkpt lat="42.473170000" lon="-2.460536000">
        <ele>399.60</ele>
        <time>2017-02-18T06:13:54Z</time>
      </trkpt>
      <trkpt lat="42.473210000" lon="-2.460552000">
        <ele>399.50</ele>
        <time>2017-02-18T06:13:55Z</time>
      </trkpt>
      <trkpt lat="42.473253000" lon="-2.460568000">
        <ele>399.50</ele>
        <time>2017-02-18T06:13:56Z</time>
      </trkpt>
      <trkpt lat="42.473293000" lon="-2.460584000">
        <ele>399.40</ele>
        <time>2017-02-18T06:13:57Z</time>
      </trkpt>
      <trkpt lat="42.473331000" lon="-2.460600000">
        <ele>399.40</ele>
        <time>2017-02-18T06:13:58Z</time>
      </trkpt>
      <trkpt lat="42.473368000" lon="-2.460618000">
        <ele>399.30</ele>
        <time>2017-02-18T06:13:59Z</time>
      </trkpt>
      <trkpt lat="42.473403000" lon="-2.460635000">
        <ele>399.20</ele>
        <time>2017-02-18T06:14:00Z</time>
      </trkpt>
      <trkpt lat="42.473438000" lon="-2.460656000">
        <ele>399.20</ele>
        <time>2017-02-18T06:14:01Z</time>
      </trkpt>
      <trkpt lat="42.473473000" lon="-2.460669000">
        <ele>399.20</ele>
        <time>2017-02-18T06:14:02Z</time>
      </trkpt>
      <trkpt lat="42.473507000" lon="-2.460680000">
        <ele>399.10</ele>
        <time>2017-02-18T06:14:03Z</time>
      </trkpt>
      <trkpt lat="42.473539000" lon="-2.460692000">
        <ele>399.10</ele>
        <time>2017-02-18T06:14:04Z</time>
      </trkpt>
      <trkpt lat="42.473569000" lon="-2.460707000">
        <ele>399.10</ele>
        <time>2017-02-18T06:14:05Z</time>
      </trkpt>
      <trkpt lat="42.473629000" lon="-2.460732000">
        <ele>399.10</ele>
        <time>2017-02-18T06:14:07Z</time>
      </trkpt>
      <trkpt lat="42.473659000" lon="-2.460747000">
        <ele>399.00</ele>
        <time>2017-02-18T06:14:08Z</time>
      </trkpt>
      <trkpt lat="42.473688000" lon="-2.460763000">
        <ele>398.90</ele>
        <time>2017-02-18T06:14:09Z</time>
      </trkpt>
      <trkpt lat="42.473716000" lon="-2.460780000">
        <ele>398.80</ele>
        <time>2017-02-18T06:14:10Z</time>
      </trkpt>
      <trkpt lat="42.473745000" lon="-2.460794000">
        <ele>398.70</ele>
        <time>2017-02-18T06:14:11Z</time>
      </trkpt>
      <trkpt lat="42.473777000" lon="-2.460805000">
        <ele>398.70</ele>
        <time>2017-02-18T06:14:12Z</time>
      </trkpt>
      <trkpt lat="42.473807000" lon="-2.460820000">
        <ele>398.80</ele>
        <time>2017-02-18T06:14:13Z</time>
      </trkpt>
      <trkpt lat="42.473836000" lon="-2.460835000">
        <ele>398.80</ele>
        <time>2017-02-18T06:14:14Z</time>
      </trkpt>
      <trkpt lat="42.473865000" lon="-2.460848000">
        <ele>398.80</ele>
        <time>2017-02-18T06:14:15Z</time>
      </trkpt>
      <trkpt lat="42.473897000" lon="-2.460862000">
        <ele>398.80</ele>
        <time>2017-02-18T06:14:16Z</time>
      </trkpt>
      <trkpt lat="42.473927000" lon="-2.460875000">
        <ele>398.80</ele>
        <time>2017-02-18T06:14:17Z</time>
      </trkpt>
      <trkpt lat="42.473955000" lon="-2.460890000">
        <ele>398.80</ele>
        <time>2017-02-18T06:14:18Z</time>
      </trkpt>
      <trkpt lat="42.473983000" lon="-2.460908000">
        <ele>398.80</ele>
        <time>2017-02-18T06:14:19Z</time>
      </trkpt>
      <trkpt lat="42.474013000" lon="-2.460923000">
        <ele>398.80</ele>
        <time>2017-02-18T06:14:20Z</time>
      </trkpt>
      <trkpt lat="42.474051000" lon="-2.460934000">
        <ele>398.80</ele>
        <time>2017-02-18T06:14:21Z</time>
      </trkpt>
      <trkpt lat="42.474086000" lon="-2.460947000">
        <ele>398.70</ele>
        <time>2017-02-18T06:14:22Z</time>
      </trkpt>
      <trkpt lat="42.474117000" lon="-2.460962000">
        <ele>398.70</ele>
        <time>2017-02-18T06:14:23Z</time>
      </trkpt>
      <trkpt lat="42.474149000" lon="-2.460982000">
        <ele>398.70</ele>
        <time>2017-02-18T06:14:24Z</time>
      </trkpt>
      <trkpt lat="42.474181000" lon="-2.460997000">
        <ele>398.60</ele>
        <time>2017-02-18T06:14:25Z</time>
      </trkpt>
      <trkpt lat="42.474212000" lon="-2.461014000">
        <ele>398.70</ele>
        <time>2017-02-18T06:14:26Z</time>
      </trkpt>
      <trkpt lat="42.474246000" lon="-2.461029000">
        <ele>398.80</ele>
        <time>2017-02-18T06:14:27Z</time>
      </trkpt>
      <trkpt lat="42.474279000" lon="-2.461043000">
        <ele>398.90</ele>
        <time>2017-02-18T06:14:28Z</time>
      </trkpt>
      <trkpt lat="42.474310000" lon="-2.461061000">
        <ele>398.90</ele>
        <time>2017-02-18T06:14:29Z</time>
      </trkpt>
      <trkpt lat="42.474343000" lon="-2.461077000">
        <ele>399.00</ele>
        <time>2017-02-18T06:14:30Z</time>
      </trkpt>
      <trkpt lat="42.474377000" lon="-2.461094000">
        <ele>399.00</ele>
        <time>2017-02-18T06:14:31Z</time>
      </trkpt>
      <trkpt lat="42.474410000" lon="-2.461109000">
        <ele>398.90</ele>
        <time>2017-02-18T06:14:32Z</time>
      </trkpt>
      <trkpt lat="42.474441000" lon="-2.461125000">
        <ele>398.80</ele>
        <time>2017-02-18T06:14:33Z</time>
      </trkpt>
      <trkpt lat="42.474475000" lon="-2.461140000">
        <ele>398.70</ele>
        <time>2017-02-18T06:14:34Z</time>
      </trkpt>
      <trkpt lat="42.474510000" lon="-2.461157000">
        <ele>398.70</ele>
        <time>2017-02-18T06:14:35Z</time>
      </trkpt>
      <trkpt lat="42.474545000" lon="-2.461174000">
        <ele>398.70</ele>
        <time>2017-02-18T06:14:36Z</time>
      </trkpt>
      <trkpt lat="42.474580000" lon="-2.461193000">
        <ele>398.70</ele>
        <time>2017-02-18T06:14:37Z</time>
      </trkpt>
      <trkpt lat="42.474616000" lon="-2.461213000">
        <ele>398.90</ele>
        <time>2017-02-18T06:14:38Z</time>
      </trkpt>
      <trkpt lat="42.474653000" lon="-2.461231000">
        <ele>399.00</ele>
        <time>2017-02-18T06:14:39Z</time>
      </trkpt>
      <trkpt lat="42.474689000" lon="-2.461247000">
        <ele>399.10</ele>
        <time>2017-02-18T06:14:40Z</time>
      </trkpt>
      <trkpt lat="42.474725000" lon="-2.461261000">
        <ele>399.10</ele>
        <time>2017-02-18T06:14:41Z</time>
      </trkpt>
      <trkpt lat="42.474761000" lon="-2.461275000">
        <ele>399.20</ele>
        <time>2017-02-18T06:14:42Z</time>
      </trkpt>
      <trkpt lat="42.474796000" lon="-2.461291000">
        <ele>399.20</ele>
        <time>2017-02-18T06:14:43Z</time>
      </trkpt>
      <trkpt lat="42.474832000" lon="-2.461305000">
        <ele>399.30</ele>
        <time>2017-02-18T06:14:44Z</time>
      </trkpt>
      <trkpt lat="42.474869000" lon="-2.461321000">
        <ele>399.30</ele>
        <time>2017-02-18T06:14:45Z</time>
      </trkpt>
      <trkpt lat="42.474903000" lon="-2.461336000">
        <ele>399.30</ele>
        <time>2017-02-18T06:14:46Z</time>
      </trkpt>
      <trkpt lat="42.474940000" lon="-2.461351000">
        <ele>399.30</ele>
        <time>2017-02-18T06:14:47Z</time>
      </trkpt>
      <trkpt lat="42.474979000" lon="-2.461371000">
        <ele>399.20</ele>
        <time>2017-02-18T06:14:48Z</time>
      </trkpt>
      <trkpt lat="42.475017000" lon="-2.461383000">
        <ele>399.20</ele>
        <time>2017-02-18T06:14:49Z</time>
      </trkpt>
      <trkpt lat="42.475054000" lon="-2.461399000">
        <ele>399.20</ele>
        <time>2017-02-18T06:14:50Z</time>
      </trkpt>
      <trkpt lat="42.475090000" lon="-2.461417000">
        <ele>399.10</ele>
        <time>2017-02-18T06:14:51Z</time>
      </trkpt>
      <trkpt lat="42.475122000" lon="-2.461434000">
        <ele>399.10</ele>
        <time>2017-02-18T06:14:52Z</time>
      </trkpt>
      <trkpt lat="42.475155000" lon="-2.461444000">
        <ele>399.10</ele>
        <time>2017-02-18T06:14:53Z</time>
      </trkpt>
      <trkpt lat="42.475188000" lon="-2.461456000">
        <ele>399.10</ele>
        <time>2017-02-18T06:14:54Z</time>
      </trkpt>
      <trkpt lat="42.475221000" lon="-2.461476000">
        <ele>399.10</ele>
        <time>2017-02-18T06:14:55Z</time>
      </trkpt>
      <trkpt lat="42.475253000" lon="-2.461497000">
        <ele>399.10</ele>
        <time>2017-02-18T06:14:56Z</time>
      </trkpt>
      <trkpt lat="42.475282000" lon="-2.461513000">
        <ele>399.10</ele>
        <time>2017-02-18T06:14:57Z</time>
      </trkpt>
      <trkpt lat="42.475313000" lon="-2.461530000">
        <ele>398.90</ele>
        <time>2017-02-18T06:14:58Z</time>
      </trkpt>
      <trkpt lat="42.475342000" lon="-2.461547000">
        <ele>398.70</ele>
        <time>2017-02-18T06:14:59Z</time>
      </trkpt>
      <trkpt lat="42.475372000" lon="-2.461560000">
        <ele>398.80</ele>
        <time>2017-02-18T06:15:00Z</time>
      </trkpt>
      <trkpt lat="42.475403000" lon="-2.461577000">
        <ele>398.80</ele>
        <time>2017-02-18T06:15:01Z</time>
      </trkpt>
      <trkpt lat="42.475435000" lon="-2.461586000">
        <ele>398.80</ele>
        <time>2017-02-18T06:15:02Z</time>
      </trkpt>
      <trkpt lat="42.475466000" lon="-2.461600000">
        <ele>398.80</ele>
        <time>2017-02-18T06:15:03Z</time>
      </trkpt>
      <trkpt lat="42.475497000" lon="-2.461620000">
        <ele>398.80</ele>
        <time>2017-02-18T06:15:04Z</time>
      </trkpt>
      <trkpt lat="42.475526000" lon="-2.461640000">
        <ele>398.80</ele>
        <time>2017-02-18T06:15:05Z</time>
      </trkpt>
      <trkpt lat="42.475550000" lon="-2.461669000">
        <ele>398.90</ele>
        <time>2017-02-18T06:15:06Z</time>
      </trkpt>
      <trkpt lat="42.475580000" lon="-2.461743000">
        <ele>399.00</ele>
        <time>2017-02-18T06:15:08Z</time>
      </trkpt>
      <trkpt lat="42.475583000" lon="-2.461783000">
        <ele>399.00</ele>
        <time>2017-02-18T06:15:09Z</time>
      </trkpt>
      <trkpt lat="42.475585000" lon="-2.461826000">
        <ele>399.00</ele>
        <time>2017-02-18T06:15:10Z</time>
      </trkpt>
      <trkpt lat="42.475589000" lon="-2.461867000">
        <ele>399.00</ele>
        <time>2017-02-18T06:15:11Z</time>
      </trkpt>
      <trkpt lat="42.475588000" lon="-2.461909000">
        <ele>399.00</ele>
        <time>2017-02-18T06:15:12Z</time>
      </trkpt>
      <trkpt lat="42.475573000" lon="-2.461949000">
        <ele>399.00</ele>
        <time>2017-02-18T06:15:13Z</time>
      </trkpt>
      <trkpt lat="42.475549000" lon="-2.461979000">
        <ele>399.10</ele>
        <time>2017-02-18T06:15:14Z</time>
      </trkpt>
      <trkpt lat="42.475525000" lon="-2.462002000">
        <ele>399.10</ele>
        <time>2017-02-18T06:15:15Z</time>
      </trkpt>
      <trkpt lat="42.475504000" lon="-2.462030000">
        <ele>399.10</ele>
        <time>2017-02-18T06:15:16Z</time>
      </trkpt>
      <trkpt lat="42.475483000" lon="-2.462052000">
        <ele>399.10</ele>
        <time>2017-02-18T06:15:17Z</time>
      </trkpt>
      <trkpt lat="42.475462000" lon="-2.462071000">
        <ele>399.20</ele>
        <time>2017-02-18T06:15:18Z</time>
      </trkpt>
      <trkpt lat="42.475444000" lon="-2.462090000">
        <ele>399.30</ele>
        <time>2017-02-18T06:15:19Z</time>
      </trkpt>
      <trkpt lat="42.475429000" lon="-2.462104000">
        <ele>399.40</ele>
        <time>2017-02-18T06:15:20Z</time>
      </trkpt>
      <trkpt lat="42.475416000" lon="-2.462121000">
        <ele>399.40</ele>
        <time>2017-02-18T06:15:21Z</time>
      </trkpt>
      <trkpt lat="42.475405000" lon="-2.462133000">
        <ele>399.80</ele>
        <time>2017-02-18T06:15:22Z</time>
      </trkpt>
      <trkpt lat="42.475397000" lon="-2.462142000">
        <ele>400.00</ele>
        <time>2017-02-18T06:15:23Z</time>
      </trkpt>
      <trkpt lat="42.475390000" lon="-2.462154000">
        <ele>400.20</ele>
        <time>2017-02-18T06:15:24Z</time>
      </trkpt>
      <trkpt lat="42.475382000" lon="-2.462168000">
        <ele>400.40</ele>
        <time>2017-02-18T06:15:25Z</time>
      </trkpt>
      <trkpt lat="42.475374000" lon="-2.462180000">
        <ele>400.50</ele>
        <time>2017-02-18T06:15:26Z</time>
      </trkpt>
      <trkpt lat="42.475367000" lon="-2.462193000">
        <ele>400.50</ele>
        <time>2017-02-18T06:15:27Z</time>
      </trkpt>
      <trkpt lat="42.475362000" lon="-2.462209000">
        <ele>400.50</ele>
        <time>2017-02-18T06:15:28Z</time>
      </trkpt>
      <trkpt lat="42.475367000" lon="-2.462227000">
        <ele>400.40</ele>
        <time>2017-02-18T06:15:29Z</time>
      </trkpt>
      <trkpt lat="42.475379000" lon="-2.462240000">
        <ele>400.80</ele>
        <time>2017-02-18T06:15:30Z</time>
      </trkpt>
      <trkpt lat="42.475395000" lon="-2.462233000">
        <ele>401.00</ele>
        <time>2017-02-18T06:15:31Z</time>
      </trkpt>
      <trkpt lat="42.475409000" lon="-2.462216000">
        <ele>401.10</ele>
        <time>2017-02-18T06:15:32Z</time>
      </trkpt>
      <trkpt lat="42.475422000" lon="-2.462201000">
        <ele>401.10</ele>
        <time>2017-02-18T06:15:33Z</time>
      </trkpt>
      <trkpt lat="42.475438000" lon="-2.462186000">
        <ele>401.20</ele>
        <time>2017-02-18T06:15:34Z</time>
      </trkpt>
      <trkpt lat="42.475452000" lon="-2.462169000">
        <ele>401.20</ele>
        <time>2017-02-18T06:15:35Z</time>
      </trkpt>
      <trkpt lat="42.475460000" lon="-2.462167000">
        <ele>401.20</ele>
        <time>2017-02-18T06:15:36Z</time>
      </trkpt>
      <trkpt lat="42.475464000" lon="-2.462158000">
        <ele>401.20</ele>
        <time>2017-02-18T06:15:37Z</time>
      </trkpt>
      <trkpt lat="42.475466000" lon="-2.462153000">
        <ele>401.20</ele>
        <time>2017-02-18T06:15:38Z</time>
      </trkpt>
      <trkpt lat="42.475473000" lon="-2.462144000">
        <ele>401.20</ele>
        <time>2017-02-18T06:15:39Z</time>
      </trkpt>
      <trkpt lat="42.475478000" lon="-2.462149000">
        <ele>401.00</ele>
        <time>2017-02-18T06:15:40Z</time>
      </trkpt>
      <trkpt lat="42.475477000" lon="-2.462152000">
        <ele>400.90</ele>
        <time>2017-02-18T06:15:41Z</time>
      </trkpt>
      <trkpt lat="42.475475000" lon="-2.462152000">
        <ele>400.80</ele>
        <time>2017-02-18T06:15:42Z</time>
      </trkpt>
      <trkpt lat="42.475474000" lon="-2.462151000">
        <ele>400.70</ele>
        <time>2017-02-18T06:15:43Z</time>
      </trkpt>
      <trkpt lat="42.475474000" lon="-2.462146000">
        <ele>400.70</ele>
        <time>2017-02-18T06:15:44Z</time>
      </trkpt>
      <trkpt lat="42.475475000" lon="-2.462145000">
        <ele>400.80</ele>
        <time>2017-02-18T06:15:45Z</time>
      </trkpt>
      <trkpt lat="42.475480000" lon="-2.462146000">
        <ele>400.80</ele>
        <time>2017-02-18T06:15:46Z</time>
      </trkpt>
      <trkpt lat="42.475480000" lon="-2.462146000">
        <ele>400.80</ele>
        <time>2017-02-18T06:15:47Z</time>
      </trkpt>
      <trkpt lat="42.475479000" lon="-2.462139000">
        <ele>400.80</ele>
        <time>2017-02-18T06:15:48Z</time>
      </trkpt>
      <trkpt lat="42.475482000" lon="-2.462135000">
        <ele>400.80</ele>
        <time>2017-02-18T06:15:49Z</time>
      </trkpt>
      <trkpt lat="42.475489000" lon="-2.462130000">
        <ele>400.80</ele>
        <time>2017-02-18T06:15:50Z</time>
      </trkpt>
      <trkpt lat="42.475491000" lon="-2.462131000">
        <ele>400.80</ele>
        <time>2017-02-18T06:15:51Z</time>
      </trkpt>
      <trkpt lat="42.475495000" lon="-2.462131000">
        <ele>400.80</ele>
        <time>2017-02-18T06:15:52Z</time>
      </trkpt>
      <trkpt lat="42.475498000" lon="-2.462128000">
        <ele>400.80</ele>
        <time>2017-02-18T06:15:53Z</time>
      </trkpt>
      <trkpt lat="42.475501000" lon="-2.462122000">
        <ele>400.70</ele>
        <time>2017-02-18T06:15:54Z</time>
      </trkpt>
      <trkpt lat="42.475501000" lon="-2.462123000">
        <ele>400.60</ele>
        <time>2017-02-18T06:15:55Z</time>
      </trkpt>
      <trkpt lat="42.475504000" lon="-2.462117000">
        <ele>400.50</ele>
        <time>2017-02-18T06:15:56Z</time>
      </trkpt>
      <trkpt lat="42.475508000" lon="-2.462112000">
        <ele>400.50</ele>
        <time>2017-02-18T06:15:57Z</time>
      </trkpt>
      <trkpt lat="42.475514000" lon="-2.462106000">
        <ele>400.40</ele>
        <time>2017-02-18T06:15:58Z</time>
      </trkpt>
      <trkpt lat="42.475520000" lon="-2.462096000">
        <ele>400.40</ele>
        <time>2017-02-18T06:15:59Z</time>
      </trkpt>
      <trkpt lat="42.475529000" lon="-2.462080000">
        <ele>400.50</ele>
        <time>2017-02-18T06:16:00Z</time>
      </trkpt>
      <trkpt lat="42.475543000" lon="-2.462069000">
        <ele>400.60</ele>
        <time>2017-02-18T06:16:01Z</time>
      </trkpt>
      <trkpt lat="42.475555000" lon="-2.462055000">
        <ele>400.60</ele>
        <time>2017-02-18T06:16:02Z</time>
      </trkpt>
      <trkpt lat="42.475565000" lon="-2.462039000">
        <ele>400.70</ele>
        <time>2017-02-18T06:16:03Z</time>
      </trkpt>
      <trkpt lat="42.475580000" lon="-2.462027000">
        <ele>400.70</ele>
        <time>2017-02-18T06:16:04Z</time>
      </trkpt>
      <trkpt lat="42.475593000" lon="-2.462012000">
        <ele>400.70</ele>
        <time>2017-02-18T06:16:05Z</time>
      </trkpt>
      <trkpt lat="42.475600000" lon="-2.461989000">
        <ele>400.70</ele>
        <time>2017-02-18T06:16:06Z</time>
      </trkpt>
      <trkpt lat="42.475616000" lon="-2.461971000">
        <ele>400.70</ele>
        <time>2017-02-18T06:16:07Z</time>
      </trkpt>
      <trkpt lat="42.475649000" lon="-2.461932000">
        <ele>400.80</ele>
        <time>2017-02-18T06:16:09Z</time>
      </trkpt>
      <trkpt lat="42.475667000" lon="-2.461908000">
        <ele>400.80</ele>
        <time>2017-02-18T06:16:10Z</time>
      </trkpt>
      <trkpt lat="42.475683000" lon="-2.461891000">
        <ele>400.80</ele>
        <time>2017-02-18T06:16:11Z</time>
      </trkpt>
      <trkpt lat="42.475701000" lon="-2.461870000">
        <ele>400.80</ele>
        <time>2017-02-18T06:16:12Z</time>
      </trkpt>
      <trkpt lat="42.475722000" lon="-2.461850000">
        <ele>400.80</ele>
        <time>2017-02-18T06:16:13Z</time>
      </trkpt>
      <trkpt lat="42.475738000" lon="-2.461827000">
        <ele>400.70</ele>
        <time>2017-02-18T06:16:14Z</time>
      </trkpt>
      <trkpt lat="42.475758000" lon="-2.461805000">
        <ele>400.70</ele>
        <time>2017-02-18T06:16:15Z</time>
      </trkpt>
      <trkpt lat="42.475781000" lon="-2.461780000">
        <ele>400.70</ele>
        <time>2017-02-18T06:16:16Z</time>
      </trkpt>
      <trkpt lat="42.475800000" lon="-2.461754000">
        <ele>400.70</ele>
        <time>2017-02-18T06:16:17Z</time>
      </trkpt>
      <trkpt lat="42.475818000" lon="-2.461727000">
        <ele>400.70</ele>
        <time>2017-02-18T06:16:18Z</time>
      </trkpt>
      <trkpt lat="42.475839000" lon="-2.461701000">
        <ele>400.60</ele>
        <time>2017-02-18T06:16:19Z</time>
      </trkpt>
      <trkpt lat="42.475859000" lon="-2.461676000">
        <ele>400.60</ele>
        <time>2017-02-18T06:16:20Z</time>
      </trkpt>
      <trkpt lat="42.475879000" lon="-2.461649000">
        <ele>400.60</ele>
        <time>2017-02-18T06:16:21Z</time>
      </trkpt>
      <trkpt lat="42.475904000" lon="-2.461620000">
        <ele>400.70</ele>
        <time>2017-02-18T06:16:22Z</time>
      </trkpt>
      <trkpt lat="42.475929000" lon="-2.461587000">
        <ele>400.70</ele>
        <time>2017-02-18T06:16:23Z</time>
      </trkpt>
      <trkpt lat="42.475949000" lon="-2.461562000">
        <ele>400.50</ele>
        <time>2017-02-18T06:16:24Z</time>
      </trkpt>
      <trkpt lat="42.475972000" lon="-2.461529000">
        <ele>400.40</ele>
        <time>2017-02-18T06:16:25Z</time>
      </trkpt>
      <trkpt lat="42.475997000" lon="-2.461497000">
        <ele>400.50</ele>
        <time>2017-02-18T06:16:26Z</time>
      </trkpt>
      <trkpt lat="42.476016000" lon="-2.461457000">
        <ele>400.60</ele>
        <time>2017-02-18T06:16:27Z</time>
      </trkpt>
      <trkpt lat="42.476040000" lon="-2.461423000">
        <ele>400.40</ele>
        <time>2017-02-18T06:16:28Z</time>
      </trkpt>
      <trkpt lat="42.476063000" lon="-2.461384000">
        <ele>400.30</ele>
        <time>2017-02-18T06:16:29Z</time>
      </trkpt>
      <trkpt lat="42.476083000" lon="-2.461348000">
        <ele>400.00</ele>
        <time>2017-02-18T06:16:30Z</time>
      </trkpt>
      <trkpt lat="42.476104000" lon="-2.461316000">
        <ele>399.70</ele>
        <time>2017-02-18T06:16:31Z</time>
      </trkpt>
      <trkpt lat="42.476125000" lon="-2.461278000">
        <ele>399.60</ele>
        <time>2017-02-18T06:16:32Z</time>
      </trkpt>
      <trkpt lat="42.476145000" lon="-2.461241000">
        <ele>399.40</ele>
        <time>2017-02-18T06:16:33Z</time>
      </trkpt>
      <trkpt lat="42.476166000" lon="-2.461205000">
        <ele>399.40</ele>
        <time>2017-02-18T06:16:34Z</time>
      </trkpt>
      <trkpt lat="42.476186000" lon="-2.461171000">
        <ele>399.30</ele>
        <time>2017-02-18T06:16:35Z</time>
      </trkpt>
      <trkpt lat="42.476207000" lon="-2.461133000">
        <ele>399.30</ele>
        <time>2017-02-18T06:16:36Z</time>
      </trkpt>
      <trkpt lat="42.476227000" lon="-2.461091000">
        <ele>399.30</ele>
        <time>2017-02-18T06:16:37Z</time>
      </trkpt>
      <trkpt lat="42.476250000" lon="-2.461055000">
        <ele>399.30</ele>
        <time>2017-02-18T06:16:38Z</time>
      </trkpt>
      <trkpt lat="42.476279000" lon="-2.461020000">
        <ele>399.30</ele>
        <time>2017-02-18T06:16:39Z</time>
      </trkpt>
      <trkpt lat="42.476303000" lon="-2.460985000">
        <ele>399.30</ele>
        <time>2017-02-18T06:16:40Z</time>
      </trkpt>
      <trkpt lat="42.476329000" lon="-2.460944000">
        <ele>399.30</ele>
        <time>2017-02-18T06:16:41Z</time>
      </trkpt>
      <trkpt lat="42.476352000" lon="-2.460904000">
        <ele>399.30</ele>
        <time>2017-02-18T06:16:42Z</time>
      </trkpt>
      <trkpt lat="42.476374000" lon="-2.460867000">
        <ele>399.30</ele>
        <time>2017-02-18T06:16:43Z</time>
      </trkpt>
      <trkpt lat="42.476400000" lon="-2.460829000">
        <ele>399.30</ele>
        <time>2017-02-18T06:16:44Z</time>
      </trkpt>
      <trkpt lat="42.476423000" lon="-2.460795000">
        <ele>399.30</ele>
        <time>2017-02-18T06:16:45Z</time>
      </trkpt>
      <trkpt lat="42.476451000" lon="-2.460760000">
        <ele>399.30</ele>
        <time>2017-02-18T06:16:46Z</time>
      </trkpt>
      <trkpt lat="42.476477000" lon="-2.460722000">
        <ele>399.30</ele>
        <time>2017-02-18T06:16:47Z</time>
      </trkpt>
      <trkpt lat="42.476502000" lon="-2.460685000">
        <ele>399.30</ele>
        <time>2017-02-18T06:16:48Z</time>
      </trkpt>
      <trkpt lat="42.476530000" lon="-2.460649000">
        <ele>399.20</ele>
        <time>2017-02-18T06:16:49Z</time>
      </trkpt>
      <trkpt lat="42.476557000" lon="-2.460612000">
        <ele>399.20</ele>
        <time>2017-02-18T06:16:50Z</time>
      </trkpt>
      <trkpt lat="42.476588000" lon="-2.460577000">
        <ele>399.20</ele>
        <time>2017-02-18T06:16:51Z</time>
      </trkpt>
      <trkpt lat="42.476613000" lon="-2.460548000">
        <ele>399.10</ele>
        <time>2017-02-18T06:16:52Z</time>
      </trkpt>
      <trkpt lat="42.476641000" lon="-2.460520000">
        <ele>399.10</ele>
        <time>2017-02-18T06:16:53Z</time>
      </trkpt>
      <trkpt lat="42.476670000" lon="-2.460492000">
        <ele>399.00</ele>
        <time>2017-02-18T06:16:54Z</time>
      </trkpt>
      <trkpt lat="42.476694000" lon="-2.460468000">
        <ele>399.00</ele>
        <time>2017-02-18T06:16:55Z</time>
      </trkpt>
      <trkpt lat="42.476723000" lon="-2.460445000">
        <ele>398.80</ele>
        <time>2017-02-18T06:16:56Z</time>
      </trkpt>
      <trkpt lat="42.476750000" lon="-2.460420000">
        <ele>398.70</ele>
        <time>2017-02-18T06:16:57Z</time>
      </trkpt>
      <trkpt lat="42.476780000" lon="-2.460396000">
        <ele>398.60</ele>
        <time>2017-02-18T06:16:58Z</time>
      </trkpt>
      <trkpt lat="42.476805000" lon="-2.460372000">
        <ele>398.50</ele>
        <time>2017-02-18T06:16:59Z</time>
      </trkpt>
      <trkpt lat="42.476838000" lon="-2.460346000">
        <ele>398.70</ele>
        <time>2017-02-18T06:17:00Z</time>
      </trkpt>
      <trkpt lat="42.476871000" lon="-2.460323000">
        <ele>398.80</ele>
        <time>2017-02-18T06:17:01Z</time>
      </trkpt>
      <trkpt lat="42.476903000" lon="-2.460300000">
        <ele>398.80</ele>
        <time>2017-02-18T06:17:02Z</time>
      </trkpt>
      <trkpt lat="42.476935000" lon="-2.460272000">
        <ele>398.90</ele>
        <time>2017-02-18T06:17:03Z</time>
      </trkpt>
      <trkpt lat="42.476966000" lon="-2.460245000">
        <ele>398.90</ele>
        <time>2017-02-18T06:17:04Z</time>
      </trkpt>
      <trkpt lat="42.476998000" lon="-2.460221000">
        <ele>399.00</ele>
        <time>2017-02-18T06:17:05Z</time>
      </trkpt>
      <trkpt lat="42.477033000" lon="-2.460198000">
        <ele>398.90</ele>
        <time>2017-02-18T06:17:06Z</time>
      </trkpt>
      <trkpt lat="42.477069000" lon="-2.460177000">
        <ele>398.80</ele>
        <time>2017-02-18T06:17:07Z</time>
      </trkpt>
      <trkpt lat="42.477104000" lon="-2.460151000">
        <ele>398.70</ele>
        <time>2017-02-18T06:17:08Z</time>
      </trkpt>
      <trkpt lat="42.477174000" lon="-2.460098000">
        <ele>398.50</ele>
        <time>2017-02-18T06:17:10Z</time>
      </trkpt>
      <trkpt lat="42.477206000" lon="-2.460064000">
        <ele>398.30</ele>
        <time>2017-02-18T06:17:11Z</time>
      </trkpt>
      <trkpt lat="42.477237000" lon="-2.460027000">
        <ele>398.20</ele>
        <time>2017-02-18T06:17:12Z</time>
      </trkpt>
      <trkpt lat="42.477265000" lon="-2.459996000">
        <ele>398.10</ele>
        <time>2017-02-18T06:17:13Z</time>
      </trkpt>
      <trkpt lat="42.477296000" lon="-2.459963000">
        <ele>398.10</ele>
        <time>2017-02-18T06:17:14Z</time>
      </trkpt>
      <trkpt lat="42.477323000" lon="-2.459927000">
        <ele>398.00</ele>
        <time>2017-02-18T06:17:15Z</time>
      </trkpt>
      <trkpt lat="42.477348000" lon="-2.459902000">
        <ele>397.90</ele>
        <time>2017-02-18T06:17:16Z</time>
      </trkpt>
      <trkpt lat="42.477371000" lon="-2.459879000">
        <ele>397.80</ele>
        <time>2017-02-18T06:17:17Z</time>
      </trkpt>
      <trkpt lat="42.477391000" lon="-2.459849000">
        <ele>397.80</ele>
        <time>2017-02-18T06:17:18Z</time>
      </trkpt>
      <trkpt lat="42.477413000" lon="-2.459820000">
        <ele>397.70</ele>
        <time>2017-02-18T06:17:19Z</time>
      </trkpt>
      <trkpt lat="42.477438000" lon="-2.459793000">
        <ele>397.70</ele>
        <time>2017-02-18T06:17:20Z</time>
      </trkpt>
      <trkpt lat="42.477462000" lon="-2.459761000">
        <ele>397.70</ele>
        <time>2017-02-18T06:17:21Z</time>
      </trkpt>
      <trkpt lat="42.477486000" lon="-2.459729000">
        <ele>397.70</ele>
        <time>2017-02-18T06:17:22Z</time>
      </trkpt>
      <trkpt lat="42.477512000" lon="-2.459699000">
        <ele>397.80</ele>
        <time>2017-02-18T06:17:23Z</time>
      </trkpt>
      <trkpt lat="42.477533000" lon="-2.459672000">
        <ele>397.70</ele>
        <time>2017-02-18T06:17:24Z</time>
      </trkpt>
      <trkpt lat="42.477554000" lon="-2.459650000">
        <ele>397.70</ele>
        <time>2017-02-18T06:17:25Z</time>
      </trkpt>
      <trkpt lat="42.477571000" lon="-2.459630000">
        <ele>397.70</ele>
        <time>2017-02-18T06:17:26Z</time>
      </trkpt>
      <trkpt lat="42.477572000" lon="-2.459600000">
        <ele>397.70</ele>
        <time>2017-02-18T06:17:27Z</time>
      </trkpt>
      <trkpt lat="42.477556000" lon="-2.459578000">
        <ele>397.70</ele>
        <time>2017-02-18T06:17:28Z</time>
      </trkpt>
      <trkpt lat="42.477544000" lon="-2.459548000">
        <ele>397.60</ele>
        <time>2017-02-18T06:17:29Z</time>
      </trkpt>
      <trkpt lat="42.477548000" lon="-2.459514000">
        <ele>397.70</ele>
        <time>2017-02-18T06:17:30Z</time>
      </trkpt>
      <trkpt lat="42.477562000" lon="-2.459480000">
        <ele>397.70</ele>
        <time>2017-02-18T06:17:31Z</time>
      </trkpt>
      <trkpt lat="42.477589000" lon="-2.459433000">
        <ele>397.80</ele>
        <time>2017-02-18T06:17:32Z</time>
      </trkpt>
      <trkpt lat="42.477623000" lon="-2.459393000">
        <ele>397.80</ele>
        <time>2017-02-18T06:17:33Z</time>
      </trkpt>
      <trkpt lat="42.477654000" lon="-2.459356000">
        <ele>397.60</ele>
        <time>2017-02-18T06:17:34Z</time>
      </trkpt>
      <trkpt lat="42.477686000" lon="-2.459317000">
        <ele>397.40</ele>
        <time>2017-02-18T06:17:35Z</time>
      </trkpt>
      <trkpt lat="42.477718000" lon="-2.459275000">
        <ele>397.20</ele>
        <time>2017-02-18T06:17:36Z</time>
      </trkpt>
      <trkpt lat="42.477748000" lon="-2.459232000">
        <ele>397.00</ele>
        <time>2017-02-18T06:17:37Z</time>
      </trkpt>
      <trkpt lat="42.477773000" lon="-2.459191000">
        <ele>397.00</ele>
        <time>2017-02-18T06:17:38Z</time>
      </trkpt>
      <trkpt lat="42.477799000" lon="-2.459152000">
        <ele>397.00</ele>
        <time>2017-02-18T06:17:39Z</time>
      </trkpt>
      <trkpt lat="42.477822000" lon="-2.459108000">
        <ele>396.70</ele>
        <time>2017-02-18T06:17:40Z</time>
      </trkpt>
      <trkpt lat="42.477849000" lon="-2.459063000">
        <ele>396.60</ele>
        <time>2017-02-18T06:17:41Z</time>
      </trkpt>
      <trkpt lat="42.477873000" lon="-2.459022000">
        <ele>396.30</ele>
        <time>2017-02-18T06:17:42Z</time>
      </trkpt>
      <trkpt lat="42.477894000" lon="-2.458981000">
        <ele>396.10</ele>
        <time>2017-02-18T06:17:43Z</time>
      </trkpt>
      <trkpt lat="42.477917000" lon="-2.458939000">
        <ele>396.00</ele>
        <time>2017-02-18T06:17:44Z</time>
      </trkpt>
      <trkpt lat="42.477937000" lon="-2.458899000">
        <ele>395.90</ele>
        <time>2017-02-18T06:17:45Z</time>
      </trkpt>
      <trkpt lat="42.477957000" lon="-2.458858000">
        <ele>395.90</ele>
        <time>2017-02-18T06:17:46Z</time>
      </trkpt>
      <trkpt lat="42.477979000" lon="-2.458818000">
        <ele>396.00</ele>
        <time>2017-02-18T06:17:47Z</time>
      </trkpt>
      <trkpt lat="42.478002000" lon="-2.458778000">
        <ele>396.00</ele>
        <time>2017-02-18T06:17:48Z</time>
      </trkpt>
      <trkpt lat="42.478024000" lon="-2.458740000">
        <ele>396.00</ele>
        <time>2017-02-18T06:17:49Z</time>
      </trkpt>
      <trkpt lat="42.478044000" lon="-2.458701000">
        <ele>396.00</ele>
        <time>2017-02-18T06:17:50Z</time>
      </trkpt>
      <trkpt lat="42.478064000" lon="-2.458661000">
        <ele>396.00</ele>
        <time>2017-02-18T06:17:51Z</time>
      </trkpt>
      <trkpt lat="42.478086000" lon="-2.458624000">
        <ele>396.10</ele>
        <time>2017-02-18T06:17:52Z</time>
      </trkpt>
      <trkpt lat="42.478108000" lon="-2.458587000">
        <ele>396.10</ele>
        <time>2017-02-18T06:17:53Z</time>
      </trkpt>
      <trkpt lat="42.478132000" lon="-2.458551000">
        <ele>396.20</ele>
        <time>2017-02-18T06:17:54Z</time>
      </trkpt>
      <trkpt lat="42.478154000" lon="-2.458511000">
        <ele>396.30</ele>
        <time>2017-02-18T06:17:55Z</time>
      </trkpt>
      <trkpt lat="42.478177000" lon="-2.458474000">
        <ele>396.40</ele>
        <time>2017-02-18T06:17:56Z</time>
      </trkpt>
      <trkpt lat="42.478204000" lon="-2.458436000">
        <ele>396.40</ele>
        <time>2017-02-18T06:17:57Z</time>
      </trkpt>
      <trkpt lat="42.478230000" lon="-2.458401000">
        <ele>396.50</ele>
        <time>2017-02-18T06:17:58Z</time>
      </trkpt>
      <trkpt lat="42.478255000" lon="-2.458365000">
        <ele>396.50</ele>
        <time>2017-02-18T06:17:59Z</time>
      </trkpt>
      <trkpt lat="42.478279000" lon="-2.458330000">
        <ele>396.50</ele>
        <time>2017-02-18T06:18:00Z</time>
      </trkpt>
      <trkpt lat="42.478301000" lon="-2.458295000">
        <ele>396.50</ele>
        <time>2017-02-18T06:18:01Z</time>
      </trkpt>
      <trkpt lat="42.478326000" lon="-2.458260000">
        <ele>396.50</ele>
        <time>2017-02-18T06:18:02Z</time>
      </trkpt>
      <trkpt lat="42.478350000" lon="-2.458222000">
        <ele>396.40</ele>
        <time>2017-02-18T06:18:03Z</time>
      </trkpt>
      <trkpt lat="42.478376000" lon="-2.458183000">
        <ele>396.50</ele>
        <time>2017-02-18T06:18:04Z</time>
      </trkpt>
      <trkpt lat="42.478400000" lon="-2.458150000">
        <ele>396.50</ele>
        <time>2017-02-18T06:18:05Z</time>
      </trkpt>
      <trkpt lat="42.478423000" lon="-2.458113000">
        <ele>396.50</ele>
        <time>2017-02-18T06:18:06Z</time>
      </trkpt>
      <trkpt lat="42.478447000" lon="-2.458079000">
        <ele>396.40</ele>
        <time>2017-02-18T06:18:07Z</time>
      </trkpt>
      <trkpt lat="42.478470000" lon="-2.458045000">
        <ele>396.40</ele>
        <time>2017-02-18T06:18:08Z</time>
      </trkpt>
      <trkpt lat="42.478493000" lon="-2.458013000">
        <ele>396.40</ele>
        <time>2017-02-18T06:18:09Z</time>
      </trkpt>
      <trkpt lat="42.478546000" lon="-2.457941000">
        <ele>396.40</ele>
        <time>2017-02-18T06:18:11Z</time>
      </trkpt>
      <trkpt lat="42.478574000" lon="-2.457905000">
        <ele>396.40</ele>
        <time>2017-02-18T06:18:12Z</time>
      </trkpt>
      <trkpt lat="42.478598000" lon="-2.457869000">
        <ele>396.40</ele>
        <time>2017-02-18T06:18:13Z</time>
      </trkpt>
      <trkpt lat="42.478622000" lon="-2.457833000">
        <ele>396.40</ele>
        <time>2017-02-18T06:18:14Z</time>
      </trkpt>
      <trkpt lat="42.478645000" lon="-2.457796000">
        <ele>396.50</ele>
        <time>2017-02-18T06:18:15Z</time>
      </trkpt>
      <trkpt lat="42.478670000" lon="-2.457758000">
        <ele>396.50</ele>
        <time>2017-02-18T06:18:16Z</time>
      </trkpt>
      <trkpt lat="42.478695000" lon="-2.457723000">
        <ele>396.50</ele>
        <time>2017-02-18T06:18:17Z</time>
      </trkpt>
      <trkpt lat="42.478719000" lon="-2.457687000">
        <ele>396.50</ele>
        <time>2017-02-18T06:18:18Z</time>
      </trkpt>
      <trkpt lat="42.478743000" lon="-2.457652000">
        <ele>396.50</ele>
        <time>2017-02-18T06:18:19Z</time>
      </trkpt>
      <trkpt lat="42.478769000" lon="-2.457617000">
        <ele>396.60</ele>
        <time>2017-02-18T06:18:20Z</time>
      </trkpt>
      <trkpt lat="42.478796000" lon="-2.457584000">
        <ele>396.60</ele>
        <time>2017-02-18T06:18:21Z</time>
      </trkpt>
      <trkpt lat="42.478824000" lon="-2.457549000">
        <ele>396.60</ele>
        <time>2017-02-18T06:18:22Z</time>
      </trkpt>
      <trkpt lat="42.478848000" lon="-2.457510000">
        <ele>396.60</ele>
        <time>2017-02-18T06:18:23Z</time>
      </trkpt>
      <trkpt lat="42.478869000" lon="-2.457476000">
        <ele>396.60</ele>
        <time>2017-02-18T06:18:24Z</time>
      </trkpt>
      <trkpt lat="42.478890000" lon="-2.457439000">
        <ele>396.60</ele>
        <time>2017-02-18T06:18:25Z</time>
      </trkpt>
      <trkpt lat="42.478913000" lon="-2.457408000">
        <ele>396.60</ele>
        <time>2017-02-18T06:18:26Z</time>
      </trkpt>
      <trkpt lat="42.478937000" lon="-2.457374000">
        <ele>396.60</ele>
        <time>2017-02-18T06:18:27Z</time>
      </trkpt>
      <trkpt lat="42.478961000" lon="-2.457349000">
        <ele>396.70</ele>
        <time>2017-02-18T06:18:28Z</time>
      </trkpt>
      <trkpt lat="42.478985000" lon="-2.457315000">
        <ele>396.70</ele>
        <time>2017-02-18T06:18:29Z</time>
      </trkpt>
      <trkpt lat="42.479009000" lon="-2.457280000">
        <ele>396.80</ele>
        <time>2017-02-18T06:18:30Z</time>
      </trkpt>
      <trkpt lat="42.479029000" lon="-2.457241000">
        <ele>396.90</ele>
        <time>2017-02-18T06:18:31Z</time>
      </trkpt>
      <trkpt lat="42.479052000" lon="-2.457203000">
        <ele>396.90</ele>
        <time>2017-02-18T06:18:32Z</time>
      </trkpt>
      <trkpt lat="42.479078000" lon="-2.457170000">
        <ele>397.00</ele>
        <time>2017-02-18T06:18:33Z</time>
      </trkpt>
      <trkpt lat="42.479101000" lon="-2.457136000">
        <ele>397.00</ele>
        <time>2017-02-18T06:18:34Z</time>
      </trkpt>
      <trkpt lat="42.479124000" lon="-2.457101000">
        <ele>397.00</ele>
        <time>2017-02-18T06:18:35Z</time>
      </trkpt>
      <trkpt lat="42.479148000" lon="-2.457068000">
        <ele>397.10</ele>
        <time>2017-02-18T06:18:36Z</time>
      </trkpt>
      <trkpt lat="42.479169000" lon="-2.457038000">
        <ele>397.10</ele>
        <time>2017-02-18T06:18:37Z</time>
      </trkpt>
      <trkpt lat="42.479187000" lon="-2.457004000">
        <ele>397.10</ele>
        <time>2017-02-18T06:18:38Z</time>
      </trkpt>
      <trkpt lat="42.479202000" lon="-2.456975000">
        <ele>397.10</ele>
        <time>2017-02-18T06:18:39Z</time>
      </trkpt>
      <trkpt lat="42.479205000" lon="-2.456952000">
        <ele>397.10</ele>
        <time>2017-02-18T06:18:40Z</time>
      </trkpt>
      <trkpt lat="42.479206000" lon="-2.456927000">
        <ele>397.10</ele>
        <time>2017-02-18T06:18:41Z</time>
      </trkpt>
      <trkpt lat="42.479205000" lon="-2.456909000">
        <ele>397.10</ele>
        <time>2017-02-18T06:18:42Z</time>
      </trkpt>
      <trkpt lat="42.479206000" lon="-2.456893000">
        <ele>397.10</ele>
        <time>2017-02-18T06:18:43Z</time>
      </trkpt>
      <trkpt lat="42.479208000" lon="-2.456885000">
        <ele>397.10</ele>
        <time>2017-02-18T06:18:44Z</time>
      </trkpt>
      <trkpt lat="42.479207000" lon="-2.456868000">
        <ele>397.10</ele>
        <time>2017-02-18T06:18:45Z</time>
      </trkpt>
      <trkpt lat="42.479200000" lon="-2.456841000">
        <ele>397.20</ele>
        <time>2017-02-18T06:18:46Z</time>
      </trkpt>
      <trkpt lat="42.479198000" lon="-2.456807000">
        <ele>397.20</ele>
        <time>2017-02-18T06:18:47Z</time>
      </trkpt>
      <trkpt lat="42.479208000" lon="-2.456767000">
        <ele>397.30</ele>
        <time>2017-02-18T06:18:48Z</time>
      </trkpt>
      <trkpt lat="42.479227000" lon="-2.456727000">
        <ele>397.30</ele>
        <time>2017-02-18T06:18:49Z</time>
      </trkpt>
      <trkpt lat="42.479252000" lon="-2.456690000">
        <ele>397.30</ele>
        <time>2017-02-18T06:18:50Z</time>
      </trkpt>
      <trkpt lat="42.479282000" lon="-2.456654000">
        <ele>397.30</ele>
        <time>2017-02-18T06:18:51Z</time>
      </trkpt>
      <trkpt lat="42.479302000" lon="-2.456616000">
        <ele>397.30</ele>
        <time>2017-02-18T06:18:52Z</time>
      </trkpt>
      <trkpt lat="42.479310000" lon="-2.456588000">
        <ele>397.30</ele>
        <time>2017-02-18T06:18:53Z</time>
      </trkpt>
      <trkpt lat="42.479310000" lon="-2.456557000">
        <ele>397.50</ele>
        <time>2017-02-18T06:18:54Z</time>
      </trkpt>
      <trkpt lat="42.479302000" lon="-2.456521000">
        <ele>397.60</ele>
        <time>2017-02-18T06:18:55Z</time>
      </trkpt>
      <trkpt lat="42.479290000" lon="-2.456492000">
        <ele>397.70</ele>
        <time>2017-02-18T06:18:56Z</time>
      </trkpt>
      <trkpt lat="42.479274000" lon="-2.456463000">
        <ele>397.80</ele>
        <time>2017-02-18T06:18:57Z</time>
      </trkpt>
      <trkpt lat="42.479257000" lon="-2.456436000">
        <ele>397.90</ele>
        <time>2017-02-18T06:18:58Z</time>
      </trkpt>
      <trkpt lat="42.479238000" lon="-2.456410000">
        <ele>397.90</ele>
        <time>2017-02-18T06:18:59Z</time>
      </trkpt>
      <trkpt lat="42.479220000" lon="-2.456380000">
        <ele>397.80</ele>
        <time>2017-02-18T06:19:00Z</time>
      </trkpt>
      <trkpt lat="42.479205000" lon="-2.456347000">
        <ele>397.70</ele>
        <time>2017-02-18T06:19:01Z</time>
      </trkpt>
      <trkpt lat="42.479185000" lon="-2.456313000">
        <ele>397.80</ele>
        <time>2017-02-18T06:19:02Z</time>
      </trkpt>
      <trkpt lat="42.479165000" lon="-2.456278000">
        <ele>397.90</ele>
        <time>2017-02-18T06:19:03Z</time>
      </trkpt>
      <trkpt lat="42.479144000" lon="-2.456246000">
        <ele>397.70</ele>
        <time>2017-02-18T06:19:04Z</time>
      </trkpt>
      <trkpt lat="42.479123000" lon="-2.456214000">
        <ele>397.50</ele>
        <time>2017-02-18T06:19:05Z</time>
      </trkpt>
      <trkpt lat="42.479102000" lon="-2.456180000">
        <ele>397.50</ele>
        <time>2017-02-18T06:19:06Z</time>
      </trkpt>
      <trkpt lat="42.479082000" lon="-2.456146000">
        <ele>397.50</ele>
        <time>2017-02-18T06:19:07Z</time>
      </trkpt>
      <trkpt lat="42.479062000" lon="-2.456111000">
        <ele>397.40</ele>
        <time>2017-02-18T06:19:08Z</time>
      </trkpt>
      <trkpt lat="42.479042000" lon="-2.456076000">
        <ele>397.40</ele>
        <time>2017-02-18T06:19:09Z</time>
      </trkpt>
      <trkpt lat="42.479021000" lon="-2.456043000">
        <ele>397.50</ele>
        <time>2017-02-18T06:19:10Z</time>
      </trkpt>
      <trkpt lat="42.478978000" lon="-2.455979000">
        <ele>397.60</ele>
        <time>2017-02-18T06:19:12Z</time>
      </trkpt>
      <trkpt lat="42.478962000" lon="-2.455944000">
        <ele>397.70</ele>
        <time>2017-02-18T06:19:13Z</time>
      </trkpt>
      <trkpt lat="42.478945000" lon="-2.455911000">
        <ele>397.70</ele>
        <time>2017-02-18T06:19:14Z</time>
      </trkpt>
      <trkpt lat="42.478924000" lon="-2.455878000">
        <ele>397.80</ele>
        <time>2017-02-18T06:19:15Z</time>
      </trkpt>
      <trkpt lat="42.478895000" lon="-2.455845000">
        <ele>397.80</ele>
        <time>2017-02-18T06:19:16Z</time>
      </trkpt>
      <trkpt lat="42.478863000" lon="-2.455808000">
        <ele>397.80</ele>
        <time>2017-02-18T06:19:17Z</time>
      </trkpt>
      <trkpt lat="42.478836000" lon="-2.455776000">
        <ele>397.70</ele>
        <time>2017-02-18T06:19:18Z</time>
      </trkpt>
      <trkpt lat="42.478811000" lon="-2.455744000">
        <ele>397.70</ele>
        <time>2017-02-18T06:19:19Z</time>
      </trkpt>
      <trkpt lat="42.478788000" lon="-2.455711000">
        <ele>397.60</ele>
        <time>2017-02-18T06:19:20Z</time>
      </trkpt>
      <trkpt lat="42.478766000" lon="-2.455675000">
        <ele>397.50</ele>
        <time>2017-02-18T06:19:21Z</time>
      </trkpt>
      <trkpt lat="42.478743000" lon="-2.455642000">
        <ele>397.50</ele>
        <time>2017-02-18T06:19:22Z</time>
      </trkpt>
      <trkpt lat="42.478721000" lon="-2.455608000">
        <ele>397.40</ele>
        <time>2017-02-18T06:19:23Z</time>
      </trkpt>
      <trkpt lat="42.478696000" lon="-2.455571000">
        <ele>397.40</ele>
        <time>2017-02-18T06:19:24Z</time>
      </trkpt>
      <trkpt lat="42.478677000" lon="-2.455534000">
        <ele>397.40</ele>
        <time>2017-02-18T06:19:25Z</time>
      </trkpt>
      <trkpt lat="42.478654000" lon="-2.455503000">
        <ele>397.40</ele>
        <time>2017-02-18T06:19:26Z</time>
      </trkpt>
      <trkpt lat="42.478632000" lon="-2.455469000">
        <ele>397.40</ele>
        <time>2017-02-18T06:19:27Z</time>
      </trkpt>
      <trkpt lat="42.478614000" lon="-2.455433000">
        <ele>397.50</ele>
        <time>2017-02-18T06:19:28Z</time>
      </trkpt>
      <trkpt lat="42.478594000" lon="-2.455390000">
        <ele>397.50</ele>
        <time>2017-02-18T06:19:29Z</time>
      </trkpt>
      <trkpt lat="42.478568000" lon="-2.455359000">
        <ele>397.40</ele>
        <time>2017-02-18T06:19:30Z</time>
      </trkpt>
      <trkpt lat="42.478542000" lon="-2.455326000">
        <ele>397.40</ele>
        <time>2017-02-18T06:19:31Z</time>
      </trkpt>
      <trkpt lat="42.478513000" lon="-2.455293000">
        <ele>397.40</ele>
        <time>2017-02-18T06:19:32Z</time>
      </trkpt>
      <trkpt lat="42.478485000" lon="-2.455260000">
        <ele>397.30</ele>
        <time>2017-02-18T06:19:33Z</time>
      </trkpt>
      <trkpt lat="42.478461000" lon="-2.455226000">
        <ele>397.30</ele>
        <time>2017-02-18T06:19:34Z</time>
      </trkpt>
      <trkpt lat="42.478442000" lon="-2.455186000">
        <ele>397.20</ele>
        <time>2017-02-18T06:19:35Z</time>
      </trkpt>
      <trkpt lat="42.478417000" lon="-2.455151000">
        <ele>397.20</ele>
        <time>2017-02-18T06:19:36Z</time>
      </trkpt>
      <trkpt lat="42.478394000" lon="-2.455117000">
        <ele>397.20</ele>
        <time>2017-02-18T06:19:37Z</time>
      </trkpt>
      <trkpt lat="42.478373000" lon="-2.455087000">
        <ele>397.20</ele>
        <time>2017-02-18T06:19:38Z</time>
      </trkpt>
      <trkpt lat="42.478353000" lon="-2.455057000">
        <ele>397.30</ele>
        <time>2017-02-18T06:19:39Z</time>
      </trkpt>
      <trkpt lat="42.478336000" lon="-2.455025000">
        <ele>397.30</ele>
        <time>2017-02-18T06:19:40Z</time>
      </trkpt>
      <trkpt lat="42.478319000" lon="-2.454991000">
        <ele>397.40</ele>
        <time>2017-02-18T06:19:41Z</time>
      </trkpt>
      <trkpt lat="42.478301000" lon="-2.454956000">
        <ele>397.40</ele>
        <time>2017-02-18T06:19:42Z</time>
      </trkpt>
      <trkpt lat="42.478282000" lon="-2.454923000">
        <ele>397.40</ele>
        <time>2017-02-18T06:19:43Z</time>
      </trkpt>
      <trkpt lat="42.478260000" lon="-2.454893000">
        <ele>397.30</ele>
        <time>2017-02-18T06:19:44Z</time>
      </trkpt>
      <trkpt lat="42.478239000" lon="-2.454859000">
        <ele>397.30</ele>
        <time>2017-02-18T06:19:45Z</time>
      </trkpt>
      <trkpt lat="42.478225000" lon="-2.454826000">
        <ele>397.10</ele>
        <time>2017-02-18T06:19:46Z</time>
      </trkpt>
      <trkpt lat="42.478207000" lon="-2.454795000">
        <ele>397.00</ele>
        <time>2017-02-18T06:19:47Z</time>
      </trkpt>
      <trkpt lat="42.478191000" lon="-2.454762000">
        <ele>397.00</ele>
        <time>2017-02-18T06:19:48Z</time>
      </trkpt>
      <trkpt lat="42.478174000" lon="-2.454727000">
        <ele>397.00</ele>
        <time>2017-02-18T06:19:49Z</time>
      </trkpt>
      <trkpt lat="42.478156000" lon="-2.454693000">
        <ele>397.00</ele>
        <time>2017-02-18T06:19:50Z</time>
      </trkpt>
      <trkpt lat="42.478140000" lon="-2.454658000">
        <ele>396.90</ele>
        <time>2017-02-18T06:19:51Z</time>
      </trkpt>
      <trkpt lat="42.478121000" lon="-2.454625000">
        <ele>397.00</ele>
        <time>2017-02-18T06:19:52Z</time>
      </trkpt>
      <trkpt lat="42.478103000" lon="-2.454592000">
        <ele>397.10</ele>
        <time>2017-02-18T06:19:53Z</time>
      </trkpt>
      <trkpt lat="42.478083000" lon="-2.454557000">
        <ele>397.10</ele>
        <time>2017-02-18T06:19:54Z</time>
      </trkpt>
      <trkpt lat="42.478063000" lon="-2.454522000">
        <ele>397.20</ele>
        <time>2017-02-18T06:19:55Z</time>
      </trkpt>
      <trkpt lat="42.478043000" lon="-2.454491000">
        <ele>397.20</ele>
        <time>2017-02-18T06:19:56Z</time>
      </trkpt>
      <trkpt lat="42.478025000" lon="-2.454458000">
        <ele>397.20</ele>
        <time>2017-02-18T06:19:57Z</time>
      </trkpt>
      <trkpt lat="42.478007000" lon="-2.454424000">
        <ele>397.20</ele>
        <time>2017-02-18T06:19:58Z</time>
      </trkpt>
      <trkpt lat="42.477987000" lon="-2.454389000">
        <ele>397.10</ele>
        <time>2017-02-18T06:19:59Z</time>
      </trkpt>
      <trkpt lat="42.477967000" lon="-2.454353000">
        <ele>397.10</ele>
        <time>2017-02-18T06:20:00Z</time>
      </trkpt>
      <trkpt lat="42.477947000" lon="-2.454321000">
        <ele>397.10</ele>
        <time>2017-02-18T06:20:01Z</time>
      </trkpt>
      <trkpt lat="42.477929000" lon="-2.454291000">
        <ele>397.00</ele>
        <time>2017-02-18T06:20:02Z</time>
      </trkpt>
      <trkpt lat="42.477913000" lon="-2.454255000">
        <ele>396.90</ele>
        <time>2017-02-18T06:20:03Z</time>
      </trkpt>
      <trkpt lat="42.477897000" lon="-2.454219000">
        <ele>397.00</ele>
        <time>2017-02-18T06:20:04Z</time>
      </trkpt>
      <trkpt lat="42.477879000" lon="-2.454182000">
        <ele>397.10</ele>
        <time>2017-02-18T06:20:05Z</time>
      </trkpt>
      <trkpt lat="42.477861000" lon="-2.454147000">
        <ele>397.10</ele>
        <time>2017-02-18T06:20:06Z</time>
      </trkpt>
      <trkpt lat="42.477841000" lon="-2.454113000">
        <ele>397.20</ele>
        <time>2017-02-18T06:20:07Z</time>
      </trkpt>
      <trkpt lat="42.477824000" lon="-2.454070000">
        <ele>397.20</ele>
        <time>2017-02-18T06:20:08Z</time>
      </trkpt>
      <trkpt lat="42.477805000" lon="-2.454032000">
        <ele>397.20</ele>
        <time>2017-02-18T06:20:09Z</time>
      </trkpt>
      <trkpt lat="42.477786000" lon="-2.453992000">
        <ele>397.10</ele>
        <time>2017-02-18T06:20:10Z</time>
      </trkpt>
      <trkpt lat="42.477765000" lon="-2.453955000">
        <ele>397.00</ele>
        <time>2017-02-18T06:20:11Z</time>
      </trkpt>
      <trkpt lat="42.477713000" lon="-2.453887000">
        <ele>396.90</ele>
        <time>2017-02-18T06:20:13Z</time>
      </trkpt>
      <trkpt lat="42.477691000" lon="-2.453855000">
        <ele>396.70</ele>
        <time>2017-02-18T06:20:14Z</time>
      </trkpt>
      <trkpt lat="42.477669000" lon="-2.453820000">
        <ele>396.50</ele>
        <time>2017-02-18T06:20:15Z</time>
      </trkpt>
      <trkpt lat="42.477648000" lon="-2.453785000">
        <ele>396.60</ele>
        <time>2017-02-18T06:20:16Z</time>
      </trkpt>
      <trkpt lat="42.477626000" lon="-2.453751000">
        <ele>396.60</ele>
        <time>2017-02-18T06:20:17Z</time>
      </trkpt>
      <trkpt lat="42.477604000" lon="-2.453715000">
        <ele>396.50</ele>
        <time>2017-02-18T06:20:18Z</time>
      </trkpt>
      <trkpt lat="42.477583000" lon="-2.453680000">
        <ele>396.50</ele>
        <time>2017-02-18T06:20:19Z</time>
      </trkpt>
      <trkpt lat="42.477563000" lon="-2.453644000">
        <ele>396.40</ele>
        <time>2017-02-18T06:20:20Z</time>
      </trkpt>
      <trkpt lat="42.477545000" lon="-2.453608000">
        <ele>396.40</ele>
        <time>2017-02-18T06:20:21Z</time>
      </trkpt>
      <trkpt lat="42.477527000" lon="-2.453570000">
        <ele>396.30</ele>
        <time>2017-02-18T06:20:22Z</time>
      </trkpt>
      <trkpt lat="42.477508000" lon="-2.453537000">
        <ele>396.30</ele>
        <time>2017-02-18T06:20:23Z</time>
      </trkpt>
      <trkpt lat="42.477489000" lon="-2.453501000">
        <ele>396.30</ele>
        <time>2017-02-18T06:20:24Z</time>
      </trkpt>
      <trkpt lat="42.477470000" lon="-2.453464000">
        <ele>396.30</ele>
        <time>2017-02-18T06:20:25Z</time>
      </trkpt>
      <trkpt lat="42.477455000" lon="-2.453432000">
        <ele>396.30</ele>
        <time>2017-02-18T06:20:26Z</time>
      </trkpt>
      <trkpt lat="42.477444000" lon="-2.453402000">
        <ele>396.30</ele>
        <time>2017-02-18T06:20:27Z</time>
      </trkpt>
      <trkpt lat="42.477432000" lon="-2.453369000">
        <ele>396.30</ele>
        <time>2017-02-18T06:20:28Z</time>
      </trkpt>
      <trkpt lat="42.477421000" lon="-2.453339000">
        <ele>396.30</ele>
        <time>2017-02-18T06:20:29Z</time>
      </trkpt>
      <trkpt lat="42.477404000" lon="-2.453314000">
        <ele>396.30</ele>
        <time>2017-02-18T06:20:30Z</time>
      </trkpt>
      <trkpt lat="42.477387000" lon="-2.453289000">
        <ele>396.30</ele>
        <time>2017-02-18T06:20:31Z</time>
      </trkpt>
      <trkpt lat="42.477367000" lon="-2.453261000">
        <ele>396.20</ele>
        <time>2017-02-18T06:20:32Z</time>
      </trkpt>
      <trkpt lat="42.477346000" lon="-2.453234000">
        <ele>396.10</ele>
        <time>2017-02-18T06:20:33Z</time>
      </trkpt>
      <trkpt lat="42.477329000" lon="-2.453210000">
        <ele>396.00</ele>
        <time>2017-02-18T06:20:34Z</time>
      </trkpt>
      <trkpt lat="42.477311000" lon="-2.453184000">
        <ele>396.00</ele>
        <time>2017-02-18T06:20:35Z</time>
      </trkpt>
      <trkpt lat="42.477297000" lon="-2.453152000">
        <ele>395.90</ele>
        <time>2017-02-18T06:20:36Z</time>
      </trkpt>
      <trkpt lat="42.477279000" lon="-2.453120000">
        <ele>395.90</ele>
        <time>2017-02-18T06:20:37Z</time>
      </trkpt>
      <trkpt lat="42.477265000" lon="-2.453085000">
        <ele>396.00</ele>
        <time>2017-02-18T06:20:38Z</time>
      </trkpt>
      <trkpt lat="42.477250000" lon="-2.453050000">
        <ele>396.00</ele>
        <time>2017-02-18T06:20:39Z</time>
      </trkpt>
      <trkpt lat="42.477233000" lon="-2.453012000">
        <ele>396.10</ele>
        <time>2017-02-18T06:20:40Z</time>
      </trkpt>
      <trkpt lat="42.477215000" lon="-2.452974000">
        <ele>396.10</ele>
        <time>2017-02-18T06:20:41Z</time>
      </trkpt>
      <trkpt lat="42.477198000" lon="-2.452935000">
        <ele>396.00</ele>
        <time>2017-02-18T06:20:42Z</time>
      </trkpt>
      <trkpt lat="42.477180000" lon="-2.452898000">
        <ele>395.80</ele>
        <time>2017-02-18T06:20:43Z</time>
      </trkpt>
      <trkpt lat="42.477162000" lon="-2.452860000">
        <ele>395.80</ele>
        <time>2017-02-18T06:20:44Z</time>
      </trkpt>
      <trkpt lat="42.477142000" lon="-2.452825000">
        <ele>395.70</ele>
        <time>2017-02-18T06:20:45Z</time>
      </trkpt>
      <trkpt lat="42.477123000" lon="-2.452796000">
        <ele>395.90</ele>
        <time>2017-02-18T06:20:46Z</time>
      </trkpt>
      <trkpt lat="42.477105000" lon="-2.452761000">
        <ele>396.00</ele>
        <time>2017-02-18T06:20:47Z</time>
      </trkpt>
      <trkpt lat="42.477089000" lon="-2.452726000">
        <ele>396.30</ele>
        <time>2017-02-18T06:20:48Z</time>
      </trkpt>
      <trkpt lat="42.477071000" lon="-2.452693000">
        <ele>396.50</ele>
        <time>2017-02-18T06:20:49Z</time>
      </trkpt>
      <trkpt lat="42.477052000" lon="-2.452658000">
        <ele>396.50</ele>
        <time>2017-02-18T06:20:50Z</time>
      </trkpt>
      <trkpt lat="42.477032000" lon="-2.452621000">
        <ele>396.50</ele>
        <time>2017-02-18T06:20:51Z</time>
      </trkpt>
      <trkpt lat="42.477015000" lon="-2.452586000">
        <ele>396.60</ele>
        <time>2017-02-18T06:20:52Z</time>
      </trkpt>
      <trkpt lat="42.476996000" lon="-2.452552000">
        <ele>396.70</ele>
        <time>2017-02-18T06:20:53Z</time>
      </trkpt>
      <trkpt lat="42.476977000" lon="-2.452516000">
        <ele>396.60</ele>
        <time>2017-02-18T06:20:54Z</time>
      </trkpt>
      <trkpt lat="42.476957000" lon="-2.452480000">
        <ele>396.50</ele>
        <time>2017-02-18T06:20:55Z</time>
      </trkpt>
      <trkpt lat="42.476934000" lon="-2.452444000">
        <ele>396.40</ele>
        <time>2017-02-18T06:20:56Z</time>
      </trkpt>
      <trkpt lat="42.476913000" lon="-2.452411000">
        <ele>396.30</ele>
        <time>2017-02-18T06:20:57Z</time>
      </trkpt>
      <trkpt lat="42.476895000" lon="-2.452375000">
        <ele>396.20</ele>
        <time>2017-02-18T06:20:58Z</time>
      </trkpt>
      <trkpt lat="42.476877000" lon="-2.452333000">
        <ele>396.20</ele>
        <time>2017-02-18T06:20:59Z</time>
      </trkpt>
      <trkpt lat="42.476858000" lon="-2.452295000">
        <ele>396.10</ele>
        <time>2017-02-18T06:21:00Z</time>
      </trkpt>
      <trkpt lat="42.476836000" lon="-2.452258000">
        <ele>396.00</ele>
        <time>2017-02-18T06:21:01Z</time>
      </trkpt>
      <trkpt lat="42.476816000" lon="-2.452220000">
        <ele>396.00</ele>
        <time>2017-02-18T06:21:02Z</time>
      </trkpt>
      <trkpt lat="42.476795000" lon="-2.452182000">
        <ele>396.00</ele>
        <time>2017-02-18T06:21:03Z</time>
      </trkpt>
      <trkpt lat="42.476773000" lon="-2.452142000">
        <ele>396.00</ele>
        <time>2017-02-18T06:21:04Z</time>
      </trkpt>
      <trkpt lat="42.476751000" lon="-2.452099000">
        <ele>396.10</ele>
        <time>2017-02-18T06:21:05Z</time>
      </trkpt>
      <trkpt lat="42.476734000" lon="-2.452056000">
        <ele>396.10</ele>
        <time>2017-02-18T06:21:06Z</time>
      </trkpt>
      <trkpt lat="42.476715000" lon="-2.452015000">
        <ele>396.20</ele>
        <time>2017-02-18T06:21:07Z</time>
      </trkpt>
      <trkpt lat="42.476698000" lon="-2.451970000">
        <ele>396.10</ele>
        <time>2017-02-18T06:21:08Z</time>
      </trkpt>
      <trkpt lat="42.476682000" lon="-2.451927000">
        <ele>396.00</ele>
        <time>2017-02-18T06:21:09Z</time>
      </trkpt>
      <trkpt lat="42.476668000" lon="-2.451882000">
        <ele>395.90</ele>
        <time>2017-02-18T06:21:10Z</time>
      </trkpt>
      <trkpt lat="42.476652000" lon="-2.451838000">
        <ele>395.90</ele>
        <time>2017-02-18T06:21:11Z</time>
      </trkpt>
      <trkpt lat="42.476640000" lon="-2.451787000">
        <ele>395.70</ele>
        <time>2017-02-18T06:21:12Z</time>
      </trkpt>
      <trkpt lat="42.476613000" lon="-2.451687000">
        <ele>395.50</ele>
        <time>2017-02-18T06:21:14Z</time>
      </trkpt>
      <trkpt lat="42.476604000" lon="-2.451641000">
        <ele>395.50</ele>
        <time>2017-02-18T06:21:15Z</time>
      </trkpt>
      <trkpt lat="42.476593000" lon="-2.451597000">
        <ele>395.50</ele>
        <time>2017-02-18T06:21:16Z</time>
      </trkpt>
      <trkpt lat="42.476583000" lon="-2.451556000">
        <ele>395.50</ele>
        <time>2017-02-18T06:21:17Z</time>
      </trkpt>
      <trkpt lat="42.476573000" lon="-2.451515000">
        <ele>395.50</ele>
        <time>2017-02-18T06:21:18Z</time>
      </trkpt>
      <trkpt lat="42.476567000" lon="-2.451468000">
        <ele>395.50</ele>
        <time>2017-02-18T06:21:19Z</time>
      </trkpt>
      <trkpt lat="42.476556000" lon="-2.451420000">
        <ele>395.50</ele>
        <time>2017-02-18T06:21:20Z</time>
      </trkpt>
      <trkpt lat="42.476548000" lon="-2.451369000">
        <ele>395.40</ele>
        <time>2017-02-18T06:21:21Z</time>
      </trkpt>
      <trkpt lat="42.476540000" lon="-2.451326000">
        <ele>395.40</ele>
        <time>2017-02-18T06:21:22Z</time>
      </trkpt>
      <trkpt lat="42.476533000" lon="-2.451282000">
        <ele>395.40</ele>
        <time>2017-02-18T06:21:23Z</time>
      </trkpt>
      <trkpt lat="42.476526000" lon="-2.451233000">
        <ele>395.40</ele>
        <time>2017-02-18T06:21:24Z</time>
      </trkpt>
      <trkpt lat="42.476521000" lon="-2.451186000">
        <ele>395.50</ele>
        <time>2017-02-18T06:21:25Z</time>
      </trkpt>
      <trkpt lat="42.476514000" lon="-2.451136000">
        <ele>395.60</ele>
        <time>2017-02-18T06:21:26Z</time>
      </trkpt>
      <trkpt lat="42.476508000" lon="-2.451084000">
        <ele>395.60</ele>
        <time>2017-02-18T06:21:27Z</time>
      </trkpt>
      <trkpt lat="42.476502000" lon="-2.451036000">
        <ele>395.60</ele>
        <time>2017-02-18T06:21:28Z</time>
      </trkpt>
      <trkpt lat="42.476498000" lon="-2.450990000">
        <ele>395.60</ele>
        <time>2017-02-18T06:21:29Z</time>
      </trkpt>
      <trkpt lat="42.476489000" lon="-2.450940000">
        <ele>395.60</ele>
        <time>2017-02-18T06:21:30Z</time>
      </trkpt>
      <trkpt lat="42.476485000" lon="-2.450893000">
        <ele>395.60</ele>
        <time>2017-02-18T06:21:31Z</time>
      </trkpt>
      <trkpt lat="42.476478000" lon="-2.450845000">
        <ele>395.60</ele>
        <time>2017-02-18T06:21:32Z</time>
      </trkpt>
      <trkpt lat="42.476469000" lon="-2.450794000">
        <ele>395.60</ele>
        <time>2017-02-18T06:21:33Z</time>
      </trkpt>
      <trkpt lat="42.476464000" lon="-2.450749000">
        <ele>395.40</ele>
        <time>2017-02-18T06:21:34Z</time>
      </trkpt>
      <trkpt lat="42.476459000" lon="-2.450699000">
        <ele>395.30</ele>
        <time>2017-02-18T06:21:35Z</time>
      </trkpt>
      <trkpt lat="42.476457000" lon="-2.450648000">
        <ele>395.20</ele>
        <time>2017-02-18T06:21:36Z</time>
      </trkpt>
      <trkpt lat="42.476453000" lon="-2.450601000">
        <ele>395.10</ele>
        <time>2017-02-18T06:21:37Z</time>
      </trkpt>
      <trkpt lat="42.476450000" lon="-2.450550000">
        <ele>395.00</ele>
        <time>2017-02-18T06:21:38Z</time>
      </trkpt>
      <trkpt lat="42.476443000" lon="-2.450499000">
        <ele>395.00</ele>
        <time>2017-02-18T06:21:39Z</time>
      </trkpt>
      <trkpt lat="42.476437000" lon="-2.450448000">
        <ele>395.00</ele>
        <time>2017-02-18T06:21:40Z</time>
      </trkpt>
      <trkpt lat="42.476433000" lon="-2.450402000">
        <ele>394.90</ele>
        <time>2017-02-18T06:21:41Z</time>
      </trkpt>
      <trkpt lat="42.476428000" lon="-2.450358000">
        <ele>394.80</ele>
        <time>2017-02-18T06:21:42Z</time>
      </trkpt>
      <trkpt lat="42.476421000" lon="-2.450305000">
        <ele>394.70</ele>
        <time>2017-02-18T06:21:43Z</time>
      </trkpt>
      <trkpt lat="42.476419000" lon="-2.450253000">
        <ele>394.50</ele>
        <time>2017-02-18T06:21:44Z</time>
      </trkpt>
      <trkpt lat="42.476415000" lon="-2.450204000">
        <ele>394.40</ele>
        <time>2017-02-18T06:21:45Z</time>
      </trkpt>
      <trkpt lat="42.476416000" lon="-2.450154000">
        <ele>394.40</ele>
        <time>2017-02-18T06:21:46Z</time>
      </trkpt>
      <trkpt lat="42.476415000" lon="-2.450106000">
        <ele>394.40</ele>
        <time>2017-02-18T06:21:47Z</time>
      </trkpt>
      <trkpt lat="42.476413000" lon="-2.450058000">
        <ele>394.30</ele>
        <time>2017-02-18T06:21:48Z</time>
      </trkpt>
      <trkpt lat="42.476407000" lon="-2.450007000">
        <ele>394.20</ele>
        <time>2017-02-18T06:21:49Z</time>
      </trkpt>
      <trkpt lat="42.476402000" lon="-2.449954000">
        <ele>394.20</ele>
        <time>2017-02-18T06:21:50Z</time>
      </trkpt>
      <trkpt lat="42.476400000" lon="-2.449904000">
        <ele>394.30</ele>
        <time>2017-02-18T06:21:51Z</time>
      </trkpt>
      <trkpt lat="42.476399000" lon="-2.449853000">
        <ele>394.20</ele>
        <time>2017-02-18T06:21:52Z</time>
      </trkpt>
      <trkpt lat="42.476399000" lon="-2.449804000">
        <ele>394.10</ele>
        <time>2017-02-18T06:21:53Z</time>
      </trkpt>
      <trkpt lat="42.476396000" lon="-2.449757000">
        <ele>394.20</ele>
        <time>2017-02-18T06:21:54Z</time>
      </trkpt>
      <trkpt lat="42.476393000" lon="-2.449708000">
        <ele>394.20</ele>
        <time>2017-02-18T06:21:55Z</time>
      </trkpt>
      <trkpt lat="42.476392000" lon="-2.449655000">
        <ele>394.30</ele>
        <time>2017-02-18T06:21:56Z</time>
      </trkpt>
      <trkpt lat="42.476393000" lon="-2.449602000">
        <ele>394.40</ele>
        <time>2017-02-18T06:21:57Z</time>
      </trkpt>
      <trkpt lat="42.476397000" lon="-2.449554000">
        <ele>394.50</ele>
        <time>2017-02-18T06:21:58Z</time>
      </trkpt>
      <trkpt lat="42.476405000" lon="-2.449510000">
        <ele>394.50</ele>
        <time>2017-02-18T06:21:59Z</time>
      </trkpt>
      <trkpt lat="42.476409000" lon="-2.449461000">
        <ele>394.50</ele>
        <time>2017-02-18T06:22:00Z</time>
      </trkpt>
      <trkpt lat="42.476416000" lon="-2.449411000">
        <ele>394.60</ele>
        <time>2017-02-18T06:22:01Z</time>
      </trkpt>
      <trkpt lat="42.476423000" lon="-2.449363000">
        <ele>394.60</ele>
        <time>2017-02-18T06:22:02Z</time>
      </trkpt>
      <trkpt lat="42.476432000" lon="-2.449316000">
        <ele>394.70</ele>
        <time>2017-02-18T06:22:03Z</time>
      </trkpt>
      <trkpt lat="42.476443000" lon="-2.449272000">
        <ele>394.70</ele>
        <time>2017-02-18T06:22:04Z</time>
      </trkpt>
      <trkpt lat="42.476455000" lon="-2.449228000">
        <ele>394.70</ele>
        <time>2017-02-18T06:22:05Z</time>
      </trkpt>
      <trkpt lat="42.476466000" lon="-2.449189000">
        <ele>394.70</ele>
        <time>2017-02-18T06:22:06Z</time>
      </trkpt>
      <trkpt lat="42.476482000" lon="-2.449145000">
        <ele>394.60</ele>
        <time>2017-02-18T06:22:07Z</time>
      </trkpt>
      <trkpt lat="42.476492000" lon="-2.449100000">
        <ele>394.60</ele>
        <time>2017-02-18T06:22:08Z</time>
      </trkpt>
      <trkpt lat="42.476499000" lon="-2.449054000">
        <ele>394.60</ele>
        <time>2017-02-18T06:22:09Z</time>
      </trkpt>
      <trkpt lat="42.476502000" lon="-2.449007000">
        <ele>394.60</ele>
        <time>2017-02-18T06:22:10Z</time>
      </trkpt>
      <trkpt lat="42.476506000" lon="-2.448959000">
        <ele>394.60</ele>
        <time>2017-02-18T06:22:11Z</time>
      </trkpt>
      <trkpt lat="42.476502000" lon="-2.448914000">
        <ele>394.60</ele>
        <time>2017-02-18T06:22:12Z</time>
      </trkpt>
      <trkpt lat="42.476491000" lon="-2.448865000">
        <ele>394.60</ele>
        <time>2017-02-18T06:22:13Z</time>
      </trkpt>
      <trkpt lat="42.476467000" lon="-2.448772000">
        <ele>394.60</ele>
        <time>2017-02-18T06:22:15Z</time>
      </trkpt>
      <trkpt lat="42.476446000" lon="-2.448733000">
        <ele>394.60</ele>
        <time>2017-02-18T06:22:16Z</time>
      </trkpt>
      <trkpt lat="42.476426000" lon="-2.448695000">
        <ele>394.60</ele>
        <time>2017-02-18T06:22:17Z</time>
      </trkpt>
      <trkpt lat="42.476405000" lon="-2.448655000">
        <ele>394.60</ele>
        <time>2017-02-18T06:22:18Z</time>
      </trkpt>
      <trkpt lat="42.476385000" lon="-2.448610000">
        <ele>394.50</ele>
        <time>2017-02-18T06:22:19Z</time>
      </trkpt>
      <trkpt lat="42.476365000" lon="-2.448566000">
        <ele>394.40</ele>
        <time>2017-02-18T06:22:20Z</time>
      </trkpt>
      <trkpt lat="42.476346000" lon="-2.448522000">
        <ele>394.30</ele>
        <time>2017-02-18T06:22:21Z</time>
      </trkpt>
      <trkpt lat="42.476325000" lon="-2.448476000">
        <ele>394.30</ele>
        <time>2017-02-18T06:22:22Z</time>
      </trkpt>
      <trkpt lat="42.476309000" lon="-2.448430000">
        <ele>394.20</ele>
        <time>2017-02-18T06:22:23Z</time>
      </trkpt>
      <trkpt lat="42.476294000" lon="-2.448385000">
        <ele>394.30</ele>
        <time>2017-02-18T06:22:24Z</time>
      </trkpt>
      <trkpt lat="42.476281000" lon="-2.448338000">
        <ele>394.30</ele>
        <time>2017-02-18T06:22:25Z</time>
      </trkpt>
      <trkpt lat="42.476271000" lon="-2.448290000">
        <ele>394.40</ele>
        <time>2017-02-18T06:22:26Z</time>
      </trkpt>
      <trkpt lat="42.476261000" lon="-2.448240000">
        <ele>394.40</ele>
        <time>2017-02-18T06:22:27Z</time>
      </trkpt>
      <trkpt lat="42.476250000" lon="-2.448188000">
        <ele>394.50</ele>
        <time>2017-02-18T06:22:28Z</time>
      </trkpt>
      <trkpt lat="42.476243000" lon="-2.448140000">
        <ele>394.50</ele>
        <time>2017-02-18T06:22:29Z</time>
      </trkpt>
      <trkpt lat="42.476236000" lon="-2.448087000">
        <ele>394.50</ele>
        <time>2017-02-18T06:22:30Z</time>
      </trkpt>
      <trkpt lat="42.476231000" lon="-2.448037000">
        <ele>394.60</ele>
        <time>2017-02-18T06:22:31Z</time>
      </trkpt>
      <trkpt lat="42.476226000" lon="-2.447988000">
        <ele>394.50</ele>
        <time>2017-02-18T06:22:32Z</time>
      </trkpt>
      <trkpt lat="42.476223000" lon="-2.447945000">
        <ele>394.50</ele>
        <time>2017-02-18T06:22:33Z</time>
      </trkpt>
      <trkpt lat="42.476222000" lon="-2.447902000">
        <ele>394.50</ele>
        <time>2017-02-18T06:22:34Z</time>
      </trkpt>
      <trkpt lat="42.476222000" lon="-2.447863000">
        <ele>394.40</ele>
        <time>2017-02-18T06:22:35Z</time>
      </trkpt>
      <trkpt lat="42.476218000" lon="-2.447820000">
        <ele>394.40</ele>
        <time>2017-02-18T06:22:36Z</time>
      </trkpt>
      <trkpt lat="42.476213000" lon="-2.447775000">
        <ele>394.30</ele>
        <time>2017-02-18T06:22:37Z</time>
      </trkpt>
      <trkpt lat="42.476214000" lon="-2.447728000">
        <ele>394.20</ele>
        <time>2017-02-18T06:22:38Z</time>
      </trkpt>
      <trkpt lat="42.476212000" lon="-2.447686000">
        <ele>394.20</ele>
        <time>2017-02-18T06:22:39Z</time>
      </trkpt>
      <trkpt lat="42.476207000" lon="-2.447643000">
        <ele>394.20</ele>
        <time>2017-02-18T06:22:40Z</time>
      </trkpt>
      <trkpt lat="42.476201000" lon="-2.447597000">
        <ele>394.20</ele>
        <time>2017-02-18T06:22:41Z</time>
      </trkpt>
      <trkpt lat="42.476199000" lon="-2.447556000">
        <ele>394.30</ele>
        <time>2017-02-18T06:22:42Z</time>
      </trkpt>
      <trkpt lat="42.476197000" lon="-2.447512000">
        <ele>394.50</ele>
        <time>2017-02-18T06:22:43Z</time>
      </trkpt>
      <trkpt lat="42.476195000" lon="-2.447469000">
        <ele>394.40</ele>
        <time>2017-02-18T06:22:44Z</time>
      </trkpt>
      <trkpt lat="42.476194000" lon="-2.447425000">
        <ele>394.30</ele>
        <time>2017-02-18T06:22:45Z</time>
      </trkpt>
      <trkpt lat="42.476194000" lon="-2.447380000">
        <ele>394.40</ele>
        <time>2017-02-18T06:22:46Z</time>
      </trkpt>
      <trkpt lat="42.476196000" lon="-2.447332000">
        <ele>394.50</ele>
        <time>2017-02-18T06:22:47Z</time>
      </trkpt>
      <trkpt lat="42.476200000" lon="-2.447290000">
        <ele>394.50</ele>
        <time>2017-02-18T06:22:48Z</time>
      </trkpt>
      <trkpt lat="42.476202000" lon="-2.447248000">
        <ele>394.50</ele>
        <time>2017-02-18T06:22:49Z</time>
      </trkpt>
      <trkpt lat="42.476204000" lon="-2.447205000">
        <ele>394.60</ele>
        <time>2017-02-18T06:22:50Z</time>
      </trkpt>
      <trkpt lat="42.476210000" lon="-2.447162000">
        <ele>394.70</ele>
        <time>2017-02-18T06:22:51Z</time>
      </trkpt>
      <trkpt lat="42.476208000" lon="-2.447117000">
        <ele>395.00</ele>
        <time>2017-02-18T06:22:52Z</time>
      </trkpt>
      <trkpt lat="42.476208000" lon="-2.447077000">
        <ele>395.20</ele>
        <time>2017-02-18T06:22:53Z</time>
      </trkpt>
      <trkpt lat="42.476209000" lon="-2.447034000">
        <ele>395.30</ele>
        <time>2017-02-18T06:22:54Z</time>
      </trkpt>
      <trkpt lat="42.476209000" lon="-2.446992000">
        <ele>395.30</ele>
        <time>2017-02-18T06:22:55Z</time>
      </trkpt>
      <trkpt lat="42.476212000" lon="-2.446951000">
        <ele>395.50</ele>
        <time>2017-02-18T06:22:56Z</time>
      </trkpt>
      <trkpt lat="42.476213000" lon="-2.446908000">
        <ele>395.60</ele>
        <time>2017-02-18T06:22:57Z</time>
      </trkpt>
      <trkpt lat="42.476216000" lon="-2.446868000">
        <ele>395.60</ele>
        <time>2017-02-18T06:22:58Z</time>
      </trkpt>
      <trkpt lat="42.476218000" lon="-2.446825000">
        <ele>395.70</ele>
        <time>2017-02-18T06:22:59Z</time>
      </trkpt>
      <trkpt lat="42.476222000" lon="-2.446783000">
        <ele>395.70</ele>
        <time>2017-02-18T06:23:00Z</time>
      </trkpt>
      <trkpt lat="42.476224000" lon="-2.446741000">
        <ele>395.70</ele>
        <time>2017-02-18T06:23:01Z</time>
      </trkpt>
      <trkpt lat="42.476228000" lon="-2.446700000">
        <ele>395.80</ele>
        <time>2017-02-18T06:23:02Z</time>
      </trkpt>
      <trkpt lat="42.476230000" lon="-2.446658000">
        <ele>395.90</ele>
        <time>2017-02-18T06:23:03Z</time>
      </trkpt>
      <trkpt lat="42.476234000" lon="-2.446613000">
        <ele>395.90</ele>
        <time>2017-02-18T06:23:04Z</time>
      </trkpt>
      <trkpt lat="42.476239000" lon="-2.446567000">
        <ele>396.00</ele>
        <time>2017-02-18T06:23:05Z</time>
      </trkpt>
      <trkpt lat="42.476240000" lon="-2.446525000">
        <ele>396.20</ele>
        <time>2017-02-18T06:23:06Z</time>
      </trkpt>
      <trkpt lat="42.476242000" lon="-2.446485000">
        <ele>396.30</ele>
        <time>2017-02-18T06:23:07Z</time>
      </trkpt>
      <trkpt lat="42.476246000" lon="-2.446443000">
        <ele>396.40</ele>
        <time>2017-02-18T06:23:08Z</time>
      </trkpt>
      <trkpt lat="42.476252000" lon="-2.446399000">
        <ele>396.50</ele>
        <time>2017-02-18T06:23:09Z</time>
      </trkpt>
      <trkpt lat="42.476261000" lon="-2.446358000">
        <ele>396.40</ele>
        <time>2017-02-18T06:23:10Z</time>
      </trkpt>
      <trkpt lat="42.476267000" lon="-2.446320000">
        <ele>396.30</ele>
        <time>2017-02-18T06:23:11Z</time>
      </trkpt>
      <trkpt lat="42.476273000" lon="-2.446278000">
        <ele>396.20</ele>
        <time>2017-02-18T06:23:12Z</time>
      </trkpt>
      <trkpt lat="42.476279000" lon="-2.446240000">
        <ele>396.10</ele>
        <time>2017-02-18T06:23:13Z</time>
      </trkpt>
      <trkpt lat="42.476285000" lon="-2.446204000">
        <ele>396.10</ele>
        <time>2017-02-18T06:23:14Z</time>
      </trkpt>
      <trkpt lat="42.476291000" lon="-2.446128000">
        <ele>396.20</ele>
        <time>2017-02-18T06:23:16Z</time>
      </trkpt>
      <trkpt lat="42.476297000" lon="-2.446092000">
        <ele>396.20</ele>
        <time>2017-02-18T06:23:17Z</time>
      </trkpt>
      <trkpt lat="42.476305000" lon="-2.446059000">
        <ele>396.20</ele>
        <time>2017-02-18T06:23:18Z</time>
      </trkpt>
      <trkpt lat="42.476306000" lon="-2.446023000">
        <ele>396.30</ele>
        <time>2017-02-18T06:23:19Z</time>
      </trkpt>
      <trkpt lat="42.476311000" lon="-2.445987000">
        <ele>396.30</ele>
        <time>2017-02-18T06:23:20Z</time>
      </trkpt>
      <trkpt lat="42.476317000" lon="-2.445953000">
        <ele>396.40</ele>
        <time>2017-02-18T06:23:21Z</time>
      </trkpt>
      <trkpt lat="42.476323000" lon="-2.445921000">
        <ele>396.50</ele>
        <time>2017-02-18T06:23:22Z</time>
      </trkpt>
      <trkpt lat="42.476323000" lon="-2.445884000">
        <ele>396.70</ele>
        <time>2017-02-18T06:23:23Z</time>
      </trkpt>
      <trkpt lat="42.476327000" lon="-2.445848000">
        <ele>396.70</ele>
        <time>2017-02-18T06:23:24Z</time>
      </trkpt>
      <trkpt lat="42.476333000" lon="-2.445811000">
        <ele>396.80</ele>
        <time>2017-02-18T06:23:25Z</time>
      </trkpt>
      <trkpt lat="42.476336000" lon="-2.445776000">
        <ele>396.90</ele>
        <time>2017-02-18T06:23:26Z</time>
      </trkpt>
      <trkpt lat="42.476340000" lon="-2.445741000">
        <ele>396.90</ele>
        <time>2017-02-18T06:23:27Z</time>
      </trkpt>
      <trkpt lat="42.476343000" lon="-2.445707000">
        <ele>396.90</ele>
        <time>2017-02-18T06:23:28Z</time>
      </trkpt>
      <trkpt lat="42.476344000" lon="-2.445679000">
        <ele>397.00</ele>
        <time>2017-02-18T06:23:29Z</time>
      </trkpt>
      <trkpt lat="42.476344000" lon="-2.445653000">
        <ele>397.20</ele>
        <time>2017-02-18T06:23:30Z</time>
      </trkpt>
      <trkpt lat="42.476349000" lon="-2.445627000">
        <ele>397.30</ele>
        <time>2017-02-18T06:23:31Z</time>
      </trkpt>
      <trkpt lat="42.476350000" lon="-2.445602000">
        <ele>397.40</ele>
        <time>2017-02-18T06:23:32Z</time>
      </trkpt>
      <trkpt lat="42.476353000" lon="-2.445572000">
        <ele>397.50</ele>
        <time>2017-02-18T06:23:33Z</time>
      </trkpt>
      <trkpt lat="42.476359000" lon="-2.445543000">
        <ele>397.50</ele>
        <time>2017-02-18T06:23:34Z</time>
      </trkpt>
      <trkpt lat="42.476372000" lon="-2.445517000">
        <ele>397.50</ele>
        <time>2017-02-18T06:23:35Z</time>
      </trkpt>
      <trkpt lat="42.476397000" lon="-2.445500000">
        <ele>397.40</ele>
        <time>2017-02-18T06:23:36Z</time>
      </trkpt>
      <trkpt lat="42.476424000" lon="-2.445492000">
        <ele>397.40</ele>
        <time>2017-02-18T06:23:37Z</time>
      </trkpt>
      <trkpt lat="42.476451000" lon="-2.445496000">
        <ele>397.50</ele>
        <time>2017-02-18T06:23:38Z</time>
      </trkpt>
      <trkpt lat="42.476482000" lon="-2.445497000">
        <ele>397.60</ele>
        <time>2017-02-18T06:23:39Z</time>
      </trkpt>
      <trkpt lat="42.476512000" lon="-2.445491000">
        <ele>397.70</ele>
        <time>2017-02-18T06:23:40Z</time>
      </trkpt>
      <trkpt lat="42.476544000" lon="-2.445489000">
        <ele>397.70</ele>
        <time>2017-02-18T06:23:41Z</time>
      </trkpt>
      <trkpt lat="42.476576000" lon="-2.445485000">
        <ele>397.80</ele>
        <time>2017-02-18T06:23:42Z</time>
      </trkpt>
      <trkpt lat="42.476607000" lon="-2.445485000">
        <ele>397.80</ele>
        <time>2017-02-18T06:23:43Z</time>
      </trkpt>
      <trkpt lat="42.476641000" lon="-2.445483000">
        <ele>397.80</ele>
        <time>2017-02-18T06:23:44Z</time>
      </trkpt>
      <trkpt lat="42.476676000" lon="-2.445483000">
        <ele>397.80</ele>
        <time>2017-02-18T06:23:45Z</time>
      </trkpt>
      <trkpt lat="42.476709000" lon="-2.445483000">
        <ele>397.80</ele>
        <time>2017-02-18T06:23:46Z</time>
      </trkpt>
      <trkpt lat="42.476740000" lon="-2.445480000">
        <ele>397.80</ele>
        <time>2017-02-18T06:23:47Z</time>
      </trkpt>
      <trkpt lat="42.476769000" lon="-2.445475000">
        <ele>397.90</ele>
        <time>2017-02-18T06:23:48Z</time>
      </trkpt>
      <trkpt lat="42.476800000" lon="-2.445470000">
        <ele>397.90</ele>
        <time>2017-02-18T06:23:49Z</time>
      </trkpt>
      <trkpt lat="42.476832000" lon="-2.445465000">
        <ele>397.90</ele>
        <time>2017-02-18T06:23:50Z</time>
      </trkpt>
      <trkpt lat="42.476863000" lon="-2.445461000">
        <ele>397.90</ele>
        <time>2017-02-18T06:23:51Z</time>
      </trkpt>
      <trkpt lat="42.476896000" lon="-2.445457000">
        <ele>397.90</ele>
        <time>2017-02-18T06:23:52Z</time>
      </trkpt>
      <trkpt lat="42.476929000" lon="-2.445455000">
        <ele>397.90</ele>
        <time>2017-02-18T06:23:53Z</time>
      </trkpt>
      <trkpt lat="42.476968000" lon="-2.445453000">
        <ele>398.20</ele>
        <time>2017-02-18T06:23:54Z</time>
      </trkpt>
      <trkpt lat="42.477004000" lon="-2.445448000">
        <ele>398.40</ele>
        <time>2017-02-18T06:23:55Z</time>
      </trkpt>
      <trkpt lat="42.477039000" lon="-2.445449000">
        <ele>398.60</ele>
        <time>2017-02-18T06:23:56Z</time>
      </trkpt>
      <trkpt lat="42.477071000" lon="-2.445447000">
        <ele>398.70</ele>
        <time>2017-02-18T06:23:57Z</time>
      </trkpt>
      <trkpt lat="42.477104000" lon="-2.445448000">
        <ele>398.80</ele>
        <time>2017-02-18T06:23:58Z</time>
      </trkpt>
      <trkpt lat="42.477137000" lon="-2.445449000">
        <ele>398.90</ele>
        <time>2017-02-18T06:23:59Z</time>
      </trkpt>
      <trkpt lat="42.477171000" lon="-2.445452000">
        <ele>398.90</ele>
        <time>2017-02-18T06:24:00Z</time>
      </trkpt>
      <trkpt lat="42.477204000" lon="-2.445454000">
        <ele>399.00</ele>
        <time>2017-02-18T06:24:01Z</time>
      </trkpt>
      <trkpt lat="42.477238000" lon="-2.445457000">
        <ele>399.00</ele>
        <time>2017-02-18T06:24:02Z</time>
      </trkpt>
      <trkpt lat="42.477273000" lon="-2.445460000">
        <ele>399.10</ele>
        <time>2017-02-18T06:24:03Z</time>
      </trkpt>
      <trkpt lat="42.477308000" lon="-2.445464000">
        <ele>399.20</ele>
        <time>2017-02-18T06:24:04Z</time>
      </trkpt>
      <trkpt lat="42.477343000" lon="-2.445465000">
        <ele>399.20</ele>
        <time>2017-02-18T06:24:05Z</time>
      </trkpt>
      <trkpt lat="42.477378000" lon="-2.445469000">
        <ele>399.30</ele>
        <time>2017-02-18T06:24:06Z</time>
      </trkpt>
      <trkpt lat="42.477412000" lon="-2.445473000">
        <ele>399.40</ele>
        <time>2017-02-18T06:24:07Z</time>
      </trkpt>
      <trkpt lat="42.477448000" lon="-2.445473000">
        <ele>399.30</ele>
        <time>2017-02-18T06:24:08Z</time>
      </trkpt>
      <trkpt lat="42.477483000" lon="-2.445474000">
        <ele>399.20</ele>
        <time>2017-02-18T06:24:09Z</time>
      </trkpt>
      <trkpt lat="42.477519000" lon="-2.445474000">
        <ele>399.30</ele>
        <time>2017-02-18T06:24:10Z</time>
      </trkpt>
      <trkpt lat="42.477555000" lon="-2.445476000">
        <ele>399.40</ele>
        <time>2017-02-18T06:24:11Z</time>
      </trkpt>
      <trkpt lat="42.477591000" lon="-2.445480000">
        <ele>399.40</ele>
        <time>2017-02-18T06:24:12Z</time>
      </trkpt>
      <trkpt lat="42.477625000" lon="-2.445484000">
        <ele>399.50</ele>
        <time>2017-02-18T06:24:13Z</time>
      </trkpt>
      <trkpt lat="42.477660000" lon="-2.445487000">
        <ele>399.50</ele>
        <time>2017-02-18T06:24:14Z</time>
      </trkpt>
      <trkpt lat="42.477696000" lon="-2.445489000">
        <ele>399.50</ele>
        <time>2017-02-18T06:24:15Z</time>
      </trkpt>
      <trkpt lat="42.477765000" lon="-2.445493000">
        <ele>399.60</ele>
        <time>2017-02-18T06:24:17Z</time>
      </trkpt>
      <trkpt lat="42.477800000" lon="-2.445494000">
        <ele>399.70</ele>
        <time>2017-02-18T06:24:18Z</time>
      </trkpt>
      <trkpt lat="42.477833000" lon="-2.445493000">
        <ele>399.80</ele>
        <time>2017-02-18T06:24:19Z</time>
      </trkpt>
      <trkpt lat="42.477865000" lon="-2.445492000">
        <ele>399.90</ele>
        <time>2017-02-18T06:24:20Z</time>
      </trkpt>
      <trkpt lat="42.477897000" lon="-2.445493000">
        <ele>399.90</ele>
        <time>2017-02-18T06:24:21Z</time>
      </trkpt>
      <trkpt lat="42.477928000" lon="-2.445494000">
        <ele>400.00</ele>
        <time>2017-02-18T06:24:22Z</time>
      </trkpt>
      <trkpt lat="42.477958000" lon="-2.445496000">
        <ele>400.00</ele>
        <time>2017-02-18T06:24:23Z</time>
      </trkpt>
      <trkpt lat="42.477990000" lon="-2.445500000">
        <ele>400.00</ele>
        <time>2017-02-18T06:24:24Z</time>
      </trkpt>
      <trkpt lat="42.478022000" lon="-2.445498000">
        <ele>399.90</ele>
        <time>2017-02-18T06:24:25Z</time>
      </trkpt>
      <trkpt lat="42.478052000" lon="-2.445498000">
        <ele>399.90</ele>
        <time>2017-02-18T06:24:26Z</time>
      </trkpt>
      <trkpt lat="42.478081000" lon="-2.445497000">
        <ele>399.90</ele>
        <time>2017-02-18T06:24:27Z</time>
      </trkpt>
      <trkpt lat="42.478111000" lon="-2.445495000">
        <ele>399.90</ele>
        <time>2017-02-18T06:24:28Z</time>
      </trkpt>
      <trkpt lat="42.478143000" lon="-2.445494000">
        <ele>399.90</ele>
        <time>2017-02-18T06:24:29Z</time>
      </trkpt>
      <trkpt lat="42.478174000" lon="-2.445495000">
        <ele>400.10</ele>
        <time>2017-02-18T06:24:30Z</time>
      </trkpt>
      <trkpt lat="42.478203000" lon="-2.445495000">
        <ele>400.20</ele>
        <time>2017-02-18T06:24:31Z</time>
      </trkpt>
      <trkpt lat="42.478235000" lon="-2.445495000">
        <ele>400.20</ele>
        <time>2017-02-18T06:24:32Z</time>
      </trkpt>
      <trkpt lat="42.478265000" lon="-2.445498000">
        <ele>400.20</ele>
        <time>2017-02-18T06:24:33Z</time>
      </trkpt>
      <trkpt lat="42.478295000" lon="-2.445501000">
        <ele>400.30</ele>
        <time>2017-02-18T06:24:34Z</time>
      </trkpt>
      <trkpt lat="42.478325000" lon="-2.445507000">
        <ele>400.40</ele>
        <time>2017-02-18T06:24:35Z</time>
      </trkpt>
      <trkpt lat="42.478354000" lon="-2.445513000">
        <ele>400.50</ele>
        <time>2017-02-18T06:24:36Z</time>
      </trkpt>
      <trkpt lat="42.478383000" lon="-2.445517000">
        <ele>400.60</ele>
        <time>2017-02-18T06:24:37Z</time>
      </trkpt>
      <trkpt lat="42.478414000" lon="-2.445524000">
        <ele>400.70</ele>
        <time>2017-02-18T06:24:38Z</time>
      </trkpt>
      <trkpt lat="42.478444000" lon="-2.445529000">
        <ele>400.80</ele>
        <time>2017-02-18T06:24:39Z</time>
      </trkpt>
      <trkpt lat="42.478474000" lon="-2.445538000">
        <ele>400.80</ele>
        <time>2017-02-18T06:24:40Z</time>
      </trkpt>
      <trkpt lat="42.478507000" lon="-2.445546000">
        <ele>400.80</ele>
        <time>2017-02-18T06:24:41Z</time>
      </trkpt>
      <trkpt lat="42.478539000" lon="-2.445555000">
        <ele>400.80</ele>
        <time>2017-02-18T06:24:42Z</time>
      </trkpt>
      <trkpt lat="42.478570000" lon="-2.445563000">
        <ele>400.70</ele>
        <time>2017-02-18T06:24:43Z</time>
      </trkpt>
      <trkpt lat="42.478603000" lon="-2.445570000">
        <ele>400.60</ele>
        <time>2017-02-18T06:24:44Z</time>
      </trkpt>
      <trkpt lat="42.478634000" lon="-2.445575000">
        <ele>400.60</ele>
        <time>2017-02-18T06:24:45Z</time>
      </trkpt>
      <trkpt lat="42.478662000" lon="-2.445580000">
        <ele>400.40</ele>
        <time>2017-02-18T06:24:46Z</time>
      </trkpt>
      <trkpt lat="42.478688000" lon="-2.445586000">
        <ele>400.30</ele>
        <time>2017-02-18T06:24:47Z</time>
      </trkpt>
      <trkpt lat="42.478717000" lon="-2.445597000">
        <ele>400.30</ele>
        <time>2017-02-18T06:24:48Z</time>
      </trkpt>
      <trkpt lat="42.478745000" lon="-2.445605000">
        <ele>400.30</ele>
        <time>2017-02-18T06:24:49Z</time>
      </trkpt>
      <trkpt lat="42.478775000" lon="-2.445610000">
        <ele>400.40</ele>
        <time>2017-02-18T06:24:50Z</time>
      </trkpt>
      <trkpt lat="42.478804000" lon="-2.445616000">
        <ele>400.40</ele>
        <time>2017-02-18T06:24:51Z</time>
      </trkpt>
      <trkpt lat="42.478833000" lon="-2.445621000">
        <ele>400.50</ele>
        <time>2017-02-18T06:24:52Z</time>
      </trkpt>
      <trkpt lat="42.478862000" lon="-2.445625000">
        <ele>400.50</ele>
        <time>2017-02-18T06:24:53Z</time>
      </trkpt>
      <trkpt lat="42.478892000" lon="-2.445624000">
        <ele>400.70</ele>
        <time>2017-02-18T06:24:54Z</time>
      </trkpt>
      <trkpt lat="42.478918000" lon="-2.445624000">
        <ele>400.90</ele>
        <time>2017-02-18T06:24:55Z</time>
      </trkpt>
      <trkpt lat="42.478944000" lon="-2.445625000">
        <ele>401.10</ele>
        <time>2017-02-18T06:24:56Z</time>
      </trkpt>
      <trkpt lat="42.478974000" lon="-2.445626000">
        <ele>401.30</ele>
        <time>2017-02-18T06:24:57Z</time>
      </trkpt>
      <trkpt lat="42.479003000" lon="-2.445624000">
        <ele>401.50</ele>
        <time>2017-02-18T06:24:58Z</time>
      </trkpt>
      <trkpt lat="42.479028000" lon="-2.445616000">
        <ele>401.60</ele>
        <time>2017-02-18T06:24:59Z</time>
      </trkpt>
      <trkpt lat="42.479053000" lon="-2.445606000">
        <ele>401.80</ele>
        <time>2017-02-18T06:25:00Z</time>
      </trkpt>
      <trkpt lat="42.479076000" lon="-2.445594000">
        <ele>401.90</ele>
        <time>2017-02-18T06:25:01Z</time>
      </trkpt>
      <trkpt lat="42.479102000" lon="-2.445579000">
        <ele>402.00</ele>
        <time>2017-02-18T06:25:02Z</time>
      </trkpt>
      <trkpt lat="42.479130000" lon="-2.445561000">
        <ele>402.10</ele>
        <time>2017-02-18T06:25:03Z</time>
      </trkpt>
      <trkpt lat="42.479157000" lon="-2.445542000">
        <ele>402.10</ele>
        <time>2017-02-18T06:25:04Z</time>
      </trkpt>
      <trkpt lat="42.479185000" lon="-2.445522000">
        <ele>402.10</ele>
        <time>2017-02-18T06:25:05Z</time>
      </trkpt>
      <trkpt lat="42.479213000" lon="-2.445503000">
        <ele>402.10</ele>
        <time>2017-02-18T06:25:06Z</time>
      </trkpt>
      <trkpt lat="42.479239000" lon="-2.445484000">
        <ele>402.10</ele>
        <time>2017-02-18T06:25:07Z</time>
      </trkpt>
      <trkpt lat="42.479266000" lon="-2.445464000">
        <ele>402.20</ele>
        <time>2017-02-18T06:25:08Z</time>
      </trkpt>
      <trkpt lat="42.479292000" lon="-2.445447000">
        <ele>402.40</ele>
        <time>2017-02-18T06:25:09Z</time>
      </trkpt>
      <trkpt lat="42.479316000" lon="-2.445434000">
        <ele>402.50</ele>
        <time>2017-02-18T06:25:10Z</time>
      </trkpt>
      <trkpt lat="42.479344000" lon="-2.445415000">
        <ele>402.50</ele>
        <time>2017-02-18T06:25:11Z</time>
      </trkpt>
      <trkpt lat="42.479373000" lon="-2.445399000">
        <ele>402.80</ele>
        <time>2017-02-18T06:25:12Z</time>
      </trkpt>
      <trkpt lat="42.479403000" lon="-2.445381000">
        <ele>403.00</ele>
        <time>2017-02-18T06:25:13Z</time>
      </trkpt>
      <trkpt lat="42.479432000" lon="-2.445362000">
        <ele>403.10</ele>
        <time>2017-02-18T06:25:14Z</time>
      </trkpt>
      <trkpt lat="42.479459000" lon="-2.445343000">
        <ele>403.20</ele>
        <time>2017-02-18T06:25:15Z</time>
      </trkpt>
      <trkpt lat="42.479487000" lon="-2.445326000">
        <ele>403.40</ele>
        <time>2017-02-18T06:25:16Z</time>
      </trkpt>
      <trkpt lat="42.479550000" lon="-2.445300000">
        <ele>403.50</ele>
        <time>2017-02-18T06:25:18Z</time>
      </trkpt>
      <trkpt lat="42.479579000" lon="-2.445289000">
        <ele>403.60</ele>
        <time>2017-02-18T06:25:19Z</time>
      </trkpt>
      <trkpt lat="42.479609000" lon="-2.445275000">
        <ele>403.80</ele>
        <time>2017-02-18T06:25:20Z</time>
      </trkpt>
      <trkpt lat="42.479637000" lon="-2.445262000">
        <ele>403.90</ele>
        <time>2017-02-18T06:25:21Z</time>
      </trkpt>
      <trkpt lat="42.479666000" lon="-2.445246000">
        <ele>404.00</ele>
        <time>2017-02-18T06:25:22Z</time>
      </trkpt>
      <trkpt lat="42.479698000" lon="-2.445232000">
        <ele>404.10</ele>
        <time>2017-02-18T06:25:23Z</time>
      </trkpt>
      <trkpt lat="42.479727000" lon="-2.445221000">
        <ele>404.30</ele>
        <time>2017-02-18T06:25:24Z</time>
      </trkpt>
      <trkpt lat="42.479756000" lon="-2.445210000">
        <ele>404.40</ele>
        <time>2017-02-18T06:25:25Z</time>
      </trkpt>
      <trkpt lat="42.479785000" lon="-2.445200000">
        <ele>404.50</ele>
        <time>2017-02-18T06:25:26Z</time>
      </trkpt>
      <trkpt lat="42.479815000" lon="-2.445191000">
        <ele>404.50</ele>
        <time>2017-02-18T06:25:27Z</time>
      </trkpt>
      <trkpt lat="42.479841000" lon="-2.445182000">
        <ele>404.70</ele>
        <time>2017-02-18T06:25:28Z</time>
      </trkpt>
      <trkpt lat="42.479867000" lon="-2.445172000">
        <ele>404.80</ele>
        <time>2017-02-18T06:25:29Z</time>
      </trkpt>
      <trkpt lat="42.479893000" lon="-2.445160000">
        <ele>405.00</ele>
        <time>2017-02-18T06:25:30Z</time>
      </trkpt>
      <trkpt lat="42.479920000" lon="-2.445145000">
        <ele>405.10</ele>
        <time>2017-02-18T06:25:31Z</time>
      </trkpt>
      <trkpt lat="42.479946000" lon="-2.445132000">
        <ele>405.30</ele>
        <time>2017-02-18T06:25:32Z</time>
      </trkpt>
      <trkpt lat="42.479972000" lon="-2.445119000">
        <ele>405.40</ele>
        <time>2017-02-18T06:25:33Z</time>
      </trkpt>
      <trkpt lat="42.479997000" lon="-2.445109000">
        <ele>405.70</ele>
        <time>2017-02-18T06:25:34Z</time>
      </trkpt>
      <trkpt lat="42.480024000" lon="-2.445096000">
        <ele>406.00</ele>
        <time>2017-02-18T06:25:35Z</time>
      </trkpt>
      <trkpt lat="42.480049000" lon="-2.445084000">
        <ele>406.30</ele>
        <time>2017-02-18T06:25:36Z</time>
      </trkpt>
      <trkpt lat="42.480076000" lon="-2.445074000">
        <ele>406.50</ele>
        <time>2017-02-18T06:25:37Z</time>
      </trkpt>
      <trkpt lat="42.480103000" lon="-2.445066000">
        <ele>406.70</ele>
        <time>2017-02-18T06:25:38Z</time>
      </trkpt>
      <trkpt lat="42.480129000" lon="-2.445056000">
        <ele>406.90</ele>
        <time>2017-02-18T06:25:39Z</time>
      </trkpt>
      <trkpt lat="42.480155000" lon="-2.445048000">
        <ele>407.10</ele>
        <time>2017-02-18T06:25:40Z</time>
      </trkpt>
      <trkpt lat="42.480180000" lon="-2.445042000">
        <ele>407.30</ele>
        <time>2017-02-18T06:25:41Z</time>
      </trkpt>
      <trkpt lat="42.480208000" lon="-2.445033000">
        <ele>407.60</ele>
        <time>2017-02-18T06:25:42Z</time>
      </trkpt>
      <trkpt lat="42.480236000" lon="-2.445029000">
        <ele>407.80</ele>
        <time>2017-02-18T06:25:43Z</time>
      </trkpt>
      <trkpt lat="42.480264000" lon="-2.445026000">
        <ele>408.00</ele>
        <time>2017-02-18T06:25:44Z</time>
      </trkpt>
      <trkpt lat="42.480293000" lon="-2.445022000">
        <ele>408.10</ele>
        <time>2017-02-18T06:25:45Z</time>
      </trkpt>
      <trkpt lat="42.480317000" lon="-2.445022000">
        <ele>408.40</ele>
        <time>2017-02-18T06:25:46Z</time>
      </trkpt>
      <trkpt lat="42.480344000" lon="-2.445022000">
        <ele>408.60</ele>
        <time>2017-02-18T06:25:47Z</time>
      </trkpt>
      <trkpt lat="42.480370000" lon="-2.445026000">
        <ele>408.80</ele>
        <time>2017-02-18T06:25:48Z</time>
      </trkpt>
      <trkpt lat="42.480396000" lon="-2.445029000">
        <ele>409.00</ele>
        <time>2017-02-18T06:25:49Z</time>
      </trkpt>
      <trkpt lat="42.480419000" lon="-2.445035000">
        <ele>409.40</ele>
        <time>2017-02-18T06:25:50Z</time>
      </trkpt>
      <trkpt lat="42.480444000" lon="-2.445039000">
        <ele>409.80</ele>
        <time>2017-02-18T06:25:51Z</time>
      </trkpt>
      <trkpt lat="42.480471000" lon="-2.445044000">
        <ele>410.10</ele>
        <time>2017-02-18T06:25:52Z</time>
      </trkpt>
      <trkpt lat="42.480499000" lon="-2.445051000">
        <ele>410.30</ele>
        <time>2017-02-18T06:25:53Z</time>
      </trkpt>
      <trkpt lat="42.480526000" lon="-2.445059000">
        <ele>410.60</ele>
        <time>2017-02-18T06:25:54Z</time>
      </trkpt>
      <trkpt lat="42.480552000" lon="-2.445065000">
        <ele>410.80</ele>
        <time>2017-02-18T06:25:55Z</time>
      </trkpt>
      <trkpt lat="42.480578000" lon="-2.445070000">
        <ele>411.10</ele>
        <time>2017-02-18T06:25:56Z</time>
      </trkpt>
      <trkpt lat="42.480602000" lon="-2.445076000">
        <ele>411.30</ele>
        <time>2017-02-18T06:25:57Z</time>
      </trkpt>
      <trkpt lat="42.480624000" lon="-2.445077000">
        <ele>411.60</ele>
        <time>2017-02-18T06:25:58Z</time>
      </trkpt>
      <trkpt lat="42.480646000" lon="-2.445081000">
        <ele>411.80</ele>
        <time>2017-02-18T06:25:59Z</time>
      </trkpt>
      <trkpt lat="42.480668000" lon="-2.445087000">
        <ele>412.20</ele>
        <time>2017-02-18T06:26:00Z</time>
      </trkpt>
      <trkpt lat="42.480690000" lon="-2.445092000">
        <ele>412.60</ele>
        <time>2017-02-18T06:26:01Z</time>
      </trkpt>
      <trkpt lat="42.480711000" lon="-2.445101000">
        <ele>412.90</ele>
        <time>2017-02-18T06:26:02Z</time>
      </trkpt>
      <trkpt lat="42.480732000" lon="-2.445107000">
        <ele>413.20</ele>
        <time>2017-02-18T06:26:03Z</time>
      </trkpt>
      <trkpt lat="42.480755000" lon="-2.445112000">
        <ele>413.40</ele>
        <time>2017-02-18T06:26:04Z</time>
      </trkpt>
      <trkpt lat="42.480779000" lon="-2.445115000">
        <ele>413.50</ele>
        <time>2017-02-18T06:26:05Z</time>
      </trkpt>
      <trkpt lat="42.480804000" lon="-2.445117000">
        <ele>413.80</ele>
        <time>2017-02-18T06:26:06Z</time>
      </trkpt>
      <trkpt lat="42.480828000" lon="-2.445125000">
        <ele>413.90</ele>
        <time>2017-02-18T06:26:07Z</time>
      </trkpt>
      <trkpt lat="42.480851000" lon="-2.445132000">
        <ele>414.20</ele>
        <time>2017-02-18T06:26:08Z</time>
      </trkpt>
      <trkpt lat="42.480873000" lon="-2.445138000">
        <ele>414.50</ele>
        <time>2017-02-18T06:26:09Z</time>
      </trkpt>
      <trkpt lat="42.480896000" lon="-2.445145000">
        <ele>414.80</ele>
        <time>2017-02-18T06:26:10Z</time>
      </trkpt>
      <trkpt lat="42.480918000" lon="-2.445152000">
        <ele>415.00</ele>
        <time>2017-02-18T06:26:11Z</time>
      </trkpt>
      <trkpt lat="42.480941000" lon="-2.445158000">
        <ele>415.40</ele>
        <time>2017-02-18T06:26:12Z</time>
      </trkpt>
      <trkpt lat="42.480963000" lon="-2.445162000">
        <ele>415.70</ele>
        <time>2017-02-18T06:26:13Z</time>
      </trkpt>
      <trkpt lat="42.480986000" lon="-2.445164000">
        <ele>415.90</ele>
        <time>2017-02-18T06:26:14Z</time>
      </trkpt>
      <trkpt lat="42.481005000" lon="-2.445167000">
        <ele>416.10</ele>
        <time>2017-02-18T06:26:15Z</time>
      </trkpt>
      <trkpt lat="42.481024000" lon="-2.445174000">
        <ele>416.20</ele>
        <time>2017-02-18T06:26:16Z</time>
      </trkpt>
      <trkpt lat="42.481046000" lon="-2.445183000">
        <ele>416.30</ele>
        <time>2017-02-18T06:26:17Z</time>
      </trkpt>
      <trkpt lat="42.481088000" lon="-2.445201000">
        <ele>416.40</ele>
        <time>2017-02-18T06:26:19Z</time>
      </trkpt>
      <trkpt lat="42.481107000" lon="-2.445206000">
        <ele>416.40</ele>
        <time>2017-02-18T06:26:20Z</time>
      </trkpt>
      <trkpt lat="42.481128000" lon="-2.445218000">
        <ele>416.40</ele>
        <time>2017-02-18T06:26:21Z</time>
      </trkpt>
      <trkpt lat="42.481149000" lon="-2.445229000">
        <ele>416.70</ele>
        <time>2017-02-18T06:26:22Z</time>
      </trkpt>
      <trkpt lat="42.481164000" lon="-2.445237000">
        <ele>417.00</ele>
        <time>2017-02-18T06:26:23Z</time>
      </trkpt>
      <trkpt lat="42.481178000" lon="-2.445240000">
        <ele>417.30</ele>
        <time>2017-02-18T06:26:24Z</time>
      </trkpt>
      <trkpt lat="42.481192000" lon="-2.445245000">
        <ele>417.50</ele>
        <time>2017-02-18T06:26:25Z</time>
      </trkpt>
      <trkpt lat="42.481208000" lon="-2.445247000">
        <ele>417.60</ele>
        <time>2017-02-18T06:26:26Z</time>
      </trkpt>
      <trkpt lat="42.481223000" lon="-2.445248000">
        <ele>417.80</ele>
        <time>2017-02-18T06:26:27Z</time>
      </trkpt>
      <trkpt lat="42.481241000" lon="-2.445253000">
        <ele>417.80</ele>
        <time>2017-02-18T06:26:28Z</time>
      </trkpt>
      <trkpt lat="42.481260000" lon="-2.445258000">
        <ele>417.90</ele>
        <time>2017-02-18T06:26:29Z</time>
      </trkpt>
      <trkpt lat="42.481278000" lon="-2.445263000">
        <ele>417.90</ele>
        <time>2017-02-18T06:26:30Z</time>
      </trkpt>
      <trkpt lat="42.481296000" lon="-2.445267000">
        <ele>417.90</ele>
        <time>2017-02-18T06:26:31Z</time>
      </trkpt>
      <trkpt lat="42.481315000" lon="-2.445270000">
        <ele>417.90</ele>
        <time>2017-02-18T06:26:32Z</time>
      </trkpt>
      <trkpt lat="42.481335000" lon="-2.445273000">
        <ele>418.00</ele>
        <time>2017-02-18T06:26:33Z</time>
      </trkpt>
      <trkpt lat="42.481354000" lon="-2.445281000">
        <ele>418.00</ele>
        <time>2017-02-18T06:26:34Z</time>
      </trkpt>
      <trkpt lat="42.481366000" lon="-2.445300000">
        <ele>418.00</ele>
        <time>2017-02-18T06:26:35Z</time>
      </trkpt>
      <trkpt lat="42.481383000" lon="-2.445306000">
        <ele>418.00</ele>
        <time>2017-02-18T06:26:36Z</time>
      </trkpt>
      <trkpt lat="42.481404000" lon="-2.445310000">
        <ele>418.10</ele>
        <time>2017-02-18T06:26:37Z</time>
      </trkpt>
      <trkpt lat="42.481428000" lon="-2.445315000">
        <ele>418.20</ele>
        <time>2017-02-18T06:26:38Z</time>
      </trkpt>
      <trkpt lat="42.481450000" lon="-2.445322000">
        <ele>418.30</ele>
        <time>2017-02-18T06:26:39Z</time>
      </trkpt>
      <trkpt lat="42.481469000" lon="-2.445330000">
        <ele>418.40</ele>
        <time>2017-02-18T06:26:40Z</time>
      </trkpt>
      <trkpt lat="42.481493000" lon="-2.445337000">
        <ele>418.50</ele>
        <time>2017-02-18T06:26:41Z</time>
      </trkpt>
      <trkpt lat="42.481516000" lon="-2.445341000">
        <ele>418.60</ele>
        <time>2017-02-18T06:26:42Z</time>
      </trkpt>
      <trkpt lat="42.481536000" lon="-2.445348000">
        <ele>418.70</ele>
        <time>2017-02-18T06:26:43Z</time>
      </trkpt>
      <trkpt lat="42.481559000" lon="-2.445353000">
        <ele>418.80</ele>
        <time>2017-02-18T06:26:44Z</time>
      </trkpt>
      <trkpt lat="42.481577000" lon="-2.445367000">
        <ele>418.90</ele>
        <time>2017-02-18T06:26:45Z</time>
      </trkpt>
      <trkpt lat="42.481599000" lon="-2.445367000">
        <ele>419.00</ele>
        <time>2017-02-18T06:26:46Z</time>
      </trkpt>
      <trkpt lat="42.481621000" lon="-2.445381000">
        <ele>419.10</ele>
        <time>2017-02-18T06:26:47Z</time>
      </trkpt>
      <trkpt lat="42.481645000" lon="-2.445391000">
        <ele>419.20</ele>
        <time>2017-02-18T06:26:48Z</time>
      </trkpt>
      <trkpt lat="42.481667000" lon="-2.445402000">
        <ele>419.20</ele>
        <time>2017-02-18T06:26:49Z</time>
      </trkpt>
      <trkpt lat="42.481689000" lon="-2.445406000">
        <ele>419.20</ele>
        <time>2017-02-18T06:26:50Z</time>
      </trkpt>
      <trkpt lat="42.481713000" lon="-2.445417000">
        <ele>419.30</ele>
        <time>2017-02-18T06:26:51Z</time>
      </trkpt>
      <trkpt lat="42.481741000" lon="-2.445427000">
        <ele>419.20</ele>
        <time>2017-02-18T06:26:52Z</time>
      </trkpt>
      <trkpt lat="42.481775000" lon="-2.445443000">
        <ele>419.10</ele>
        <time>2017-02-18T06:26:53Z</time>
      </trkpt>
      <trkpt lat="42.481809000" lon="-2.445459000">
        <ele>419.00</ele>
        <time>2017-02-18T06:26:54Z</time>
      </trkpt>
      <trkpt lat="42.481845000" lon="-2.445479000">
        <ele>419.00</ele>
        <time>2017-02-18T06:26:55Z</time>
      </trkpt>
      <trkpt lat="42.481878000" lon="-2.445497000">
        <ele>419.00</ele>
        <time>2017-02-18T06:26:56Z</time>
      </trkpt>
      <trkpt lat="42.481910000" lon="-2.445507000">
        <ele>418.90</ele>
        <time>2017-02-18T06:26:57Z</time>
      </trkpt>
      <trkpt lat="42.481938000" lon="-2.445517000">
        <ele>418.90</ele>
        <time>2017-02-18T06:26:58Z</time>
      </trkpt>
      <trkpt lat="42.481965000" lon="-2.445530000">
        <ele>418.90</ele>
        <time>2017-02-18T06:26:59Z</time>
      </trkpt>
      <trkpt lat="42.481994000" lon="-2.445541000">
        <ele>418.90</ele>
        <time>2017-02-18T06:27:00Z</time>
      </trkpt>
      <trkpt lat="42.482020000" lon="-2.445553000">
        <ele>419.00</ele>
        <time>2017-02-18T06:27:01Z</time>
      </trkpt>
      <trkpt lat="42.482046000" lon="-2.445561000">
        <ele>419.10</ele>
        <time>2017-02-18T06:27:02Z</time>
      </trkpt>
      <trkpt lat="42.482069000" lon="-2.445574000">
        <ele>419.20</ele>
        <time>2017-02-18T06:27:03Z</time>
      </trkpt>
      <trkpt lat="42.482091000" lon="-2.445586000">
        <ele>419.20</ele>
        <time>2017-02-18T06:27:04Z</time>
      </trkpt>
      <trkpt lat="42.482113000" lon="-2.445595000">
        <ele>419.20</ele>
        <time>2017-02-18T06:27:05Z</time>
      </trkpt>
      <trkpt lat="42.482135000" lon="-2.445610000">
        <ele>419.20</ele>
        <time>2017-02-18T06:27:06Z</time>
      </trkpt>
      <trkpt lat="42.482160000" lon="-2.445621000">
        <ele>419.20</ele>
        <time>2017-02-18T06:27:07Z</time>
      </trkpt>
      <trkpt lat="42.482184000" lon="-2.445637000">
        <ele>419.20</ele>
        <time>2017-02-18T06:27:08Z</time>
      </trkpt>
      <trkpt lat="42.482210000" lon="-2.445647000">
        <ele>419.20</ele>
        <time>2017-02-18T06:27:09Z</time>
      </trkpt>
      <trkpt lat="42.482236000" lon="-2.445660000">
        <ele>419.10</ele>
        <time>2017-02-18T06:27:10Z</time>
      </trkpt>
      <trkpt lat="42.482263000" lon="-2.445672000">
        <ele>419.10</ele>
        <time>2017-02-18T06:27:11Z</time>
      </trkpt>
      <trkpt lat="42.482287000" lon="-2.445687000">
        <ele>419.10</ele>
        <time>2017-02-18T06:27:12Z</time>
      </trkpt>
      <trkpt lat="42.482310000" lon="-2.445699000">
        <ele>419.00</ele>
        <time>2017-02-18T06:27:13Z</time>
      </trkpt>
      <trkpt lat="42.482335000" lon="-2.445715000">
        <ele>419.00</ele>
        <time>2017-02-18T06:27:14Z</time>
      </trkpt>
      <trkpt lat="42.482362000" lon="-2.445733000">
        <ele>418.90</ele>
        <time>2017-02-18T06:27:15Z</time>
      </trkpt>
      <trkpt lat="42.482385000" lon="-2.445750000">
        <ele>419.00</ele>
        <time>2017-02-18T06:27:16Z</time>
      </trkpt>
      <trkpt lat="42.482407000" lon="-2.445770000">
        <ele>419.10</ele>
        <time>2017-02-18T06:27:17Z</time>
      </trkpt>
      <trkpt lat="42.482434000" lon="-2.445786000">
        <ele>419.20</ele>
        <time>2017-02-18T06:27:18Z</time>
      </trkpt>
      <trkpt lat="42.482487000" lon="-2.445822000">
        <ele>419.40</ele>
        <time>2017-02-18T06:27:20Z</time>
      </trkpt>
      <trkpt lat="42.482512000" lon="-2.445838000">
        <ele>419.50</ele>
        <time>2017-02-18T06:27:21Z</time>
      </trkpt>
      <trkpt lat="42.482542000" lon="-2.445851000">
        <ele>419.60</ele>
        <time>2017-02-18T06:27:22Z</time>
      </trkpt>
      <trkpt lat="42.482566000" lon="-2.445871000">
        <ele>419.70</ele>
        <time>2017-02-18T06:27:23Z</time>
      </trkpt>
      <trkpt lat="42.482593000" lon="-2.445894000">
        <ele>419.70</ele>
        <time>2017-02-18T06:27:24Z</time>
      </trkpt>
      <trkpt lat="42.482622000" lon="-2.445915000">
        <ele>419.80</ele>
        <time>2017-02-18T06:27:25Z</time>
      </trkpt>
      <trkpt lat="42.482651000" lon="-2.445938000">
        <ele>419.80</ele>
        <time>2017-02-18T06:27:26Z</time>
      </trkpt>
      <trkpt lat="42.482683000" lon="-2.445960000">
        <ele>419.80</ele>
        <time>2017-02-18T06:27:27Z</time>
      </trkpt>
      <trkpt lat="42.482719000" lon="-2.445980000">
        <ele>419.90</ele>
        <time>2017-02-18T06:27:28Z</time>
      </trkpt>
      <trkpt lat="42.482756000" lon="-2.445996000">
        <ele>420.00</ele>
        <time>2017-02-18T06:27:29Z</time>
      </trkpt>
      <trkpt lat="42.482790000" lon="-2.446024000">
        <ele>420.00</ele>
        <time>2017-02-18T06:27:30Z</time>
      </trkpt>
      <trkpt lat="42.482824000" lon="-2.446051000">
        <ele>420.00</ele>
        <time>2017-02-18T06:27:31Z</time>
      </trkpt>
      <trkpt lat="42.482858000" lon="-2.446079000">
        <ele>420.10</ele>
        <time>2017-02-18T06:27:32Z</time>
      </trkpt>
      <trkpt lat="42.482893000" lon="-2.446108000">
        <ele>420.10</ele>
        <time>2017-02-18T06:27:33Z</time>
      </trkpt>
      <trkpt lat="42.482923000" lon="-2.446137000">
        <ele>420.10</ele>
        <time>2017-02-18T06:27:34Z</time>
      </trkpt>
      <trkpt lat="42.482952000" lon="-2.446164000">
        <ele>420.10</ele>
        <time>2017-02-18T06:27:35Z</time>
      </trkpt>
      <trkpt lat="42.482981000" lon="-2.446184000">
        <ele>420.30</ele>
        <time>2017-02-18T06:27:36Z</time>
      </trkpt>
      <trkpt lat="42.483010000" lon="-2.446196000">
        <ele>420.50</ele>
        <time>2017-02-18T06:27:37Z</time>
      </trkpt>
      <trkpt lat="42.483039000" lon="-2.446211000">
        <ele>420.60</ele>
        <time>2017-02-18T06:27:38Z</time>
      </trkpt>
      <trkpt lat="42.483066000" lon="-2.446221000">
        <ele>420.70</ele>
        <time>2017-02-18T06:27:39Z</time>
      </trkpt>
      <trkpt lat="42.483094000" lon="-2.446230000">
        <ele>420.50</ele>
        <time>2017-02-18T06:27:40Z</time>
      </trkpt>
      <trkpt lat="42.483119000" lon="-2.446238000">
        <ele>420.40</ele>
        <time>2017-02-18T06:27:41Z</time>
      </trkpt>
      <trkpt lat="42.483145000" lon="-2.446249000">
        <ele>420.30</ele>
        <time>2017-02-18T06:27:42Z</time>
      </trkpt>
      <trkpt lat="42.483172000" lon="-2.446254000">
        <ele>420.20</ele>
        <time>2017-02-18T06:27:43Z</time>
      </trkpt>
      <trkpt lat="42.483198000" lon="-2.446261000">
        <ele>420.10</ele>
        <time>2017-02-18T06:27:44Z</time>
      </trkpt>
      <trkpt lat="42.483224000" lon="-2.446268000">
        <ele>420.10</ele>
        <time>2017-02-18T06:27:45Z</time>
      </trkpt>
      <trkpt lat="42.483256000" lon="-2.446277000">
        <ele>420.10</ele>
        <time>2017-02-18T06:27:46Z</time>
      </trkpt>
      <trkpt lat="42.483288000" lon="-2.446283000">
        <ele>420.10</ele>
        <time>2017-02-18T06:27:47Z</time>
      </trkpt>
      <trkpt lat="42.483318000" lon="-2.446287000">
        <ele>420.20</ele>
        <time>2017-02-18T06:27:48Z</time>
      </trkpt>
      <trkpt lat="42.483346000" lon="-2.446287000">
        <ele>420.30</ele>
        <time>2017-02-18T06:27:49Z</time>
      </trkpt>
      <trkpt lat="42.483375000" lon="-2.446295000">
        <ele>420.40</ele>
        <time>2017-02-18T06:27:50Z</time>
      </trkpt>
      <trkpt lat="42.483402000" lon="-2.446305000">
        <ele>420.50</ele>
        <time>2017-02-18T06:27:51Z</time>
      </trkpt>
      <trkpt lat="42.483432000" lon="-2.446310000">
        <ele>420.60</ele>
        <time>2017-02-18T06:27:52Z</time>
      </trkpt>
      <trkpt lat="42.483465000" lon="-2.446311000">
        <ele>420.60</ele>
        <time>2017-02-18T06:27:53Z</time>
      </trkpt>
      <trkpt lat="42.483495000" lon="-2.446309000">
        <ele>420.60</ele>
        <time>2017-02-18T06:27:54Z</time>
      </trkpt>
      <trkpt lat="42.483525000" lon="-2.446314000">
        <ele>420.70</ele>
        <time>2017-02-18T06:27:55Z</time>
      </trkpt>
      <trkpt lat="42.483556000" lon="-2.446316000">
        <ele>420.60</ele>
        <time>2017-02-18T06:27:56Z</time>
      </trkpt>
      <trkpt lat="42.483591000" lon="-2.446313000">
        <ele>420.60</ele>
        <time>2017-02-18T06:27:57Z</time>
      </trkpt>
      <trkpt lat="42.483627000" lon="-2.446312000">
        <ele>420.50</ele>
        <time>2017-02-18T06:27:58Z</time>
      </trkpt>
      <trkpt lat="42.483659000" lon="-2.446304000">
        <ele>420.40</ele>
        <time>2017-02-18T06:27:59Z</time>
      </trkpt>
      <trkpt lat="42.483692000" lon="-2.446300000">
        <ele>420.40</ele>
        <time>2017-02-18T06:28:00Z</time>
      </trkpt>
      <trkpt lat="42.483721000" lon="-2.446300000">
        <ele>420.30</ele>
        <time>2017-02-18T06:28:01Z</time>
      </trkpt>
      <trkpt lat="42.483750000" lon="-2.446301000">
        <ele>420.30</ele>
        <time>2017-02-18T06:28:02Z</time>
      </trkpt>
      <trkpt lat="42.483779000" lon="-2.446296000">
        <ele>420.30</ele>
        <time>2017-02-18T06:28:03Z</time>
      </trkpt>
      <trkpt lat="42.483811000" lon="-2.446289000">
        <ele>420.30</ele>
        <time>2017-02-18T06:28:04Z</time>
      </trkpt>
      <trkpt lat="42.483844000" lon="-2.446279000">
        <ele>420.40</ele>
        <time>2017-02-18T06:28:05Z</time>
      </trkpt>
      <trkpt lat="42.483880000" lon="-2.446270000">
        <ele>420.30</ele>
        <time>2017-02-18T06:28:06Z</time>
      </trkpt>
      <trkpt lat="42.483913000" lon="-2.446257000">
        <ele>420.30</ele>
        <time>2017-02-18T06:28:07Z</time>
      </trkpt>
      <trkpt lat="42.483947000" lon="-2.446247000">
        <ele>420.40</ele>
        <time>2017-02-18T06:28:08Z</time>
      </trkpt>
      <trkpt lat="42.483981000" lon="-2.446237000">
        <ele>420.40</ele>
        <time>2017-02-18T06:28:09Z</time>
      </trkpt>
      <trkpt lat="42.484013000" lon="-2.446229000">
        <ele>420.50</ele>
        <time>2017-02-18T06:28:10Z</time>
      </trkpt>
      <trkpt lat="42.484044000" lon="-2.446224000">
        <ele>420.70</ele>
        <time>2017-02-18T06:28:11Z</time>
      </trkpt>
      <trkpt lat="42.484072000" lon="-2.446218000">
        <ele>420.70</ele>
        <time>2017-02-18T06:28:12Z</time>
      </trkpt>
      <trkpt lat="42.484105000" lon="-2.446212000">
        <ele>420.80</ele>
        <time>2017-02-18T06:28:13Z</time>
      </trkpt>
      <trkpt lat="42.484135000" lon="-2.446200000">
        <ele>420.90</ele>
        <time>2017-02-18T06:28:14Z</time>
      </trkpt>
      <trkpt lat="42.484164000" lon="-2.446186000">
        <ele>420.90</ele>
        <time>2017-02-18T06:28:15Z</time>
      </trkpt>
      <trkpt lat="42.484192000" lon="-2.446166000">
        <ele>420.90</ele>
        <time>2017-02-18T06:28:16Z</time>
      </trkpt>
      <trkpt lat="42.484224000" lon="-2.446149000">
        <ele>420.90</ele>
        <time>2017-02-18T06:28:17Z</time>
      </trkpt>
      <trkpt lat="42.484259000" lon="-2.446132000">
        <ele>421.10</ele>
        <time>2017-02-18T06:28:18Z</time>
      </trkpt>
      <trkpt lat="42.484293000" lon="-2.446121000">
        <ele>421.20</ele>
        <time>2017-02-18T06:28:19Z</time>
      </trkpt>
      <trkpt lat="42.484359000" lon="-2.446103000">
        <ele>421.40</ele>
        <time>2017-02-18T06:28:21Z</time>
      </trkpt>
      <trkpt lat="42.484391000" lon="-2.446097000">
        <ele>421.50</ele>
        <time>2017-02-18T06:28:22Z</time>
      </trkpt>
      <trkpt lat="42.484424000" lon="-2.446092000">
        <ele>421.60</ele>
        <time>2017-02-18T06:28:23Z</time>
      </trkpt>
      <trkpt lat="42.484457000" lon="-2.446084000">
        <ele>421.80</ele>
        <time>2017-02-18T06:28:24Z</time>
      </trkpt>
      <trkpt lat="42.484492000" lon="-2.446079000">
        <ele>422.00</ele>
        <time>2017-02-18T06:28:25Z</time>
      </trkpt>
      <trkpt lat="42.484529000" lon="-2.446081000">
        <ele>422.10</ele>
        <time>2017-02-18T06:28:26Z</time>
      </trkpt>
      <trkpt lat="42.484567000" lon="-2.446082000">
        <ele>422.20</ele>
        <time>2017-02-18T06:28:27Z</time>
      </trkpt>
      <trkpt lat="42.484604000" lon="-2.446086000">
        <ele>422.10</ele>
        <time>2017-02-18T06:28:28Z</time>
      </trkpt>
      <trkpt lat="42.484640000" lon="-2.446092000">
        <ele>422.00</ele>
        <time>2017-02-18T06:28:29Z</time>
      </trkpt>
      <trkpt lat="42.484676000" lon="-2.446097000">
        <ele>421.90</ele>
        <time>2017-02-18T06:28:30Z</time>
      </trkpt>
      <trkpt lat="42.484717000" lon="-2.446104000">
        <ele>421.70</ele>
        <time>2017-02-18T06:28:31Z</time>
      </trkpt>
      <trkpt lat="42.484760000" lon="-2.446112000">
        <ele>421.40</ele>
        <time>2017-02-18T06:28:32Z</time>
      </trkpt>
      <trkpt lat="42.484804000" lon="-2.446114000">
        <ele>421.20</ele>
        <time>2017-02-18T06:28:33Z</time>
      </trkpt>
      <trkpt lat="42.484848000" lon="-2.446112000">
        <ele>421.10</ele>
        <time>2017-02-18T06:28:34Z</time>
      </trkpt>
      <trkpt lat="42.484892000" lon="-2.446106000">
        <ele>420.90</ele>
        <time>2017-02-18T06:28:35Z</time>
      </trkpt>
      <trkpt lat="42.484933000" lon="-2.446104000">
        <ele>420.90</ele>
        <time>2017-02-18T06:28:36Z</time>
      </trkpt>
      <trkpt lat="42.484977000" lon="-2.446098000">
        <ele>420.90</ele>
        <time>2017-02-18T06:28:37Z</time>
      </trkpt>
      <trkpt lat="42.485023000" lon="-2.446095000">
        <ele>420.90</ele>
        <time>2017-02-18T06:28:38Z</time>
      </trkpt>
      <trkpt lat="42.485069000" lon="-2.446091000">
        <ele>420.90</ele>
        <time>2017-02-18T06:28:39Z</time>
      </trkpt>
      <trkpt lat="42.485113000" lon="-2.446085000">
        <ele>420.70</ele>
        <time>2017-02-18T06:28:40Z</time>
      </trkpt>
      <trkpt lat="42.485156000" lon="-2.446078000">
        <ele>420.60</ele>
        <time>2017-02-18T06:28:41Z</time>
      </trkpt>
      <trkpt lat="42.485199000" lon="-2.446068000">
        <ele>420.40</ele>
        <time>2017-02-18T06:28:42Z</time>
      </trkpt>
      <trkpt lat="42.485242000" lon="-2.446059000">
        <ele>420.30</ele>
        <time>2017-02-18T06:28:43Z</time>
      </trkpt>
      <trkpt lat="42.485283000" lon="-2.446049000">
        <ele>420.10</ele>
        <time>2017-02-18T06:28:44Z</time>
      </trkpt>
      <trkpt lat="42.485324000" lon="-2.446040000">
        <ele>420.10</ele>
        <time>2017-02-18T06:28:45Z</time>
      </trkpt>
      <trkpt lat="42.485365000" lon="-2.446028000">
        <ele>420.00</ele>
        <time>2017-02-18T06:28:46Z</time>
      </trkpt>
      <trkpt lat="42.485405000" lon="-2.446020000">
        <ele>419.90</ele>
        <time>2017-02-18T06:28:47Z</time>
      </trkpt>
      <trkpt lat="42.485445000" lon="-2.446008000">
        <ele>419.90</ele>
        <time>2017-02-18T06:28:48Z</time>
      </trkpt>
      <trkpt lat="42.485482000" lon="-2.445995000">
        <ele>419.90</ele>
        <time>2017-02-18T06:28:49Z</time>
      </trkpt>
      <trkpt lat="42.485522000" lon="-2.445979000">
        <ele>419.90</ele>
        <time>2017-02-18T06:28:50Z</time>
      </trkpt>
      <trkpt lat="42.485563000" lon="-2.445966000">
        <ele>419.80</ele>
        <time>2017-02-18T06:28:51Z</time>
      </trkpt>
      <trkpt lat="42.485602000" lon="-2.445952000">
        <ele>419.80</ele>
        <time>2017-02-18T06:28:52Z</time>
      </trkpt>
      <trkpt lat="42.485642000" lon="-2.445937000">
        <ele>419.70</ele>
        <time>2017-02-18T06:28:53Z</time>
      </trkpt>
      <trkpt lat="42.485685000" lon="-2.445918000">
        <ele>419.70</ele>
        <time>2017-02-18T06:28:54Z</time>
      </trkpt>
      <trkpt lat="42.485731000" lon="-2.445904000">
        <ele>419.70</ele>
        <time>2017-02-18T06:28:55Z</time>
      </trkpt>
      <trkpt lat="42.485773000" lon="-2.445886000">
        <ele>419.80</ele>
        <time>2017-02-18T06:28:56Z</time>
      </trkpt>
      <trkpt lat="42.485812000" lon="-2.445863000">
        <ele>419.90</ele>
        <time>2017-02-18T06:28:57Z</time>
      </trkpt>
      <trkpt lat="42.485847000" lon="-2.445839000">
        <ele>419.90</ele>
        <time>2017-02-18T06:28:58Z</time>
      </trkpt>
      <trkpt lat="42.485886000" lon="-2.445816000">
        <ele>420.00</ele>
        <time>2017-02-18T06:28:59Z</time>
      </trkpt>
      <trkpt lat="42.485925000" lon="-2.445797000">
        <ele>420.00</ele>
        <time>2017-02-18T06:29:00Z</time>
      </trkpt>
      <trkpt lat="42.485962000" lon="-2.445768000">
        <ele>420.00</ele>
        <time>2017-02-18T06:29:01Z</time>
      </trkpt>
      <trkpt lat="42.485999000" lon="-2.445740000">
        <ele>420.00</ele>
        <time>2017-02-18T06:29:02Z</time>
      </trkpt>
      <trkpt lat="42.486036000" lon="-2.445710000">
        <ele>420.00</ele>
        <time>2017-02-18T06:29:03Z</time>
      </trkpt>
      <trkpt lat="42.486073000" lon="-2.445684000">
        <ele>420.00</ele>
        <time>2017-02-18T06:29:04Z</time>
      </trkpt>
      <trkpt lat="42.486106000" lon="-2.445655000">
        <ele>420.00</ele>
        <time>2017-02-18T06:29:05Z</time>
      </trkpt>
      <trkpt lat="42.486142000" lon="-2.445629000">
        <ele>420.00</ele>
        <time>2017-02-18T06:29:06Z</time>
      </trkpt>
      <trkpt lat="42.486179000" lon="-2.445603000">
        <ele>420.00</ele>
        <time>2017-02-18T06:29:07Z</time>
      </trkpt>
      <trkpt lat="42.486215000" lon="-2.445578000">
        <ele>420.00</ele>
        <time>2017-02-18T06:29:08Z</time>
      </trkpt>
      <trkpt lat="42.486251000" lon="-2.445556000">
        <ele>420.00</ele>
        <time>2017-02-18T06:29:09Z</time>
      </trkpt>
      <trkpt lat="42.486289000" lon="-2.445532000">
        <ele>420.00</ele>
        <time>2017-02-18T06:29:10Z</time>
      </trkpt>
      <trkpt lat="42.486326000" lon="-2.445514000">
        <ele>420.10</ele>
        <time>2017-02-18T06:29:11Z</time>
      </trkpt>
      <trkpt lat="42.486362000" lon="-2.445501000">
        <ele>420.10</ele>
        <time>2017-02-18T06:29:12Z</time>
      </trkpt>
      <trkpt lat="42.486400000" lon="-2.445485000">
        <ele>420.20</ele>
        <time>2017-02-18T06:29:13Z</time>
      </trkpt>
      <trkpt lat="42.486438000" lon="-2.445471000">
        <ele>420.20</ele>
        <time>2017-02-18T06:29:14Z</time>
      </trkpt>
      <trkpt lat="42.486477000" lon="-2.445457000">
        <ele>420.20</ele>
        <time>2017-02-18T06:29:15Z</time>
      </trkpt>
      <trkpt lat="42.486518000" lon="-2.445445000">
        <ele>420.30</ele>
        <time>2017-02-18T06:29:16Z</time>
      </trkpt>
      <trkpt lat="42.486559000" lon="-2.445436000">
        <ele>420.40</ele>
        <time>2017-02-18T06:29:17Z</time>
      </trkpt>
      <trkpt lat="42.486601000" lon="-2.445429000">
        <ele>420.40</ele>
        <time>2017-02-18T06:29:18Z</time>
      </trkpt>
      <trkpt lat="42.486641000" lon="-2.445420000">
        <ele>420.50</ele>
        <time>2017-02-18T06:29:19Z</time>
      </trkpt>
      <trkpt lat="42.486679000" lon="-2.445410000">
        <ele>420.50</ele>
        <time>2017-02-18T06:29:20Z</time>
      </trkpt>
      <trkpt lat="42.486752000" lon="-2.445392000">
        <ele>420.60</ele>
        <time>2017-02-18T06:29:22Z</time>
      </trkpt>
      <trkpt lat="42.486787000" lon="-2.445381000">
        <ele>420.60</ele>
        <time>2017-02-18T06:29:23Z</time>
      </trkpt>
      <trkpt lat="42.486823000" lon="-2.445370000">
        <ele>420.80</ele>
        <time>2017-02-18T06:29:24Z</time>
      </trkpt>
      <trkpt lat="42.486859000" lon="-2.445361000">
        <ele>420.80</ele>
        <time>2017-02-18T06:29:25Z</time>
      </trkpt>
      <trkpt lat="42.486893000" lon="-2.445352000">
        <ele>420.90</ele>
        <time>2017-02-18T06:29:26Z</time>
      </trkpt>
      <trkpt lat="42.486925000" lon="-2.445348000">
        <ele>420.90</ele>
        <time>2017-02-18T06:29:27Z</time>
      </trkpt>
      <trkpt lat="42.486959000" lon="-2.445346000">
        <ele>420.90</ele>
        <time>2017-02-18T06:29:28Z</time>
      </trkpt>
      <trkpt lat="42.486992000" lon="-2.445342000">
        <ele>420.90</ele>
        <time>2017-02-18T06:29:29Z</time>
      </trkpt>
      <trkpt lat="42.487027000" lon="-2.445338000">
        <ele>420.90</ele>
        <time>2017-02-18T06:29:30Z</time>
      </trkpt>
      <trkpt lat="42.487060000" lon="-2.445327000">
        <ele>420.90</ele>
        <time>2017-02-18T06:29:31Z</time>
      </trkpt>
      <trkpt lat="42.487090000" lon="-2.445316000">
        <ele>421.10</ele>
        <time>2017-02-18T06:29:32Z</time>
      </trkpt>
      <trkpt lat="42.487118000" lon="-2.445302000">
        <ele>421.30</ele>
        <time>2017-02-18T06:29:33Z</time>
      </trkpt>
      <trkpt lat="42.487143000" lon="-2.445293000">
        <ele>421.40</ele>
        <time>2017-02-18T06:29:34Z</time>
      </trkpt>
      <trkpt lat="42.487167000" lon="-2.445286000">
        <ele>421.50</ele>
        <time>2017-02-18T06:29:35Z</time>
      </trkpt>
      <trkpt lat="42.487188000" lon="-2.445271000">
        <ele>421.60</ele>
        <time>2017-02-18T06:29:36Z</time>
      </trkpt>
      <trkpt lat="42.487211000" lon="-2.445263000">
        <ele>421.70</ele>
        <time>2017-02-18T06:29:37Z</time>
      </trkpt>
      <trkpt lat="42.487232000" lon="-2.445249000">
        <ele>421.70</ele>
        <time>2017-02-18T06:29:38Z</time>
      </trkpt>
      <trkpt lat="42.487256000" lon="-2.445239000">
        <ele>421.80</ele>
        <time>2017-02-18T06:29:39Z</time>
      </trkpt>
      <trkpt lat="42.487284000" lon="-2.445230000">
        <ele>421.90</ele>
        <time>2017-02-18T06:29:40Z</time>
      </trkpt>
      <trkpt lat="42.487313000" lon="-2.445219000">
        <ele>422.00</ele>
        <time>2017-02-18T06:29:41Z</time>
      </trkpt>
      <trkpt lat="42.487342000" lon="-2.445203000">
        <ele>422.10</ele>
        <time>2017-02-18T06:29:42Z</time>
      </trkpt>
      <trkpt lat="42.487373000" lon="-2.445183000">
        <ele>422.10</ele>
        <time>2017-02-18T06:29:43Z</time>
      </trkpt>
      <trkpt lat="42.487403000" lon="-2.445166000">
        <ele>422.40</ele>
        <time>2017-02-18T06:29:44Z</time>
      </trkpt>
      <trkpt lat="42.487431000" lon="-2.445150000">
        <ele>422.60</ele>
        <time>2017-02-18T06:29:45Z</time>
      </trkpt>
      <trkpt lat="42.487461000" lon="-2.445131000">
        <ele>422.80</ele>
        <time>2017-02-18T06:29:46Z</time>
      </trkpt>
      <trkpt lat="42.487489000" lon="-2.445111000">
        <ele>422.90</ele>
        <time>2017-02-18T06:29:47Z</time>
      </trkpt>
      <trkpt lat="42.487516000" lon="-2.445093000">
        <ele>423.10</ele>
        <time>2017-02-18T06:29:48Z</time>
      </trkpt>
      <trkpt lat="42.487545000" lon="-2.445076000">
        <ele>423.20</ele>
        <time>2017-02-18T06:29:49Z</time>
      </trkpt>
      <trkpt lat="42.487571000" lon="-2.445058000">
        <ele>423.50</ele>
        <time>2017-02-18T06:29:50Z</time>
      </trkpt>
      <trkpt lat="42.487601000" lon="-2.445042000">
        <ele>423.70</ele>
        <time>2017-02-18T06:29:51Z</time>
      </trkpt>
      <trkpt lat="42.487630000" lon="-2.445023000">
        <ele>423.90</ele>
        <time>2017-02-18T06:29:52Z</time>
      </trkpt>
      <trkpt lat="42.487657000" lon="-2.445000000">
        <ele>424.10</ele>
        <time>2017-02-18T06:29:53Z</time>
      </trkpt>
      <trkpt lat="42.487683000" lon="-2.444980000">
        <ele>424.20</ele>
        <time>2017-02-18T06:29:54Z</time>
      </trkpt>
      <trkpt lat="42.487712000" lon="-2.444959000">
        <ele>424.20</ele>
        <time>2017-02-18T06:29:55Z</time>
      </trkpt>
      <trkpt lat="42.487740000" lon="-2.444938000">
        <ele>424.30</ele>
        <time>2017-02-18T06:29:56Z</time>
      </trkpt>
      <trkpt lat="42.487768000" lon="-2.444916000">
        <ele>424.40</ele>
        <time>2017-02-18T06:29:57Z</time>
      </trkpt>
      <trkpt lat="42.487794000" lon="-2.444896000">
        <ele>424.40</ele>
        <time>2017-02-18T06:29:58Z</time>
      </trkpt>
      <trkpt lat="42.487822000" lon="-2.444876000">
        <ele>424.50</ele>
        <time>2017-02-18T06:29:59Z</time>
      </trkpt>
      <trkpt lat="42.487850000" lon="-2.444850000">
        <ele>424.50</ele>
        <time>2017-02-18T06:30:00Z</time>
      </trkpt>
      <trkpt lat="42.487877000" lon="-2.444827000">
        <ele>424.50</ele>
        <time>2017-02-18T06:30:01Z</time>
      </trkpt>
      <trkpt lat="42.487905000" lon="-2.444806000">
        <ele>424.70</ele>
        <time>2017-02-18T06:30:02Z</time>
      </trkpt>
      <trkpt lat="42.487933000" lon="-2.444785000">
        <ele>424.70</ele>
        <time>2017-02-18T06:30:03Z</time>
      </trkpt>
      <trkpt lat="42.487963000" lon="-2.444758000">
        <ele>424.80</ele>
        <time>2017-02-18T06:30:04Z</time>
      </trkpt>
      <trkpt lat="42.487990000" lon="-2.444733000">
        <ele>424.90</ele>
        <time>2017-02-18T06:30:05Z</time>
      </trkpt>
      <trkpt lat="42.488017000" lon="-2.444705000">
        <ele>425.00</ele>
        <time>2017-02-18T06:30:06Z</time>
      </trkpt>
      <trkpt lat="42.488044000" lon="-2.444679000">
        <ele>425.20</ele>
        <time>2017-02-18T06:30:07Z</time>
      </trkpt>
      <trkpt lat="42.488070000" lon="-2.444652000">
        <ele>425.30</ele>
        <time>2017-02-18T06:30:08Z</time>
      </trkpt>
      <trkpt lat="42.488096000" lon="-2.444627000">
        <ele>425.30</ele>
        <time>2017-02-18T06:30:09Z</time>
      </trkpt>
      <trkpt lat="42.488121000" lon="-2.444601000">
        <ele>425.40</ele>
        <time>2017-02-18T06:30:10Z</time>
      </trkpt>
      <trkpt lat="42.488150000" lon="-2.444571000">
        <ele>425.50</ele>
        <time>2017-02-18T06:30:11Z</time>
      </trkpt>
      <trkpt lat="42.488180000" lon="-2.444540000">
        <ele>425.70</ele>
        <time>2017-02-18T06:30:12Z</time>
      </trkpt>
      <trkpt lat="42.488208000" lon="-2.444507000">
        <ele>425.80</ele>
        <time>2017-02-18T06:30:13Z</time>
      </trkpt>
      <trkpt lat="42.488233000" lon="-2.444475000">
        <ele>426.00</ele>
        <time>2017-02-18T06:30:14Z</time>
      </trkpt>
      <trkpt lat="42.488262000" lon="-2.444443000">
        <ele>426.10</ele>
        <time>2017-02-18T06:30:15Z</time>
      </trkpt>
      <trkpt lat="42.488289000" lon="-2.444413000">
        <ele>426.20</ele>
        <time>2017-02-18T06:30:16Z</time>
      </trkpt>
      <trkpt lat="42.488319000" lon="-2.444384000">
        <ele>426.30</ele>
        <time>2017-02-18T06:30:17Z</time>
      </trkpt>
      <trkpt lat="42.488347000" lon="-2.444355000">
        <ele>426.50</ele>
        <time>2017-02-18T06:30:18Z</time>
      </trkpt>
      <trkpt lat="42.488375000" lon="-2.444325000">
        <ele>426.60</ele>
        <time>2017-02-18T06:30:19Z</time>
      </trkpt>
      <trkpt lat="42.488404000" lon="-2.444293000">
        <ele>426.70</ele>
        <time>2017-02-18T06:30:20Z</time>
      </trkpt>
      <trkpt lat="42.488433000" lon="-2.444260000">
        <ele>426.80</ele>
        <time>2017-02-18T06:30:21Z</time>
      </trkpt>
      <trkpt lat="42.488487000" lon="-2.444190000">
        <ele>426.60</ele>
        <time>2017-02-18T06:30:23Z</time>
      </trkpt>
      <trkpt lat="42.488515000" lon="-2.444150000">
        <ele>426.60</ele>
        <time>2017-02-18T06:30:24Z</time>
      </trkpt>
      <trkpt lat="42.488543000" lon="-2.444109000">
        <ele>426.60</ele>
        <time>2017-02-18T06:30:25Z</time>
      </trkpt>
      <trkpt lat="42.488573000" lon="-2.444072000">
        <ele>426.70</ele>
        <time>2017-02-18T06:30:26Z</time>
      </trkpt>
      <trkpt lat="42.488600000" lon="-2.444037000">
        <ele>426.80</ele>
        <time>2017-02-18T06:30:27Z</time>
      </trkpt>
      <trkpt lat="42.488628000" lon="-2.443999000">
        <ele>426.80</ele>
        <time>2017-02-18T06:30:28Z</time>
      </trkpt>
      <trkpt lat="42.488655000" lon="-2.443962000">
        <ele>426.90</ele>
        <time>2017-02-18T06:30:29Z</time>
      </trkpt>
      <trkpt lat="42.488680000" lon="-2.443925000">
        <ele>426.90</ele>
        <time>2017-02-18T06:30:30Z</time>
      </trkpt>
      <trkpt lat="42.488706000" lon="-2.443894000">
        <ele>426.90</ele>
        <time>2017-02-18T06:30:31Z</time>
      </trkpt>
      <trkpt lat="42.488734000" lon="-2.443858000">
        <ele>426.90</ele>
        <time>2017-02-18T06:30:32Z</time>
      </trkpt>
      <trkpt lat="42.488759000" lon="-2.443821000">
        <ele>427.00</ele>
        <time>2017-02-18T06:30:33Z</time>
      </trkpt>
      <trkpt lat="42.488785000" lon="-2.443780000">
        <ele>427.00</ele>
        <time>2017-02-18T06:30:34Z</time>
      </trkpt>
      <trkpt lat="42.488810000" lon="-2.443741000">
        <ele>427.00</ele>
        <time>2017-02-18T06:30:35Z</time>
      </trkpt>
      <trkpt lat="42.488835000" lon="-2.443703000">
        <ele>427.00</ele>
        <time>2017-02-18T06:30:36Z</time>
      </trkpt>
      <trkpt lat="42.488858000" lon="-2.443668000">
        <ele>427.00</ele>
        <time>2017-02-18T06:30:37Z</time>
      </trkpt>
      <trkpt lat="42.488882000" lon="-2.443633000">
        <ele>427.10</ele>
        <time>2017-02-18T06:30:38Z</time>
      </trkpt>
      <trkpt lat="42.488909000" lon="-2.443597000">
        <ele>427.10</ele>
        <time>2017-02-18T06:30:39Z</time>
      </trkpt>
      <trkpt lat="42.488933000" lon="-2.443560000">
        <ele>427.20</ele>
        <time>2017-02-18T06:30:40Z</time>
      </trkpt>
      <trkpt lat="42.488958000" lon="-2.443520000">
        <ele>427.20</ele>
        <time>2017-02-18T06:30:41Z</time>
      </trkpt>
      <trkpt lat="42.488979000" lon="-2.443482000">
        <ele>427.30</ele>
        <time>2017-02-18T06:30:42Z</time>
      </trkpt>
      <trkpt lat="42.489001000" lon="-2.443444000">
        <ele>427.30</ele>
        <time>2017-02-18T06:30:43Z</time>
      </trkpt>
      <trkpt lat="42.489023000" lon="-2.443405000">
        <ele>427.40</ele>
        <time>2017-02-18T06:30:44Z</time>
      </trkpt>
      <trkpt lat="42.489047000" lon="-2.443370000">
        <ele>427.40</ele>
        <time>2017-02-18T06:30:45Z</time>
      </trkpt>
      <trkpt lat="42.489071000" lon="-2.443335000">
        <ele>427.40</ele>
        <time>2017-02-18T06:30:46Z</time>
      </trkpt>
      <trkpt lat="42.489094000" lon="-2.443303000">
        <ele>427.40</ele>
        <time>2017-02-18T06:30:47Z</time>
      </trkpt>
      <trkpt lat="42.489119000" lon="-2.443267000">
        <ele>427.40</ele>
        <time>2017-02-18T06:30:48Z</time>
      </trkpt>
      <trkpt lat="42.489141000" lon="-2.443233000">
        <ele>427.40</ele>
        <time>2017-02-18T06:30:49Z</time>
      </trkpt>
      <trkpt lat="42.489164000" lon="-2.443197000">
        <ele>427.40</ele>
        <time>2017-02-18T06:30:50Z</time>
      </trkpt>
      <trkpt lat="42.489189000" lon="-2.443168000">
        <ele>427.40</ele>
        <time>2017-02-18T06:30:51Z</time>
      </trkpt>
      <trkpt lat="42.489212000" lon="-2.443136000">
        <ele>427.60</ele>
        <time>2017-02-18T06:30:52Z</time>
      </trkpt>
      <trkpt lat="42.489241000" lon="-2.443106000">
        <ele>427.80</ele>
        <time>2017-02-18T06:30:53Z</time>
      </trkpt>
      <trkpt lat="42.489265000" lon="-2.443075000">
        <ele>427.80</ele>
        <time>2017-02-18T06:30:54Z</time>
      </trkpt>
      <trkpt lat="42.489292000" lon="-2.443049000">
        <ele>427.80</ele>
        <time>2017-02-18T06:30:55Z</time>
      </trkpt>
      <trkpt lat="42.489317000" lon="-2.443023000">
        <ele>427.90</ele>
        <time>2017-02-18T06:30:56Z</time>
      </trkpt>
      <trkpt lat="42.489345000" lon="-2.442994000">
        <ele>428.00</ele>
        <time>2017-02-18T06:30:57Z</time>
      </trkpt>
      <trkpt lat="42.489373000" lon="-2.442968000">
        <ele>428.00</ele>
        <time>2017-02-18T06:30:58Z</time>
      </trkpt>
      <trkpt lat="42.489400000" lon="-2.442939000">
        <ele>428.10</ele>
        <time>2017-02-18T06:30:59Z</time>
      </trkpt>
      <trkpt lat="42.489428000" lon="-2.442908000">
        <ele>428.10</ele>
        <time>2017-02-18T06:31:00Z</time>
      </trkpt>
      <trkpt lat="42.489453000" lon="-2.442874000">
        <ele>428.10</ele>
        <time>2017-02-18T06:31:01Z</time>
      </trkpt>
      <trkpt lat="42.489479000" lon="-2.442840000">
        <ele>428.30</ele>
        <time>2017-02-18T06:31:02Z</time>
      </trkpt>
      <trkpt lat="42.489503000" lon="-2.442806000">
        <ele>428.40</ele>
        <time>2017-02-18T06:31:03Z</time>
      </trkpt>
      <trkpt lat="42.489530000" lon="-2.442768000">
        <ele>428.50</ele>
        <time>2017-02-18T06:31:04Z</time>
      </trkpt>
      <trkpt lat="42.489554000" lon="-2.442733000">
        <ele>428.50</ele>
        <time>2017-02-18T06:31:05Z</time>
      </trkpt>
      <trkpt lat="42.489574000" lon="-2.442697000">
        <ele>428.60</ele>
        <time>2017-02-18T06:31:06Z</time>
      </trkpt>
      <trkpt lat="42.489593000" lon="-2.442659000">
        <ele>428.60</ele>
        <time>2017-02-18T06:31:07Z</time>
      </trkpt>
      <trkpt lat="42.489612000" lon="-2.442620000">
        <ele>428.70</ele>
        <time>2017-02-18T06:31:08Z</time>
      </trkpt>
      <trkpt lat="42.489629000" lon="-2.442587000">
        <ele>428.70</ele>
        <time>2017-02-18T06:31:09Z</time>
      </trkpt>
      <trkpt lat="42.489647000" lon="-2.442551000">
        <ele>428.60</ele>
        <time>2017-02-18T06:31:10Z</time>
      </trkpt>
      <trkpt lat="42.489665000" lon="-2.442517000">
        <ele>428.60</ele>
        <time>2017-02-18T06:31:11Z</time>
      </trkpt>
      <trkpt lat="42.489683000" lon="-2.442484000">
        <ele>428.50</ele>
        <time>2017-02-18T06:31:12Z</time>
      </trkpt>
      <trkpt lat="42.489700000" lon="-2.442448000">
        <ele>428.50</ele>
        <time>2017-02-18T06:31:13Z</time>
      </trkpt>
      <trkpt lat="42.489718000" lon="-2.442414000">
        <ele>428.50</ele>
        <time>2017-02-18T06:31:14Z</time>
      </trkpt>
      <trkpt lat="42.489738000" lon="-2.442380000">
        <ele>428.40</ele>
        <time>2017-02-18T06:31:15Z</time>
      </trkpt>
      <trkpt lat="42.489760000" lon="-2.442341000">
        <ele>428.40</ele>
        <time>2017-02-18T06:31:16Z</time>
      </trkpt>
      <trkpt lat="42.489789000" lon="-2.442313000">
        <ele>428.40</ele>
        <time>2017-02-18T06:31:17Z</time>
      </trkpt>
      <trkpt lat="42.489819000" lon="-2.442286000">
        <ele>428.50</ele>
        <time>2017-02-18T06:31:18Z</time>
      </trkpt>
      <trkpt lat="42.489849000" lon="-2.442259000">
        <ele>428.50</ele>
        <time>2017-02-18T06:31:19Z</time>
      </trkpt>
      <trkpt lat="42.489880000" lon="-2.442237000">
        <ele>428.70</ele>
        <time>2017-02-18T06:31:20Z</time>
      </trkpt>
      <trkpt lat="42.489914000" lon="-2.442219000">
        <ele>428.90</ele>
        <time>2017-02-18T06:31:21Z</time>
      </trkpt>
      <trkpt lat="42.489948000" lon="-2.442202000">
        <ele>429.00</ele>
        <time>2017-02-18T06:31:22Z</time>
      </trkpt>
      <trkpt lat="42.490019000" lon="-2.442177000">
        <ele>429.20</ele>
        <time>2017-02-18T06:31:24Z</time>
      </trkpt>
      <trkpt lat="42.490056000" lon="-2.442164000">
        <ele>429.20</ele>
        <time>2017-02-18T06:31:25Z</time>
      </trkpt>
      <trkpt lat="42.490093000" lon="-2.442151000">
        <ele>429.30</ele>
        <time>2017-02-18T06:31:26Z</time>
      </trkpt>
      <trkpt lat="42.490129000" lon="-2.442140000">
        <ele>429.30</ele>
        <time>2017-02-18T06:31:27Z</time>
      </trkpt>
      <trkpt lat="42.490165000" lon="-2.442129000">
        <ele>429.30</ele>
        <time>2017-02-18T06:31:28Z</time>
      </trkpt>
      <trkpt lat="42.490202000" lon="-2.442121000">
        <ele>429.20</ele>
        <time>2017-02-18T06:31:29Z</time>
      </trkpt>
      <trkpt lat="42.490237000" lon="-2.442111000">
        <ele>429.20</ele>
        <time>2017-02-18T06:31:30Z</time>
      </trkpt>
      <trkpt lat="42.490275000" lon="-2.442102000">
        <ele>429.20</ele>
        <time>2017-02-18T06:31:31Z</time>
      </trkpt>
      <trkpt lat="42.490315000" lon="-2.442092000">
        <ele>429.20</ele>
        <time>2017-02-18T06:31:32Z</time>
      </trkpt>
      <trkpt lat="42.490354000" lon="-2.442088000">
        <ele>429.20</ele>
        <time>2017-02-18T06:31:33Z</time>
      </trkpt>
      <trkpt lat="42.490392000" lon="-2.442083000">
        <ele>429.20</ele>
        <time>2017-02-18T06:31:34Z</time>
      </trkpt>
      <trkpt lat="42.490431000" lon="-2.442078000">
        <ele>429.20</ele>
        <time>2017-02-18T06:31:35Z</time>
      </trkpt>
      <trkpt lat="42.490468000" lon="-2.442070000">
        <ele>429.00</ele>
        <time>2017-02-18T06:31:36Z</time>
      </trkpt>
      <trkpt lat="42.490506000" lon="-2.442064000">
        <ele>428.90</ele>
        <time>2017-02-18T06:31:37Z</time>
      </trkpt>
      <trkpt lat="42.490542000" lon="-2.442056000">
        <ele>428.80</ele>
        <time>2017-02-18T06:31:38Z</time>
      </trkpt>
      <trkpt lat="42.490578000" lon="-2.442048000">
        <ele>428.70</ele>
        <time>2017-02-18T06:31:39Z</time>
      </trkpt>
      <trkpt lat="42.490612000" lon="-2.442044000">
        <ele>428.60</ele>
        <time>2017-02-18T06:31:40Z</time>
      </trkpt>
      <trkpt lat="42.490646000" lon="-2.442041000">
        <ele>428.50</ele>
        <time>2017-02-18T06:31:41Z</time>
      </trkpt>
      <trkpt lat="42.490680000" lon="-2.442033000">
        <ele>428.60</ele>
        <time>2017-02-18T06:31:42Z</time>
      </trkpt>
      <trkpt lat="42.490714000" lon="-2.442025000">
        <ele>428.60</ele>
        <time>2017-02-18T06:31:43Z</time>
      </trkpt>
      <trkpt lat="42.490750000" lon="-2.442018000">
        <ele>428.70</ele>
        <time>2017-02-18T06:31:44Z</time>
      </trkpt>
      <trkpt lat="42.490785000" lon="-2.442012000">
        <ele>428.80</ele>
        <time>2017-02-18T06:31:45Z</time>
      </trkpt>
      <trkpt lat="42.490819000" lon="-2.442009000">
        <ele>428.90</ele>
        <time>2017-02-18T06:31:46Z</time>
      </trkpt>
      <trkpt lat="42.490853000" lon="-2.442007000">
        <ele>428.90</ele>
        <time>2017-02-18T06:31:47Z</time>
      </trkpt>
      <trkpt lat="42.490887000" lon="-2.442003000">
        <ele>428.80</ele>
        <time>2017-02-18T06:31:48Z</time>
      </trkpt>
      <trkpt lat="42.490922000" lon="-2.441999000">
        <ele>428.80</ele>
        <time>2017-02-18T06:31:49Z</time>
      </trkpt>
      <trkpt lat="42.490958000" lon="-2.441995000">
        <ele>428.70</ele>
        <time>2017-02-18T06:31:50Z</time>
      </trkpt>
      <trkpt lat="42.490990000" lon="-2.441991000">
        <ele>428.70</ele>
        <time>2017-02-18T06:31:51Z</time>
      </trkpt>
      <trkpt lat="42.491024000" lon="-2.441988000">
        <ele>428.90</ele>
        <time>2017-02-18T06:31:52Z</time>
      </trkpt>
      <trkpt lat="42.491059000" lon="-2.441984000">
        <ele>429.00</ele>
        <time>2017-02-18T06:31:53Z</time>
      </trkpt>
      <trkpt lat="42.491092000" lon="-2.441981000">
        <ele>429.10</ele>
        <time>2017-02-18T06:31:54Z</time>
      </trkpt>
      <trkpt lat="42.491126000" lon="-2.441977000">
        <ele>429.20</ele>
        <time>2017-02-18T06:31:55Z</time>
      </trkpt>
      <trkpt lat="42.491161000" lon="-2.441974000">
        <ele>429.30</ele>
        <time>2017-02-18T06:31:56Z</time>
      </trkpt>
      <trkpt lat="42.491195000" lon="-2.441973000">
        <ele>429.40</ele>
        <time>2017-02-18T06:31:57Z</time>
      </trkpt>
      <trkpt lat="42.491232000" lon="-2.441968000">
        <ele>429.40</ele>
        <time>2017-02-18T06:31:58Z</time>
      </trkpt>
      <trkpt lat="42.491266000" lon="-2.441963000">
        <ele>429.40</ele>
        <time>2017-02-18T06:31:59Z</time>
      </trkpt>
      <trkpt lat="42.491301000" lon="-2.441957000">
        <ele>429.30</ele>
        <time>2017-02-18T06:32:00Z</time>
      </trkpt>
      <trkpt lat="42.491337000" lon="-2.441950000">
        <ele>429.30</ele>
        <time>2017-02-18T06:32:01Z</time>
      </trkpt>
      <trkpt lat="42.491371000" lon="-2.441941000">
        <ele>429.30</ele>
        <time>2017-02-18T06:32:02Z</time>
      </trkpt>
      <trkpt lat="42.491405000" lon="-2.441931000">
        <ele>429.30</ele>
        <time>2017-02-18T06:32:03Z</time>
      </trkpt>
      <trkpt lat="42.491438000" lon="-2.441918000">
        <ele>429.30</ele>
        <time>2017-02-18T06:32:04Z</time>
      </trkpt>
      <trkpt lat="42.491469000" lon="-2.441902000">
        <ele>429.30</ele>
        <time>2017-02-18T06:32:05Z</time>
      </trkpt>
      <trkpt lat="42.491501000" lon="-2.441886000">
        <ele>429.30</ele>
        <time>2017-02-18T06:32:06Z</time>
      </trkpt>
      <trkpt lat="42.491531000" lon="-2.441869000">
        <ele>429.30</ele>
        <time>2017-02-18T06:32:07Z</time>
      </trkpt>
      <trkpt lat="42.491563000" lon="-2.441853000">
        <ele>429.30</ele>
        <time>2017-02-18T06:32:08Z</time>
      </trkpt>
      <trkpt lat="42.491599000" lon="-2.441833000">
        <ele>429.30</ele>
        <time>2017-02-18T06:32:09Z</time>
      </trkpt>
      <trkpt lat="42.491631000" lon="-2.441808000">
        <ele>429.30</ele>
        <time>2017-02-18T06:32:10Z</time>
      </trkpt>
      <trkpt lat="42.491663000" lon="-2.441788000">
        <ele>429.20</ele>
        <time>2017-02-18T06:32:11Z</time>
      </trkpt>
      <trkpt lat="42.491696000" lon="-2.441770000">
        <ele>429.20</ele>
        <time>2017-02-18T06:32:12Z</time>
      </trkpt>
      <trkpt lat="42.491728000" lon="-2.441751000">
        <ele>429.10</ele>
        <time>2017-02-18T06:32:13Z</time>
      </trkpt>
      <trkpt lat="42.491760000" lon="-2.441730000">
        <ele>429.20</ele>
        <time>2017-02-18T06:32:14Z</time>
      </trkpt>
      <trkpt lat="42.491792000" lon="-2.441707000">
        <ele>429.20</ele>
        <time>2017-02-18T06:32:15Z</time>
      </trkpt>
      <trkpt lat="42.491823000" lon="-2.441687000">
        <ele>429.40</ele>
        <time>2017-02-18T06:32:16Z</time>
      </trkpt>
      <trkpt lat="42.491854000" lon="-2.441665000">
        <ele>429.50</ele>
        <time>2017-02-18T06:32:17Z</time>
      </trkpt>
      <trkpt lat="42.491887000" lon="-2.441644000">
        <ele>429.60</ele>
        <time>2017-02-18T06:32:18Z</time>
      </trkpt>
      <trkpt lat="42.491921000" lon="-2.441626000">
        <ele>429.60</ele>
        <time>2017-02-18T06:32:19Z</time>
      </trkpt>
      <trkpt lat="42.491954000" lon="-2.441609000">
        <ele>429.70</ele>
        <time>2017-02-18T06:32:20Z</time>
      </trkpt>
      <trkpt lat="42.491986000" lon="-2.441590000">
        <ele>429.80</ele>
        <time>2017-02-18T06:32:21Z</time>
      </trkpt>
      <trkpt lat="42.492016000" lon="-2.441574000">
        <ele>429.80</ele>
        <time>2017-02-18T06:32:22Z</time>
      </trkpt>
      <trkpt lat="42.492049000" lon="-2.441557000">
        <ele>429.90</ele>
        <time>2017-02-18T06:32:23Z</time>
      </trkpt>
      <trkpt lat="42.492116000" lon="-2.441524000">
        <ele>429.90</ele>
        <time>2017-02-18T06:32:25Z</time>
      </trkpt>
      <trkpt lat="42.492150000" lon="-2.441510000">
        <ele>430.00</ele>
        <time>2017-02-18T06:32:26Z</time>
      </trkpt>
      <trkpt lat="42.492183000" lon="-2.441495000">
        <ele>430.00</ele>
        <time>2017-02-18T06:32:27Z</time>
      </trkpt>
      <trkpt lat="42.492218000" lon="-2.441481000">
        <ele>430.00</ele>
        <time>2017-02-18T06:32:28Z</time>
      </trkpt>
      <trkpt lat="42.492250000" lon="-2.441468000">
        <ele>430.00</ele>
        <time>2017-02-18T06:32:29Z</time>
      </trkpt>
      <trkpt lat="42.492284000" lon="-2.441456000">
        <ele>430.00</ele>
        <time>2017-02-18T06:32:30Z</time>
      </trkpt>
      <trkpt lat="42.492320000" lon="-2.441448000">
        <ele>430.00</ele>
        <time>2017-02-18T06:32:31Z</time>
      </trkpt>
      <trkpt lat="42.492354000" lon="-2.441434000">
        <ele>430.00</ele>
        <time>2017-02-18T06:32:32Z</time>
      </trkpt>
      <trkpt lat="42.492390000" lon="-2.441423000">
        <ele>430.10</ele>
        <time>2017-02-18T06:32:33Z</time>
      </trkpt>
      <trkpt lat="42.492424000" lon="-2.441412000">
        <ele>430.10</ele>
        <time>2017-02-18T06:32:34Z</time>
      </trkpt>
      <trkpt lat="42.492456000" lon="-2.441398000">
        <ele>430.10</ele>
        <time>2017-02-18T06:32:35Z</time>
      </trkpt>
      <trkpt lat="42.492489000" lon="-2.441383000">
        <ele>430.10</ele>
        <time>2017-02-18T06:32:36Z</time>
      </trkpt>
      <trkpt lat="42.492521000" lon="-2.441367000">
        <ele>430.10</ele>
        <time>2017-02-18T06:32:37Z</time>
      </trkpt>
      <trkpt lat="42.492552000" lon="-2.441351000">
        <ele>430.10</ele>
        <time>2017-02-18T06:32:38Z</time>
      </trkpt>
      <trkpt lat="42.492583000" lon="-2.441336000">
        <ele>430.20</ele>
        <time>2017-02-18T06:32:39Z</time>
      </trkpt>
      <trkpt lat="42.492615000" lon="-2.441319000">
        <ele>430.20</ele>
        <time>2017-02-18T06:32:40Z</time>
      </trkpt>
      <trkpt lat="42.492645000" lon="-2.441303000">
        <ele>430.20</ele>
        <time>2017-02-18T06:32:41Z</time>
      </trkpt>
      <trkpt lat="42.492679000" lon="-2.441289000">
        <ele>430.20</ele>
        <time>2017-02-18T06:32:42Z</time>
      </trkpt>
      <trkpt lat="42.492712000" lon="-2.441277000">
        <ele>430.20</ele>
        <time>2017-02-18T06:32:43Z</time>
      </trkpt>
      <trkpt lat="42.492743000" lon="-2.441264000">
        <ele>430.30</ele>
        <time>2017-02-18T06:32:44Z</time>
      </trkpt>
      <trkpt lat="42.492775000" lon="-2.441251000">
        <ele>430.40</ele>
        <time>2017-02-18T06:32:45Z</time>
      </trkpt>
      <trkpt lat="42.492808000" lon="-2.441237000">
        <ele>430.50</ele>
        <time>2017-02-18T06:32:46Z</time>
      </trkpt>
      <trkpt lat="42.492841000" lon="-2.441225000">
        <ele>430.50</ele>
        <time>2017-02-18T06:32:47Z</time>
      </trkpt>
      <trkpt lat="42.492874000" lon="-2.441213000">
        <ele>430.60</ele>
        <time>2017-02-18T06:32:48Z</time>
      </trkpt>
      <trkpt lat="42.492908000" lon="-2.441200000">
        <ele>430.60</ele>
        <time>2017-02-18T06:32:49Z</time>
      </trkpt>
      <trkpt lat="42.492940000" lon="-2.441187000">
        <ele>430.70</ele>
        <time>2017-02-18T06:32:50Z</time>
      </trkpt>
      <trkpt lat="42.492973000" lon="-2.441174000">
        <ele>430.70</ele>
        <time>2017-02-18T06:32:51Z</time>
      </trkpt>
      <trkpt lat="42.493006000" lon="-2.441159000">
        <ele>430.80</ele>
        <time>2017-02-18T06:32:52Z</time>
      </trkpt>
      <trkpt lat="42.493039000" lon="-2.441145000">
        <ele>430.80</ele>
        <time>2017-02-18T06:32:53Z</time>
      </trkpt>
      <trkpt lat="42.493073000" lon="-2.441130000">
        <ele>431.00</ele>
        <time>2017-02-18T06:32:54Z</time>
      </trkpt>
      <trkpt lat="42.493105000" lon="-2.441116000">
        <ele>431.10</ele>
        <time>2017-02-18T06:32:55Z</time>
      </trkpt>
      <trkpt lat="42.493139000" lon="-2.441101000">
        <ele>431.20</ele>
        <time>2017-02-18T06:32:56Z</time>
      </trkpt>
      <trkpt lat="42.493171000" lon="-2.441086000">
        <ele>431.30</ele>
        <time>2017-02-18T06:32:57Z</time>
      </trkpt>
      <trkpt lat="42.493204000" lon="-2.441072000">
        <ele>431.30</ele>
        <time>2017-02-18T06:32:58Z</time>
      </trkpt>
      <trkpt lat="42.493236000" lon="-2.441058000">
        <ele>431.30</ele>
        <time>2017-02-18T06:32:59Z</time>
      </trkpt>
      <trkpt lat="42.493267000" lon="-2.441045000">
        <ele>431.40</ele>
        <time>2017-02-18T06:33:00Z</time>
      </trkpt>
      <trkpt lat="42.493299000" lon="-2.441029000">
        <ele>431.40</ele>
        <time>2017-02-18T06:33:01Z</time>
      </trkpt>
      <trkpt lat="42.493329000" lon="-2.441014000">
        <ele>431.30</ele>
        <time>2017-02-18T06:33:02Z</time>
      </trkpt>
      <trkpt lat="42.493361000" lon="-2.440997000">
        <ele>431.30</ele>
        <time>2017-02-18T06:33:03Z</time>
      </trkpt>
      <trkpt lat="42.493391000" lon="-2.440983000">
        <ele>431.30</ele>
        <time>2017-02-18T06:33:04Z</time>
      </trkpt>
      <trkpt lat="42.493424000" lon="-2.440964000">
        <ele>431.30</ele>
        <time>2017-02-18T06:33:05Z</time>
      </trkpt>
      <trkpt lat="42.493455000" lon="-2.440948000">
        <ele>431.30</ele>
        <time>2017-02-18T06:33:06Z</time>
      </trkpt>
      <trkpt lat="42.493488000" lon="-2.440931000">
        <ele>431.30</ele>
        <time>2017-02-18T06:33:07Z</time>
      </trkpt>
      <trkpt lat="42.493520000" lon="-2.440914000">
        <ele>431.40</ele>
        <time>2017-02-18T06:33:08Z</time>
      </trkpt>
      <trkpt lat="42.493552000" lon="-2.440899000">
        <ele>431.50</ele>
        <time>2017-02-18T06:33:09Z</time>
      </trkpt>
      <trkpt lat="42.493584000" lon="-2.440888000">
        <ele>431.70</ele>
        <time>2017-02-18T06:33:10Z</time>
      </trkpt>
      <trkpt lat="42.493618000" lon="-2.440872000">
        <ele>431.90</ele>
        <time>2017-02-18T06:33:11Z</time>
      </trkpt>
      <trkpt lat="42.493649000" lon="-2.440855000">
        <ele>432.00</ele>
        <time>2017-02-18T06:33:12Z</time>
      </trkpt>
      <trkpt lat="42.493682000" lon="-2.440837000">
        <ele>432.10</ele>
        <time>2017-02-18T06:33:13Z</time>
      </trkpt>
      <trkpt lat="42.493716000" lon="-2.440822000">
        <ele>432.20</ele>
        <time>2017-02-18T06:33:14Z</time>
      </trkpt>
      <trkpt lat="42.493752000" lon="-2.440810000">
        <ele>432.20</ele>
        <time>2017-02-18T06:33:15Z</time>
      </trkpt>
      <trkpt lat="42.493785000" lon="-2.440797000">
        <ele>432.30</ele>
        <time>2017-02-18T06:33:16Z</time>
      </trkpt>
      <trkpt lat="42.493817000" lon="-2.440778000">
        <ele>432.30</ele>
        <time>2017-02-18T06:33:17Z</time>
      </trkpt>
      <trkpt lat="42.493850000" lon="-2.440762000">
        <ele>432.40</ele>
        <time>2017-02-18T06:33:18Z</time>
      </trkpt>
      <trkpt lat="42.493881000" lon="-2.440744000">
        <ele>432.50</ele>
        <time>2017-02-18T06:33:19Z</time>
      </trkpt>
      <trkpt lat="42.493911000" lon="-2.440731000">
        <ele>432.50</ele>
        <time>2017-02-18T06:33:20Z</time>
      </trkpt>
      <trkpt lat="42.493941000" lon="-2.440716000">
        <ele>432.60</ele>
        <time>2017-02-18T06:33:21Z</time>
      </trkpt>
      <trkpt lat="42.493973000" lon="-2.440701000">
        <ele>432.60</ele>
        <time>2017-02-18T06:33:22Z</time>
      </trkpt>
      <trkpt lat="42.494004000" lon="-2.440688000">
        <ele>432.60</ele>
        <time>2017-02-18T06:33:23Z</time>
      </trkpt>
      <trkpt lat="42.494036000" lon="-2.440674000">
        <ele>432.70</ele>
        <time>2017-02-18T06:33:24Z</time>
      </trkpt>
      <trkpt lat="42.494103000" lon="-2.440641000">
        <ele>432.80</ele>
        <time>2017-02-18T06:33:26Z</time>
      </trkpt>
      <trkpt lat="42.494136000" lon="-2.440627000">
        <ele>432.80</ele>
        <time>2017-02-18T06:33:27Z</time>
      </trkpt>
      <trkpt lat="42.494167000" lon="-2.440611000">
        <ele>432.80</ele>
        <time>2017-02-18T06:33:28Z</time>
      </trkpt>
      <trkpt lat="42.494199000" lon="-2.440597000">
        <ele>432.90</ele>
        <time>2017-02-18T06:33:29Z</time>
      </trkpt>
      <trkpt lat="42.494231000" lon="-2.440577000">
        <ele>432.90</ele>
        <time>2017-02-18T06:33:30Z</time>
      </trkpt>
      <trkpt lat="42.494262000" lon="-2.440560000">
        <ele>432.90</ele>
        <time>2017-02-18T06:33:31Z</time>
      </trkpt>
      <trkpt lat="42.494295000" lon="-2.440542000">
        <ele>432.80</ele>
        <time>2017-02-18T06:33:32Z</time>
      </trkpt>
      <trkpt lat="42.494329000" lon="-2.440524000">
        <ele>432.80</ele>
        <time>2017-02-18T06:33:33Z</time>
      </trkpt>
      <trkpt lat="42.494363000" lon="-2.440505000">
        <ele>432.80</ele>
        <time>2017-02-18T06:33:34Z</time>
      </trkpt>
      <trkpt lat="42.494397000" lon="-2.440485000">
        <ele>432.80</ele>
        <time>2017-02-18T06:33:35Z</time>
      </trkpt>
      <trkpt lat="42.494429000" lon="-2.440469000">
        <ele>433.00</ele>
        <time>2017-02-18T06:33:36Z</time>
      </trkpt>
      <trkpt lat="42.494460000" lon="-2.440453000">
        <ele>433.10</ele>
        <time>2017-02-18T06:33:37Z</time>
      </trkpt>
      <trkpt lat="42.494493000" lon="-2.440437000">
        <ele>433.30</ele>
        <time>2017-02-18T06:33:38Z</time>
      </trkpt>
      <trkpt lat="42.494524000" lon="-2.440421000">
        <ele>433.40</ele>
        <time>2017-02-18T06:33:39Z</time>
      </trkpt>
      <trkpt lat="42.494554000" lon="-2.440407000">
        <ele>433.50</ele>
        <time>2017-02-18T06:33:40Z</time>
      </trkpt>
      <trkpt lat="42.494585000" lon="-2.440396000">
        <ele>433.60</ele>
        <time>2017-02-18T06:33:41Z</time>
      </trkpt>
      <trkpt lat="42.494616000" lon="-2.440383000">
        <ele>433.60</ele>
        <time>2017-02-18T06:33:42Z</time>
      </trkpt>
      <trkpt lat="42.494647000" lon="-2.440371000">
        <ele>433.60</ele>
        <time>2017-02-18T06:33:43Z</time>
      </trkpt>
      <trkpt lat="42.494679000" lon="-2.440359000">
        <ele>433.60</ele>
        <time>2017-02-18T06:33:44Z</time>
      </trkpt>
      <trkpt lat="42.494712000" lon="-2.440349000">
        <ele>433.60</ele>
        <time>2017-02-18T06:33:45Z</time>
      </trkpt>
      <trkpt lat="42.494746000" lon="-2.440336000">
        <ele>433.90</ele>
        <time>2017-02-18T06:33:46Z</time>
      </trkpt>
      <trkpt lat="42.494777000" lon="-2.440322000">
        <ele>434.10</ele>
        <time>2017-02-18T06:33:47Z</time>
      </trkpt>
      <trkpt lat="42.494810000" lon="-2.440309000">
        <ele>434.20</ele>
        <time>2017-02-18T06:33:48Z</time>
      </trkpt>
      <trkpt lat="42.494845000" lon="-2.440298000">
        <ele>434.30</ele>
        <time>2017-02-18T06:33:49Z</time>
      </trkpt>
      <trkpt lat="42.494878000" lon="-2.440285000">
        <ele>434.40</ele>
        <time>2017-02-18T06:33:50Z</time>
      </trkpt>
      <trkpt lat="42.494915000" lon="-2.440273000">
        <ele>434.50</ele>
        <time>2017-02-18T06:33:51Z</time>
      </trkpt>
      <trkpt lat="42.494950000" lon="-2.440263000">
        <ele>434.50</ele>
        <time>2017-02-18T06:33:52Z</time>
      </trkpt>
      <trkpt lat="42.494985000" lon="-2.440251000">
        <ele>434.50</ele>
        <time>2017-02-18T06:33:53Z</time>
      </trkpt>
      <trkpt lat="42.495018000" lon="-2.440239000">
        <ele>434.70</ele>
        <time>2017-02-18T06:33:54Z</time>
      </trkpt>
      <trkpt lat="42.495053000" lon="-2.440227000">
        <ele>434.80</ele>
        <time>2017-02-18T06:33:55Z</time>
      </trkpt>
      <trkpt lat="42.495086000" lon="-2.440213000">
        <ele>434.90</ele>
        <time>2017-02-18T06:33:56Z</time>
      </trkpt>
      <trkpt lat="42.495122000" lon="-2.440201000">
        <ele>435.00</ele>
        <time>2017-02-18T06:33:57Z</time>
      </trkpt>
      <trkpt lat="42.495157000" lon="-2.440189000">
        <ele>435.40</ele>
        <time>2017-02-18T06:33:58Z</time>
      </trkpt>
      <trkpt lat="42.495189000" lon="-2.440181000">
        <ele>435.60</ele>
        <time>2017-02-18T06:33:59Z</time>
      </trkpt>
      <trkpt lat="42.495221000" lon="-2.440172000">
        <ele>435.80</ele>
        <time>2017-02-18T06:34:00Z</time>
      </trkpt>
      <trkpt lat="42.495253000" lon="-2.440168000">
        <ele>435.90</ele>
        <time>2017-02-18T06:34:01Z</time>
      </trkpt>
      <trkpt lat="42.495286000" lon="-2.440165000">
        <ele>436.10</ele>
        <time>2017-02-18T06:34:02Z</time>
      </trkpt>
      <trkpt lat="42.495320000" lon="-2.440166000">
        <ele>436.20</ele>
        <time>2017-02-18T06:34:03Z</time>
      </trkpt>
      <trkpt lat="42.495354000" lon="-2.440171000">
        <ele>436.30</ele>
        <time>2017-02-18T06:34:04Z</time>
      </trkpt>
      <trkpt lat="42.495391000" lon="-2.440172000">
        <ele>436.30</ele>
        <time>2017-02-18T06:34:05Z</time>
      </trkpt>
      <trkpt lat="42.495428000" lon="-2.440174000">
        <ele>436.50</ele>
        <time>2017-02-18T06:34:06Z</time>
      </trkpt>
      <trkpt lat="42.495462000" lon="-2.440174000">
        <ele>436.70</ele>
        <time>2017-02-18T06:34:07Z</time>
      </trkpt>
      <trkpt lat="42.495495000" lon="-2.440173000">
        <ele>436.80</ele>
        <time>2017-02-18T06:34:08Z</time>
      </trkpt>
      <trkpt lat="42.495531000" lon="-2.440174000">
        <ele>436.90</ele>
        <time>2017-02-18T06:34:09Z</time>
      </trkpt>
      <trkpt lat="42.495566000" lon="-2.440176000">
        <ele>437.00</ele>
        <time>2017-02-18T06:34:10Z</time>
      </trkpt>
      <trkpt lat="42.495602000" lon="-2.440175000">
        <ele>437.10</ele>
        <time>2017-02-18T06:34:11Z</time>
      </trkpt>
      <trkpt lat="42.495639000" lon="-2.440173000">
        <ele>437.10</ele>
        <time>2017-02-18T06:34:12Z</time>
      </trkpt>
      <trkpt lat="42.495676000" lon="-2.440170000">
        <ele>437.10</ele>
        <time>2017-02-18T06:34:13Z</time>
      </trkpt>
      <trkpt lat="42.495713000" lon="-2.440165000">
        <ele>437.00</ele>
        <time>2017-02-18T06:34:14Z</time>
      </trkpt>
      <trkpt lat="42.495750000" lon="-2.440162000">
        <ele>437.00</ele>
        <time>2017-02-18T06:34:15Z</time>
      </trkpt>
      <trkpt lat="42.495786000" lon="-2.440155000">
        <ele>437.00</ele>
        <time>2017-02-18T06:34:16Z</time>
      </trkpt>
      <trkpt lat="42.495824000" lon="-2.440146000">
        <ele>436.90</ele>
        <time>2017-02-18T06:34:17Z</time>
      </trkpt>
      <trkpt lat="42.495861000" lon="-2.440136000">
        <ele>437.00</ele>
        <time>2017-02-18T06:34:18Z</time>
      </trkpt>
      <trkpt lat="42.495897000" lon="-2.440125000">
        <ele>437.00</ele>
        <time>2017-02-18T06:34:19Z</time>
      </trkpt>
      <trkpt lat="42.495935000" lon="-2.440116000">
        <ele>437.10</ele>
        <time>2017-02-18T06:34:20Z</time>
      </trkpt>
      <trkpt lat="42.495971000" lon="-2.440103000">
        <ele>437.10</ele>
        <time>2017-02-18T06:34:21Z</time>
      </trkpt>
      <trkpt lat="42.496008000" lon="-2.440092000">
        <ele>437.20</ele>
        <time>2017-02-18T06:34:22Z</time>
      </trkpt>
      <trkpt lat="42.496044000" lon="-2.440081000">
        <ele>437.20</ele>
        <time>2017-02-18T06:34:23Z</time>
      </trkpt>
      <trkpt lat="42.496081000" lon="-2.440069000">
        <ele>437.10</ele>
        <time>2017-02-18T06:34:24Z</time>
      </trkpt>
      <trkpt lat="42.496116000" lon="-2.440060000">
        <ele>437.00</ele>
        <time>2017-02-18T06:34:25Z</time>
      </trkpt>
      <trkpt lat="42.496189000" lon="-2.440048000">
        <ele>436.90</ele>
        <time>2017-02-18T06:34:27Z</time>
      </trkpt>
      <trkpt lat="42.496225000" lon="-2.440041000">
        <ele>437.10</ele>
        <time>2017-02-18T06:34:28Z</time>
      </trkpt>
      <trkpt lat="42.496259000" lon="-2.440034000">
        <ele>437.20</ele>
        <time>2017-02-18T06:34:29Z</time>
      </trkpt>
      <trkpt lat="42.496295000" lon="-2.440026000">
        <ele>437.40</ele>
        <time>2017-02-18T06:34:30Z</time>
      </trkpt>
      <trkpt lat="42.496334000" lon="-2.440019000">
        <ele>437.60</ele>
        <time>2017-02-18T06:34:31Z</time>
      </trkpt>
      <trkpt lat="42.496373000" lon="-2.440013000">
        <ele>437.70</ele>
        <time>2017-02-18T06:34:32Z</time>
      </trkpt>
      <trkpt lat="42.496412000" lon="-2.440006000">
        <ele>437.80</ele>
        <time>2017-02-18T06:34:33Z</time>
      </trkpt>
      <trkpt lat="42.496450000" lon="-2.440000000">
        <ele>437.90</ele>
        <time>2017-02-18T06:34:34Z</time>
      </trkpt>
      <trkpt lat="42.496486000" lon="-2.439992000">
        <ele>438.00</ele>
        <time>2017-02-18T06:34:35Z</time>
      </trkpt>
      <trkpt lat="42.496522000" lon="-2.439983000">
        <ele>438.10</ele>
        <time>2017-02-18T06:34:36Z</time>
      </trkpt>
      <trkpt lat="42.496556000" lon="-2.439978000">
        <ele>438.20</ele>
        <time>2017-02-18T06:34:37Z</time>
      </trkpt>
      <trkpt lat="42.496590000" lon="-2.439971000">
        <ele>438.20</ele>
        <time>2017-02-18T06:34:38Z</time>
      </trkpt>
      <trkpt lat="42.496627000" lon="-2.439964000">
        <ele>438.20</ele>
        <time>2017-02-18T06:34:39Z</time>
      </trkpt>
      <trkpt lat="42.496661000" lon="-2.439959000">
        <ele>438.30</ele>
        <time>2017-02-18T06:34:40Z</time>
      </trkpt>
      <trkpt lat="42.496699000" lon="-2.439951000">
        <ele>438.30</ele>
        <time>2017-02-18T06:34:41Z</time>
      </trkpt>
      <trkpt lat="42.496734000" lon="-2.439951000">
        <ele>438.30</ele>
        <time>2017-02-18T06:34:42Z</time>
      </trkpt>
      <trkpt lat="42.496769000" lon="-2.439946000">
        <ele>438.30</ele>
        <time>2017-02-18T06:34:43Z</time>
      </trkpt>
      <trkpt lat="42.496803000" lon="-2.439941000">
        <ele>438.30</ele>
        <time>2017-02-18T06:34:44Z</time>
      </trkpt>
      <trkpt lat="42.496840000" lon="-2.439932000">
        <ele>438.50</ele>
        <time>2017-02-18T06:34:45Z</time>
      </trkpt>
      <trkpt lat="42.496877000" lon="-2.439920000">
        <ele>438.70</ele>
        <time>2017-02-18T06:34:46Z</time>
      </trkpt>
      <trkpt lat="42.496913000" lon="-2.439912000">
        <ele>438.80</ele>
        <time>2017-02-18T06:34:47Z</time>
      </trkpt>
      <trkpt lat="42.496949000" lon="-2.439905000">
        <ele>438.90</ele>
        <time>2017-02-18T06:34:48Z</time>
      </trkpt>
      <trkpt lat="42.496989000" lon="-2.439895000">
        <ele>438.80</ele>
        <time>2017-02-18T06:34:49Z</time>
      </trkpt>
      <trkpt lat="42.497025000" lon="-2.439884000">
        <ele>438.70</ele>
        <time>2017-02-18T06:34:50Z</time>
      </trkpt>
      <trkpt lat="42.497060000" lon="-2.439874000">
        <ele>438.70</ele>
        <time>2017-02-18T06:34:51Z</time>
      </trkpt>
      <trkpt lat="42.497098000" lon="-2.439860000">
        <ele>438.60</ele>
        <time>2017-02-18T06:34:52Z</time>
      </trkpt>
      <trkpt lat="42.497135000" lon="-2.439849000">
        <ele>438.80</ele>
        <time>2017-02-18T06:34:53Z</time>
      </trkpt>
      <trkpt lat="42.497169000" lon="-2.439839000">
        <ele>438.90</ele>
        <time>2017-02-18T06:34:54Z</time>
      </trkpt>
      <trkpt lat="42.497203000" lon="-2.439833000">
        <ele>439.00</ele>
        <time>2017-02-18T06:34:55Z</time>
      </trkpt>
      <trkpt lat="42.497238000" lon="-2.439827000">
        <ele>439.00</ele>
        <time>2017-02-18T06:34:56Z</time>
      </trkpt>
      <trkpt lat="42.497275000" lon="-2.439826000">
        <ele>439.10</ele>
        <time>2017-02-18T06:34:57Z</time>
      </trkpt>
      <trkpt lat="42.497307000" lon="-2.439820000">
        <ele>439.20</ele>
        <time>2017-02-18T06:34:58Z</time>
      </trkpt>
      <trkpt lat="42.497342000" lon="-2.439813000">
        <ele>439.30</ele>
        <time>2017-02-18T06:34:59Z</time>
      </trkpt>
      <trkpt lat="42.497372000" lon="-2.439809000">
        <ele>439.30</ele>
        <time>2017-02-18T06:35:00Z</time>
      </trkpt>
      <trkpt lat="42.497404000" lon="-2.439801000">
        <ele>439.30</ele>
        <time>2017-02-18T06:35:01Z</time>
      </trkpt>
      <trkpt lat="42.497438000" lon="-2.439790000">
        <ele>439.40</ele>
        <time>2017-02-18T06:35:02Z</time>
      </trkpt>
      <trkpt lat="42.497472000" lon="-2.439780000">
        <ele>439.50</ele>
        <time>2017-02-18T06:35:03Z</time>
      </trkpt>
      <trkpt lat="42.497504000" lon="-2.439774000">
        <ele>439.50</ele>
        <time>2017-02-18T06:35:04Z</time>
      </trkpt>
      <trkpt lat="42.497537000" lon="-2.439769000">
        <ele>439.50</ele>
        <time>2017-02-18T06:35:05Z</time>
      </trkpt>
      <trkpt lat="42.497571000" lon="-2.439764000">
        <ele>439.50</ele>
        <time>2017-02-18T06:35:06Z</time>
      </trkpt>
      <trkpt lat="42.497607000" lon="-2.439765000">
        <ele>439.50</ele>
        <time>2017-02-18T06:35:07Z</time>
      </trkpt>
      <trkpt lat="42.497641000" lon="-2.439757000">
        <ele>439.50</ele>
        <time>2017-02-18T06:35:08Z</time>
      </trkpt>
      <trkpt lat="42.497676000" lon="-2.439751000">
        <ele>439.50</ele>
        <time>2017-02-18T06:35:09Z</time>
      </trkpt>
      <trkpt lat="42.497711000" lon="-2.439745000">
        <ele>439.50</ele>
        <time>2017-02-18T06:35:10Z</time>
      </trkpt>
      <trkpt lat="42.497746000" lon="-2.439736000">
        <ele>439.60</ele>
        <time>2017-02-18T06:35:11Z</time>
      </trkpt>
      <trkpt lat="42.497781000" lon="-2.439727000">
        <ele>439.70</ele>
        <time>2017-02-18T06:35:12Z</time>
      </trkpt>
      <trkpt lat="42.497815000" lon="-2.439719000">
        <ele>439.90</ele>
        <time>2017-02-18T06:35:13Z</time>
      </trkpt>
      <trkpt lat="42.497849000" lon="-2.439707000">
        <ele>440.00</ele>
        <time>2017-02-18T06:35:14Z</time>
      </trkpt>
      <trkpt lat="42.497887000" lon="-2.439696000">
        <ele>440.00</ele>
        <time>2017-02-18T06:35:15Z</time>
      </trkpt>
      <trkpt lat="42.497922000" lon="-2.439683000">
        <ele>440.10</ele>
        <time>2017-02-18T06:35:16Z</time>
      </trkpt>
      <trkpt lat="42.497956000" lon="-2.439671000">
        <ele>440.10</ele>
        <time>2017-02-18T06:35:17Z</time>
      </trkpt>
      <trkpt lat="42.497988000" lon="-2.439658000">
        <ele>440.10</ele>
        <time>2017-02-18T06:35:18Z</time>
      </trkpt>
      <trkpt lat="42.498020000" lon="-2.439644000">
        <ele>440.10</ele>
        <time>2017-02-18T06:35:19Z</time>
      </trkpt>
      <trkpt lat="42.498052000" lon="-2.439630000">
        <ele>440.10</ele>
        <time>2017-02-18T06:35:20Z</time>
      </trkpt>
      <trkpt lat="42.498085000" lon="-2.439617000">
        <ele>440.20</ele>
        <time>2017-02-18T06:35:21Z</time>
      </trkpt>
      <trkpt lat="42.498117000" lon="-2.439604000">
        <ele>440.30</ele>
        <time>2017-02-18T06:35:22Z</time>
      </trkpt>
      <trkpt lat="42.498150000" lon="-2.439587000">
        <ele>440.40</ele>
        <time>2017-02-18T06:35:23Z</time>
      </trkpt>
      <trkpt lat="42.498181000" lon="-2.439574000">
        <ele>440.50</ele>
        <time>2017-02-18T06:35:24Z</time>
      </trkpt>
      <trkpt lat="42.498212000" lon="-2.439559000">
        <ele>440.60</ele>
        <time>2017-02-18T06:35:25Z</time>
      </trkpt>
      <trkpt lat="42.498245000" lon="-2.439542000">
        <ele>440.80</ele>
        <time>2017-02-18T06:35:26Z</time>
      </trkpt>
      <trkpt lat="42.498307000" lon="-2.439507000">
        <ele>441.10</ele>
        <time>2017-02-18T06:35:28Z</time>
      </trkpt>
      <trkpt lat="42.498336000" lon="-2.439489000">
        <ele>441.10</ele>
        <time>2017-02-18T06:35:29Z</time>
      </trkpt>
      <trkpt lat="42.498366000" lon="-2.439475000">
        <ele>441.10</ele>
        <time>2017-02-18T06:35:30Z</time>
      </trkpt>
      <trkpt lat="42.498397000" lon="-2.439460000">
        <ele>441.20</ele>
        <time>2017-02-18T06:35:31Z</time>
      </trkpt>
      <trkpt lat="42.498428000" lon="-2.439446000">
        <ele>441.20</ele>
        <time>2017-02-18T06:35:32Z</time>
      </trkpt>
      <trkpt lat="42.498458000" lon="-2.439429000">
        <ele>441.50</ele>
        <time>2017-02-18T06:35:33Z</time>
      </trkpt>
      <trkpt lat="42.498488000" lon="-2.439412000">
        <ele>441.70</ele>
        <time>2017-02-18T06:35:34Z</time>
      </trkpt>
      <trkpt lat="42.498517000" lon="-2.439396000">
        <ele>441.90</ele>
        <time>2017-02-18T06:35:35Z</time>
      </trkpt>
      <trkpt lat="42.498546000" lon="-2.439380000">
        <ele>442.00</ele>
        <time>2017-02-18T06:35:36Z</time>
      </trkpt>
      <trkpt lat="42.498577000" lon="-2.439361000">
        <ele>442.10</ele>
        <time>2017-02-18T06:35:37Z</time>
      </trkpt>
      <trkpt lat="42.498607000" lon="-2.439341000">
        <ele>442.20</ele>
        <time>2017-02-18T06:35:38Z</time>
      </trkpt>
      <trkpt lat="42.498637000" lon="-2.439325000">
        <ele>442.20</ele>
        <time>2017-02-18T06:35:39Z</time>
      </trkpt>
      <trkpt lat="42.498666000" lon="-2.439311000">
        <ele>442.30</ele>
        <time>2017-02-18T06:35:40Z</time>
      </trkpt>
      <trkpt lat="42.498699000" lon="-2.439297000">
        <ele>442.30</ele>
        <time>2017-02-18T06:35:41Z</time>
      </trkpt>
      <trkpt lat="42.498732000" lon="-2.439284000">
        <ele>442.30</ele>
        <time>2017-02-18T06:35:42Z</time>
      </trkpt>
      <trkpt lat="42.498767000" lon="-2.439273000">
        <ele>442.30</ele>
        <time>2017-02-18T06:35:43Z</time>
      </trkpt>
      <trkpt lat="42.498801000" lon="-2.439262000">
        <ele>442.30</ele>
        <time>2017-02-18T06:35:44Z</time>
      </trkpt>
      <trkpt lat="42.498833000" lon="-2.439251000">
        <ele>442.40</ele>
        <time>2017-02-18T06:35:45Z</time>
      </trkpt>
      <trkpt lat="42.498866000" lon="-2.439239000">
        <ele>442.50</ele>
        <time>2017-02-18T06:35:46Z</time>
      </trkpt>
      <trkpt lat="42.498899000" lon="-2.439223000">
        <ele>442.60</ele>
        <time>2017-02-18T06:35:47Z</time>
      </trkpt>
      <trkpt lat="42.498931000" lon="-2.439206000">
        <ele>442.80</ele>
        <time>2017-02-18T06:35:48Z</time>
      </trkpt>
      <trkpt lat="42.498963000" lon="-2.439192000">
        <ele>442.90</ele>
        <time>2017-02-18T06:35:49Z</time>
      </trkpt>
      <trkpt lat="42.498997000" lon="-2.439181000">
        <ele>443.00</ele>
        <time>2017-02-18T06:35:50Z</time>
      </trkpt>
      <trkpt lat="42.499029000" lon="-2.439170000">
        <ele>443.10</ele>
        <time>2017-02-18T06:35:51Z</time>
      </trkpt>
      <trkpt lat="42.499061000" lon="-2.439158000">
        <ele>443.20</ele>
        <time>2017-02-18T06:35:52Z</time>
      </trkpt>
      <trkpt lat="42.499095000" lon="-2.439147000">
        <ele>443.20</ele>
        <time>2017-02-18T06:35:53Z</time>
      </trkpt>
      <trkpt lat="42.499129000" lon="-2.439136000">
        <ele>443.30</ele>
        <time>2017-02-18T06:35:54Z</time>
      </trkpt>
      <trkpt lat="42.499161000" lon="-2.439128000">
        <ele>443.30</ele>
        <time>2017-02-18T06:35:55Z</time>
      </trkpt>
      <trkpt lat="42.499195000" lon="-2.439122000">
        <ele>443.30</ele>
        <time>2017-02-18T06:35:56Z</time>
      </trkpt>
      <trkpt lat="42.499229000" lon="-2.439113000">
        <ele>443.40</ele>
        <time>2017-02-18T06:35:57Z</time>
      </trkpt>
      <trkpt lat="42.499261000" lon="-2.439104000">
        <ele>443.50</ele>
        <time>2017-02-18T06:35:58Z</time>
      </trkpt>
      <trkpt lat="42.499294000" lon="-2.439095000">
        <ele>443.50</ele>
        <time>2017-02-18T06:35:59Z</time>
      </trkpt>
      <trkpt lat="42.499324000" lon="-2.439084000">
        <ele>443.60</ele>
        <time>2017-02-18T06:36:00Z</time>
      </trkpt>
      <trkpt lat="42.499356000" lon="-2.439073000">
        <ele>443.60</ele>
        <time>2017-02-18T06:36:01Z</time>
      </trkpt>
      <trkpt lat="42.499389000" lon="-2.439064000">
        <ele>443.60</ele>
        <time>2017-02-18T06:36:02Z</time>
      </trkpt>
      <trkpt lat="42.499421000" lon="-2.439056000">
        <ele>443.70</ele>
        <time>2017-02-18T06:36:03Z</time>
      </trkpt>
      <trkpt lat="42.499454000" lon="-2.439048000">
        <ele>443.70</ele>
        <time>2017-02-18T06:36:04Z</time>
      </trkpt>
      <trkpt lat="42.499487000" lon="-2.439038000">
        <ele>443.90</ele>
        <time>2017-02-18T06:36:05Z</time>
      </trkpt>
      <trkpt lat="42.499521000" lon="-2.439029000">
        <ele>444.00</ele>
        <time>2017-02-18T06:36:06Z</time>
      </trkpt>
      <trkpt lat="42.499555000" lon="-2.439015000">
        <ele>444.10</ele>
        <time>2017-02-18T06:36:07Z</time>
      </trkpt>
      <trkpt lat="42.499589000" lon="-2.439001000">
        <ele>444.20</ele>
        <time>2017-02-18T06:36:08Z</time>
      </trkpt>
      <trkpt lat="42.499622000" lon="-2.438990000">
        <ele>444.20</ele>
        <time>2017-02-18T06:36:09Z</time>
      </trkpt>
      <trkpt lat="42.499655000" lon="-2.438981000">
        <ele>444.20</ele>
        <time>2017-02-18T06:36:10Z</time>
      </trkpt>
      <trkpt lat="42.499687000" lon="-2.438972000">
        <ele>444.30</ele>
        <time>2017-02-18T06:36:11Z</time>
      </trkpt>
      <trkpt lat="42.499721000" lon="-2.438961000">
        <ele>444.30</ele>
        <time>2017-02-18T06:36:12Z</time>
      </trkpt>
      <trkpt lat="42.499756000" lon="-2.438953000">
        <ele>444.30</ele>
        <time>2017-02-18T06:36:13Z</time>
      </trkpt>
      <trkpt lat="42.499789000" lon="-2.438944000">
        <ele>444.30</ele>
        <time>2017-02-18T06:36:14Z</time>
      </trkpt>
      <trkpt lat="42.499825000" lon="-2.438930000">
        <ele>444.30</ele>
        <time>2017-02-18T06:36:15Z</time>
      </trkpt>
      <trkpt lat="42.499860000" lon="-2.438919000">
        <ele>444.30</ele>
        <time>2017-02-18T06:36:16Z</time>
      </trkpt>
      <trkpt lat="42.499894000" lon="-2.438907000">
        <ele>444.50</ele>
        <time>2017-02-18T06:36:17Z</time>
      </trkpt>
      <trkpt lat="42.499928000" lon="-2.438895000">
        <ele>444.60</ele>
        <time>2017-02-18T06:36:18Z</time>
      </trkpt>
      <trkpt lat="42.499963000" lon="-2.438883000">
        <ele>444.70</ele>
        <time>2017-02-18T06:36:19Z</time>
      </trkpt>
      <trkpt lat="42.499997000" lon="-2.438869000">
        <ele>444.80</ele>
        <time>2017-02-18T06:36:20Z</time>
      </trkpt>
      <trkpt lat="42.500032000" lon="-2.438855000">
        <ele>444.80</ele>
        <time>2017-02-18T06:36:21Z</time>
      </trkpt>
      <trkpt lat="42.500068000" lon="-2.438847000">
        <ele>444.90</ele>
        <time>2017-02-18T06:36:22Z</time>
      </trkpt>
      <trkpt lat="42.500101000" lon="-2.438836000">
        <ele>444.90</ele>
        <time>2017-02-18T06:36:23Z</time>
      </trkpt>
      <trkpt lat="42.500134000" lon="-2.438828000">
        <ele>444.90</ele>
        <time>2017-02-18T06:36:24Z</time>
      </trkpt>
      <trkpt lat="42.500171000" lon="-2.438817000">
        <ele>444.90</ele>
        <time>2017-02-18T06:36:25Z</time>
      </trkpt>
      <trkpt lat="42.500208000" lon="-2.438809000">
        <ele>444.90</ele>
        <time>2017-02-18T06:36:26Z</time>
      </trkpt>
      <trkpt lat="42.500245000" lon="-2.438800000">
        <ele>444.90</ele>
        <time>2017-02-18T06:36:27Z</time>
      </trkpt>
      <trkpt lat="42.500317000" lon="-2.438789000">
        <ele>444.90</ele>
        <time>2017-02-18T06:36:29Z</time>
      </trkpt>
      <trkpt lat="42.500350000" lon="-2.438784000">
        <ele>444.90</ele>
        <time>2017-02-18T06:36:30Z</time>
      </trkpt>
      <trkpt lat="42.500386000" lon="-2.438784000">
        <ele>445.00</ele>
        <time>2017-02-18T06:36:31Z</time>
      </trkpt>
      <trkpt lat="42.500420000" lon="-2.438781000">
        <ele>445.10</ele>
        <time>2017-02-18T06:36:32Z</time>
      </trkpt>
      <trkpt lat="42.500450000" lon="-2.438779000">
        <ele>445.10</ele>
        <time>2017-02-18T06:36:33Z</time>
      </trkpt>
      <trkpt lat="42.500479000" lon="-2.438778000">
        <ele>445.20</ele>
        <time>2017-02-18T06:36:34Z</time>
      </trkpt>
      <trkpt lat="42.500511000" lon="-2.438779000">
        <ele>445.20</ele>
        <time>2017-02-18T06:36:35Z</time>
      </trkpt>
      <trkpt lat="42.500543000" lon="-2.438780000">
        <ele>445.20</ele>
        <time>2017-02-18T06:36:36Z</time>
      </trkpt>
      <trkpt lat="42.500576000" lon="-2.438786000">
        <ele>445.30</ele>
        <time>2017-02-18T06:36:37Z</time>
      </trkpt>
      <trkpt lat="42.500604000" lon="-2.438783000">
        <ele>445.40</ele>
        <time>2017-02-18T06:36:38Z</time>
      </trkpt>
      <trkpt lat="42.500637000" lon="-2.438783000">
        <ele>445.50</ele>
        <time>2017-02-18T06:36:39Z</time>
      </trkpt>
      <trkpt lat="42.500670000" lon="-2.438780000">
        <ele>445.60</ele>
        <time>2017-02-18T06:36:40Z</time>
      </trkpt>
      <trkpt lat="42.500704000" lon="-2.438776000">
        <ele>445.70</ele>
        <time>2017-02-18T06:36:41Z</time>
      </trkpt>
      <trkpt lat="42.500738000" lon="-2.438775000">
        <ele>445.80</ele>
        <time>2017-02-18T06:36:42Z</time>
      </trkpt>
      <trkpt lat="42.500776000" lon="-2.438771000">
        <ele>445.90</ele>
        <time>2017-02-18T06:36:43Z</time>
      </trkpt>
      <trkpt lat="42.500814000" lon="-2.438771000">
        <ele>446.00</ele>
        <time>2017-02-18T06:36:44Z</time>
      </trkpt>
      <trkpt lat="42.500851000" lon="-2.438773000">
        <ele>446.00</ele>
        <time>2017-02-18T06:36:45Z</time>
      </trkpt>
      <trkpt lat="42.500885000" lon="-2.438772000">
        <ele>446.10</ele>
        <time>2017-02-18T06:36:46Z</time>
      </trkpt>
      <trkpt lat="42.500920000" lon="-2.438774000">
        <ele>446.10</ele>
        <time>2017-02-18T06:36:47Z</time>
      </trkpt>
      <trkpt lat="42.500954000" lon="-2.438774000">
        <ele>446.20</ele>
        <time>2017-02-18T06:36:48Z</time>
      </trkpt>
      <trkpt lat="42.500990000" lon="-2.438778000">
        <ele>446.30</ele>
        <time>2017-02-18T06:36:49Z</time>
      </trkpt>
      <trkpt lat="42.501021000" lon="-2.438778000">
        <ele>446.40</ele>
        <time>2017-02-18T06:36:50Z</time>
      </trkpt>
      <trkpt lat="42.501057000" lon="-2.438777000">
        <ele>446.60</ele>
        <time>2017-02-18T06:36:51Z</time>
      </trkpt>
      <trkpt lat="42.501090000" lon="-2.438774000">
        <ele>446.80</ele>
        <time>2017-02-18T06:36:52Z</time>
      </trkpt>
      <trkpt lat="42.501123000" lon="-2.438772000">
        <ele>446.80</ele>
        <time>2017-02-18T06:36:53Z</time>
      </trkpt>
      <trkpt lat="42.501158000" lon="-2.438772000">
        <ele>446.80</ele>
        <time>2017-02-18T06:36:54Z</time>
      </trkpt>
      <trkpt lat="42.501194000" lon="-2.438769000">
        <ele>446.80</ele>
        <time>2017-02-18T06:36:55Z</time>
      </trkpt>
      <trkpt lat="42.501231000" lon="-2.438767000">
        <ele>446.80</ele>
        <time>2017-02-18T06:36:56Z</time>
      </trkpt>
      <trkpt lat="42.501269000" lon="-2.438767000">
        <ele>446.80</ele>
        <time>2017-02-18T06:36:57Z</time>
      </trkpt>
      <trkpt lat="42.501306000" lon="-2.438767000">
        <ele>446.80</ele>
        <time>2017-02-18T06:36:58Z</time>
      </trkpt>
      <trkpt lat="42.501343000" lon="-2.438768000">
        <ele>446.80</ele>
        <time>2017-02-18T06:36:59Z</time>
      </trkpt>
      <trkpt lat="42.501380000" lon="-2.438767000">
        <ele>446.80</ele>
        <time>2017-02-18T06:37:00Z</time>
      </trkpt>
      <trkpt lat="42.501414000" lon="-2.438767000">
        <ele>446.80</ele>
        <time>2017-02-18T06:37:01Z</time>
      </trkpt>
      <trkpt lat="42.501448000" lon="-2.438767000">
        <ele>446.90</ele>
        <time>2017-02-18T06:37:02Z</time>
      </trkpt>
      <trkpt lat="42.501484000" lon="-2.438766000">
        <ele>447.00</ele>
        <time>2017-02-18T06:37:03Z</time>
      </trkpt>
      <trkpt lat="42.501520000" lon="-2.438766000">
        <ele>447.20</ele>
        <time>2017-02-18T06:37:04Z</time>
      </trkpt>
      <trkpt lat="42.501554000" lon="-2.438760000">
        <ele>447.20</ele>
        <time>2017-02-18T06:37:05Z</time>
      </trkpt>
      <trkpt lat="42.501590000" lon="-2.438760000">
        <ele>447.30</ele>
        <time>2017-02-18T06:37:06Z</time>
      </trkpt>
      <trkpt lat="42.501625000" lon="-2.438757000">
        <ele>447.50</ele>
        <time>2017-02-18T06:37:07Z</time>
      </trkpt>
      <trkpt lat="42.501661000" lon="-2.438754000">
        <ele>447.70</ele>
        <time>2017-02-18T06:37:08Z</time>
      </trkpt>
      <trkpt lat="42.501697000" lon="-2.438758000">
        <ele>447.90</ele>
        <time>2017-02-18T06:37:09Z</time>
      </trkpt>
      <trkpt lat="42.501733000" lon="-2.438752000">
        <ele>448.00</ele>
        <time>2017-02-18T06:37:10Z</time>
      </trkpt>
      <trkpt lat="42.501766000" lon="-2.438751000">
        <ele>448.10</ele>
        <time>2017-02-18T06:37:11Z</time>
      </trkpt>
      <trkpt lat="42.501799000" lon="-2.438752000">
        <ele>448.20</ele>
        <time>2017-02-18T06:37:12Z</time>
      </trkpt>
      <trkpt lat="42.501835000" lon="-2.438754000">
        <ele>448.20</ele>
        <time>2017-02-18T06:37:13Z</time>
      </trkpt>
      <trkpt lat="42.501872000" lon="-2.438757000">
        <ele>448.10</ele>
        <time>2017-02-18T06:37:14Z</time>
      </trkpt>
      <trkpt lat="42.501910000" lon="-2.438759000">
        <ele>448.10</ele>
        <time>2017-02-18T06:37:15Z</time>
      </trkpt>
      <trkpt lat="42.501947000" lon="-2.438755000">
        <ele>448.10</ele>
        <time>2017-02-18T06:37:16Z</time>
      </trkpt>
      <trkpt lat="42.501983000" lon="-2.438756000">
        <ele>448.10</ele>
        <time>2017-02-18T06:37:17Z</time>
      </trkpt>
      <trkpt lat="42.502020000" lon="-2.438755000">
        <ele>448.10</ele>
        <time>2017-02-18T06:37:18Z</time>
      </trkpt>
      <trkpt lat="42.502056000" lon="-2.438756000">
        <ele>448.10</ele>
        <time>2017-02-18T06:37:19Z</time>
      </trkpt>
      <trkpt lat="42.502093000" lon="-2.438757000">
        <ele>448.10</ele>
        <time>2017-02-18T06:37:20Z</time>
      </trkpt>
      <trkpt lat="42.502127000" lon="-2.438756000">
        <ele>448.10</ele>
        <time>2017-02-18T06:37:21Z</time>
      </trkpt>
      <trkpt lat="42.502163000" lon="-2.438757000">
        <ele>448.00</ele>
        <time>2017-02-18T06:37:22Z</time>
      </trkpt>
      <trkpt lat="42.502204000" lon="-2.438762000">
        <ele>448.00</ele>
        <time>2017-02-18T06:37:23Z</time>
      </trkpt>
      <trkpt lat="42.502241000" lon="-2.438764000">
        <ele>448.00</ele>
        <time>2017-02-18T06:37:24Z</time>
      </trkpt>
      <trkpt lat="42.502279000" lon="-2.438767000">
        <ele>448.10</ele>
        <time>2017-02-18T06:37:25Z</time>
      </trkpt>
      <trkpt lat="42.502317000" lon="-2.438771000">
        <ele>448.20</ele>
        <time>2017-02-18T06:37:26Z</time>
      </trkpt>
      <trkpt lat="42.502355000" lon="-2.438775000">
        <ele>448.20</ele>
        <time>2017-02-18T06:37:27Z</time>
      </trkpt>
      <trkpt lat="42.502396000" lon="-2.438777000">
        <ele>448.30</ele>
        <time>2017-02-18T06:37:28Z</time>
      </trkpt>
      <trkpt lat="42.502475000" lon="-2.438785000">
        <ele>448.40</ele>
        <time>2017-02-18T06:37:30Z</time>
      </trkpt>
      <trkpt lat="42.502515000" lon="-2.438789000">
        <ele>448.50</ele>
        <time>2017-02-18T06:37:31Z</time>
      </trkpt>
      <trkpt lat="42.502555000" lon="-2.438789000">
        <ele>448.50</ele>
        <time>2017-02-18T06:37:32Z</time>
      </trkpt>
      <trkpt lat="42.502596000" lon="-2.438794000">
        <ele>448.60</ele>
        <time>2017-02-18T06:37:33Z</time>
      </trkpt>
      <trkpt lat="42.502637000" lon="-2.438801000">
        <ele>448.60</ele>
        <time>2017-02-18T06:37:34Z</time>
      </trkpt>
      <trkpt lat="42.502676000" lon="-2.438804000">
        <ele>448.60</ele>
        <time>2017-02-18T06:37:35Z</time>
      </trkpt>
      <trkpt lat="42.502716000" lon="-2.438803000">
        <ele>448.70</ele>
        <time>2017-02-18T06:37:36Z</time>
      </trkpt>
      <trkpt lat="42.502757000" lon="-2.438807000">
        <ele>448.50</ele>
        <time>2017-02-18T06:37:37Z</time>
      </trkpt>
      <trkpt lat="42.502798000" lon="-2.438811000">
        <ele>448.40</ele>
        <time>2017-02-18T06:37:38Z</time>
      </trkpt>
      <trkpt lat="42.502837000" lon="-2.438813000">
        <ele>448.30</ele>
        <time>2017-02-18T06:37:39Z</time>
      </trkpt>
      <trkpt lat="42.502876000" lon="-2.438810000">
        <ele>448.20</ele>
        <time>2017-02-18T06:37:40Z</time>
      </trkpt>
      <trkpt lat="42.502917000" lon="-2.438808000">
        <ele>448.20</ele>
        <time>2017-02-18T06:37:41Z</time>
      </trkpt>
      <trkpt lat="42.502956000" lon="-2.438808000">
        <ele>448.10</ele>
        <time>2017-02-18T06:37:42Z</time>
      </trkpt>
      <trkpt lat="42.502997000" lon="-2.438808000">
        <ele>448.20</ele>
        <time>2017-02-18T06:37:43Z</time>
      </trkpt>
      <trkpt lat="42.503039000" lon="-2.438807000">
        <ele>448.20</ele>
        <time>2017-02-18T06:37:44Z</time>
      </trkpt>
      <trkpt lat="42.503079000" lon="-2.438803000">
        <ele>448.30</ele>
        <time>2017-02-18T06:37:45Z</time>
      </trkpt>
      <trkpt lat="42.503119000" lon="-2.438801000">
        <ele>448.30</ele>
        <time>2017-02-18T06:37:46Z</time>
      </trkpt>
      <trkpt lat="42.503159000" lon="-2.438797000">
        <ele>448.40</ele>
        <time>2017-02-18T06:37:47Z</time>
      </trkpt>
      <trkpt lat="42.503197000" lon="-2.438794000">
        <ele>448.40</ele>
        <time>2017-02-18T06:37:48Z</time>
      </trkpt>
      <trkpt lat="42.503241000" lon="-2.438791000">
        <ele>448.20</ele>
        <time>2017-02-18T06:37:49Z</time>
      </trkpt>
      <trkpt lat="42.503282000" lon="-2.438787000">
        <ele>448.10</ele>
        <time>2017-02-18T06:37:50Z</time>
      </trkpt>
      <trkpt lat="42.503323000" lon="-2.438782000">
        <ele>448.00</ele>
        <time>2017-02-18T06:37:51Z</time>
      </trkpt>
      <trkpt lat="42.503361000" lon="-2.438779000">
        <ele>448.00</ele>
        <time>2017-02-18T06:37:52Z</time>
      </trkpt>
      <trkpt lat="42.503399000" lon="-2.438774000">
        <ele>448.00</ele>
        <time>2017-02-18T06:37:53Z</time>
      </trkpt>
      <trkpt lat="42.503440000" lon="-2.438769000">
        <ele>448.00</ele>
        <time>2017-02-18T06:37:54Z</time>
      </trkpt>
      <trkpt lat="42.503477000" lon="-2.438765000">
        <ele>448.00</ele>
        <time>2017-02-18T06:37:55Z</time>
      </trkpt>
      <trkpt lat="42.503515000" lon="-2.438760000">
        <ele>448.00</ele>
        <time>2017-02-18T06:37:56Z</time>
      </trkpt>
      <trkpt lat="42.503554000" lon="-2.438754000">
        <ele>448.00</ele>
        <time>2017-02-18T06:37:57Z</time>
      </trkpt>
      <trkpt lat="42.503594000" lon="-2.438752000">
        <ele>447.90</ele>
        <time>2017-02-18T06:37:58Z</time>
      </trkpt>
      <trkpt lat="42.503634000" lon="-2.438749000">
        <ele>447.90</ele>
        <time>2017-02-18T06:37:59Z</time>
      </trkpt>
      <trkpt lat="42.503672000" lon="-2.438746000">
        <ele>447.90</ele>
        <time>2017-02-18T06:38:00Z</time>
      </trkpt>
      <trkpt lat="42.503709000" lon="-2.438738000">
        <ele>448.00</ele>
        <time>2017-02-18T06:38:01Z</time>
      </trkpt>
      <trkpt lat="42.503746000" lon="-2.438733000">
        <ele>448.00</ele>
        <time>2017-02-18T06:38:02Z</time>
      </trkpt>
      <trkpt lat="42.503783000" lon="-2.438729000">
        <ele>448.10</ele>
        <time>2017-02-18T06:38:03Z</time>
      </trkpt>
      <trkpt lat="42.503818000" lon="-2.438727000">
        <ele>448.20</ele>
        <time>2017-02-18T06:38:04Z</time>
      </trkpt>
      <trkpt lat="42.503855000" lon="-2.438721000">
        <ele>448.20</ele>
        <time>2017-02-18T06:38:05Z</time>
      </trkpt>
      <trkpt lat="42.503893000" lon="-2.438718000">
        <ele>448.20</ele>
        <time>2017-02-18T06:38:06Z</time>
      </trkpt>
      <trkpt lat="42.503932000" lon="-2.438716000">
        <ele>448.20</ele>
        <time>2017-02-18T06:38:07Z</time>
      </trkpt>
      <trkpt lat="42.503968000" lon="-2.438713000">
        <ele>448.30</ele>
        <time>2017-02-18T06:38:08Z</time>
      </trkpt>
      <trkpt lat="42.504006000" lon="-2.438711000">
        <ele>448.30</ele>
        <time>2017-02-18T06:38:09Z</time>
      </trkpt>
      <trkpt lat="42.504045000" lon="-2.438709000">
        <ele>448.30</ele>
        <time>2017-02-18T06:38:10Z</time>
      </trkpt>
      <trkpt lat="42.504082000" lon="-2.438702000">
        <ele>448.50</ele>
        <time>2017-02-18T06:38:11Z</time>
      </trkpt>
      <trkpt lat="42.504120000" lon="-2.438698000">
        <ele>448.60</ele>
        <time>2017-02-18T06:38:12Z</time>
      </trkpt>
      <trkpt lat="42.504158000" lon="-2.438695000">
        <ele>448.80</ele>
        <time>2017-02-18T06:38:13Z</time>
      </trkpt>
      <trkpt lat="42.504195000" lon="-2.438695000">
        <ele>448.90</ele>
        <time>2017-02-18T06:38:14Z</time>
      </trkpt>
      <trkpt lat="42.504232000" lon="-2.438695000">
        <ele>449.20</ele>
        <time>2017-02-18T06:38:15Z</time>
      </trkpt>
      <trkpt lat="42.504269000" lon="-2.438696000">
        <ele>449.30</ele>
        <time>2017-02-18T06:38:16Z</time>
      </trkpt>
      <trkpt lat="42.504306000" lon="-2.438695000">
        <ele>449.50</ele>
        <time>2017-02-18T06:38:17Z</time>
      </trkpt>
      <trkpt lat="42.504341000" lon="-2.438694000">
        <ele>449.60</ele>
        <time>2017-02-18T06:38:18Z</time>
      </trkpt>
      <trkpt lat="42.504377000" lon="-2.438696000">
        <ele>449.60</ele>
        <time>2017-02-18T06:38:19Z</time>
      </trkpt>
      <trkpt lat="42.504413000" lon="-2.438698000">
        <ele>449.70</ele>
        <time>2017-02-18T06:38:20Z</time>
      </trkpt>
      <trkpt lat="42.504446000" lon="-2.438701000">
        <ele>449.70</ele>
        <time>2017-02-18T06:38:21Z</time>
      </trkpt>
      <trkpt lat="42.504474000" lon="-2.438699000">
        <ele>449.60</ele>
        <time>2017-02-18T06:38:22Z</time>
      </trkpt>
      <trkpt lat="42.504502000" lon="-2.438693000">
        <ele>449.60</ele>
        <time>2017-02-18T06:38:23Z</time>
      </trkpt>
      <trkpt lat="42.504532000" lon="-2.438686000">
        <ele>449.60</ele>
        <time>2017-02-18T06:38:24Z</time>
      </trkpt>
      <trkpt lat="42.504561000" lon="-2.438670000">
        <ele>449.60</ele>
        <time>2017-02-18T06:38:25Z</time>
      </trkpt>
      <trkpt lat="42.504590000" lon="-2.438652000">
        <ele>449.60</ele>
        <time>2017-02-18T06:38:26Z</time>
      </trkpt>
      <trkpt lat="42.504617000" lon="-2.438628000">
        <ele>449.60</ele>
        <time>2017-02-18T06:38:27Z</time>
      </trkpt>
      <trkpt lat="42.504646000" lon="-2.438595000">
        <ele>449.60</ele>
        <time>2017-02-18T06:38:28Z</time>
      </trkpt>
      <trkpt lat="42.504674000" lon="-2.438561000">
        <ele>449.60</ele>
        <time>2017-02-18T06:38:29Z</time>
      </trkpt>
      <trkpt lat="42.504726000" lon="-2.438490000">
        <ele>449.60</ele>
        <time>2017-02-18T06:38:31Z</time>
      </trkpt>
      <trkpt lat="42.504751000" lon="-2.438454000">
        <ele>449.60</ele>
        <time>2017-02-18T06:38:32Z</time>
      </trkpt>
      <trkpt lat="42.504778000" lon="-2.438416000">
        <ele>449.50</ele>
        <time>2017-02-18T06:38:33Z</time>
      </trkpt>
      <trkpt lat="42.504805000" lon="-2.438381000">
        <ele>449.50</ele>
        <time>2017-02-18T06:38:34Z</time>
      </trkpt>
      <trkpt lat="42.504832000" lon="-2.438345000">
        <ele>449.40</ele>
        <time>2017-02-18T06:38:35Z</time>
      </trkpt>
      <trkpt lat="42.504860000" lon="-2.438309000">
        <ele>449.40</ele>
        <time>2017-02-18T06:38:36Z</time>
      </trkpt>
      <trkpt lat="42.504886000" lon="-2.438274000">
        <ele>449.40</ele>
        <time>2017-02-18T06:38:37Z</time>
      </trkpt>
      <trkpt lat="42.504911000" lon="-2.438236000">
        <ele>449.40</ele>
        <time>2017-02-18T06:38:38Z</time>
      </trkpt>
      <trkpt lat="42.504936000" lon="-2.438201000">
        <ele>449.40</ele>
        <time>2017-02-18T06:38:39Z</time>
      </trkpt>
      <trkpt lat="42.504963000" lon="-2.438167000">
        <ele>449.50</ele>
        <time>2017-02-18T06:38:40Z</time>
      </trkpt>
      <trkpt lat="42.504989000" lon="-2.438131000">
        <ele>449.60</ele>
        <time>2017-02-18T06:38:41Z</time>
      </trkpt>
      <trkpt lat="42.505016000" lon="-2.438094000">
        <ele>449.60</ele>
        <time>2017-02-18T06:38:42Z</time>
      </trkpt>
      <trkpt lat="42.505041000" lon="-2.438058000">
        <ele>449.70</ele>
        <time>2017-02-18T06:38:43Z</time>
      </trkpt>
      <trkpt lat="42.505067000" lon="-2.438026000">
        <ele>449.70</ele>
        <time>2017-02-18T06:38:44Z</time>
      </trkpt>
      <trkpt lat="42.505092000" lon="-2.437995000">
        <ele>449.90</ele>
        <time>2017-02-18T06:38:45Z</time>
      </trkpt>
      <trkpt lat="42.505118000" lon="-2.437962000">
        <ele>450.00</ele>
        <time>2017-02-18T06:38:46Z</time>
      </trkpt>
      <trkpt lat="42.505142000" lon="-2.437928000">
        <ele>450.10</ele>
        <time>2017-02-18T06:38:47Z</time>
      </trkpt>
      <trkpt lat="42.505165000" lon="-2.437892000">
        <ele>450.20</ele>
        <time>2017-02-18T06:38:48Z</time>
      </trkpt>
      <trkpt lat="42.505190000" lon="-2.437860000">
        <ele>450.20</ele>
        <time>2017-02-18T06:38:49Z</time>
      </trkpt>
      <trkpt lat="42.505216000" lon="-2.437831000">
        <ele>450.20</ele>
        <time>2017-02-18T06:38:50Z</time>
      </trkpt>
      <trkpt lat="42.505239000" lon="-2.437800000">
        <ele>450.20</ele>
        <time>2017-02-18T06:38:51Z</time>
      </trkpt>
      <trkpt lat="42.505263000" lon="-2.437769000">
        <ele>450.20</ele>
        <time>2017-02-18T06:38:52Z</time>
      </trkpt>
      <trkpt lat="42.505287000" lon="-2.437737000">
        <ele>450.20</ele>
        <time>2017-02-18T06:38:53Z</time>
      </trkpt>
      <trkpt lat="42.505311000" lon="-2.437705000">
        <ele>450.10</ele>
        <time>2017-02-18T06:38:54Z</time>
      </trkpt>
      <trkpt lat="42.505335000" lon="-2.437677000">
        <ele>450.30</ele>
        <time>2017-02-18T06:38:55Z</time>
      </trkpt>
      <trkpt lat="42.505357000" lon="-2.437644000">
        <ele>450.40</ele>
        <time>2017-02-18T06:38:56Z</time>
      </trkpt>
      <trkpt lat="42.505384000" lon="-2.437614000">
        <ele>450.50</ele>
        <time>2017-02-18T06:38:57Z</time>
      </trkpt>
      <trkpt lat="42.505410000" lon="-2.437585000">
        <ele>450.70</ele>
        <time>2017-02-18T06:38:58Z</time>
      </trkpt>
      <trkpt lat="42.505434000" lon="-2.437549000">
        <ele>450.90</ele>
        <time>2017-02-18T06:38:59Z</time>
      </trkpt>
      <trkpt lat="42.505457000" lon="-2.437513000">
        <ele>451.20</ele>
        <time>2017-02-18T06:39:00Z</time>
      </trkpt>
      <trkpt lat="42.505481000" lon="-2.437477000">
        <ele>451.30</ele>
        <time>2017-02-18T06:39:01Z</time>
      </trkpt>
      <trkpt lat="42.505505000" lon="-2.437441000">
        <ele>451.50</ele>
        <time>2017-02-18T06:39:02Z</time>
      </trkpt>
      <trkpt lat="42.505531000" lon="-2.437406000">
        <ele>451.50</ele>
        <time>2017-02-18T06:39:03Z</time>
      </trkpt>
      <trkpt lat="42.505550000" lon="-2.437375000">
        <ele>451.60</ele>
        <time>2017-02-18T06:39:04Z</time>
      </trkpt>
      <trkpt lat="42.505564000" lon="-2.437354000">
        <ele>451.70</ele>
        <time>2017-02-18T06:39:05Z</time>
      </trkpt>
      <trkpt lat="42.505577000" lon="-2.437336000">
        <ele>451.70</ele>
        <time>2017-02-18T06:39:06Z</time>
      </trkpt>
      <trkpt lat="42.505589000" lon="-2.437320000">
        <ele>451.70</ele>
        <time>2017-02-18T06:39:07Z</time>
      </trkpt>
      <trkpt lat="42.505598000" lon="-2.437309000">
        <ele>451.80</ele>
        <time>2017-02-18T06:39:08Z</time>
      </trkpt>
      <trkpt lat="42.505618000" lon="-2.437297000">
        <ele>451.80</ele>
        <time>2017-02-18T06:39:09Z</time>
      </trkpt>
      <trkpt lat="42.505648000" lon="-2.437291000">
        <ele>451.90</ele>
        <time>2017-02-18T06:39:10Z</time>
      </trkpt>
      <trkpt lat="42.505679000" lon="-2.437298000">
        <ele>452.00</ele>
        <time>2017-02-18T06:39:11Z</time>
      </trkpt>
      <trkpt lat="42.505711000" lon="-2.437314000">
        <ele>452.10</ele>
        <time>2017-02-18T06:39:12Z</time>
      </trkpt>
      <trkpt lat="42.505739000" lon="-2.437342000">
        <ele>452.30</ele>
        <time>2017-02-18T06:39:13Z</time>
      </trkpt>
      <trkpt lat="42.505766000" lon="-2.437370000">
        <ele>452.40</ele>
        <time>2017-02-18T06:39:14Z</time>
      </trkpt>
      <trkpt lat="42.505793000" lon="-2.437394000">
        <ele>452.50</ele>
        <time>2017-02-18T06:39:15Z</time>
      </trkpt>
      <trkpt lat="42.505818000" lon="-2.437421000">
        <ele>452.60</ele>
        <time>2017-02-18T06:39:16Z</time>
      </trkpt>
      <trkpt lat="42.505848000" lon="-2.437441000">
        <ele>452.70</ele>
        <time>2017-02-18T06:39:17Z</time>
      </trkpt>
      <trkpt lat="42.505876000" lon="-2.437464000">
        <ele>452.80</ele>
        <time>2017-02-18T06:39:18Z</time>
      </trkpt>
      <trkpt lat="42.505906000" lon="-2.437487000">
        <ele>453.10</ele>
        <time>2017-02-18T06:39:19Z</time>
      </trkpt>
      <trkpt lat="42.505936000" lon="-2.437509000">
        <ele>453.30</ele>
        <time>2017-02-18T06:39:20Z</time>
      </trkpt>
      <trkpt lat="42.505965000" lon="-2.437529000">
        <ele>453.40</ele>
        <time>2017-02-18T06:39:21Z</time>
      </trkpt>
      <trkpt lat="42.505994000" lon="-2.437550000">
        <ele>453.60</ele>
        <time>2017-02-18T06:39:22Z</time>
      </trkpt>
      <trkpt lat="42.506021000" lon="-2.437571000">
        <ele>453.60</ele>
        <time>2017-02-18T06:39:23Z</time>
      </trkpt>
      <trkpt lat="42.506047000" lon="-2.437589000">
        <ele>453.70</ele>
        <time>2017-02-18T06:39:24Z</time>
      </trkpt>
      <trkpt lat="42.506072000" lon="-2.437609000">
        <ele>453.90</ele>
        <time>2017-02-18T06:39:25Z</time>
      </trkpt>
      <trkpt lat="42.506094000" lon="-2.437632000">
        <ele>454.00</ele>
        <time>2017-02-18T06:39:26Z</time>
      </trkpt>
      <trkpt lat="42.506118000" lon="-2.437655000">
        <ele>454.20</ele>
        <time>2017-02-18T06:39:27Z</time>
      </trkpt>
      <trkpt lat="42.506142000" lon="-2.437674000">
        <ele>454.40</ele>
        <time>2017-02-18T06:39:28Z</time>
      </trkpt>
      <trkpt lat="42.506168000" lon="-2.437695000">
        <ele>454.60</ele>
        <time>2017-02-18T06:39:29Z</time>
      </trkpt>
      <trkpt lat="42.506192000" lon="-2.437718000">
        <ele>454.80</ele>
        <time>2017-02-18T06:39:30Z</time>
      </trkpt>
      <trkpt lat="42.506240000" lon="-2.437769000">
        <ele>455.00</ele>
        <time>2017-02-18T06:39:32Z</time>
      </trkpt>
      <trkpt lat="42.506261000" lon="-2.437796000">
        <ele>455.10</ele>
        <time>2017-02-18T06:39:33Z</time>
      </trkpt>
      <trkpt lat="42.506279000" lon="-2.437820000">
        <ele>455.20</ele>
        <time>2017-02-18T06:39:34Z</time>
      </trkpt>
      <trkpt lat="42.506299000" lon="-2.437845000">
        <ele>455.30</ele>
        <time>2017-02-18T06:39:35Z</time>
      </trkpt>
      <trkpt lat="42.506319000" lon="-2.437871000">
        <ele>455.50</ele>
        <time>2017-02-18T06:39:36Z</time>
      </trkpt>
      <trkpt lat="42.506339000" lon="-2.437895000">
        <ele>455.70</ele>
        <time>2017-02-18T06:39:37Z</time>
      </trkpt>
      <trkpt lat="42.506358000" lon="-2.437916000">
        <ele>455.90</ele>
        <time>2017-02-18T06:39:38Z</time>
      </trkpt>
      <trkpt lat="42.506376000" lon="-2.437939000">
        <ele>456.00</ele>
        <time>2017-02-18T06:39:39Z</time>
      </trkpt>
      <trkpt lat="42.506397000" lon="-2.437956000">
        <ele>456.10</ele>
        <time>2017-02-18T06:39:40Z</time>
      </trkpt>
      <trkpt lat="42.506418000" lon="-2.437971000">
        <ele>456.30</ele>
        <time>2017-02-18T06:39:41Z</time>
      </trkpt>
      <trkpt lat="42.506439000" lon="-2.437982000">
        <ele>456.40</ele>
        <time>2017-02-18T06:39:42Z</time>
      </trkpt>
      <trkpt lat="42.506464000" lon="-2.437986000">
        <ele>456.40</ele>
        <time>2017-02-18T06:39:43Z</time>
      </trkpt>
      <trkpt lat="42.506490000" lon="-2.437987000">
        <ele>456.40</ele>
        <time>2017-02-18T06:39:44Z</time>
      </trkpt>
      <trkpt lat="42.506518000" lon="-2.437986000">
        <ele>456.40</ele>
        <time>2017-02-18T06:39:45Z</time>
      </trkpt>
      <trkpt lat="42.506546000" lon="-2.437980000">
        <ele>456.40</ele>
        <time>2017-02-18T06:39:46Z</time>
      </trkpt>
      <trkpt lat="42.506574000" lon="-2.437971000">
        <ele>456.20</ele>
        <time>2017-02-18T06:39:47Z</time>
      </trkpt>
      <trkpt lat="42.506598000" lon="-2.437955000">
        <ele>456.10</ele>
        <time>2017-02-18T06:39:48Z</time>
      </trkpt>
      <trkpt lat="42.506617000" lon="-2.437935000">
        <ele>455.90</ele>
        <time>2017-02-18T06:39:49Z</time>
      </trkpt>
      <trkpt lat="42.506635000" lon="-2.437917000">
        <ele>455.90</ele>
        <time>2017-02-18T06:39:50Z</time>
      </trkpt>
      <trkpt lat="42.506648000" lon="-2.437895000">
        <ele>455.90</ele>
        <time>2017-02-18T06:39:51Z</time>
      </trkpt>
      <trkpt lat="42.506662000" lon="-2.437873000">
        <ele>455.90</ele>
        <time>2017-02-18T06:39:52Z</time>
      </trkpt>
      <trkpt lat="42.506678000" lon="-2.437854000">
        <ele>456.30</ele>
        <time>2017-02-18T06:39:53Z</time>
      </trkpt>
      <trkpt lat="42.506692000" lon="-2.437832000">
        <ele>456.60</ele>
        <time>2017-02-18T06:39:54Z</time>
      </trkpt>
      <trkpt lat="42.506710000" lon="-2.437812000">
        <ele>456.90</ele>
        <time>2017-02-18T06:39:55Z</time>
      </trkpt>
      <trkpt lat="42.506724000" lon="-2.437790000">
        <ele>457.00</ele>
        <time>2017-02-18T06:39:56Z</time>
      </trkpt>
      <trkpt lat="42.506739000" lon="-2.437769000">
        <ele>457.20</ele>
        <time>2017-02-18T06:39:57Z</time>
      </trkpt>
      <trkpt lat="42.506752000" lon="-2.437746000">
        <ele>457.30</ele>
        <time>2017-02-18T06:39:58Z</time>
      </trkpt>
      <trkpt lat="42.506766000" lon="-2.437724000">
        <ele>457.50</ele>
        <time>2017-02-18T06:39:59Z</time>
      </trkpt>
      <trkpt lat="42.506780000" lon="-2.437705000">
        <ele>457.70</ele>
        <time>2017-02-18T06:40:00Z</time>
      </trkpt>
      <trkpt lat="42.506791000" lon="-2.437685000">
        <ele>458.00</ele>
        <time>2017-02-18T06:40:01Z</time>
      </trkpt>
      <trkpt lat="42.506801000" lon="-2.437665000">
        <ele>458.20</ele>
        <time>2017-02-18T06:40:02Z</time>
      </trkpt>
      <trkpt lat="42.506810000" lon="-2.437646000">
        <ele>458.40</ele>
        <time>2017-02-18T06:40:03Z</time>
      </trkpt>
      <trkpt lat="42.506818000" lon="-2.437623000">
        <ele>458.60</ele>
        <time>2017-02-18T06:40:04Z</time>
      </trkpt>
      <trkpt lat="42.506825000" lon="-2.437604000">
        <ele>458.80</ele>
        <time>2017-02-18T06:40:05Z</time>
      </trkpt>
      <trkpt lat="42.506835000" lon="-2.437584000">
        <ele>458.90</ele>
        <time>2017-02-18T06:40:06Z</time>
      </trkpt>
      <trkpt lat="42.506847000" lon="-2.437566000">
        <ele>459.40</ele>
        <time>2017-02-18T06:40:07Z</time>
      </trkpt>
      <trkpt lat="42.506860000" lon="-2.437548000">
        <ele>459.80</ele>
        <time>2017-02-18T06:40:08Z</time>
      </trkpt>
      <trkpt lat="42.506874000" lon="-2.437532000">
        <ele>460.00</ele>
        <time>2017-02-18T06:40:09Z</time>
      </trkpt>
      <trkpt lat="42.506886000" lon="-2.437519000">
        <ele>460.20</ele>
        <time>2017-02-18T06:40:10Z</time>
      </trkpt>
      <trkpt lat="42.506902000" lon="-2.437510000">
        <ele>460.60</ele>
        <time>2017-02-18T06:40:11Z</time>
      </trkpt>
      <trkpt lat="42.506922000" lon="-2.437503000">
        <ele>460.80</ele>
        <time>2017-02-18T06:40:12Z</time>
      </trkpt>
      <trkpt lat="42.506941000" lon="-2.437495000">
        <ele>461.10</ele>
        <time>2017-02-18T06:40:13Z</time>
      </trkpt>
      <trkpt lat="42.506962000" lon="-2.437484000">
        <ele>461.30</ele>
        <time>2017-02-18T06:40:14Z</time>
      </trkpt>
      <trkpt lat="42.506985000" lon="-2.437479000">
        <ele>461.50</ele>
        <time>2017-02-18T06:40:15Z</time>
      </trkpt>
      <trkpt lat="42.507005000" lon="-2.437471000">
        <ele>461.60</ele>
        <time>2017-02-18T06:40:16Z</time>
      </trkpt>
      <trkpt lat="42.507026000" lon="-2.437470000">
        <ele>461.70</ele>
        <time>2017-02-18T06:40:17Z</time>
      </trkpt>
      <trkpt lat="42.507045000" lon="-2.437460000">
        <ele>461.80</ele>
        <time>2017-02-18T06:40:18Z</time>
      </trkpt>
      <trkpt lat="42.507063000" lon="-2.437445000">
        <ele>461.80</ele>
        <time>2017-02-18T06:40:19Z</time>
      </trkpt>
      <trkpt lat="42.507086000" lon="-2.437436000">
        <ele>461.90</ele>
        <time>2017-02-18T06:40:20Z</time>
      </trkpt>
      <trkpt lat="42.507111000" lon="-2.437426000">
        <ele>461.90</ele>
        <time>2017-02-18T06:40:21Z</time>
      </trkpt>
      <trkpt lat="42.507135000" lon="-2.437415000">
        <ele>462.00</ele>
        <time>2017-02-18T06:40:22Z</time>
      </trkpt>
      <trkpt lat="42.507160000" lon="-2.437408000">
        <ele>461.90</ele>
        <time>2017-02-18T06:40:23Z</time>
      </trkpt>
      <trkpt lat="42.507184000" lon="-2.437392000">
        <ele>461.90</ele>
        <time>2017-02-18T06:40:24Z</time>
      </trkpt>
      <trkpt lat="42.507209000" lon="-2.437375000">
        <ele>462.00</ele>
        <time>2017-02-18T06:40:25Z</time>
      </trkpt>
      <trkpt lat="42.507233000" lon="-2.437361000">
        <ele>462.10</ele>
        <time>2017-02-18T06:40:26Z</time>
      </trkpt>
      <trkpt lat="42.507261000" lon="-2.437349000">
        <ele>462.00</ele>
        <time>2017-02-18T06:40:27Z</time>
      </trkpt>
      <trkpt lat="42.507293000" lon="-2.437336000">
        <ele>462.00</ele>
        <time>2017-02-18T06:40:28Z</time>
      </trkpt>
      <trkpt lat="42.507330000" lon="-2.437315000">
        <ele>462.00</ele>
        <time>2017-02-18T06:40:29Z</time>
      </trkpt>
      <trkpt lat="42.507371000" lon="-2.437284000">
        <ele>462.00</ele>
        <time>2017-02-18T06:40:30Z</time>
      </trkpt>
      <trkpt lat="42.507416000" lon="-2.437248000">
        <ele>461.90</ele>
        <time>2017-02-18T06:40:31Z</time>
      </trkpt>
      <trkpt lat="42.507520000" lon="-2.437157000">
        <ele>461.60</ele>
        <time>2017-02-18T06:40:33Z</time>
      </trkpt>
      <trkpt lat="42.507576000" lon="-2.437105000">
        <ele>461.40</ele>
        <time>2017-02-18T06:40:34Z</time>
      </trkpt>
      <trkpt lat="42.507630000" lon="-2.437047000">
        <ele>461.10</ele>
        <time>2017-02-18T06:40:35Z</time>
      </trkpt>
      <trkpt lat="42.507682000" lon="-2.436984000">
        <ele>460.90</ele>
        <time>2017-02-18T06:40:36Z</time>
      </trkpt>
      <trkpt lat="42.507736000" lon="-2.436918000">
        <ele>460.60</ele>
        <time>2017-02-18T06:40:37Z</time>
      </trkpt>
      <trkpt lat="42.507795000" lon="-2.436858000">
        <ele>460.30</ele>
        <time>2017-02-18T06:40:38Z</time>
      </trkpt>
      <trkpt lat="42.507858000" lon="-2.436808000">
        <ele>459.90</ele>
        <time>2017-02-18T06:40:39Z</time>
      </trkpt>
      <trkpt lat="42.507928000" lon="-2.436766000">
        <ele>459.70</ele>
        <time>2017-02-18T06:40:40Z</time>
      </trkpt>
      <trkpt lat="42.508001000" lon="-2.436741000">
        <ele>459.40</ele>
        <time>2017-02-18T06:40:41Z</time>
      </trkpt>
      <trkpt lat="42.508075000" lon="-2.436738000">
        <ele>459.30</ele>
        <time>2017-02-18T06:40:42Z</time>
      </trkpt>
      <trkpt lat="42.508147000" lon="-2.436750000">
        <ele>459.10</ele>
        <time>2017-02-18T06:40:43Z</time>
      </trkpt>
      <trkpt lat="42.508216000" lon="-2.436771000">
        <ele>458.90</ele>
        <time>2017-02-18T06:40:44Z</time>
      </trkpt>
      <trkpt lat="42.508281000" lon="-2.436804000">
        <ele>458.80</ele>
        <time>2017-02-18T06:40:45Z</time>
      </trkpt>
      <trkpt lat="42.508338000" lon="-2.436847000">
        <ele>458.70</ele>
        <time>2017-02-18T06:40:46Z</time>
      </trkpt>
      <trkpt lat="42.508388000" lon="-2.436895000">
        <ele>458.50</ele>
        <time>2017-02-18T06:40:47Z</time>
      </trkpt>
      <trkpt lat="42.508429000" lon="-2.436943000">
        <ele>458.40</ele>
        <time>2017-02-18T06:40:48Z</time>
      </trkpt>
      <trkpt lat="42.508460000" lon="-2.436996000">
        <ele>458.30</ele>
        <time>2017-02-18T06:40:49Z</time>
      </trkpt>
      <trkpt lat="42.508491000" lon="-2.437047000">
        <ele>458.20</ele>
        <time>2017-02-18T06:40:50Z</time>
      </trkpt>
      <trkpt lat="42.508521000" lon="-2.437098000">
        <ele>458.20</ele>
        <time>2017-02-18T06:40:51Z</time>
      </trkpt>
      <trkpt lat="42.508548000" lon="-2.437145000">
        <ele>458.20</ele>
        <time>2017-02-18T06:40:52Z</time>
      </trkpt>
      <trkpt lat="42.508578000" lon="-2.437193000">
        <ele>458.20</ele>
        <time>2017-02-18T06:40:53Z</time>
      </trkpt>
      <trkpt lat="42.508608000" lon="-2.437236000">
        <ele>458.30</ele>
        <time>2017-02-18T06:40:54Z</time>
      </trkpt>
      <trkpt lat="42.508635000" lon="-2.437279000">
        <ele>458.20</ele>
        <time>2017-02-18T06:40:55Z</time>
      </trkpt>
      <trkpt lat="42.508664000" lon="-2.437320000">
        <ele>458.10</ele>
        <time>2017-02-18T06:40:56Z</time>
      </trkpt>
      <trkpt lat="42.508696000" lon="-2.437359000">
        <ele>458.00</ele>
        <time>2017-02-18T06:40:57Z</time>
      </trkpt>
      <trkpt lat="42.508726000" lon="-2.437399000">
        <ele>458.00</ele>
        <time>2017-02-18T06:40:58Z</time>
      </trkpt>
      <trkpt lat="42.508760000" lon="-2.437440000">
        <ele>457.90</ele>
        <time>2017-02-18T06:40:59Z</time>
      </trkpt>
      <trkpt lat="42.508793000" lon="-2.437476000">
        <ele>457.90</ele>
        <time>2017-02-18T06:41:00Z</time>
      </trkpt>
      <trkpt lat="42.508828000" lon="-2.437511000">
        <ele>457.80</ele>
        <time>2017-02-18T06:41:01Z</time>
      </trkpt>
      <trkpt lat="42.508864000" lon="-2.437542000">
        <ele>457.80</ele>
        <time>2017-02-18T06:41:02Z</time>
      </trkpt>
      <trkpt lat="42.508903000" lon="-2.437577000">
        <ele>457.70</ele>
        <time>2017-02-18T06:41:03Z</time>
      </trkpt>
      <trkpt lat="42.508943000" lon="-2.437612000">
        <ele>457.70</ele>
        <time>2017-02-18T06:41:04Z</time>
      </trkpt>
      <trkpt lat="42.508986000" lon="-2.437647000">
        <ele>457.60</ele>
        <time>2017-02-18T06:41:05Z</time>
      </trkpt>
      <trkpt lat="42.509032000" lon="-2.437684000">
        <ele>457.50</ele>
        <time>2017-02-18T06:41:06Z</time>
      </trkpt>
      <trkpt lat="42.509081000" lon="-2.437722000">
        <ele>457.40</ele>
        <time>2017-02-18T06:41:07Z</time>
      </trkpt>
      <trkpt lat="42.509129000" lon="-2.437762000">
        <ele>457.30</ele>
        <time>2017-02-18T06:41:08Z</time>
      </trkpt>
      <trkpt lat="42.509180000" lon="-2.437801000">
        <ele>457.10</ele>
        <time>2017-02-18T06:41:09Z</time>
      </trkpt>
      <trkpt lat="42.509230000" lon="-2.437840000">
        <ele>457.00</ele>
        <time>2017-02-18T06:41:10Z</time>
      </trkpt>
      <trkpt lat="42.509281000" lon="-2.437877000">
        <ele>456.90</ele>
        <time>2017-02-18T06:41:11Z</time>
      </trkpt>
      <trkpt lat="42.509330000" lon="-2.437909000">
        <ele>456.80</ele>
        <time>2017-02-18T06:41:12Z</time>
      </trkpt>
      <trkpt lat="42.509382000" lon="-2.437929000">
        <ele>456.80</ele>
        <time>2017-02-18T06:41:13Z</time>
      </trkpt>
      <trkpt lat="42.509429000" lon="-2.437943000">
        <ele>456.70</ele>
        <time>2017-02-18T06:41:14Z</time>
      </trkpt>
      <trkpt lat="42.509474000" lon="-2.437956000">
        <ele>456.80</ele>
        <time>2017-02-18T06:41:15Z</time>
      </trkpt>
      <trkpt lat="42.509518000" lon="-2.437969000">
        <ele>456.80</ele>
        <time>2017-02-18T06:41:16Z</time>
      </trkpt>
      <trkpt lat="42.509559000" lon="-2.437983000">
        <ele>456.80</ele>
        <time>2017-02-18T06:41:17Z</time>
      </trkpt>
      <trkpt lat="42.509600000" lon="-2.437999000">
        <ele>456.80</ele>
        <time>2017-02-18T06:41:18Z</time>
      </trkpt>
      <trkpt lat="42.509640000" lon="-2.438017000">
        <ele>456.90</ele>
        <time>2017-02-18T06:41:19Z</time>
      </trkpt>
      <trkpt lat="42.509680000" lon="-2.438029000">
        <ele>456.90</ele>
        <time>2017-02-18T06:41:20Z</time>
      </trkpt>
      <trkpt lat="42.509719000" lon="-2.438042000">
        <ele>457.00</ele>
        <time>2017-02-18T06:41:21Z</time>
      </trkpt>
      <trkpt lat="42.509759000" lon="-2.438052000">
        <ele>457.20</ele>
        <time>2017-02-18T06:41:22Z</time>
      </trkpt>
      <trkpt lat="42.509798000" lon="-2.438069000">
        <ele>457.40</ele>
        <time>2017-02-18T06:41:23Z</time>
      </trkpt>
      <trkpt lat="42.509837000" lon="-2.438086000">
        <ele>457.60</ele>
        <time>2017-02-18T06:41:24Z</time>
      </trkpt>
      <trkpt lat="42.509874000" lon="-2.438100000">
        <ele>457.90</ele>
        <time>2017-02-18T06:41:25Z</time>
      </trkpt>
      <trkpt lat="42.509911000" lon="-2.438119000">
        <ele>458.10</ele>
        <time>2017-02-18T06:41:26Z</time>
      </trkpt>
      <trkpt lat="42.509946000" lon="-2.438136000">
        <ele>458.30</ele>
        <time>2017-02-18T06:41:27Z</time>
      </trkpt>
      <trkpt lat="42.509980000" lon="-2.438152000">
        <ele>458.40</ele>
        <time>2017-02-18T06:41:28Z</time>
      </trkpt>
      <trkpt lat="42.510013000" lon="-2.438166000">
        <ele>458.40</ele>
        <time>2017-02-18T06:41:29Z</time>
      </trkpt>
      <trkpt lat="42.510047000" lon="-2.438181000">
        <ele>458.30</ele>
        <time>2017-02-18T06:41:30Z</time>
      </trkpt>
      <trkpt lat="42.510082000" lon="-2.438195000">
        <ele>458.30</ele>
        <time>2017-02-18T06:41:31Z</time>
      </trkpt>
      <trkpt lat="42.510117000" lon="-2.438208000">
        <ele>458.30</ele>
        <time>2017-02-18T06:41:32Z</time>
      </trkpt>
      <trkpt lat="42.510180000" lon="-2.438235000">
        <ele>458.70</ele>
        <time>2017-02-18T06:41:34Z</time>
      </trkpt>
      <trkpt lat="42.510210000" lon="-2.438248000">
        <ele>458.90</ele>
        <time>2017-02-18T06:41:35Z</time>
      </trkpt>
      <trkpt lat="42.510238000" lon="-2.438260000">
        <ele>459.00</ele>
        <time>2017-02-18T06:41:36Z</time>
      </trkpt>
      <trkpt lat="42.510268000" lon="-2.438271000">
        <ele>459.00</ele>
        <time>2017-02-18T06:41:37Z</time>
      </trkpt>
      <trkpt lat="42.510296000" lon="-2.438282000">
        <ele>459.00</ele>
        <time>2017-02-18T06:41:38Z</time>
      </trkpt>
      <trkpt lat="42.510327000" lon="-2.438301000">
        <ele>459.00</ele>
        <time>2017-02-18T06:41:39Z</time>
      </trkpt>
      <trkpt lat="42.510355000" lon="-2.438317000">
        <ele>459.00</ele>
        <time>2017-02-18T06:41:40Z</time>
      </trkpt>
      <trkpt lat="42.510381000" lon="-2.438333000">
        <ele>459.10</ele>
        <time>2017-02-18T06:41:41Z</time>
      </trkpt>
      <trkpt lat="42.510408000" lon="-2.438349000">
        <ele>459.10</ele>
        <time>2017-02-18T06:41:42Z</time>
      </trkpt>
      <trkpt lat="42.510434000" lon="-2.438368000">
        <ele>459.30</ele>
        <time>2017-02-18T06:41:43Z</time>
      </trkpt>
      <trkpt lat="42.510460000" lon="-2.438384000">
        <ele>459.40</ele>
        <time>2017-02-18T06:41:44Z</time>
      </trkpt>
      <trkpt lat="42.510485000" lon="-2.438402000">
        <ele>459.50</ele>
        <time>2017-02-18T06:41:45Z</time>
      </trkpt>
      <trkpt lat="42.510513000" lon="-2.438413000">
        <ele>459.60</ele>
        <time>2017-02-18T06:41:46Z</time>
      </trkpt>
      <trkpt lat="42.510540000" lon="-2.438430000">
        <ele>459.70</ele>
        <time>2017-02-18T06:41:47Z</time>
      </trkpt>
      <trkpt lat="42.510568000" lon="-2.438445000">
        <ele>459.80</ele>
        <time>2017-02-18T06:41:48Z</time>
      </trkpt>
      <trkpt lat="42.510594000" lon="-2.438460000">
        <ele>459.90</ele>
        <time>2017-02-18T06:41:49Z</time>
      </trkpt>
      <trkpt lat="42.510620000" lon="-2.438478000">
        <ele>460.00</ele>
        <time>2017-02-18T06:41:50Z</time>
      </trkpt>
      <trkpt lat="42.510646000" lon="-2.438495000">
        <ele>460.20</ele>
        <time>2017-02-18T06:41:51Z</time>
      </trkpt>
      <trkpt lat="42.510672000" lon="-2.438509000">
        <ele>460.40</ele>
        <time>2017-02-18T06:41:52Z</time>
      </trkpt>
      <trkpt lat="42.510697000" lon="-2.438525000">
        <ele>460.70</ele>
        <time>2017-02-18T06:41:53Z</time>
      </trkpt>
      <trkpt lat="42.510724000" lon="-2.438542000">
        <ele>460.90</ele>
        <time>2017-02-18T06:41:54Z</time>
      </trkpt>
      <trkpt lat="42.510750000" lon="-2.438561000">
        <ele>461.00</ele>
        <time>2017-02-18T06:41:55Z</time>
      </trkpt>
      <trkpt lat="42.510775000" lon="-2.438581000">
        <ele>461.10</ele>
        <time>2017-02-18T06:41:56Z</time>
      </trkpt>
      <trkpt lat="42.510802000" lon="-2.438599000">
        <ele>461.20</ele>
        <time>2017-02-18T06:41:57Z</time>
      </trkpt>
      <trkpt lat="42.510828000" lon="-2.438618000">
        <ele>461.30</ele>
        <time>2017-02-18T06:41:58Z</time>
      </trkpt>
      <trkpt lat="42.510855000" lon="-2.438639000">
        <ele>461.50</ele>
        <time>2017-02-18T06:41:59Z</time>
      </trkpt>
      <trkpt lat="42.510882000" lon="-2.438655000">
        <ele>461.70</ele>
        <time>2017-02-18T06:42:00Z</time>
      </trkpt>
      <trkpt lat="42.510907000" lon="-2.438670000">
        <ele>461.80</ele>
        <time>2017-02-18T06:42:01Z</time>
      </trkpt>
      <trkpt lat="42.510933000" lon="-2.438681000">
        <ele>461.90</ele>
        <time>2017-02-18T06:42:02Z</time>
      </trkpt>
      <trkpt lat="42.510962000" lon="-2.438692000">
        <ele>461.90</ele>
        <time>2017-02-18T06:42:03Z</time>
      </trkpt>
      <trkpt lat="42.510989000" lon="-2.438705000">
        <ele>462.00</ele>
        <time>2017-02-18T06:42:04Z</time>
      </trkpt>
      <trkpt lat="42.511018000" lon="-2.438718000">
        <ele>462.10</ele>
        <time>2017-02-18T06:42:05Z</time>
      </trkpt>
      <trkpt lat="42.511049000" lon="-2.438726000">
        <ele>462.10</ele>
        <time>2017-02-18T06:42:06Z</time>
      </trkpt>
      <trkpt lat="42.511078000" lon="-2.438736000">
        <ele>462.20</ele>
        <time>2017-02-18T06:42:07Z</time>
      </trkpt>
      <trkpt lat="42.511110000" lon="-2.438744000">
        <ele>462.30</ele>
        <time>2017-02-18T06:42:08Z</time>
      </trkpt>
      <trkpt lat="42.511137000" lon="-2.438756000">
        <ele>462.50</ele>
        <time>2017-02-18T06:42:09Z</time>
      </trkpt>
      <trkpt lat="42.511169000" lon="-2.438768000">
        <ele>462.60</ele>
        <time>2017-02-18T06:42:10Z</time>
      </trkpt>
      <trkpt lat="42.511198000" lon="-2.438777000">
        <ele>462.70</ele>
        <time>2017-02-18T06:42:11Z</time>
      </trkpt>
      <trkpt lat="42.511228000" lon="-2.438789000">
        <ele>462.80</ele>
        <time>2017-02-18T06:42:12Z</time>
      </trkpt>
      <trkpt lat="42.511258000" lon="-2.438797000">
        <ele>462.80</ele>
        <time>2017-02-18T06:42:13Z</time>
      </trkpt>
      <trkpt lat="42.511286000" lon="-2.438804000">
        <ele>462.90</ele>
        <time>2017-02-18T06:42:14Z</time>
      </trkpt>
      <trkpt lat="42.511315000" lon="-2.438813000">
        <ele>463.00</ele>
        <time>2017-02-18T06:42:15Z</time>
      </trkpt>
      <trkpt lat="42.511343000" lon="-2.438824000">
        <ele>463.20</ele>
        <time>2017-02-18T06:42:16Z</time>
      </trkpt>
      <trkpt lat="42.511369000" lon="-2.438840000">
        <ele>463.30</ele>
        <time>2017-02-18T06:42:17Z</time>
      </trkpt>
      <trkpt lat="42.511397000" lon="-2.438853000">
        <ele>463.40</ele>
        <time>2017-02-18T06:42:18Z</time>
      </trkpt>
      <trkpt lat="42.511427000" lon="-2.438862000">
        <ele>463.70</ele>
        <time>2017-02-18T06:42:19Z</time>
      </trkpt>
      <trkpt lat="42.511455000" lon="-2.438868000">
        <ele>463.90</ele>
        <time>2017-02-18T06:42:20Z</time>
      </trkpt>
      <trkpt lat="42.511490000" lon="-2.438874000">
        <ele>464.10</ele>
        <time>2017-02-18T06:42:21Z</time>
      </trkpt>
      <trkpt lat="42.511524000" lon="-2.438883000">
        <ele>464.20</ele>
        <time>2017-02-18T06:42:22Z</time>
      </trkpt>
      <trkpt lat="42.511558000" lon="-2.438891000">
        <ele>464.20</ele>
        <time>2017-02-18T06:42:23Z</time>
      </trkpt>
      <trkpt lat="42.511594000" lon="-2.438903000">
        <ele>464.20</ele>
        <time>2017-02-18T06:42:24Z</time>
      </trkpt>
      <trkpt lat="42.511629000" lon="-2.438911000">
        <ele>464.20</ele>
        <time>2017-02-18T06:42:25Z</time>
      </trkpt>
      <trkpt lat="42.511665000" lon="-2.438921000">
        <ele>464.20</ele>
        <time>2017-02-18T06:42:26Z</time>
      </trkpt>
      <trkpt lat="42.511701000" lon="-2.438928000">
        <ele>464.10</ele>
        <time>2017-02-18T06:42:27Z</time>
      </trkpt>
      <trkpt lat="42.511737000" lon="-2.438940000">
        <ele>464.10</ele>
        <time>2017-02-18T06:42:28Z</time>
      </trkpt>
      <trkpt lat="42.511775000" lon="-2.438951000">
        <ele>464.00</ele>
        <time>2017-02-18T06:42:29Z</time>
      </trkpt>
      <trkpt lat="42.511811000" lon="-2.438960000">
        <ele>463.80</ele>
        <time>2017-02-18T06:42:30Z</time>
      </trkpt>
      <trkpt lat="42.511847000" lon="-2.438972000">
        <ele>463.80</ele>
        <time>2017-02-18T06:42:31Z</time>
      </trkpt>
      <trkpt lat="42.511882000" lon="-2.438984000">
        <ele>463.70</ele>
        <time>2017-02-18T06:42:32Z</time>
      </trkpt>
      <trkpt lat="42.511916000" lon="-2.438997000">
        <ele>463.70</ele>
        <time>2017-02-18T06:42:33Z</time>
      </trkpt>
      <trkpt lat="42.511986000" lon="-2.439015000">
        <ele>463.70</ele>
        <time>2017-02-18T06:42:35Z</time>
      </trkpt>
      <trkpt lat="42.512018000" lon="-2.439028000">
        <ele>463.80</ele>
        <time>2017-02-18T06:42:36Z</time>
      </trkpt>
      <trkpt lat="42.512051000" lon="-2.439043000">
        <ele>463.80</ele>
        <time>2017-02-18T06:42:37Z</time>
      </trkpt>
      <trkpt lat="42.512086000" lon="-2.439056000">
        <ele>463.90</ele>
        <time>2017-02-18T06:42:38Z</time>
      </trkpt>
      <trkpt lat="42.512119000" lon="-2.439065000">
        <ele>464.00</ele>
        <time>2017-02-18T06:42:39Z</time>
      </trkpt>
      <trkpt lat="42.512152000" lon="-2.439078000">
        <ele>464.00</ele>
        <time>2017-02-18T06:42:40Z</time>
      </trkpt>
      <trkpt lat="42.512187000" lon="-2.439089000">
        <ele>464.00</ele>
        <time>2017-02-18T06:42:41Z</time>
      </trkpt>
      <trkpt lat="42.512222000" lon="-2.439102000">
        <ele>464.10</ele>
        <time>2017-02-18T06:42:42Z</time>
      </trkpt>
      <trkpt lat="42.512259000" lon="-2.439113000">
        <ele>463.90</ele>
        <time>2017-02-18T06:42:43Z</time>
      </trkpt>
      <trkpt lat="42.512294000" lon="-2.439125000">
        <ele>463.70</ele>
        <time>2017-02-18T06:42:44Z</time>
      </trkpt>
      <trkpt lat="42.512325000" lon="-2.439138000">
        <ele>463.60</ele>
        <time>2017-02-18T06:42:45Z</time>
      </trkpt>
      <trkpt lat="42.512358000" lon="-2.439153000">
        <ele>463.60</ele>
        <time>2017-02-18T06:42:46Z</time>
      </trkpt>
      <trkpt lat="42.512390000" lon="-2.439168000">
        <ele>463.70</ele>
        <time>2017-02-18T06:42:47Z</time>
      </trkpt>
      <trkpt lat="42.512424000" lon="-2.439178000">
        <ele>463.80</ele>
        <time>2017-02-18T06:42:48Z</time>
      </trkpt>
      <trkpt lat="42.512455000" lon="-2.439193000">
        <ele>463.90</ele>
        <time>2017-02-18T06:42:49Z</time>
      </trkpt>
      <trkpt lat="42.512485000" lon="-2.439206000">
        <ele>464.00</ele>
        <time>2017-02-18T06:42:50Z</time>
      </trkpt>
      <trkpt lat="42.512515000" lon="-2.439216000">
        <ele>464.10</ele>
        <time>2017-02-18T06:42:51Z</time>
      </trkpt>
      <trkpt lat="42.512546000" lon="-2.439229000">
        <ele>464.30</ele>
        <time>2017-02-18T06:42:52Z</time>
      </trkpt>
      <trkpt lat="42.512578000" lon="-2.439248000">
        <ele>464.40</ele>
        <time>2017-02-18T06:42:53Z</time>
      </trkpt>
      <trkpt lat="42.512607000" lon="-2.439266000">
        <ele>464.50</ele>
        <time>2017-02-18T06:42:54Z</time>
      </trkpt>
      <trkpt lat="42.512639000" lon="-2.439281000">
        <ele>464.60</ele>
        <time>2017-02-18T06:42:55Z</time>
      </trkpt>
      <trkpt lat="42.512672000" lon="-2.439297000">
        <ele>464.70</ele>
        <time>2017-02-18T06:42:56Z</time>
      </trkpt>
      <trkpt lat="42.512703000" lon="-2.439313000">
        <ele>464.70</ele>
        <time>2017-02-18T06:42:57Z</time>
      </trkpt>
      <trkpt lat="42.512731000" lon="-2.439329000">
        <ele>464.80</ele>
        <time>2017-02-18T06:42:58Z</time>
      </trkpt>
      <trkpt lat="42.512762000" lon="-2.439348000">
        <ele>464.80</ele>
        <time>2017-02-18T06:42:59Z</time>
      </trkpt>
      <trkpt lat="42.512791000" lon="-2.439370000">
        <ele>464.80</ele>
        <time>2017-02-18T06:43:00Z</time>
      </trkpt>
      <trkpt lat="42.512822000" lon="-2.439389000">
        <ele>465.00</ele>
        <time>2017-02-18T06:43:01Z</time>
      </trkpt>
      <trkpt lat="42.512854000" lon="-2.439412000">
        <ele>465.10</ele>
        <time>2017-02-18T06:43:02Z</time>
      </trkpt>
      <trkpt lat="42.512881000" lon="-2.439433000">
        <ele>465.20</ele>
        <time>2017-02-18T06:43:03Z</time>
      </trkpt>
      <trkpt lat="42.512906000" lon="-2.439453000">
        <ele>465.20</ele>
        <time>2017-02-18T06:43:04Z</time>
      </trkpt>
      <trkpt lat="42.512931000" lon="-2.439476000">
        <ele>465.30</ele>
        <time>2017-02-18T06:43:05Z</time>
      </trkpt>
      <trkpt lat="42.512958000" lon="-2.439496000">
        <ele>465.40</ele>
        <time>2017-02-18T06:43:06Z</time>
      </trkpt>
      <trkpt lat="42.512984000" lon="-2.439520000">
        <ele>465.70</ele>
        <time>2017-02-18T06:43:07Z</time>
      </trkpt>
      <trkpt lat="42.513009000" lon="-2.439538000">
        <ele>465.90</ele>
        <time>2017-02-18T06:43:08Z</time>
      </trkpt>
      <trkpt lat="42.513035000" lon="-2.439556000">
        <ele>466.10</ele>
        <time>2017-02-18T06:43:09Z</time>
      </trkpt>
      <trkpt lat="42.513061000" lon="-2.439578000">
        <ele>466.20</ele>
        <time>2017-02-18T06:43:10Z</time>
      </trkpt>
      <trkpt lat="42.513088000" lon="-2.439603000">
        <ele>466.50</ele>
        <time>2017-02-18T06:43:11Z</time>
      </trkpt>
      <trkpt lat="42.513115000" lon="-2.439626000">
        <ele>466.70</ele>
        <time>2017-02-18T06:43:12Z</time>
      </trkpt>
      <trkpt lat="42.513141000" lon="-2.439647000">
        <ele>466.80</ele>
        <time>2017-02-18T06:43:13Z</time>
      </trkpt>
      <trkpt lat="42.513163000" lon="-2.439670000">
        <ele>466.90</ele>
        <time>2017-02-18T06:43:14Z</time>
      </trkpt>
      <trkpt lat="42.513190000" lon="-2.439688000">
        <ele>467.20</ele>
        <time>2017-02-18T06:43:15Z</time>
      </trkpt>
      <trkpt lat="42.513215000" lon="-2.439706000">
        <ele>467.40</ele>
        <time>2017-02-18T06:43:16Z</time>
      </trkpt>
      <trkpt lat="42.513240000" lon="-2.439726000">
        <ele>467.60</ele>
        <time>2017-02-18T06:43:17Z</time>
      </trkpt>
      <trkpt lat="42.513266000" lon="-2.439746000">
        <ele>467.80</ele>
        <time>2017-02-18T06:43:18Z</time>
      </trkpt>
      <trkpt lat="42.513292000" lon="-2.439765000">
        <ele>468.00</ele>
        <time>2017-02-18T06:43:19Z</time>
      </trkpt>
      <trkpt lat="42.513316000" lon="-2.439786000">
        <ele>468.10</ele>
        <time>2017-02-18T06:43:20Z</time>
      </trkpt>
      <trkpt lat="42.513340000" lon="-2.439803000">
        <ele>468.20</ele>
        <time>2017-02-18T06:43:21Z</time>
      </trkpt>
      <trkpt lat="42.513365000" lon="-2.439819000">
        <ele>468.30</ele>
        <time>2017-02-18T06:43:22Z</time>
      </trkpt>
      <trkpt lat="42.513391000" lon="-2.439833000">
        <ele>468.50</ele>
        <time>2017-02-18T06:43:23Z</time>
      </trkpt>
      <trkpt lat="42.513420000" lon="-2.439850000">
        <ele>468.60</ele>
        <time>2017-02-18T06:43:24Z</time>
      </trkpt>
      <trkpt lat="42.513441000" lon="-2.439869000">
        <ele>468.80</ele>
        <time>2017-02-18T06:43:25Z</time>
      </trkpt>
      <trkpt lat="42.513463000" lon="-2.439894000">
        <ele>468.90</ele>
        <time>2017-02-18T06:43:26Z</time>
      </trkpt>
      <trkpt lat="42.513487000" lon="-2.439915000">
        <ele>469.20</ele>
        <time>2017-02-18T06:43:27Z</time>
      </trkpt>
      <trkpt lat="42.513514000" lon="-2.439940000">
        <ele>469.40</ele>
        <time>2017-02-18T06:43:28Z</time>
      </trkpt>
      <trkpt lat="42.513538000" lon="-2.439957000">
        <ele>469.50</ele>
        <time>2017-02-18T06:43:29Z</time>
      </trkpt>
      <trkpt lat="42.513562000" lon="-2.439977000">
        <ele>469.60</ele>
        <time>2017-02-18T06:43:30Z</time>
      </trkpt>
      <trkpt lat="42.513588000" lon="-2.440000000">
        <ele>469.60</ele>
        <time>2017-02-18T06:43:31Z</time>
      </trkpt>
      <trkpt lat="42.513616000" lon="-2.440023000">
        <ele>469.60</ele>
        <time>2017-02-18T06:43:32Z</time>
      </trkpt>
      <trkpt lat="42.513643000" lon="-2.440039000">
        <ele>469.60</ele>
        <time>2017-02-18T06:43:33Z</time>
      </trkpt>
      <trkpt lat="42.513669000" lon="-2.440062000">
        <ele>469.60</ele>
        <time>2017-02-18T06:43:34Z</time>
      </trkpt>
      <trkpt lat="42.513721000" lon="-2.440101000">
        <ele>469.90</ele>
        <time>2017-02-18T06:43:36Z</time>
      </trkpt>
      <trkpt lat="42.513746000" lon="-2.440124000">
        <ele>470.10</ele>
        <time>2017-02-18T06:43:37Z</time>
      </trkpt>
      <trkpt lat="42.513774000" lon="-2.440145000">
        <ele>470.20</ele>
        <time>2017-02-18T06:43:38Z</time>
      </trkpt>
      <trkpt lat="42.513801000" lon="-2.440165000">
        <ele>470.20</ele>
        <time>2017-02-18T06:43:39Z</time>
      </trkpt>
      <trkpt lat="42.513827000" lon="-2.440186000">
        <ele>470.20</ele>
        <time>2017-02-18T06:43:40Z</time>
      </trkpt>
      <trkpt lat="42.513852000" lon="-2.440205000">
        <ele>470.10</ele>
        <time>2017-02-18T06:43:41Z</time>
      </trkpt>
      <trkpt lat="42.513878000" lon="-2.440226000">
        <ele>470.10</ele>
        <time>2017-02-18T06:43:42Z</time>
      </trkpt>
      <trkpt lat="42.513904000" lon="-2.440248000">
        <ele>470.00</ele>
        <time>2017-02-18T06:43:43Z</time>
      </trkpt>
      <trkpt lat="42.513930000" lon="-2.440270000">
        <ele>470.00</ele>
        <time>2017-02-18T06:43:44Z</time>
      </trkpt>
      <trkpt lat="42.513957000" lon="-2.440289000">
        <ele>470.10</ele>
        <time>2017-02-18T06:43:45Z</time>
      </trkpt>
      <trkpt lat="42.513984000" lon="-2.440311000">
        <ele>470.20</ele>
        <time>2017-02-18T06:43:46Z</time>
      </trkpt>
      <trkpt lat="42.514010000" lon="-2.440329000">
        <ele>470.30</ele>
        <time>2017-02-18T06:43:47Z</time>
      </trkpt>
      <trkpt lat="42.514036000" lon="-2.440352000">
        <ele>470.50</ele>
        <time>2017-02-18T06:43:48Z</time>
      </trkpt>
      <trkpt lat="42.514062000" lon="-2.440370000">
        <ele>470.60</ele>
        <time>2017-02-18T06:43:49Z</time>
      </trkpt>
      <trkpt lat="42.514088000" lon="-2.440390000">
        <ele>470.70</ele>
        <time>2017-02-18T06:43:50Z</time>
      </trkpt>
      <trkpt lat="42.514114000" lon="-2.440413000">
        <ele>470.80</ele>
        <time>2017-02-18T06:43:51Z</time>
      </trkpt>
      <trkpt lat="42.514141000" lon="-2.440434000">
        <ele>470.80</ele>
        <time>2017-02-18T06:43:52Z</time>
      </trkpt>
      <trkpt lat="42.514167000" lon="-2.440457000">
        <ele>470.90</ele>
        <time>2017-02-18T06:43:53Z</time>
      </trkpt>
      <trkpt lat="42.514195000" lon="-2.440480000">
        <ele>470.90</ele>
        <time>2017-02-18T06:43:54Z</time>
      </trkpt>
      <trkpt lat="42.514223000" lon="-2.440499000">
        <ele>470.90</ele>
        <time>2017-02-18T06:43:55Z</time>
      </trkpt>
      <trkpt lat="42.514255000" lon="-2.440512000">
        <ele>471.00</ele>
        <time>2017-02-18T06:43:56Z</time>
      </trkpt>
      <trkpt lat="42.514285000" lon="-2.440524000">
        <ele>471.00</ele>
        <time>2017-02-18T06:43:57Z</time>
      </trkpt>
      <trkpt lat="42.514316000" lon="-2.440536000">
        <ele>470.90</ele>
        <time>2017-02-18T06:43:58Z</time>
      </trkpt>
      <trkpt lat="42.514350000" lon="-2.440551000">
        <ele>470.90</ele>
        <time>2017-02-18T06:43:59Z</time>
      </trkpt>
      <trkpt lat="42.514380000" lon="-2.440566000">
        <ele>470.80</ele>
        <time>2017-02-18T06:44:00Z</time>
      </trkpt>
      <trkpt lat="42.514410000" lon="-2.440578000">
        <ele>470.80</ele>
        <time>2017-02-18T06:44:01Z</time>
      </trkpt>
      <trkpt lat="42.514441000" lon="-2.440588000">
        <ele>470.90</ele>
        <time>2017-02-18T06:44:02Z</time>
      </trkpt>
      <trkpt lat="42.514473000" lon="-2.440599000">
        <ele>470.90</ele>
        <time>2017-02-18T06:44:03Z</time>
      </trkpt>
      <trkpt lat="42.514505000" lon="-2.440607000">
        <ele>470.90</ele>
        <time>2017-02-18T06:44:04Z</time>
      </trkpt>
      <trkpt lat="42.514538000" lon="-2.440619000">
        <ele>471.00</ele>
        <time>2017-02-18T06:44:05Z</time>
      </trkpt>
      <trkpt lat="42.514573000" lon="-2.440630000">
        <ele>471.00</ele>
        <time>2017-02-18T06:44:06Z</time>
      </trkpt>
      <trkpt lat="42.514607000" lon="-2.440641000">
        <ele>471.00</ele>
        <time>2017-02-18T06:44:07Z</time>
      </trkpt>
      <trkpt lat="42.514638000" lon="-2.440652000">
        <ele>471.00</ele>
        <time>2017-02-18T06:44:08Z</time>
      </trkpt>
      <trkpt lat="42.514672000" lon="-2.440664000">
        <ele>471.00</ele>
        <time>2017-02-18T06:44:09Z</time>
      </trkpt>
      <trkpt lat="42.514707000" lon="-2.440674000">
        <ele>470.90</ele>
        <time>2017-02-18T06:44:10Z</time>
      </trkpt>
      <trkpt lat="42.514737000" lon="-2.440682000">
        <ele>470.90</ele>
        <time>2017-02-18T06:44:11Z</time>
      </trkpt>
      <trkpt lat="42.514767000" lon="-2.440693000">
        <ele>470.90</ele>
        <time>2017-02-18T06:44:12Z</time>
      </trkpt>
      <trkpt lat="42.514799000" lon="-2.440706000">
        <ele>471.00</ele>
        <time>2017-02-18T06:44:13Z</time>
      </trkpt>
      <trkpt lat="42.514833000" lon="-2.440715000">
        <ele>470.90</ele>
        <time>2017-02-18T06:44:14Z</time>
      </trkpt>
      <trkpt lat="42.514868000" lon="-2.440722000">
        <ele>470.90</ele>
        <time>2017-02-18T06:44:15Z</time>
      </trkpt>
      <trkpt lat="42.514896000" lon="-2.440731000">
        <ele>471.00</ele>
        <time>2017-02-18T06:44:16Z</time>
      </trkpt>
      <trkpt lat="42.514926000" lon="-2.440742000">
        <ele>471.00</ele>
        <time>2017-02-18T06:44:17Z</time>
      </trkpt>
      <trkpt lat="42.514954000" lon="-2.440756000">
        <ele>471.00</ele>
        <time>2017-02-18T06:44:18Z</time>
      </trkpt>
      <trkpt lat="42.514987000" lon="-2.440768000">
        <ele>470.90</ele>
        <time>2017-02-18T06:44:19Z</time>
      </trkpt>
      <trkpt lat="42.515021000" lon="-2.440777000">
        <ele>470.90</ele>
        <time>2017-02-18T06:44:20Z</time>
      </trkpt>
      <trkpt lat="42.515053000" lon="-2.440788000">
        <ele>470.90</ele>
        <time>2017-02-18T06:44:21Z</time>
      </trkpt>
      <trkpt lat="42.515085000" lon="-2.440800000">
        <ele>470.90</ele>
        <time>2017-02-18T06:44:22Z</time>
      </trkpt>
      <trkpt lat="42.515117000" lon="-2.440812000">
        <ele>470.90</ele>
        <time>2017-02-18T06:44:23Z</time>
      </trkpt>
      <trkpt lat="42.515146000" lon="-2.440825000">
        <ele>470.90</ele>
        <time>2017-02-18T06:44:24Z</time>
      </trkpt>
      <trkpt lat="42.515178000" lon="-2.440836000">
        <ele>471.00</ele>
        <time>2017-02-18T06:44:25Z</time>
      </trkpt>
      <trkpt lat="42.515210000" lon="-2.440849000">
        <ele>471.00</ele>
        <time>2017-02-18T06:44:26Z</time>
      </trkpt>
      <trkpt lat="42.515241000" lon="-2.440859000">
        <ele>471.00</ele>
        <time>2017-02-18T06:44:27Z</time>
      </trkpt>
      <trkpt lat="42.515274000" lon="-2.440870000">
        <ele>471.00</ele>
        <time>2017-02-18T06:44:28Z</time>
      </trkpt>
      <trkpt lat="42.515307000" lon="-2.440879000">
        <ele>471.10</ele>
        <time>2017-02-18T06:44:29Z</time>
      </trkpt>
      <trkpt lat="42.515338000" lon="-2.440888000">
        <ele>471.10</ele>
        <time>2017-02-18T06:44:30Z</time>
      </trkpt>
      <trkpt lat="42.515368000" lon="-2.440900000">
        <ele>471.20</ele>
        <time>2017-02-18T06:44:31Z</time>
      </trkpt>
      <trkpt lat="42.515403000" lon="-2.440910000">
        <ele>471.30</ele>
        <time>2017-02-18T06:44:32Z</time>
      </trkpt>
      <trkpt lat="42.515432000" lon="-2.440921000">
        <ele>471.30</ele>
        <time>2017-02-18T06:44:33Z</time>
      </trkpt>
      <trkpt lat="42.515465000" lon="-2.440933000">
        <ele>471.30</ele>
        <time>2017-02-18T06:44:34Z</time>
      </trkpt>
      <trkpt lat="42.515494000" lon="-2.440945000">
        <ele>471.40</ele>
        <time>2017-02-18T06:44:35Z</time>
      </trkpt>
      <trkpt lat="42.515552000" lon="-2.440970000">
        <ele>471.40</ele>
        <time>2017-02-18T06:44:37Z</time>
      </trkpt>
      <trkpt lat="42.515582000" lon="-2.440978000">
        <ele>471.40</ele>
        <time>2017-02-18T06:44:38Z</time>
      </trkpt>
      <trkpt lat="42.515610000" lon="-2.440987000">
        <ele>471.40</ele>
        <time>2017-02-18T06:44:39Z</time>
      </trkpt>
      <trkpt lat="42.515635000" lon="-2.440998000">
        <ele>471.40</ele>
        <time>2017-02-18T06:44:40Z</time>
      </trkpt>
      <trkpt lat="42.515662000" lon="-2.441011000">
        <ele>471.40</ele>
        <time>2017-02-18T06:44:41Z</time>
      </trkpt>
      <trkpt lat="42.515691000" lon="-2.441027000">
        <ele>471.40</ele>
        <time>2017-02-18T06:44:42Z</time>
      </trkpt>
      <trkpt lat="42.515724000" lon="-2.441041000">
        <ele>471.40</ele>
        <time>2017-02-18T06:44:43Z</time>
      </trkpt>
      <trkpt lat="42.515754000" lon="-2.441059000">
        <ele>471.50</ele>
        <time>2017-02-18T06:44:44Z</time>
      </trkpt>
      <trkpt lat="42.515784000" lon="-2.441075000">
        <ele>471.60</ele>
        <time>2017-02-18T06:44:45Z</time>
      </trkpt>
      <trkpt lat="42.515816000" lon="-2.441092000">
        <ele>471.60</ele>
        <time>2017-02-18T06:44:46Z</time>
      </trkpt>
      <trkpt lat="42.515848000" lon="-2.441105000">
        <ele>471.60</ele>
        <time>2017-02-18T06:44:47Z</time>
      </trkpt>
      <trkpt lat="42.515877000" lon="-2.441118000">
        <ele>471.70</ele>
        <time>2017-02-18T06:44:48Z</time>
      </trkpt>
      <trkpt lat="42.515908000" lon="-2.441134000">
        <ele>471.70</ele>
        <time>2017-02-18T06:44:49Z</time>
      </trkpt>
      <trkpt lat="42.515938000" lon="-2.441150000">
        <ele>471.80</ele>
        <time>2017-02-18T06:44:50Z</time>
      </trkpt>
      <trkpt lat="42.515968000" lon="-2.441166000">
        <ele>471.90</ele>
        <time>2017-02-18T06:44:51Z</time>
      </trkpt>
      <trkpt lat="42.515997000" lon="-2.441183000">
        <ele>472.00</ele>
        <time>2017-02-18T06:44:52Z</time>
      </trkpt>
      <trkpt lat="42.516029000" lon="-2.441198000">
        <ele>472.10</ele>
        <time>2017-02-18T06:44:53Z</time>
      </trkpt>
      <trkpt lat="42.516057000" lon="-2.441219000">
        <ele>472.20</ele>
        <time>2017-02-18T06:44:54Z</time>
      </trkpt>
      <trkpt lat="42.516087000" lon="-2.441237000">
        <ele>472.20</ele>
        <time>2017-02-18T06:44:55Z</time>
      </trkpt>
      <trkpt lat="42.516116000" lon="-2.441252000">
        <ele>472.40</ele>
        <time>2017-02-18T06:44:56Z</time>
      </trkpt>
      <trkpt lat="42.516148000" lon="-2.441268000">
        <ele>472.50</ele>
        <time>2017-02-18T06:44:57Z</time>
      </trkpt>
      <trkpt lat="42.516179000" lon="-2.441282000">
        <ele>472.60</ele>
        <time>2017-02-18T06:44:58Z</time>
      </trkpt>
      <trkpt lat="42.516207000" lon="-2.441299000">
        <ele>472.70</ele>
        <time>2017-02-18T06:44:59Z</time>
      </trkpt>
      <trkpt lat="42.516235000" lon="-2.441320000">
        <ele>472.80</ele>
        <time>2017-02-18T06:45:00Z</time>
      </trkpt>
      <trkpt lat="42.516266000" lon="-2.441337000">
        <ele>472.80</ele>
        <time>2017-02-18T06:45:01Z</time>
      </trkpt>
      <trkpt lat="42.516295000" lon="-2.441352000">
        <ele>472.80</ele>
        <time>2017-02-18T06:45:02Z</time>
      </trkpt>
      <trkpt lat="42.516324000" lon="-2.441368000">
        <ele>472.70</ele>
        <time>2017-02-18T06:45:03Z</time>
      </trkpt>
      <trkpt lat="42.516356000" lon="-2.441387000">
        <ele>472.70</ele>
        <time>2017-02-18T06:45:04Z</time>
      </trkpt>
      <trkpt lat="42.516387000" lon="-2.441405000">
        <ele>472.70</ele>
        <time>2017-02-18T06:45:05Z</time>
      </trkpt>
      <trkpt lat="42.516418000" lon="-2.441421000">
        <ele>472.90</ele>
        <time>2017-02-18T06:45:06Z</time>
      </trkpt>
      <trkpt lat="42.516445000" lon="-2.441435000">
        <ele>473.10</ele>
        <time>2017-02-18T06:45:07Z</time>
      </trkpt>
      <trkpt lat="42.516471000" lon="-2.441448000">
        <ele>473.30</ele>
        <time>2017-02-18T06:45:08Z</time>
      </trkpt>
      <trkpt lat="42.516495000" lon="-2.441461000">
        <ele>473.40</ele>
        <time>2017-02-18T06:45:09Z</time>
      </trkpt>
      <trkpt lat="42.516522000" lon="-2.441475000">
        <ele>473.50</ele>
        <time>2017-02-18T06:45:10Z</time>
      </trkpt>
      <trkpt lat="42.516546000" lon="-2.441493000">
        <ele>473.60</ele>
        <time>2017-02-18T06:45:11Z</time>
      </trkpt>
      <trkpt lat="42.516573000" lon="-2.441513000">
        <ele>473.80</ele>
        <time>2017-02-18T06:45:12Z</time>
      </trkpt>
      <trkpt lat="42.516603000" lon="-2.441532000">
        <ele>473.90</ele>
        <time>2017-02-18T06:45:13Z</time>
      </trkpt>
      <trkpt lat="42.516632000" lon="-2.441554000">
        <ele>474.00</ele>
        <time>2017-02-18T06:45:14Z</time>
      </trkpt>
      <trkpt lat="42.516661000" lon="-2.441578000">
        <ele>474.00</ele>
        <time>2017-02-18T06:45:15Z</time>
      </trkpt>
      <trkpt lat="42.516688000" lon="-2.441601000">
        <ele>474.10</ele>
        <time>2017-02-18T06:45:16Z</time>
      </trkpt>
      <trkpt lat="42.516714000" lon="-2.441627000">
        <ele>474.10</ele>
        <time>2017-02-18T06:45:17Z</time>
      </trkpt>
      <trkpt lat="42.516742000" lon="-2.441652000">
        <ele>474.10</ele>
        <time>2017-02-18T06:45:18Z</time>
      </trkpt>
      <trkpt lat="42.516765000" lon="-2.441683000">
        <ele>474.10</ele>
        <time>2017-02-18T06:45:19Z</time>
      </trkpt>
      <trkpt lat="42.516789000" lon="-2.441716000">
        <ele>474.20</ele>
        <time>2017-02-18T06:45:20Z</time>
      </trkpt>
      <trkpt lat="42.516812000" lon="-2.441746000">
        <ele>474.20</ele>
        <time>2017-02-18T06:45:21Z</time>
      </trkpt>
      <trkpt lat="42.516836000" lon="-2.441779000">
        <ele>474.00</ele>
        <time>2017-02-18T06:45:22Z</time>
      </trkpt>
      <trkpt lat="42.516856000" lon="-2.441812000">
        <ele>474.00</ele>
        <time>2017-02-18T06:45:23Z</time>
      </trkpt>
      <trkpt lat="42.516880000" lon="-2.441845000">
        <ele>473.90</ele>
        <time>2017-02-18T06:45:24Z</time>
      </trkpt>
      <trkpt lat="42.516903000" lon="-2.441878000">
        <ele>473.80</ele>
        <time>2017-02-18T06:45:25Z</time>
      </trkpt>
      <trkpt lat="42.516926000" lon="-2.441912000">
        <ele>473.90</ele>
        <time>2017-02-18T06:45:26Z</time>
      </trkpt>
      <trkpt lat="42.516947000" lon="-2.441949000">
        <ele>473.90</ele>
        <time>2017-02-18T06:45:27Z</time>
      </trkpt>
      <trkpt lat="42.516967000" lon="-2.441986000">
        <ele>473.90</ele>
        <time>2017-02-18T06:45:28Z</time>
      </trkpt>
      <trkpt lat="42.516988000" lon="-2.442021000">
        <ele>473.90</ele>
        <time>2017-02-18T06:45:29Z</time>
      </trkpt>
      <trkpt lat="42.517008000" lon="-2.442059000">
        <ele>473.90</ele>
        <time>2017-02-18T06:45:30Z</time>
      </trkpt>
      <trkpt lat="42.517029000" lon="-2.442094000">
        <ele>473.90</ele>
        <time>2017-02-18T06:45:31Z</time>
      </trkpt>
      <trkpt lat="42.517050000" lon="-2.442129000">
        <ele>473.90</ele>
        <time>2017-02-18T06:45:32Z</time>
      </trkpt>
      <trkpt lat="42.517072000" lon="-2.442164000">
        <ele>473.90</ele>
        <time>2017-02-18T06:45:33Z</time>
      </trkpt>
      <trkpt lat="42.517092000" lon="-2.442199000">
        <ele>473.90</ele>
        <time>2017-02-18T06:45:34Z</time>
      </trkpt>
      <trkpt lat="42.517112000" lon="-2.442234000">
        <ele>473.80</ele>
        <time>2017-02-18T06:45:35Z</time>
      </trkpt>
      <trkpt lat="42.517132000" lon="-2.442270000">
        <ele>473.90</ele>
        <time>2017-02-18T06:45:36Z</time>
      </trkpt>
      <trkpt lat="42.517175000" lon="-2.442338000">
        <ele>474.10</ele>
        <time>2017-02-18T06:45:38Z</time>
      </trkpt>
      <trkpt lat="42.517195000" lon="-2.442375000">
        <ele>474.20</ele>
        <time>2017-02-18T06:45:39Z</time>
      </trkpt>
      <trkpt lat="42.517212000" lon="-2.442409000">
        <ele>474.30</ele>
        <time>2017-02-18T06:45:40Z</time>
      </trkpt>
      <trkpt lat="42.517232000" lon="-2.442445000">
        <ele>474.40</ele>
        <time>2017-02-18T06:45:41Z</time>
      </trkpt>
      <trkpt lat="42.517252000" lon="-2.442481000">
        <ele>474.60</ele>
        <time>2017-02-18T06:45:42Z</time>
      </trkpt>
      <trkpt lat="42.517272000" lon="-2.442518000">
        <ele>474.80</ele>
        <time>2017-02-18T06:45:43Z</time>
      </trkpt>
      <trkpt lat="42.517288000" lon="-2.442551000">
        <ele>474.90</ele>
        <time>2017-02-18T06:45:44Z</time>
      </trkpt>
      <trkpt lat="42.517308000" lon="-2.442580000">
        <ele>475.00</ele>
        <time>2017-02-18T06:45:45Z</time>
      </trkpt>
      <trkpt lat="42.517327000" lon="-2.442611000">
        <ele>475.00</ele>
        <time>2017-02-18T06:45:46Z</time>
      </trkpt>
      <trkpt lat="42.517343000" lon="-2.442641000">
        <ele>475.10</ele>
        <time>2017-02-18T06:45:47Z</time>
      </trkpt>
      <trkpt lat="42.517362000" lon="-2.442673000">
        <ele>475.10</ele>
        <time>2017-02-18T06:45:48Z</time>
      </trkpt>
      <trkpt lat="42.517380000" lon="-2.442703000">
        <ele>475.20</ele>
        <time>2017-02-18T06:45:49Z</time>
      </trkpt>
      <trkpt lat="42.517398000" lon="-2.442732000">
        <ele>475.20</ele>
        <time>2017-02-18T06:45:50Z</time>
      </trkpt>
      <trkpt lat="42.517417000" lon="-2.442761000">
        <ele>475.20</ele>
        <time>2017-02-18T06:45:51Z</time>
      </trkpt>
      <trkpt lat="42.517441000" lon="-2.442788000">
        <ele>475.50</ele>
        <time>2017-02-18T06:45:52Z</time>
      </trkpt>
      <trkpt lat="42.517463000" lon="-2.442817000">
        <ele>475.80</ele>
        <time>2017-02-18T06:45:53Z</time>
      </trkpt>
      <trkpt lat="42.517489000" lon="-2.442845000">
        <ele>476.00</ele>
        <time>2017-02-18T06:45:54Z</time>
      </trkpt>
      <trkpt lat="42.517516000" lon="-2.442872000">
        <ele>476.10</ele>
        <time>2017-02-18T06:45:55Z</time>
      </trkpt>
      <trkpt lat="42.517543000" lon="-2.442895000">
        <ele>476.20</ele>
        <time>2017-02-18T06:45:56Z</time>
      </trkpt>
      <trkpt lat="42.517572000" lon="-2.442914000">
        <ele>476.30</ele>
        <time>2017-02-18T06:45:57Z</time>
      </trkpt>
      <trkpt lat="42.517598000" lon="-2.442933000">
        <ele>476.40</ele>
        <time>2017-02-18T06:45:58Z</time>
      </trkpt>
      <trkpt lat="42.517626000" lon="-2.442947000">
        <ele>476.50</ele>
        <time>2017-02-18T06:45:59Z</time>
      </trkpt>
      <trkpt lat="42.517653000" lon="-2.442963000">
        <ele>476.60</ele>
        <time>2017-02-18T06:46:00Z</time>
      </trkpt>
      <trkpt lat="42.517680000" lon="-2.442982000">
        <ele>476.70</ele>
        <time>2017-02-18T06:46:01Z</time>
      </trkpt>
      <trkpt lat="42.517709000" lon="-2.443002000">
        <ele>476.90</ele>
        <time>2017-02-18T06:46:02Z</time>
      </trkpt>
      <trkpt lat="42.517740000" lon="-2.443020000">
        <ele>477.00</ele>
        <time>2017-02-18T06:46:03Z</time>
      </trkpt>
      <trkpt lat="42.517765000" lon="-2.443041000">
        <ele>477.20</ele>
        <time>2017-02-18T06:46:04Z</time>
      </trkpt>
      <trkpt lat="42.517794000" lon="-2.443056000">
        <ele>477.20</ele>
        <time>2017-02-18T06:46:05Z</time>
      </trkpt>
      <trkpt lat="42.517820000" lon="-2.443072000">
        <ele>477.30</ele>
        <time>2017-02-18T06:46:06Z</time>
      </trkpt>
      <trkpt lat="42.517848000" lon="-2.443091000">
        <ele>477.30</ele>
        <time>2017-02-18T06:46:07Z</time>
      </trkpt>
      <trkpt lat="42.517877000" lon="-2.443106000">
        <ele>477.40</ele>
        <time>2017-02-18T06:46:08Z</time>
      </trkpt>
      <trkpt lat="42.517906000" lon="-2.443126000">
        <ele>477.40</ele>
        <time>2017-02-18T06:46:09Z</time>
      </trkpt>
      <trkpt lat="42.517934000" lon="-2.443137000">
        <ele>477.40</ele>
        <time>2017-02-18T06:46:10Z</time>
      </trkpt>
      <trkpt lat="42.517965000" lon="-2.443154000">
        <ele>477.40</ele>
        <time>2017-02-18T06:46:11Z</time>
      </trkpt>
      <trkpt lat="42.517994000" lon="-2.443168000">
        <ele>477.50</ele>
        <time>2017-02-18T06:46:12Z</time>
      </trkpt>
      <trkpt lat="42.518022000" lon="-2.443183000">
        <ele>477.60</ele>
        <time>2017-02-18T06:46:13Z</time>
      </trkpt>
      <trkpt lat="42.518053000" lon="-2.443198000">
        <ele>477.70</ele>
        <time>2017-02-18T06:46:14Z</time>
      </trkpt>
      <trkpt lat="42.518080000" lon="-2.443213000">
        <ele>477.80</ele>
        <time>2017-02-18T06:46:15Z</time>
      </trkpt>
      <trkpt lat="42.518110000" lon="-2.443228000">
        <ele>477.90</ele>
        <time>2017-02-18T06:46:16Z</time>
      </trkpt>
      <trkpt lat="42.518138000" lon="-2.443243000">
        <ele>478.00</ele>
        <time>2017-02-18T06:46:17Z</time>
      </trkpt>
      <trkpt lat="42.518164000" lon="-2.443259000">
        <ele>478.10</ele>
        <time>2017-02-18T06:46:18Z</time>
      </trkpt>
      <trkpt lat="42.518194000" lon="-2.443273000">
        <ele>478.20</ele>
        <time>2017-02-18T06:46:19Z</time>
      </trkpt>
      <trkpt lat="42.518224000" lon="-2.443288000">
        <ele>478.30</ele>
        <time>2017-02-18T06:46:20Z</time>
      </trkpt>
      <trkpt lat="42.518256000" lon="-2.443305000">
        <ele>478.30</ele>
        <time>2017-02-18T06:46:21Z</time>
      </trkpt>
      <trkpt lat="42.518289000" lon="-2.443317000">
        <ele>478.40</ele>
        <time>2017-02-18T06:46:22Z</time>
      </trkpt>
      <trkpt lat="42.518321000" lon="-2.443329000">
        <ele>478.40</ele>
        <time>2017-02-18T06:46:23Z</time>
      </trkpt>
      <trkpt lat="42.518351000" lon="-2.443340000">
        <ele>478.50</ele>
        <time>2017-02-18T06:46:24Z</time>
      </trkpt>
      <trkpt lat="42.518379000" lon="-2.443355000">
        <ele>478.60</ele>
        <time>2017-02-18T06:46:25Z</time>
      </trkpt>
      <trkpt lat="42.518410000" lon="-2.443360000">
        <ele>478.70</ele>
        <time>2017-02-18T06:46:26Z</time>
      </trkpt>
      <trkpt lat="42.518443000" lon="-2.443366000">
        <ele>478.80</ele>
        <time>2017-02-18T06:46:27Z</time>
      </trkpt>
      <trkpt lat="42.518475000" lon="-2.443371000">
        <ele>478.80</ele>
        <time>2017-02-18T06:46:28Z</time>
      </trkpt>
      <trkpt lat="42.518509000" lon="-2.443375000">
        <ele>478.80</ele>
        <time>2017-02-18T06:46:29Z</time>
      </trkpt>
      <trkpt lat="42.518544000" lon="-2.443378000">
        <ele>478.70</ele>
        <time>2017-02-18T06:46:30Z</time>
      </trkpt>
      <trkpt lat="42.518580000" lon="-2.443385000">
        <ele>478.70</ele>
        <time>2017-02-18T06:46:31Z</time>
      </trkpt>
      <trkpt lat="42.518613000" lon="-2.443391000">
        <ele>478.70</ele>
        <time>2017-02-18T06:46:32Z</time>
      </trkpt>
      <trkpt lat="42.518643000" lon="-2.443392000">
        <ele>478.70</ele>
        <time>2017-02-18T06:46:33Z</time>
      </trkpt>
      <trkpt lat="42.518676000" lon="-2.443396000">
        <ele>478.60</ele>
        <time>2017-02-18T06:46:34Z</time>
      </trkpt>
      <trkpt lat="42.518709000" lon="-2.443403000">
        <ele>478.60</ele>
        <time>2017-02-18T06:46:35Z</time>
      </trkpt>
      <trkpt lat="42.518743000" lon="-2.443408000">
        <ele>478.70</ele>
        <time>2017-02-18T06:46:36Z</time>
      </trkpt>
      <trkpt lat="42.518773000" lon="-2.443409000">
        <ele>478.80</ele>
        <time>2017-02-18T06:46:37Z</time>
      </trkpt>
      <trkpt lat="42.518833000" lon="-2.443408000">
        <ele>478.80</ele>
        <time>2017-02-18T06:46:39Z</time>
      </trkpt>
      <trkpt lat="42.518863000" lon="-2.443410000">
        <ele>478.80</ele>
        <time>2017-02-18T06:46:40Z</time>
      </trkpt>
      <trkpt lat="42.518894000" lon="-2.443414000">
        <ele>478.80</ele>
        <time>2017-02-18T06:46:41Z</time>
      </trkpt>
      <trkpt lat="42.518927000" lon="-2.443419000">
        <ele>478.80</ele>
        <time>2017-02-18T06:46:42Z</time>
      </trkpt>
      <trkpt lat="42.518961000" lon="-2.443422000">
        <ele>478.80</ele>
        <time>2017-02-18T06:46:43Z</time>
      </trkpt>
      <trkpt lat="42.518991000" lon="-2.443424000">
        <ele>478.90</ele>
        <time>2017-02-18T06:46:44Z</time>
      </trkpt>
      <trkpt lat="42.519026000" lon="-2.443423000">
        <ele>479.00</ele>
        <time>2017-02-18T06:46:45Z</time>
      </trkpt>
      <trkpt lat="42.519062000" lon="-2.443425000">
        <ele>479.10</ele>
        <time>2017-02-18T06:46:46Z</time>
      </trkpt>
      <trkpt lat="42.519096000" lon="-2.443426000">
        <ele>479.10</ele>
        <time>2017-02-18T06:46:47Z</time>
      </trkpt>
      <trkpt lat="42.519128000" lon="-2.443426000">
        <ele>479.30</ele>
        <time>2017-02-18T06:46:48Z</time>
      </trkpt>
      <trkpt lat="42.519160000" lon="-2.443430000">
        <ele>479.40</ele>
        <time>2017-02-18T06:46:49Z</time>
      </trkpt>
      <trkpt lat="42.519194000" lon="-2.443432000">
        <ele>479.40</ele>
        <time>2017-02-18T06:46:50Z</time>
      </trkpt>
      <trkpt lat="42.519228000" lon="-2.443439000">
        <ele>479.40</ele>
        <time>2017-02-18T06:46:51Z</time>
      </trkpt>
      <trkpt lat="42.519262000" lon="-2.443445000">
        <ele>479.50</ele>
        <time>2017-02-18T06:46:52Z</time>
      </trkpt>
      <trkpt lat="42.519294000" lon="-2.443448000">
        <ele>479.60</ele>
        <time>2017-02-18T06:46:53Z</time>
      </trkpt>
      <trkpt lat="42.519327000" lon="-2.443455000">
        <ele>479.60</ele>
        <time>2017-02-18T06:46:54Z</time>
      </trkpt>
      <trkpt lat="42.519359000" lon="-2.443463000">
        <ele>479.60</ele>
        <time>2017-02-18T06:46:55Z</time>
      </trkpt>
      <trkpt lat="42.519389000" lon="-2.443474000">
        <ele>479.60</ele>
        <time>2017-02-18T06:46:56Z</time>
      </trkpt>
      <trkpt lat="42.519421000" lon="-2.443485000">
        <ele>479.70</ele>
        <time>2017-02-18T06:46:57Z</time>
      </trkpt>
      <trkpt lat="42.519453000" lon="-2.443498000">
        <ele>479.70</ele>
        <time>2017-02-18T06:46:58Z</time>
      </trkpt>
      <trkpt lat="42.519486000" lon="-2.443512000">
        <ele>479.70</ele>
        <time>2017-02-18T06:46:59Z</time>
      </trkpt>
      <trkpt lat="42.519519000" lon="-2.443526000">
        <ele>479.70</ele>
        <time>2017-02-18T06:47:00Z</time>
      </trkpt>
      <trkpt lat="42.519548000" lon="-2.443542000">
        <ele>479.80</ele>
        <time>2017-02-18T06:47:01Z</time>
      </trkpt>
      <trkpt lat="42.519576000" lon="-2.443555000">
        <ele>479.80</ele>
        <time>2017-02-18T06:47:02Z</time>
      </trkpt>
      <trkpt lat="42.519607000" lon="-2.443571000">
        <ele>479.80</ele>
        <time>2017-02-18T06:47:03Z</time>
      </trkpt>
      <trkpt lat="42.519638000" lon="-2.443585000">
        <ele>479.90</ele>
        <time>2017-02-18T06:47:04Z</time>
      </trkpt>
      <trkpt lat="42.519667000" lon="-2.443598000">
        <ele>479.90</ele>
        <time>2017-02-18T06:47:05Z</time>
      </trkpt>
      <trkpt lat="42.519696000" lon="-2.443614000">
        <ele>480.00</ele>
        <time>2017-02-18T06:47:06Z</time>
      </trkpt>
      <trkpt lat="42.519726000" lon="-2.443628000">
        <ele>480.10</ele>
        <time>2017-02-18T06:47:07Z</time>
      </trkpt>
      <trkpt lat="42.519758000" lon="-2.443643000">
        <ele>480.10</ele>
        <time>2017-02-18T06:47:08Z</time>
      </trkpt>
      <trkpt lat="42.519793000" lon="-2.443660000">
        <ele>480.20</ele>
        <time>2017-02-18T06:47:09Z</time>
      </trkpt>
      <trkpt lat="42.519825000" lon="-2.443674000">
        <ele>480.20</ele>
        <time>2017-02-18T06:47:10Z</time>
      </trkpt>
      <trkpt lat="42.519858000" lon="-2.443686000">
        <ele>480.20</ele>
        <time>2017-02-18T06:47:11Z</time>
      </trkpt>
      <trkpt lat="42.519889000" lon="-2.443701000">
        <ele>480.20</ele>
        <time>2017-02-18T06:47:12Z</time>
      </trkpt>
      <trkpt lat="42.519921000" lon="-2.443711000">
        <ele>480.20</ele>
        <time>2017-02-18T06:47:13Z</time>
      </trkpt>
      <trkpt lat="42.519955000" lon="-2.443727000">
        <ele>480.10</ele>
        <time>2017-02-18T06:47:14Z</time>
      </trkpt>
      <trkpt lat="42.519990000" lon="-2.443743000">
        <ele>480.10</ele>
        <time>2017-02-18T06:47:15Z</time>
      </trkpt>
      <trkpt lat="42.520023000" lon="-2.443759000">
        <ele>480.20</ele>
        <time>2017-02-18T06:47:16Z</time>
      </trkpt>
      <trkpt lat="42.520054000" lon="-2.443774000">
        <ele>480.30</ele>
        <time>2017-02-18T06:47:17Z</time>
      </trkpt>
      <trkpt lat="42.520085000" lon="-2.443788000">
        <ele>480.30</ele>
        <time>2017-02-18T06:47:18Z</time>
      </trkpt>
      <trkpt lat="42.520121000" lon="-2.443802000">
        <ele>480.40</ele>
        <time>2017-02-18T06:47:19Z</time>
      </trkpt>
      <trkpt lat="42.520154000" lon="-2.443814000">
        <ele>480.40</ele>
        <time>2017-02-18T06:47:20Z</time>
      </trkpt>
      <trkpt lat="42.520190000" lon="-2.443828000">
        <ele>480.40</ele>
        <time>2017-02-18T06:47:21Z</time>
      </trkpt>
      <trkpt lat="42.520223000" lon="-2.443843000">
        <ele>480.40</ele>
        <time>2017-02-18T06:47:22Z</time>
      </trkpt>
      <trkpt lat="42.520256000" lon="-2.443855000">
        <ele>480.50</ele>
        <time>2017-02-18T06:47:23Z</time>
      </trkpt>
      <trkpt lat="42.520288000" lon="-2.443870000">
        <ele>480.40</ele>
        <time>2017-02-18T06:47:24Z</time>
      </trkpt>
      <trkpt lat="42.520319000" lon="-2.443881000">
        <ele>480.40</ele>
        <time>2017-02-18T06:47:25Z</time>
      </trkpt>
      <trkpt lat="42.520349000" lon="-2.443887000">
        <ele>480.50</ele>
        <time>2017-02-18T06:47:26Z</time>
      </trkpt>
      <trkpt lat="42.520381000" lon="-2.443897000">
        <ele>480.60</ele>
        <time>2017-02-18T06:47:27Z</time>
      </trkpt>
      <trkpt lat="42.520412000" lon="-2.443905000">
        <ele>480.90</ele>
        <time>2017-02-18T06:47:28Z</time>
      </trkpt>
      <trkpt lat="42.520443000" lon="-2.443913000">
        <ele>481.20</ele>
        <time>2017-02-18T06:47:29Z</time>
      </trkpt>
      <trkpt lat="42.520474000" lon="-2.443917000">
        <ele>481.40</ele>
        <time>2017-02-18T06:47:30Z</time>
      </trkpt>
      <trkpt lat="42.520508000" lon="-2.443919000">
        <ele>481.60</ele>
        <time>2017-02-18T06:47:31Z</time>
      </trkpt>
      <trkpt lat="42.520541000" lon="-2.443919000">
        <ele>481.70</ele>
        <time>2017-02-18T06:47:32Z</time>
      </trkpt>
      <trkpt lat="42.520569000" lon="-2.443920000">
        <ele>481.80</ele>
        <time>2017-02-18T06:47:33Z</time>
      </trkpt>
      <trkpt lat="42.520598000" lon="-2.443926000">
        <ele>481.80</ele>
        <time>2017-02-18T06:47:34Z</time>
      </trkpt>
      <trkpt lat="42.520630000" lon="-2.443931000">
        <ele>481.90</ele>
        <time>2017-02-18T06:47:35Z</time>
      </trkpt>
      <trkpt lat="42.520666000" lon="-2.443929000">
        <ele>481.90</ele>
        <time>2017-02-18T06:47:36Z</time>
      </trkpt>
      <trkpt lat="42.520699000" lon="-2.443930000">
        <ele>482.00</ele>
        <time>2017-02-18T06:47:37Z</time>
      </trkpt>
      <trkpt lat="42.520732000" lon="-2.443933000">
        <ele>482.00</ele>
        <time>2017-02-18T06:47:38Z</time>
      </trkpt>
      <trkpt lat="42.520792000" lon="-2.443933000">
        <ele>481.90</ele>
        <time>2017-02-18T06:47:40Z</time>
      </trkpt>
      <trkpt lat="42.520821000" lon="-2.443931000">
        <ele>481.90</ele>
        <time>2017-02-18T06:47:41Z</time>
      </trkpt>
      <trkpt lat="42.520852000" lon="-2.443928000">
        <ele>482.00</ele>
        <time>2017-02-18T06:47:42Z</time>
      </trkpt>
      <trkpt lat="42.520885000" lon="-2.443925000">
        <ele>482.10</ele>
        <time>2017-02-18T06:47:43Z</time>
      </trkpt>
      <trkpt lat="42.520920000" lon="-2.443925000">
        <ele>482.20</ele>
        <time>2017-02-18T06:47:44Z</time>
      </trkpt>
      <trkpt lat="42.520958000" lon="-2.443919000">
        <ele>482.30</ele>
        <time>2017-02-18T06:47:45Z</time>
      </trkpt>
      <trkpt lat="42.520997000" lon="-2.443918000">
        <ele>482.40</ele>
        <time>2017-02-18T06:47:46Z</time>
      </trkpt>
      <trkpt lat="42.521031000" lon="-2.443917000">
        <ele>482.40</ele>
        <time>2017-02-18T06:47:47Z</time>
      </trkpt>
      <trkpt lat="42.521068000" lon="-2.443917000">
        <ele>482.50</ele>
        <time>2017-02-18T06:47:48Z</time>
      </trkpt>
      <trkpt lat="42.521107000" lon="-2.443914000">
        <ele>482.50</ele>
        <time>2017-02-18T06:47:49Z</time>
      </trkpt>
      <trkpt lat="42.521143000" lon="-2.443912000">
        <ele>482.50</ele>
        <time>2017-02-18T06:47:50Z</time>
      </trkpt>
      <trkpt lat="42.521181000" lon="-2.443910000">
        <ele>482.50</ele>
        <time>2017-02-18T06:47:51Z</time>
      </trkpt>
      <trkpt lat="42.521220000" lon="-2.443910000">
        <ele>482.50</ele>
        <time>2017-02-18T06:47:52Z</time>
      </trkpt>
      <trkpt lat="42.521259000" lon="-2.443909000">
        <ele>482.50</ele>
        <time>2017-02-18T06:47:53Z</time>
      </trkpt>
      <trkpt lat="42.521299000" lon="-2.443906000">
        <ele>482.40</ele>
        <time>2017-02-18T06:47:54Z</time>
      </trkpt>
      <trkpt lat="42.521339000" lon="-2.443910000">
        <ele>482.30</ele>
        <time>2017-02-18T06:47:55Z</time>
      </trkpt>
      <trkpt lat="42.521378000" lon="-2.443913000">
        <ele>482.10</ele>
        <time>2017-02-18T06:47:56Z</time>
      </trkpt>
      <trkpt lat="42.521420000" lon="-2.443914000">
        <ele>481.90</ele>
        <time>2017-02-18T06:47:57Z</time>
      </trkpt>
      <trkpt lat="42.521457000" lon="-2.443915000">
        <ele>481.70</ele>
        <time>2017-02-18T06:47:58Z</time>
      </trkpt>
      <trkpt lat="42.521497000" lon="-2.443914000">
        <ele>481.60</ele>
        <time>2017-02-18T06:47:59Z</time>
      </trkpt>
      <trkpt lat="42.521538000" lon="-2.443911000">
        <ele>481.60</ele>
        <time>2017-02-18T06:48:00Z</time>
      </trkpt>
      <trkpt lat="42.521576000" lon="-2.443910000">
        <ele>481.60</ele>
        <time>2017-02-18T06:48:01Z</time>
      </trkpt>
      <trkpt lat="42.521615000" lon="-2.443910000">
        <ele>481.60</ele>
        <time>2017-02-18T06:48:02Z</time>
      </trkpt>
      <trkpt lat="42.521654000" lon="-2.443911000">
        <ele>481.70</ele>
        <time>2017-02-18T06:48:03Z</time>
      </trkpt>
      <trkpt lat="42.521695000" lon="-2.443910000">
        <ele>481.80</ele>
        <time>2017-02-18T06:48:04Z</time>
      </trkpt>
      <trkpt lat="42.521736000" lon="-2.443908000">
        <ele>481.80</ele>
        <time>2017-02-18T06:48:05Z</time>
      </trkpt>
      <trkpt lat="42.521777000" lon="-2.443905000">
        <ele>481.90</ele>
        <time>2017-02-18T06:48:06Z</time>
      </trkpt>
      <trkpt lat="42.521822000" lon="-2.443906000">
        <ele>481.90</ele>
        <time>2017-02-18T06:48:07Z</time>
      </trkpt>
      <trkpt lat="42.521868000" lon="-2.443907000">
        <ele>481.80</ele>
        <time>2017-02-18T06:48:08Z</time>
      </trkpt>
      <trkpt lat="42.521916000" lon="-2.443906000">
        <ele>481.60</ele>
        <time>2017-02-18T06:48:09Z</time>
      </trkpt>
      <trkpt lat="42.521963000" lon="-2.443907000">
        <ele>481.40</ele>
        <time>2017-02-18T06:48:10Z</time>
      </trkpt>
      <trkpt lat="42.522011000" lon="-2.443908000">
        <ele>481.30</ele>
        <time>2017-02-18T06:48:11Z</time>
      </trkpt>
      <trkpt lat="42.522061000" lon="-2.443907000">
        <ele>481.30</ele>
        <time>2017-02-18T06:48:12Z</time>
      </trkpt>
      <trkpt lat="42.522111000" lon="-2.443907000">
        <ele>481.30</ele>
        <time>2017-02-18T06:48:13Z</time>
      </trkpt>
      <trkpt lat="42.522157000" lon="-2.443902000">
        <ele>481.10</ele>
        <time>2017-02-18T06:48:14Z</time>
      </trkpt>
      <trkpt lat="42.522205000" lon="-2.443901000">
        <ele>481.00</ele>
        <time>2017-02-18T06:48:15Z</time>
      </trkpt>
      <trkpt lat="42.522251000" lon="-2.443899000">
        <ele>481.00</ele>
        <time>2017-02-18T06:48:16Z</time>
      </trkpt>
      <trkpt lat="42.522295000" lon="-2.443899000">
        <ele>480.90</ele>
        <time>2017-02-18T06:48:17Z</time>
      </trkpt>
      <trkpt lat="42.522339000" lon="-2.443898000">
        <ele>480.90</ele>
        <time>2017-02-18T06:48:18Z</time>
      </trkpt>
      <trkpt lat="42.522379000" lon="-2.443896000">
        <ele>480.80</ele>
        <time>2017-02-18T06:48:19Z</time>
      </trkpt>
      <trkpt lat="42.522419000" lon="-2.443896000">
        <ele>480.80</ele>
        <time>2017-02-18T06:48:20Z</time>
      </trkpt>
      <trkpt lat="42.522457000" lon="-2.443897000">
        <ele>480.80</ele>
        <time>2017-02-18T06:48:21Z</time>
      </trkpt>
      <trkpt lat="42.522495000" lon="-2.443898000">
        <ele>481.00</ele>
        <time>2017-02-18T06:48:22Z</time>
      </trkpt>
      <trkpt lat="42.522531000" lon="-2.443900000">
        <ele>481.10</ele>
        <time>2017-02-18T06:48:23Z</time>
      </trkpt>
      <trkpt lat="42.522568000" lon="-2.443899000">
        <ele>481.20</ele>
        <time>2017-02-18T06:48:24Z</time>
      </trkpt>
      <trkpt lat="42.522603000" lon="-2.443901000">
        <ele>481.30</ele>
        <time>2017-02-18T06:48:25Z</time>
      </trkpt>
      <trkpt lat="42.522635000" lon="-2.443907000">
        <ele>481.60</ele>
        <time>2017-02-18T06:48:26Z</time>
      </trkpt>
      <trkpt lat="42.522663000" lon="-2.443916000">
        <ele>481.70</ele>
        <time>2017-02-18T06:48:27Z</time>
      </trkpt>
      <trkpt lat="42.522693000" lon="-2.443927000">
        <ele>481.90</ele>
        <time>2017-02-18T06:48:28Z</time>
      </trkpt>
      <trkpt lat="42.522715000" lon="-2.443945000">
        <ele>482.00</ele>
        <time>2017-02-18T06:48:29Z</time>
      </trkpt>
      <trkpt lat="42.522736000" lon="-2.443976000">
        <ele>482.20</ele>
        <time>2017-02-18T06:48:30Z</time>
      </trkpt>
      <trkpt lat="42.522755000" lon="-2.444019000">
        <ele>482.40</ele>
        <time>2017-02-18T06:48:31Z</time>
      </trkpt>
      <trkpt lat="42.522769000" lon="-2.444072000">
        <ele>482.60</ele>
        <time>2017-02-18T06:48:32Z</time>
      </trkpt>
      <trkpt lat="42.522780000" lon="-2.444139000">
        <ele>482.70</ele>
        <time>2017-02-18T06:48:33Z</time>
      </trkpt>
      <trkpt lat="42.522786000" lon="-2.444218000">
        <ele>482.40</ele>
        <time>2017-02-18T06:48:34Z</time>
      </trkpt>
      <trkpt lat="42.522790000" lon="-2.444301000">
        <ele>482.20</ele>
        <time>2017-02-18T06:48:35Z</time>
      </trkpt>
      <trkpt lat="42.522792000" lon="-2.444382000">
        <ele>481.80</ele>
        <time>2017-02-18T06:48:36Z</time>
      </trkpt>
      <trkpt lat="42.522796000" lon="-2.444465000">
        <ele>481.40</ele>
        <time>2017-02-18T06:48:37Z</time>
      </trkpt>
      <trkpt lat="42.522798000" lon="-2.444549000">
        <ele>481.10</ele>
        <time>2017-02-18T06:48:38Z</time>
      </trkpt>
      <trkpt lat="42.522798000" lon="-2.444628000">
        <ele>480.90</ele>
        <time>2017-02-18T06:48:39Z</time>
      </trkpt>
      <trkpt lat="42.522800000" lon="-2.444785000">
        <ele>480.60</ele>
        <time>2017-02-18T06:48:41Z</time>
      </trkpt>
      <trkpt lat="42.522801000" lon="-2.444864000">
        <ele>480.50</ele>
        <time>2017-02-18T06:48:42Z</time>
      </trkpt>
      <trkpt lat="42.522802000" lon="-2.444941000">
        <ele>480.30</ele>
        <time>2017-02-18T06:48:43Z</time>
      </trkpt>
      <trkpt lat="42.522805000" lon="-2.445018000">
        <ele>480.20</ele>
        <time>2017-02-18T06:48:44Z</time>
      </trkpt>
      <trkpt lat="42.522806000" lon="-2.445097000">
        <ele>480.20</ele>
        <time>2017-02-18T06:48:45Z</time>
      </trkpt>
      <trkpt lat="42.522809000" lon="-2.445174000">
        <ele>480.10</ele>
        <time>2017-02-18T06:48:46Z</time>
      </trkpt>
      <trkpt lat="42.522813000" lon="-2.445250000">
        <ele>480.10</ele>
        <time>2017-02-18T06:48:47Z</time>
      </trkpt>
      <trkpt lat="42.522819000" lon="-2.445328000">
        <ele>480.10</ele>
        <time>2017-02-18T06:48:48Z</time>
      </trkpt>
      <trkpt lat="42.522823000" lon="-2.445404000">
        <ele>480.00</ele>
        <time>2017-02-18T06:48:49Z</time>
      </trkpt>
      <trkpt lat="42.522825000" lon="-2.445480000">
        <ele>479.90</ele>
        <time>2017-02-18T06:48:50Z</time>
      </trkpt>
      <trkpt lat="42.522826000" lon="-2.445558000">
        <ele>479.80</ele>
        <time>2017-02-18T06:48:51Z</time>
      </trkpt>
      <trkpt lat="42.522825000" lon="-2.445636000">
        <ele>479.70</ele>
        <time>2017-02-18T06:48:52Z</time>
      </trkpt>
      <trkpt lat="42.522823000" lon="-2.445710000">
        <ele>479.70</ele>
        <time>2017-02-18T06:48:53Z</time>
      </trkpt>
      <trkpt lat="42.522823000" lon="-2.445782000">
        <ele>479.60</ele>
        <time>2017-02-18T06:48:54Z</time>
      </trkpt>
      <trkpt lat="42.522826000" lon="-2.445846000">
        <ele>479.60</ele>
        <time>2017-02-18T06:48:55Z</time>
      </trkpt>
      <trkpt lat="42.522827000" lon="-2.445908000">
        <ele>479.50</ele>
        <time>2017-02-18T06:48:56Z</time>
      </trkpt>
      <trkpt lat="42.522831000" lon="-2.445965000">
        <ele>479.50</ele>
        <time>2017-02-18T06:48:57Z</time>
      </trkpt>
      <trkpt lat="42.522834000" lon="-2.446022000">
        <ele>479.50</ele>
        <time>2017-02-18T06:48:58Z</time>
      </trkpt>
      <trkpt lat="42.522835000" lon="-2.446074000">
        <ele>479.70</ele>
        <time>2017-02-18T06:48:59Z</time>
      </trkpt>
      <trkpt lat="42.522838000" lon="-2.446122000">
        <ele>479.90</ele>
        <time>2017-02-18T06:49:00Z</time>
      </trkpt>
      <trkpt lat="42.522841000" lon="-2.446172000">
        <ele>480.10</ele>
        <time>2017-02-18T06:49:01Z</time>
      </trkpt>
      <trkpt lat="42.522842000" lon="-2.446221000">
        <ele>480.20</ele>
        <time>2017-02-18T06:49:02Z</time>
      </trkpt>
      <trkpt lat="42.522843000" lon="-2.446268000">
        <ele>480.40</ele>
        <time>2017-02-18T06:49:03Z</time>
      </trkpt>
      <trkpt lat="42.522840000" lon="-2.446315000">
        <ele>480.50</ele>
        <time>2017-02-18T06:49:04Z</time>
      </trkpt>
      <trkpt lat="42.522840000" lon="-2.446363000">
        <ele>480.60</ele>
        <time>2017-02-18T06:49:05Z</time>
      </trkpt>
      <trkpt lat="42.522840000" lon="-2.446411000">
        <ele>480.70</ele>
        <time>2017-02-18T06:49:06Z</time>
      </trkpt>
      <trkpt lat="42.522841000" lon="-2.446460000">
        <ele>480.70</ele>
        <time>2017-02-18T06:49:07Z</time>
      </trkpt>
      <trkpt lat="42.522845000" lon="-2.446510000">
        <ele>480.70</ele>
        <time>2017-02-18T06:49:08Z</time>
      </trkpt>
      <trkpt lat="42.522846000" lon="-2.446558000">
        <ele>480.70</ele>
        <time>2017-02-18T06:49:09Z</time>
      </trkpt>
      <trkpt lat="42.522850000" lon="-2.446611000">
        <ele>480.70</ele>
        <time>2017-02-18T06:49:10Z</time>
      </trkpt>
      <trkpt lat="42.522853000" lon="-2.446664000">
        <ele>480.70</ele>
        <time>2017-02-18T06:49:11Z</time>
      </trkpt>
      <trkpt lat="42.522858000" lon="-2.446710000">
        <ele>480.80</ele>
        <time>2017-02-18T06:49:12Z</time>
      </trkpt>
      <trkpt lat="42.522860000" lon="-2.446746000">
        <ele>480.80</ele>
        <time>2017-02-18T06:49:13Z</time>
      </trkpt>
      <trkpt lat="42.522864000" lon="-2.446772000">
        <ele>480.80</ele>
        <time>2017-02-18T06:49:14Z</time>
      </trkpt>
      <trkpt lat="42.522866000" lon="-2.446797000">
        <ele>480.70</ele>
        <time>2017-02-18T06:49:15Z</time>
      </trkpt>
      <trkpt lat="42.522873000" lon="-2.446819000">
        <ele>480.70</ele>
        <time>2017-02-18T06:49:16Z</time>
      </trkpt>
      <trkpt lat="42.522880000" lon="-2.446837000">
        <ele>480.60</ele>
        <time>2017-02-18T06:49:17Z</time>
      </trkpt>
      <trkpt lat="42.522887000" lon="-2.446855000">
        <ele>480.50</ele>
        <time>2017-02-18T06:49:18Z</time>
      </trkpt>
      <trkpt lat="42.522898000" lon="-2.446878000">
        <ele>480.50</ele>
        <time>2017-02-18T06:49:19Z</time>
      </trkpt>
      <trkpt lat="42.522906000" lon="-2.446908000">
        <ele>480.50</ele>
        <time>2017-02-18T06:49:20Z</time>
      </trkpt>
      <trkpt lat="42.522910000" lon="-2.446941000">
        <ele>480.50</ele>
        <time>2017-02-18T06:49:21Z</time>
      </trkpt>
      <trkpt lat="42.522911000" lon="-2.446975000">
        <ele>480.50</ele>
        <time>2017-02-18T06:49:22Z</time>
      </trkpt>
      <trkpt lat="42.522918000" lon="-2.447005000">
        <ele>480.60</ele>
        <time>2017-02-18T06:49:23Z</time>
      </trkpt>
      <trkpt lat="42.522926000" lon="-2.447037000">
        <ele>480.80</ele>
        <time>2017-02-18T06:49:24Z</time>
      </trkpt>
      <trkpt lat="42.522933000" lon="-2.447077000">
        <ele>480.90</ele>
        <time>2017-02-18T06:49:25Z</time>
      </trkpt>
      <trkpt lat="42.522942000" lon="-2.447119000">
        <ele>481.00</ele>
        <time>2017-02-18T06:49:26Z</time>
      </trkpt>
      <trkpt lat="42.522952000" lon="-2.447158000">
        <ele>481.00</ele>
        <time>2017-02-18T06:49:27Z</time>
      </trkpt>
      <trkpt lat="42.522968000" lon="-2.447194000">
        <ele>481.10</ele>
        <time>2017-02-18T06:49:28Z</time>
      </trkpt>
      <trkpt lat="42.522984000" lon="-2.447231000">
        <ele>481.10</ele>
        <time>2017-02-18T06:49:29Z</time>
      </trkpt>
      <trkpt lat="42.522999000" lon="-2.447264000">
        <ele>481.10</ele>
        <time>2017-02-18T06:49:30Z</time>
      </trkpt>
      <trkpt lat="42.523015000" lon="-2.447296000">
        <ele>481.10</ele>
        <time>2017-02-18T06:49:31Z</time>
      </trkpt>
      <trkpt lat="42.523029000" lon="-2.447327000">
        <ele>481.10</ele>
        <time>2017-02-18T06:49:32Z</time>
      </trkpt>
      <trkpt lat="42.523043000" lon="-2.447358000">
        <ele>481.10</ele>
        <time>2017-02-18T06:49:33Z</time>
      </trkpt>
      <trkpt lat="42.523055000" lon="-2.447389000">
        <ele>481.10</ele>
        <time>2017-02-18T06:49:34Z</time>
      </trkpt>
      <trkpt lat="42.523070000" lon="-2.447422000">
        <ele>481.20</ele>
        <time>2017-02-18T06:49:35Z</time>
      </trkpt>
      <trkpt lat="42.523084000" lon="-2.447456000">
        <ele>481.30</ele>
        <time>2017-02-18T06:49:36Z</time>
      </trkpt>
      <trkpt lat="42.523095000" lon="-2.447488000">
        <ele>481.30</ele>
        <time>2017-02-18T06:49:37Z</time>
      </trkpt>
      <trkpt lat="42.523107000" lon="-2.447526000">
        <ele>481.40</ele>
        <time>2017-02-18T06:49:38Z</time>
      </trkpt>
      <trkpt lat="42.523125000" lon="-2.447559000">
        <ele>481.40</ele>
        <time>2017-02-18T06:49:39Z</time>
      </trkpt>
      <trkpt lat="42.523142000" lon="-2.447589000">
        <ele>481.50</ele>
        <time>2017-02-18T06:49:40Z</time>
      </trkpt>
      <trkpt lat="42.523172000" lon="-2.447660000">
        <ele>481.90</ele>
        <time>2017-02-18T06:49:42Z</time>
      </trkpt>
      <trkpt lat="42.523188000" lon="-2.447691000">
        <ele>481.80</ele>
        <time>2017-02-18T06:49:43Z</time>
      </trkpt>
      <trkpt lat="42.523200000" lon="-2.447724000">
        <ele>481.70</ele>
        <time>2017-02-18T06:49:44Z</time>
      </trkpt>
      <trkpt lat="42.523220000" lon="-2.447757000">
        <ele>481.90</ele>
        <time>2017-02-18T06:49:45Z</time>
      </trkpt>
      <trkpt lat="42.523235000" lon="-2.447788000">
        <ele>482.00</ele>
        <time>2017-02-18T06:49:46Z</time>
      </trkpt>
      <trkpt lat="42.523252000" lon="-2.447817000">
        <ele>482.10</ele>
        <time>2017-02-18T06:49:47Z</time>
      </trkpt>
      <trkpt lat="42.523265000" lon="-2.447850000">
        <ele>482.10</ele>
        <time>2017-02-18T06:49:48Z</time>
      </trkpt>
      <trkpt lat="42.523281000" lon="-2.447878000">
        <ele>482.20</ele>
        <time>2017-02-18T06:49:49Z</time>
      </trkpt>
      <trkpt lat="42.523295000" lon="-2.447903000">
        <ele>482.30</ele>
        <time>2017-02-18T06:49:50Z</time>
      </trkpt>
      <trkpt lat="42.523305000" lon="-2.447930000">
        <ele>482.30</ele>
        <time>2017-02-18T06:49:51Z</time>
      </trkpt>
      <trkpt lat="42.523318000" lon="-2.447953000">
        <ele>482.30</ele>
        <time>2017-02-18T06:49:52Z</time>
      </trkpt>
      <trkpt lat="42.523330000" lon="-2.447985000">
        <ele>482.30</ele>
        <time>2017-02-18T06:49:53Z</time>
      </trkpt>
      <trkpt lat="42.523345000" lon="-2.448017000">
        <ele>482.30</ele>
        <time>2017-02-18T06:49:54Z</time>
      </trkpt>
      <trkpt lat="42.523360000" lon="-2.448050000">
        <ele>482.30</ele>
        <time>2017-02-18T06:49:55Z</time>
      </trkpt>
      <trkpt lat="42.523376000" lon="-2.448084000">
        <ele>482.30</ele>
        <time>2017-02-18T06:49:56Z</time>
      </trkpt>
      <trkpt lat="42.523395000" lon="-2.448119000">
        <ele>482.30</ele>
        <time>2017-02-18T06:49:57Z</time>
      </trkpt>
      <trkpt lat="42.523413000" lon="-2.448160000">
        <ele>482.40</ele>
        <time>2017-02-18T06:49:58Z</time>
      </trkpt>
      <trkpt lat="42.523433000" lon="-2.448199000">
        <ele>482.50</ele>
        <time>2017-02-18T06:49:59Z</time>
      </trkpt>
      <trkpt lat="42.523453000" lon="-2.448238000">
        <ele>482.60</ele>
        <time>2017-02-18T06:50:00Z</time>
      </trkpt>
      <trkpt lat="42.523471000" lon="-2.448276000">
        <ele>482.70</ele>
        <time>2017-02-18T06:50:01Z</time>
      </trkpt>
      <trkpt lat="42.523489000" lon="-2.448316000">
        <ele>482.90</ele>
        <time>2017-02-18T06:50:02Z</time>
      </trkpt>
      <trkpt lat="42.523507000" lon="-2.448356000">
        <ele>483.10</ele>
        <time>2017-02-18T06:50:03Z</time>
      </trkpt>
      <trkpt lat="42.523526000" lon="-2.448393000">
        <ele>483.30</ele>
        <time>2017-02-18T06:50:04Z</time>
      </trkpt>
      <trkpt lat="42.523546000" lon="-2.448431000">
        <ele>483.40</ele>
        <time>2017-02-18T06:50:05Z</time>
      </trkpt>
      <trkpt lat="42.523566000" lon="-2.448468000">
        <ele>483.50</ele>
        <time>2017-02-18T06:50:06Z</time>
      </trkpt>
      <trkpt lat="42.523583000" lon="-2.448506000">
        <ele>483.60</ele>
        <time>2017-02-18T06:50:07Z</time>
      </trkpt>
      <trkpt lat="42.523600000" lon="-2.448545000">
        <ele>483.60</ele>
        <time>2017-02-18T06:50:08Z</time>
      </trkpt>
      <trkpt lat="42.523617000" lon="-2.448587000">
        <ele>483.60</ele>
        <time>2017-02-18T06:50:09Z</time>
      </trkpt>
      <trkpt lat="42.523638000" lon="-2.448624000">
        <ele>483.50</ele>
        <time>2017-02-18T06:50:10Z</time>
      </trkpt>
      <trkpt lat="42.523656000" lon="-2.448659000">
        <ele>483.50</ele>
        <time>2017-02-18T06:50:11Z</time>
      </trkpt>
      <trkpt lat="42.523674000" lon="-2.448699000">
        <ele>483.50</ele>
        <time>2017-02-18T06:50:12Z</time>
      </trkpt>
      <trkpt lat="42.523692000" lon="-2.448738000">
        <ele>483.50</ele>
        <time>2017-02-18T06:50:13Z</time>
      </trkpt>
      <trkpt lat="42.523710000" lon="-2.448778000">
        <ele>483.70</ele>
        <time>2017-02-18T06:50:14Z</time>
      </trkpt>
      <trkpt lat="42.523729000" lon="-2.448817000">
        <ele>483.80</ele>
        <time>2017-02-18T06:50:15Z</time>
      </trkpt>
      <trkpt lat="42.523751000" lon="-2.448855000">
        <ele>484.00</ele>
        <time>2017-02-18T06:50:16Z</time>
      </trkpt>
      <trkpt lat="42.523770000" lon="-2.448895000">
        <ele>484.10</ele>
        <time>2017-02-18T06:50:17Z</time>
      </trkpt>
      <trkpt lat="42.523790000" lon="-2.448937000">
        <ele>484.20</ele>
        <time>2017-02-18T06:50:18Z</time>
      </trkpt>
      <trkpt lat="42.523809000" lon="-2.448978000">
        <ele>484.40</ele>
        <time>2017-02-18T06:50:19Z</time>
      </trkpt>
      <trkpt lat="42.523828000" lon="-2.449019000">
        <ele>484.50</ele>
        <time>2017-02-18T06:50:20Z</time>
      </trkpt>
      <trkpt lat="42.523847000" lon="-2.449058000">
        <ele>484.50</ele>
        <time>2017-02-18T06:50:21Z</time>
      </trkpt>
      <trkpt lat="42.523866000" lon="-2.449101000">
        <ele>484.60</ele>
        <time>2017-02-18T06:50:22Z</time>
      </trkpt>
      <trkpt lat="42.523886000" lon="-2.449144000">
        <ele>484.70</ele>
        <time>2017-02-18T06:50:23Z</time>
      </trkpt>
      <trkpt lat="42.523907000" lon="-2.449189000">
        <ele>484.70</ele>
        <time>2017-02-18T06:50:24Z</time>
      </trkpt>
      <trkpt lat="42.523929000" lon="-2.449230000">
        <ele>484.70</ele>
        <time>2017-02-18T06:50:25Z</time>
      </trkpt>
      <trkpt lat="42.523950000" lon="-2.449271000">
        <ele>484.70</ele>
        <time>2017-02-18T06:50:26Z</time>
      </trkpt>
      <trkpt lat="42.523968000" lon="-2.449315000">
        <ele>484.70</ele>
        <time>2017-02-18T06:50:27Z</time>
      </trkpt>
      <trkpt lat="42.523986000" lon="-2.449358000">
        <ele>484.70</ele>
        <time>2017-02-18T06:50:28Z</time>
      </trkpt>
      <trkpt lat="42.524005000" lon="-2.449397000">
        <ele>484.70</ele>
        <time>2017-02-18T06:50:29Z</time>
      </trkpt>
      <trkpt lat="42.524024000" lon="-2.449437000">
        <ele>484.70</ele>
        <time>2017-02-18T06:50:30Z</time>
      </trkpt>
      <trkpt lat="42.524041000" lon="-2.449479000">
        <ele>484.70</ele>
        <time>2017-02-18T06:50:31Z</time>
      </trkpt>
      <trkpt lat="42.524061000" lon="-2.449520000">
        <ele>484.90</ele>
        <time>2017-02-18T06:50:32Z</time>
      </trkpt>
      <trkpt lat="42.524080000" lon="-2.449558000">
        <ele>484.90</ele>
        <time>2017-02-18T06:50:33Z</time>
      </trkpt>
      <trkpt lat="42.524099000" lon="-2.449596000">
        <ele>485.00</ele>
        <time>2017-02-18T06:50:34Z</time>
      </trkpt>
      <trkpt lat="42.524117000" lon="-2.449636000">
        <ele>485.10</ele>
        <time>2017-02-18T06:50:35Z</time>
      </trkpt>
      <trkpt lat="42.524137000" lon="-2.449675000">
        <ele>485.10</ele>
        <time>2017-02-18T06:50:36Z</time>
      </trkpt>
      <trkpt lat="42.524152000" lon="-2.449716000">
        <ele>485.10</ele>
        <time>2017-02-18T06:50:37Z</time>
      </trkpt>
      <trkpt lat="42.524170000" lon="-2.449756000">
        <ele>485.20</ele>
        <time>2017-02-18T06:50:38Z</time>
      </trkpt>
      <trkpt lat="42.524188000" lon="-2.449792000">
        <ele>485.20</ele>
        <time>2017-02-18T06:50:39Z</time>
      </trkpt>
      <trkpt lat="42.524207000" lon="-2.449827000">
        <ele>485.20</ele>
        <time>2017-02-18T06:50:40Z</time>
      </trkpt>
      <trkpt lat="42.524223000" lon="-2.449864000">
        <ele>485.30</ele>
        <time>2017-02-18T06:50:41Z</time>
      </trkpt>
      <trkpt lat="42.524262000" lon="-2.449935000">
        <ele>485.50</ele>
        <time>2017-02-18T06:50:43Z</time>
      </trkpt>
      <trkpt lat="42.524276000" lon="-2.449974000">
        <ele>485.60</ele>
        <time>2017-02-18T06:50:44Z</time>
      </trkpt>
      <trkpt lat="42.524293000" lon="-2.450010000">
        <ele>485.70</ele>
        <time>2017-02-18T06:50:45Z</time>
      </trkpt>
      <trkpt lat="42.524310000" lon="-2.450046000">
        <ele>485.80</ele>
        <time>2017-02-18T06:50:46Z</time>
      </trkpt>
      <trkpt lat="42.524325000" lon="-2.450084000">
        <ele>485.90</ele>
        <time>2017-02-18T06:50:47Z</time>
      </trkpt>
      <trkpt lat="42.524342000" lon="-2.450119000">
        <ele>486.00</ele>
        <time>2017-02-18T06:50:48Z</time>
      </trkpt>
      <trkpt lat="42.524360000" lon="-2.450155000">
        <ele>486.00</ele>
        <time>2017-02-18T06:50:49Z</time>
      </trkpt>
      <trkpt lat="42.524376000" lon="-2.450195000">
        <ele>486.10</ele>
        <time>2017-02-18T06:50:50Z</time>
      </trkpt>
      <trkpt lat="42.524393000" lon="-2.450232000">
        <ele>486.10</ele>
        <time>2017-02-18T06:50:51Z</time>
      </trkpt>
      <trkpt lat="42.524410000" lon="-2.450270000">
        <ele>486.20</ele>
        <time>2017-02-18T06:50:52Z</time>
      </trkpt>
      <trkpt lat="42.524426000" lon="-2.450307000">
        <ele>486.20</ele>
        <time>2017-02-18T06:50:53Z</time>
      </trkpt>
      <trkpt lat="42.524445000" lon="-2.450346000">
        <ele>486.20</ele>
        <time>2017-02-18T06:50:54Z</time>
      </trkpt>
      <trkpt lat="42.524463000" lon="-2.450381000">
        <ele>486.30</ele>
        <time>2017-02-18T06:50:55Z</time>
      </trkpt>
      <trkpt lat="42.524482000" lon="-2.450418000">
        <ele>486.40</ele>
        <time>2017-02-18T06:50:56Z</time>
      </trkpt>
      <trkpt lat="42.524499000" lon="-2.450455000">
        <ele>486.40</ele>
        <time>2017-02-18T06:50:57Z</time>
      </trkpt>
      <trkpt lat="42.524516000" lon="-2.450494000">
        <ele>486.50</ele>
        <time>2017-02-18T06:50:58Z</time>
      </trkpt>
      <trkpt lat="42.524533000" lon="-2.450530000">
        <ele>486.50</ele>
        <time>2017-02-18T06:50:59Z</time>
      </trkpt>
      <trkpt lat="42.524551000" lon="-2.450562000">
        <ele>486.80</ele>
        <time>2017-02-18T06:51:00Z</time>
      </trkpt>
      <trkpt lat="42.524571000" lon="-2.450596000">
        <ele>487.00</ele>
        <time>2017-02-18T06:51:01Z</time>
      </trkpt>
      <trkpt lat="42.524588000" lon="-2.450632000">
        <ele>487.10</ele>
        <time>2017-02-18T06:51:02Z</time>
      </trkpt>
      <trkpt lat="42.524604000" lon="-2.450667000">
        <ele>487.20</ele>
        <time>2017-02-18T06:51:03Z</time>
      </trkpt>
      <trkpt lat="42.524620000" lon="-2.450704000">
        <ele>487.30</ele>
        <time>2017-02-18T06:51:04Z</time>
      </trkpt>
      <trkpt lat="42.524637000" lon="-2.450742000">
        <ele>487.30</ele>
        <time>2017-02-18T06:51:05Z</time>
      </trkpt>
      <trkpt lat="42.524654000" lon="-2.450775000">
        <ele>487.30</ele>
        <time>2017-02-18T06:51:06Z</time>
      </trkpt>
      <trkpt lat="42.524670000" lon="-2.450808000">
        <ele>487.30</ele>
        <time>2017-02-18T06:51:07Z</time>
      </trkpt>
      <trkpt lat="42.524686000" lon="-2.450843000">
        <ele>487.40</ele>
        <time>2017-02-18T06:51:08Z</time>
      </trkpt>
      <trkpt lat="42.524701000" lon="-2.450878000">
        <ele>487.50</ele>
        <time>2017-02-18T06:51:09Z</time>
      </trkpt>
      <trkpt lat="42.524716000" lon="-2.450912000">
        <ele>487.60</ele>
        <time>2017-02-18T06:51:10Z</time>
      </trkpt>
      <trkpt lat="42.524735000" lon="-2.450946000">
        <ele>487.70</ele>
        <time>2017-02-18T06:51:11Z</time>
      </trkpt>
      <trkpt lat="42.524750000" lon="-2.450979000">
        <ele>487.80</ele>
        <time>2017-02-18T06:51:12Z</time>
      </trkpt>
      <trkpt lat="42.524762000" lon="-2.451012000">
        <ele>487.80</ele>
        <time>2017-02-18T06:51:13Z</time>
      </trkpt>
      <trkpt lat="42.524777000" lon="-2.451042000">
        <ele>488.10</ele>
        <time>2017-02-18T06:51:14Z</time>
      </trkpt>
      <trkpt lat="42.524790000" lon="-2.451074000">
        <ele>488.30</ele>
        <time>2017-02-18T06:51:15Z</time>
      </trkpt>
      <trkpt lat="42.524808000" lon="-2.451104000">
        <ele>488.60</ele>
        <time>2017-02-18T06:51:16Z</time>
      </trkpt>
      <trkpt lat="42.524825000" lon="-2.451133000">
        <ele>488.80</ele>
        <time>2017-02-18T06:51:17Z</time>
      </trkpt>
      <trkpt lat="42.524840000" lon="-2.451166000">
        <ele>488.90</ele>
        <time>2017-02-18T06:51:18Z</time>
      </trkpt>
      <trkpt lat="42.524856000" lon="-2.451199000">
        <ele>488.90</ele>
        <time>2017-02-18T06:51:19Z</time>
      </trkpt>
      <trkpt lat="42.524871000" lon="-2.451231000">
        <ele>488.90</ele>
        <time>2017-02-18T06:51:20Z</time>
      </trkpt>
      <trkpt lat="42.524887000" lon="-2.451263000">
        <ele>489.00</ele>
        <time>2017-02-18T06:51:21Z</time>
      </trkpt>
      <trkpt lat="42.524903000" lon="-2.451295000">
        <ele>489.00</ele>
        <time>2017-02-18T06:51:22Z</time>
      </trkpt>
      <trkpt lat="42.524922000" lon="-2.451324000">
        <ele>489.00</ele>
        <time>2017-02-18T06:51:23Z</time>
      </trkpt>
      <trkpt lat="42.524937000" lon="-2.451358000">
        <ele>489.20</ele>
        <time>2017-02-18T06:51:24Z</time>
      </trkpt>
      <trkpt lat="42.524952000" lon="-2.451394000">
        <ele>489.40</ele>
        <time>2017-02-18T06:51:25Z</time>
      </trkpt>
      <trkpt lat="42.524965000" lon="-2.451430000">
        <ele>489.50</ele>
        <time>2017-02-18T06:51:26Z</time>
      </trkpt>
      <trkpt lat="42.524980000" lon="-2.451460000">
        <ele>489.60</ele>
        <time>2017-02-18T06:51:27Z</time>
      </trkpt>
      <trkpt lat="42.524994000" lon="-2.451494000">
        <ele>489.60</ele>
        <time>2017-02-18T06:51:28Z</time>
      </trkpt>
      <trkpt lat="42.525008000" lon="-2.451524000">
        <ele>489.70</ele>
        <time>2017-02-18T06:51:29Z</time>
      </trkpt>
      <trkpt lat="42.525019000" lon="-2.451555000">
        <ele>489.80</ele>
        <time>2017-02-18T06:51:30Z</time>
      </trkpt>
      <trkpt lat="42.525033000" lon="-2.451586000">
        <ele>489.80</ele>
        <time>2017-02-18T06:51:31Z</time>
      </trkpt>
      <trkpt lat="42.525051000" lon="-2.451618000">
        <ele>489.90</ele>
        <time>2017-02-18T06:51:32Z</time>
      </trkpt>
      <trkpt lat="42.525064000" lon="-2.451651000">
        <ele>489.90</ele>
        <time>2017-02-18T06:51:33Z</time>
      </trkpt>
      <trkpt lat="42.525079000" lon="-2.451680000">
        <ele>490.00</ele>
        <time>2017-02-18T06:51:34Z</time>
      </trkpt>
      <trkpt lat="42.525093000" lon="-2.451711000">
        <ele>490.10</ele>
        <time>2017-02-18T06:51:35Z</time>
      </trkpt>
      <trkpt lat="42.525109000" lon="-2.451745000">
        <ele>490.30</ele>
        <time>2017-02-18T06:51:36Z</time>
      </trkpt>
      <trkpt lat="42.525124000" lon="-2.451777000">
        <ele>490.50</ele>
        <time>2017-02-18T06:51:37Z</time>
      </trkpt>
      <trkpt lat="42.525137000" lon="-2.451808000">
        <ele>490.60</ele>
        <time>2017-02-18T06:51:38Z</time>
      </trkpt>
      <trkpt lat="42.525153000" lon="-2.451839000">
        <ele>490.70</ele>
        <time>2017-02-18T06:51:39Z</time>
      </trkpt>
      <trkpt lat="42.525170000" lon="-2.451872000">
        <ele>490.80</ele>
        <time>2017-02-18T06:51:40Z</time>
      </trkpt>
      <trkpt lat="42.525191000" lon="-2.451899000">
        <ele>490.90</ele>
        <time>2017-02-18T06:51:41Z</time>
      </trkpt>
      <trkpt lat="42.525206000" lon="-2.451932000">
        <ele>491.00</ele>
        <time>2017-02-18T06:51:42Z</time>
      </trkpt>
      <trkpt lat="42.525241000" lon="-2.451996000">
        <ele>491.10</ele>
        <time>2017-02-18T06:51:44Z</time>
      </trkpt>
      <trkpt lat="42.525256000" lon="-2.452033000">
        <ele>491.10</ele>
        <time>2017-02-18T06:51:45Z</time>
      </trkpt>
      <trkpt lat="42.525275000" lon="-2.452067000">
        <ele>491.20</ele>
        <time>2017-02-18T06:51:46Z</time>
      </trkpt>
      <trkpt lat="42.525293000" lon="-2.452102000">
        <ele>491.20</ele>
        <time>2017-02-18T06:51:47Z</time>
      </trkpt>
      <trkpt lat="42.525307000" lon="-2.452141000">
        <ele>491.30</ele>
        <time>2017-02-18T06:51:48Z</time>
      </trkpt>
      <trkpt lat="42.525320000" lon="-2.452174000">
        <ele>491.30</ele>
        <time>2017-02-18T06:51:49Z</time>
      </trkpt>
      <trkpt lat="42.525335000" lon="-2.452208000">
        <ele>491.30</ele>
        <time>2017-02-18T06:51:50Z</time>
      </trkpt>
      <trkpt lat="42.525351000" lon="-2.452242000">
        <ele>491.40</ele>
        <time>2017-02-18T06:51:51Z</time>
      </trkpt>
      <trkpt lat="42.525368000" lon="-2.452276000">
        <ele>491.50</ele>
        <time>2017-02-18T06:51:52Z</time>
      </trkpt>
      <trkpt lat="42.525384000" lon="-2.452310000">
        <ele>491.50</ele>
        <time>2017-02-18T06:51:53Z</time>
      </trkpt>
      <trkpt lat="42.525402000" lon="-2.452343000">
        <ele>491.60</ele>
        <time>2017-02-18T06:51:54Z</time>
      </trkpt>
      <trkpt lat="42.525417000" lon="-2.452375000">
        <ele>491.60</ele>
        <time>2017-02-18T06:51:55Z</time>
      </trkpt>
      <trkpt lat="42.525432000" lon="-2.452405000">
        <ele>491.60</ele>
        <time>2017-02-18T06:51:56Z</time>
      </trkpt>
      <trkpt lat="42.525448000" lon="-2.452435000">
        <ele>491.70</ele>
        <time>2017-02-18T06:51:57Z</time>
      </trkpt>
      <trkpt lat="42.525461000" lon="-2.452466000">
        <ele>491.90</ele>
        <time>2017-02-18T06:51:58Z</time>
      </trkpt>
      <trkpt lat="42.525474000" lon="-2.452502000">
        <ele>492.00</ele>
        <time>2017-02-18T06:51:59Z</time>
      </trkpt>
      <trkpt lat="42.525492000" lon="-2.452534000">
        <ele>492.30</ele>
        <time>2017-02-18T06:52:00Z</time>
      </trkpt>
      <trkpt lat="42.525509000" lon="-2.452565000">
        <ele>492.40</ele>
        <time>2017-02-18T06:52:01Z</time>
      </trkpt>
      <trkpt lat="42.525525000" lon="-2.452594000">
        <ele>492.60</ele>
        <time>2017-02-18T06:52:02Z</time>
      </trkpt>
      <trkpt lat="42.525538000" lon="-2.452628000">
        <ele>492.80</ele>
        <time>2017-02-18T06:52:03Z</time>
      </trkpt>
      <trkpt lat="42.525553000" lon="-2.452663000">
        <ele>493.00</ele>
        <time>2017-02-18T06:52:04Z</time>
      </trkpt>
      <trkpt lat="42.525569000" lon="-2.452698000">
        <ele>493.20</ele>
        <time>2017-02-18T06:52:05Z</time>
      </trkpt>
      <trkpt lat="42.525586000" lon="-2.452730000">
        <ele>493.30</ele>
        <time>2017-02-18T06:52:06Z</time>
      </trkpt>
      <trkpt lat="42.525603000" lon="-2.452762000">
        <ele>493.40</ele>
        <time>2017-02-18T06:52:07Z</time>
      </trkpt>
      <trkpt lat="42.525618000" lon="-2.452794000">
        <ele>493.50</ele>
        <time>2017-02-18T06:52:08Z</time>
      </trkpt>
      <trkpt lat="42.525633000" lon="-2.452826000">
        <ele>493.60</ele>
        <time>2017-02-18T06:52:09Z</time>
      </trkpt>
      <trkpt lat="42.525648000" lon="-2.452858000">
        <ele>493.70</ele>
        <time>2017-02-18T06:52:10Z</time>
      </trkpt>
      <trkpt lat="42.525664000" lon="-2.452892000">
        <ele>493.70</ele>
        <time>2017-02-18T06:52:11Z</time>
      </trkpt>
      <trkpt lat="42.525683000" lon="-2.452922000">
        <ele>493.70</ele>
        <time>2017-02-18T06:52:12Z</time>
      </trkpt>
      <trkpt lat="42.525701000" lon="-2.452953000">
        <ele>493.70</ele>
        <time>2017-02-18T06:52:13Z</time>
      </trkpt>
      <trkpt lat="42.525723000" lon="-2.452978000">
        <ele>493.70</ele>
        <time>2017-02-18T06:52:14Z</time>
      </trkpt>
      <trkpt lat="42.525740000" lon="-2.453007000">
        <ele>493.70</ele>
        <time>2017-02-18T06:52:15Z</time>
      </trkpt>
      <trkpt lat="42.525758000" lon="-2.453036000">
        <ele>493.70</ele>
        <time>2017-02-18T06:52:16Z</time>
      </trkpt>
      <trkpt lat="42.525777000" lon="-2.453068000">
        <ele>493.70</ele>
        <time>2017-02-18T06:52:17Z</time>
      </trkpt>
      <trkpt lat="42.525796000" lon="-2.453099000">
        <ele>493.70</ele>
        <time>2017-02-18T06:52:18Z</time>
      </trkpt>
      <trkpt lat="42.525817000" lon="-2.453127000">
        <ele>493.70</ele>
        <time>2017-02-18T06:52:19Z</time>
      </trkpt>
      <trkpt lat="42.525835000" lon="-2.453158000">
        <ele>493.80</ele>
        <time>2017-02-18T06:52:20Z</time>
      </trkpt>
      <trkpt lat="42.525854000" lon="-2.453187000">
        <ele>493.90</ele>
        <time>2017-02-18T06:52:21Z</time>
      </trkpt>
      <trkpt lat="42.525872000" lon="-2.453213000">
        <ele>494.30</ele>
        <time>2017-02-18T06:52:22Z</time>
      </trkpt>
      <trkpt lat="42.525892000" lon="-2.453240000">
        <ele>494.60</ele>
        <time>2017-02-18T06:52:23Z</time>
      </trkpt>
      <trkpt lat="42.525912000" lon="-2.453269000">
        <ele>494.80</ele>
        <time>2017-02-18T06:52:24Z</time>
      </trkpt>
      <trkpt lat="42.525933000" lon="-2.453297000">
        <ele>494.90</ele>
        <time>2017-02-18T06:52:25Z</time>
      </trkpt>
      <trkpt lat="42.525952000" lon="-2.453325000">
        <ele>495.10</ele>
        <time>2017-02-18T06:52:26Z</time>
      </trkpt>
      <trkpt lat="42.525969000" lon="-2.453354000">
        <ele>495.10</ele>
        <time>2017-02-18T06:52:27Z</time>
      </trkpt>
      <trkpt lat="42.525989000" lon="-2.453381000">
        <ele>495.20</ele>
        <time>2017-02-18T06:52:28Z</time>
      </trkpt>
      <trkpt lat="42.526007000" lon="-2.453411000">
        <ele>495.20</ele>
        <time>2017-02-18T06:52:29Z</time>
      </trkpt>
      <trkpt lat="42.526025000" lon="-2.453439000">
        <ele>495.30</ele>
        <time>2017-02-18T06:52:30Z</time>
      </trkpt>
      <trkpt lat="42.526046000" lon="-2.453466000">
        <ele>495.40</ele>
        <time>2017-02-18T06:52:31Z</time>
      </trkpt>
      <trkpt lat="42.526067000" lon="-2.453492000">
        <ele>495.30</ele>
        <time>2017-02-18T06:52:32Z</time>
      </trkpt>
      <trkpt lat="42.526085000" lon="-2.453522000">
        <ele>495.30</ele>
        <time>2017-02-18T06:52:33Z</time>
      </trkpt>
      <trkpt lat="42.526102000" lon="-2.453552000">
        <ele>495.40</ele>
        <time>2017-02-18T06:52:34Z</time>
      </trkpt>
      <trkpt lat="42.526120000" lon="-2.453583000">
        <ele>495.50</ele>
        <time>2017-02-18T06:52:35Z</time>
      </trkpt>
      <trkpt lat="42.526140000" lon="-2.453611000">
        <ele>495.60</ele>
        <time>2017-02-18T06:52:36Z</time>
      </trkpt>
      <trkpt lat="42.526157000" lon="-2.453641000">
        <ele>495.60</ele>
        <time>2017-02-18T06:52:37Z</time>
      </trkpt>
      <trkpt lat="42.526178000" lon="-2.453667000">
        <ele>495.70</ele>
        <time>2017-02-18T06:52:38Z</time>
      </trkpt>
      <trkpt lat="42.526195000" lon="-2.453694000">
        <ele>495.70</ele>
        <time>2017-02-18T06:52:39Z</time>
      </trkpt>
      <trkpt lat="42.526214000" lon="-2.453723000">
        <ele>495.80</ele>
        <time>2017-02-18T06:52:40Z</time>
      </trkpt>
      <trkpt lat="42.526232000" lon="-2.453753000">
        <ele>495.90</ele>
        <time>2017-02-18T06:52:41Z</time>
      </trkpt>
      <trkpt lat="42.526251000" lon="-2.453782000">
        <ele>496.00</ele>
        <time>2017-02-18T06:52:42Z</time>
      </trkpt>
      <trkpt lat="42.526269000" lon="-2.453811000">
        <ele>496.00</ele>
        <time>2017-02-18T06:52:43Z</time>
      </trkpt>
      <trkpt lat="42.526307000" lon="-2.453862000">
        <ele>496.30</ele>
        <time>2017-02-18T06:52:45Z</time>
      </trkpt>
      <trkpt lat="42.526326000" lon="-2.453889000">
        <ele>496.40</ele>
        <time>2017-02-18T06:52:46Z</time>
      </trkpt>
      <trkpt lat="42.526345000" lon="-2.453914000">
        <ele>496.40</ele>
        <time>2017-02-18T06:52:47Z</time>
      </trkpt>
      <trkpt lat="42.526361000" lon="-2.453944000">
        <ele>496.50</ele>
        <time>2017-02-18T06:52:48Z</time>
      </trkpt>
      <trkpt lat="42.526382000" lon="-2.453970000">
        <ele>496.50</ele>
        <time>2017-02-18T06:52:49Z</time>
      </trkpt>
      <trkpt lat="42.526401000" lon="-2.453997000">
        <ele>496.60</ele>
        <time>2017-02-18T06:52:50Z</time>
      </trkpt>
      <trkpt lat="42.526422000" lon="-2.454021000">
        <ele>496.70</ele>
        <time>2017-02-18T06:52:51Z</time>
      </trkpt>
      <trkpt lat="42.526441000" lon="-2.454047000">
        <ele>496.80</ele>
        <time>2017-02-18T06:52:52Z</time>
      </trkpt>
      <trkpt lat="42.526459000" lon="-2.454072000">
        <ele>497.00</ele>
        <time>2017-02-18T06:52:53Z</time>
      </trkpt>
      <trkpt lat="42.526476000" lon="-2.454091000">
        <ele>497.10</ele>
        <time>2017-02-18T06:52:54Z</time>
      </trkpt>
      <trkpt lat="42.526493000" lon="-2.454115000">
        <ele>497.20</ele>
        <time>2017-02-18T06:52:55Z</time>
      </trkpt>
      <trkpt lat="42.526510000" lon="-2.454138000">
        <ele>497.30</ele>
        <time>2017-02-18T06:52:56Z</time>
      </trkpt>
      <trkpt lat="42.526527000" lon="-2.454164000">
        <ele>497.40</ele>
        <time>2017-02-18T06:52:57Z</time>
      </trkpt>
      <trkpt lat="42.526545000" lon="-2.454189000">
        <ele>497.50</ele>
        <time>2017-02-18T06:52:58Z</time>
      </trkpt>
      <trkpt lat="42.526563000" lon="-2.454213000">
        <ele>497.60</ele>
        <time>2017-02-18T06:52:59Z</time>
      </trkpt>
      <trkpt lat="42.526578000" lon="-2.454241000">
        <ele>497.70</ele>
        <time>2017-02-18T06:53:00Z</time>
      </trkpt>
      <trkpt lat="42.526595000" lon="-2.454270000">
        <ele>497.80</ele>
        <time>2017-02-18T06:53:01Z</time>
      </trkpt>
      <trkpt lat="42.526610000" lon="-2.454297000">
        <ele>497.90</ele>
        <time>2017-02-18T06:53:02Z</time>
      </trkpt>
      <trkpt lat="42.526627000" lon="-2.454328000">
        <ele>498.10</ele>
        <time>2017-02-18T06:53:03Z</time>
      </trkpt>
      <trkpt lat="42.526646000" lon="-2.454353000">
        <ele>498.20</ele>
        <time>2017-02-18T06:53:04Z</time>
      </trkpt>
      <trkpt lat="42.526663000" lon="-2.454384000">
        <ele>498.40</ele>
        <time>2017-02-18T06:53:05Z</time>
      </trkpt>
      <trkpt lat="42.526681000" lon="-2.454410000">
        <ele>498.60</ele>
        <time>2017-02-18T06:53:06Z</time>
      </trkpt>
      <trkpt lat="42.526695000" lon="-2.454439000">
        <ele>498.70</ele>
        <time>2017-02-18T06:53:07Z</time>
      </trkpt>
      <trkpt lat="42.526714000" lon="-2.454465000">
        <ele>498.90</ele>
        <time>2017-02-18T06:53:08Z</time>
      </trkpt>
      <trkpt lat="42.526735000" lon="-2.454493000">
        <ele>499.00</ele>
        <time>2017-02-18T06:53:09Z</time>
      </trkpt>
      <trkpt lat="42.526756000" lon="-2.454518000">
        <ele>499.10</ele>
        <time>2017-02-18T06:53:10Z</time>
      </trkpt>
      <trkpt lat="42.526776000" lon="-2.454544000">
        <ele>499.20</ele>
        <time>2017-02-18T06:53:11Z</time>
      </trkpt>
      <trkpt lat="42.526796000" lon="-2.454566000">
        <ele>499.30</ele>
        <time>2017-02-18T06:53:12Z</time>
      </trkpt>
      <trkpt lat="42.526813000" lon="-2.454590000">
        <ele>499.30</ele>
        <time>2017-02-18T06:53:13Z</time>
      </trkpt>
      <trkpt lat="42.526828000" lon="-2.454617000">
        <ele>499.40</ele>
        <time>2017-02-18T06:53:14Z</time>
      </trkpt>
      <trkpt lat="42.526846000" lon="-2.454645000">
        <ele>499.40</ele>
        <time>2017-02-18T06:53:15Z</time>
      </trkpt>
      <trkpt lat="42.526865000" lon="-2.454670000">
        <ele>499.50</ele>
        <time>2017-02-18T06:53:16Z</time>
      </trkpt>
      <trkpt lat="42.526882000" lon="-2.454696000">
        <ele>499.70</ele>
        <time>2017-02-18T06:53:17Z</time>
      </trkpt>
      <trkpt lat="42.526898000" lon="-2.454723000">
        <ele>499.90</ele>
        <time>2017-02-18T06:53:18Z</time>
      </trkpt>
      <trkpt lat="42.526914000" lon="-2.454751000">
        <ele>500.10</ele>
        <time>2017-02-18T06:53:19Z</time>
      </trkpt>
      <trkpt lat="42.526931000" lon="-2.454779000">
        <ele>500.30</ele>
        <time>2017-02-18T06:53:20Z</time>
      </trkpt>
      <trkpt lat="42.526946000" lon="-2.454807000">
        <ele>500.40</ele>
        <time>2017-02-18T06:53:21Z</time>
      </trkpt>
      <trkpt lat="42.526964000" lon="-2.454833000">
        <ele>500.60</ele>
        <time>2017-02-18T06:53:22Z</time>
      </trkpt>
      <trkpt lat="42.526982000" lon="-2.454864000">
        <ele>500.70</ele>
        <time>2017-02-18T06:53:23Z</time>
      </trkpt>
      <trkpt lat="42.527000000" lon="-2.454890000">
        <ele>500.90</ele>
        <time>2017-02-18T06:53:24Z</time>
      </trkpt>
      <trkpt lat="42.527016000" lon="-2.454919000">
        <ele>501.00</ele>
        <time>2017-02-18T06:53:25Z</time>
      </trkpt>
      <trkpt lat="42.527037000" lon="-2.454948000">
        <ele>501.10</ele>
        <time>2017-02-18T06:53:26Z</time>
      </trkpt>
      <trkpt lat="42.527055000" lon="-2.454975000">
        <ele>501.20</ele>
        <time>2017-02-18T06:53:27Z</time>
      </trkpt>
      <trkpt lat="42.527075000" lon="-2.455001000">
        <ele>501.30</ele>
        <time>2017-02-18T06:53:28Z</time>
      </trkpt>
      <trkpt lat="42.527095000" lon="-2.455028000">
        <ele>501.30</ele>
        <time>2017-02-18T06:53:29Z</time>
      </trkpt>
      <trkpt lat="42.527115000" lon="-2.455054000">
        <ele>501.50</ele>
        <time>2017-02-18T06:53:30Z</time>
      </trkpt>
      <trkpt lat="42.527130000" lon="-2.455086000">
        <ele>501.60</ele>
        <time>2017-02-18T06:53:31Z</time>
      </trkpt>
      <trkpt lat="42.527151000" lon="-2.455116000">
        <ele>501.70</ele>
        <time>2017-02-18T06:53:32Z</time>
      </trkpt>
      <trkpt lat="42.527172000" lon="-2.455147000">
        <ele>501.80</ele>
        <time>2017-02-18T06:53:33Z</time>
      </trkpt>
      <trkpt lat="42.527189000" lon="-2.455175000">
        <ele>501.80</ele>
        <time>2017-02-18T06:53:34Z</time>
      </trkpt>
      <trkpt lat="42.527209000" lon="-2.455201000">
        <ele>501.90</ele>
        <time>2017-02-18T06:53:35Z</time>
      </trkpt>
      <trkpt lat="42.527226000" lon="-2.455233000">
        <ele>502.20</ele>
        <time>2017-02-18T06:53:36Z</time>
      </trkpt>
      <trkpt lat="42.527244000" lon="-2.455263000">
        <ele>502.40</ele>
        <time>2017-02-18T06:53:37Z</time>
      </trkpt>
      <trkpt lat="42.527262000" lon="-2.455295000">
        <ele>502.50</ele>
        <time>2017-02-18T06:53:38Z</time>
      </trkpt>
      <trkpt lat="42.527279000" lon="-2.455329000">
        <ele>502.70</ele>
        <time>2017-02-18T06:53:39Z</time>
      </trkpt>
      <trkpt lat="42.527296000" lon="-2.455361000">
        <ele>502.80</ele>
        <time>2017-02-18T06:53:40Z</time>
      </trkpt>
      <trkpt lat="42.527314000" lon="-2.455390000">
        <ele>502.80</ele>
        <time>2017-02-18T06:53:41Z</time>
      </trkpt>
      <trkpt lat="42.527326000" lon="-2.455421000">
        <ele>503.00</ele>
        <time>2017-02-18T06:53:42Z</time>
      </trkpt>
      <trkpt lat="42.527337000" lon="-2.455451000">
        <ele>503.20</ele>
        <time>2017-02-18T06:53:43Z</time>
      </trkpt>
      <trkpt lat="42.527350000" lon="-2.455477000">
        <ele>503.30</ele>
        <time>2017-02-18T06:53:44Z</time>
      </trkpt>
      <trkpt lat="42.527369000" lon="-2.455537000">
        <ele>503.60</ele>
        <time>2017-02-18T06:53:46Z</time>
      </trkpt>
      <trkpt lat="42.527376000" lon="-2.455568000">
        <ele>503.70</ele>
        <time>2017-02-18T06:53:47Z</time>
      </trkpt>
      <trkpt lat="42.527384000" lon="-2.455597000">
        <ele>503.70</ele>
        <time>2017-02-18T06:53:48Z</time>
      </trkpt>
      <trkpt lat="42.527395000" lon="-2.455627000">
        <ele>503.80</ele>
        <time>2017-02-18T06:53:49Z</time>
      </trkpt>
      <trkpt lat="42.527402000" lon="-2.455660000">
        <ele>503.80</ele>
        <time>2017-02-18T06:53:50Z</time>
      </trkpt>
      <trkpt lat="42.527407000" lon="-2.455693000">
        <ele>503.90</ele>
        <time>2017-02-18T06:53:51Z</time>
      </trkpt>
      <trkpt lat="42.527414000" lon="-2.455731000">
        <ele>504.20</ele>
        <time>2017-02-18T06:53:52Z</time>
      </trkpt>
      <trkpt lat="42.527416000" lon="-2.455767000">
        <ele>504.40</ele>
        <time>2017-02-18T06:53:53Z</time>
      </trkpt>
      <trkpt lat="42.527416000" lon="-2.455804000">
        <ele>504.80</ele>
        <time>2017-02-18T06:53:54Z</time>
      </trkpt>
      <trkpt lat="42.527420000" lon="-2.455835000">
        <ele>505.10</ele>
        <time>2017-02-18T06:53:55Z</time>
      </trkpt>
      <trkpt lat="42.527423000" lon="-2.455866000">
        <ele>505.30</ele>
        <time>2017-02-18T06:53:56Z</time>
      </trkpt>
      <trkpt lat="42.527423000" lon="-2.455900000">
        <ele>505.50</ele>
        <time>2017-02-18T06:53:57Z</time>
      </trkpt>
      <trkpt lat="42.527426000" lon="-2.455929000">
        <ele>505.60</ele>
        <time>2017-02-18T06:53:58Z</time>
      </trkpt>
      <trkpt lat="42.527428000" lon="-2.455956000">
        <ele>505.70</ele>
        <time>2017-02-18T06:53:59Z</time>
      </trkpt>
      <trkpt lat="42.527431000" lon="-2.455983000">
        <ele>505.80</ele>
        <time>2017-02-18T06:54:00Z</time>
      </trkpt>
      <trkpt lat="42.527432000" lon="-2.456010000">
        <ele>505.90</ele>
        <time>2017-02-18T06:54:01Z</time>
      </trkpt>
      <trkpt lat="42.527432000" lon="-2.456039000">
        <ele>506.00</ele>
        <time>2017-02-18T06:54:02Z</time>
      </trkpt>
      <trkpt lat="42.527430000" lon="-2.456065000">
        <ele>506.10</ele>
        <time>2017-02-18T06:54:03Z</time>
      </trkpt>
      <trkpt lat="42.527429000" lon="-2.456093000">
        <ele>506.30</ele>
        <time>2017-02-18T06:54:04Z</time>
      </trkpt>
      <trkpt lat="42.527429000" lon="-2.456119000">
        <ele>506.50</ele>
        <time>2017-02-18T06:54:05Z</time>
      </trkpt>
      <trkpt lat="42.527429000" lon="-2.456147000">
        <ele>506.60</ele>
        <time>2017-02-18T06:54:06Z</time>
      </trkpt>
      <trkpt lat="42.527424000" lon="-2.456174000">
        <ele>506.80</ele>
        <time>2017-02-18T06:54:07Z</time>
      </trkpt>
      <trkpt lat="42.527424000" lon="-2.456204000">
        <ele>507.10</ele>
        <time>2017-02-18T06:54:08Z</time>
      </trkpt>
      <trkpt lat="42.527427000" lon="-2.456232000">
        <ele>507.40</ele>
        <time>2017-02-18T06:54:09Z</time>
      </trkpt>
      <trkpt lat="42.527432000" lon="-2.456258000">
        <ele>507.70</ele>
        <time>2017-02-18T06:54:10Z</time>
      </trkpt>
      <trkpt lat="42.527425000" lon="-2.456289000">
        <ele>507.90</ele>
        <time>2017-02-18T06:54:11Z</time>
      </trkpt>
      <trkpt lat="42.527424000" lon="-2.456316000">
        <ele>508.10</ele>
        <time>2017-02-18T06:54:12Z</time>
      </trkpt>
      <trkpt lat="42.527427000" lon="-2.456344000">
        <ele>508.20</ele>
        <time>2017-02-18T06:54:13Z</time>
      </trkpt>
      <trkpt lat="42.527430000" lon="-2.456374000">
        <ele>508.40</ele>
        <time>2017-02-18T06:54:14Z</time>
      </trkpt>
      <trkpt lat="42.527431000" lon="-2.456403000">
        <ele>508.50</ele>
        <time>2017-02-18T06:54:15Z</time>
      </trkpt>
      <trkpt lat="42.527431000" lon="-2.456433000">
        <ele>508.60</ele>
        <time>2017-02-18T06:54:16Z</time>
      </trkpt>
      <trkpt lat="42.527430000" lon="-2.456459000">
        <ele>508.70</ele>
        <time>2017-02-18T06:54:17Z</time>
      </trkpt>
      <trkpt lat="42.527430000" lon="-2.456487000">
        <ele>508.80</ele>
        <time>2017-02-18T06:54:18Z</time>
      </trkpt>
      <trkpt lat="42.527433000" lon="-2.456514000">
        <ele>508.80</ele>
        <time>2017-02-18T06:54:19Z</time>
      </trkpt>
      <trkpt lat="42.527439000" lon="-2.456543000">
        <ele>509.10</ele>
        <time>2017-02-18T06:54:20Z</time>
      </trkpt>
      <trkpt lat="42.527441000" lon="-2.456575000">
        <ele>509.40</ele>
        <time>2017-02-18T06:54:21Z</time>
      </trkpt>
      <trkpt lat="42.527441000" lon="-2.456600000">
        <ele>509.50</ele>
        <time>2017-02-18T06:54:22Z</time>
      </trkpt>
      <trkpt lat="42.527443000" lon="-2.456626000">
        <ele>509.70</ele>
        <time>2017-02-18T06:54:23Z</time>
      </trkpt>
      <trkpt lat="42.527440000" lon="-2.456657000">
        <ele>509.90</ele>
        <time>2017-02-18T06:54:24Z</time>
      </trkpt>
      <trkpt lat="42.527443000" lon="-2.456689000">
        <ele>510.10</ele>
        <time>2017-02-18T06:54:25Z</time>
      </trkpt>
      <trkpt lat="42.527444000" lon="-2.456720000">
        <ele>510.40</ele>
        <time>2017-02-18T06:54:26Z</time>
      </trkpt>
      <trkpt lat="42.527445000" lon="-2.456750000">
        <ele>510.60</ele>
        <time>2017-02-18T06:54:27Z</time>
      </trkpt>
      <trkpt lat="42.527445000" lon="-2.456778000">
        <ele>510.90</ele>
        <time>2017-02-18T06:54:28Z</time>
      </trkpt>
      <trkpt lat="42.527449000" lon="-2.456813000">
        <ele>511.00</ele>
        <time>2017-02-18T06:54:29Z</time>
      </trkpt>
      <trkpt lat="42.527454000" lon="-2.456844000">
        <ele>511.40</ele>
        <time>2017-02-18T06:54:30Z</time>
      </trkpt>
      <trkpt lat="42.527453000" lon="-2.456874000">
        <ele>511.70</ele>
        <time>2017-02-18T06:54:31Z</time>
      </trkpt>
      <trkpt lat="42.527456000" lon="-2.456902000">
        <ele>511.90</ele>
        <time>2017-02-18T06:54:32Z</time>
      </trkpt>
      <trkpt lat="42.527459000" lon="-2.456932000">
        <ele>512.10</ele>
        <time>2017-02-18T06:54:33Z</time>
      </trkpt>
      <trkpt lat="42.527466000" lon="-2.456963000">
        <ele>512.40</ele>
        <time>2017-02-18T06:54:34Z</time>
      </trkpt>
      <trkpt lat="42.527472000" lon="-2.456992000">
        <ele>512.70</ele>
        <time>2017-02-18T06:54:35Z</time>
      </trkpt>
      <trkpt lat="42.527476000" lon="-2.457022000">
        <ele>513.00</ele>
        <time>2017-02-18T06:54:36Z</time>
      </trkpt>
      <trkpt lat="42.527486000" lon="-2.457048000">
        <ele>513.20</ele>
        <time>2017-02-18T06:54:37Z</time>
      </trkpt>
      <trkpt lat="42.527496000" lon="-2.457074000">
        <ele>513.40</ele>
        <time>2017-02-18T06:54:38Z</time>
      </trkpt>
      <trkpt lat="42.527504000" lon="-2.457102000">
        <ele>513.60</ele>
        <time>2017-02-18T06:54:39Z</time>
      </trkpt>
      <trkpt lat="42.527513000" lon="-2.457128000">
        <ele>513.80</ele>
        <time>2017-02-18T06:54:40Z</time>
      </trkpt>
      <trkpt lat="42.527519000" lon="-2.457156000">
        <ele>514.00</ele>
        <time>2017-02-18T06:54:41Z</time>
      </trkpt>
      <trkpt lat="42.527521000" lon="-2.457185000">
        <ele>514.30</ele>
        <time>2017-02-18T06:54:42Z</time>
      </trkpt>
      <trkpt lat="42.527521000" lon="-2.457216000">
        <ele>514.60</ele>
        <time>2017-02-18T06:54:43Z</time>
      </trkpt>
      <trkpt lat="42.527528000" lon="-2.457243000">
        <ele>514.90</ele>
        <time>2017-02-18T06:54:44Z</time>
      </trkpt>
      <trkpt lat="42.527536000" lon="-2.457272000">
        <ele>515.10</ele>
        <time>2017-02-18T06:54:45Z</time>
      </trkpt>
      <trkpt lat="42.527558000" lon="-2.457325000">
        <ele>515.30</ele>
        <time>2017-02-18T06:54:47Z</time>
      </trkpt>
      <trkpt lat="42.527570000" lon="-2.457354000">
        <ele>515.50</ele>
        <time>2017-02-18T06:54:48Z</time>
      </trkpt>
      <trkpt lat="42.527575000" lon="-2.457384000">
        <ele>515.70</ele>
        <time>2017-02-18T06:54:49Z</time>
      </trkpt>
      <trkpt lat="42.527580000" lon="-2.457410000">
        <ele>516.00</ele>
        <time>2017-02-18T06:54:50Z</time>
      </trkpt>
      <trkpt lat="42.527587000" lon="-2.457437000">
        <ele>516.30</ele>
        <time>2017-02-18T06:54:51Z</time>
      </trkpt>
      <trkpt lat="42.527593000" lon="-2.457465000">
        <ele>516.80</ele>
        <time>2017-02-18T06:54:52Z</time>
      </trkpt>
      <trkpt lat="42.527601000" lon="-2.457493000">
        <ele>517.10</ele>
        <time>2017-02-18T06:54:53Z</time>
      </trkpt>
      <trkpt lat="42.527607000" lon="-2.457520000">
        <ele>517.40</ele>
        <time>2017-02-18T06:54:54Z</time>
      </trkpt>
      <trkpt lat="42.527615000" lon="-2.457542000">
        <ele>517.60</ele>
        <time>2017-02-18T06:54:55Z</time>
      </trkpt>
      <trkpt lat="42.527621000" lon="-2.457569000">
        <ele>518.00</ele>
        <time>2017-02-18T06:54:56Z</time>
      </trkpt>
      <trkpt lat="42.527629000" lon="-2.457596000">
        <ele>518.20</ele>
        <time>2017-02-18T06:54:57Z</time>
      </trkpt>
      <trkpt lat="42.527633000" lon="-2.457623000">
        <ele>518.50</ele>
        <time>2017-02-18T06:54:58Z</time>
      </trkpt>
      <trkpt lat="42.527642000" lon="-2.457649000">
        <ele>518.70</ele>
        <time>2017-02-18T06:54:59Z</time>
      </trkpt>
      <trkpt lat="42.527650000" lon="-2.457676000">
        <ele>519.00</ele>
        <time>2017-02-18T06:55:00Z</time>
      </trkpt>
      <trkpt lat="42.527658000" lon="-2.457702000">
        <ele>519.20</ele>
        <time>2017-02-18T06:55:01Z</time>
      </trkpt>
      <trkpt lat="42.527663000" lon="-2.457730000">
        <ele>519.40</ele>
        <time>2017-02-18T06:55:02Z</time>
      </trkpt>
      <trkpt lat="42.527672000" lon="-2.457755000">
        <ele>519.60</ele>
        <time>2017-02-18T06:55:03Z</time>
      </trkpt>
      <trkpt lat="42.527684000" lon="-2.457782000">
        <ele>519.70</ele>
        <time>2017-02-18T06:55:04Z</time>
      </trkpt>
      <trkpt lat="42.527692000" lon="-2.457812000">
        <ele>519.80</ele>
        <time>2017-02-18T06:55:05Z</time>
      </trkpt>
      <trkpt lat="42.527699000" lon="-2.457841000">
        <ele>520.10</ele>
        <time>2017-02-18T06:55:06Z</time>
      </trkpt>
      <trkpt lat="42.527708000" lon="-2.457868000">
        <ele>520.30</ele>
        <time>2017-02-18T06:55:07Z</time>
      </trkpt>
      <trkpt lat="42.527719000" lon="-2.457891000">
        <ele>520.50</ele>
        <time>2017-02-18T06:55:08Z</time>
      </trkpt>
      <trkpt lat="42.527728000" lon="-2.457916000">
        <ele>520.60</ele>
        <time>2017-02-18T06:55:09Z</time>
      </trkpt>
      <trkpt lat="42.527737000" lon="-2.457940000">
        <ele>520.90</ele>
        <time>2017-02-18T06:55:10Z</time>
      </trkpt>
      <trkpt lat="42.527747000" lon="-2.457967000">
        <ele>521.10</ele>
        <time>2017-02-18T06:55:11Z</time>
      </trkpt>
      <trkpt lat="42.527753000" lon="-2.457997000">
        <ele>521.20</ele>
        <time>2017-02-18T06:55:12Z</time>
      </trkpt>
      <trkpt lat="42.527759000" lon="-2.458018000">
        <ele>521.30</ele>
        <time>2017-02-18T06:55:13Z</time>
      </trkpt>
      <trkpt lat="42.527763000" lon="-2.458045000">
        <ele>521.50</ele>
        <time>2017-02-18T06:55:14Z</time>
      </trkpt>
      <trkpt lat="42.527766000" lon="-2.458071000">
        <ele>521.70</ele>
        <time>2017-02-18T06:55:15Z</time>
      </trkpt>
      <trkpt lat="42.527772000" lon="-2.458096000">
        <ele>521.90</ele>
        <time>2017-02-18T06:55:16Z</time>
      </trkpt>
      <trkpt lat="42.527776000" lon="-2.458122000">
        <ele>522.00</ele>
        <time>2017-02-18T06:55:17Z</time>
      </trkpt>
      <trkpt lat="42.527783000" lon="-2.458145000">
        <ele>522.10</ele>
        <time>2017-02-18T06:55:18Z</time>
      </trkpt>
      <trkpt lat="42.527791000" lon="-2.458169000">
        <ele>522.20</ele>
        <time>2017-02-18T06:55:19Z</time>
      </trkpt>
      <trkpt lat="42.527801000" lon="-2.458193000">
        <ele>522.60</ele>
        <time>2017-02-18T06:55:20Z</time>
      </trkpt>
      <trkpt lat="42.527807000" lon="-2.458219000">
        <ele>522.90</ele>
        <time>2017-02-18T06:55:21Z</time>
      </trkpt>
      <trkpt lat="42.527811000" lon="-2.458243000">
        <ele>523.30</ele>
        <time>2017-02-18T06:55:22Z</time>
      </trkpt>
      <trkpt lat="42.527816000" lon="-2.458274000">
        <ele>523.70</ele>
        <time>2017-02-18T06:55:23Z</time>
      </trkpt>
      <trkpt lat="42.527826000" lon="-2.458298000">
        <ele>524.00</ele>
        <time>2017-02-18T06:55:24Z</time>
      </trkpt>
      <trkpt lat="42.527833000" lon="-2.458322000">
        <ele>524.20</ele>
        <time>2017-02-18T06:55:25Z</time>
      </trkpt>
      <trkpt lat="42.527840000" lon="-2.458347000">
        <ele>524.60</ele>
        <time>2017-02-18T06:55:26Z</time>
      </trkpt>
      <trkpt lat="42.527848000" lon="-2.458371000">
        <ele>524.90</ele>
        <time>2017-02-18T06:55:27Z</time>
      </trkpt>
      <trkpt lat="42.527854000" lon="-2.458397000">
        <ele>525.20</ele>
        <time>2017-02-18T06:55:28Z</time>
      </trkpt>
      <trkpt lat="42.527864000" lon="-2.458417000">
        <ele>525.30</ele>
        <time>2017-02-18T06:55:29Z</time>
      </trkpt>
      <trkpt lat="42.527870000" lon="-2.458444000">
        <ele>525.70</ele>
        <time>2017-02-18T06:55:30Z</time>
      </trkpt>
      <trkpt lat="42.527878000" lon="-2.458469000">
        <ele>525.90</ele>
        <time>2017-02-18T06:55:31Z</time>
      </trkpt>
      <trkpt lat="42.527879000" lon="-2.458501000">
        <ele>526.20</ele>
        <time>2017-02-18T06:55:32Z</time>
      </trkpt>
      <trkpt lat="42.527885000" lon="-2.458530000">
        <ele>526.50</ele>
        <time>2017-02-18T06:55:33Z</time>
      </trkpt>
      <trkpt lat="42.527892000" lon="-2.458561000">
        <ele>526.90</ele>
        <time>2017-02-18T06:55:34Z</time>
      </trkpt>
      <trkpt lat="42.527902000" lon="-2.458588000">
        <ele>527.20</ele>
        <time>2017-02-18T06:55:35Z</time>
      </trkpt>
      <trkpt lat="42.527913000" lon="-2.458611000">
        <ele>527.50</ele>
        <time>2017-02-18T06:55:36Z</time>
      </trkpt>
      <trkpt lat="42.527924000" lon="-2.458634000">
        <ele>527.70</ele>
        <time>2017-02-18T06:55:37Z</time>
      </trkpt>
      <trkpt lat="42.527928000" lon="-2.458663000">
        <ele>527.90</ele>
        <time>2017-02-18T06:55:38Z</time>
      </trkpt>
      <trkpt lat="42.527935000" lon="-2.458691000">
        <ele>528.10</ele>
        <time>2017-02-18T06:55:39Z</time>
      </trkpt>
      <trkpt lat="42.527946000" lon="-2.458717000">
        <ele>528.20</ele>
        <time>2017-02-18T06:55:40Z</time>
      </trkpt>
      <trkpt lat="42.527952000" lon="-2.458743000">
        <ele>528.30</ele>
        <time>2017-02-18T06:55:41Z</time>
      </trkpt>
      <trkpt lat="42.527958000" lon="-2.458773000">
        <ele>528.50</ele>
        <time>2017-02-18T06:55:42Z</time>
      </trkpt>
      <trkpt lat="42.527963000" lon="-2.458806000">
        <ele>528.60</ele>
        <time>2017-02-18T06:55:43Z</time>
      </trkpt>
      <trkpt lat="42.527969000" lon="-2.458841000">
        <ele>529.00</ele>
        <time>2017-02-18T06:55:44Z</time>
      </trkpt>
      <trkpt lat="42.527973000" lon="-2.458872000">
        <ele>529.30</ele>
        <time>2017-02-18T06:55:45Z</time>
      </trkpt>
      <trkpt lat="42.527980000" lon="-2.458904000">
        <ele>529.50</ele>
        <time>2017-02-18T06:55:46Z</time>
      </trkpt>
      <trkpt lat="42.528000000" lon="-2.458957000">
        <ele>529.70</ele>
        <time>2017-02-18T06:55:48Z</time>
      </trkpt>
      <trkpt lat="42.528008000" lon="-2.458985000">
        <ele>529.80</ele>
        <time>2017-02-18T06:55:49Z</time>
      </trkpt>
      <trkpt lat="42.528014000" lon="-2.459015000">
        <ele>530.00</ele>
        <time>2017-02-18T06:55:50Z</time>
      </trkpt>
      <trkpt lat="42.528019000" lon="-2.459047000">
        <ele>530.10</ele>
        <time>2017-02-18T06:55:51Z</time>
      </trkpt>
      <trkpt lat="42.528028000" lon="-2.459080000">
        <ele>530.10</ele>
        <time>2017-02-18T06:55:52Z</time>
      </trkpt>
      <trkpt lat="42.528036000" lon="-2.459102000">
        <ele>530.20</ele>
        <time>2017-02-18T06:55:53Z</time>
      </trkpt>
      <trkpt lat="42.528044000" lon="-2.459128000">
        <ele>530.20</ele>
        <time>2017-02-18T06:55:54Z</time>
      </trkpt>
      <trkpt lat="42.528051000" lon="-2.459154000">
        <ele>530.30</ele>
        <time>2017-02-18T06:55:55Z</time>
      </trkpt>
      <trkpt lat="42.528058000" lon="-2.459179000">
        <ele>530.30</ele>
        <time>2017-02-18T06:55:56Z</time>
      </trkpt>
      <trkpt lat="42.528070000" lon="-2.459204000">
        <ele>530.30</ele>
        <time>2017-02-18T06:55:57Z</time>
      </trkpt>
      <trkpt lat="42.528084000" lon="-2.459237000">
        <ele>530.30</ele>
        <time>2017-02-18T06:55:58Z</time>
      </trkpt>
      <trkpt lat="42.528101000" lon="-2.459270000">
        <ele>530.20</ele>
        <time>2017-02-18T06:55:59Z</time>
      </trkpt>
      <trkpt lat="42.528121000" lon="-2.459300000">
        <ele>530.30</ele>
        <time>2017-02-18T06:56:00Z</time>
      </trkpt>
      <trkpt lat="42.528138000" lon="-2.459324000">
        <ele>530.30</ele>
        <time>2017-02-18T06:56:01Z</time>
      </trkpt>
      <trkpt lat="42.528155000" lon="-2.459343000">
        <ele>530.40</ele>
        <time>2017-02-18T06:56:02Z</time>
      </trkpt>
      <trkpt lat="42.528177000" lon="-2.459367000">
        <ele>530.40</ele>
        <time>2017-02-18T06:56:03Z</time>
      </trkpt>
      <trkpt lat="42.528194000" lon="-2.459386000">
        <ele>530.50</ele>
        <time>2017-02-18T06:56:04Z</time>
      </trkpt>
      <trkpt lat="42.528208000" lon="-2.459392000">
        <ele>530.50</ele>
        <time>2017-02-18T06:56:05Z</time>
      </trkpt>
      <trkpt lat="42.528218000" lon="-2.459401000">
        <ele>530.50</ele>
        <time>2017-02-18T06:56:06Z</time>
      </trkpt>
      <trkpt lat="42.528229000" lon="-2.459421000">
        <ele>530.60</ele>
        <time>2017-02-18T06:56:07Z</time>
      </trkpt>
      <trkpt lat="42.528239000" lon="-2.459438000">
        <ele>530.60</ele>
        <time>2017-02-18T06:56:08Z</time>
      </trkpt>
      <trkpt lat="42.528253000" lon="-2.459457000">
        <ele>530.70</ele>
        <time>2017-02-18T06:56:09Z</time>
      </trkpt>
      <trkpt lat="42.528265000" lon="-2.459470000">
        <ele>530.80</ele>
        <time>2017-02-18T06:56:10Z</time>
      </trkpt>
      <trkpt lat="42.528277000" lon="-2.459481000">
        <ele>530.90</ele>
        <time>2017-02-18T06:56:11Z</time>
      </trkpt>
      <trkpt lat="42.528290000" lon="-2.459490000">
        <ele>531.20</ele>
        <time>2017-02-18T06:56:12Z</time>
      </trkpt>
      <trkpt lat="42.528314000" lon="-2.459495000">
        <ele>531.50</ele>
        <time>2017-02-18T06:56:13Z</time>
      </trkpt>
      <trkpt lat="42.528323000" lon="-2.459508000">
        <ele>531.60</ele>
        <time>2017-02-18T06:56:14Z</time>
      </trkpt>
      <trkpt lat="42.528333000" lon="-2.459526000">
        <ele>531.80</ele>
        <time>2017-02-18T06:56:15Z</time>
      </trkpt>
      <trkpt lat="42.528346000" lon="-2.459545000">
        <ele>532.00</ele>
        <time>2017-02-18T06:56:16Z</time>
      </trkpt>
      <trkpt lat="42.528357000" lon="-2.459562000">
        <ele>532.20</ele>
        <time>2017-02-18T06:56:17Z</time>
      </trkpt>
      <trkpt lat="42.528372000" lon="-2.459578000">
        <ele>532.30</ele>
        <time>2017-02-18T06:56:18Z</time>
      </trkpt>
      <trkpt lat="42.528389000" lon="-2.459591000">
        <ele>532.30</ele>
        <time>2017-02-18T06:56:19Z</time>
      </trkpt>
      <trkpt lat="42.528404000" lon="-2.459610000">
        <ele>532.40</ele>
        <time>2017-02-18T06:56:20Z</time>
      </trkpt>
      <trkpt lat="42.528418000" lon="-2.459632000">
        <ele>532.50</ele>
        <time>2017-02-18T06:56:21Z</time>
      </trkpt>
      <trkpt lat="42.528434000" lon="-2.459652000">
        <ele>532.50</ele>
        <time>2017-02-18T06:56:22Z</time>
      </trkpt>
      <trkpt lat="42.528448000" lon="-2.459663000">
        <ele>532.50</ele>
        <time>2017-02-18T06:56:23Z</time>
      </trkpt>
      <trkpt lat="42.528460000" lon="-2.459670000">
        <ele>532.60</ele>
        <time>2017-02-18T06:56:24Z</time>
      </trkpt>
      <trkpt lat="42.528478000" lon="-2.459685000">
        <ele>532.70</ele>
        <time>2017-02-18T06:56:25Z</time>
      </trkpt>
      <trkpt lat="42.528499000" lon="-2.459705000">
        <ele>532.80</ele>
        <time>2017-02-18T06:56:26Z</time>
      </trkpt>
      <trkpt lat="42.528520000" lon="-2.459723000">
        <ele>532.80</ele>
        <time>2017-02-18T06:56:27Z</time>
      </trkpt>
      <trkpt lat="42.528546000" lon="-2.459734000">
        <ele>532.90</ele>
        <time>2017-02-18T06:56:28Z</time>
      </trkpt>
      <trkpt lat="42.528568000" lon="-2.459741000">
        <ele>532.90</ele>
        <time>2017-02-18T06:56:29Z</time>
      </trkpt>
      <trkpt lat="42.528592000" lon="-2.459745000">
        <ele>532.90</ele>
        <time>2017-02-18T06:56:30Z</time>
      </trkpt>
      <trkpt lat="42.528614000" lon="-2.459750000">
        <ele>532.90</ele>
        <time>2017-02-18T06:56:31Z</time>
      </trkpt>
      <trkpt lat="42.528640000" lon="-2.459760000">
        <ele>532.90</ele>
        <time>2017-02-18T06:56:32Z</time>
      </trkpt>
      <trkpt lat="42.528663000" lon="-2.459765000">
        <ele>532.80</ele>
        <time>2017-02-18T06:56:33Z</time>
      </trkpt>
      <trkpt lat="42.528685000" lon="-2.459772000">
        <ele>532.80</ele>
        <time>2017-02-18T06:56:34Z</time>
      </trkpt>
      <trkpt lat="42.528714000" lon="-2.459770000">
        <ele>532.80</ele>
        <time>2017-02-18T06:56:35Z</time>
      </trkpt>
      <trkpt lat="42.528743000" lon="-2.459773000">
        <ele>532.70</ele>
        <time>2017-02-18T06:56:36Z</time>
      </trkpt>
      <trkpt lat="42.528773000" lon="-2.459771000">
        <ele>532.60</ele>
        <time>2017-02-18T06:56:37Z</time>
      </trkpt>
      <trkpt lat="42.528810000" lon="-2.459777000">
        <ele>532.50</ele>
        <time>2017-02-18T06:56:38Z</time>
      </trkpt>
      <trkpt lat="42.528849000" lon="-2.459778000">
        <ele>532.30</ele>
        <time>2017-02-18T06:56:39Z</time>
      </trkpt>
      <trkpt lat="42.528887000" lon="-2.459778000">
        <ele>532.20</ele>
        <time>2017-02-18T06:56:40Z</time>
      </trkpt>
      <trkpt lat="42.528932000" lon="-2.459788000">
        <ele>532.20</ele>
        <time>2017-02-18T06:56:41Z</time>
      </trkpt>
      <trkpt lat="42.528970000" lon="-2.459787000">
        <ele>531.90</ele>
        <time>2017-02-18T06:56:42Z</time>
      </trkpt>
      <trkpt lat="42.529017000" lon="-2.459796000">
        <ele>531.80</ele>
        <time>2017-02-18T06:56:43Z</time>
      </trkpt>
      <trkpt lat="42.529063000" lon="-2.459806000">
        <ele>531.60</ele>
        <time>2017-02-18T06:56:44Z</time>
      </trkpt>
      <trkpt lat="42.529107000" lon="-2.459818000">
        <ele>531.50</ele>
        <time>2017-02-18T06:56:45Z</time>
      </trkpt>
      <trkpt lat="42.529148000" lon="-2.459831000">
        <ele>531.50</ele>
        <time>2017-02-18T06:56:46Z</time>
      </trkpt>
      <trkpt lat="42.529188000" lon="-2.459840000">
        <ele>531.40</ele>
        <time>2017-02-18T06:56:47Z</time>
      </trkpt>
      <trkpt lat="42.529251000" lon="-2.459867000">
        <ele>531.30</ele>
        <time>2017-02-18T06:56:49Z</time>
      </trkpt>
      <trkpt lat="42.529278000" lon="-2.459880000">
        <ele>531.30</ele>
        <time>2017-02-18T06:56:50Z</time>
      </trkpt>
      <trkpt lat="42.529306000" lon="-2.459894000">
        <ele>531.30</ele>
        <time>2017-02-18T06:56:51Z</time>
      </trkpt>
      <trkpt lat="42.529332000" lon="-2.459909000">
        <ele>531.30</ele>
        <time>2017-02-18T06:56:52Z</time>
      </trkpt>
      <trkpt lat="42.529356000" lon="-2.459921000">
        <ele>531.30</ele>
        <time>2017-02-18T06:56:53Z</time>
      </trkpt>
      <trkpt lat="42.529382000" lon="-2.459939000">
        <ele>531.50</ele>
        <time>2017-02-18T06:56:54Z</time>
      </trkpt>
      <trkpt lat="42.529408000" lon="-2.459950000">
        <ele>531.70</ele>
        <time>2017-02-18T06:56:55Z</time>
      </trkpt>
      <trkpt lat="42.529432000" lon="-2.459959000">
        <ele>531.80</ele>
        <time>2017-02-18T06:56:56Z</time>
      </trkpt>
      <trkpt lat="42.529454000" lon="-2.459975000">
        <ele>531.90</ele>
        <time>2017-02-18T06:56:57Z</time>
      </trkpt>
      <trkpt lat="42.529478000" lon="-2.459988000">
        <ele>532.20</ele>
        <time>2017-02-18T06:56:58Z</time>
      </trkpt>
      <trkpt lat="42.529500000" lon="-2.459998000">
        <ele>532.40</ele>
        <time>2017-02-18T06:56:59Z</time>
      </trkpt>
      <trkpt lat="42.529520000" lon="-2.460010000">
        <ele>532.70</ele>
        <time>2017-02-18T06:57:00Z</time>
      </trkpt>
      <trkpt lat="42.529543000" lon="-2.460020000">
        <ele>532.90</ele>
        <time>2017-02-18T06:57:01Z</time>
      </trkpt>
      <trkpt lat="42.529566000" lon="-2.460029000">
        <ele>533.30</ele>
        <time>2017-02-18T06:57:02Z</time>
      </trkpt>
      <trkpt lat="42.529587000" lon="-2.460039000">
        <ele>533.60</ele>
        <time>2017-02-18T06:57:03Z</time>
      </trkpt>
      <trkpt lat="42.529609000" lon="-2.460042000">
        <ele>533.90</ele>
        <time>2017-02-18T06:57:04Z</time>
      </trkpt>
      <trkpt lat="42.529631000" lon="-2.460040000">
        <ele>534.10</ele>
        <time>2017-02-18T06:57:05Z</time>
      </trkpt>
      <trkpt lat="42.529650000" lon="-2.460042000">
        <ele>534.40</ele>
        <time>2017-02-18T06:57:06Z</time>
      </trkpt>
      <trkpt lat="42.529672000" lon="-2.460042000">
        <ele>534.60</ele>
        <time>2017-02-18T06:57:07Z</time>
      </trkpt>
      <trkpt lat="42.529693000" lon="-2.460047000">
        <ele>535.00</ele>
        <time>2017-02-18T06:57:08Z</time>
      </trkpt>
      <trkpt lat="42.529715000" lon="-2.460047000">
        <ele>535.30</ele>
        <time>2017-02-18T06:57:09Z</time>
      </trkpt>
      <trkpt lat="42.529732000" lon="-2.460047000">
        <ele>535.80</ele>
        <time>2017-02-18T06:57:10Z</time>
      </trkpt>
      <trkpt lat="42.529753000" lon="-2.460043000">
        <ele>536.20</ele>
        <time>2017-02-18T06:57:11Z</time>
      </trkpt>
      <trkpt lat="42.529773000" lon="-2.460041000">
        <ele>536.60</ele>
        <time>2017-02-18T06:57:12Z</time>
      </trkpt>
      <trkpt lat="42.529793000" lon="-2.460035000">
        <ele>536.80</ele>
        <time>2017-02-18T06:57:13Z</time>
      </trkpt>
      <trkpt lat="42.529812000" lon="-2.460028000">
        <ele>537.20</ele>
        <time>2017-02-18T06:57:14Z</time>
      </trkpt>
      <trkpt lat="42.529834000" lon="-2.460024000">
        <ele>537.40</ele>
        <time>2017-02-18T06:57:15Z</time>
      </trkpt>
      <trkpt lat="42.529853000" lon="-2.460020000">
        <ele>537.80</ele>
        <time>2017-02-18T06:57:16Z</time>
      </trkpt>
      <trkpt lat="42.529875000" lon="-2.460018000">
        <ele>538.10</ele>
        <time>2017-02-18T06:57:17Z</time>
      </trkpt>
      <trkpt lat="42.529898000" lon="-2.460015000">
        <ele>538.30</ele>
        <time>2017-02-18T06:57:18Z</time>
      </trkpt>
      <trkpt lat="42.529919000" lon="-2.460019000">
        <ele>538.50</ele>
        <time>2017-02-18T06:57:19Z</time>
      </trkpt>
      <trkpt lat="42.529944000" lon="-2.460017000">
        <ele>538.90</ele>
        <time>2017-02-18T06:57:20Z</time>
      </trkpt>
      <trkpt lat="42.529970000" lon="-2.460016000">
        <ele>539.30</ele>
        <time>2017-02-18T06:57:21Z</time>
      </trkpt>
      <trkpt lat="42.529993000" lon="-2.460015000">
        <ele>540.00</ele>
        <time>2017-02-18T06:57:22Z</time>
      </trkpt>
      <trkpt lat="42.530016000" lon="-2.460013000">
        <ele>540.50</ele>
        <time>2017-02-18T06:57:23Z</time>
      </trkpt>
      <trkpt lat="42.530037000" lon="-2.460012000">
        <ele>541.10</ele>
        <time>2017-02-18T06:57:24Z</time>
      </trkpt>
      <trkpt lat="42.530058000" lon="-2.460017000">
        <ele>541.50</ele>
        <time>2017-02-18T06:57:25Z</time>
      </trkpt>
      <trkpt lat="42.530080000" lon="-2.460018000">
        <ele>542.00</ele>
        <time>2017-02-18T06:57:26Z</time>
      </trkpt>
      <trkpt lat="42.530104000" lon="-2.460024000">
        <ele>542.50</ele>
        <time>2017-02-18T06:57:27Z</time>
      </trkpt>
      <trkpt lat="42.530127000" lon="-2.460024000">
        <ele>542.90</ele>
        <time>2017-02-18T06:57:28Z</time>
      </trkpt>
      <trkpt lat="42.530153000" lon="-2.460022000">
        <ele>543.20</ele>
        <time>2017-02-18T06:57:29Z</time>
      </trkpt>
      <trkpt lat="42.530178000" lon="-2.460018000">
        <ele>543.70</ele>
        <time>2017-02-18T06:57:30Z</time>
      </trkpt>
      <trkpt lat="42.530199000" lon="-2.460018000">
        <ele>544.10</ele>
        <time>2017-02-18T06:57:31Z</time>
      </trkpt>
      <trkpt lat="42.530224000" lon="-2.460015000">
        <ele>544.50</ele>
        <time>2017-02-18T06:57:32Z</time>
      </trkpt>
      <trkpt lat="42.530250000" lon="-2.460012000">
        <ele>544.70</ele>
        <time>2017-02-18T06:57:33Z</time>
      </trkpt>
      <trkpt lat="42.530274000" lon="-2.460010000">
        <ele>545.00</ele>
        <time>2017-02-18T06:57:34Z</time>
      </trkpt>
      <trkpt lat="42.530299000" lon="-2.460008000">
        <ele>545.20</ele>
        <time>2017-02-18T06:57:35Z</time>
      </trkpt>
      <trkpt lat="42.530324000" lon="-2.460009000">
        <ele>545.40</ele>
        <time>2017-02-18T06:57:36Z</time>
      </trkpt>
      <trkpt lat="42.530348000" lon="-2.460006000">
        <ele>545.50</ele>
        <time>2017-02-18T06:57:37Z</time>
      </trkpt>
      <trkpt lat="42.530371000" lon="-2.460002000">
        <ele>545.90</ele>
        <time>2017-02-18T06:57:38Z</time>
      </trkpt>
      <trkpt lat="42.530393000" lon="-2.460003000">
        <ele>546.20</ele>
        <time>2017-02-18T06:57:39Z</time>
      </trkpt>
      <trkpt lat="42.530416000" lon="-2.460001000">
        <ele>546.50</ele>
        <time>2017-02-18T06:57:40Z</time>
      </trkpt>
      <trkpt lat="42.530439000" lon="-2.460001000">
        <ele>546.80</ele>
        <time>2017-02-18T06:57:41Z</time>
      </trkpt>
      <trkpt lat="42.530464000" lon="-2.460001000">
        <ele>547.00</ele>
        <time>2017-02-18T06:57:42Z</time>
      </trkpt>
      <trkpt lat="42.530487000" lon="-2.459999000">
        <ele>547.10</ele>
        <time>2017-02-18T06:57:43Z</time>
      </trkpt>
      <trkpt lat="42.530511000" lon="-2.459994000">
        <ele>547.20</ele>
        <time>2017-02-18T06:57:44Z</time>
      </trkpt>
      <trkpt lat="42.530537000" lon="-2.459989000">
        <ele>547.30</ele>
        <time>2017-02-18T06:57:45Z</time>
      </trkpt>
      <trkpt lat="42.530563000" lon="-2.459988000">
        <ele>547.60</ele>
        <time>2017-02-18T06:57:46Z</time>
      </trkpt>
      <trkpt lat="42.530585000" lon="-2.459989000">
        <ele>547.90</ele>
        <time>2017-02-18T06:57:47Z</time>
      </trkpt>
      <trkpt lat="42.530609000" lon="-2.459994000">
        <ele>548.10</ele>
        <time>2017-02-18T06:57:48Z</time>
      </trkpt>
      <trkpt lat="42.530656000" lon="-2.459998000">
        <ele>548.40</ele>
        <time>2017-02-18T06:57:50Z</time>
      </trkpt>
      <trkpt lat="42.530681000" lon="-2.460000000">
        <ele>548.40</ele>
        <time>2017-02-18T06:57:51Z</time>
      </trkpt>
      <trkpt lat="42.530703000" lon="-2.460008000">
        <ele>548.50</ele>
        <time>2017-02-18T06:57:52Z</time>
      </trkpt>
      <trkpt lat="42.530730000" lon="-2.460021000">
        <ele>548.60</ele>
        <time>2017-02-18T06:57:53Z</time>
      </trkpt>
      <trkpt lat="42.530755000" lon="-2.460032000">
        <ele>548.80</ele>
        <time>2017-02-18T06:57:54Z</time>
      </trkpt>
      <trkpt lat="42.530779000" lon="-2.460052000">
        <ele>548.90</ele>
        <time>2017-02-18T06:57:55Z</time>
      </trkpt>
      <trkpt lat="42.530802000" lon="-2.460071000">
        <ele>549.00</ele>
        <time>2017-02-18T06:57:56Z</time>
      </trkpt>
      <trkpt lat="42.530825000" lon="-2.460089000">
        <ele>549.10</ele>
        <time>2017-02-18T06:57:57Z</time>
      </trkpt>
      <trkpt lat="42.530842000" lon="-2.460116000">
        <ele>549.20</ele>
        <time>2017-02-18T06:57:58Z</time>
      </trkpt>
      <trkpt lat="42.530859000" lon="-2.460142000">
        <ele>549.30</ele>
        <time>2017-02-18T06:57:59Z</time>
      </trkpt>
      <trkpt lat="42.530881000" lon="-2.460159000">
        <ele>549.50</ele>
        <time>2017-02-18T06:58:00Z</time>
      </trkpt>
      <trkpt lat="42.530904000" lon="-2.460176000">
        <ele>549.60</ele>
        <time>2017-02-18T06:58:01Z</time>
      </trkpt>
      <trkpt lat="42.530924000" lon="-2.460193000">
        <ele>549.70</ele>
        <time>2017-02-18T06:58:02Z</time>
      </trkpt>
      <trkpt lat="42.530944000" lon="-2.460212000">
        <ele>549.80</ele>
        <time>2017-02-18T06:58:03Z</time>
      </trkpt>
      <trkpt lat="42.530966000" lon="-2.460232000">
        <ele>549.80</ele>
        <time>2017-02-18T06:58:04Z</time>
      </trkpt>
      <trkpt lat="42.530988000" lon="-2.460253000">
        <ele>549.90</ele>
        <time>2017-02-18T06:58:05Z</time>
      </trkpt>
      <trkpt lat="42.531011000" lon="-2.460269000">
        <ele>549.80</ele>
        <time>2017-02-18T06:58:06Z</time>
      </trkpt>
      <trkpt lat="42.531034000" lon="-2.460287000">
        <ele>549.80</ele>
        <time>2017-02-18T06:58:07Z</time>
      </trkpt>
      <trkpt lat="42.531057000" lon="-2.460312000">
        <ele>549.70</ele>
        <time>2017-02-18T06:58:08Z</time>
      </trkpt>
      <trkpt lat="42.531079000" lon="-2.460338000">
        <ele>549.70</ele>
        <time>2017-02-18T06:58:09Z</time>
      </trkpt>
      <trkpt lat="42.531100000" lon="-2.460362000">
        <ele>549.70</ele>
        <time>2017-02-18T06:58:10Z</time>
      </trkpt>
      <trkpt lat="42.531125000" lon="-2.460384000">
        <ele>549.70</ele>
        <time>2017-02-18T06:58:11Z</time>
      </trkpt>
      <trkpt lat="42.531145000" lon="-2.460408000">
        <ele>549.90</ele>
        <time>2017-02-18T06:58:12Z</time>
      </trkpt>
      <trkpt lat="42.531168000" lon="-2.460432000">
        <ele>550.00</ele>
        <time>2017-02-18T06:58:13Z</time>
      </trkpt>
      <trkpt lat="42.531192000" lon="-2.460451000">
        <ele>550.20</ele>
        <time>2017-02-18T06:58:14Z</time>
      </trkpt>
      <trkpt lat="42.531214000" lon="-2.460471000">
        <ele>550.30</ele>
        <time>2017-02-18T06:58:15Z</time>
      </trkpt>
      <trkpt lat="42.531236000" lon="-2.460495000">
        <ele>550.60</ele>
        <time>2017-02-18T06:58:16Z</time>
      </trkpt>
      <trkpt lat="42.531259000" lon="-2.460514000">
        <ele>550.80</ele>
        <time>2017-02-18T06:58:17Z</time>
      </trkpt>
      <trkpt lat="42.531281000" lon="-2.460537000">
        <ele>550.80</ele>
        <time>2017-02-18T06:58:18Z</time>
      </trkpt>
      <trkpt lat="42.531306000" lon="-2.460559000">
        <ele>550.80</ele>
        <time>2017-02-18T06:58:19Z</time>
      </trkpt>
      <trkpt lat="42.531329000" lon="-2.460580000">
        <ele>550.80</ele>
        <time>2017-02-18T06:58:20Z</time>
      </trkpt>
      <trkpt lat="42.531351000" lon="-2.460601000">
        <ele>550.90</ele>
        <time>2017-02-18T06:58:21Z</time>
      </trkpt>
      <trkpt lat="42.531374000" lon="-2.460623000">
        <ele>550.90</ele>
        <time>2017-02-18T06:58:22Z</time>
      </trkpt>
      <trkpt lat="42.531399000" lon="-2.460644000">
        <ele>550.90</ele>
        <time>2017-02-18T06:58:23Z</time>
      </trkpt>
      <trkpt lat="42.531422000" lon="-2.460665000">
        <ele>551.00</ele>
        <time>2017-02-18T06:58:24Z</time>
      </trkpt>
      <trkpt lat="42.531441000" lon="-2.460683000">
        <ele>551.00</ele>
        <time>2017-02-18T06:58:25Z</time>
      </trkpt>
      <trkpt lat="42.531464000" lon="-2.460704000">
        <ele>551.10</ele>
        <time>2017-02-18T06:58:26Z</time>
      </trkpt>
      <trkpt lat="42.531485000" lon="-2.460727000">
        <ele>551.20</ele>
        <time>2017-02-18T06:58:27Z</time>
      </trkpt>
      <trkpt lat="42.531508000" lon="-2.460747000">
        <ele>551.30</ele>
        <time>2017-02-18T06:58:28Z</time>
      </trkpt>
      <trkpt lat="42.531533000" lon="-2.460767000">
        <ele>551.40</ele>
        <time>2017-02-18T06:58:29Z</time>
      </trkpt>
      <trkpt lat="42.531555000" lon="-2.460789000">
        <ele>551.70</ele>
        <time>2017-02-18T06:58:30Z</time>
      </trkpt>
      <trkpt lat="42.531580000" lon="-2.460809000">
        <ele>551.90</ele>
        <time>2017-02-18T06:58:31Z</time>
      </trkpt>
      <trkpt lat="42.531604000" lon="-2.460830000">
        <ele>552.10</ele>
        <time>2017-02-18T06:58:32Z</time>
      </trkpt>
      <trkpt lat="42.531626000" lon="-2.460847000">
        <ele>552.20</ele>
        <time>2017-02-18T06:58:33Z</time>
      </trkpt>
      <trkpt lat="42.531651000" lon="-2.460863000">
        <ele>552.40</ele>
        <time>2017-02-18T06:58:34Z</time>
      </trkpt>
      <trkpt lat="42.531677000" lon="-2.460882000">
        <ele>552.50</ele>
        <time>2017-02-18T06:58:35Z</time>
      </trkpt>
      <trkpt lat="42.531702000" lon="-2.460899000">
        <ele>552.60</ele>
        <time>2017-02-18T06:58:36Z</time>
      </trkpt>
      <trkpt lat="42.531728000" lon="-2.460920000">
        <ele>552.70</ele>
        <time>2017-02-18T06:58:37Z</time>
      </trkpt>
      <trkpt lat="42.531753000" lon="-2.460933000">
        <ele>552.80</ele>
        <time>2017-02-18T06:58:38Z</time>
      </trkpt>
      <trkpt lat="42.531779000" lon="-2.460948000">
        <ele>552.90</ele>
        <time>2017-02-18T06:58:39Z</time>
      </trkpt>
      <trkpt lat="42.531803000" lon="-2.460961000">
        <ele>553.10</ele>
        <time>2017-02-18T06:58:40Z</time>
      </trkpt>
      <trkpt lat="42.531831000" lon="-2.460972000">
        <ele>553.20</ele>
        <time>2017-02-18T06:58:41Z</time>
      </trkpt>
      <trkpt lat="42.531859000" lon="-2.460982000">
        <ele>553.30</ele>
        <time>2017-02-18T06:58:42Z</time>
      </trkpt>
      <trkpt lat="42.531884000" lon="-2.460990000">
        <ele>553.40</ele>
        <time>2017-02-18T06:58:43Z</time>
      </trkpt>
      <trkpt lat="42.531913000" lon="-2.461002000">
        <ele>553.40</ele>
        <time>2017-02-18T06:58:44Z</time>
      </trkpt>
      <trkpt lat="42.531942000" lon="-2.461009000">
        <ele>553.50</ele>
        <time>2017-02-18T06:58:45Z</time>
      </trkpt>
      <trkpt lat="42.531971000" lon="-2.461018000">
        <ele>553.50</ele>
        <time>2017-02-18T06:58:46Z</time>
      </trkpt>
      <trkpt lat="42.532003000" lon="-2.461027000">
        <ele>553.50</ele>
        <time>2017-02-18T06:58:47Z</time>
      </trkpt>
      <trkpt lat="42.532038000" lon="-2.461041000">
        <ele>553.60</ele>
        <time>2017-02-18T06:58:48Z</time>
      </trkpt>
      <trkpt lat="42.532076000" lon="-2.461052000">
        <ele>553.60</ele>
        <time>2017-02-18T06:58:49Z</time>
      </trkpt>
      <trkpt lat="42.532157000" lon="-2.461071000">
        <ele>553.50</ele>
        <time>2017-02-18T06:58:51Z</time>
      </trkpt>
      <trkpt lat="42.532200000" lon="-2.461082000">
        <ele>553.50</ele>
        <time>2017-02-18T06:58:52Z</time>
      </trkpt>
      <trkpt lat="42.532245000" lon="-2.461092000">
        <ele>553.40</ele>
        <time>2017-02-18T06:58:53Z</time>
      </trkpt>
      <trkpt lat="42.532294000" lon="-2.461100000">
        <ele>553.30</ele>
        <time>2017-02-18T06:58:54Z</time>
      </trkpt>
      <trkpt lat="42.532345000" lon="-2.461107000">
        <ele>553.30</ele>
        <time>2017-02-18T06:58:55Z</time>
      </trkpt>
      <trkpt lat="42.532392000" lon="-2.461118000">
        <ele>553.10</ele>
        <time>2017-02-18T06:58:56Z</time>
      </trkpt>
      <trkpt lat="42.532443000" lon="-2.461128000">
        <ele>553.00</ele>
        <time>2017-02-18T06:58:57Z</time>
      </trkpt>
      <trkpt lat="42.532490000" lon="-2.461132000">
        <ele>552.90</ele>
        <time>2017-02-18T06:58:58Z</time>
      </trkpt>
      <trkpt lat="42.532530000" lon="-2.461133000">
        <ele>552.80</ele>
        <time>2017-02-18T06:58:59Z</time>
      </trkpt>
      <trkpt lat="42.532569000" lon="-2.461137000">
        <ele>552.70</ele>
        <time>2017-02-18T06:59:00Z</time>
      </trkpt>
      <trkpt lat="42.532604000" lon="-2.461137000">
        <ele>552.60</ele>
        <time>2017-02-18T06:59:01Z</time>
      </trkpt>
      <trkpt lat="42.532637000" lon="-2.461134000">
        <ele>552.70</ele>
        <time>2017-02-18T06:59:02Z</time>
      </trkpt>
      <trkpt lat="42.532670000" lon="-2.461136000">
        <ele>552.80</ele>
        <time>2017-02-18T06:59:03Z</time>
      </trkpt>
      <trkpt lat="42.532700000" lon="-2.461134000">
        <ele>552.90</ele>
        <time>2017-02-18T06:59:04Z</time>
      </trkpt>
      <trkpt lat="42.532732000" lon="-2.461134000">
        <ele>552.90</ele>
        <time>2017-02-18T06:59:05Z</time>
      </trkpt>
      <trkpt lat="42.532762000" lon="-2.461132000">
        <ele>553.10</ele>
        <time>2017-02-18T06:59:06Z</time>
      </trkpt>
      <trkpt lat="42.532791000" lon="-2.461132000">
        <ele>553.20</ele>
        <time>2017-02-18T06:59:07Z</time>
      </trkpt>
      <trkpt lat="42.532822000" lon="-2.461136000">
        <ele>553.20</ele>
        <time>2017-02-18T06:59:08Z</time>
      </trkpt>
      <trkpt lat="42.532853000" lon="-2.461136000">
        <ele>553.30</ele>
        <time>2017-02-18T06:59:09Z</time>
      </trkpt>
      <trkpt lat="42.532880000" lon="-2.461140000">
        <ele>553.50</ele>
        <time>2017-02-18T06:59:10Z</time>
      </trkpt>
      <trkpt lat="42.532908000" lon="-2.461138000">
        <ele>553.60</ele>
        <time>2017-02-18T06:59:11Z</time>
      </trkpt>
      <trkpt lat="42.532936000" lon="-2.461140000">
        <ele>553.70</ele>
        <time>2017-02-18T06:59:12Z</time>
      </trkpt>
      <trkpt lat="42.532963000" lon="-2.461141000">
        <ele>553.90</ele>
        <time>2017-02-18T06:59:13Z</time>
      </trkpt>
      <trkpt lat="42.532991000" lon="-2.461140000">
        <ele>554.00</ele>
        <time>2017-02-18T06:59:14Z</time>
      </trkpt>
      <trkpt lat="42.533020000" lon="-2.461144000">
        <ele>554.10</ele>
        <time>2017-02-18T06:59:15Z</time>
      </trkpt>
      <trkpt lat="42.533047000" lon="-2.461146000">
        <ele>554.20</ele>
        <time>2017-02-18T06:59:16Z</time>
      </trkpt>
      <trkpt lat="42.533076000" lon="-2.461145000">
        <ele>554.20</ele>
        <time>2017-02-18T06:59:17Z</time>
      </trkpt>
      <trkpt lat="42.533106000" lon="-2.461148000">
        <ele>554.60</ele>
        <time>2017-02-18T06:59:18Z</time>
      </trkpt>
      <trkpt lat="42.533134000" lon="-2.461152000">
        <ele>554.90</ele>
        <time>2017-02-18T06:59:19Z</time>
      </trkpt>
      <trkpt lat="42.533161000" lon="-2.461157000">
        <ele>555.10</ele>
        <time>2017-02-18T06:59:20Z</time>
      </trkpt>
      <trkpt lat="42.533188000" lon="-2.461161000">
        <ele>555.30</ele>
        <time>2017-02-18T06:59:21Z</time>
      </trkpt>
      <trkpt lat="42.533216000" lon="-2.461162000">
        <ele>555.70</ele>
        <time>2017-02-18T06:59:22Z</time>
      </trkpt>
      <trkpt lat="42.533242000" lon="-2.461160000">
        <ele>556.00</ele>
        <time>2017-02-18T06:59:23Z</time>
      </trkpt>
      <trkpt lat="42.533266000" lon="-2.461166000">
        <ele>556.30</ele>
        <time>2017-02-18T06:59:24Z</time>
      </trkpt>
      <trkpt lat="42.533291000" lon="-2.461170000">
        <ele>556.50</ele>
        <time>2017-02-18T06:59:25Z</time>
      </trkpt>
      <trkpt lat="42.533316000" lon="-2.461178000">
        <ele>556.90</ele>
        <time>2017-02-18T06:59:26Z</time>
      </trkpt>
      <trkpt lat="42.533340000" lon="-2.461181000">
        <ele>557.20</ele>
        <time>2017-02-18T06:59:27Z</time>
      </trkpt>
      <trkpt lat="42.533363000" lon="-2.461182000">
        <ele>557.50</ele>
        <time>2017-02-18T06:59:28Z</time>
      </trkpt>
      <trkpt lat="42.533387000" lon="-2.461179000">
        <ele>557.70</ele>
        <time>2017-02-18T06:59:29Z</time>
      </trkpt>
      <trkpt lat="42.533410000" lon="-2.461178000">
        <ele>558.10</ele>
        <time>2017-02-18T06:59:30Z</time>
      </trkpt>
      <trkpt lat="42.533433000" lon="-2.461176000">
        <ele>558.30</ele>
        <time>2017-02-18T06:59:31Z</time>
      </trkpt>
      <trkpt lat="42.533460000" lon="-2.461175000">
        <ele>558.50</ele>
        <time>2017-02-18T06:59:32Z</time>
      </trkpt>
      <trkpt lat="42.533483000" lon="-2.461177000">
        <ele>558.70</ele>
        <time>2017-02-18T06:59:33Z</time>
      </trkpt>
      <trkpt lat="42.533506000" lon="-2.461179000">
        <ele>559.20</ele>
        <time>2017-02-18T06:59:34Z</time>
      </trkpt>
      <trkpt lat="42.533529000" lon="-2.461181000">
        <ele>559.50</ele>
        <time>2017-02-18T06:59:35Z</time>
      </trkpt>
      <trkpt lat="42.533554000" lon="-2.461185000">
        <ele>559.80</ele>
        <time>2017-02-18T06:59:36Z</time>
      </trkpt>
      <trkpt lat="42.533577000" lon="-2.461187000">
        <ele>560.00</ele>
        <time>2017-02-18T06:59:37Z</time>
      </trkpt>
      <trkpt lat="42.533597000" lon="-2.461193000">
        <ele>560.40</ele>
        <time>2017-02-18T06:59:38Z</time>
      </trkpt>
      <trkpt lat="42.533616000" lon="-2.461196000">
        <ele>560.70</ele>
        <time>2017-02-18T06:59:39Z</time>
      </trkpt>
      <trkpt lat="42.533635000" lon="-2.461203000">
        <ele>560.90</ele>
        <time>2017-02-18T06:59:40Z</time>
      </trkpt>
      <trkpt lat="42.533655000" lon="-2.461204000">
        <ele>561.00</ele>
        <time>2017-02-18T06:59:41Z</time>
      </trkpt>
      <trkpt lat="42.533674000" lon="-2.461206000">
        <ele>561.30</ele>
        <time>2017-02-18T06:59:42Z</time>
      </trkpt>
      <trkpt lat="42.533698000" lon="-2.461211000">
        <ele>561.50</ele>
        <time>2017-02-18T06:59:43Z</time>
      </trkpt>
      <trkpt lat="42.533719000" lon="-2.461220000">
        <ele>561.70</ele>
        <time>2017-02-18T06:59:44Z</time>
      </trkpt>
      <trkpt lat="42.533743000" lon="-2.461225000">
        <ele>562.00</ele>
        <time>2017-02-18T06:59:45Z</time>
      </trkpt>
      <trkpt lat="42.533767000" lon="-2.461232000">
        <ele>562.20</ele>
        <time>2017-02-18T06:59:46Z</time>
      </trkpt>
      <trkpt lat="42.533794000" lon="-2.461239000">
        <ele>562.50</ele>
        <time>2017-02-18T06:59:47Z</time>
      </trkpt>
      <trkpt lat="42.533819000" lon="-2.461251000">
        <ele>562.60</ele>
        <time>2017-02-18T06:59:48Z</time>
      </trkpt>
      <trkpt lat="42.533844000" lon="-2.461261000">
        <ele>562.70</ele>
        <time>2017-02-18T06:59:49Z</time>
      </trkpt>
      <trkpt lat="42.533870000" lon="-2.461274000">
        <ele>563.00</ele>
        <time>2017-02-18T06:59:50Z</time>
      </trkpt>
      <trkpt lat="42.533913000" lon="-2.461298000">
        <ele>563.40</ele>
        <time>2017-02-18T06:59:52Z</time>
      </trkpt>
      <trkpt lat="42.533939000" lon="-2.461319000">
        <ele>563.50</ele>
        <time>2017-02-18T06:59:53Z</time>
      </trkpt>
      <trkpt lat="42.533962000" lon="-2.461332000">
        <ele>563.80</ele>
        <time>2017-02-18T06:59:54Z</time>
      </trkpt>
      <trkpt lat="42.533985000" lon="-2.461348000">
        <ele>564.00</ele>
        <time>2017-02-18T06:59:55Z</time>
      </trkpt>
      <trkpt lat="42.534006000" lon="-2.461362000">
        <ele>564.00</ele>
        <time>2017-02-18T06:59:56Z</time>
      </trkpt>
      <trkpt lat="42.534029000" lon="-2.461381000">
        <ele>564.10</ele>
        <time>2017-02-18T06:59:57Z</time>
      </trkpt>
      <trkpt lat="42.534051000" lon="-2.461399000">
        <ele>564.30</ele>
        <time>2017-02-18T06:59:58Z</time>
      </trkpt>
      <trkpt lat="42.534073000" lon="-2.461412000">
        <ele>564.40</ele>
        <time>2017-02-18T06:59:59Z</time>
      </trkpt>
      <trkpt lat="42.534095000" lon="-2.461428000">
        <ele>564.60</ele>
        <time>2017-02-18T07:00:00Z</time>
      </trkpt>
      <trkpt lat="42.534119000" lon="-2.461441000">
        <ele>564.60</ele>
        <time>2017-02-18T07:00:01Z</time>
      </trkpt>
      <trkpt lat="42.534139000" lon="-2.461452000">
        <ele>564.80</ele>
        <time>2017-02-18T07:00:02Z</time>
      </trkpt>
      <trkpt lat="42.534161000" lon="-2.461467000">
        <ele>565.00</ele>
        <time>2017-02-18T07:00:03Z</time>
      </trkpt>
      <trkpt lat="42.534181000" lon="-2.461483000">
        <ele>565.40</ele>
        <time>2017-02-18T07:00:04Z</time>
      </trkpt>
      <trkpt lat="42.534200000" lon="-2.461498000">
        <ele>565.70</ele>
        <time>2017-02-18T07:00:05Z</time>
      </trkpt>
      <trkpt lat="42.534219000" lon="-2.461510000">
        <ele>566.00</ele>
        <time>2017-02-18T07:00:06Z</time>
      </trkpt>
      <trkpt lat="42.534239000" lon="-2.461531000">
        <ele>566.10</ele>
        <time>2017-02-18T07:00:07Z</time>
      </trkpt>
      <trkpt lat="42.534260000" lon="-2.461549000">
        <ele>566.30</ele>
        <time>2017-02-18T07:00:08Z</time>
      </trkpt>
      <trkpt lat="42.534282000" lon="-2.461564000">
        <ele>566.40</ele>
        <time>2017-02-18T07:00:09Z</time>
      </trkpt>
      <trkpt lat="42.534303000" lon="-2.461580000">
        <ele>566.80</ele>
        <time>2017-02-18T07:00:10Z</time>
      </trkpt>
      <trkpt lat="42.534323000" lon="-2.461595000">
        <ele>567.10</ele>
        <time>2017-02-18T07:00:11Z</time>
      </trkpt>
      <trkpt lat="42.534344000" lon="-2.461611000">
        <ele>567.40</ele>
        <time>2017-02-18T07:00:12Z</time>
      </trkpt>
      <trkpt lat="42.534363000" lon="-2.461628000">
        <ele>567.60</ele>
        <time>2017-02-18T07:00:13Z</time>
      </trkpt>
      <trkpt lat="42.534383000" lon="-2.461639000">
        <ele>568.00</ele>
        <time>2017-02-18T07:00:14Z</time>
      </trkpt>
      <trkpt lat="42.534405000" lon="-2.461650000">
        <ele>568.40</ele>
        <time>2017-02-18T07:00:15Z</time>
      </trkpt>
      <trkpt lat="42.534427000" lon="-2.461664000">
        <ele>568.60</ele>
        <time>2017-02-18T07:00:16Z</time>
      </trkpt>
      <trkpt lat="42.534443000" lon="-2.461681000">
        <ele>568.80</ele>
        <time>2017-02-18T07:00:17Z</time>
      </trkpt>
      <trkpt lat="42.534463000" lon="-2.461696000">
        <ele>569.10</ele>
        <time>2017-02-18T07:00:18Z</time>
      </trkpt>
      <trkpt lat="42.534485000" lon="-2.461708000">
        <ele>569.30</ele>
        <time>2017-02-18T07:00:19Z</time>
      </trkpt>
      <trkpt lat="42.534502000" lon="-2.461722000">
        <ele>569.70</ele>
        <time>2017-02-18T07:00:20Z</time>
      </trkpt>
      <trkpt lat="42.534523000" lon="-2.461737000">
        <ele>569.90</ele>
        <time>2017-02-18T07:00:21Z</time>
      </trkpt>
      <trkpt lat="42.534544000" lon="-2.461755000">
        <ele>570.10</ele>
        <time>2017-02-18T07:00:22Z</time>
      </trkpt>
      <trkpt lat="42.534564000" lon="-2.461769000">
        <ele>570.30</ele>
        <time>2017-02-18T07:00:23Z</time>
      </trkpt>
      <trkpt lat="42.534581000" lon="-2.461785000">
        <ele>570.50</ele>
        <time>2017-02-18T07:00:24Z</time>
      </trkpt>
      <trkpt lat="42.534601000" lon="-2.461800000">
        <ele>570.60</ele>
        <time>2017-02-18T07:00:25Z</time>
      </trkpt>
      <trkpt lat="42.534621000" lon="-2.461815000">
        <ele>570.90</ele>
        <time>2017-02-18T07:00:26Z</time>
      </trkpt>
      <trkpt lat="42.534642000" lon="-2.461829000">
        <ele>571.10</ele>
        <time>2017-02-18T07:00:27Z</time>
      </trkpt>
      <trkpt lat="42.534663000" lon="-2.461840000">
        <ele>571.40</ele>
        <time>2017-02-18T07:00:28Z</time>
      </trkpt>
      <trkpt lat="42.534684000" lon="-2.461857000">
        <ele>571.50</ele>
        <time>2017-02-18T07:00:29Z</time>
      </trkpt>
      <trkpt lat="42.534705000" lon="-2.461873000">
        <ele>571.70</ele>
        <time>2017-02-18T07:00:30Z</time>
      </trkpt>
      <trkpt lat="42.534725000" lon="-2.461883000">
        <ele>571.80</ele>
        <time>2017-02-18T07:00:31Z</time>
      </trkpt>
      <trkpt lat="42.534743000" lon="-2.461892000">
        <ele>571.90</ele>
        <time>2017-02-18T07:00:32Z</time>
      </trkpt>
      <trkpt lat="42.534764000" lon="-2.461908000">
        <ele>571.90</ele>
        <time>2017-02-18T07:00:33Z</time>
      </trkpt>
      <trkpt lat="42.534785000" lon="-2.461922000">
        <ele>572.10</ele>
        <time>2017-02-18T07:00:34Z</time>
      </trkpt>
      <trkpt lat="42.534806000" lon="-2.461937000">
        <ele>572.30</ele>
        <time>2017-02-18T07:00:35Z</time>
      </trkpt>
      <trkpt lat="42.534827000" lon="-2.461952000">
        <ele>572.40</ele>
        <time>2017-02-18T07:00:36Z</time>
      </trkpt>
      <trkpt lat="42.534846000" lon="-2.461966000">
        <ele>572.50</ele>
        <time>2017-02-18T07:00:37Z</time>
      </trkpt>
      <trkpt lat="42.534867000" lon="-2.461978000">
        <ele>572.70</ele>
        <time>2017-02-18T07:00:38Z</time>
      </trkpt>
      <trkpt lat="42.534885000" lon="-2.461990000">
        <ele>572.90</ele>
        <time>2017-02-18T07:00:39Z</time>
      </trkpt>
      <trkpt lat="42.534905000" lon="-2.462004000">
        <ele>573.10</ele>
        <time>2017-02-18T07:00:40Z</time>
      </trkpt>
      <trkpt lat="42.534922000" lon="-2.462015000">
        <ele>573.30</ele>
        <time>2017-02-18T07:00:41Z</time>
      </trkpt>
      <trkpt lat="42.534944000" lon="-2.462026000">
        <ele>573.50</ele>
        <time>2017-02-18T07:00:42Z</time>
      </trkpt>
      <trkpt lat="42.534965000" lon="-2.462033000">
        <ele>573.70</ele>
        <time>2017-02-18T07:00:43Z</time>
      </trkpt>
      <trkpt lat="42.534988000" lon="-2.462042000">
        <ele>573.80</ele>
        <time>2017-02-18T07:00:44Z</time>
      </trkpt>
      <trkpt lat="42.535009000" lon="-2.462051000">
        <ele>573.90</ele>
        <time>2017-02-18T07:00:45Z</time>
      </trkpt>
      <trkpt lat="42.535028000" lon="-2.462067000">
        <ele>573.90</ele>
        <time>2017-02-18T07:00:46Z</time>
      </trkpt>
      <trkpt lat="42.535051000" lon="-2.462082000">
        <ele>574.00</ele>
        <time>2017-02-18T07:00:47Z</time>
      </trkpt>
      <trkpt lat="42.535076000" lon="-2.462093000">
        <ele>574.00</ele>
        <time>2017-02-18T07:00:48Z</time>
      </trkpt>
      <trkpt lat="42.535098000" lon="-2.462111000">
        <ele>574.00</ele>
        <time>2017-02-18T07:00:49Z</time>
      </trkpt>
      <trkpt lat="42.535119000" lon="-2.462123000">
        <ele>574.20</ele>
        <time>2017-02-18T07:00:50Z</time>
      </trkpt>
      <trkpt lat="42.535142000" lon="-2.462137000">
        <ele>574.40</ele>
        <time>2017-02-18T07:00:51Z</time>
      </trkpt>
      <trkpt lat="42.535191000" lon="-2.462163000">
        <ele>574.60</ele>
        <time>2017-02-18T07:00:53Z</time>
      </trkpt>
      <trkpt lat="42.535212000" lon="-2.462173000">
        <ele>574.60</ele>
        <time>2017-02-18T07:00:54Z</time>
      </trkpt>
      <trkpt lat="42.535236000" lon="-2.462184000">
        <ele>574.70</ele>
        <time>2017-02-18T07:00:55Z</time>
      </trkpt>
      <trkpt lat="42.535261000" lon="-2.462195000">
        <ele>574.80</ele>
        <time>2017-02-18T07:00:56Z</time>
      </trkpt>
      <trkpt lat="42.535285000" lon="-2.462203000">
        <ele>574.80</ele>
        <time>2017-02-18T07:00:57Z</time>
      </trkpt>
      <trkpt lat="42.535310000" lon="-2.462212000">
        <ele>574.90</ele>
        <time>2017-02-18T07:00:58Z</time>
      </trkpt>
      <trkpt lat="42.535335000" lon="-2.462223000">
        <ele>575.00</ele>
        <time>2017-02-18T07:00:59Z</time>
      </trkpt>
      <trkpt lat="42.535361000" lon="-2.462236000">
        <ele>575.00</ele>
        <time>2017-02-18T07:01:00Z</time>
      </trkpt>
      <trkpt lat="42.535386000" lon="-2.462247000">
        <ele>575.00</ele>
        <time>2017-02-18T07:01:01Z</time>
      </trkpt>
      <trkpt lat="42.535411000" lon="-2.462257000">
        <ele>575.10</ele>
        <time>2017-02-18T07:01:02Z</time>
      </trkpt>
      <trkpt lat="42.535436000" lon="-2.462267000">
        <ele>575.10</ele>
        <time>2017-02-18T07:01:03Z</time>
      </trkpt>
      <trkpt lat="42.535458000" lon="-2.462281000">
        <ele>575.20</ele>
        <time>2017-02-18T07:01:04Z</time>
      </trkpt>
      <trkpt lat="42.535483000" lon="-2.462295000">
        <ele>575.20</ele>
        <time>2017-02-18T07:01:05Z</time>
      </trkpt>
      <trkpt lat="42.535506000" lon="-2.462303000">
        <ele>575.30</ele>
        <time>2017-02-18T07:01:06Z</time>
      </trkpt>
      <trkpt lat="42.535530000" lon="-2.462315000">
        <ele>575.30</ele>
        <time>2017-02-18T07:01:07Z</time>
      </trkpt>
      <trkpt lat="42.535555000" lon="-2.462328000">
        <ele>575.50</ele>
        <time>2017-02-18T07:01:08Z</time>
      </trkpt>
      <trkpt lat="42.535581000" lon="-2.462343000">
        <ele>575.50</ele>
        <time>2017-02-18T07:01:09Z</time>
      </trkpt>
      <trkpt lat="42.535607000" lon="-2.462358000">
        <ele>575.60</ele>
        <time>2017-02-18T07:01:10Z</time>
      </trkpt>
      <trkpt lat="42.535634000" lon="-2.462374000">
        <ele>575.70</ele>
        <time>2017-02-18T07:01:11Z</time>
      </trkpt>
      <trkpt lat="42.535658000" lon="-2.462394000">
        <ele>575.70</ele>
        <time>2017-02-18T07:01:12Z</time>
      </trkpt>
      <trkpt lat="42.535685000" lon="-2.462406000">
        <ele>575.70</ele>
        <time>2017-02-18T07:01:13Z</time>
      </trkpt>
      <trkpt lat="42.535713000" lon="-2.462422000">
        <ele>575.80</ele>
        <time>2017-02-18T07:01:14Z</time>
      </trkpt>
      <trkpt lat="42.535736000" lon="-2.462437000">
        <ele>575.90</ele>
        <time>2017-02-18T07:01:15Z</time>
      </trkpt>
      <trkpt lat="42.535761000" lon="-2.462448000">
        <ele>576.20</ele>
        <time>2017-02-18T07:01:16Z</time>
      </trkpt>
      <trkpt lat="42.535789000" lon="-2.462464000">
        <ele>576.40</ele>
        <time>2017-02-18T07:01:17Z</time>
      </trkpt>
      <trkpt lat="42.535816000" lon="-2.462477000">
        <ele>576.60</ele>
        <time>2017-02-18T07:01:18Z</time>
      </trkpt>
      <trkpt lat="42.535840000" lon="-2.462484000">
        <ele>576.70</ele>
        <time>2017-02-18T07:01:19Z</time>
      </trkpt>
      <trkpt lat="42.535866000" lon="-2.462493000">
        <ele>576.80</ele>
        <time>2017-02-18T07:01:20Z</time>
      </trkpt>
      <trkpt lat="42.535893000" lon="-2.462503000">
        <ele>576.80</ele>
        <time>2017-02-18T07:01:21Z</time>
      </trkpt>
      <trkpt lat="42.535919000" lon="-2.462516000">
        <ele>577.00</ele>
        <time>2017-02-18T07:01:22Z</time>
      </trkpt>
      <trkpt lat="42.535946000" lon="-2.462527000">
        <ele>577.10</ele>
        <time>2017-02-18T07:01:23Z</time>
      </trkpt>
      <trkpt lat="42.535970000" lon="-2.462537000">
        <ele>576.90</ele>
        <time>2017-02-18T07:01:24Z</time>
      </trkpt>
      <trkpt lat="42.535997000" lon="-2.462550000">
        <ele>576.80</ele>
        <time>2017-02-18T07:01:25Z</time>
      </trkpt>
      <trkpt lat="42.536024000" lon="-2.462562000">
        <ele>577.00</ele>
        <time>2017-02-18T07:01:26Z</time>
      </trkpt>
      <trkpt lat="42.536053000" lon="-2.462573000">
        <ele>577.10</ele>
        <time>2017-02-18T07:01:27Z</time>
      </trkpt>
      <trkpt lat="42.536082000" lon="-2.462585000">
        <ele>577.20</ele>
        <time>2017-02-18T07:01:28Z</time>
      </trkpt>
      <trkpt lat="42.536110000" lon="-2.462599000">
        <ele>577.20</ele>
        <time>2017-02-18T07:01:29Z</time>
      </trkpt>
      <trkpt lat="42.536139000" lon="-2.462612000">
        <ele>577.30</ele>
        <time>2017-02-18T07:01:30Z</time>
      </trkpt>
      <trkpt lat="42.536166000" lon="-2.462626000">
        <ele>577.30</ele>
        <time>2017-02-18T07:01:31Z</time>
      </trkpt>
      <trkpt lat="42.536194000" lon="-2.462636000">
        <ele>577.40</ele>
        <time>2017-02-18T07:01:32Z</time>
      </trkpt>
      <trkpt lat="42.536225000" lon="-2.462644000">
        <ele>577.40</ele>
        <time>2017-02-18T07:01:33Z</time>
      </trkpt>
      <trkpt lat="42.536256000" lon="-2.462662000">
        <ele>577.40</ele>
        <time>2017-02-18T07:01:34Z</time>
      </trkpt>
      <trkpt lat="42.536285000" lon="-2.462678000">
        <ele>577.40</ele>
        <time>2017-02-18T07:01:35Z</time>
      </trkpt>
      <trkpt lat="42.536315000" lon="-2.462692000">
        <ele>577.30</ele>
        <time>2017-02-18T07:01:36Z</time>
      </trkpt>
      <trkpt lat="42.536343000" lon="-2.462706000">
        <ele>577.20</ele>
        <time>2017-02-18T07:01:37Z</time>
      </trkpt>
      <trkpt lat="42.536371000" lon="-2.462721000">
        <ele>577.00</ele>
        <time>2017-02-18T07:01:38Z</time>
      </trkpt>
      <trkpt lat="42.536396000" lon="-2.462737000">
        <ele>576.80</ele>
        <time>2017-02-18T07:01:39Z</time>
      </trkpt>
      <trkpt lat="42.536427000" lon="-2.462753000">
        <ele>576.70</ele>
        <time>2017-02-18T07:01:40Z</time>
      </trkpt>
      <trkpt lat="42.536454000" lon="-2.462773000">
        <ele>576.60</ele>
        <time>2017-02-18T07:01:41Z</time>
      </trkpt>
      <trkpt lat="42.536480000" lon="-2.462795000">
        <ele>576.60</ele>
        <time>2017-02-18T07:01:42Z</time>
      </trkpt>
      <trkpt lat="42.536508000" lon="-2.462819000">
        <ele>576.50</ele>
        <time>2017-02-18T07:01:43Z</time>
      </trkpt>
      <trkpt lat="42.536535000" lon="-2.462842000">
        <ele>576.40</ele>
        <time>2017-02-18T07:01:44Z</time>
      </trkpt>
      <trkpt lat="42.536560000" lon="-2.462872000">
        <ele>576.30</ele>
        <time>2017-02-18T07:01:45Z</time>
      </trkpt>
      <trkpt lat="42.536590000" lon="-2.462907000">
        <ele>576.20</ele>
        <time>2017-02-18T07:01:46Z</time>
      </trkpt>
      <trkpt lat="42.536619000" lon="-2.462942000">
        <ele>576.20</ele>
        <time>2017-02-18T07:01:47Z</time>
      </trkpt>
      <trkpt lat="42.536647000" lon="-2.462979000">
        <ele>576.20</ele>
        <time>2017-02-18T07:01:48Z</time>
      </trkpt>
      <trkpt lat="42.536676000" lon="-2.463018000">
        <ele>576.10</ele>
        <time>2017-02-18T07:01:49Z</time>
      </trkpt>
      <trkpt lat="42.536700000" lon="-2.463057000">
        <ele>576.10</ele>
        <time>2017-02-18T07:01:50Z</time>
      </trkpt>
      <trkpt lat="42.536726000" lon="-2.463092000">
        <ele>576.10</ele>
        <time>2017-02-18T07:01:51Z</time>
      </trkpt>
      <trkpt lat="42.536750000" lon="-2.463126000">
        <ele>576.00</ele>
        <time>2017-02-18T07:01:52Z</time>
      </trkpt>
      <trkpt lat="42.536796000" lon="-2.463194000">
        <ele>575.80</ele>
        <time>2017-02-18T07:01:54Z</time>
      </trkpt>
      <trkpt lat="42.536818000" lon="-2.463228000">
        <ele>575.70</ele>
        <time>2017-02-18T07:01:55Z</time>
      </trkpt>
      <trkpt lat="42.536840000" lon="-2.463264000">
        <ele>575.70</ele>
        <time>2017-02-18T07:01:56Z</time>
      </trkpt>
      <trkpt lat="42.536863000" lon="-2.463297000">
        <ele>575.60</ele>
        <time>2017-02-18T07:01:57Z</time>
      </trkpt>
      <trkpt lat="42.536885000" lon="-2.463332000">
        <ele>575.50</ele>
        <time>2017-02-18T07:01:58Z</time>
      </trkpt>
      <trkpt lat="42.536908000" lon="-2.463363000">
        <ele>575.30</ele>
        <time>2017-02-18T07:01:59Z</time>
      </trkpt>
      <trkpt lat="42.536927000" lon="-2.463403000">
        <ele>575.40</ele>
        <time>2017-02-18T07:02:00Z</time>
      </trkpt>
      <trkpt lat="42.536945000" lon="-2.463441000">
        <ele>575.40</ele>
        <time>2017-02-18T07:02:01Z</time>
      </trkpt>
      <trkpt lat="42.536962000" lon="-2.463480000">
        <ele>575.30</ele>
        <time>2017-02-18T07:02:02Z</time>
      </trkpt>
      <trkpt lat="42.536984000" lon="-2.463507000">
        <ele>575.30</ele>
        <time>2017-02-18T07:02:03Z</time>
      </trkpt>
      <trkpt lat="42.537003000" lon="-2.463534000">
        <ele>575.30</ele>
        <time>2017-02-18T07:02:04Z</time>
      </trkpt>
      <trkpt lat="42.537020000" lon="-2.463559000">
        <ele>575.20</ele>
        <time>2017-02-18T07:02:05Z</time>
      </trkpt>
      <trkpt lat="42.537040000" lon="-2.463588000">
        <ele>575.20</ele>
        <time>2017-02-18T07:02:06Z</time>
      </trkpt>
      <trkpt lat="42.537058000" lon="-2.463613000">
        <ele>575.20</ele>
        <time>2017-02-18T07:02:07Z</time>
      </trkpt>
      <trkpt lat="42.537074000" lon="-2.463642000">
        <ele>575.20</ele>
        <time>2017-02-18T07:02:08Z</time>
      </trkpt>
      <trkpt lat="42.537092000" lon="-2.463674000">
        <ele>575.20</ele>
        <time>2017-02-18T07:02:09Z</time>
      </trkpt>
      <trkpt lat="42.537113000" lon="-2.463699000">
        <ele>575.10</ele>
        <time>2017-02-18T07:02:10Z</time>
      </trkpt>
      <trkpt lat="42.537134000" lon="-2.463727000">
        <ele>575.10</ele>
        <time>2017-02-18T07:02:11Z</time>
      </trkpt>
      <trkpt lat="42.537156000" lon="-2.463758000">
        <ele>575.00</ele>
        <time>2017-02-18T07:02:12Z</time>
      </trkpt>
      <trkpt lat="42.537174000" lon="-2.463787000">
        <ele>575.00</ele>
        <time>2017-02-18T07:02:13Z</time>
      </trkpt>
      <trkpt lat="42.537193000" lon="-2.463813000">
        <ele>574.90</ele>
        <time>2017-02-18T07:02:14Z</time>
      </trkpt>
      <trkpt lat="42.537209000" lon="-2.463840000">
        <ele>574.90</ele>
        <time>2017-02-18T07:02:15Z</time>
      </trkpt>
      <trkpt lat="42.537226000" lon="-2.463868000">
        <ele>574.80</ele>
        <time>2017-02-18T07:02:16Z</time>
      </trkpt>
      <trkpt lat="42.537244000" lon="-2.463897000">
        <ele>574.70</ele>
        <time>2017-02-18T07:02:17Z</time>
      </trkpt>
      <trkpt lat="42.537264000" lon="-2.463924000">
        <ele>574.70</ele>
        <time>2017-02-18T07:02:18Z</time>
      </trkpt>
      <trkpt lat="42.537283000" lon="-2.463957000">
        <ele>574.60</ele>
        <time>2017-02-18T07:02:19Z</time>
      </trkpt>
      <trkpt lat="42.537302000" lon="-2.463981000">
        <ele>574.60</ele>
        <time>2017-02-18T07:02:20Z</time>
      </trkpt>
      <trkpt lat="42.537321000" lon="-2.464008000">
        <ele>574.60</ele>
        <time>2017-02-18T07:02:21Z</time>
      </trkpt>
      <trkpt lat="42.537339000" lon="-2.464033000">
        <ele>574.70</ele>
        <time>2017-02-18T07:02:22Z</time>
      </trkpt>
      <trkpt lat="42.537356000" lon="-2.464059000">
        <ele>574.80</ele>
        <time>2017-02-18T07:02:23Z</time>
      </trkpt>
      <trkpt lat="42.537374000" lon="-2.464086000">
        <ele>574.80</ele>
        <time>2017-02-18T07:02:24Z</time>
      </trkpt>
      <trkpt lat="42.537392000" lon="-2.464119000">
        <ele>574.80</ele>
        <time>2017-02-18T07:02:25Z</time>
      </trkpt>
      <trkpt lat="42.537406000" lon="-2.464152000">
        <ele>574.80</ele>
        <time>2017-02-18T07:02:26Z</time>
      </trkpt>
      <trkpt lat="42.537423000" lon="-2.464176000">
        <ele>574.80</ele>
        <time>2017-02-18T07:02:27Z</time>
      </trkpt>
      <trkpt lat="42.537438000" lon="-2.464209000">
        <ele>574.70</ele>
        <time>2017-02-18T07:02:28Z</time>
      </trkpt>
      <trkpt lat="42.537451000" lon="-2.464242000">
        <ele>574.70</ele>
        <time>2017-02-18T07:02:29Z</time>
      </trkpt>
      <trkpt lat="42.537468000" lon="-2.464271000">
        <ele>574.60</ele>
        <time>2017-02-18T07:02:30Z</time>
      </trkpt>
      <trkpt lat="42.537488000" lon="-2.464297000">
        <ele>574.60</ele>
        <time>2017-02-18T07:02:31Z</time>
      </trkpt>
      <trkpt lat="42.537507000" lon="-2.464328000">
        <ele>574.50</ele>
        <time>2017-02-18T07:02:32Z</time>
      </trkpt>
      <trkpt lat="42.537527000" lon="-2.464355000">
        <ele>574.50</ele>
        <time>2017-02-18T07:02:33Z</time>
      </trkpt>
      <trkpt lat="42.537549000" lon="-2.464379000">
        <ele>574.40</ele>
        <time>2017-02-18T07:02:34Z</time>
      </trkpt>
      <trkpt lat="42.537569000" lon="-2.464409000">
        <ele>574.40</ele>
        <time>2017-02-18T07:02:35Z</time>
      </trkpt>
      <trkpt lat="42.537591000" lon="-2.464433000">
        <ele>574.40</ele>
        <time>2017-02-18T07:02:36Z</time>
      </trkpt>
      <trkpt lat="42.537611000" lon="-2.464460000">
        <ele>574.30</ele>
        <time>2017-02-18T07:02:37Z</time>
      </trkpt>
      <trkpt lat="42.537629000" lon="-2.464494000">
        <ele>574.30</ele>
        <time>2017-02-18T07:02:38Z</time>
      </trkpt>
      <trkpt lat="42.537645000" lon="-2.464526000">
        <ele>574.30</ele>
        <time>2017-02-18T07:02:39Z</time>
      </trkpt>
      <trkpt lat="42.537663000" lon="-2.464560000">
        <ele>574.40</ele>
        <time>2017-02-18T07:02:40Z</time>
      </trkpt>
      <trkpt lat="42.537679000" lon="-2.464592000">
        <ele>574.40</ele>
        <time>2017-02-18T07:02:41Z</time>
      </trkpt>
      <trkpt lat="42.537701000" lon="-2.464624000">
        <ele>574.40</ele>
        <time>2017-02-18T07:02:42Z</time>
      </trkpt>
      <trkpt lat="42.537723000" lon="-2.464655000">
        <ele>574.40</ele>
        <time>2017-02-18T07:02:43Z</time>
      </trkpt>
      <trkpt lat="42.537744000" lon="-2.464684000">
        <ele>574.50</ele>
        <time>2017-02-18T07:02:44Z</time>
      </trkpt>
      <trkpt lat="42.537765000" lon="-2.464715000">
        <ele>574.60</ele>
        <time>2017-02-18T07:02:45Z</time>
      </trkpt>
      <trkpt lat="42.537784000" lon="-2.464743000">
        <ele>574.60</ele>
        <time>2017-02-18T07:02:46Z</time>
      </trkpt>
      <trkpt lat="42.537800000" lon="-2.464773000">
        <ele>574.70</ele>
        <time>2017-02-18T07:02:47Z</time>
      </trkpt>
      <trkpt lat="42.537819000" lon="-2.464802000">
        <ele>574.70</ele>
        <time>2017-02-18T07:02:48Z</time>
      </trkpt>
      <trkpt lat="42.537835000" lon="-2.464829000">
        <ele>574.70</ele>
        <time>2017-02-18T07:02:49Z</time>
      </trkpt>
      <trkpt lat="42.537856000" lon="-2.464860000">
        <ele>574.60</ele>
        <time>2017-02-18T07:02:50Z</time>
      </trkpt>
      <trkpt lat="42.537878000" lon="-2.464887000">
        <ele>574.60</ele>
        <time>2017-02-18T07:02:51Z</time>
      </trkpt>
      <trkpt lat="42.537899000" lon="-2.464916000">
        <ele>574.60</ele>
        <time>2017-02-18T07:02:52Z</time>
      </trkpt>
      <trkpt lat="42.537919000" lon="-2.464945000">
        <ele>574.60</ele>
        <time>2017-02-18T07:02:53Z</time>
      </trkpt>
      <trkpt lat="42.537957000" lon="-2.465005000">
        <ele>574.70</ele>
        <time>2017-02-18T07:02:55Z</time>
      </trkpt>
      <trkpt lat="42.537974000" lon="-2.465032000">
        <ele>574.90</ele>
        <time>2017-02-18T07:02:56Z</time>
      </trkpt>
      <trkpt lat="42.537993000" lon="-2.465064000">
        <ele>575.10</ele>
        <time>2017-02-18T07:02:57Z</time>
      </trkpt>
      <trkpt lat="42.538012000" lon="-2.465092000">
        <ele>575.20</ele>
        <time>2017-02-18T07:02:58Z</time>
      </trkpt>
      <trkpt lat="42.538032000" lon="-2.465123000">
        <ele>575.30</ele>
        <time>2017-02-18T07:02:59Z</time>
      </trkpt>
      <trkpt lat="42.538050000" lon="-2.465153000">
        <ele>575.30</ele>
        <time>2017-02-18T07:03:00Z</time>
      </trkpt>
      <trkpt lat="42.538070000" lon="-2.465180000">
        <ele>575.40</ele>
        <time>2017-02-18T07:03:01Z</time>
      </trkpt>
      <trkpt lat="42.538087000" lon="-2.465211000">
        <ele>575.30</ele>
        <time>2017-02-18T07:03:02Z</time>
      </trkpt>
      <trkpt lat="42.538103000" lon="-2.465240000">
        <ele>575.30</ele>
        <time>2017-02-18T07:03:03Z</time>
      </trkpt>
      <trkpt lat="42.538118000" lon="-2.465267000">
        <ele>575.30</ele>
        <time>2017-02-18T07:03:04Z</time>
      </trkpt>
      <trkpt lat="42.538141000" lon="-2.465298000">
        <ele>575.20</ele>
        <time>2017-02-18T07:03:05Z</time>
      </trkpt>
      <trkpt lat="42.538161000" lon="-2.465328000">
        <ele>575.30</ele>
        <time>2017-02-18T07:03:06Z</time>
      </trkpt>
      <trkpt lat="42.538182000" lon="-2.465362000">
        <ele>575.30</ele>
        <time>2017-02-18T07:03:07Z</time>
      </trkpt>
      <trkpt lat="42.538200000" lon="-2.465392000">
        <ele>575.40</ele>
        <time>2017-02-18T07:03:08Z</time>
      </trkpt>
      <trkpt lat="42.538221000" lon="-2.465425000">
        <ele>575.40</ele>
        <time>2017-02-18T07:03:09Z</time>
      </trkpt>
      <trkpt lat="42.538243000" lon="-2.465456000">
        <ele>575.60</ele>
        <time>2017-02-18T07:03:10Z</time>
      </trkpt>
      <trkpt lat="42.538264000" lon="-2.465486000">
        <ele>575.70</ele>
        <time>2017-02-18T07:03:11Z</time>
      </trkpt>
      <trkpt lat="42.538287000" lon="-2.465513000">
        <ele>575.80</ele>
        <time>2017-02-18T07:03:12Z</time>
      </trkpt>
      <trkpt lat="42.538309000" lon="-2.465543000">
        <ele>575.80</ele>
        <time>2017-02-18T07:03:13Z</time>
      </trkpt>
      <trkpt lat="42.538334000" lon="-2.465577000">
        <ele>575.70</ele>
        <time>2017-02-18T07:03:14Z</time>
      </trkpt>
      <trkpt lat="42.538358000" lon="-2.465607000">
        <ele>575.70</ele>
        <time>2017-02-18T07:03:15Z</time>
      </trkpt>
      <trkpt lat="42.538376000" lon="-2.465637000">
        <ele>575.60</ele>
        <time>2017-02-18T07:03:16Z</time>
      </trkpt>
      <trkpt lat="42.538395000" lon="-2.465671000">
        <ele>575.50</ele>
        <time>2017-02-18T07:03:17Z</time>
      </trkpt>
      <trkpt lat="42.538415000" lon="-2.465704000">
        <ele>575.40</ele>
        <time>2017-02-18T07:03:18Z</time>
      </trkpt>
      <trkpt lat="42.538437000" lon="-2.465737000">
        <ele>575.30</ele>
        <time>2017-02-18T07:03:19Z</time>
      </trkpt>
      <trkpt lat="42.538458000" lon="-2.465766000">
        <ele>575.40</ele>
        <time>2017-02-18T07:03:20Z</time>
      </trkpt>
      <trkpt lat="42.538477000" lon="-2.465798000">
        <ele>575.50</ele>
        <time>2017-02-18T07:03:21Z</time>
      </trkpt>
      <trkpt lat="42.538498000" lon="-2.465829000">
        <ele>575.60</ele>
        <time>2017-02-18T07:03:22Z</time>
      </trkpt>
      <trkpt lat="42.538519000" lon="-2.465857000">
        <ele>575.70</ele>
        <time>2017-02-18T07:03:23Z</time>
      </trkpt>
      <trkpt lat="42.538539000" lon="-2.465891000">
        <ele>575.70</ele>
        <time>2017-02-18T07:03:24Z</time>
      </trkpt>
      <trkpt lat="42.538558000" lon="-2.465924000">
        <ele>575.70</ele>
        <time>2017-02-18T07:03:25Z</time>
      </trkpt>
      <trkpt lat="42.538580000" lon="-2.465953000">
        <ele>575.80</ele>
        <time>2017-02-18T07:03:26Z</time>
      </trkpt>
      <trkpt lat="42.538603000" lon="-2.465982000">
        <ele>575.90</ele>
        <time>2017-02-18T07:03:27Z</time>
      </trkpt>
      <trkpt lat="42.538622000" lon="-2.466013000">
        <ele>575.90</ele>
        <time>2017-02-18T07:03:28Z</time>
      </trkpt>
      <trkpt lat="42.538643000" lon="-2.466047000">
        <ele>575.90</ele>
        <time>2017-02-18T07:03:29Z</time>
      </trkpt>
      <trkpt lat="42.538661000" lon="-2.466077000">
        <ele>575.90</ele>
        <time>2017-02-18T07:03:30Z</time>
      </trkpt>
      <trkpt lat="42.538680000" lon="-2.466109000">
        <ele>575.80</ele>
        <time>2017-02-18T07:03:31Z</time>
      </trkpt>
      <trkpt lat="42.538701000" lon="-2.466141000">
        <ele>575.80</ele>
        <time>2017-02-18T07:03:32Z</time>
      </trkpt>
      <trkpt lat="42.538722000" lon="-2.466171000">
        <ele>575.80</ele>
        <time>2017-02-18T07:03:33Z</time>
      </trkpt>
      <trkpt lat="42.538743000" lon="-2.466204000">
        <ele>575.70</ele>
        <time>2017-02-18T07:03:34Z</time>
      </trkpt>
      <trkpt lat="42.538763000" lon="-2.466234000">
        <ele>575.70</ele>
        <time>2017-02-18T07:03:35Z</time>
      </trkpt>
      <trkpt lat="42.538780000" lon="-2.466259000">
        <ele>575.80</ele>
        <time>2017-02-18T07:03:36Z</time>
      </trkpt>
      <trkpt lat="42.538800000" lon="-2.466291000">
        <ele>575.80</ele>
        <time>2017-02-18T07:03:37Z</time>
      </trkpt>
      <trkpt lat="42.538817000" lon="-2.466324000">
        <ele>575.90</ele>
        <time>2017-02-18T07:03:38Z</time>
      </trkpt>
      <trkpt lat="42.538836000" lon="-2.466355000">
        <ele>575.90</ele>
        <time>2017-02-18T07:03:39Z</time>
      </trkpt>
      <trkpt lat="42.538853000" lon="-2.466385000">
        <ele>576.00</ele>
        <time>2017-02-18T07:03:40Z</time>
      </trkpt>
      <trkpt lat="42.538872000" lon="-2.466412000">
        <ele>576.00</ele>
        <time>2017-02-18T07:03:41Z</time>
      </trkpt>
      <trkpt lat="42.538889000" lon="-2.466440000">
        <ele>576.00</ele>
        <time>2017-02-18T07:03:42Z</time>
      </trkpt>
      <trkpt lat="42.538904000" lon="-2.466469000">
        <ele>576.00</ele>
        <time>2017-02-18T07:03:43Z</time>
      </trkpt>
      <trkpt lat="42.538921000" lon="-2.466496000">
        <ele>576.00</ele>
        <time>2017-02-18T07:03:44Z</time>
      </trkpt>
      <trkpt lat="42.538939000" lon="-2.466519000">
        <ele>575.90</ele>
        <time>2017-02-18T07:03:45Z</time>
      </trkpt>
      <trkpt lat="42.538957000" lon="-2.466542000">
        <ele>575.90</ele>
        <time>2017-02-18T07:03:46Z</time>
      </trkpt>
      <trkpt lat="42.538971000" lon="-2.466567000">
        <ele>575.80</ele>
        <time>2017-02-18T07:03:47Z</time>
      </trkpt>
      <trkpt lat="42.538990000" lon="-2.466594000">
        <ele>575.80</ele>
        <time>2017-02-18T07:03:48Z</time>
      </trkpt>
      <trkpt lat="42.539005000" lon="-2.466613000">
        <ele>575.70</ele>
        <time>2017-02-18T07:03:49Z</time>
      </trkpt>
      <trkpt lat="42.539024000" lon="-2.466637000">
        <ele>576.20</ele>
        <time>2017-02-18T07:03:50Z</time>
      </trkpt>
      <trkpt lat="42.539042000" lon="-2.466661000">
        <ele>576.50</ele>
        <time>2017-02-18T07:03:51Z</time>
      </trkpt>
      <trkpt lat="42.539060000" lon="-2.466686000">
        <ele>576.80</ele>
        <time>2017-02-18T07:03:52Z</time>
      </trkpt>
      <trkpt lat="42.539077000" lon="-2.466711000">
        <ele>577.10</ele>
        <time>2017-02-18T07:03:53Z</time>
      </trkpt>
      <trkpt lat="42.539094000" lon="-2.466735000">
        <ele>577.30</ele>
        <time>2017-02-18T07:03:54Z</time>
      </trkpt>
      <trkpt lat="42.539132000" lon="-2.466781000">
        <ele>577.60</ele>
        <time>2017-02-18T07:03:56Z</time>
      </trkpt>
      <trkpt lat="42.539147000" lon="-2.466811000">
        <ele>577.60</ele>
        <time>2017-02-18T07:03:57Z</time>
      </trkpt>
      <trkpt lat="42.539165000" lon="-2.466836000">
        <ele>577.90</ele>
        <time>2017-02-18T07:03:58Z</time>
      </trkpt>
      <trkpt lat="42.539183000" lon="-2.466861000">
        <ele>578.00</ele>
        <time>2017-02-18T07:03:59Z</time>
      </trkpt>
      <trkpt lat="42.539201000" lon="-2.466884000">
        <ele>578.10</ele>
        <time>2017-02-18T07:04:00Z</time>
      </trkpt>
      <trkpt lat="42.539221000" lon="-2.466906000">
        <ele>578.20</ele>
        <time>2017-02-18T07:04:01Z</time>
      </trkpt>
      <trkpt lat="42.539240000" lon="-2.466934000">
        <ele>578.20</ele>
        <time>2017-02-18T07:04:02Z</time>
      </trkpt>
      <trkpt lat="42.539256000" lon="-2.466962000">
        <ele>578.20</ele>
        <time>2017-02-18T07:04:03Z</time>
      </trkpt>
      <trkpt lat="42.539275000" lon="-2.466985000">
        <ele>578.20</ele>
        <time>2017-02-18T07:04:04Z</time>
      </trkpt>
      <trkpt lat="42.539294000" lon="-2.467009000">
        <ele>578.20</ele>
        <time>2017-02-18T07:04:05Z</time>
      </trkpt>
      <trkpt lat="42.539312000" lon="-2.467032000">
        <ele>578.20</ele>
        <time>2017-02-18T07:04:06Z</time>
      </trkpt>
      <trkpt lat="42.539335000" lon="-2.467056000">
        <ele>578.20</ele>
        <time>2017-02-18T07:04:07Z</time>
      </trkpt>
      <trkpt lat="42.539355000" lon="-2.467076000">
        <ele>578.10</ele>
        <time>2017-02-18T07:04:08Z</time>
      </trkpt>
      <trkpt lat="42.539375000" lon="-2.467096000">
        <ele>578.10</ele>
        <time>2017-02-18T07:04:09Z</time>
      </trkpt>
      <trkpt lat="42.539394000" lon="-2.467115000">
        <ele>578.10</ele>
        <time>2017-02-18T07:04:10Z</time>
      </trkpt>
      <trkpt lat="42.539414000" lon="-2.467135000">
        <ele>578.10</ele>
        <time>2017-02-18T07:04:11Z</time>
      </trkpt>
      <trkpt lat="42.539434000" lon="-2.467154000">
        <ele>578.40</ele>
        <time>2017-02-18T07:04:12Z</time>
      </trkpt>
      <trkpt lat="42.539450000" lon="-2.467169000">
        <ele>578.60</ele>
        <time>2017-02-18T07:04:13Z</time>
      </trkpt>
      <trkpt lat="42.539469000" lon="-2.467188000">
        <ele>578.80</ele>
        <time>2017-02-18T07:04:14Z</time>
      </trkpt>
      <trkpt lat="42.539489000" lon="-2.467207000">
        <ele>578.90</ele>
        <time>2017-02-18T07:04:15Z</time>
      </trkpt>
      <trkpt lat="42.539510000" lon="-2.467222000">
        <ele>579.20</ele>
        <time>2017-02-18T07:04:16Z</time>
      </trkpt>
      <trkpt lat="42.539528000" lon="-2.467242000">
        <ele>579.40</ele>
        <time>2017-02-18T07:04:17Z</time>
      </trkpt>
      <trkpt lat="42.539550000" lon="-2.467255000">
        <ele>579.50</ele>
        <time>2017-02-18T07:04:18Z</time>
      </trkpt>
      <trkpt lat="42.539571000" lon="-2.467275000">
        <ele>579.60</ele>
        <time>2017-02-18T07:04:19Z</time>
      </trkpt>
      <trkpt lat="42.539591000" lon="-2.467294000">
        <ele>579.80</ele>
        <time>2017-02-18T07:04:20Z</time>
      </trkpt>
      <trkpt lat="42.539608000" lon="-2.467311000">
        <ele>580.00</ele>
        <time>2017-02-18T07:04:21Z</time>
      </trkpt>
      <trkpt lat="42.539627000" lon="-2.467331000">
        <ele>580.10</ele>
        <time>2017-02-18T07:04:22Z</time>
      </trkpt>
      <trkpt lat="42.539644000" lon="-2.467353000">
        <ele>580.10</ele>
        <time>2017-02-18T07:04:23Z</time>
      </trkpt>
      <trkpt lat="42.539667000" lon="-2.467372000">
        <ele>580.20</ele>
        <time>2017-02-18T07:04:24Z</time>
      </trkpt>
      <trkpt lat="42.539685000" lon="-2.467390000">
        <ele>580.20</ele>
        <time>2017-02-18T07:04:25Z</time>
      </trkpt>
      <trkpt lat="42.539702000" lon="-2.467413000">
        <ele>580.60</ele>
        <time>2017-02-18T07:04:26Z</time>
      </trkpt>
      <trkpt lat="42.539720000" lon="-2.467436000">
        <ele>580.80</ele>
        <time>2017-02-18T07:04:27Z</time>
      </trkpt>
      <trkpt lat="42.539740000" lon="-2.467451000">
        <ele>581.00</ele>
        <time>2017-02-18T07:04:28Z</time>
      </trkpt>
      <trkpt lat="42.539759000" lon="-2.467467000">
        <ele>581.20</ele>
        <time>2017-02-18T07:04:29Z</time>
      </trkpt>
      <trkpt lat="42.539778000" lon="-2.467486000">
        <ele>581.50</ele>
        <time>2017-02-18T07:04:30Z</time>
      </trkpt>
      <trkpt lat="42.539798000" lon="-2.467508000">
        <ele>581.80</ele>
        <time>2017-02-18T07:04:31Z</time>
      </trkpt>
      <trkpt lat="42.539817000" lon="-2.467528000">
        <ele>582.00</ele>
        <time>2017-02-18T07:04:32Z</time>
      </trkpt>
      <trkpt lat="42.539836000" lon="-2.467540000">
        <ele>582.10</ele>
        <time>2017-02-18T07:04:33Z</time>
      </trkpt>
      <trkpt lat="42.539852000" lon="-2.467556000">
        <ele>582.40</ele>
        <time>2017-02-18T07:04:34Z</time>
      </trkpt>
      <trkpt lat="42.539870000" lon="-2.467576000">
        <ele>582.60</ele>
        <time>2017-02-18T07:04:35Z</time>
      </trkpt>
      <trkpt lat="42.539890000" lon="-2.467599000">
        <ele>582.80</ele>
        <time>2017-02-18T07:04:36Z</time>
      </trkpt>
      <trkpt lat="42.539908000" lon="-2.467613000">
        <ele>582.90</ele>
        <time>2017-02-18T07:04:37Z</time>
      </trkpt>
      <trkpt lat="42.539927000" lon="-2.467631000">
        <ele>583.00</ele>
        <time>2017-02-18T07:04:38Z</time>
      </trkpt>
      <trkpt lat="42.539943000" lon="-2.467649000">
        <ele>583.20</ele>
        <time>2017-02-18T07:04:39Z</time>
      </trkpt>
      <trkpt lat="42.539963000" lon="-2.467663000">
        <ele>583.60</ele>
        <time>2017-02-18T07:04:40Z</time>
      </trkpt>
      <trkpt lat="42.539981000" lon="-2.467686000">
        <ele>583.90</ele>
        <time>2017-02-18T07:04:41Z</time>
      </trkpt>
      <trkpt lat="42.539997000" lon="-2.467705000">
        <ele>584.20</ele>
        <time>2017-02-18T07:04:42Z</time>
      </trkpt>
      <trkpt lat="42.540012000" lon="-2.467723000">
        <ele>584.40</ele>
        <time>2017-02-18T07:04:43Z</time>
      </trkpt>
      <trkpt lat="42.540030000" lon="-2.467742000">
        <ele>584.60</ele>
        <time>2017-02-18T07:04:44Z</time>
      </trkpt>
      <trkpt lat="42.540047000" lon="-2.467759000">
        <ele>584.70</ele>
        <time>2017-02-18T07:04:45Z</time>
      </trkpt>
      <trkpt lat="42.540064000" lon="-2.467777000">
        <ele>584.90</ele>
        <time>2017-02-18T07:04:46Z</time>
      </trkpt>
      <trkpt lat="42.540083000" lon="-2.467793000">
        <ele>585.00</ele>
        <time>2017-02-18T07:04:47Z</time>
      </trkpt>
      <trkpt lat="42.540100000" lon="-2.467813000">
        <ele>585.10</ele>
        <time>2017-02-18T07:04:48Z</time>
      </trkpt>
      <trkpt lat="42.540121000" lon="-2.467828000">
        <ele>585.20</ele>
        <time>2017-02-18T07:04:49Z</time>
      </trkpt>
      <trkpt lat="42.540143000" lon="-2.467845000">
        <ele>585.20</ele>
        <time>2017-02-18T07:04:50Z</time>
      </trkpt>
      <trkpt lat="42.540163000" lon="-2.467863000">
        <ele>585.20</ele>
        <time>2017-02-18T07:04:51Z</time>
      </trkpt>
      <trkpt lat="42.540178000" lon="-2.467883000">
        <ele>585.50</ele>
        <time>2017-02-18T07:04:52Z</time>
      </trkpt>
      <trkpt lat="42.540196000" lon="-2.467906000">
        <ele>585.70</ele>
        <time>2017-02-18T07:04:53Z</time>
      </trkpt>
      <trkpt lat="42.540215000" lon="-2.467923000">
        <ele>586.00</ele>
        <time>2017-02-18T07:04:54Z</time>
      </trkpt>
      <trkpt lat="42.540232000" lon="-2.467941000">
        <ele>586.20</ele>
        <time>2017-02-18T07:04:55Z</time>
      </trkpt>
      <trkpt lat="42.540267000" lon="-2.467974000">
        <ele>586.50</ele>
        <time>2017-02-18T07:04:57Z</time>
      </trkpt>
      <trkpt lat="42.540283000" lon="-2.467989000">
        <ele>586.70</ele>
        <time>2017-02-18T07:04:58Z</time>
      </trkpt>
      <trkpt lat="42.540303000" lon="-2.468003000">
        <ele>586.80</ele>
        <time>2017-02-18T07:04:59Z</time>
      </trkpt>
      <trkpt lat="42.540323000" lon="-2.468021000">
        <ele>587.00</ele>
        <time>2017-02-18T07:05:00Z</time>
      </trkpt>
      <trkpt lat="42.540341000" lon="-2.468038000">
        <ele>587.10</ele>
        <time>2017-02-18T07:05:01Z</time>
      </trkpt>
      <trkpt lat="42.540362000" lon="-2.468051000">
        <ele>587.30</ele>
        <time>2017-02-18T07:05:02Z</time>
      </trkpt>
      <trkpt lat="42.540381000" lon="-2.468071000">
        <ele>587.50</ele>
        <time>2017-02-18T07:05:03Z</time>
      </trkpt>
      <trkpt lat="42.540396000" lon="-2.468089000">
        <ele>587.90</ele>
        <time>2017-02-18T07:05:04Z</time>
      </trkpt>
      <trkpt lat="42.540418000" lon="-2.468105000">
        <ele>588.20</ele>
        <time>2017-02-18T07:05:05Z</time>
      </trkpt>
      <trkpt lat="42.540438000" lon="-2.468117000">
        <ele>588.40</ele>
        <time>2017-02-18T07:05:06Z</time>
      </trkpt>
      <trkpt lat="42.540455000" lon="-2.468131000">
        <ele>588.50</ele>
        <time>2017-02-18T07:05:07Z</time>
      </trkpt>
      <trkpt lat="42.540476000" lon="-2.468142000">
        <ele>588.70</ele>
        <time>2017-02-18T07:05:08Z</time>
      </trkpt>
      <trkpt lat="42.540494000" lon="-2.468155000">
        <ele>588.80</ele>
        <time>2017-02-18T07:05:09Z</time>
      </trkpt>
      <trkpt lat="42.540513000" lon="-2.468169000">
        <ele>589.00</ele>
        <time>2017-02-18T07:05:10Z</time>
      </trkpt>
      <trkpt lat="42.540530000" lon="-2.468185000">
        <ele>589.20</ele>
        <time>2017-02-18T07:05:11Z</time>
      </trkpt>
      <trkpt lat="42.540551000" lon="-2.468197000">
        <ele>589.50</ele>
        <time>2017-02-18T07:05:12Z</time>
      </trkpt>
      <trkpt lat="42.540570000" lon="-2.468208000">
        <ele>589.70</ele>
        <time>2017-02-18T07:05:13Z</time>
      </trkpt>
      <trkpt lat="42.540591000" lon="-2.468222000">
        <ele>589.90</ele>
        <time>2017-02-18T07:05:14Z</time>
      </trkpt>
      <trkpt lat="42.540614000" lon="-2.468239000">
        <ele>590.00</ele>
        <time>2017-02-18T07:05:15Z</time>
      </trkpt>
      <trkpt lat="42.540631000" lon="-2.468257000">
        <ele>590.30</ele>
        <time>2017-02-18T07:05:16Z</time>
      </trkpt>
      <trkpt lat="42.540647000" lon="-2.468271000">
        <ele>590.50</ele>
        <time>2017-02-18T07:05:17Z</time>
      </trkpt>
      <trkpt lat="42.540665000" lon="-2.468283000">
        <ele>590.70</ele>
        <time>2017-02-18T07:05:18Z</time>
      </trkpt>
      <trkpt lat="42.540681000" lon="-2.468296000">
        <ele>590.90</ele>
        <time>2017-02-18T07:05:19Z</time>
      </trkpt>
      <trkpt lat="42.540701000" lon="-2.468307000">
        <ele>591.10</ele>
        <time>2017-02-18T07:05:20Z</time>
      </trkpt>
      <trkpt lat="42.540720000" lon="-2.468315000">
        <ele>591.20</ele>
        <time>2017-02-18T07:05:21Z</time>
      </trkpt>
      <trkpt lat="42.540740000" lon="-2.468326000">
        <ele>591.40</ele>
        <time>2017-02-18T07:05:22Z</time>
      </trkpt>
      <trkpt lat="42.540762000" lon="-2.468332000">
        <ele>591.50</ele>
        <time>2017-02-18T07:05:23Z</time>
      </trkpt>
      <trkpt lat="42.540782000" lon="-2.468339000">
        <ele>591.70</ele>
        <time>2017-02-18T07:05:24Z</time>
      </trkpt>
      <trkpt lat="42.540801000" lon="-2.468351000">
        <ele>591.90</ele>
        <time>2017-02-18T07:05:25Z</time>
      </trkpt>
      <trkpt lat="42.540820000" lon="-2.468361000">
        <ele>592.10</ele>
        <time>2017-02-18T07:05:26Z</time>
      </trkpt>
      <trkpt lat="42.540838000" lon="-2.468371000">
        <ele>592.20</ele>
        <time>2017-02-18T07:05:27Z</time>
      </trkpt>
      <trkpt lat="42.540859000" lon="-2.468378000">
        <ele>592.50</ele>
        <time>2017-02-18T07:05:28Z</time>
      </trkpt>
      <trkpt lat="42.540880000" lon="-2.468383000">
        <ele>592.70</ele>
        <time>2017-02-18T07:05:29Z</time>
      </trkpt>
      <trkpt lat="42.540900000" lon="-2.468393000">
        <ele>593.10</ele>
        <time>2017-02-18T07:05:30Z</time>
      </trkpt>
      <trkpt lat="42.540917000" lon="-2.468403000">
        <ele>593.30</ele>
        <time>2017-02-18T07:05:31Z</time>
      </trkpt>
      <trkpt lat="42.540932000" lon="-2.468415000">
        <ele>593.60</ele>
        <time>2017-02-18T07:05:32Z</time>
      </trkpt>
      <trkpt lat="42.540949000" lon="-2.468425000">
        <ele>593.80</ele>
        <time>2017-02-18T07:05:33Z</time>
      </trkpt>
      <trkpt lat="42.540967000" lon="-2.468437000">
        <ele>594.20</ele>
        <time>2017-02-18T07:05:34Z</time>
      </trkpt>
      <trkpt lat="42.540987000" lon="-2.468443000">
        <ele>594.50</ele>
        <time>2017-02-18T07:05:35Z</time>
      </trkpt>
      <trkpt lat="42.541007000" lon="-2.468451000">
        <ele>594.90</ele>
        <time>2017-02-18T07:05:36Z</time>
      </trkpt>
      <trkpt lat="42.541025000" lon="-2.468465000">
        <ele>595.20</ele>
        <time>2017-02-18T07:05:37Z</time>
      </trkpt>
      <trkpt lat="42.541044000" lon="-2.468476000">
        <ele>595.50</ele>
        <time>2017-02-18T07:05:38Z</time>
      </trkpt>
      <trkpt lat="42.541061000" lon="-2.468487000">
        <ele>595.70</ele>
        <time>2017-02-18T07:05:39Z</time>
      </trkpt>
      <trkpt lat="42.541079000" lon="-2.468497000">
        <ele>595.80</ele>
        <time>2017-02-18T07:05:40Z</time>
      </trkpt>
      <trkpt lat="42.541100000" lon="-2.468503000">
        <ele>596.00</ele>
        <time>2017-02-18T07:05:41Z</time>
      </trkpt>
      <trkpt lat="42.541120000" lon="-2.468516000">
        <ele>596.00</ele>
        <time>2017-02-18T07:05:42Z</time>
      </trkpt>
      <trkpt lat="42.541140000" lon="-2.468531000">
        <ele>596.10</ele>
        <time>2017-02-18T07:05:43Z</time>
      </trkpt>
      <trkpt lat="42.541159000" lon="-2.468539000">
        <ele>596.20</ele>
        <time>2017-02-18T07:05:44Z</time>
      </trkpt>
      <trkpt lat="42.541181000" lon="-2.468548000">
        <ele>596.20</ele>
        <time>2017-02-18T07:05:45Z</time>
      </trkpt>
      <trkpt lat="42.541201000" lon="-2.468561000">
        <ele>596.50</ele>
        <time>2017-02-18T07:05:46Z</time>
      </trkpt>
      <trkpt lat="42.541222000" lon="-2.468569000">
        <ele>596.70</ele>
        <time>2017-02-18T07:05:47Z</time>
      </trkpt>
      <trkpt lat="42.541238000" lon="-2.468583000">
        <ele>597.00</ele>
        <time>2017-02-18T07:05:48Z</time>
      </trkpt>
      <trkpt lat="42.541252000" lon="-2.468595000">
        <ele>597.20</ele>
        <time>2017-02-18T07:05:49Z</time>
      </trkpt>
      <trkpt lat="42.541270000" lon="-2.468604000">
        <ele>597.30</ele>
        <time>2017-02-18T07:05:50Z</time>
      </trkpt>
      <trkpt lat="42.541290000" lon="-2.468621000">
        <ele>597.40</ele>
        <time>2017-02-18T07:05:51Z</time>
      </trkpt>
      <trkpt lat="42.541308000" lon="-2.468636000">
        <ele>597.60</ele>
        <time>2017-02-18T07:05:52Z</time>
      </trkpt>
      <trkpt lat="42.541326000" lon="-2.468649000">
        <ele>597.70</ele>
        <time>2017-02-18T07:05:53Z</time>
      </trkpt>
      <trkpt lat="42.541347000" lon="-2.468659000">
        <ele>597.80</ele>
        <time>2017-02-18T07:05:54Z</time>
      </trkpt>
      <trkpt lat="42.541365000" lon="-2.468665000">
        <ele>598.00</ele>
        <time>2017-02-18T07:05:55Z</time>
      </trkpt>
      <trkpt lat="42.541388000" lon="-2.468677000">
        <ele>598.10</ele>
        <time>2017-02-18T07:05:56Z</time>
      </trkpt>
      <trkpt lat="42.541430000" lon="-2.468696000">
        <ele>598.40</ele>
        <time>2017-02-18T07:05:58Z</time>
      </trkpt>
      <trkpt lat="42.541452000" lon="-2.468704000">
        <ele>598.50</ele>
        <time>2017-02-18T07:05:59Z</time>
      </trkpt>
      <trkpt lat="42.541472000" lon="-2.468713000">
        <ele>598.70</ele>
        <time>2017-02-18T07:06:00Z</time>
      </trkpt>
      <trkpt lat="42.541493000" lon="-2.468723000">
        <ele>598.80</ele>
        <time>2017-02-18T07:06:01Z</time>
      </trkpt>
      <trkpt lat="42.541511000" lon="-2.468732000">
        <ele>598.80</ele>
        <time>2017-02-18T07:06:02Z</time>
      </trkpt>
      <trkpt lat="42.541533000" lon="-2.468745000">
        <ele>598.90</ele>
        <time>2017-02-18T07:06:03Z</time>
      </trkpt>
      <trkpt lat="42.541555000" lon="-2.468755000">
        <ele>598.90</ele>
        <time>2017-02-18T07:06:04Z</time>
      </trkpt>
      <trkpt lat="42.541575000" lon="-2.468768000">
        <ele>599.00</ele>
        <time>2017-02-18T07:06:05Z</time>
      </trkpt>
      <trkpt lat="42.541594000" lon="-2.468779000">
        <ele>599.20</ele>
        <time>2017-02-18T07:06:06Z</time>
      </trkpt>
      <trkpt lat="42.541617000" lon="-2.468788000">
        <ele>599.30</ele>
        <time>2017-02-18T07:06:07Z</time>
      </trkpt>
      <trkpt lat="42.541637000" lon="-2.468795000">
        <ele>599.60</ele>
        <time>2017-02-18T07:06:08Z</time>
      </trkpt>
      <trkpt lat="42.541658000" lon="-2.468805000">
        <ele>599.80</ele>
        <time>2017-02-18T07:06:09Z</time>
      </trkpt>
      <trkpt lat="42.541680000" lon="-2.468818000">
        <ele>600.00</ele>
        <time>2017-02-18T07:06:10Z</time>
      </trkpt>
      <trkpt lat="42.541697000" lon="-2.468832000">
        <ele>600.20</ele>
        <time>2017-02-18T07:06:11Z</time>
      </trkpt>
      <trkpt lat="42.541716000" lon="-2.468842000">
        <ele>600.50</ele>
        <time>2017-02-18T07:06:12Z</time>
      </trkpt>
      <trkpt lat="42.541737000" lon="-2.468850000">
        <ele>600.70</ele>
        <time>2017-02-18T07:06:13Z</time>
      </trkpt>
      <trkpt lat="42.541758000" lon="-2.468858000">
        <ele>600.90</ele>
        <time>2017-02-18T07:06:14Z</time>
      </trkpt>
      <trkpt lat="42.541774000" lon="-2.468868000">
        <ele>601.00</ele>
        <time>2017-02-18T07:06:15Z</time>
      </trkpt>
      <trkpt lat="42.541793000" lon="-2.468881000">
        <ele>601.10</ele>
        <time>2017-02-18T07:06:16Z</time>
      </trkpt>
      <trkpt lat="42.541814000" lon="-2.468892000">
        <ele>601.10</ele>
        <time>2017-02-18T07:06:17Z</time>
      </trkpt>
      <trkpt lat="42.541835000" lon="-2.468904000">
        <ele>601.40</ele>
        <time>2017-02-18T07:06:18Z</time>
      </trkpt>
      <trkpt lat="42.541852000" lon="-2.468914000">
        <ele>601.60</ele>
        <time>2017-02-18T07:06:19Z</time>
      </trkpt>
      <trkpt lat="42.541869000" lon="-2.468926000">
        <ele>601.70</ele>
        <time>2017-02-18T07:06:20Z</time>
      </trkpt>
      <trkpt lat="42.541891000" lon="-2.468932000">
        <ele>601.90</ele>
        <time>2017-02-18T07:06:21Z</time>
      </trkpt>
      <trkpt lat="42.541910000" lon="-2.468939000">
        <ele>602.00</ele>
        <time>2017-02-18T07:06:22Z</time>
      </trkpt>
      <trkpt lat="42.541933000" lon="-2.468949000">
        <ele>602.10</ele>
        <time>2017-02-18T07:06:23Z</time>
      </trkpt>
      <trkpt lat="42.541952000" lon="-2.468960000">
        <ele>602.40</ele>
        <time>2017-02-18T07:06:24Z</time>
      </trkpt>
      <trkpt lat="42.541971000" lon="-2.468973000">
        <ele>602.60</ele>
        <time>2017-02-18T07:06:25Z</time>
      </trkpt>
      <trkpt lat="42.541989000" lon="-2.468986000">
        <ele>602.90</ele>
        <time>2017-02-18T07:06:26Z</time>
      </trkpt>
      <trkpt lat="42.542011000" lon="-2.468993000">
        <ele>603.10</ele>
        <time>2017-02-18T07:06:27Z</time>
      </trkpt>
      <trkpt lat="42.542031000" lon="-2.469000000">
        <ele>603.20</ele>
        <time>2017-02-18T07:06:28Z</time>
      </trkpt>
      <trkpt lat="42.542051000" lon="-2.469011000">
        <ele>603.30</ele>
        <time>2017-02-18T07:06:29Z</time>
      </trkpt>
      <trkpt lat="42.542071000" lon="-2.469022000">
        <ele>603.50</ele>
        <time>2017-02-18T07:06:30Z</time>
      </trkpt>
      <trkpt lat="42.542091000" lon="-2.469031000">
        <ele>603.60</ele>
        <time>2017-02-18T07:06:31Z</time>
      </trkpt>
      <trkpt lat="42.542109000" lon="-2.469041000">
        <ele>603.80</ele>
        <time>2017-02-18T07:06:32Z</time>
      </trkpt>
      <trkpt lat="42.542126000" lon="-2.469047000">
        <ele>604.00</ele>
        <time>2017-02-18T07:06:33Z</time>
      </trkpt>
      <trkpt lat="42.542146000" lon="-2.469054000">
        <ele>604.30</ele>
        <time>2017-02-18T07:06:34Z</time>
      </trkpt>
      <trkpt lat="42.542165000" lon="-2.469065000">
        <ele>604.50</ele>
        <time>2017-02-18T07:06:35Z</time>
      </trkpt>
      <trkpt lat="42.542180000" lon="-2.469075000">
        <ele>604.80</ele>
        <time>2017-02-18T07:06:36Z</time>
      </trkpt>
      <trkpt lat="42.542200000" lon="-2.469086000">
        <ele>605.10</ele>
        <time>2017-02-18T07:06:37Z</time>
      </trkpt>
      <trkpt lat="42.542218000" lon="-2.469099000">
        <ele>605.50</ele>
        <time>2017-02-18T07:06:38Z</time>
      </trkpt>
      <trkpt lat="42.542235000" lon="-2.469107000">
        <ele>605.70</ele>
        <time>2017-02-18T07:06:39Z</time>
      </trkpt>
      <trkpt lat="42.542248000" lon="-2.469117000">
        <ele>605.90</ele>
        <time>2017-02-18T07:06:40Z</time>
      </trkpt>
      <trkpt lat="42.542264000" lon="-2.469126000">
        <ele>606.10</ele>
        <time>2017-02-18T07:06:41Z</time>
      </trkpt>
      <trkpt lat="42.542283000" lon="-2.469133000">
        <ele>606.30</ele>
        <time>2017-02-18T07:06:42Z</time>
      </trkpt>
      <trkpt lat="42.542306000" lon="-2.469138000">
        <ele>606.50</ele>
        <time>2017-02-18T07:06:43Z</time>
      </trkpt>
      <trkpt lat="42.542326000" lon="-2.469147000">
        <ele>606.70</ele>
        <time>2017-02-18T07:06:44Z</time>
      </trkpt>
      <trkpt lat="42.542345000" lon="-2.469155000">
        <ele>606.80</ele>
        <time>2017-02-18T07:06:45Z</time>
      </trkpt>
      <trkpt lat="42.542363000" lon="-2.469161000">
        <ele>607.10</ele>
        <time>2017-02-18T07:06:46Z</time>
      </trkpt>
      <trkpt lat="42.542380000" lon="-2.469167000">
        <ele>607.30</ele>
        <time>2017-02-18T07:06:47Z</time>
      </trkpt>
      <trkpt lat="42.542397000" lon="-2.469175000">
        <ele>607.60</ele>
        <time>2017-02-18T07:06:48Z</time>
      </trkpt>
      <trkpt lat="42.542415000" lon="-2.469185000">
        <ele>607.80</ele>
        <time>2017-02-18T07:06:49Z</time>
      </trkpt>
      <trkpt lat="42.542433000" lon="-2.469195000">
        <ele>608.10</ele>
        <time>2017-02-18T07:06:50Z</time>
      </trkpt>
      <trkpt lat="42.542455000" lon="-2.469202000">
        <ele>608.40</ele>
        <time>2017-02-18T07:06:51Z</time>
      </trkpt>
      <trkpt lat="42.542474000" lon="-2.469212000">
        <ele>608.70</ele>
        <time>2017-02-18T07:06:52Z</time>
      </trkpt>
      <trkpt lat="42.542489000" lon="-2.469224000">
        <ele>608.90</ele>
        <time>2017-02-18T07:06:53Z</time>
      </trkpt>
      <trkpt lat="42.542504000" lon="-2.469229000">
        <ele>609.30</ele>
        <time>2017-02-18T07:06:54Z</time>
      </trkpt>
      <trkpt lat="42.542522000" lon="-2.469236000">
        <ele>609.60</ele>
        <time>2017-02-18T07:06:55Z</time>
      </trkpt>
      <trkpt lat="42.542537000" lon="-2.469243000">
        <ele>609.90</ele>
        <time>2017-02-18T07:06:56Z</time>
      </trkpt>
      <trkpt lat="42.542556000" lon="-2.469254000">
        <ele>610.10</ele>
        <time>2017-02-18T07:06:57Z</time>
      </trkpt>
      <trkpt lat="42.542589000" lon="-2.469271000">
        <ele>610.40</ele>
        <time>2017-02-18T07:06:59Z</time>
      </trkpt>
      <trkpt lat="42.542605000" lon="-2.469280000">
        <ele>610.50</ele>
        <time>2017-02-18T07:07:00Z</time>
      </trkpt>
      <trkpt lat="42.542623000" lon="-2.469291000">
        <ele>610.60</ele>
        <time>2017-02-18T07:07:01Z</time>
      </trkpt>
      <trkpt lat="42.542642000" lon="-2.469301000">
        <ele>610.70</ele>
        <time>2017-02-18T07:07:02Z</time>
      </trkpt>
      <trkpt lat="42.542661000" lon="-2.469308000">
        <ele>610.80</ele>
        <time>2017-02-18T07:07:03Z</time>
      </trkpt>
      <trkpt lat="42.542680000" lon="-2.469317000">
        <ele>611.20</ele>
        <time>2017-02-18T07:07:04Z</time>
      </trkpt>
      <trkpt lat="42.542697000" lon="-2.469328000">
        <ele>611.40</ele>
        <time>2017-02-18T07:07:05Z</time>
      </trkpt>
      <trkpt lat="42.542716000" lon="-2.469340000">
        <ele>611.80</ele>
        <time>2017-02-18T07:07:06Z</time>
      </trkpt>
      <trkpt lat="42.542730000" lon="-2.469348000">
        <ele>612.10</ele>
        <time>2017-02-18T07:07:07Z</time>
      </trkpt>
      <trkpt lat="42.542746000" lon="-2.469360000">
        <ele>612.30</ele>
        <time>2017-02-18T07:07:08Z</time>
      </trkpt>
      <trkpt lat="42.542763000" lon="-2.469374000">
        <ele>612.40</ele>
        <time>2017-02-18T07:07:09Z</time>
      </trkpt>
      <trkpt lat="42.542783000" lon="-2.469386000">
        <ele>612.50</ele>
        <time>2017-02-18T07:07:10Z</time>
      </trkpt>
      <trkpt lat="42.542804000" lon="-2.469399000">
        <ele>612.60</ele>
        <time>2017-02-18T07:07:11Z</time>
      </trkpt>
      <trkpt lat="42.542822000" lon="-2.469410000">
        <ele>612.90</ele>
        <time>2017-02-18T07:07:12Z</time>
      </trkpt>
      <trkpt lat="42.542843000" lon="-2.469420000">
        <ele>613.10</ele>
        <time>2017-02-18T07:07:13Z</time>
      </trkpt>
      <trkpt lat="42.542865000" lon="-2.469428000">
        <ele>613.30</ele>
        <time>2017-02-18T07:07:14Z</time>
      </trkpt>
      <trkpt lat="42.542888000" lon="-2.469438000">
        <ele>613.50</ele>
        <time>2017-02-18T07:07:15Z</time>
      </trkpt>
      <trkpt lat="42.542906000" lon="-2.469440000">
        <ele>613.60</ele>
        <time>2017-02-18T07:07:16Z</time>
      </trkpt>
      <trkpt lat="42.542931000" lon="-2.469454000">
        <ele>613.70</ele>
        <time>2017-02-18T07:07:17Z</time>
      </trkpt>
      <trkpt lat="42.542954000" lon="-2.469462000">
        <ele>614.00</ele>
        <time>2017-02-18T07:07:18Z</time>
      </trkpt>
      <trkpt lat="42.542976000" lon="-2.469471000">
        <ele>614.20</ele>
        <time>2017-02-18T07:07:19Z</time>
      </trkpt>
      <trkpt lat="42.542996000" lon="-2.469478000">
        <ele>614.40</ele>
        <time>2017-02-18T07:07:20Z</time>
      </trkpt>
      <trkpt lat="42.543016000" lon="-2.469490000">
        <ele>614.50</ele>
        <time>2017-02-18T07:07:21Z</time>
      </trkpt>
      <trkpt lat="42.543034000" lon="-2.469502000">
        <ele>614.80</ele>
        <time>2017-02-18T07:07:22Z</time>
      </trkpt>
      <trkpt lat="42.543052000" lon="-2.469518000">
        <ele>615.10</ele>
        <time>2017-02-18T07:07:23Z</time>
      </trkpt>
      <trkpt lat="42.543069000" lon="-2.469531000">
        <ele>615.30</ele>
        <time>2017-02-18T07:07:24Z</time>
      </trkpt>
      <trkpt lat="42.543086000" lon="-2.469549000">
        <ele>615.50</ele>
        <time>2017-02-18T07:07:25Z</time>
      </trkpt>
      <trkpt lat="42.543102000" lon="-2.469562000">
        <ele>615.70</ele>
        <time>2017-02-18T07:07:26Z</time>
      </trkpt>
      <trkpt lat="42.543120000" lon="-2.469569000">
        <ele>615.80</ele>
        <time>2017-02-18T07:07:27Z</time>
      </trkpt>
      <trkpt lat="42.543141000" lon="-2.469578000">
        <ele>616.10</ele>
        <time>2017-02-18T07:07:28Z</time>
      </trkpt>
      <trkpt lat="42.543158000" lon="-2.469587000">
        <ele>616.30</ele>
        <time>2017-02-18T07:07:29Z</time>
      </trkpt>
      <trkpt lat="42.543179000" lon="-2.469595000">
        <ele>616.50</ele>
        <time>2017-02-18T07:07:30Z</time>
      </trkpt>
      <trkpt lat="42.543199000" lon="-2.469602000">
        <ele>616.60</ele>
        <time>2017-02-18T07:07:31Z</time>
      </trkpt>
      <trkpt lat="42.543215000" lon="-2.469606000">
        <ele>616.90</ele>
        <time>2017-02-18T07:07:32Z</time>
      </trkpt>
      <trkpt lat="42.543231000" lon="-2.469615000">
        <ele>617.20</ele>
        <time>2017-02-18T07:07:33Z</time>
      </trkpt>
      <trkpt lat="42.543247000" lon="-2.469625000">
        <ele>617.40</ele>
        <time>2017-02-18T07:07:34Z</time>
      </trkpt>
      <trkpt lat="42.543260000" lon="-2.469631000">
        <ele>617.50</ele>
        <time>2017-02-18T07:07:35Z</time>
      </trkpt>
      <trkpt lat="42.543275000" lon="-2.469638000">
        <ele>617.60</ele>
        <time>2017-02-18T07:07:36Z</time>
      </trkpt>
      <trkpt lat="42.543290000" lon="-2.469646000">
        <ele>617.80</ele>
        <time>2017-02-18T07:07:37Z</time>
      </trkpt>
      <trkpt lat="42.543304000" lon="-2.469649000">
        <ele>617.90</ele>
        <time>2017-02-18T07:07:38Z</time>
      </trkpt>
      <trkpt lat="42.543315000" lon="-2.469661000">
        <ele>617.90</ele>
        <time>2017-02-18T07:07:39Z</time>
      </trkpt>
      <trkpt lat="42.543323000" lon="-2.469668000">
        <ele>618.10</ele>
        <time>2017-02-18T07:07:40Z</time>
      </trkpt>
      <trkpt lat="42.543334000" lon="-2.469672000">
        <ele>618.20</ele>
        <time>2017-02-18T07:07:41Z</time>
      </trkpt>
      <trkpt lat="42.543348000" lon="-2.469663000">
        <ele>618.20</ele>
        <time>2017-02-18T07:07:42Z</time>
      </trkpt>
      <trkpt lat="42.543362000" lon="-2.469663000">
        <ele>618.30</ele>
        <time>2017-02-18T07:07:43Z</time>
      </trkpt>
      <trkpt lat="42.543369000" lon="-2.469672000">
        <ele>618.30</ele>
        <time>2017-02-18T07:07:44Z</time>
      </trkpt>
      <trkpt lat="42.543367000" lon="-2.469672000">
        <ele>618.30</ele>
        <time>2017-02-18T07:07:45Z</time>
      </trkpt>
      <trkpt lat="42.543369000" lon="-2.469670000">
        <ele>618.20</ele>
        <time>2017-02-18T07:07:46Z</time>
      </trkpt>
      <trkpt lat="42.543376000" lon="-2.469661000">
        <ele>618.10</ele>
        <time>2017-02-18T07:07:47Z</time>
      </trkpt>
      <trkpt lat="42.543380000" lon="-2.469653000">
        <ele>618.10</ele>
        <time>2017-02-18T07:07:48Z</time>
      </trkpt>
      <trkpt lat="42.543383000" lon="-2.469645000">
        <ele>618.00</ele>
        <time>2017-02-18T07:07:49Z</time>
      </trkpt>
      <trkpt lat="42.543386000" lon="-2.469637000">
        <ele>618.20</ele>
        <time>2017-02-18T07:07:50Z</time>
      </trkpt>
      <trkpt lat="42.543390000" lon="-2.469635000">
        <ele>618.30</ele>
        <time>2017-02-18T07:07:51Z</time>
      </trkpt>
      <trkpt lat="42.543391000" lon="-2.469634000">
        <ele>618.40</ele>
        <time>2017-02-18T07:07:52Z</time>
      </trkpt>
      <trkpt lat="42.543395000" lon="-2.469629000">
        <ele>618.50</ele>
        <time>2017-02-18T07:07:53Z</time>
      </trkpt>
      <trkpt lat="42.543398000" lon="-2.469627000">
        <ele>618.50</ele>
        <time>2017-02-18T07:07:54Z</time>
      </trkpt>
      <trkpt lat="42.543398000" lon="-2.469623000">
        <ele>618.60</ele>
        <time>2017-02-18T07:07:55Z</time>
      </trkpt>
      <trkpt lat="42.543400000" lon="-2.469623000">
        <ele>618.60</ele>
        <time>2017-02-18T07:07:56Z</time>
      </trkpt>
      <trkpt lat="42.543404000" lon="-2.469628000">
        <ele>618.60</ele>
        <time>2017-02-18T07:07:57Z</time>
      </trkpt>
      <trkpt lat="42.543409000" lon="-2.469630000">
        <ele>618.50</ele>
        <time>2017-02-18T07:07:58Z</time>
      </trkpt>
      <trkpt lat="42.543407000" lon="-2.469635000">
        <ele>618.20</ele>
        <time>2017-02-18T07:08:00Z</time>
      </trkpt>
      <trkpt lat="42.543401000" lon="-2.469631000">
        <ele>618.10</ele>
        <time>2017-02-18T07:08:01Z</time>
      </trkpt>
      <trkpt lat="42.543400000" lon="-2.469631000">
        <ele>618.00</ele>
        <time>2017-02-18T07:08:02Z</time>
      </trkpt>
      <trkpt lat="42.543401000" lon="-2.469632000">
        <ele>617.90</ele>
        <time>2017-02-18T07:08:03Z</time>
      </trkpt>
      <trkpt lat="42.543402000" lon="-2.469633000">
        <ele>617.80</ele>
        <time>2017-02-18T07:08:04Z</time>
      </trkpt>
      <trkpt lat="42.543402000" lon="-2.469633000">
        <ele>617.70</ele>
        <time>2017-02-18T07:08:05Z</time>
      </trkpt>
      <trkpt lat="42.543401000" lon="-2.469636000">
        <ele>617.60</ele>
        <time>2017-02-18T07:08:06Z</time>
      </trkpt>
      <trkpt lat="42.543398000" lon="-2.469638000">
        <ele>617.60</ele>
        <time>2017-02-18T07:08:07Z</time>
      </trkpt>
      <trkpt lat="42.543398000" lon="-2.469638000">
        <ele>617.50</ele>
        <time>2017-02-18T07:08:08Z</time>
      </trkpt>
      <trkpt lat="42.543400000" lon="-2.469640000">
        <ele>617.40</ele>
        <time>2017-02-18T07:08:09Z</time>
      </trkpt>
      <trkpt lat="42.543403000" lon="-2.469641000">
        <ele>617.40</ele>
        <time>2017-02-18T07:08:10Z</time>
      </trkpt>
      <trkpt lat="42.543404000" lon="-2.469641000">
        <ele>617.40</ele>
        <time>2017-02-18T07:08:11Z</time>
      </trkpt>
      <trkpt lat="42.543407000" lon="-2.469639000">
        <ele>617.40</ele>
        <time>2017-02-18T07:08:12Z</time>
      </trkpt>
      <trkpt lat="42.543408000" lon="-2.469638000">
        <ele>617.40</ele>
        <time>2017-02-18T07:08:13Z</time>
      </trkpt>
      <trkpt lat="42.543409000" lon="-2.469641000">
        <ele>617.50</ele>
        <time>2017-02-18T07:08:14Z</time>
      </trkpt>
      <trkpt lat="42.543407000" lon="-2.469643000">
        <ele>617.50</ele>
        <time>2017-02-18T07:08:15Z</time>
      </trkpt>
      <trkpt lat="42.543406000" lon="-2.469643000">
        <ele>617.60</ele>
        <time>2017-02-18T07:08:16Z</time>
      </trkpt>
      <trkpt lat="42.543404000" lon="-2.469641000">
        <ele>617.70</ele>
        <time>2017-02-18T07:08:17Z</time>
      </trkpt>
      <trkpt lat="42.543403000" lon="-2.469639000">
        <ele>617.80</ele>
        <time>2017-02-18T07:08:18Z</time>
      </trkpt>
      <trkpt lat="42.543405000" lon="-2.469638000">
        <ele>617.90</ele>
        <time>2017-02-18T07:08:19Z</time>
      </trkpt>
      <trkpt lat="42.543407000" lon="-2.469639000">
        <ele>617.90</ele>
        <time>2017-02-18T07:08:20Z</time>
      </trkpt>
      <trkpt lat="42.543409000" lon="-2.469637000">
        <ele>617.90</ele>
        <time>2017-02-18T07:08:21Z</time>
      </trkpt>
      <trkpt lat="42.543410000" lon="-2.469638000">
        <ele>617.90</ele>
        <time>2017-02-18T07:08:22Z</time>
      </trkpt>
      <trkpt lat="42.543411000" lon="-2.469634000">
        <ele>618.00</ele>
        <time>2017-02-18T07:08:23Z</time>
      </trkpt>
      <trkpt lat="42.543411000" lon="-2.469638000">
        <ele>618.00</ele>
        <time>2017-02-18T07:08:24Z</time>
      </trkpt>
      <trkpt lat="42.543413000" lon="-2.469642000">
        <ele>618.00</ele>
        <time>2017-02-18T07:08:25Z</time>
      </trkpt>
      <trkpt lat="42.543415000" lon="-2.469648000">
        <ele>618.00</ele>
        <time>2017-02-18T07:08:26Z</time>
      </trkpt>
      <trkpt lat="42.543415000" lon="-2.469647000">
        <ele>618.10</ele>
        <time>2017-02-18T07:08:27Z</time>
      </trkpt>
      <trkpt lat="42.543412000" lon="-2.469646000">
        <ele>618.10</ele>
        <time>2017-02-18T07:08:28Z</time>
      </trkpt>
      <trkpt lat="42.543411000" lon="-2.469643000">
        <ele>618.10</ele>
        <time>2017-02-18T07:08:29Z</time>
      </trkpt>
      <trkpt lat="42.543409000" lon="-2.469644000">
        <ele>618.10</ele>
        <time>2017-02-18T07:08:30Z</time>
      </trkpt>
      <trkpt lat="42.543408000" lon="-2.469645000">
        <ele>618.10</ele>
        <time>2017-02-18T07:08:31Z</time>
      </trkpt>
      <trkpt lat="42.543408000" lon="-2.469646000">
        <ele>618.10</ele>
        <time>2017-02-18T07:08:32Z</time>
      </trkpt>
      <trkpt lat="42.543408000" lon="-2.469648000">
        <ele>618.10</ele>
        <time>2017-02-18T07:08:33Z</time>
      </trkpt>
      <trkpt lat="42.543406000" lon="-2.469650000">
        <ele>618.10</ele>
        <time>2017-02-18T07:08:34Z</time>
      </trkpt>
      <trkpt lat="42.543403000" lon="-2.469649000">
        <ele>618.10</ele>
        <time>2017-02-18T07:08:35Z</time>
      </trkpt>
      <trkpt lat="42.543403000" lon="-2.469647000">
        <ele>617.80</ele>
        <time>2017-02-18T07:08:36Z</time>
      </trkpt>
      <trkpt lat="42.543402000" lon="-2.469644000">
        <ele>617.60</ele>
        <time>2017-02-18T07:08:37Z</time>
      </trkpt>
      <trkpt lat="42.543404000" lon="-2.469648000">
        <ele>617.50</ele>
        <time>2017-02-18T07:08:38Z</time>
      </trkpt>
      <trkpt lat="42.543407000" lon="-2.469650000">
        <ele>617.40</ele>
        <time>2017-02-18T07:08:39Z</time>
      </trkpt>
      <trkpt lat="42.543407000" lon="-2.469650000">
        <ele>617.50</ele>
        <time>2017-02-18T07:08:40Z</time>
      </trkpt>
      <trkpt lat="42.543408000" lon="-2.469649000">
        <ele>617.50</ele>
        <time>2017-02-18T07:08:41Z</time>
      </trkpt>
      <trkpt lat="42.543406000" lon="-2.469647000">
        <ele>617.60</ele>
        <time>2017-02-18T07:08:42Z</time>
      </trkpt>
      <trkpt lat="42.543406000" lon="-2.469646000">
        <ele>617.60</ele>
        <time>2017-02-18T07:08:43Z</time>
      </trkpt>
      <trkpt lat="42.543406000" lon="-2.469647000">
        <ele>617.60</ele>
        <time>2017-02-18T07:08:44Z</time>
      </trkpt>
      <trkpt lat="42.543407000" lon="-2.469645000">
        <ele>617.70</ele>
        <time>2017-02-18T07:08:45Z</time>
      </trkpt>
      <trkpt lat="42.543410000" lon="-2.469645000">
        <ele>617.50</ele>
        <time>2017-02-18T07:08:46Z</time>
      </trkpt>
      <trkpt lat="42.543413000" lon="-2.469642000">
        <ele>617.40</ele>
        <time>2017-02-18T07:08:47Z</time>
      </trkpt>
      <trkpt lat="42.543414000" lon="-2.469638000">
        <ele>617.40</ele>
        <time>2017-02-18T07:08:48Z</time>
      </trkpt>
      <trkpt lat="42.543411000" lon="-2.469639000">
        <ele>617.40</ele>
        <time>2017-02-18T07:08:49Z</time>
      </trkpt>
      <trkpt lat="42.543408000" lon="-2.469639000">
        <ele>617.30</ele>
        <time>2017-02-18T07:08:50Z</time>
      </trkpt>
      <trkpt lat="42.543411000" lon="-2.469640000">
        <ele>617.30</ele>
        <time>2017-02-18T07:08:51Z</time>
      </trkpt>
      <trkpt lat="42.543410000" lon="-2.469642000">
        <ele>617.20</ele>
        <time>2017-02-18T07:08:52Z</time>
      </trkpt>
      <trkpt lat="42.543412000" lon="-2.469645000">
        <ele>617.20</ele>
        <time>2017-02-18T07:08:53Z</time>
      </trkpt>
      <trkpt lat="42.543412000" lon="-2.469647000">
        <ele>617.10</ele>
        <time>2017-02-18T07:08:54Z</time>
      </trkpt>
      <trkpt lat="42.543412000" lon="-2.469647000">
        <ele>617.00</ele>
        <time>2017-02-18T07:08:55Z</time>
      </trkpt>
      <trkpt lat="42.543413000" lon="-2.469646000">
        <ele>617.00</ele>
        <time>2017-02-18T07:08:56Z</time>
      </trkpt>
      <trkpt lat="42.543414000" lon="-2.469644000">
        <ele>616.90</ele>
        <time>2017-02-18T07:08:57Z</time>
      </trkpt>
      <trkpt lat="42.543413000" lon="-2.469643000">
        <ele>617.10</ele>
        <time>2017-02-18T07:08:58Z</time>
      </trkpt>
      <trkpt lat="42.543414000" lon="-2.469642000">
        <ele>617.30</ele>
        <time>2017-02-18T07:08:59Z</time>
      </trkpt>
      <trkpt lat="42.543416000" lon="-2.469639000">
        <ele>617.50</ele>
        <time>2017-02-18T07:09:01Z</time>
      </trkpt>
      <trkpt lat="42.543417000" lon="-2.469633000">
        <ele>617.60</ele>
        <time>2017-02-18T07:09:02Z</time>
      </trkpt>
      <trkpt lat="42.543417000" lon="-2.469629000">
        <ele>617.60</ele>
        <time>2017-02-18T07:09:03Z</time>
      </trkpt>
      <trkpt lat="42.543419000" lon="-2.469630000">
        <ele>617.60</ele>
        <time>2017-02-18T07:09:04Z</time>
      </trkpt>
      <trkpt lat="42.543419000" lon="-2.469631000">
        <ele>617.50</ele>
        <time>2017-02-18T07:09:05Z</time>
      </trkpt>
      <trkpt lat="42.543416000" lon="-2.469633000">
        <ele>617.50</ele>
        <time>2017-02-18T07:09:06Z</time>
      </trkpt>
      <trkpt lat="42.543416000" lon="-2.469636000">
        <ele>617.60</ele>
        <time>2017-02-18T07:09:07Z</time>
      </trkpt>
      <trkpt lat="42.543416000" lon="-2.469638000">
        <ele>617.50</ele>
        <time>2017-02-18T07:09:08Z</time>
      </trkpt>
      <trkpt lat="42.543415000" lon="-2.469636000">
        <ele>617.50</ele>
        <time>2017-02-18T07:09:09Z</time>
      </trkpt>
      <trkpt lat="42.543413000" lon="-2.469638000">
        <ele>617.40</ele>
        <time>2017-02-18T07:09:10Z</time>
      </trkpt>
      <trkpt lat="42.543413000" lon="-2.469637000">
        <ele>617.30</ele>
        <time>2017-02-18T07:09:11Z</time>
      </trkpt>
      <trkpt lat="42.543413000" lon="-2.469630000">
        <ele>617.20</ele>
        <time>2017-02-18T07:09:12Z</time>
      </trkpt>
      <trkpt lat="42.543414000" lon="-2.469630000">
        <ele>617.20</ele>
        <time>2017-02-18T07:09:13Z</time>
      </trkpt>
      <trkpt lat="42.543413000" lon="-2.469632000">
        <ele>617.10</ele>
        <time>2017-02-18T07:09:14Z</time>
      </trkpt>
      <trkpt lat="42.543409000" lon="-2.469632000">
        <ele>617.10</ele>
        <time>2017-02-18T07:09:15Z</time>
      </trkpt>
      <trkpt lat="42.543408000" lon="-2.469635000">
        <ele>617.10</ele>
        <time>2017-02-18T07:09:16Z</time>
      </trkpt>
      <trkpt lat="42.543408000" lon="-2.469637000">
        <ele>617.00</ele>
        <time>2017-02-18T07:09:17Z</time>
      </trkpt>
      <trkpt lat="42.543408000" lon="-2.469641000">
        <ele>617.00</ele>
        <time>2017-02-18T07:09:18Z</time>
      </trkpt>
      <trkpt lat="42.543410000" lon="-2.469637000">
        <ele>617.00</ele>
        <time>2017-02-18T07:09:19Z</time>
      </trkpt>
      <trkpt lat="42.543409000" lon="-2.469636000">
        <ele>617.00</ele>
        <time>2017-02-18T07:09:20Z</time>
      </trkpt>
      <trkpt lat="42.543410000" lon="-2.469632000">
        <ele>617.10</ele>
        <time>2017-02-18T07:09:21Z</time>
      </trkpt>
      <trkpt lat="42.543410000" lon="-2.469631000">
        <ele>617.10</ele>
        <time>2017-02-18T07:09:22Z</time>
      </trkpt>
      <trkpt lat="42.543411000" lon="-2.469626000">
        <ele>617.10</ele>
        <time>2017-02-18T07:09:23Z</time>
      </trkpt>
      <trkpt lat="42.543413000" lon="-2.469626000">
        <ele>617.10</ele>
        <time>2017-02-18T07:09:24Z</time>
      </trkpt>
      <trkpt lat="42.543411000" lon="-2.469624000">
        <ele>617.10</ele>
        <time>2017-02-18T07:09:25Z</time>
      </trkpt>
      <trkpt lat="42.543409000" lon="-2.469620000">
        <ele>617.20</ele>
        <time>2017-02-18T07:09:26Z</time>
      </trkpt>
      <trkpt lat="42.543406000" lon="-2.469619000">
        <ele>617.20</ele>
        <time>2017-02-18T07:09:27Z</time>
      </trkpt>
      <trkpt lat="42.543404000" lon="-2.469619000">
        <ele>617.30</ele>
        <time>2017-02-18T07:09:28Z</time>
      </trkpt>
      <trkpt lat="42.543402000" lon="-2.469618000">
        <ele>617.30</ele>
        <time>2017-02-18T07:09:29Z</time>
      </trkpt>
      <trkpt lat="42.543399000" lon="-2.469620000">
        <ele>617.30</ele>
        <time>2017-02-18T07:09:30Z</time>
      </trkpt>
      <trkpt lat="42.543399000" lon="-2.469622000">
        <ele>617.30</ele>
        <time>2017-02-18T07:09:31Z</time>
      </trkpt>
      <trkpt lat="42.543400000" lon="-2.469627000">
        <ele>617.30</ele>
        <time>2017-02-18T07:09:32Z</time>
      </trkpt>
      <trkpt lat="42.543399000" lon="-2.469627000">
        <ele>617.40</ele>
        <time>2017-02-18T07:09:33Z</time>
      </trkpt>
      <trkpt lat="42.543398000" lon="-2.469632000">
        <ele>617.20</ele>
        <time>2017-02-18T07:09:34Z</time>
      </trkpt>
      <trkpt lat="42.543397000" lon="-2.469638000">
        <ele>617.10</ele>
        <time>2017-02-18T07:09:35Z</time>
      </trkpt>
      <trkpt lat="42.543395000" lon="-2.469636000">
        <ele>616.90</ele>
        <time>2017-02-18T07:09:36Z</time>
      </trkpt>
      <trkpt lat="42.543394000" lon="-2.469632000">
        <ele>616.90</ele>
        <time>2017-02-18T07:09:37Z</time>
      </trkpt>
      <trkpt lat="42.543395000" lon="-2.469631000">
        <ele>616.80</ele>
        <time>2017-02-18T07:09:38Z</time>
      </trkpt>
      <trkpt lat="42.543394000" lon="-2.469629000">
        <ele>616.70</ele>
        <time>2017-02-18T07:09:39Z</time>
      </trkpt>
      <trkpt lat="42.543392000" lon="-2.469629000">
        <ele>616.90</ele>
        <time>2017-02-18T07:09:40Z</time>
      </trkpt>
      <trkpt lat="42.543392000" lon="-2.469629000">
        <ele>617.00</ele>
        <time>2017-02-18T07:09:41Z</time>
      </trkpt>
      <trkpt lat="42.543395000" lon="-2.469630000">
        <ele>617.10</ele>
        <time>2017-02-18T07:09:42Z</time>
      </trkpt>
      <trkpt lat="42.543396000" lon="-2.469631000">
        <ele>617.20</ele>
        <time>2017-02-18T07:09:43Z</time>
      </trkpt>
      <trkpt lat="42.543393000" lon="-2.469632000">
        <ele>617.20</ele>
        <time>2017-02-18T07:09:44Z</time>
      </trkpt>
      <trkpt lat="42.543390000" lon="-2.469633000">
        <ele>617.20</ele>
        <time>2017-02-18T07:09:45Z</time>
      </trkpt>
      <trkpt lat="42.543387000" lon="-2.469633000">
        <ele>617.20</ele>
        <time>2017-02-18T07:09:46Z</time>
      </trkpt>
      <trkpt lat="42.543384000" lon="-2.469632000">
        <ele>617.30</ele>
        <time>2017-02-18T07:09:47Z</time>
      </trkpt>
      <trkpt lat="42.543385000" lon="-2.469628000">
        <ele>617.20</ele>
        <time>2017-02-18T07:09:48Z</time>
      </trkpt>
      <trkpt lat="42.543385000" lon="-2.469627000">
        <ele>617.10</ele>
        <time>2017-02-18T07:09:49Z</time>
      </trkpt>
      <trkpt lat="42.543382000" lon="-2.469627000">
        <ele>617.20</ele>
        <time>2017-02-18T07:09:50Z</time>
      </trkpt>
      <trkpt lat="42.543383000" lon="-2.469628000">
        <ele>617.20</ele>
        <time>2017-02-18T07:09:51Z</time>
      </trkpt>
      <trkpt lat="42.543386000" lon="-2.469629000">
        <ele>617.00</ele>
        <time>2017-02-18T07:09:52Z</time>
      </trkpt>
      <trkpt lat="42.543385000" lon="-2.469627000">
        <ele>616.90</ele>
        <time>2017-02-18T07:09:53Z</time>
      </trkpt>
      <trkpt lat="42.543385000" lon="-2.469625000">
        <ele>616.90</ele>
        <time>2017-02-18T07:09:54Z</time>
      </trkpt>
      <trkpt lat="42.543389000" lon="-2.469624000">
        <ele>616.80</ele>
        <time>2017-02-18T07:09:55Z</time>
      </trkpt>
      <trkpt lat="42.543394000" lon="-2.469624000">
        <ele>616.80</ele>
        <time>2017-02-18T07:09:56Z</time>
      </trkpt>
      <trkpt lat="42.543394000" lon="-2.469619000">
        <ele>616.80</ele>
        <time>2017-02-18T07:09:57Z</time>
      </trkpt>
      <trkpt lat="42.543393000" lon="-2.469612000">
        <ele>616.80</ele>
        <time>2017-02-18T07:09:58Z</time>
      </trkpt>
      <trkpt lat="42.543390000" lon="-2.469608000">
        <ele>616.80</ele>
        <time>2017-02-18T07:09:59Z</time>
      </trkpt>
      <trkpt lat="42.543390000" lon="-2.469604000">
        <ele>616.70</ele>
        <time>2017-02-18T07:10:00Z</time>
      </trkpt>
      <trkpt lat="42.543388000" lon="-2.469599000">
        <ele>616.60</ele>
        <time>2017-02-18T07:10:02Z</time>
      </trkpt>
      <trkpt lat="42.543387000" lon="-2.469600000">
        <ele>616.60</ele>
        <time>2017-02-18T07:10:03Z</time>
      </trkpt>
      <trkpt lat="42.543391000" lon="-2.469604000">
        <ele>616.60</ele>
        <time>2017-02-18T07:10:04Z</time>
      </trkpt>
      <trkpt lat="42.543393000" lon="-2.469608000">
        <ele>616.60</ele>
        <time>2017-02-18T07:10:05Z</time>
      </trkpt>
      <trkpt lat="42.543395000" lon="-2.469613000">
        <ele>616.70</ele>
        <time>2017-02-18T07:10:06Z</time>
      </trkpt>
      <trkpt lat="42.543395000" lon="-2.469616000">
        <ele>616.80</ele>
        <time>2017-02-18T07:10:07Z</time>
      </trkpt>
      <trkpt lat="42.543394000" lon="-2.469624000">
        <ele>616.80</ele>
        <time>2017-02-18T07:10:08Z</time>
      </trkpt>
      <trkpt lat="42.543394000" lon="-2.469628000">
        <ele>616.70</ele>
        <time>2017-02-18T07:10:09Z</time>
      </trkpt>
      <trkpt lat="42.543393000" lon="-2.469630000">
        <ele>616.70</ele>
        <time>2017-02-18T07:10:10Z</time>
      </trkpt>
      <trkpt lat="42.543390000" lon="-2.469629000">
        <ele>616.70</ele>
        <time>2017-02-18T07:10:11Z</time>
      </trkpt>
      <trkpt lat="42.543391000" lon="-2.469629000">
        <ele>616.60</ele>
        <time>2017-02-18T07:10:12Z</time>
      </trkpt>
      <trkpt lat="42.543389000" lon="-2.469630000">
        <ele>616.50</ele>
        <time>2017-02-18T07:10:13Z</time>
      </trkpt>
      <trkpt lat="42.543390000" lon="-2.469632000">
        <ele>616.60</ele>
        <time>2017-02-18T07:10:14Z</time>
      </trkpt>
      <trkpt lat="42.543389000" lon="-2.469631000">
        <ele>616.60</ele>
        <time>2017-02-18T07:10:15Z</time>
      </trkpt>
      <trkpt lat="42.543386000" lon="-2.469628000">
        <ele>616.60</ele>
        <time>2017-02-18T07:10:16Z</time>
      </trkpt>
      <trkpt lat="42.543384000" lon="-2.469626000">
        <ele>616.60</ele>
        <time>2017-02-18T07:10:17Z</time>
      </trkpt>
      <trkpt lat="42.543383000" lon="-2.469624000">
        <ele>616.60</ele>
        <time>2017-02-18T07:10:18Z</time>
      </trkpt>
      <trkpt lat="42.543381000" lon="-2.469623000">
        <ele>616.60</ele>
        <time>2017-02-18T07:10:19Z</time>
      </trkpt>
      <trkpt lat="42.543384000" lon="-2.469626000">
        <ele>616.60</ele>
        <time>2017-02-18T07:10:20Z</time>
      </trkpt>
      <trkpt lat="42.543387000" lon="-2.469633000">
        <ele>616.60</ele>
        <time>2017-02-18T07:10:21Z</time>
      </trkpt>
      <trkpt lat="42.543384000" lon="-2.469639000">
        <ele>616.50</ele>
        <time>2017-02-18T07:10:22Z</time>
      </trkpt>
      <trkpt lat="42.543386000" lon="-2.469640000">
        <ele>616.40</ele>
        <time>2017-02-18T07:10:23Z</time>
      </trkpt>
      <trkpt lat="42.543390000" lon="-2.469639000">
        <ele>616.50</ele>
        <time>2017-02-18T07:10:24Z</time>
      </trkpt>
      <trkpt lat="42.543386000" lon="-2.469635000">
        <ele>616.50</ele>
        <time>2017-02-18T07:10:25Z</time>
      </trkpt>
      <trkpt lat="42.543387000" lon="-2.469634000">
        <ele>616.40</ele>
        <time>2017-02-18T07:10:26Z</time>
      </trkpt>
      <trkpt lat="42.543388000" lon="-2.469627000">
        <ele>616.30</ele>
        <time>2017-02-18T07:10:27Z</time>
      </trkpt>
      <trkpt lat="42.543388000" lon="-2.469629000">
        <ele>616.20</ele>
        <time>2017-02-18T07:10:28Z</time>
      </trkpt>
      <trkpt lat="42.543389000" lon="-2.469634000">
        <ele>616.10</ele>
        <time>2017-02-18T07:10:29Z</time>
      </trkpt>
      <trkpt lat="42.543388000" lon="-2.469633000">
        <ele>616.00</ele>
        <time>2017-02-18T07:10:30Z</time>
      </trkpt>
      <trkpt lat="42.543387000" lon="-2.469633000">
        <ele>616.00</ele>
        <time>2017-02-18T07:10:31Z</time>
      </trkpt>
      <trkpt lat="42.543387000" lon="-2.469630000">
        <ele>615.90</ele>
        <time>2017-02-18T07:10:32Z</time>
      </trkpt>
      <trkpt lat="42.543383000" lon="-2.469630000">
        <ele>615.90</ele>
        <time>2017-02-18T07:10:33Z</time>
      </trkpt>
      <trkpt lat="42.543383000" lon="-2.469630000">
        <ele>616.10</ele>
        <time>2017-02-18T07:10:34Z</time>
      </trkpt>
      <trkpt lat="42.543382000" lon="-2.469630000">
        <ele>616.30</ele>
        <time>2017-02-18T07:10:35Z</time>
      </trkpt>
      <trkpt lat="42.543381000" lon="-2.469633000">
        <ele>616.30</ele>
        <time>2017-02-18T07:10:36Z</time>
      </trkpt>
      <trkpt lat="42.543380000" lon="-2.469639000">
        <ele>616.40</ele>
        <time>2017-02-18T07:10:37Z</time>
      </trkpt>
      <trkpt lat="42.543378000" lon="-2.469638000">
        <ele>616.40</ele>
        <time>2017-02-18T07:10:38Z</time>
      </trkpt>
      <trkpt lat="42.543382000" lon="-2.469633000">
        <ele>616.40</ele>
        <time>2017-02-18T07:10:39Z</time>
      </trkpt>
      <trkpt lat="42.543386000" lon="-2.469632000">
        <ele>616.40</ele>
        <time>2017-02-18T07:10:40Z</time>
      </trkpt>
      <trkpt lat="42.543388000" lon="-2.469632000">
        <ele>616.40</ele>
        <time>2017-02-18T07:10:41Z</time>
      </trkpt>
      <trkpt lat="42.543389000" lon="-2.469634000">
        <ele>616.40</ele>
        <time>2017-02-18T07:10:42Z</time>
      </trkpt>
      <trkpt lat="42.543388000" lon="-2.469635000">
        <ele>616.30</ele>
        <time>2017-02-18T07:10:43Z</time>
      </trkpt>
      <trkpt lat="42.543389000" lon="-2.469637000">
        <ele>616.30</ele>
        <time>2017-02-18T07:10:44Z</time>
      </trkpt>
      <trkpt lat="42.543389000" lon="-2.469639000">
        <ele>616.20</ele>
        <time>2017-02-18T07:10:45Z</time>
      </trkpt>
      <trkpt lat="42.543393000" lon="-2.469644000">
        <ele>616.20</ele>
        <time>2017-02-18T07:10:46Z</time>
      </trkpt>
      <trkpt lat="42.543394000" lon="-2.469647000">
        <ele>616.10</ele>
        <time>2017-02-18T07:10:47Z</time>
      </trkpt>
      <trkpt lat="42.543393000" lon="-2.469644000">
        <ele>616.10</ele>
        <time>2017-02-18T07:10:48Z</time>
      </trkpt>
      <trkpt lat="42.543394000" lon="-2.469643000">
        <ele>616.10</ele>
        <time>2017-02-18T07:10:49Z</time>
      </trkpt>
      <trkpt lat="42.543393000" lon="-2.469640000">
        <ele>616.00</ele>
        <time>2017-02-18T07:10:50Z</time>
      </trkpt>
      <trkpt lat="42.543392000" lon="-2.469636000">
        <ele>616.00</ele>
        <time>2017-02-18T07:10:51Z</time>
      </trkpt>
      <trkpt lat="42.543392000" lon="-2.469635000">
        <ele>616.10</ele>
        <time>2017-02-18T07:10:52Z</time>
      </trkpt>
      <trkpt lat="42.543391000" lon="-2.469625000">
        <ele>616.10</ele>
        <time>2017-02-18T07:10:53Z</time>
      </trkpt>
      <trkpt lat="42.543394000" lon="-2.469625000">
        <ele>616.10</ele>
        <time>2017-02-18T07:10:54Z</time>
      </trkpt>
      <trkpt lat="42.543394000" lon="-2.469627000">
        <ele>616.10</ele>
        <time>2017-02-18T07:10:55Z</time>
      </trkpt>
      <trkpt lat="42.543397000" lon="-2.469630000">
        <ele>616.10</ele>
        <time>2017-02-18T07:10:56Z</time>
      </trkpt>
      <trkpt lat="42.543395000" lon="-2.469629000">
        <ele>616.10</ele>
        <time>2017-02-18T07:10:57Z</time>
      </trkpt>
      <trkpt lat="42.543398000" lon="-2.469630000">
        <ele>616.30</ele>
        <time>2017-02-18T07:10:58Z</time>
      </trkpt>
      <trkpt lat="42.543396000" lon="-2.469632000">
        <ele>616.40</ele>
        <time>2017-02-18T07:10:59Z</time>
      </trkpt>
      <trkpt lat="42.543397000" lon="-2.469634000">
        <ele>616.50</ele>
        <time>2017-02-18T07:11:00Z</time>
      </trkpt>
      <trkpt lat="42.543400000" lon="-2.469635000">
        <ele>616.60</ele>
        <time>2017-02-18T07:11:01Z</time>
      </trkpt>
      <trkpt lat="42.543398000" lon="-2.469639000">
        <ele>616.30</ele>
        <time>2017-02-18T07:11:03Z</time>
      </trkpt>
      <trkpt lat="42.543399000" lon="-2.469637000">
        <ele>616.20</ele>
        <time>2017-02-18T07:11:04Z</time>
      </trkpt>
      <trkpt lat="42.543399000" lon="-2.469635000">
        <ele>616.20</ele>
        <time>2017-02-18T07:11:05Z</time>
      </trkpt>
      <trkpt lat="42.543400000" lon="-2.469635000">
        <ele>616.20</ele>
        <time>2017-02-18T07:11:06Z</time>
      </trkpt>
      <trkpt lat="42.543398000" lon="-2.469632000">
        <ele>616.20</ele>
        <time>2017-02-18T07:11:07Z</time>
      </trkpt>
      <trkpt lat="42.543400000" lon="-2.469632000">
        <ele>616.20</ele>
        <time>2017-02-18T07:11:08Z</time>
      </trkpt>
      <trkpt lat="42.543400000" lon="-2.469633000">
        <ele>616.20</ele>
        <time>2017-02-18T07:11:09Z</time>
      </trkpt>
      <trkpt lat="42.543399000" lon="-2.469633000">
        <ele>616.10</ele>
        <time>2017-02-18T07:11:10Z</time>
      </trkpt>
      <trkpt lat="42.543397000" lon="-2.469635000">
        <ele>616.10</ele>
        <time>2017-02-18T07:11:11Z</time>
      </trkpt>
      <trkpt lat="42.543396000" lon="-2.469634000">
        <ele>616.00</ele>
        <time>2017-02-18T07:11:12Z</time>
      </trkpt>
      <trkpt lat="42.543397000" lon="-2.469632000">
        <ele>616.00</ele>
        <time>2017-02-18T07:11:13Z</time>
      </trkpt>
      <trkpt lat="42.543395000" lon="-2.469628000">
        <ele>615.90</ele>
        <time>2017-02-18T07:11:14Z</time>
      </trkpt>
      <trkpt lat="42.543394000" lon="-2.469632000">
        <ele>615.90</ele>
        <time>2017-02-18T07:11:15Z</time>
      </trkpt>
      <trkpt lat="42.543391000" lon="-2.469635000">
        <ele>616.00</ele>
        <time>2017-02-18T07:11:16Z</time>
      </trkpt>
      <trkpt lat="42.543389000" lon="-2.469635000">
        <ele>616.00</ele>
        <time>2017-02-18T07:11:17Z</time>
      </trkpt>
      <trkpt lat="42.543389000" lon="-2.469636000">
        <ele>615.90</ele>
        <time>2017-02-18T07:11:18Z</time>
      </trkpt>
      <trkpt lat="42.543386000" lon="-2.469636000">
        <ele>615.90</ele>
        <time>2017-02-18T07:11:19Z</time>
      </trkpt>
      <trkpt lat="42.543387000" lon="-2.469638000">
        <ele>616.00</ele>
        <time>2017-02-18T07:11:20Z</time>
      </trkpt>
      <trkpt lat="42.543386000" lon="-2.469639000">
        <ele>616.00</ele>
        <time>2017-02-18T07:11:21Z</time>
      </trkpt>
      <trkpt lat="42.543384000" lon="-2.469635000">
        <ele>616.00</ele>
        <time>2017-02-18T07:11:22Z</time>
      </trkpt>
      <trkpt lat="42.543384000" lon="-2.469638000">
        <ele>615.90</ele>
        <time>2017-02-18T07:11:23Z</time>
      </trkpt>
      <trkpt lat="42.543384000" lon="-2.469634000">
        <ele>616.00</ele>
        <time>2017-02-18T07:11:24Z</time>
      </trkpt>
      <trkpt lat="42.543389000" lon="-2.469632000">
        <ele>616.00</ele>
        <time>2017-02-18T07:11:25Z</time>
      </trkpt>
      <trkpt lat="42.543392000" lon="-2.469633000">
        <ele>616.00</ele>
        <time>2017-02-18T07:11:26Z</time>
      </trkpt>
      <trkpt lat="42.543396000" lon="-2.469634000">
        <ele>616.10</ele>
        <time>2017-02-18T07:11:27Z</time>
      </trkpt>
      <trkpt lat="42.543397000" lon="-2.469632000">
        <ele>616.10</ele>
        <time>2017-02-18T07:11:28Z</time>
      </trkpt>
      <trkpt lat="42.543400000" lon="-2.469632000">
        <ele>616.10</ele>
        <time>2017-02-18T07:11:29Z</time>
      </trkpt>
      <trkpt lat="42.543401000" lon="-2.469627000">
        <ele>616.10</ele>
        <time>2017-02-18T07:11:30Z</time>
      </trkpt>
      <trkpt lat="42.543397000" lon="-2.469625000">
        <ele>616.10</ele>
        <time>2017-02-18T07:11:31Z</time>
      </trkpt>
      <trkpt lat="42.543391000" lon="-2.469624000">
        <ele>616.10</ele>
        <time>2017-02-18T07:11:32Z</time>
      </trkpt>
      <trkpt lat="42.543387000" lon="-2.469625000">
        <ele>616.10</ele>
        <time>2017-02-18T07:11:33Z</time>
      </trkpt>
      <trkpt lat="42.543384000" lon="-2.469621000">
        <ele>615.90</ele>
        <time>2017-02-18T07:11:34Z</time>
      </trkpt>
      <trkpt lat="42.543382000" lon="-2.469623000">
        <ele>615.80</ele>
        <time>2017-02-18T07:11:35Z</time>
      </trkpt>
      <trkpt lat="42.543380000" lon="-2.469628000">
        <ele>615.70</ele>
        <time>2017-02-18T07:11:36Z</time>
      </trkpt>
      <trkpt lat="42.543381000" lon="-2.469634000">
        <ele>615.70</ele>
        <time>2017-02-18T07:11:37Z</time>
      </trkpt>
      <trkpt lat="42.543379000" lon="-2.469632000">
        <ele>615.60</ele>
        <time>2017-02-18T07:11:38Z</time>
      </trkpt>
      <trkpt lat="42.543381000" lon="-2.469633000">
        <ele>615.60</ele>
        <time>2017-02-18T07:11:39Z</time>
      </trkpt>
      <trkpt lat="42.543381000" lon="-2.469635000">
        <ele>615.50</ele>
        <time>2017-02-18T07:11:40Z</time>
      </trkpt>
      <trkpt lat="42.543382000" lon="-2.469638000">
        <ele>615.50</ele>
        <time>2017-02-18T07:11:41Z</time>
      </trkpt>
      <trkpt lat="42.543382000" lon="-2.469642000">
        <ele>615.40</ele>
        <time>2017-02-18T07:11:42Z</time>
      </trkpt>
      <trkpt lat="42.543382000" lon="-2.469642000">
        <ele>615.40</ele>
        <time>2017-02-18T07:11:43Z</time>
      </trkpt>
      <trkpt lat="42.543380000" lon="-2.469642000">
        <ele>615.20</ele>
        <time>2017-02-18T07:11:44Z</time>
      </trkpt>
      <trkpt lat="42.543380000" lon="-2.469641000">
        <ele>615.10</ele>
        <time>2017-02-18T07:11:45Z</time>
      </trkpt>
      <trkpt lat="42.543380000" lon="-2.469640000">
        <ele>615.10</ele>
        <time>2017-02-18T07:11:46Z</time>
      </trkpt>
      <trkpt lat="42.543380000" lon="-2.469640000">
        <ele>615.00</ele>
        <time>2017-02-18T07:11:47Z</time>
      </trkpt>
      <trkpt lat="42.543382000" lon="-2.469641000">
        <ele>615.10</ele>
        <time>2017-02-18T07:11:48Z</time>
      </trkpt>
      <trkpt lat="42.543384000" lon="-2.469640000">
        <ele>615.10</ele>
        <time>2017-02-18T07:11:49Z</time>
      </trkpt>
      <trkpt lat="42.543385000" lon="-2.469636000">
        <ele>615.10</ele>
        <time>2017-02-18T07:11:50Z</time>
      </trkpt>
      <trkpt lat="42.543385000" lon="-2.469634000">
        <ele>615.20</ele>
        <time>2017-02-18T07:11:51Z</time>
      </trkpt>
      <trkpt lat="42.543386000" lon="-2.469628000">
        <ele>615.20</ele>
        <time>2017-02-18T07:11:52Z</time>
      </trkpt>
      <trkpt lat="42.543388000" lon="-2.469622000">
        <ele>615.20</ele>
        <time>2017-02-18T07:11:53Z</time>
      </trkpt>
      <trkpt lat="42.543388000" lon="-2.469617000">
        <ele>615.20</ele>
        <time>2017-02-18T07:11:54Z</time>
      </trkpt>
      <trkpt lat="42.543392000" lon="-2.469614000">
        <ele>615.30</ele>
        <time>2017-02-18T07:11:55Z</time>
      </trkpt>
      <trkpt lat="42.543397000" lon="-2.469618000">
        <ele>615.30</ele>
        <time>2017-02-18T07:11:56Z</time>
      </trkpt>
      <trkpt lat="42.543399000" lon="-2.469621000">
        <ele>615.30</ele>
        <time>2017-02-18T07:11:57Z</time>
      </trkpt>
      <trkpt lat="42.543400000" lon="-2.469621000">
        <ele>615.30</ele>
        <time>2017-02-18T07:11:58Z</time>
      </trkpt>
      <trkpt lat="42.543401000" lon="-2.469619000">
        <ele>615.20</ele>
        <time>2017-02-18T07:11:59Z</time>
      </trkpt>
      <trkpt lat="42.543402000" lon="-2.469621000">
        <ele>615.20</ele>
        <time>2017-02-18T07:12:00Z</time>
      </trkpt>
      <trkpt lat="42.543403000" lon="-2.469622000">
        <ele>615.20</ele>
        <time>2017-02-18T07:12:01Z</time>
      </trkpt>
      <trkpt lat="42.543405000" lon="-2.469621000">
        <ele>615.20</ele>
        <time>2017-02-18T07:12:02Z</time>
      </trkpt>
      <trkpt lat="42.543403000" lon="-2.469634000">
        <ele>615.00</ele>
        <time>2017-02-18T07:12:04Z</time>
      </trkpt>
      <trkpt lat="42.543405000" lon="-2.469639000">
        <ele>615.00</ele>
        <time>2017-02-18T07:12:05Z</time>
      </trkpt>
      <trkpt lat="42.543416000" lon="-2.469649000">
        <ele>614.90</ele>
        <time>2017-02-18T07:12:06Z</time>
      </trkpt>
      <trkpt lat="42.543427000" lon="-2.469657000">
        <ele>614.90</ele>
        <time>2017-02-18T07:12:07Z</time>
      </trkpt>
      <trkpt lat="42.543442000" lon="-2.469666000">
        <ele>614.90</ele>
        <time>2017-02-18T07:12:08Z</time>
      </trkpt>
      <trkpt lat="42.543458000" lon="-2.469672000">
        <ele>614.90</ele>
        <time>2017-02-18T07:12:09Z</time>
      </trkpt>
      <trkpt lat="42.543476000" lon="-2.469682000">
        <ele>614.90</ele>
        <time>2017-02-18T07:12:10Z</time>
      </trkpt>
      <trkpt lat="42.543496000" lon="-2.469698000">
        <ele>614.90</ele>
        <time>2017-02-18T07:12:11Z</time>
      </trkpt>
      <trkpt lat="42.543517000" lon="-2.469711000">
        <ele>614.90</ele>
        <time>2017-02-18T07:12:12Z</time>
      </trkpt>
      <trkpt lat="42.543541000" lon="-2.469720000">
        <ele>614.90</ele>
        <time>2017-02-18T07:12:13Z</time>
      </trkpt>
      <trkpt lat="42.543567000" lon="-2.469727000">
        <ele>614.80</ele>
        <time>2017-02-18T07:12:14Z</time>
      </trkpt>
      <trkpt lat="42.543598000" lon="-2.469734000">
        <ele>614.80</ele>
        <time>2017-02-18T07:12:15Z</time>
      </trkpt>
      <trkpt lat="42.543633000" lon="-2.469737000">
        <ele>614.60</ele>
        <time>2017-02-18T07:12:16Z</time>
      </trkpt>
      <trkpt lat="42.543669000" lon="-2.469740000">
        <ele>614.60</ele>
        <time>2017-02-18T07:12:17Z</time>
      </trkpt>
      <trkpt lat="42.543707000" lon="-2.469738000">
        <ele>614.40</ele>
        <time>2017-02-18T07:12:18Z</time>
      </trkpt>
      <trkpt lat="42.543745000" lon="-2.469739000">
        <ele>614.30</ele>
        <time>2017-02-18T07:12:19Z</time>
      </trkpt>
      <trkpt lat="42.543783000" lon="-2.469734000">
        <ele>614.20</ele>
        <time>2017-02-18T07:12:20Z</time>
      </trkpt>
      <trkpt lat="42.543819000" lon="-2.469728000">
        <ele>614.20</ele>
        <time>2017-02-18T07:12:21Z</time>
      </trkpt>
      <trkpt lat="42.543853000" lon="-2.469720000">
        <ele>614.10</ele>
        <time>2017-02-18T07:12:22Z</time>
      </trkpt>
      <trkpt lat="42.543883000" lon="-2.469712000">
        <ele>614.10</ele>
        <time>2017-02-18T07:12:23Z</time>
      </trkpt>
      <trkpt lat="42.543913000" lon="-2.469711000">
        <ele>614.00</ele>
        <time>2017-02-18T07:12:24Z</time>
      </trkpt>
      <trkpt lat="42.543941000" lon="-2.469703000">
        <ele>614.00</ele>
        <time>2017-02-18T07:12:25Z</time>
      </trkpt>
      <trkpt lat="42.543967000" lon="-2.469693000">
        <ele>614.00</ele>
        <time>2017-02-18T07:12:26Z</time>
      </trkpt>
      <trkpt lat="42.543994000" lon="-2.469688000">
        <ele>614.00</ele>
        <time>2017-02-18T07:12:27Z</time>
      </trkpt>
      <trkpt lat="42.544025000" lon="-2.469680000">
        <ele>613.80</ele>
        <time>2017-02-18T07:12:28Z</time>
      </trkpt>
      <trkpt lat="42.544052000" lon="-2.469667000">
        <ele>613.70</ele>
        <time>2017-02-18T07:12:29Z</time>
      </trkpt>
      <trkpt lat="42.544077000" lon="-2.469653000">
        <ele>613.60</ele>
        <time>2017-02-18T07:12:30Z</time>
      </trkpt>
      <trkpt lat="42.544103000" lon="-2.469646000">
        <ele>613.60</ele>
        <time>2017-02-18T07:12:31Z</time>
      </trkpt>
      <trkpt lat="42.544127000" lon="-2.469640000">
        <ele>613.50</ele>
        <time>2017-02-18T07:12:32Z</time>
      </trkpt>
      <trkpt lat="42.544150000" lon="-2.469628000">
        <ele>613.50</ele>
        <time>2017-02-18T07:12:33Z</time>
      </trkpt>
      <trkpt lat="42.544172000" lon="-2.469626000">
        <ele>613.40</ele>
        <time>2017-02-18T07:12:34Z</time>
      </trkpt>
      <trkpt lat="42.544191000" lon="-2.469628000">
        <ele>613.30</ele>
        <time>2017-02-18T07:12:35Z</time>
      </trkpt>
      <trkpt lat="42.544211000" lon="-2.469615000">
        <ele>613.30</ele>
        <time>2017-02-18T07:12:36Z</time>
      </trkpt>
      <trkpt lat="42.544232000" lon="-2.469608000">
        <ele>613.20</ele>
        <time>2017-02-18T07:12:37Z</time>
      </trkpt>
      <trkpt lat="42.544252000" lon="-2.469602000">
        <ele>613.20</ele>
        <time>2017-02-18T07:12:38Z</time>
      </trkpt>
      <trkpt lat="42.544275000" lon="-2.469594000">
        <ele>613.10</ele>
        <time>2017-02-18T07:12:39Z</time>
      </trkpt>
      <trkpt lat="42.544294000" lon="-2.469582000">
        <ele>613.10</ele>
        <time>2017-02-18T07:12:40Z</time>
      </trkpt>
      <trkpt lat="42.544315000" lon="-2.469572000">
        <ele>613.10</ele>
        <time>2017-02-18T07:12:41Z</time>
      </trkpt>
      <trkpt lat="42.544336000" lon="-2.469565000">
        <ele>613.20</ele>
        <time>2017-02-18T07:12:42Z</time>
      </trkpt>
      <trkpt lat="42.544356000" lon="-2.469557000">
        <ele>613.30</ele>
        <time>2017-02-18T07:12:43Z</time>
      </trkpt>
      <trkpt lat="42.544382000" lon="-2.469551000">
        <ele>613.40</ele>
        <time>2017-02-18T07:12:44Z</time>
      </trkpt>
      <trkpt lat="42.544404000" lon="-2.469544000">
        <ele>613.50</ele>
        <time>2017-02-18T07:12:45Z</time>
      </trkpt>
      <trkpt lat="42.544425000" lon="-2.469535000">
        <ele>613.50</ele>
        <time>2017-02-18T07:12:46Z</time>
      </trkpt>
      <trkpt lat="42.544446000" lon="-2.469522000">
        <ele>613.50</ele>
        <time>2017-02-18T07:12:47Z</time>
      </trkpt>
      <trkpt lat="42.544466000" lon="-2.469513000">
        <ele>613.50</ele>
        <time>2017-02-18T07:12:48Z</time>
      </trkpt>
      <trkpt lat="42.544491000" lon="-2.469502000">
        <ele>613.50</ele>
        <time>2017-02-18T07:12:49Z</time>
      </trkpt>
      <trkpt lat="42.544515000" lon="-2.469492000">
        <ele>613.50</ele>
        <time>2017-02-18T07:12:50Z</time>
      </trkpt>
      <trkpt lat="42.544540000" lon="-2.469482000">
        <ele>613.60</ele>
        <time>2017-02-18T07:12:51Z</time>
      </trkpt>
      <trkpt lat="42.544564000" lon="-2.469477000">
        <ele>613.60</ele>
        <time>2017-02-18T07:12:52Z</time>
      </trkpt>
      <trkpt lat="42.544591000" lon="-2.469477000">
        <ele>613.60</ele>
        <time>2017-02-18T07:12:53Z</time>
      </trkpt>
      <trkpt lat="42.544617000" lon="-2.469474000">
        <ele>613.70</ele>
        <time>2017-02-18T07:12:54Z</time>
      </trkpt>
      <trkpt lat="42.544640000" lon="-2.469465000">
        <ele>613.80</ele>
        <time>2017-02-18T07:12:55Z</time>
      </trkpt>
      <trkpt lat="42.544664000" lon="-2.469454000">
        <ele>613.70</ele>
        <time>2017-02-18T07:12:56Z</time>
      </trkpt>
      <trkpt lat="42.544688000" lon="-2.469447000">
        <ele>613.70</ele>
        <time>2017-02-18T07:12:57Z</time>
      </trkpt>
      <trkpt lat="42.544716000" lon="-2.469436000">
        <ele>613.80</ele>
        <time>2017-02-18T07:12:58Z</time>
      </trkpt>
      <trkpt lat="42.544747000" lon="-2.469427000">
        <ele>613.80</ele>
        <time>2017-02-18T07:12:59Z</time>
      </trkpt>
      <trkpt lat="42.544774000" lon="-2.469429000">
        <ele>613.80</ele>
        <time>2017-02-18T07:13:00Z</time>
      </trkpt>
      <trkpt lat="42.544804000" lon="-2.469428000">
        <ele>613.80</ele>
        <time>2017-02-18T07:13:01Z</time>
      </trkpt>
      <trkpt lat="42.544834000" lon="-2.469423000">
        <ele>613.80</ele>
        <time>2017-02-18T07:13:02Z</time>
      </trkpt>
      <trkpt lat="42.544865000" lon="-2.469422000">
        <ele>613.90</ele>
        <time>2017-02-18T07:13:03Z</time>
      </trkpt>
      <trkpt lat="42.544928000" lon="-2.469428000">
        <ele>613.80</ele>
        <time>2017-02-18T07:13:05Z</time>
      </trkpt>
      <trkpt lat="42.544959000" lon="-2.469433000">
        <ele>613.80</ele>
        <time>2017-02-18T07:13:06Z</time>
      </trkpt>
      <trkpt lat="42.544990000" lon="-2.469440000">
        <ele>613.80</ele>
        <time>2017-02-18T07:13:07Z</time>
      </trkpt>
      <trkpt lat="42.545019000" lon="-2.469450000">
        <ele>613.90</ele>
        <time>2017-02-18T07:13:08Z</time>
      </trkpt>
      <trkpt lat="42.545046000" lon="-2.469464000">
        <ele>613.90</ele>
        <time>2017-02-18T07:13:09Z</time>
      </trkpt>
      <trkpt lat="42.545073000" lon="-2.469479000">
        <ele>613.90</ele>
        <time>2017-02-18T07:13:10Z</time>
      </trkpt>
      <trkpt lat="42.545099000" lon="-2.469495000">
        <ele>613.90</ele>
        <time>2017-02-18T07:13:11Z</time>
      </trkpt>
      <trkpt lat="42.545121000" lon="-2.469511000">
        <ele>613.90</ele>
        <time>2017-02-18T07:13:12Z</time>
      </trkpt>
      <trkpt lat="42.545143000" lon="-2.469535000">
        <ele>613.90</ele>
        <time>2017-02-18T07:13:13Z</time>
      </trkpt>
      <trkpt lat="42.545169000" lon="-2.469556000">
        <ele>614.00</ele>
        <time>2017-02-18T07:13:14Z</time>
      </trkpt>
      <trkpt lat="42.545191000" lon="-2.469579000">
        <ele>614.10</ele>
        <time>2017-02-18T07:13:15Z</time>
      </trkpt>
      <trkpt lat="42.545211000" lon="-2.469602000">
        <ele>614.10</ele>
        <time>2017-02-18T07:13:16Z</time>
      </trkpt>
      <trkpt lat="42.545232000" lon="-2.469624000">
        <ele>614.20</ele>
        <time>2017-02-18T07:13:17Z</time>
      </trkpt>
      <trkpt lat="42.545254000" lon="-2.469650000">
        <ele>614.20</ele>
        <time>2017-02-18T07:13:18Z</time>
      </trkpt>
      <trkpt lat="42.545276000" lon="-2.469675000">
        <ele>614.20</ele>
        <time>2017-02-18T07:13:19Z</time>
      </trkpt>
      <trkpt lat="42.545301000" lon="-2.469702000">
        <ele>614.20</ele>
        <time>2017-02-18T07:13:20Z</time>
      </trkpt>
      <trkpt lat="42.545324000" lon="-2.469731000">
        <ele>614.30</ele>
        <time>2017-02-18T07:13:21Z</time>
      </trkpt>
      <trkpt lat="42.545346000" lon="-2.469761000">
        <ele>614.30</ele>
        <time>2017-02-18T07:13:22Z</time>
      </trkpt>
      <trkpt lat="42.545367000" lon="-2.469792000">
        <ele>614.30</ele>
        <time>2017-02-18T07:13:23Z</time>
      </trkpt>
      <trkpt lat="42.545392000" lon="-2.469818000">
        <ele>614.20</ele>
        <time>2017-02-18T07:13:24Z</time>
      </trkpt>
      <trkpt lat="42.545414000" lon="-2.469846000">
        <ele>614.10</ele>
        <time>2017-02-18T07:13:25Z</time>
      </trkpt>
      <trkpt lat="42.545438000" lon="-2.469871000">
        <ele>614.00</ele>
        <time>2017-02-18T07:13:26Z</time>
      </trkpt>
      <trkpt lat="42.545459000" lon="-2.469898000">
        <ele>613.90</ele>
        <time>2017-02-18T07:13:27Z</time>
      </trkpt>
      <trkpt lat="42.545480000" lon="-2.469926000">
        <ele>613.90</ele>
        <time>2017-02-18T07:13:28Z</time>
      </trkpt>
      <trkpt lat="42.545500000" lon="-2.469956000">
        <ele>613.80</ele>
        <time>2017-02-18T07:13:29Z</time>
      </trkpt>
      <trkpt lat="42.545522000" lon="-2.469984000">
        <ele>613.90</ele>
        <time>2017-02-18T07:13:30Z</time>
      </trkpt>
      <trkpt lat="42.545545000" lon="-2.470013000">
        <ele>614.00</ele>
        <time>2017-02-18T07:13:31Z</time>
      </trkpt>
      <trkpt lat="42.545569000" lon="-2.470039000">
        <ele>614.00</ele>
        <time>2017-02-18T07:13:32Z</time>
      </trkpt>
      <trkpt lat="42.545593000" lon="-2.470067000">
        <ele>614.00</ele>
        <time>2017-02-18T07:13:33Z</time>
      </trkpt>
      <trkpt lat="42.545620000" lon="-2.470090000">
        <ele>614.00</ele>
        <time>2017-02-18T07:13:34Z</time>
      </trkpt>
      <trkpt lat="42.545642000" lon="-2.470115000">
        <ele>614.10</ele>
        <time>2017-02-18T07:13:35Z</time>
      </trkpt>
      <trkpt lat="42.545666000" lon="-2.470141000">
        <ele>614.00</ele>
        <time>2017-02-18T07:13:36Z</time>
      </trkpt>
      <trkpt lat="42.545689000" lon="-2.470169000">
        <ele>614.00</ele>
        <time>2017-02-18T07:13:37Z</time>
      </trkpt>
      <trkpt lat="42.545714000" lon="-2.470196000">
        <ele>614.00</ele>
        <time>2017-02-18T07:13:38Z</time>
      </trkpt>
      <trkpt lat="42.545738000" lon="-2.470221000">
        <ele>613.90</ele>
        <time>2017-02-18T07:13:39Z</time>
      </trkpt>
      <trkpt lat="42.545763000" lon="-2.470243000">
        <ele>614.00</ele>
        <time>2017-02-18T07:13:40Z</time>
      </trkpt>
      <trkpt lat="42.545789000" lon="-2.470265000">
        <ele>614.10</ele>
        <time>2017-02-18T07:13:41Z</time>
      </trkpt>
      <trkpt lat="42.545815000" lon="-2.470287000">
        <ele>614.30</ele>
        <time>2017-02-18T07:13:42Z</time>
      </trkpt>
      <trkpt lat="42.545841000" lon="-2.470308000">
        <ele>614.40</ele>
        <time>2017-02-18T07:13:43Z</time>
      </trkpt>
      <trkpt lat="42.545866000" lon="-2.470327000">
        <ele>614.80</ele>
        <time>2017-02-18T07:13:44Z</time>
      </trkpt>
      <trkpt lat="42.545891000" lon="-2.470346000">
        <ele>615.10</ele>
        <time>2017-02-18T07:13:45Z</time>
      </trkpt>
      <trkpt lat="42.545914000" lon="-2.470366000">
        <ele>615.40</ele>
        <time>2017-02-18T07:13:46Z</time>
      </trkpt>
      <trkpt lat="42.545937000" lon="-2.470384000">
        <ele>615.50</ele>
        <time>2017-02-18T07:13:47Z</time>
      </trkpt>
      <trkpt lat="42.545962000" lon="-2.470406000">
        <ele>615.70</ele>
        <time>2017-02-18T07:13:48Z</time>
      </trkpt>
      <trkpt lat="42.545990000" lon="-2.470423000">
        <ele>615.70</ele>
        <time>2017-02-18T07:13:49Z</time>
      </trkpt>
      <trkpt lat="42.546021000" lon="-2.470438000">
        <ele>615.90</ele>
        <time>2017-02-18T07:13:50Z</time>
      </trkpt>
      <trkpt lat="42.546049000" lon="-2.470459000">
        <ele>616.00</ele>
        <time>2017-02-18T07:13:51Z</time>
      </trkpt>
      <trkpt lat="42.546077000" lon="-2.470477000">
        <ele>616.00</ele>
        <time>2017-02-18T07:13:52Z</time>
      </trkpt>
      <trkpt lat="42.546103000" lon="-2.470500000">
        <ele>616.10</ele>
        <time>2017-02-18T07:13:53Z</time>
      </trkpt>
      <trkpt lat="42.546130000" lon="-2.470519000">
        <ele>616.10</ele>
        <time>2017-02-18T07:13:54Z</time>
      </trkpt>
      <trkpt lat="42.546157000" lon="-2.470537000">
        <ele>616.10</ele>
        <time>2017-02-18T07:13:55Z</time>
      </trkpt>
      <trkpt lat="42.546185000" lon="-2.470557000">
        <ele>616.30</ele>
        <time>2017-02-18T07:13:56Z</time>
      </trkpt>
      <trkpt lat="42.546213000" lon="-2.470574000">
        <ele>616.40</ele>
        <time>2017-02-18T07:13:57Z</time>
      </trkpt>
      <trkpt lat="42.546240000" lon="-2.470592000">
        <ele>616.30</ele>
        <time>2017-02-18T07:13:58Z</time>
      </trkpt>
      <trkpt lat="42.546267000" lon="-2.470611000">
        <ele>616.30</ele>
        <time>2017-02-18T07:13:59Z</time>
      </trkpt>
      <trkpt lat="42.546294000" lon="-2.470633000">
        <ele>616.30</ele>
        <time>2017-02-18T07:14:00Z</time>
      </trkpt>
      <trkpt lat="42.546320000" lon="-2.470654000">
        <ele>616.30</ele>
        <time>2017-02-18T07:14:01Z</time>
      </trkpt>
      <trkpt lat="42.546347000" lon="-2.470676000">
        <ele>616.40</ele>
        <time>2017-02-18T07:14:02Z</time>
      </trkpt>
      <trkpt lat="42.546376000" lon="-2.470696000">
        <ele>616.40</ele>
        <time>2017-02-18T07:14:03Z</time>
      </trkpt>
      <trkpt lat="42.546403000" lon="-2.470719000">
        <ele>616.40</ele>
        <time>2017-02-18T07:14:04Z</time>
      </trkpt>
      <trkpt lat="42.546459000" lon="-2.470759000">
        <ele>616.60</ele>
        <time>2017-02-18T07:14:06Z</time>
      </trkpt>
      <trkpt lat="42.546485000" lon="-2.470781000">
        <ele>616.80</ele>
        <time>2017-02-18T07:14:07Z</time>
      </trkpt>
      <trkpt lat="42.546515000" lon="-2.470804000">
        <ele>616.80</ele>
        <time>2017-02-18T07:14:08Z</time>
      </trkpt>
      <trkpt lat="42.546542000" lon="-2.470820000">
        <ele>616.90</ele>
        <time>2017-02-18T07:14:09Z</time>
      </trkpt>
      <trkpt lat="42.546571000" lon="-2.470839000">
        <ele>617.00</ele>
        <time>2017-02-18T07:14:10Z</time>
      </trkpt>
      <trkpt lat="42.546596000" lon="-2.470859000">
        <ele>617.10</ele>
        <time>2017-02-18T07:14:11Z</time>
      </trkpt>
      <trkpt lat="42.546625000" lon="-2.470877000">
        <ele>617.20</ele>
        <time>2017-02-18T07:14:12Z</time>
      </trkpt>
      <trkpt lat="42.546652000" lon="-2.470899000">
        <ele>617.30</ele>
        <time>2017-02-18T07:14:13Z</time>
      </trkpt>
      <trkpt lat="42.546683000" lon="-2.470917000">
        <ele>617.40</ele>
        <time>2017-02-18T07:14:14Z</time>
      </trkpt>
      <trkpt lat="42.546710000" lon="-2.470936000">
        <ele>617.50</ele>
        <time>2017-02-18T07:14:15Z</time>
      </trkpt>
      <trkpt lat="42.546741000" lon="-2.470957000">
        <ele>617.60</ele>
        <time>2017-02-18T07:14:16Z</time>
      </trkpt>
      <trkpt lat="42.546769000" lon="-2.470979000">
        <ele>617.70</ele>
        <time>2017-02-18T07:14:17Z</time>
      </trkpt>
      <trkpt lat="42.546799000" lon="-2.471000000">
        <ele>617.80</ele>
        <time>2017-02-18T07:14:18Z</time>
      </trkpt>
      <trkpt lat="42.546830000" lon="-2.471014000">
        <ele>617.90</ele>
        <time>2017-02-18T07:14:19Z</time>
      </trkpt>
      <trkpt lat="42.546859000" lon="-2.471033000">
        <ele>617.80</ele>
        <time>2017-02-18T07:14:20Z</time>
      </trkpt>
      <trkpt lat="42.546891000" lon="-2.471052000">
        <ele>617.80</ele>
        <time>2017-02-18T07:14:21Z</time>
      </trkpt>
      <trkpt lat="42.546921000" lon="-2.471070000">
        <ele>617.80</ele>
        <time>2017-02-18T07:14:22Z</time>
      </trkpt>
      <trkpt lat="42.546950000" lon="-2.471088000">
        <ele>617.80</ele>
        <time>2017-02-18T07:14:23Z</time>
      </trkpt>
      <trkpt lat="42.546979000" lon="-2.471103000">
        <ele>617.80</ele>
        <time>2017-02-18T07:14:24Z</time>
      </trkpt>
      <trkpt lat="42.547009000" lon="-2.471117000">
        <ele>617.80</ele>
        <time>2017-02-18T07:14:25Z</time>
      </trkpt>
      <trkpt lat="42.547039000" lon="-2.471136000">
        <ele>617.90</ele>
        <time>2017-02-18T07:14:26Z</time>
      </trkpt>
      <trkpt lat="42.547069000" lon="-2.471151000">
        <ele>618.00</ele>
        <time>2017-02-18T07:14:27Z</time>
      </trkpt>
      <trkpt lat="42.547099000" lon="-2.471166000">
        <ele>618.10</ele>
        <time>2017-02-18T07:14:28Z</time>
      </trkpt>
      <trkpt lat="42.547131000" lon="-2.471179000">
        <ele>618.20</ele>
        <time>2017-02-18T07:14:29Z</time>
      </trkpt>
      <trkpt lat="42.547164000" lon="-2.471193000">
        <ele>618.30</ele>
        <time>2017-02-18T07:14:30Z</time>
      </trkpt>
      <trkpt lat="42.547194000" lon="-2.471206000">
        <ele>618.30</ele>
        <time>2017-02-18T07:14:31Z</time>
      </trkpt>
      <trkpt lat="42.547222000" lon="-2.471223000">
        <ele>618.40</ele>
        <time>2017-02-18T07:14:32Z</time>
      </trkpt>
      <trkpt lat="42.547252000" lon="-2.471242000">
        <ele>618.40</ele>
        <time>2017-02-18T07:14:33Z</time>
      </trkpt>
      <trkpt lat="42.547283000" lon="-2.471258000">
        <ele>618.40</ele>
        <time>2017-02-18T07:14:34Z</time>
      </trkpt>
      <trkpt lat="42.547313000" lon="-2.471276000">
        <ele>618.40</ele>
        <time>2017-02-18T07:14:35Z</time>
      </trkpt>
      <trkpt lat="42.547346000" lon="-2.471288000">
        <ele>618.50</ele>
        <time>2017-02-18T07:14:36Z</time>
      </trkpt>
      <trkpt lat="42.547380000" lon="-2.471301000">
        <ele>618.50</ele>
        <time>2017-02-18T07:14:37Z</time>
      </trkpt>
      <trkpt lat="42.547410000" lon="-2.471318000">
        <ele>618.60</ele>
        <time>2017-02-18T07:14:38Z</time>
      </trkpt>
      <trkpt lat="42.547443000" lon="-2.471337000">
        <ele>618.70</ele>
        <time>2017-02-18T07:14:39Z</time>
      </trkpt>
      <trkpt lat="42.547473000" lon="-2.471355000">
        <ele>618.70</ele>
        <time>2017-02-18T07:14:40Z</time>
      </trkpt>
      <trkpt lat="42.547503000" lon="-2.471370000">
        <ele>618.80</ele>
        <time>2017-02-18T07:14:41Z</time>
      </trkpt>
      <trkpt lat="42.547535000" lon="-2.471385000">
        <ele>618.80</ele>
        <time>2017-02-18T07:14:42Z</time>
      </trkpt>
      <trkpt lat="42.547566000" lon="-2.471403000">
        <ele>618.80</ele>
        <time>2017-02-18T07:14:43Z</time>
      </trkpt>
      <trkpt lat="42.547597000" lon="-2.471420000">
        <ele>618.90</ele>
        <time>2017-02-18T07:14:44Z</time>
      </trkpt>
      <trkpt lat="42.547629000" lon="-2.471433000">
        <ele>618.90</ele>
        <time>2017-02-18T07:14:45Z</time>
      </trkpt>
      <trkpt lat="42.547663000" lon="-2.471447000">
        <ele>619.00</ele>
        <time>2017-02-18T07:14:46Z</time>
      </trkpt>
      <trkpt lat="42.547696000" lon="-2.471461000">
        <ele>619.10</ele>
        <time>2017-02-18T07:14:47Z</time>
      </trkpt>
      <trkpt lat="42.547730000" lon="-2.471477000">
        <ele>619.20</ele>
        <time>2017-02-18T07:14:48Z</time>
      </trkpt>
      <trkpt lat="42.547767000" lon="-2.471494000">
        <ele>619.20</ele>
        <time>2017-02-18T07:14:49Z</time>
      </trkpt>
      <trkpt lat="42.547801000" lon="-2.471509000">
        <ele>619.00</ele>
        <time>2017-02-18T07:14:50Z</time>
      </trkpt>
      <trkpt lat="42.547835000" lon="-2.471527000">
        <ele>618.90</ele>
        <time>2017-02-18T07:14:51Z</time>
      </trkpt>
      <trkpt lat="42.547868000" lon="-2.471548000">
        <ele>618.80</ele>
        <time>2017-02-18T07:14:52Z</time>
      </trkpt>
      <trkpt lat="42.547903000" lon="-2.471567000">
        <ele>618.80</ele>
        <time>2017-02-18T07:14:53Z</time>
      </trkpt>
      <trkpt lat="42.547936000" lon="-2.471588000">
        <ele>618.80</ele>
        <time>2017-02-18T07:14:54Z</time>
      </trkpt>
      <trkpt lat="42.547973000" lon="-2.471609000">
        <ele>618.80</ele>
        <time>2017-02-18T07:14:55Z</time>
      </trkpt>
      <trkpt lat="42.548008000" lon="-2.471626000">
        <ele>618.80</ele>
        <time>2017-02-18T07:14:56Z</time>
      </trkpt>
      <trkpt lat="42.548044000" lon="-2.471643000">
        <ele>618.90</ele>
        <time>2017-02-18T07:14:57Z</time>
      </trkpt>
      <trkpt lat="42.548077000" lon="-2.471659000">
        <ele>618.90</ele>
        <time>2017-02-18T07:14:58Z</time>
      </trkpt>
      <trkpt lat="42.548112000" lon="-2.471678000">
        <ele>618.90</ele>
        <time>2017-02-18T07:14:59Z</time>
      </trkpt>
      <trkpt lat="42.548146000" lon="-2.471695000">
        <ele>619.00</ele>
        <time>2017-02-18T07:15:00Z</time>
      </trkpt>
      <trkpt lat="42.548180000" lon="-2.471713000">
        <ele>619.00</ele>
        <time>2017-02-18T07:15:01Z</time>
      </trkpt>
      <trkpt lat="42.548213000" lon="-2.471731000">
        <ele>619.00</ele>
        <time>2017-02-18T07:15:02Z</time>
      </trkpt>
      <trkpt lat="42.548244000" lon="-2.471749000">
        <ele>619.00</ele>
        <time>2017-02-18T07:15:03Z</time>
      </trkpt>
      <trkpt lat="42.548272000" lon="-2.471764000">
        <ele>619.00</ele>
        <time>2017-02-18T07:15:04Z</time>
      </trkpt>
      <trkpt lat="42.548304000" lon="-2.471777000">
        <ele>618.90</ele>
        <time>2017-02-18T07:15:05Z</time>
      </trkpt>
      <trkpt lat="42.548362000" lon="-2.471809000">
        <ele>618.90</ele>
        <time>2017-02-18T07:15:07Z</time>
      </trkpt>
      <trkpt lat="42.548391000" lon="-2.471826000">
        <ele>619.10</ele>
        <time>2017-02-18T07:15:08Z</time>
      </trkpt>
      <trkpt lat="42.548422000" lon="-2.471842000">
        <ele>619.30</ele>
        <time>2017-02-18T07:15:09Z</time>
      </trkpt>
      <trkpt lat="42.548452000" lon="-2.471857000">
        <ele>619.50</ele>
        <time>2017-02-18T07:15:10Z</time>
      </trkpt>
      <trkpt lat="42.548480000" lon="-2.471871000">
        <ele>619.60</ele>
        <time>2017-02-18T07:15:11Z</time>
      </trkpt>
      <trkpt lat="42.548511000" lon="-2.471890000">
        <ele>619.70</ele>
        <time>2017-02-18T07:15:12Z</time>
      </trkpt>
      <trkpt lat="42.548541000" lon="-2.471903000">
        <ele>619.80</ele>
        <time>2017-02-18T07:15:13Z</time>
      </trkpt>
      <trkpt lat="42.548571000" lon="-2.471919000">
        <ele>619.90</ele>
        <time>2017-02-18T07:15:14Z</time>
      </trkpt>
      <trkpt lat="42.548600000" lon="-2.471935000">
        <ele>620.00</ele>
        <time>2017-02-18T07:15:15Z</time>
      </trkpt>
      <trkpt lat="42.548629000" lon="-2.471952000">
        <ele>620.10</ele>
        <time>2017-02-18T07:15:16Z</time>
      </trkpt>
      <trkpt lat="42.548659000" lon="-2.471973000">
        <ele>620.10</ele>
        <time>2017-02-18T07:15:17Z</time>
      </trkpt>
      <trkpt lat="42.548687000" lon="-2.471993000">
        <ele>620.30</ele>
        <time>2017-02-18T07:15:18Z</time>
      </trkpt>
      <trkpt lat="42.548717000" lon="-2.472011000">
        <ele>620.30</ele>
        <time>2017-02-18T07:15:19Z</time>
      </trkpt>
      <trkpt lat="42.548747000" lon="-2.472028000">
        <ele>620.50</ele>
        <time>2017-02-18T07:15:20Z</time>
      </trkpt>
      <trkpt lat="42.548776000" lon="-2.472047000">
        <ele>620.60</ele>
        <time>2017-02-18T07:15:21Z</time>
      </trkpt>
      <trkpt lat="42.548807000" lon="-2.472065000">
        <ele>620.90</ele>
        <time>2017-02-18T07:15:22Z</time>
      </trkpt>
      <trkpt lat="42.548840000" lon="-2.472082000">
        <ele>621.10</ele>
        <time>2017-02-18T07:15:23Z</time>
      </trkpt>
      <trkpt lat="42.548872000" lon="-2.472104000">
        <ele>621.40</ele>
        <time>2017-02-18T07:15:24Z</time>
      </trkpt>
      <trkpt lat="42.548903000" lon="-2.472121000">
        <ele>621.50</ele>
        <time>2017-02-18T07:15:25Z</time>
      </trkpt>
      <trkpt lat="42.548932000" lon="-2.472142000">
        <ele>621.70</ele>
        <time>2017-02-18T07:15:26Z</time>
      </trkpt>
      <trkpt lat="42.548964000" lon="-2.472165000">
        <ele>621.80</ele>
        <time>2017-02-18T07:15:27Z</time>
      </trkpt>
      <trkpt lat="42.548993000" lon="-2.472189000">
        <ele>621.80</ele>
        <time>2017-02-18T07:15:28Z</time>
      </trkpt>
      <trkpt lat="42.549023000" lon="-2.472213000">
        <ele>621.90</ele>
        <time>2017-02-18T07:15:29Z</time>
      </trkpt>
      <trkpt lat="42.549054000" lon="-2.472236000">
        <ele>621.80</ele>
        <time>2017-02-18T07:15:30Z</time>
      </trkpt>
      <trkpt lat="42.549085000" lon="-2.472258000">
        <ele>621.80</ele>
        <time>2017-02-18T07:15:31Z</time>
      </trkpt>
      <trkpt lat="42.549115000" lon="-2.472281000">
        <ele>621.80</ele>
        <time>2017-02-18T07:15:32Z</time>
      </trkpt>
      <trkpt lat="42.549145000" lon="-2.472307000">
        <ele>621.90</ele>
        <time>2017-02-18T07:15:33Z</time>
      </trkpt>
      <trkpt lat="42.549173000" lon="-2.472331000">
        <ele>621.80</ele>
        <time>2017-02-18T07:15:34Z</time>
      </trkpt>
      <trkpt lat="42.549203000" lon="-2.472356000">
        <ele>621.70</ele>
        <time>2017-02-18T07:15:35Z</time>
      </trkpt>
      <trkpt lat="42.549230000" lon="-2.472382000">
        <ele>621.70</ele>
        <time>2017-02-18T07:15:36Z</time>
      </trkpt>
      <trkpt lat="42.549256000" lon="-2.472409000">
        <ele>621.70</ele>
        <time>2017-02-18T07:15:37Z</time>
      </trkpt>
      <trkpt lat="42.549286000" lon="-2.472435000">
        <ele>621.70</ele>
        <time>2017-02-18T07:15:38Z</time>
      </trkpt>
      <trkpt lat="42.549319000" lon="-2.472459000">
        <ele>621.60</ele>
        <time>2017-02-18T07:15:39Z</time>
      </trkpt>
      <trkpt lat="42.549346000" lon="-2.472485000">
        <ele>621.60</ele>
        <time>2017-02-18T07:15:40Z</time>
      </trkpt>
      <trkpt lat="42.549375000" lon="-2.472514000">
        <ele>621.60</ele>
        <time>2017-02-18T07:15:41Z</time>
      </trkpt>
      <trkpt lat="42.549402000" lon="-2.472545000">
        <ele>621.80</ele>
        <time>2017-02-18T07:15:42Z</time>
      </trkpt>
      <trkpt lat="42.549429000" lon="-2.472569000">
        <ele>621.90</ele>
        <time>2017-02-18T07:15:43Z</time>
      </trkpt>
      <trkpt lat="42.549454000" lon="-2.472589000">
        <ele>622.00</ele>
        <time>2017-02-18T07:15:44Z</time>
      </trkpt>
      <trkpt lat="42.549483000" lon="-2.472614000">
        <ele>622.10</ele>
        <time>2017-02-18T07:15:45Z</time>
      </trkpt>
      <trkpt lat="42.549512000" lon="-2.472640000">
        <ele>622.20</ele>
        <time>2017-02-18T07:15:46Z</time>
      </trkpt>
      <trkpt lat="42.549539000" lon="-2.472667000">
        <ele>622.30</ele>
        <time>2017-02-18T07:15:47Z</time>
      </trkpt>
      <trkpt lat="42.549567000" lon="-2.472695000">
        <ele>622.20</ele>
        <time>2017-02-18T07:15:48Z</time>
      </trkpt>
      <trkpt lat="42.549594000" lon="-2.472722000">
        <ele>622.10</ele>
        <time>2017-02-18T07:15:49Z</time>
      </trkpt>
      <trkpt lat="42.549624000" lon="-2.472749000">
        <ele>622.20</ele>
        <time>2017-02-18T07:15:50Z</time>
      </trkpt>
      <trkpt lat="42.549649000" lon="-2.472773000">
        <ele>622.20</ele>
        <time>2017-02-18T07:15:51Z</time>
      </trkpt>
      <trkpt lat="42.549674000" lon="-2.472799000">
        <ele>622.20</ele>
        <time>2017-02-18T07:15:52Z</time>
      </trkpt>
      <trkpt lat="42.549699000" lon="-2.472824000">
        <ele>622.20</ele>
        <time>2017-02-18T07:15:53Z</time>
      </trkpt>
      <trkpt lat="42.549727000" lon="-2.472851000">
        <ele>622.30</ele>
        <time>2017-02-18T07:15:54Z</time>
      </trkpt>
      <trkpt lat="42.549755000" lon="-2.472875000">
        <ele>622.30</ele>
        <time>2017-02-18T07:15:55Z</time>
      </trkpt>
      <trkpt lat="42.549780000" lon="-2.472904000">
        <ele>622.40</ele>
        <time>2017-02-18T07:15:56Z</time>
      </trkpt>
      <trkpt lat="42.549808000" lon="-2.472931000">
        <ele>622.50</ele>
        <time>2017-02-18T07:15:57Z</time>
      </trkpt>
      <trkpt lat="42.549836000" lon="-2.472953000">
        <ele>622.60</ele>
        <time>2017-02-18T07:15:58Z</time>
      </trkpt>
      <trkpt lat="42.549863000" lon="-2.472980000">
        <ele>622.70</ele>
        <time>2017-02-18T07:15:59Z</time>
      </trkpt>
      <trkpt lat="42.549889000" lon="-2.473009000">
        <ele>622.80</ele>
        <time>2017-02-18T07:16:00Z</time>
      </trkpt>
      <trkpt lat="42.549914000" lon="-2.473039000">
        <ele>622.80</ele>
        <time>2017-02-18T07:16:01Z</time>
      </trkpt>
      <trkpt lat="42.549940000" lon="-2.473066000">
        <ele>622.90</ele>
        <time>2017-02-18T07:16:02Z</time>
      </trkpt>
      <trkpt lat="42.549966000" lon="-2.473089000">
        <ele>622.90</ele>
        <time>2017-02-18T07:16:03Z</time>
      </trkpt>
      <trkpt lat="42.549994000" lon="-2.473114000">
        <ele>622.90</ele>
        <time>2017-02-18T07:16:04Z</time>
      </trkpt>
      <trkpt lat="42.550020000" lon="-2.473137000">
        <ele>622.90</ele>
        <time>2017-02-18T07:16:05Z</time>
      </trkpt>
      <trkpt lat="42.550043000" lon="-2.473162000">
        <ele>623.00</ele>
        <time>2017-02-18T07:16:06Z</time>
      </trkpt>
      <trkpt lat="42.550092000" lon="-2.473212000">
        <ele>623.10</ele>
        <time>2017-02-18T07:16:08Z</time>
      </trkpt>
      <trkpt lat="42.550118000" lon="-2.473234000">
        <ele>623.20</ele>
        <time>2017-02-18T07:16:09Z</time>
      </trkpt>
      <trkpt lat="42.550144000" lon="-2.473256000">
        <ele>623.30</ele>
        <time>2017-02-18T07:16:10Z</time>
      </trkpt>
      <trkpt lat="42.550170000" lon="-2.473279000">
        <ele>623.30</ele>
        <time>2017-02-18T07:16:11Z</time>
      </trkpt>
      <trkpt lat="42.550196000" lon="-2.473298000">
        <ele>623.40</ele>
        <time>2017-02-18T07:16:12Z</time>
      </trkpt>
      <trkpt lat="42.550220000" lon="-2.473321000">
        <ele>623.40</ele>
        <time>2017-02-18T07:16:13Z</time>
      </trkpt>
      <trkpt lat="42.550243000" lon="-2.473342000">
        <ele>623.60</ele>
        <time>2017-02-18T07:16:14Z</time>
      </trkpt>
      <trkpt lat="42.550268000" lon="-2.473362000">
        <ele>623.70</ele>
        <time>2017-02-18T07:16:15Z</time>
      </trkpt>
      <trkpt lat="42.550292000" lon="-2.473383000">
        <ele>623.80</ele>
        <time>2017-02-18T07:16:16Z</time>
      </trkpt>
      <trkpt lat="42.550315000" lon="-2.473406000">
        <ele>623.80</ele>
        <time>2017-02-18T07:16:17Z</time>
      </trkpt>
      <trkpt lat="42.550342000" lon="-2.473428000">
        <ele>623.80</ele>
        <time>2017-02-18T07:16:18Z</time>
      </trkpt>
      <trkpt lat="42.550366000" lon="-2.473450000">
        <ele>623.80</ele>
        <time>2017-02-18T07:16:19Z</time>
      </trkpt>
      <trkpt lat="42.550392000" lon="-2.473471000">
        <ele>623.70</ele>
        <time>2017-02-18T07:16:20Z</time>
      </trkpt>
      <trkpt lat="42.550418000" lon="-2.473493000">
        <ele>623.70</ele>
        <time>2017-02-18T07:16:21Z</time>
      </trkpt>
      <trkpt lat="42.550450000" lon="-2.473518000">
        <ele>623.60</ele>
        <time>2017-02-18T07:16:22Z</time>
      </trkpt>
      <trkpt lat="42.550478000" lon="-2.473543000">
        <ele>623.60</ele>
        <time>2017-02-18T07:16:23Z</time>
      </trkpt>
      <trkpt lat="42.550511000" lon="-2.473570000">
        <ele>623.50</ele>
        <time>2017-02-18T07:16:24Z</time>
      </trkpt>
      <trkpt lat="42.550538000" lon="-2.473595000">
        <ele>623.50</ele>
        <time>2017-02-18T07:16:25Z</time>
      </trkpt>
      <trkpt lat="42.550567000" lon="-2.473621000">
        <ele>623.40</ele>
        <time>2017-02-18T07:16:26Z</time>
      </trkpt>
      <trkpt lat="42.550600000" lon="-2.473646000">
        <ele>623.40</ele>
        <time>2017-02-18T07:16:27Z</time>
      </trkpt>
      <trkpt lat="42.550633000" lon="-2.473676000">
        <ele>623.40</ele>
        <time>2017-02-18T07:16:28Z</time>
      </trkpt>
      <trkpt lat="42.550667000" lon="-2.473706000">
        <ele>623.40</ele>
        <time>2017-02-18T07:16:29Z</time>
      </trkpt>
      <trkpt lat="42.550702000" lon="-2.473736000">
        <ele>623.20</ele>
        <time>2017-02-18T07:16:30Z</time>
      </trkpt>
      <trkpt lat="42.550738000" lon="-2.473765000">
        <ele>623.10</ele>
        <time>2017-02-18T07:16:31Z</time>
      </trkpt>
      <trkpt lat="42.550775000" lon="-2.473796000">
        <ele>623.10</ele>
        <time>2017-02-18T07:16:32Z</time>
      </trkpt>
      <trkpt lat="42.550814000" lon="-2.473826000">
        <ele>623.00</ele>
        <time>2017-02-18T07:16:33Z</time>
      </trkpt>
      <trkpt lat="42.550852000" lon="-2.473859000">
        <ele>622.90</ele>
        <time>2017-02-18T07:16:34Z</time>
      </trkpt>
      <trkpt lat="42.550886000" lon="-2.473886000">
        <ele>622.80</ele>
        <time>2017-02-18T07:16:35Z</time>
      </trkpt>
      <trkpt lat="42.550918000" lon="-2.473912000">
        <ele>622.70</ele>
        <time>2017-02-18T07:16:36Z</time>
      </trkpt>
      <trkpt lat="42.550950000" lon="-2.473938000">
        <ele>622.70</ele>
        <time>2017-02-18T07:16:37Z</time>
      </trkpt>
      <trkpt lat="42.550984000" lon="-2.473964000">
        <ele>622.60</ele>
        <time>2017-02-18T07:16:38Z</time>
      </trkpt>
      <trkpt lat="42.551020000" lon="-2.473989000">
        <ele>622.60</ele>
        <time>2017-02-18T07:16:39Z</time>
      </trkpt>
      <trkpt lat="42.551053000" lon="-2.474016000">
        <ele>622.60</ele>
        <time>2017-02-18T07:16:40Z</time>
      </trkpt>
      <trkpt lat="42.551081000" lon="-2.474043000">
        <ele>622.50</ele>
        <time>2017-02-18T07:16:41Z</time>
      </trkpt>
      <trkpt lat="42.551111000" lon="-2.474069000">
        <ele>622.40</ele>
        <time>2017-02-18T07:16:42Z</time>
      </trkpt>
      <trkpt lat="42.551142000" lon="-2.474095000">
        <ele>622.40</ele>
        <time>2017-02-18T07:16:43Z</time>
      </trkpt>
      <trkpt lat="42.551174000" lon="-2.474120000">
        <ele>622.30</ele>
        <time>2017-02-18T07:16:44Z</time>
      </trkpt>
      <trkpt lat="42.551205000" lon="-2.474145000">
        <ele>622.30</ele>
        <time>2017-02-18T07:16:45Z</time>
      </trkpt>
      <trkpt lat="42.551237000" lon="-2.474170000">
        <ele>622.20</ele>
        <time>2017-02-18T07:16:46Z</time>
      </trkpt>
      <trkpt lat="42.551266000" lon="-2.474197000">
        <ele>622.20</ele>
        <time>2017-02-18T07:16:47Z</time>
      </trkpt>
      <trkpt lat="42.551298000" lon="-2.474223000">
        <ele>622.30</ele>
        <time>2017-02-18T07:16:48Z</time>
      </trkpt>
      <trkpt lat="42.551327000" lon="-2.474252000">
        <ele>622.20</ele>
        <time>2017-02-18T07:16:49Z</time>
      </trkpt>
      <trkpt lat="42.551359000" lon="-2.474279000">
        <ele>622.20</ele>
        <time>2017-02-18T07:16:50Z</time>
      </trkpt>
      <trkpt lat="42.551392000" lon="-2.474304000">
        <ele>622.30</ele>
        <time>2017-02-18T07:16:51Z</time>
      </trkpt>
      <trkpt lat="42.551426000" lon="-2.474330000">
        <ele>622.40</ele>
        <time>2017-02-18T07:16:52Z</time>
      </trkpt>
      <trkpt lat="42.551459000" lon="-2.474356000">
        <ele>622.50</ele>
        <time>2017-02-18T07:16:53Z</time>
      </trkpt>
      <trkpt lat="42.551491000" lon="-2.474385000">
        <ele>622.50</ele>
        <time>2017-02-18T07:16:54Z</time>
      </trkpt>
      <trkpt lat="42.551524000" lon="-2.474411000">
        <ele>622.60</ele>
        <time>2017-02-18T07:16:55Z</time>
      </trkpt>
      <trkpt lat="42.551558000" lon="-2.474439000">
        <ele>622.70</ele>
        <time>2017-02-18T07:16:56Z</time>
      </trkpt>
      <trkpt lat="42.551594000" lon="-2.474468000">
        <ele>622.70</ele>
        <time>2017-02-18T07:16:57Z</time>
      </trkpt>
      <trkpt lat="42.551631000" lon="-2.474492000">
        <ele>622.80</ele>
        <time>2017-02-18T07:16:58Z</time>
      </trkpt>
      <trkpt lat="42.551663000" lon="-2.474521000">
        <ele>622.70</ele>
        <time>2017-02-18T07:16:59Z</time>
      </trkpt>
      <trkpt lat="42.551696000" lon="-2.474548000">
        <ele>622.70</ele>
        <time>2017-02-18T07:17:00Z</time>
      </trkpt>
      <trkpt lat="42.551729000" lon="-2.474575000">
        <ele>622.60</ele>
        <time>2017-02-18T07:17:01Z</time>
      </trkpt>
      <trkpt lat="42.551760000" lon="-2.474605000">
        <ele>622.50</ele>
        <time>2017-02-18T07:17:02Z</time>
      </trkpt>
      <trkpt lat="42.551794000" lon="-2.474633000">
        <ele>622.40</ele>
        <time>2017-02-18T07:17:03Z</time>
      </trkpt>
      <trkpt lat="42.551826000" lon="-2.474660000">
        <ele>622.30</ele>
        <time>2017-02-18T07:17:04Z</time>
      </trkpt>
      <trkpt lat="42.551857000" lon="-2.474687000">
        <ele>622.20</ele>
        <time>2017-02-18T07:17:05Z</time>
      </trkpt>
      <trkpt lat="42.551889000" lon="-2.474711000">
        <ele>622.10</ele>
        <time>2017-02-18T07:17:06Z</time>
      </trkpt>
      <trkpt lat="42.551921000" lon="-2.474738000">
        <ele>622.10</ele>
        <time>2017-02-18T07:17:07Z</time>
      </trkpt>
      <trkpt lat="42.551985000" lon="-2.474800000">
        <ele>622.00</ele>
        <time>2017-02-18T07:17:09Z</time>
      </trkpt>
      <trkpt lat="42.552017000" lon="-2.474826000">
        <ele>621.90</ele>
        <time>2017-02-18T07:17:10Z</time>
      </trkpt>
      <trkpt lat="42.552051000" lon="-2.474850000">
        <ele>621.90</ele>
        <time>2017-02-18T07:17:11Z</time>
      </trkpt>
      <trkpt lat="42.552085000" lon="-2.474873000">
        <ele>621.90</ele>
        <time>2017-02-18T07:17:12Z</time>
      </trkpt>
      <trkpt lat="42.552120000" lon="-2.474895000">
        <ele>621.90</ele>
        <time>2017-02-18T07:17:13Z</time>
      </trkpt>
      <trkpt lat="42.552152000" lon="-2.474917000">
        <ele>622.00</ele>
        <time>2017-02-18T07:17:14Z</time>
      </trkpt>
      <trkpt lat="42.552183000" lon="-2.474940000">
        <ele>622.00</ele>
        <time>2017-02-18T07:17:15Z</time>
      </trkpt>
      <trkpt lat="42.552215000" lon="-2.474961000">
        <ele>622.10</ele>
        <time>2017-02-18T07:17:16Z</time>
      </trkpt>
      <trkpt lat="42.552245000" lon="-2.474981000">
        <ele>622.20</ele>
        <time>2017-02-18T07:17:17Z</time>
      </trkpt>
      <trkpt lat="42.552279000" lon="-2.475002000">
        <ele>622.20</ele>
        <time>2017-02-18T07:17:18Z</time>
      </trkpt>
      <trkpt lat="42.552311000" lon="-2.475023000">
        <ele>622.30</ele>
        <time>2017-02-18T07:17:19Z</time>
      </trkpt>
      <trkpt lat="42.552344000" lon="-2.475040000">
        <ele>622.30</ele>
        <time>2017-02-18T07:17:20Z</time>
      </trkpt>
      <trkpt lat="42.552375000" lon="-2.475055000">
        <ele>622.50</ele>
        <time>2017-02-18T07:17:21Z</time>
      </trkpt>
      <trkpt lat="42.552407000" lon="-2.475068000">
        <ele>622.70</ele>
        <time>2017-02-18T07:17:22Z</time>
      </trkpt>
      <trkpt lat="42.552439000" lon="-2.475081000">
        <ele>622.80</ele>
        <time>2017-02-18T07:17:23Z</time>
      </trkpt>
      <trkpt lat="42.552469000" lon="-2.475095000">
        <ele>622.80</ele>
        <time>2017-02-18T07:17:24Z</time>
      </trkpt>
      <trkpt lat="42.552499000" lon="-2.475107000">
        <ele>622.90</ele>
        <time>2017-02-18T07:17:25Z</time>
      </trkpt>
      <trkpt lat="42.552529000" lon="-2.475121000">
        <ele>622.90</ele>
        <time>2017-02-18T07:17:26Z</time>
      </trkpt>
      <trkpt lat="42.552557000" lon="-2.475130000">
        <ele>622.90</ele>
        <time>2017-02-18T07:17:27Z</time>
      </trkpt>
      <trkpt lat="42.552585000" lon="-2.475138000">
        <ele>623.00</ele>
        <time>2017-02-18T07:17:28Z</time>
      </trkpt>
      <trkpt lat="42.552611000" lon="-2.475142000">
        <ele>623.00</ele>
        <time>2017-02-18T07:17:29Z</time>
      </trkpt>
      <trkpt lat="42.552639000" lon="-2.475147000">
        <ele>623.00</ele>
        <time>2017-02-18T07:17:30Z</time>
      </trkpt>
      <trkpt lat="42.552669000" lon="-2.475151000">
        <ele>623.30</ele>
        <time>2017-02-18T07:17:31Z</time>
      </trkpt>
      <trkpt lat="42.552696000" lon="-2.475158000">
        <ele>623.50</ele>
        <time>2017-02-18T07:17:32Z</time>
      </trkpt>
      <trkpt lat="42.552724000" lon="-2.475167000">
        <ele>623.70</ele>
        <time>2017-02-18T07:17:33Z</time>
      </trkpt>
      <trkpt lat="42.552749000" lon="-2.475177000">
        <ele>623.90</ele>
        <time>2017-02-18T07:17:34Z</time>
      </trkpt>
      <trkpt lat="42.552773000" lon="-2.475181000">
        <ele>624.00</ele>
        <time>2017-02-18T07:17:35Z</time>
      </trkpt>
      <trkpt lat="42.552801000" lon="-2.475190000">
        <ele>624.10</ele>
        <time>2017-02-18T07:17:36Z</time>
      </trkpt>
      <trkpt lat="42.552829000" lon="-2.475198000">
        <ele>624.30</ele>
        <time>2017-02-18T07:17:37Z</time>
      </trkpt>
      <trkpt lat="42.552855000" lon="-2.475208000">
        <ele>624.40</ele>
        <time>2017-02-18T07:17:38Z</time>
      </trkpt>
      <trkpt lat="42.552881000" lon="-2.475215000">
        <ele>624.50</ele>
        <time>2017-02-18T07:17:39Z</time>
      </trkpt>
      <trkpt lat="42.552907000" lon="-2.475222000">
        <ele>624.60</ele>
        <time>2017-02-18T07:17:40Z</time>
      </trkpt>
      <trkpt lat="42.552933000" lon="-2.475232000">
        <ele>624.90</ele>
        <time>2017-02-18T07:17:41Z</time>
      </trkpt>
      <trkpt lat="42.552959000" lon="-2.475237000">
        <ele>625.00</ele>
        <time>2017-02-18T07:17:42Z</time>
      </trkpt>
      <trkpt lat="42.552985000" lon="-2.475243000">
        <ele>625.20</ele>
        <time>2017-02-18T07:17:43Z</time>
      </trkpt>
      <trkpt lat="42.553013000" lon="-2.475250000">
        <ele>625.40</ele>
        <time>2017-02-18T07:17:44Z</time>
      </trkpt>
      <trkpt lat="42.553040000" lon="-2.475260000">
        <ele>625.70</ele>
        <time>2017-02-18T07:17:45Z</time>
      </trkpt>
      <trkpt lat="42.553067000" lon="-2.475272000">
        <ele>626.00</ele>
        <time>2017-02-18T07:17:46Z</time>
      </trkpt>
      <trkpt lat="42.553090000" lon="-2.475279000">
        <ele>626.10</ele>
        <time>2017-02-18T07:17:47Z</time>
      </trkpt>
      <trkpt lat="42.553112000" lon="-2.475285000">
        <ele>626.20</ele>
        <time>2017-02-18T07:17:48Z</time>
      </trkpt>
      <trkpt lat="42.553136000" lon="-2.475295000">
        <ele>626.60</ele>
        <time>2017-02-18T07:17:49Z</time>
      </trkpt>
      <trkpt lat="42.553157000" lon="-2.475301000">
        <ele>626.90</ele>
        <time>2017-02-18T07:17:50Z</time>
      </trkpt>
      <trkpt lat="42.553180000" lon="-2.475301000">
        <ele>627.30</ele>
        <time>2017-02-18T07:17:51Z</time>
      </trkpt>
      <trkpt lat="42.553205000" lon="-2.475305000">
        <ele>627.50</ele>
        <time>2017-02-18T07:17:52Z</time>
      </trkpt>
      <trkpt lat="42.553231000" lon="-2.475309000">
        <ele>627.80</ele>
        <time>2017-02-18T07:17:53Z</time>
      </trkpt>
      <trkpt lat="42.553258000" lon="-2.475314000">
        <ele>628.00</ele>
        <time>2017-02-18T07:17:54Z</time>
      </trkpt>
      <trkpt lat="42.553285000" lon="-2.475319000">
        <ele>628.20</ele>
        <time>2017-02-18T07:17:55Z</time>
      </trkpt>
      <trkpt lat="42.553311000" lon="-2.475328000">
        <ele>628.30</ele>
        <time>2017-02-18T07:17:56Z</time>
      </trkpt>
      <trkpt lat="42.553337000" lon="-2.475338000">
        <ele>628.40</ele>
        <time>2017-02-18T07:17:57Z</time>
      </trkpt>
      <trkpt lat="42.553359000" lon="-2.475350000">
        <ele>628.50</ele>
        <time>2017-02-18T07:17:58Z</time>
      </trkpt>
      <trkpt lat="42.553382000" lon="-2.475358000">
        <ele>628.80</ele>
        <time>2017-02-18T07:17:59Z</time>
      </trkpt>
      <trkpt lat="42.553405000" lon="-2.475362000">
        <ele>629.00</ele>
        <time>2017-02-18T07:18:00Z</time>
      </trkpt>
      <trkpt lat="42.553429000" lon="-2.475371000">
        <ele>629.30</ele>
        <time>2017-02-18T07:18:01Z</time>
      </trkpt>
      <trkpt lat="42.553452000" lon="-2.475378000">
        <ele>629.50</ele>
        <time>2017-02-18T07:18:02Z</time>
      </trkpt>
      <trkpt lat="42.553474000" lon="-2.475383000">
        <ele>630.00</ele>
        <time>2017-02-18T07:18:03Z</time>
      </trkpt>
      <trkpt lat="42.553495000" lon="-2.475388000">
        <ele>630.30</ele>
        <time>2017-02-18T07:18:04Z</time>
      </trkpt>
      <trkpt lat="42.553519000" lon="-2.475397000">
        <ele>630.60</ele>
        <time>2017-02-18T07:18:05Z</time>
      </trkpt>
      <trkpt lat="42.553541000" lon="-2.475402000">
        <ele>630.80</ele>
        <time>2017-02-18T07:18:06Z</time>
      </trkpt>
      <trkpt lat="42.553564000" lon="-2.475408000">
        <ele>631.00</ele>
        <time>2017-02-18T07:18:07Z</time>
      </trkpt>
      <trkpt lat="42.553584000" lon="-2.475412000">
        <ele>631.20</ele>
        <time>2017-02-18T07:18:08Z</time>
      </trkpt>
      <trkpt lat="42.553627000" lon="-2.475419000">
        <ele>631.60</ele>
        <time>2017-02-18T07:18:10Z</time>
      </trkpt>
      <trkpt lat="42.553648000" lon="-2.475424000">
        <ele>631.80</ele>
        <time>2017-02-18T07:18:11Z</time>
      </trkpt>
      <trkpt lat="42.553670000" lon="-2.475433000">
        <ele>631.90</ele>
        <time>2017-02-18T07:18:12Z</time>
      </trkpt>
      <trkpt lat="42.553692000" lon="-2.475437000">
        <ele>632.10</ele>
        <time>2017-02-18T07:18:13Z</time>
      </trkpt>
      <trkpt lat="42.553716000" lon="-2.475442000">
        <ele>632.20</ele>
        <time>2017-02-18T07:18:14Z</time>
      </trkpt>
      <trkpt lat="42.553738000" lon="-2.475447000">
        <ele>632.60</ele>
        <time>2017-02-18T07:18:15Z</time>
      </trkpt>
      <trkpt lat="42.553759000" lon="-2.475447000">
        <ele>632.80</ele>
        <time>2017-02-18T07:18:16Z</time>
      </trkpt>
      <trkpt lat="42.553783000" lon="-2.475451000">
        <ele>633.10</ele>
        <time>2017-02-18T07:18:17Z</time>
      </trkpt>
      <trkpt lat="42.553803000" lon="-2.475453000">
        <ele>633.30</ele>
        <time>2017-02-18T07:18:18Z</time>
      </trkpt>
      <trkpt lat="42.553825000" lon="-2.475455000">
        <ele>633.90</ele>
        <time>2017-02-18T07:18:19Z</time>
      </trkpt>
      <trkpt lat="42.553846000" lon="-2.475460000">
        <ele>634.30</ele>
        <time>2017-02-18T07:18:20Z</time>
      </trkpt>
      <trkpt lat="42.553868000" lon="-2.475465000">
        <ele>634.60</ele>
        <time>2017-02-18T07:18:21Z</time>
      </trkpt>
      <trkpt lat="42.553888000" lon="-2.475462000">
        <ele>634.90</ele>
        <time>2017-02-18T07:18:22Z</time>
      </trkpt>
      <trkpt lat="42.553911000" lon="-2.475461000">
        <ele>635.10</ele>
        <time>2017-02-18T07:18:23Z</time>
      </trkpt>
      <trkpt lat="42.553936000" lon="-2.475460000">
        <ele>635.20</ele>
        <time>2017-02-18T07:18:24Z</time>
      </trkpt>
      <trkpt lat="42.553957000" lon="-2.475457000">
        <ele>635.30</ele>
        <time>2017-02-18T07:18:25Z</time>
      </trkpt>
      <trkpt lat="42.553977000" lon="-2.475453000">
        <ele>635.40</ele>
        <time>2017-02-18T07:18:26Z</time>
      </trkpt>
      <trkpt lat="42.553999000" lon="-2.475446000">
        <ele>635.60</ele>
        <time>2017-02-18T07:18:27Z</time>
      </trkpt>
      <trkpt lat="42.554020000" lon="-2.475438000">
        <ele>635.80</ele>
        <time>2017-02-18T07:18:28Z</time>
      </trkpt>
      <trkpt lat="42.554039000" lon="-2.475434000">
        <ele>636.00</ele>
        <time>2017-02-18T07:18:29Z</time>
      </trkpt>
      <trkpt lat="42.554060000" lon="-2.475426000">
        <ele>636.10</ele>
        <time>2017-02-18T07:18:30Z</time>
      </trkpt>
      <trkpt lat="42.554081000" lon="-2.475421000">
        <ele>636.50</ele>
        <time>2017-02-18T07:18:31Z</time>
      </trkpt>
      <trkpt lat="42.554100000" lon="-2.475412000">
        <ele>636.90</ele>
        <time>2017-02-18T07:18:32Z</time>
      </trkpt>
      <trkpt lat="42.554118000" lon="-2.475402000">
        <ele>637.10</ele>
        <time>2017-02-18T07:18:33Z</time>
      </trkpt>
      <trkpt lat="42.554137000" lon="-2.475396000">
        <ele>637.30</ele>
        <time>2017-02-18T07:18:34Z</time>
      </trkpt>
      <trkpt lat="42.554155000" lon="-2.475392000">
        <ele>637.40</ele>
        <time>2017-02-18T07:18:35Z</time>
      </trkpt>
      <trkpt lat="42.554175000" lon="-2.475384000">
        <ele>637.50</ele>
        <time>2017-02-18T07:18:36Z</time>
      </trkpt>
      <trkpt lat="42.554197000" lon="-2.475373000">
        <ele>637.60</ele>
        <time>2017-02-18T07:18:37Z</time>
      </trkpt>
      <trkpt lat="42.554218000" lon="-2.475369000">
        <ele>637.70</ele>
        <time>2017-02-18T07:18:38Z</time>
      </trkpt>
      <trkpt lat="42.554238000" lon="-2.475362000">
        <ele>637.90</ele>
        <time>2017-02-18T07:18:39Z</time>
      </trkpt>
      <trkpt lat="42.554258000" lon="-2.475351000">
        <ele>638.00</ele>
        <time>2017-02-18T07:18:40Z</time>
      </trkpt>
      <trkpt lat="42.554275000" lon="-2.475344000">
        <ele>638.30</ele>
        <time>2017-02-18T07:18:41Z</time>
      </trkpt>
      <trkpt lat="42.554291000" lon="-2.475331000">
        <ele>638.40</ele>
        <time>2017-02-18T07:18:42Z</time>
      </trkpt>
      <trkpt lat="42.554308000" lon="-2.475322000">
        <ele>638.90</ele>
        <time>2017-02-18T07:18:43Z</time>
      </trkpt>
      <trkpt lat="42.554322000" lon="-2.475317000">
        <ele>639.30</ele>
        <time>2017-02-18T07:18:44Z</time>
      </trkpt>
      <trkpt lat="42.554342000" lon="-2.475314000">
        <ele>639.70</ele>
        <time>2017-02-18T07:18:45Z</time>
      </trkpt>
      <trkpt lat="42.554359000" lon="-2.475309000">
        <ele>639.90</ele>
        <time>2017-02-18T07:18:46Z</time>
      </trkpt>
      <trkpt lat="42.554376000" lon="-2.475299000">
        <ele>640.10</ele>
        <time>2017-02-18T07:18:47Z</time>
      </trkpt>
      <trkpt lat="42.554393000" lon="-2.475290000">
        <ele>640.30</ele>
        <time>2017-02-18T07:18:48Z</time>
      </trkpt>
      <trkpt lat="42.554408000" lon="-2.475281000">
        <ele>640.40</ele>
        <time>2017-02-18T07:18:49Z</time>
      </trkpt>
      <trkpt lat="42.554426000" lon="-2.475277000">
        <ele>640.60</ele>
        <time>2017-02-18T07:18:50Z</time>
      </trkpt>
      <trkpt lat="42.554444000" lon="-2.475270000">
        <ele>640.60</ele>
        <time>2017-02-18T07:18:51Z</time>
      </trkpt>
      <trkpt lat="42.554463000" lon="-2.475260000">
        <ele>640.70</ele>
        <time>2017-02-18T07:18:52Z</time>
      </trkpt>
      <trkpt lat="42.554478000" lon="-2.475248000">
        <ele>641.00</ele>
        <time>2017-02-18T07:18:53Z</time>
      </trkpt>
      <trkpt lat="42.554495000" lon="-2.475234000">
        <ele>641.10</ele>
        <time>2017-02-18T07:18:54Z</time>
      </trkpt>
      <trkpt lat="42.554515000" lon="-2.475222000">
        <ele>641.50</ele>
        <time>2017-02-18T07:18:55Z</time>
      </trkpt>
      <trkpt lat="42.554534000" lon="-2.475213000">
        <ele>641.80</ele>
        <time>2017-02-18T07:18:56Z</time>
      </trkpt>
      <trkpt lat="42.554555000" lon="-2.475207000">
        <ele>642.10</ele>
        <time>2017-02-18T07:18:57Z</time>
      </trkpt>
      <trkpt lat="42.554576000" lon="-2.475201000">
        <ele>642.30</ele>
        <time>2017-02-18T07:18:58Z</time>
      </trkpt>
      <trkpt lat="42.554597000" lon="-2.475191000">
        <ele>642.50</ele>
        <time>2017-02-18T07:18:59Z</time>
      </trkpt>
      <trkpt lat="42.554616000" lon="-2.475184000">
        <ele>642.60</ele>
        <time>2017-02-18T07:19:00Z</time>
      </trkpt>
      <trkpt lat="42.554636000" lon="-2.475177000">
        <ele>642.70</ele>
        <time>2017-02-18T07:19:01Z</time>
      </trkpt>
      <trkpt lat="42.554659000" lon="-2.475169000">
        <ele>642.80</ele>
        <time>2017-02-18T07:19:02Z</time>
      </trkpt>
      <trkpt lat="42.554679000" lon="-2.475161000">
        <ele>642.90</ele>
        <time>2017-02-18T07:19:03Z</time>
      </trkpt>
      <trkpt lat="42.554699000" lon="-2.475153000">
        <ele>643.00</ele>
        <time>2017-02-18T07:19:04Z</time>
      </trkpt>
      <trkpt lat="42.554720000" lon="-2.475139000">
        <ele>643.30</ele>
        <time>2017-02-18T07:19:05Z</time>
      </trkpt>
      <trkpt lat="42.554741000" lon="-2.475130000">
        <ele>643.50</ele>
        <time>2017-02-18T07:19:06Z</time>
      </trkpt>
      <trkpt lat="42.554767000" lon="-2.475123000">
        <ele>643.60</ele>
        <time>2017-02-18T07:19:07Z</time>
      </trkpt>
      <trkpt lat="42.554791000" lon="-2.475118000">
        <ele>643.70</ele>
        <time>2017-02-18T07:19:08Z</time>
      </trkpt>
      <trkpt lat="42.554813000" lon="-2.475105000">
        <ele>643.80</ele>
        <time>2017-02-18T07:19:09Z</time>
      </trkpt>
      <trkpt lat="42.554858000" lon="-2.475083000">
        <ele>644.20</ele>
        <time>2017-02-18T07:19:11Z</time>
      </trkpt>
      <trkpt lat="42.554880000" lon="-2.475073000">
        <ele>644.40</ele>
        <time>2017-02-18T07:19:12Z</time>
      </trkpt>
      <trkpt lat="42.554901000" lon="-2.475065000">
        <ele>644.50</ele>
        <time>2017-02-18T07:19:13Z</time>
      </trkpt>
      <trkpt lat="42.554921000" lon="-2.475056000">
        <ele>644.70</ele>
        <time>2017-02-18T07:19:14Z</time>
      </trkpt>
      <trkpt lat="42.554945000" lon="-2.475044000">
        <ele>644.70</ele>
        <time>2017-02-18T07:19:15Z</time>
      </trkpt>
      <trkpt lat="42.554968000" lon="-2.475034000">
        <ele>644.80</ele>
        <time>2017-02-18T07:19:16Z</time>
      </trkpt>
      <trkpt lat="42.554987000" lon="-2.475027000">
        <ele>644.80</ele>
        <time>2017-02-18T07:19:17Z</time>
      </trkpt>
      <trkpt lat="42.555010000" lon="-2.475019000">
        <ele>644.90</ele>
        <time>2017-02-18T07:19:18Z</time>
      </trkpt>
      <trkpt lat="42.555031000" lon="-2.475011000">
        <ele>645.00</ele>
        <time>2017-02-18T07:19:19Z</time>
      </trkpt>
      <trkpt lat="42.555053000" lon="-2.475000000">
        <ele>645.00</ele>
        <time>2017-02-18T07:19:20Z</time>
      </trkpt>
      <trkpt lat="42.555076000" lon="-2.474998000">
        <ele>645.10</ele>
        <time>2017-02-18T07:19:21Z</time>
      </trkpt>
      <trkpt lat="42.555100000" lon="-2.474991000">
        <ele>645.20</ele>
        <time>2017-02-18T07:19:22Z</time>
      </trkpt>
      <trkpt lat="42.555122000" lon="-2.474988000">
        <ele>645.30</ele>
        <time>2017-02-18T07:19:23Z</time>
      </trkpt>
      <trkpt lat="42.555145000" lon="-2.474979000">
        <ele>645.40</ele>
        <time>2017-02-18T07:19:24Z</time>
      </trkpt>
      <trkpt lat="42.555168000" lon="-2.474970000">
        <ele>645.40</ele>
        <time>2017-02-18T07:19:25Z</time>
      </trkpt>
      <trkpt lat="42.555195000" lon="-2.474967000">
        <ele>645.50</ele>
        <time>2017-02-18T07:19:26Z</time>
      </trkpt>
      <trkpt lat="42.555218000" lon="-2.474962000">
        <ele>645.50</ele>
        <time>2017-02-18T07:19:27Z</time>
      </trkpt>
      <trkpt lat="42.555240000" lon="-2.474954000">
        <ele>645.50</ele>
        <time>2017-02-18T07:19:28Z</time>
      </trkpt>
      <trkpt lat="42.555262000" lon="-2.474946000">
        <ele>645.60</ele>
        <time>2017-02-18T07:19:29Z</time>
      </trkpt>
      <trkpt lat="42.555287000" lon="-2.474937000">
        <ele>645.60</ele>
        <time>2017-02-18T07:19:30Z</time>
      </trkpt>
      <trkpt lat="42.555312000" lon="-2.474933000">
        <ele>645.70</ele>
        <time>2017-02-18T07:19:31Z</time>
      </trkpt>
      <trkpt lat="42.555339000" lon="-2.474926000">
        <ele>645.80</ele>
        <time>2017-02-18T07:19:32Z</time>
      </trkpt>
      <trkpt lat="42.555367000" lon="-2.474920000">
        <ele>645.90</ele>
        <time>2017-02-18T07:19:33Z</time>
      </trkpt>
      <trkpt lat="42.555394000" lon="-2.474917000">
        <ele>645.90</ele>
        <time>2017-02-18T07:19:34Z</time>
      </trkpt>
      <trkpt lat="42.555423000" lon="-2.474907000">
        <ele>646.00</ele>
        <time>2017-02-18T07:19:35Z</time>
      </trkpt>
      <trkpt lat="42.555452000" lon="-2.474903000">
        <ele>646.20</ele>
        <time>2017-02-18T07:19:36Z</time>
      </trkpt>
      <trkpt lat="42.555480000" lon="-2.474896000">
        <ele>646.20</ele>
        <time>2017-02-18T07:19:37Z</time>
      </trkpt>
      <trkpt lat="42.555509000" lon="-2.474890000">
        <ele>646.30</ele>
        <time>2017-02-18T07:19:38Z</time>
      </trkpt>
      <trkpt lat="42.555538000" lon="-2.474879000">
        <ele>646.30</ele>
        <time>2017-02-18T07:19:39Z</time>
      </trkpt>
      <trkpt lat="42.555567000" lon="-2.474871000">
        <ele>646.40</ele>
        <time>2017-02-18T07:19:40Z</time>
      </trkpt>
      <trkpt lat="42.555596000" lon="-2.474863000">
        <ele>646.30</ele>
        <time>2017-02-18T07:19:41Z</time>
      </trkpt>
      <trkpt lat="42.555624000" lon="-2.474857000">
        <ele>646.30</ele>
        <time>2017-02-18T07:19:42Z</time>
      </trkpt>
      <trkpt lat="42.555653000" lon="-2.474848000">
        <ele>646.00</ele>
        <time>2017-02-18T07:19:43Z</time>
      </trkpt>
      <trkpt lat="42.555686000" lon="-2.474842000">
        <ele>645.90</ele>
        <time>2017-02-18T07:19:44Z</time>
      </trkpt>
      <trkpt lat="42.555717000" lon="-2.474833000">
        <ele>645.70</ele>
        <time>2017-02-18T07:19:45Z</time>
      </trkpt>
      <trkpt lat="42.555747000" lon="-2.474829000">
        <ele>645.60</ele>
        <time>2017-02-18T07:19:46Z</time>
      </trkpt>
      <trkpt lat="42.555778000" lon="-2.474824000">
        <ele>645.50</ele>
        <time>2017-02-18T07:19:47Z</time>
      </trkpt>
      <trkpt lat="42.555808000" lon="-2.474817000">
        <ele>645.30</ele>
        <time>2017-02-18T07:19:48Z</time>
      </trkpt>
      <trkpt lat="42.555835000" lon="-2.474809000">
        <ele>645.30</ele>
        <time>2017-02-18T07:19:49Z</time>
      </trkpt>
      <trkpt lat="42.555865000" lon="-2.474805000">
        <ele>645.30</ele>
        <time>2017-02-18T07:19:50Z</time>
      </trkpt>
      <trkpt lat="42.555895000" lon="-2.474802000">
        <ele>645.20</ele>
        <time>2017-02-18T07:19:51Z</time>
      </trkpt>
      <trkpt lat="42.555922000" lon="-2.474797000">
        <ele>645.20</ele>
        <time>2017-02-18T07:19:52Z</time>
      </trkpt>
      <trkpt lat="42.555948000" lon="-2.474790000">
        <ele>645.20</ele>
        <time>2017-02-18T07:19:53Z</time>
      </trkpt>
      <trkpt lat="42.555972000" lon="-2.474783000">
        <ele>645.30</ele>
        <time>2017-02-18T07:19:54Z</time>
      </trkpt>
      <trkpt lat="42.555998000" lon="-2.474781000">
        <ele>645.40</ele>
        <time>2017-02-18T07:19:55Z</time>
      </trkpt>
      <trkpt lat="42.556024000" lon="-2.474779000">
        <ele>645.50</ele>
        <time>2017-02-18T07:19:56Z</time>
      </trkpt>
      <trkpt lat="42.556048000" lon="-2.474777000">
        <ele>645.60</ele>
        <time>2017-02-18T07:19:57Z</time>
      </trkpt>
      <trkpt lat="42.556074000" lon="-2.474772000">
        <ele>645.70</ele>
        <time>2017-02-18T07:19:58Z</time>
      </trkpt>
      <trkpt lat="42.556099000" lon="-2.474765000">
        <ele>645.70</ele>
        <time>2017-02-18T07:19:59Z</time>
      </trkpt>
      <trkpt lat="42.556125000" lon="-2.474760000">
        <ele>645.80</ele>
        <time>2017-02-18T07:20:00Z</time>
      </trkpt>
      <trkpt lat="42.556152000" lon="-2.474756000">
        <ele>645.70</ele>
        <time>2017-02-18T07:20:01Z</time>
      </trkpt>
      <trkpt lat="42.556180000" lon="-2.474751000">
        <ele>645.70</ele>
        <time>2017-02-18T07:20:02Z</time>
      </trkpt>
      <trkpt lat="42.556208000" lon="-2.474748000">
        <ele>645.70</ele>
        <time>2017-02-18T07:20:03Z</time>
      </trkpt>
      <trkpt lat="42.556233000" lon="-2.474744000">
        <ele>645.70</ele>
        <time>2017-02-18T07:20:04Z</time>
      </trkpt>
      <trkpt lat="42.556253000" lon="-2.474735000">
        <ele>645.70</ele>
        <time>2017-02-18T07:20:05Z</time>
      </trkpt>
      <trkpt lat="42.556280000" lon="-2.474730000">
        <ele>645.80</ele>
        <time>2017-02-18T07:20:06Z</time>
      </trkpt>
      <trkpt lat="42.556305000" lon="-2.474722000">
        <ele>645.80</ele>
        <time>2017-02-18T07:20:07Z</time>
      </trkpt>
      <trkpt lat="42.556327000" lon="-2.474713000">
        <ele>645.80</ele>
        <time>2017-02-18T07:20:08Z</time>
      </trkpt>
      <trkpt lat="42.556351000" lon="-2.474703000">
        <ele>645.80</ele>
        <time>2017-02-18T07:20:09Z</time>
      </trkpt>
      <trkpt lat="42.556373000" lon="-2.474695000">
        <ele>645.90</ele>
        <time>2017-02-18T07:20:10Z</time>
      </trkpt>
      <trkpt lat="42.556412000" lon="-2.474674000">
        <ele>646.10</ele>
        <time>2017-02-18T07:20:12Z</time>
      </trkpt>
      <trkpt lat="42.556432000" lon="-2.474659000">
        <ele>646.40</ele>
        <time>2017-02-18T07:20:13Z</time>
      </trkpt>
      <trkpt lat="42.556451000" lon="-2.474641000">
        <ele>646.60</ele>
        <time>2017-02-18T07:20:14Z</time>
      </trkpt>
      <trkpt lat="42.556467000" lon="-2.474617000">
        <ele>646.80</ele>
        <time>2017-02-18T07:20:15Z</time>
      </trkpt>
      <trkpt lat="42.556488000" lon="-2.474597000">
        <ele>646.90</ele>
        <time>2017-02-18T07:20:16Z</time>
      </trkpt>
      <trkpt lat="42.556502000" lon="-2.474570000">
        <ele>647.10</ele>
        <time>2017-02-18T07:20:17Z</time>
      </trkpt>
      <trkpt lat="42.556515000" lon="-2.474544000">
        <ele>647.20</ele>
        <time>2017-02-18T07:20:18Z</time>
      </trkpt>
      <trkpt lat="42.556530000" lon="-2.474519000">
        <ele>647.40</ele>
        <time>2017-02-18T07:20:19Z</time>
      </trkpt>
      <trkpt lat="42.556545000" lon="-2.474493000">
        <ele>647.50</ele>
        <time>2017-02-18T07:20:20Z</time>
      </trkpt>
      <trkpt lat="42.556559000" lon="-2.474467000">
        <ele>647.70</ele>
        <time>2017-02-18T07:20:21Z</time>
      </trkpt>
      <trkpt lat="42.556573000" lon="-2.474439000">
        <ele>647.80</ele>
        <time>2017-02-18T07:20:22Z</time>
      </trkpt>
      <trkpt lat="42.556587000" lon="-2.474410000">
        <ele>648.10</ele>
        <time>2017-02-18T07:20:23Z</time>
      </trkpt>
      <trkpt lat="42.556598000" lon="-2.474374000">
        <ele>648.30</ele>
        <time>2017-02-18T07:20:24Z</time>
      </trkpt>
      <trkpt lat="42.556608000" lon="-2.474340000">
        <ele>648.70</ele>
        <time>2017-02-18T07:20:25Z</time>
      </trkpt>
      <trkpt lat="42.556619000" lon="-2.474312000">
        <ele>649.00</ele>
        <time>2017-02-18T07:20:26Z</time>
      </trkpt>
      <trkpt lat="42.556629000" lon="-2.474284000">
        <ele>649.30</ele>
        <time>2017-02-18T07:20:27Z</time>
      </trkpt>
      <trkpt lat="42.556641000" lon="-2.474256000">
        <ele>649.50</ele>
        <time>2017-02-18T07:20:28Z</time>
      </trkpt>
      <trkpt lat="42.556652000" lon="-2.474230000">
        <ele>649.80</ele>
        <time>2017-02-18T07:20:29Z</time>
      </trkpt>
      <trkpt lat="42.556663000" lon="-2.474202000">
        <ele>650.10</ele>
        <time>2017-02-18T07:20:30Z</time>
      </trkpt>
      <trkpt lat="42.556677000" lon="-2.474167000">
        <ele>650.40</ele>
        <time>2017-02-18T07:20:31Z</time>
      </trkpt>
      <trkpt lat="42.556690000" lon="-2.474138000">
        <ele>650.60</ele>
        <time>2017-02-18T07:20:32Z</time>
      </trkpt>
      <trkpt lat="42.556700000" lon="-2.474112000">
        <ele>651.10</ele>
        <time>2017-02-18T07:20:33Z</time>
      </trkpt>
      <trkpt lat="42.556713000" lon="-2.474082000">
        <ele>651.40</ele>
        <time>2017-02-18T07:20:34Z</time>
      </trkpt>
      <trkpt lat="42.556729000" lon="-2.474056000">
        <ele>651.70</ele>
        <time>2017-02-18T07:20:35Z</time>
      </trkpt>
      <trkpt lat="42.556743000" lon="-2.474030000">
        <ele>651.90</ele>
        <time>2017-02-18T07:20:36Z</time>
      </trkpt>
      <trkpt lat="42.556756000" lon="-2.474004000">
        <ele>652.10</ele>
        <time>2017-02-18T07:20:37Z</time>
      </trkpt>
      <trkpt lat="42.556769000" lon="-2.473978000">
        <ele>652.30</ele>
        <time>2017-02-18T07:20:38Z</time>
      </trkpt>
      <trkpt lat="42.556787000" lon="-2.473954000">
        <ele>652.50</ele>
        <time>2017-02-18T07:20:39Z</time>
      </trkpt>
      <trkpt lat="42.556803000" lon="-2.473928000">
        <ele>652.70</ele>
        <time>2017-02-18T07:20:40Z</time>
      </trkpt>
      <trkpt lat="42.556819000" lon="-2.473902000">
        <ele>652.90</ele>
        <time>2017-02-18T07:20:41Z</time>
      </trkpt>
      <trkpt lat="42.556832000" lon="-2.473874000">
        <ele>653.10</ele>
        <time>2017-02-18T07:20:42Z</time>
      </trkpt>
      <trkpt lat="42.556848000" lon="-2.473854000">
        <ele>653.20</ele>
        <time>2017-02-18T07:20:43Z</time>
      </trkpt>
      <trkpt lat="42.556864000" lon="-2.473834000">
        <ele>653.40</ele>
        <time>2017-02-18T07:20:44Z</time>
      </trkpt>
      <trkpt lat="42.556881000" lon="-2.473814000">
        <ele>653.50</ele>
        <time>2017-02-18T07:20:45Z</time>
      </trkpt>
      <trkpt lat="42.556900000" lon="-2.473794000">
        <ele>653.60</ele>
        <time>2017-02-18T07:20:46Z</time>
      </trkpt>
      <trkpt lat="42.556916000" lon="-2.473768000">
        <ele>653.80</ele>
        <time>2017-02-18T07:20:47Z</time>
      </trkpt>
      <trkpt lat="42.556933000" lon="-2.473744000">
        <ele>654.00</ele>
        <time>2017-02-18T07:20:48Z</time>
      </trkpt>
      <trkpt lat="42.556950000" lon="-2.473721000">
        <ele>654.00</ele>
        <time>2017-02-18T07:20:49Z</time>
      </trkpt>
      <trkpt lat="42.556966000" lon="-2.473698000">
        <ele>654.10</ele>
        <time>2017-02-18T07:20:50Z</time>
      </trkpt>
      <trkpt lat="42.556982000" lon="-2.473677000">
        <ele>654.10</ele>
        <time>2017-02-18T07:20:51Z</time>
      </trkpt>
      <trkpt lat="42.557002000" lon="-2.473655000">
        <ele>654.20</ele>
        <time>2017-02-18T07:20:52Z</time>
      </trkpt>
      <trkpt lat="42.557017000" lon="-2.473633000">
        <ele>654.30</ele>
        <time>2017-02-18T07:20:53Z</time>
      </trkpt>
      <trkpt lat="42.557035000" lon="-2.473609000">
        <ele>654.50</ele>
        <time>2017-02-18T07:20:54Z</time>
      </trkpt>
      <trkpt lat="42.557052000" lon="-2.473587000">
        <ele>654.80</ele>
        <time>2017-02-18T07:20:55Z</time>
      </trkpt>
      <trkpt lat="42.557069000" lon="-2.473563000">
        <ele>655.10</ele>
        <time>2017-02-18T07:20:56Z</time>
      </trkpt>
      <trkpt lat="42.557087000" lon="-2.473541000">
        <ele>655.30</ele>
        <time>2017-02-18T07:20:57Z</time>
      </trkpt>
      <trkpt lat="42.557106000" lon="-2.473520000">
        <ele>655.40</ele>
        <time>2017-02-18T07:20:58Z</time>
      </trkpt>
      <trkpt lat="42.557123000" lon="-2.473499000">
        <ele>655.60</ele>
        <time>2017-02-18T07:20:59Z</time>
      </trkpt>
      <trkpt lat="42.557139000" lon="-2.473479000">
        <ele>655.70</ele>
        <time>2017-02-18T07:21:00Z</time>
      </trkpt>
      <trkpt lat="42.557155000" lon="-2.473461000">
        <ele>655.70</ele>
        <time>2017-02-18T07:21:01Z</time>
      </trkpt>
      <trkpt lat="42.557175000" lon="-2.473449000">
        <ele>655.80</ele>
        <time>2017-02-18T07:21:02Z</time>
      </trkpt>
      <trkpt lat="42.557191000" lon="-2.473434000">
        <ele>655.80</ele>
        <time>2017-02-18T07:21:03Z</time>
      </trkpt>
      <trkpt lat="42.557213000" lon="-2.473418000">
        <ele>655.90</ele>
        <time>2017-02-18T07:21:04Z</time>
      </trkpt>
      <trkpt lat="42.557231000" lon="-2.473397000">
        <ele>655.90</ele>
        <time>2017-02-18T07:21:05Z</time>
      </trkpt>
      <trkpt lat="42.557255000" lon="-2.473381000">
        <ele>656.00</ele>
        <time>2017-02-18T07:21:06Z</time>
      </trkpt>
      <trkpt lat="42.557278000" lon="-2.473371000">
        <ele>656.00</ele>
        <time>2017-02-18T07:21:07Z</time>
      </trkpt>
      <trkpt lat="42.557301000" lon="-2.473359000">
        <ele>656.10</ele>
        <time>2017-02-18T07:21:08Z</time>
      </trkpt>
      <trkpt lat="42.557323000" lon="-2.473350000">
        <ele>656.10</ele>
        <time>2017-02-18T07:21:09Z</time>
      </trkpt>
      <trkpt lat="42.557347000" lon="-2.473335000">
        <ele>656.20</ele>
        <time>2017-02-18T07:21:10Z</time>
      </trkpt>
      <trkpt lat="42.557373000" lon="-2.473317000">
        <ele>656.20</ele>
        <time>2017-02-18T07:21:11Z</time>
      </trkpt>
      <trkpt lat="42.557424000" lon="-2.473300000">
        <ele>656.20</ele>
        <time>2017-02-18T07:21:13Z</time>
      </trkpt>
      <trkpt lat="42.557451000" lon="-2.473290000">
        <ele>656.10</ele>
        <time>2017-02-18T07:21:14Z</time>
      </trkpt>
      <trkpt lat="42.557481000" lon="-2.473284000">
        <ele>656.10</ele>
        <time>2017-02-18T07:21:15Z</time>
      </trkpt>
      <trkpt lat="42.557508000" lon="-2.473274000">
        <ele>656.10</ele>
        <time>2017-02-18T07:21:16Z</time>
      </trkpt>
      <trkpt lat="42.557538000" lon="-2.473266000">
        <ele>656.10</ele>
        <time>2017-02-18T07:21:17Z</time>
      </trkpt>
      <trkpt lat="42.557565000" lon="-2.473258000">
        <ele>656.10</ele>
        <time>2017-02-18T07:21:18Z</time>
      </trkpt>
      <trkpt lat="42.557596000" lon="-2.473249000">
        <ele>656.00</ele>
        <time>2017-02-18T07:21:19Z</time>
      </trkpt>
      <trkpt lat="42.557629000" lon="-2.473240000">
        <ele>656.00</ele>
        <time>2017-02-18T07:21:20Z</time>
      </trkpt>
      <trkpt lat="42.557657000" lon="-2.473235000">
        <ele>656.00</ele>
        <time>2017-02-18T07:21:21Z</time>
      </trkpt>
      <trkpt lat="42.557684000" lon="-2.473240000">
        <ele>656.00</ele>
        <time>2017-02-18T07:21:22Z</time>
      </trkpt>
      <trkpt lat="42.557716000" lon="-2.473225000">
        <ele>655.90</ele>
        <time>2017-02-18T07:21:23Z</time>
      </trkpt>
      <trkpt lat="42.557752000" lon="-2.473216000">
        <ele>655.90</ele>
        <time>2017-02-18T07:21:24Z</time>
      </trkpt>
      <trkpt lat="42.557785000" lon="-2.473214000">
        <ele>655.90</ele>
        <time>2017-02-18T07:21:25Z</time>
      </trkpt>
      <trkpt lat="42.557818000" lon="-2.473209000">
        <ele>655.90</ele>
        <time>2017-02-18T07:21:26Z</time>
      </trkpt>
      <trkpt lat="42.557847000" lon="-2.473202000">
        <ele>655.90</ele>
        <time>2017-02-18T07:21:27Z</time>
      </trkpt>
      <trkpt lat="42.557879000" lon="-2.473196000">
        <ele>655.90</ele>
        <time>2017-02-18T07:21:28Z</time>
      </trkpt>
      <trkpt lat="42.557910000" lon="-2.473187000">
        <ele>655.80</ele>
        <time>2017-02-18T07:21:29Z</time>
      </trkpt>
      <trkpt lat="42.557942000" lon="-2.473179000">
        <ele>655.80</ele>
        <time>2017-02-18T07:21:30Z</time>
      </trkpt>
      <trkpt lat="42.557975000" lon="-2.473171000">
        <ele>655.80</ele>
        <time>2017-02-18T07:21:31Z</time>
      </trkpt>
      <trkpt lat="42.558008000" lon="-2.473160000">
        <ele>655.80</ele>
        <time>2017-02-18T07:21:32Z</time>
      </trkpt>
      <trkpt lat="42.558041000" lon="-2.473151000">
        <ele>655.80</ele>
        <time>2017-02-18T07:21:33Z</time>
      </trkpt>
      <trkpt lat="42.558070000" lon="-2.473144000">
        <ele>655.80</ele>
        <time>2017-02-18T07:21:34Z</time>
      </trkpt>
      <trkpt lat="42.558101000" lon="-2.473133000">
        <ele>655.80</ele>
        <time>2017-02-18T07:21:35Z</time>
      </trkpt>
      <trkpt lat="42.558133000" lon="-2.473127000">
        <ele>655.80</ele>
        <time>2017-02-18T07:21:36Z</time>
      </trkpt>
      <trkpt lat="42.558165000" lon="-2.473119000">
        <ele>655.80</ele>
        <time>2017-02-18T07:21:37Z</time>
      </trkpt>
      <trkpt lat="42.558200000" lon="-2.473117000">
        <ele>655.70</ele>
        <time>2017-02-18T07:21:38Z</time>
      </trkpt>
      <trkpt lat="42.558231000" lon="-2.473110000">
        <ele>655.70</ele>
        <time>2017-02-18T07:21:39Z</time>
      </trkpt>
      <trkpt lat="42.558261000" lon="-2.473106000">
        <ele>655.70</ele>
        <time>2017-02-18T07:21:40Z</time>
      </trkpt>
      <trkpt lat="42.558292000" lon="-2.473096000">
        <ele>655.70</ele>
        <time>2017-02-18T07:21:41Z</time>
      </trkpt>
      <trkpt lat="42.558322000" lon="-2.473089000">
        <ele>655.70</ele>
        <time>2017-02-18T07:21:42Z</time>
      </trkpt>
      <trkpt lat="42.558354000" lon="-2.473076000">
        <ele>655.70</ele>
        <time>2017-02-18T07:21:43Z</time>
      </trkpt>
      <trkpt lat="42.558387000" lon="-2.473064000">
        <ele>655.80</ele>
        <time>2017-02-18T07:21:44Z</time>
      </trkpt>
      <trkpt lat="42.558418000" lon="-2.473050000">
        <ele>655.90</ele>
        <time>2017-02-18T07:21:45Z</time>
      </trkpt>
      <trkpt lat="42.558449000" lon="-2.473040000">
        <ele>656.00</ele>
        <time>2017-02-18T07:21:46Z</time>
      </trkpt>
      <trkpt lat="42.558480000" lon="-2.473032000">
        <ele>656.00</ele>
        <time>2017-02-18T07:21:47Z</time>
      </trkpt>
      <trkpt lat="42.558512000" lon="-2.473025000">
        <ele>656.00</ele>
        <time>2017-02-18T07:21:48Z</time>
      </trkpt>
      <trkpt lat="42.558544000" lon="-2.473019000">
        <ele>656.00</ele>
        <time>2017-02-18T07:21:49Z</time>
      </trkpt>
      <trkpt lat="42.558576000" lon="-2.473014000">
        <ele>656.00</ele>
        <time>2017-02-18T07:21:50Z</time>
      </trkpt>
      <trkpt lat="42.558603000" lon="-2.473004000">
        <ele>655.90</ele>
        <time>2017-02-18T07:21:51Z</time>
      </trkpt>
      <trkpt lat="42.558633000" lon="-2.472998000">
        <ele>655.90</ele>
        <time>2017-02-18T07:21:52Z</time>
      </trkpt>
      <trkpt lat="42.558666000" lon="-2.472988000">
        <ele>655.90</ele>
        <time>2017-02-18T07:21:53Z</time>
      </trkpt>
      <trkpt lat="42.558697000" lon="-2.472979000">
        <ele>655.90</ele>
        <time>2017-02-18T07:21:54Z</time>
      </trkpt>
      <trkpt lat="42.558729000" lon="-2.472970000">
        <ele>655.90</ele>
        <time>2017-02-18T07:21:55Z</time>
      </trkpt>
      <trkpt lat="42.558756000" lon="-2.472962000">
        <ele>655.90</ele>
        <time>2017-02-18T07:21:56Z</time>
      </trkpt>
      <trkpt lat="42.558782000" lon="-2.472953000">
        <ele>656.00</ele>
        <time>2017-02-18T07:21:57Z</time>
      </trkpt>
      <trkpt lat="42.558810000" lon="-2.472948000">
        <ele>656.00</ele>
        <time>2017-02-18T07:21:58Z</time>
      </trkpt>
      <trkpt lat="42.558840000" lon="-2.472939000">
        <ele>656.00</ele>
        <time>2017-02-18T07:21:59Z</time>
      </trkpt>
      <trkpt lat="42.558868000" lon="-2.472930000">
        <ele>656.10</ele>
        <time>2017-02-18T07:22:00Z</time>
      </trkpt>
      <trkpt lat="42.558895000" lon="-2.472926000">
        <ele>656.20</ele>
        <time>2017-02-18T07:22:01Z</time>
      </trkpt>
      <trkpt lat="42.558916000" lon="-2.472921000">
        <ele>656.40</ele>
        <time>2017-02-18T07:22:02Z</time>
      </trkpt>
      <trkpt lat="42.558938000" lon="-2.472913000">
        <ele>656.50</ele>
        <time>2017-02-18T07:22:03Z</time>
      </trkpt>
      <trkpt lat="42.558965000" lon="-2.472908000">
        <ele>656.80</ele>
        <time>2017-02-18T07:22:04Z</time>
      </trkpt>
      <trkpt lat="42.558991000" lon="-2.472902000">
        <ele>656.90</ele>
        <time>2017-02-18T07:22:05Z</time>
      </trkpt>
      <trkpt lat="42.559014000" lon="-2.472890000">
        <ele>657.10</ele>
        <time>2017-02-18T07:22:06Z</time>
      </trkpt>
      <trkpt lat="42.559037000" lon="-2.472879000">
        <ele>657.20</ele>
        <time>2017-02-18T07:22:07Z</time>
      </trkpt>
      <trkpt lat="42.559063000" lon="-2.472869000">
        <ele>657.30</ele>
        <time>2017-02-18T07:22:08Z</time>
      </trkpt>
      <trkpt lat="42.559089000" lon="-2.472861000">
        <ele>657.40</ele>
        <time>2017-02-18T07:22:09Z</time>
      </trkpt>
      <trkpt lat="42.559116000" lon="-2.472855000">
        <ele>657.50</ele>
        <time>2017-02-18T07:22:10Z</time>
      </trkpt>
      <trkpt lat="42.559143000" lon="-2.472843000">
        <ele>657.50</ele>
        <time>2017-02-18T07:22:11Z</time>
      </trkpt>
      <trkpt lat="42.559170000" lon="-2.472831000">
        <ele>657.90</ele>
        <time>2017-02-18T07:22:12Z</time>
      </trkpt>
      <trkpt lat="42.559224000" lon="-2.472823000">
        <ele>658.40</ele>
        <time>2017-02-18T07:22:14Z</time>
      </trkpt>
      <trkpt lat="42.559251000" lon="-2.472819000">
        <ele>658.50</ele>
        <time>2017-02-18T07:22:15Z</time>
      </trkpt>
      <trkpt lat="42.559281000" lon="-2.472813000">
        <ele>658.80</ele>
        <time>2017-02-18T07:22:16Z</time>
      </trkpt>
      <trkpt lat="42.559309000" lon="-2.472808000">
        <ele>659.00</ele>
        <time>2017-02-18T07:22:17Z</time>
      </trkpt>
      <trkpt lat="42.559335000" lon="-2.472801000">
        <ele>659.20</ele>
        <time>2017-02-18T07:22:18Z</time>
      </trkpt>
      <trkpt lat="42.559359000" lon="-2.472795000">
        <ele>659.30</ele>
        <time>2017-02-18T07:22:19Z</time>
      </trkpt>
      <trkpt lat="42.559384000" lon="-2.472787000">
        <ele>659.30</ele>
        <time>2017-02-18T07:22:20Z</time>
      </trkpt>
      <trkpt lat="42.559410000" lon="-2.472777000">
        <ele>659.40</ele>
        <time>2017-02-18T07:22:21Z</time>
      </trkpt>
      <trkpt lat="42.559436000" lon="-2.472775000">
        <ele>659.60</ele>
        <time>2017-02-18T07:22:22Z</time>
      </trkpt>
      <trkpt lat="42.559463000" lon="-2.472772000">
        <ele>659.70</ele>
        <time>2017-02-18T07:22:23Z</time>
      </trkpt>
      <trkpt lat="42.559489000" lon="-2.472767000">
        <ele>659.80</ele>
        <time>2017-02-18T07:22:24Z</time>
      </trkpt>
      <trkpt lat="42.559517000" lon="-2.472759000">
        <ele>659.90</ele>
        <time>2017-02-18T07:22:25Z</time>
      </trkpt>
      <trkpt lat="42.559543000" lon="-2.472750000">
        <ele>660.00</ele>
        <time>2017-02-18T07:22:26Z</time>
      </trkpt>
      <trkpt lat="42.559568000" lon="-2.472744000">
        <ele>660.10</ele>
        <time>2017-02-18T07:22:27Z</time>
      </trkpt>
      <trkpt lat="42.559593000" lon="-2.472744000">
        <ele>660.20</ele>
        <time>2017-02-18T07:22:28Z</time>
      </trkpt>
      <trkpt lat="42.559622000" lon="-2.472745000">
        <ele>660.30</ele>
        <time>2017-02-18T07:22:29Z</time>
      </trkpt>
      <trkpt lat="42.559652000" lon="-2.472747000">
        <ele>660.50</ele>
        <time>2017-02-18T07:22:30Z</time>
      </trkpt>
      <trkpt lat="42.559681000" lon="-2.472748000">
        <ele>660.60</ele>
        <time>2017-02-18T07:22:31Z</time>
      </trkpt>
      <trkpt lat="42.559707000" lon="-2.472747000">
        <ele>660.80</ele>
        <time>2017-02-18T07:22:32Z</time>
      </trkpt>
      <trkpt lat="42.559735000" lon="-2.472747000">
        <ele>660.90</ele>
        <time>2017-02-18T07:22:33Z</time>
      </trkpt>
      <trkpt lat="42.559765000" lon="-2.472752000">
        <ele>660.90</ele>
        <time>2017-02-18T07:22:34Z</time>
      </trkpt>
      <trkpt lat="42.559791000" lon="-2.472755000">
        <ele>661.00</ele>
        <time>2017-02-18T07:22:35Z</time>
      </trkpt>
      <trkpt lat="42.559816000" lon="-2.472762000">
        <ele>661.00</ele>
        <time>2017-02-18T07:22:36Z</time>
      </trkpt>
      <trkpt lat="42.559842000" lon="-2.472765000">
        <ele>661.10</ele>
        <time>2017-02-18T07:22:37Z</time>
      </trkpt>
      <trkpt lat="42.559868000" lon="-2.472770000">
        <ele>661.30</ele>
        <time>2017-02-18T07:22:38Z</time>
      </trkpt>
      <trkpt lat="42.559896000" lon="-2.472775000">
        <ele>661.40</ele>
        <time>2017-02-18T07:22:39Z</time>
      </trkpt>
      <trkpt lat="42.559921000" lon="-2.472777000">
        <ele>661.50</ele>
        <time>2017-02-18T07:22:40Z</time>
      </trkpt>
      <trkpt lat="42.559947000" lon="-2.472782000">
        <ele>661.60</ele>
        <time>2017-02-18T07:22:41Z</time>
      </trkpt>
      <trkpt lat="42.559974000" lon="-2.472791000">
        <ele>661.80</ele>
        <time>2017-02-18T07:22:42Z</time>
      </trkpt>
      <trkpt lat="42.560002000" lon="-2.472796000">
        <ele>661.90</ele>
        <time>2017-02-18T07:22:43Z</time>
      </trkpt>
      <trkpt lat="42.560031000" lon="-2.472799000">
        <ele>662.00</ele>
        <time>2017-02-18T07:22:44Z</time>
      </trkpt>
      <trkpt lat="42.560058000" lon="-2.472804000">
        <ele>662.10</ele>
        <time>2017-02-18T07:22:45Z</time>
      </trkpt>
      <trkpt lat="42.560085000" lon="-2.472807000">
        <ele>662.20</ele>
        <time>2017-02-18T07:22:46Z</time>
      </trkpt>
      <trkpt lat="42.560111000" lon="-2.472815000">
        <ele>662.20</ele>
        <time>2017-02-18T07:22:47Z</time>
      </trkpt>
      <trkpt lat="42.560138000" lon="-2.472820000">
        <ele>662.20</ele>
        <time>2017-02-18T07:22:48Z</time>
      </trkpt>
      <trkpt lat="42.560164000" lon="-2.472826000">
        <ele>662.20</ele>
        <time>2017-02-18T07:22:49Z</time>
      </trkpt>
      <trkpt lat="42.560192000" lon="-2.472830000">
        <ele>662.20</ele>
        <time>2017-02-18T07:22:50Z</time>
      </trkpt>
      <trkpt lat="42.560220000" lon="-2.472838000">
        <ele>662.20</ele>
        <time>2017-02-18T07:22:51Z</time>
      </trkpt>
      <trkpt lat="42.560245000" lon="-2.472841000">
        <ele>662.20</ele>
        <time>2017-02-18T07:22:52Z</time>
      </trkpt>
      <trkpt lat="42.560273000" lon="-2.472847000">
        <ele>662.10</ele>
        <time>2017-02-18T07:22:53Z</time>
      </trkpt>
      <trkpt lat="42.560300000" lon="-2.472855000">
        <ele>662.20</ele>
        <time>2017-02-18T07:22:54Z</time>
      </trkpt>
      <trkpt lat="42.560327000" lon="-2.472862000">
        <ele>662.20</ele>
        <time>2017-02-18T07:22:55Z</time>
      </trkpt>
      <trkpt lat="42.560352000" lon="-2.472867000">
        <ele>662.30</ele>
        <time>2017-02-18T07:22:56Z</time>
      </trkpt>
      <trkpt lat="42.560379000" lon="-2.472870000">
        <ele>662.40</ele>
        <time>2017-02-18T07:22:57Z</time>
      </trkpt>
      <trkpt lat="42.560408000" lon="-2.472874000">
        <ele>662.60</ele>
        <time>2017-02-18T07:22:58Z</time>
      </trkpt>
      <trkpt lat="42.560435000" lon="-2.472877000">
        <ele>662.80</ele>
        <time>2017-02-18T07:22:59Z</time>
      </trkpt>
      <trkpt lat="42.560462000" lon="-2.472880000">
        <ele>662.90</ele>
        <time>2017-02-18T07:23:00Z</time>
      </trkpt>
      <trkpt lat="42.560492000" lon="-2.472882000">
        <ele>663.10</ele>
        <time>2017-02-18T07:23:01Z</time>
      </trkpt>
      <trkpt lat="42.560520000" lon="-2.472889000">
        <ele>663.20</ele>
        <time>2017-02-18T07:23:02Z</time>
      </trkpt>
      <trkpt lat="42.560547000" lon="-2.472897000">
        <ele>663.20</ele>
        <time>2017-02-18T07:23:03Z</time>
      </trkpt>
      <trkpt lat="42.560577000" lon="-2.472901000">
        <ele>663.40</ele>
        <time>2017-02-18T07:23:04Z</time>
      </trkpt>
      <trkpt lat="42.560603000" lon="-2.472905000">
        <ele>663.50</ele>
        <time>2017-02-18T07:23:05Z</time>
      </trkpt>
      <trkpt lat="42.560631000" lon="-2.472910000">
        <ele>663.70</ele>
        <time>2017-02-18T07:23:06Z</time>
      </trkpt>
      <trkpt lat="42.560659000" lon="-2.472914000">
        <ele>663.80</ele>
        <time>2017-02-18T07:23:07Z</time>
      </trkpt>
      <trkpt lat="42.560688000" lon="-2.472917000">
        <ele>663.90</ele>
        <time>2017-02-18T07:23:08Z</time>
      </trkpt>
      <trkpt lat="42.560715000" lon="-2.472919000">
        <ele>664.00</ele>
        <time>2017-02-18T07:23:09Z</time>
      </trkpt>
      <trkpt lat="42.560743000" lon="-2.472921000">
        <ele>664.00</ele>
        <time>2017-02-18T07:23:10Z</time>
      </trkpt>
      <trkpt lat="42.560772000" lon="-2.472923000">
        <ele>664.00</ele>
        <time>2017-02-18T07:23:11Z</time>
      </trkpt>
      <trkpt lat="42.560799000" lon="-2.472926000">
        <ele>664.10</ele>
        <time>2017-02-18T07:23:12Z</time>
      </trkpt>
      <trkpt lat="42.560829000" lon="-2.472923000">
        <ele>664.10</ele>
        <time>2017-02-18T07:23:13Z</time>
      </trkpt>
      <trkpt lat="42.560889000" lon="-2.472911000">
        <ele>664.20</ele>
        <time>2017-02-18T07:23:15Z</time>
      </trkpt>
      <trkpt lat="42.560918000" lon="-2.472907000">
        <ele>664.30</ele>
        <time>2017-02-18T07:23:16Z</time>
      </trkpt>
      <trkpt lat="42.560949000" lon="-2.472895000">
        <ele>664.40</ele>
        <time>2017-02-18T07:23:17Z</time>
      </trkpt>
      <trkpt lat="42.560981000" lon="-2.472889000">
        <ele>664.40</ele>
        <time>2017-02-18T07:23:18Z</time>
      </trkpt>
      <trkpt lat="42.561009000" lon="-2.472883000">
        <ele>664.40</ele>
        <time>2017-02-18T07:23:19Z</time>
      </trkpt>
      <trkpt lat="42.561036000" lon="-2.472876000">
        <ele>664.60</ele>
        <time>2017-02-18T07:23:20Z</time>
      </trkpt>
      <trkpt lat="42.561063000" lon="-2.472868000">
        <ele>664.70</ele>
        <time>2017-02-18T07:23:21Z</time>
      </trkpt>
      <trkpt lat="42.561088000" lon="-2.472859000">
        <ele>664.90</ele>
        <time>2017-02-18T07:23:22Z</time>
      </trkpt>
      <trkpt lat="42.561110000" lon="-2.472849000">
        <ele>665.00</ele>
        <time>2017-02-18T07:23:23Z</time>
      </trkpt>
      <trkpt lat="42.561136000" lon="-2.472836000">
        <ele>665.00</ele>
        <time>2017-02-18T07:23:24Z</time>
      </trkpt>
      <trkpt lat="42.561163000" lon="-2.472825000">
        <ele>665.10</ele>
        <time>2017-02-18T07:23:25Z</time>
      </trkpt>
      <trkpt lat="42.561193000" lon="-2.472818000">
        <ele>665.10</ele>
        <time>2017-02-18T07:23:26Z</time>
      </trkpt>
      <trkpt lat="42.561224000" lon="-2.472808000">
        <ele>665.20</ele>
        <time>2017-02-18T07:23:27Z</time>
      </trkpt>
      <trkpt lat="42.561253000" lon="-2.472800000">
        <ele>665.10</ele>
        <time>2017-02-18T07:23:28Z</time>
      </trkpt>
      <trkpt lat="42.561278000" lon="-2.472787000">
        <ele>665.10</ele>
        <time>2017-02-18T07:23:29Z</time>
      </trkpt>
      <trkpt lat="42.561306000" lon="-2.472779000">
        <ele>665.10</ele>
        <time>2017-02-18T07:23:30Z</time>
      </trkpt>
      <trkpt lat="42.561335000" lon="-2.472772000">
        <ele>665.10</ele>
        <time>2017-02-18T07:23:31Z</time>
      </trkpt>
      <trkpt lat="42.561358000" lon="-2.472763000">
        <ele>665.30</ele>
        <time>2017-02-18T07:23:32Z</time>
      </trkpt>
      <trkpt lat="42.561382000" lon="-2.472754000">
        <ele>665.40</ele>
        <time>2017-02-18T07:23:33Z</time>
      </trkpt>
      <trkpt lat="42.561408000" lon="-2.472748000">
        <ele>665.50</ele>
        <time>2017-02-18T07:23:34Z</time>
      </trkpt>
      <trkpt lat="42.561434000" lon="-2.472737000">
        <ele>665.50</ele>
        <time>2017-02-18T07:23:35Z</time>
      </trkpt>
      <trkpt lat="42.561459000" lon="-2.472728000">
        <ele>665.50</ele>
        <time>2017-02-18T07:23:36Z</time>
      </trkpt>
      <trkpt lat="42.561483000" lon="-2.472722000">
        <ele>665.60</ele>
        <time>2017-02-18T07:23:37Z</time>
      </trkpt>
      <trkpt lat="42.561508000" lon="-2.472713000">
        <ele>665.60</ele>
        <time>2017-02-18T07:23:38Z</time>
      </trkpt>
      <trkpt lat="42.561535000" lon="-2.472708000">
        <ele>665.60</ele>
        <time>2017-02-18T07:23:39Z</time>
      </trkpt>
      <trkpt lat="42.561561000" lon="-2.472698000">
        <ele>665.80</ele>
        <time>2017-02-18T07:23:40Z</time>
      </trkpt>
      <trkpt lat="42.561583000" lon="-2.472688000">
        <ele>665.90</ele>
        <time>2017-02-18T07:23:41Z</time>
      </trkpt>
      <trkpt lat="42.561609000" lon="-2.472678000">
        <ele>666.10</ele>
        <time>2017-02-18T07:23:42Z</time>
      </trkpt>
      <trkpt lat="42.561637000" lon="-2.472669000">
        <ele>666.20</ele>
        <time>2017-02-18T07:23:43Z</time>
      </trkpt>
      <trkpt lat="42.561665000" lon="-2.472662000">
        <ele>666.40</ele>
        <time>2017-02-18T07:23:44Z</time>
      </trkpt>
      <trkpt lat="42.561692000" lon="-2.472653000">
        <ele>666.60</ele>
        <time>2017-02-18T07:23:45Z</time>
      </trkpt>
      <trkpt lat="42.561715000" lon="-2.472648000">
        <ele>666.80</ele>
        <time>2017-02-18T07:23:46Z</time>
      </trkpt>
      <trkpt lat="42.561739000" lon="-2.472640000">
        <ele>666.90</ele>
        <time>2017-02-18T07:23:47Z</time>
      </trkpt>
      <trkpt lat="42.561763000" lon="-2.472632000">
        <ele>667.00</ele>
        <time>2017-02-18T07:23:48Z</time>
      </trkpt>
      <trkpt lat="42.561789000" lon="-2.472619000">
        <ele>667.10</ele>
        <time>2017-02-18T07:23:49Z</time>
      </trkpt>
      <trkpt lat="42.561816000" lon="-2.472612000">
        <ele>667.10</ele>
        <time>2017-02-18T07:23:50Z</time>
      </trkpt>
      <trkpt lat="42.561845000" lon="-2.472608000">
        <ele>667.10</ele>
        <time>2017-02-18T07:23:51Z</time>
      </trkpt>
      <trkpt lat="42.561871000" lon="-2.472600000">
        <ele>667.10</ele>
        <time>2017-02-18T07:23:52Z</time>
      </trkpt>
      <trkpt lat="42.561899000" lon="-2.472596000">
        <ele>667.10</ele>
        <time>2017-02-18T07:23:53Z</time>
      </trkpt>
      <trkpt lat="42.561927000" lon="-2.472591000">
        <ele>667.20</ele>
        <time>2017-02-18T07:23:54Z</time>
      </trkpt>
      <trkpt lat="42.561957000" lon="-2.472591000">
        <ele>667.40</ele>
        <time>2017-02-18T07:23:55Z</time>
      </trkpt>
      <trkpt lat="42.561986000" lon="-2.472590000">
        <ele>667.40</ele>
        <time>2017-02-18T07:23:56Z</time>
      </trkpt>
      <trkpt lat="42.562013000" lon="-2.472593000">
        <ele>667.40</ele>
        <time>2017-02-18T07:23:57Z</time>
      </trkpt>
      <trkpt lat="42.562043000" lon="-2.472604000">
        <ele>667.50</ele>
        <time>2017-02-18T07:23:58Z</time>
      </trkpt>
      <trkpt lat="42.562068000" lon="-2.472615000">
        <ele>667.60</ele>
        <time>2017-02-18T07:23:59Z</time>
      </trkpt>
      <trkpt lat="42.562093000" lon="-2.472630000">
        <ele>667.70</ele>
        <time>2017-02-18T07:24:00Z</time>
      </trkpt>
      <trkpt lat="42.562120000" lon="-2.472642000">
        <ele>667.70</ele>
        <time>2017-02-18T07:24:01Z</time>
      </trkpt>
      <trkpt lat="42.562141000" lon="-2.472659000">
        <ele>667.80</ele>
        <time>2017-02-18T07:24:02Z</time>
      </trkpt>
      <trkpt lat="42.562162000" lon="-2.472678000">
        <ele>667.80</ele>
        <time>2017-02-18T07:24:03Z</time>
      </trkpt>
      <trkpt lat="42.562182000" lon="-2.472699000">
        <ele>667.90</ele>
        <time>2017-02-18T07:24:04Z</time>
      </trkpt>
      <trkpt lat="42.562201000" lon="-2.472723000">
        <ele>667.90</ele>
        <time>2017-02-18T07:24:05Z</time>
      </trkpt>
      <trkpt lat="42.562218000" lon="-2.472743000">
        <ele>668.00</ele>
        <time>2017-02-18T07:24:06Z</time>
      </trkpt>
      <trkpt lat="42.562239000" lon="-2.472765000">
        <ele>668.10</ele>
        <time>2017-02-18T07:24:07Z</time>
      </trkpt>
      <trkpt lat="42.562259000" lon="-2.472789000">
        <ele>668.10</ele>
        <time>2017-02-18T07:24:08Z</time>
      </trkpt>
      <trkpt lat="42.562284000" lon="-2.472812000">
        <ele>668.20</ele>
        <time>2017-02-18T07:24:09Z</time>
      </trkpt>
      <trkpt lat="42.562307000" lon="-2.472836000">
        <ele>668.20</ele>
        <time>2017-02-18T07:24:10Z</time>
      </trkpt>
      <trkpt lat="42.562330000" lon="-2.472857000">
        <ele>668.40</ele>
        <time>2017-02-18T07:24:11Z</time>
      </trkpt>
      <trkpt lat="42.562352000" lon="-2.472880000">
        <ele>668.50</ele>
        <time>2017-02-18T07:24:12Z</time>
      </trkpt>
      <trkpt lat="42.562372000" lon="-2.472903000">
        <ele>668.60</ele>
        <time>2017-02-18T07:24:13Z</time>
      </trkpt>
      <trkpt lat="42.562395000" lon="-2.472929000">
        <ele>668.70</ele>
        <time>2017-02-18T07:24:14Z</time>
      </trkpt>
      <trkpt lat="42.562436000" lon="-2.472980000">
        <ele>669.00</ele>
        <time>2017-02-18T07:24:16Z</time>
      </trkpt>
      <trkpt lat="42.562455000" lon="-2.473003000">
        <ele>669.10</ele>
        <time>2017-02-18T07:24:17Z</time>
      </trkpt>
      <trkpt lat="42.562477000" lon="-2.473026000">
        <ele>669.10</ele>
        <time>2017-02-18T07:24:18Z</time>
      </trkpt>
      <trkpt lat="42.562498000" lon="-2.473052000">
        <ele>669.10</ele>
        <time>2017-02-18T07:24:19Z</time>
      </trkpt>
      <trkpt lat="42.562521000" lon="-2.473076000">
        <ele>669.20</ele>
        <time>2017-02-18T07:24:20Z</time>
      </trkpt>
      <trkpt lat="42.562543000" lon="-2.473103000">
        <ele>669.10</ele>
        <time>2017-02-18T07:24:21Z</time>
      </trkpt>
      <trkpt lat="42.562567000" lon="-2.473126000">
        <ele>669.10</ele>
        <time>2017-02-18T07:24:22Z</time>
      </trkpt>
      <trkpt lat="42.562590000" lon="-2.473154000">
        <ele>669.00</ele>
        <time>2017-02-18T07:24:23Z</time>
      </trkpt>
      <trkpt lat="42.562614000" lon="-2.473181000">
        <ele>669.00</ele>
        <time>2017-02-18T07:24:24Z</time>
      </trkpt>
      <trkpt lat="42.562639000" lon="-2.473205000">
        <ele>669.00</ele>
        <time>2017-02-18T07:24:25Z</time>
      </trkpt>
      <trkpt lat="42.562665000" lon="-2.473229000">
        <ele>669.00</ele>
        <time>2017-02-18T07:24:26Z</time>
      </trkpt>
      <trkpt lat="42.562691000" lon="-2.473255000">
        <ele>669.10</ele>
        <time>2017-02-18T07:24:27Z</time>
      </trkpt>
      <trkpt lat="42.562714000" lon="-2.473277000">
        <ele>669.20</ele>
        <time>2017-02-18T07:24:28Z</time>
      </trkpt>
      <trkpt lat="42.562735000" lon="-2.473304000">
        <ele>669.20</ele>
        <time>2017-02-18T07:24:29Z</time>
      </trkpt>
      <trkpt lat="42.562756000" lon="-2.473331000">
        <ele>669.30</ele>
        <time>2017-02-18T07:24:30Z</time>
      </trkpt>
      <trkpt lat="42.562778000" lon="-2.473360000">
        <ele>669.40</ele>
        <time>2017-02-18T07:24:31Z</time>
      </trkpt>
      <trkpt lat="42.562798000" lon="-2.473389000">
        <ele>669.40</ele>
        <time>2017-02-18T07:24:32Z</time>
      </trkpt>
      <trkpt lat="42.562824000" lon="-2.473412000">
        <ele>669.60</ele>
        <time>2017-02-18T07:24:33Z</time>
      </trkpt>
      <trkpt lat="42.562850000" lon="-2.473442000">
        <ele>669.70</ele>
        <time>2017-02-18T07:24:34Z</time>
      </trkpt>
      <trkpt lat="42.562874000" lon="-2.473466000">
        <ele>669.90</ele>
        <time>2017-02-18T07:24:35Z</time>
      </trkpt>
      <trkpt lat="42.562896000" lon="-2.473492000">
        <ele>670.00</ele>
        <time>2017-02-18T07:24:36Z</time>
      </trkpt>
      <trkpt lat="42.562919000" lon="-2.473520000">
        <ele>670.10</ele>
        <time>2017-02-18T07:24:37Z</time>
      </trkpt>
      <trkpt lat="42.562945000" lon="-2.473546000">
        <ele>670.20</ele>
        <time>2017-02-18T07:24:38Z</time>
      </trkpt>
      <trkpt lat="42.562969000" lon="-2.473574000">
        <ele>670.20</ele>
        <time>2017-02-18T07:24:39Z</time>
      </trkpt>
      <trkpt lat="42.562993000" lon="-2.473596000">
        <ele>670.20</ele>
        <time>2017-02-18T07:24:40Z</time>
      </trkpt>
      <trkpt lat="42.563016000" lon="-2.473622000">
        <ele>670.10</ele>
        <time>2017-02-18T07:24:41Z</time>
      </trkpt>
      <trkpt lat="42.563040000" lon="-2.473643000">
        <ele>670.00</ele>
        <time>2017-02-18T07:24:42Z</time>
      </trkpt>
      <trkpt lat="42.563063000" lon="-2.473663000">
        <ele>670.00</ele>
        <time>2017-02-18T07:24:43Z</time>
      </trkpt>
      <trkpt lat="42.563090000" lon="-2.473683000">
        <ele>669.90</ele>
        <time>2017-02-18T07:24:44Z</time>
      </trkpt>
      <trkpt lat="42.563118000" lon="-2.473707000">
        <ele>669.90</ele>
        <time>2017-02-18T07:24:45Z</time>
      </trkpt>
      <trkpt lat="42.563144000" lon="-2.473728000">
        <ele>669.80</ele>
        <time>2017-02-18T07:24:46Z</time>
      </trkpt>
      <trkpt lat="42.563172000" lon="-2.473745000">
        <ele>669.70</ele>
        <time>2017-02-18T07:24:47Z</time>
      </trkpt>
      <trkpt lat="42.563199000" lon="-2.473761000">
        <ele>669.70</ele>
        <time>2017-02-18T07:24:48Z</time>
      </trkpt>
      <trkpt lat="42.563226000" lon="-2.473770000">
        <ele>669.60</ele>
        <time>2017-02-18T07:24:49Z</time>
      </trkpt>
      <trkpt lat="42.563249000" lon="-2.473784000">
        <ele>669.50</ele>
        <time>2017-02-18T07:24:50Z</time>
      </trkpt>
      <trkpt lat="42.563277000" lon="-2.473791000">
        <ele>669.70</ele>
        <time>2017-02-18T07:24:51Z</time>
      </trkpt>
      <trkpt lat="42.563305000" lon="-2.473795000">
        <ele>669.80</ele>
        <time>2017-02-18T07:24:52Z</time>
      </trkpt>
      <trkpt lat="42.563333000" lon="-2.473795000">
        <ele>669.90</ele>
        <time>2017-02-18T07:24:53Z</time>
      </trkpt>
      <trkpt lat="42.563364000" lon="-2.473793000">
        <ele>670.00</ele>
        <time>2017-02-18T07:24:54Z</time>
      </trkpt>
      <trkpt lat="42.563394000" lon="-2.473788000">
        <ele>670.10</ele>
        <time>2017-02-18T07:24:55Z</time>
      </trkpt>
      <trkpt lat="42.563426000" lon="-2.473783000">
        <ele>670.30</ele>
        <time>2017-02-18T07:24:56Z</time>
      </trkpt>
      <trkpt lat="42.563456000" lon="-2.473779000">
        <ele>670.50</ele>
        <time>2017-02-18T07:24:57Z</time>
      </trkpt>
      <trkpt lat="42.563484000" lon="-2.473769000">
        <ele>670.70</ele>
        <time>2017-02-18T07:24:58Z</time>
      </trkpt>
      <trkpt lat="42.563508000" lon="-2.473761000">
        <ele>670.80</ele>
        <time>2017-02-18T07:24:59Z</time>
      </trkpt>
      <trkpt lat="42.563533000" lon="-2.473754000">
        <ele>671.00</ele>
        <time>2017-02-18T07:25:00Z</time>
      </trkpt>
      <trkpt lat="42.563559000" lon="-2.473745000">
        <ele>671.10</ele>
        <time>2017-02-18T07:25:01Z</time>
      </trkpt>
      <trkpt lat="42.563582000" lon="-2.473737000">
        <ele>671.30</ele>
        <time>2017-02-18T07:25:02Z</time>
      </trkpt>
      <trkpt lat="42.563604000" lon="-2.473731000">
        <ele>671.40</ele>
        <time>2017-02-18T07:25:03Z</time>
      </trkpt>
      <trkpt lat="42.563628000" lon="-2.473721000">
        <ele>671.50</ele>
        <time>2017-02-18T07:25:04Z</time>
      </trkpt>
      <trkpt lat="42.563652000" lon="-2.473716000">
        <ele>671.70</ele>
        <time>2017-02-18T07:25:05Z</time>
      </trkpt>
      <trkpt lat="42.563674000" lon="-2.473709000">
        <ele>671.80</ele>
        <time>2017-02-18T07:25:06Z</time>
      </trkpt>
      <trkpt lat="42.563696000" lon="-2.473705000">
        <ele>672.10</ele>
        <time>2017-02-18T07:25:07Z</time>
      </trkpt>
      <trkpt lat="42.563720000" lon="-2.473696000">
        <ele>672.30</ele>
        <time>2017-02-18T07:25:08Z</time>
      </trkpt>
      <trkpt lat="42.563744000" lon="-2.473687000">
        <ele>672.60</ele>
        <time>2017-02-18T07:25:09Z</time>
      </trkpt>
      <trkpt lat="42.563770000" lon="-2.473675000">
        <ele>672.80</ele>
        <time>2017-02-18T07:25:10Z</time>
      </trkpt>
      <trkpt lat="42.563795000" lon="-2.473670000">
        <ele>673.10</ele>
        <time>2017-02-18T07:25:11Z</time>
      </trkpt>
      <trkpt lat="42.563819000" lon="-2.473665000">
        <ele>673.20</ele>
        <time>2017-02-18T07:25:12Z</time>
      </trkpt>
      <trkpt lat="42.563843000" lon="-2.473657000">
        <ele>673.70</ele>
        <time>2017-02-18T07:25:13Z</time>
      </trkpt>
      <trkpt lat="42.563870000" lon="-2.473653000">
        <ele>674.00</ele>
        <time>2017-02-18T07:25:14Z</time>
      </trkpt>
      <trkpt lat="42.563896000" lon="-2.473646000">
        <ele>674.30</ele>
        <time>2017-02-18T07:25:15Z</time>
      </trkpt>
      <trkpt lat="42.563945000" lon="-2.473633000">
        <ele>675.00</ele>
        <time>2017-02-18T07:25:17Z</time>
      </trkpt>
      <trkpt lat="42.563973000" lon="-2.473629000">
        <ele>675.40</ele>
        <time>2017-02-18T07:25:18Z</time>
      </trkpt>
      <trkpt lat="42.563997000" lon="-2.473623000">
        <ele>675.80</ele>
        <time>2017-02-18T07:25:19Z</time>
      </trkpt>
      <trkpt lat="42.564021000" lon="-2.473619000">
        <ele>676.10</ele>
        <time>2017-02-18T07:25:20Z</time>
      </trkpt>
      <trkpt lat="42.564045000" lon="-2.473613000">
        <ele>676.40</ele>
        <time>2017-02-18T07:25:21Z</time>
      </trkpt>
      <trkpt lat="42.564072000" lon="-2.473614000">
        <ele>676.60</ele>
        <time>2017-02-18T07:25:22Z</time>
      </trkpt>
      <trkpt lat="42.564098000" lon="-2.473617000">
        <ele>676.90</ele>
        <time>2017-02-18T07:25:23Z</time>
      </trkpt>
      <trkpt lat="42.564126000" lon="-2.473614000">
        <ele>677.10</ele>
        <time>2017-02-18T07:25:24Z</time>
      </trkpt>
      <trkpt lat="42.564154000" lon="-2.473613000">
        <ele>677.30</ele>
        <time>2017-02-18T07:25:25Z</time>
      </trkpt>
      <trkpt lat="42.564180000" lon="-2.473608000">
        <ele>677.50</ele>
        <time>2017-02-18T07:25:26Z</time>
      </trkpt>
      <trkpt lat="42.564203000" lon="-2.473609000">
        <ele>677.80</ele>
        <time>2017-02-18T07:25:27Z</time>
      </trkpt>
      <trkpt lat="42.564227000" lon="-2.473604000">
        <ele>678.00</ele>
        <time>2017-02-18T07:25:28Z</time>
      </trkpt>
      <trkpt lat="42.564250000" lon="-2.473607000">
        <ele>678.30</ele>
        <time>2017-02-18T07:25:29Z</time>
      </trkpt>
      <trkpt lat="42.564274000" lon="-2.473608000">
        <ele>678.50</ele>
        <time>2017-02-18T07:25:30Z</time>
      </trkpt>
      <trkpt lat="42.564300000" lon="-2.473600000">
        <ele>678.80</ele>
        <time>2017-02-18T07:25:31Z</time>
      </trkpt>
      <trkpt lat="42.564324000" lon="-2.473600000">
        <ele>678.90</ele>
        <time>2017-02-18T07:25:32Z</time>
      </trkpt>
      <trkpt lat="42.564346000" lon="-2.473605000">
        <ele>679.00</ele>
        <time>2017-02-18T07:25:33Z</time>
      </trkpt>
      <trkpt lat="42.564370000" lon="-2.473607000">
        <ele>679.10</ele>
        <time>2017-02-18T07:25:34Z</time>
      </trkpt>
      <trkpt lat="42.564394000" lon="-2.473607000">
        <ele>679.20</ele>
        <time>2017-02-18T07:25:35Z</time>
      </trkpt>
      <trkpt lat="42.564418000" lon="-2.473603000">
        <ele>679.30</ele>
        <time>2017-02-18T07:25:36Z</time>
      </trkpt>
      <trkpt lat="42.564444000" lon="-2.473602000">
        <ele>679.40</ele>
        <time>2017-02-18T07:25:37Z</time>
      </trkpt>
      <trkpt lat="42.564471000" lon="-2.473602000">
        <ele>679.50</ele>
        <time>2017-02-18T07:25:38Z</time>
      </trkpt>
      <trkpt lat="42.564494000" lon="-2.473599000">
        <ele>679.80</ele>
        <time>2017-02-18T07:25:39Z</time>
      </trkpt>
      <trkpt lat="42.564520000" lon="-2.473599000">
        <ele>680.00</ele>
        <time>2017-02-18T07:25:40Z</time>
      </trkpt>
      <trkpt lat="42.564544000" lon="-2.473595000">
        <ele>680.20</ele>
        <time>2017-02-18T07:25:41Z</time>
      </trkpt>
      <trkpt lat="42.564565000" lon="-2.473591000">
        <ele>680.40</ele>
        <time>2017-02-18T07:25:42Z</time>
      </trkpt>
      <trkpt lat="42.564589000" lon="-2.473594000">
        <ele>680.60</ele>
        <time>2017-02-18T07:25:43Z</time>
      </trkpt>
      <trkpt lat="42.564614000" lon="-2.473592000">
        <ele>680.70</ele>
        <time>2017-02-18T07:25:44Z</time>
      </trkpt>
      <trkpt lat="42.564640000" lon="-2.473589000">
        <ele>680.90</ele>
        <time>2017-02-18T07:25:45Z</time>
      </trkpt>
      <trkpt lat="42.564666000" lon="-2.473590000">
        <ele>681.00</ele>
        <time>2017-02-18T07:25:46Z</time>
      </trkpt>
      <trkpt lat="42.564691000" lon="-2.473585000">
        <ele>681.10</ele>
        <time>2017-02-18T07:25:47Z</time>
      </trkpt>
      <trkpt lat="42.564717000" lon="-2.473583000">
        <ele>681.20</ele>
        <time>2017-02-18T07:25:48Z</time>
      </trkpt>
      <trkpt lat="42.564743000" lon="-2.473583000">
        <ele>681.20</ele>
        <time>2017-02-18T07:25:49Z</time>
      </trkpt>
      <trkpt lat="42.564770000" lon="-2.473581000">
        <ele>681.20</ele>
        <time>2017-02-18T07:25:50Z</time>
      </trkpt>
      <trkpt lat="42.564793000" lon="-2.473579000">
        <ele>681.30</ele>
        <time>2017-02-18T07:25:51Z</time>
      </trkpt>
      <trkpt lat="42.564818000" lon="-2.473578000">
        <ele>681.30</ele>
        <time>2017-02-18T07:25:52Z</time>
      </trkpt>
      <trkpt lat="42.564847000" lon="-2.473574000">
        <ele>681.30</ele>
        <time>2017-02-18T07:25:53Z</time>
      </trkpt>
      <trkpt lat="42.564875000" lon="-2.473568000">
        <ele>681.40</ele>
        <time>2017-02-18T07:25:54Z</time>
      </trkpt>
      <trkpt lat="42.564907000" lon="-2.473564000">
        <ele>681.60</ele>
        <time>2017-02-18T07:25:55Z</time>
      </trkpt>
      <trkpt lat="42.564938000" lon="-2.473563000">
        <ele>681.80</ele>
        <time>2017-02-18T07:25:56Z</time>
      </trkpt>
      <trkpt lat="42.564967000" lon="-2.473560000">
        <ele>682.00</ele>
        <time>2017-02-18T07:25:57Z</time>
      </trkpt>
      <trkpt lat="42.564993000" lon="-2.473555000">
        <ele>682.20</ele>
        <time>2017-02-18T07:25:58Z</time>
      </trkpt>
      <trkpt lat="42.565021000" lon="-2.473551000">
        <ele>682.20</ele>
        <time>2017-02-18T07:25:59Z</time>
      </trkpt>
      <trkpt lat="42.565049000" lon="-2.473548000">
        <ele>682.20</ele>
        <time>2017-02-18T07:26:00Z</time>
      </trkpt>
      <trkpt lat="42.565077000" lon="-2.473541000">
        <ele>682.10</ele>
        <time>2017-02-18T07:26:01Z</time>
      </trkpt>
      <trkpt lat="42.565106000" lon="-2.473537000">
        <ele>682.10</ele>
        <time>2017-02-18T07:26:02Z</time>
      </trkpt>
      <trkpt lat="42.565136000" lon="-2.473529000">
        <ele>682.00</ele>
        <time>2017-02-18T07:26:03Z</time>
      </trkpt>
      <trkpt lat="42.565166000" lon="-2.473518000">
        <ele>682.00</ele>
        <time>2017-02-18T07:26:04Z</time>
      </trkpt>
      <trkpt lat="42.565196000" lon="-2.473507000">
        <ele>681.90</ele>
        <time>2017-02-18T07:26:05Z</time>
      </trkpt>
      <trkpt lat="42.565228000" lon="-2.473491000">
        <ele>681.90</ele>
        <time>2017-02-18T07:26:06Z</time>
      </trkpt>
      <trkpt lat="42.565259000" lon="-2.473477000">
        <ele>681.90</ele>
        <time>2017-02-18T07:26:07Z</time>
      </trkpt>
      <trkpt lat="42.565291000" lon="-2.473464000">
        <ele>681.90</ele>
        <time>2017-02-18T07:26:08Z</time>
      </trkpt>
      <trkpt lat="42.565325000" lon="-2.473445000">
        <ele>681.90</ele>
        <time>2017-02-18T07:26:09Z</time>
      </trkpt>
      <trkpt lat="42.565356000" lon="-2.473429000">
        <ele>681.80</ele>
        <time>2017-02-18T07:26:10Z</time>
      </trkpt>
      <trkpt lat="42.565383000" lon="-2.473411000">
        <ele>681.90</ele>
        <time>2017-02-18T07:26:11Z</time>
      </trkpt>
      <trkpt lat="42.565413000" lon="-2.473391000">
        <ele>681.90</ele>
        <time>2017-02-18T07:26:12Z</time>
      </trkpt>
      <trkpt lat="42.565443000" lon="-2.473367000">
        <ele>682.00</ele>
        <time>2017-02-18T07:26:13Z</time>
      </trkpt>
      <trkpt lat="42.565472000" lon="-2.473347000">
        <ele>682.00</ele>
        <time>2017-02-18T07:26:14Z</time>
      </trkpt>
      <trkpt lat="42.565501000" lon="-2.473325000">
        <ele>681.90</ele>
        <time>2017-02-18T07:26:15Z</time>
      </trkpt>
      <trkpt lat="42.565535000" lon="-2.473300000">
        <ele>681.90</ele>
        <time>2017-02-18T07:26:16Z</time>
      </trkpt>
      <trkpt lat="42.565590000" lon="-2.473247000">
        <ele>681.70</ele>
        <time>2017-02-18T07:26:18Z</time>
      </trkpt>
      <trkpt lat="42.565616000" lon="-2.473219000">
        <ele>681.50</ele>
        <time>2017-02-18T07:26:19Z</time>
      </trkpt>
      <trkpt lat="42.565643000" lon="-2.473189000">
        <ele>681.30</ele>
        <time>2017-02-18T07:26:20Z</time>
      </trkpt>
      <trkpt lat="42.565668000" lon="-2.473157000">
        <ele>681.20</ele>
        <time>2017-02-18T07:26:21Z</time>
      </trkpt>
      <trkpt lat="42.565695000" lon="-2.473128000">
        <ele>681.10</ele>
        <time>2017-02-18T07:26:22Z</time>
      </trkpt>
      <trkpt lat="42.565721000" lon="-2.473096000">
        <ele>681.20</ele>
        <time>2017-02-18T07:26:23Z</time>
      </trkpt>
      <trkpt lat="42.565748000" lon="-2.473068000">
        <ele>681.20</ele>
        <time>2017-02-18T07:26:24Z</time>
      </trkpt>
      <trkpt lat="42.565774000" lon="-2.473035000">
        <ele>681.30</ele>
        <time>2017-02-18T07:26:25Z</time>
      </trkpt>
      <trkpt lat="42.565801000" lon="-2.473003000">
        <ele>681.30</ele>
        <time>2017-02-18T07:26:26Z</time>
      </trkpt>
      <trkpt lat="42.565828000" lon="-2.472971000">
        <ele>681.30</ele>
        <time>2017-02-18T07:26:27Z</time>
      </trkpt>
      <trkpt lat="42.565850000" lon="-2.472934000">
        <ele>681.30</ele>
        <time>2017-02-18T07:26:28Z</time>
      </trkpt>
      <trkpt lat="42.565871000" lon="-2.472897000">
        <ele>681.30</ele>
        <time>2017-02-18T07:26:29Z</time>
      </trkpt>
      <trkpt lat="42.565892000" lon="-2.472859000">
        <ele>681.30</ele>
        <time>2017-02-18T07:26:30Z</time>
      </trkpt>
      <trkpt lat="42.565914000" lon="-2.472821000">
        <ele>681.30</ele>
        <time>2017-02-18T07:26:31Z</time>
      </trkpt>
      <trkpt lat="42.565938000" lon="-2.472784000">
        <ele>681.30</ele>
        <time>2017-02-18T07:26:32Z</time>
      </trkpt>
      <trkpt lat="42.565962000" lon="-2.472747000">
        <ele>681.30</ele>
        <time>2017-02-18T07:26:33Z</time>
      </trkpt>
      <trkpt lat="42.565986000" lon="-2.472712000">
        <ele>681.40</ele>
        <time>2017-02-18T07:26:34Z</time>
      </trkpt>
      <trkpt lat="42.566008000" lon="-2.472675000">
        <ele>681.30</ele>
        <time>2017-02-18T07:26:35Z</time>
      </trkpt>
      <trkpt lat="42.566030000" lon="-2.472634000">
        <ele>681.30</ele>
        <time>2017-02-18T07:26:36Z</time>
      </trkpt>
      <trkpt lat="42.566054000" lon="-2.472601000">
        <ele>681.10</ele>
        <time>2017-02-18T07:26:37Z</time>
      </trkpt>
      <trkpt lat="42.566077000" lon="-2.472564000">
        <ele>681.00</ele>
        <time>2017-02-18T07:26:38Z</time>
      </trkpt>
      <trkpt lat="42.566100000" lon="-2.472527000">
        <ele>680.90</ele>
        <time>2017-02-18T07:26:39Z</time>
      </trkpt>
      <trkpt lat="42.566124000" lon="-2.472491000">
        <ele>680.90</ele>
        <time>2017-02-18T07:26:40Z</time>
      </trkpt>
      <trkpt lat="42.566148000" lon="-2.472456000">
        <ele>680.80</ele>
        <time>2017-02-18T07:26:41Z</time>
      </trkpt>
      <trkpt lat="42.566174000" lon="-2.472420000">
        <ele>680.70</ele>
        <time>2017-02-18T07:26:42Z</time>
      </trkpt>
      <trkpt lat="42.566200000" lon="-2.472384000">
        <ele>681.00</ele>
        <time>2017-02-18T07:26:43Z</time>
      </trkpt>
      <trkpt lat="42.566220000" lon="-2.472349000">
        <ele>681.10</ele>
        <time>2017-02-18T07:26:44Z</time>
      </trkpt>
      <trkpt lat="42.566243000" lon="-2.472314000">
        <ele>681.30</ele>
        <time>2017-02-18T07:26:45Z</time>
      </trkpt>
      <trkpt lat="42.566265000" lon="-2.472278000">
        <ele>681.30</ele>
        <time>2017-02-18T07:26:46Z</time>
      </trkpt>
      <trkpt lat="42.566288000" lon="-2.472244000">
        <ele>681.50</ele>
        <time>2017-02-18T07:26:47Z</time>
      </trkpt>
      <trkpt lat="42.566310000" lon="-2.472210000">
        <ele>681.60</ele>
        <time>2017-02-18T07:26:48Z</time>
      </trkpt>
      <trkpt lat="42.566333000" lon="-2.472175000">
        <ele>681.60</ele>
        <time>2017-02-18T07:26:49Z</time>
      </trkpt>
      <trkpt lat="42.566353000" lon="-2.472141000">
        <ele>681.70</ele>
        <time>2017-02-18T07:26:50Z</time>
      </trkpt>
      <trkpt lat="42.566375000" lon="-2.472108000">
        <ele>681.70</ele>
        <time>2017-02-18T07:26:51Z</time>
      </trkpt>
      <trkpt lat="42.566398000" lon="-2.472079000">
        <ele>681.70</ele>
        <time>2017-02-18T07:26:52Z</time>
      </trkpt>
      <trkpt lat="42.566421000" lon="-2.472045000">
        <ele>681.70</ele>
        <time>2017-02-18T07:26:53Z</time>
      </trkpt>
      <trkpt lat="42.566443000" lon="-2.472009000">
        <ele>681.80</ele>
        <time>2017-02-18T07:26:54Z</time>
      </trkpt>
      <trkpt lat="42.566466000" lon="-2.471975000">
        <ele>681.80</ele>
        <time>2017-02-18T07:26:55Z</time>
      </trkpt>
      <trkpt lat="42.566487000" lon="-2.471940000">
        <ele>681.80</ele>
        <time>2017-02-18T07:26:56Z</time>
      </trkpt>
      <trkpt lat="42.566507000" lon="-2.471909000">
        <ele>681.80</ele>
        <time>2017-02-18T07:26:57Z</time>
      </trkpt>
      <trkpt lat="42.566525000" lon="-2.471872000">
        <ele>681.70</ele>
        <time>2017-02-18T07:26:58Z</time>
      </trkpt>
      <trkpt lat="42.566546000" lon="-2.471834000">
        <ele>681.80</ele>
        <time>2017-02-18T07:26:59Z</time>
      </trkpt>
      <trkpt lat="42.566568000" lon="-2.471809000">
        <ele>681.80</ele>
        <time>2017-02-18T07:27:00Z</time>
      </trkpt>
      <trkpt lat="42.566590000" lon="-2.471784000">
        <ele>681.90</ele>
        <time>2017-02-18T07:27:01Z</time>
      </trkpt>
      <trkpt lat="42.566613000" lon="-2.471752000">
        <ele>681.90</ele>
        <time>2017-02-18T07:27:02Z</time>
      </trkpt>
      <trkpt lat="42.566637000" lon="-2.471718000">
        <ele>682.00</ele>
        <time>2017-02-18T07:27:03Z</time>
      </trkpt>
      <trkpt lat="42.566662000" lon="-2.471687000">
        <ele>682.00</ele>
        <time>2017-02-18T07:27:04Z</time>
      </trkpt>
      <trkpt lat="42.566682000" lon="-2.471658000">
        <ele>682.10</ele>
        <time>2017-02-18T07:27:05Z</time>
      </trkpt>
      <trkpt lat="42.566698000" lon="-2.471632000">
        <ele>682.20</ele>
        <time>2017-02-18T07:27:06Z</time>
      </trkpt>
      <trkpt lat="42.566719000" lon="-2.471600000">
        <ele>682.20</ele>
        <time>2017-02-18T07:27:07Z</time>
      </trkpt>
      <trkpt lat="42.566738000" lon="-2.471566000">
        <ele>682.20</ele>
        <time>2017-02-18T07:27:08Z</time>
      </trkpt>
      <trkpt lat="42.566758000" lon="-2.471534000">
        <ele>682.40</ele>
        <time>2017-02-18T07:27:09Z</time>
      </trkpt>
      <trkpt lat="42.566775000" lon="-2.471503000">
        <ele>682.50</ele>
        <time>2017-02-18T07:27:10Z</time>
      </trkpt>
      <trkpt lat="42.566793000" lon="-2.471473000">
        <ele>682.60</ele>
        <time>2017-02-18T07:27:11Z</time>
      </trkpt>
      <trkpt lat="42.566811000" lon="-2.471443000">
        <ele>682.70</ele>
        <time>2017-02-18T07:27:12Z</time>
      </trkpt>
      <trkpt lat="42.566827000" lon="-2.471418000">
        <ele>682.80</ele>
        <time>2017-02-18T07:27:13Z</time>
      </trkpt>
      <trkpt lat="42.566845000" lon="-2.471393000">
        <ele>682.80</ele>
        <time>2017-02-18T07:27:14Z</time>
      </trkpt>
      <trkpt lat="42.566859000" lon="-2.471369000">
        <ele>682.90</ele>
        <time>2017-02-18T07:27:15Z</time>
      </trkpt>
      <trkpt lat="42.566871000" lon="-2.471344000">
        <ele>683.00</ele>
        <time>2017-02-18T07:27:16Z</time>
      </trkpt>
      <trkpt lat="42.566884000" lon="-2.471320000">
        <ele>683.10</ele>
        <time>2017-02-18T07:27:17Z</time>
      </trkpt>
      <trkpt lat="42.566909000" lon="-2.471275000">
        <ele>683.20</ele>
        <time>2017-02-18T07:27:19Z</time>
      </trkpt>
      <trkpt lat="42.566919000" lon="-2.471255000">
        <ele>683.30</ele>
        <time>2017-02-18T07:27:20Z</time>
      </trkpt>
      <trkpt lat="42.566928000" lon="-2.471239000">
        <ele>683.40</ele>
        <time>2017-02-18T07:27:21Z</time>
      </trkpt>
      <trkpt lat="42.566934000" lon="-2.471230000">
        <ele>683.40</ele>
        <time>2017-02-18T07:27:22Z</time>
      </trkpt>
      <trkpt lat="42.566940000" lon="-2.471225000">
        <ele>683.30</ele>
        <time>2017-02-18T07:27:23Z</time>
      </trkpt>
      <trkpt lat="42.566939000" lon="-2.471223000">
        <ele>683.30</ele>
        <time>2017-02-18T07:27:24Z</time>
      </trkpt>
      <trkpt lat="42.566942000" lon="-2.471222000">
        <ele>683.30</ele>
        <time>2017-02-18T07:27:25Z</time>
      </trkpt>
      <trkpt lat="42.566947000" lon="-2.471215000">
        <ele>683.30</ele>
        <time>2017-02-18T07:27:26Z</time>
      </trkpt>
      <trkpt lat="42.566949000" lon="-2.471214000">
        <ele>683.30</ele>
        <time>2017-02-18T07:27:27Z</time>
      </trkpt>
      <trkpt lat="42.566950000" lon="-2.471214000">
        <ele>683.30</ele>
        <time>2017-02-18T07:27:28Z</time>
      </trkpt>
      <trkpt lat="42.566951000" lon="-2.471214000">
        <ele>683.30</ele>
        <time>2017-02-18T07:27:29Z</time>
      </trkpt>
      <trkpt lat="42.566952000" lon="-2.471211000">
        <ele>683.30</ele>
        <time>2017-02-18T07:27:30Z</time>
      </trkpt>
      <trkpt lat="42.566951000" lon="-2.471208000">
        <ele>683.30</ele>
        <time>2017-02-18T07:27:31Z</time>
      </trkpt>
      <trkpt lat="42.566950000" lon="-2.471206000">
        <ele>683.30</ele>
        <time>2017-02-18T07:27:32Z</time>
      </trkpt>
      <trkpt lat="42.566951000" lon="-2.471206000">
        <ele>683.30</ele>
        <time>2017-02-18T07:27:33Z</time>
      </trkpt>
      <trkpt lat="42.566951000" lon="-2.471206000">
        <ele>683.20</ele>
        <time>2017-02-18T07:27:34Z</time>
      </trkpt>
      <trkpt lat="42.566954000" lon="-2.471206000">
        <ele>683.30</ele>
        <time>2017-02-18T07:27:35Z</time>
      </trkpt>
      <trkpt lat="42.566957000" lon="-2.471207000">
        <ele>683.30</ele>
        <time>2017-02-18T07:27:36Z</time>
      </trkpt>
      <trkpt lat="42.566959000" lon="-2.471204000">
        <ele>683.40</ele>
        <time>2017-02-18T07:27:37Z</time>
      </trkpt>
      <trkpt lat="42.566958000" lon="-2.471206000">
        <ele>683.40</ele>
        <time>2017-02-18T07:27:38Z</time>
      </trkpt>
      <trkpt lat="42.566955000" lon="-2.471206000">
        <ele>683.40</ele>
        <time>2017-02-18T07:27:39Z</time>
      </trkpt>
      <trkpt lat="42.566954000" lon="-2.471206000">
        <ele>683.40</ele>
        <time>2017-02-18T07:27:40Z</time>
      </trkpt>
      <trkpt lat="42.566954000" lon="-2.471204000">
        <ele>683.40</ele>
        <time>2017-02-18T07:27:41Z</time>
      </trkpt>
      <trkpt lat="42.566952000" lon="-2.471202000">
        <ele>683.40</ele>
        <time>2017-02-18T07:27:42Z</time>
      </trkpt>
      <trkpt lat="42.566952000" lon="-2.471201000">
        <ele>683.30</ele>
        <time>2017-02-18T07:27:43Z</time>
      </trkpt>
      <trkpt lat="42.566953000" lon="-2.471201000">
        <ele>683.30</ele>
        <time>2017-02-18T07:27:44Z</time>
      </trkpt>
      <trkpt lat="42.566954000" lon="-2.471201000">
        <ele>683.30</ele>
        <time>2017-02-18T07:27:45Z</time>
      </trkpt>
      <trkpt lat="42.566956000" lon="-2.471199000">
        <ele>683.30</ele>
        <time>2017-02-18T07:27:46Z</time>
      </trkpt>
      <trkpt lat="42.566957000" lon="-2.471198000">
        <ele>683.30</ele>
        <time>2017-02-18T07:27:47Z</time>
      </trkpt>
      <trkpt lat="42.566955000" lon="-2.471199000">
        <ele>683.20</ele>
        <time>2017-02-18T07:27:48Z</time>
      </trkpt>
      <trkpt lat="42.566953000" lon="-2.471201000">
        <ele>683.30</ele>
        <time>2017-02-18T07:27:49Z</time>
      </trkpt>
      <trkpt lat="42.566952000" lon="-2.471202000">
        <ele>683.30</ele>
        <time>2017-02-18T07:27:50Z</time>
      </trkpt>
      <trkpt lat="42.566950000" lon="-2.471197000">
        <ele>683.30</ele>
        <time>2017-02-18T07:27:51Z</time>
      </trkpt>
      <trkpt lat="42.566951000" lon="-2.471198000">
        <ele>683.30</ele>
        <time>2017-02-18T07:27:52Z</time>
      </trkpt>
      <trkpt lat="42.566950000" lon="-2.471199000">
        <ele>683.30</ele>
        <time>2017-02-18T07:27:53Z</time>
      </trkpt>
      <trkpt lat="42.566948000" lon="-2.471202000">
        <ele>683.20</ele>
        <time>2017-02-18T07:27:54Z</time>
      </trkpt>
      <trkpt lat="42.566949000" lon="-2.471204000">
        <ele>683.20</ele>
        <time>2017-02-18T07:27:55Z</time>
      </trkpt>
      <trkpt lat="42.566950000" lon="-2.471203000">
        <ele>683.20</ele>
        <time>2017-02-18T07:27:56Z</time>
      </trkpt>
      <trkpt lat="42.566950000" lon="-2.471203000">
        <ele>683.40</ele>
        <time>2017-02-18T07:27:57Z</time>
      </trkpt>
      <trkpt lat="42.566950000" lon="-2.471205000">
        <ele>683.50</ele>
        <time>2017-02-18T07:27:58Z</time>
      </trkpt>
      <trkpt lat="42.566949000" lon="-2.471206000">
        <ele>683.60</ele>
        <time>2017-02-18T07:27:59Z</time>
      </trkpt>
      <trkpt lat="42.566950000" lon="-2.471206000">
        <ele>683.60</ele>
        <time>2017-02-18T07:28:00Z</time>
      </trkpt>
      <trkpt lat="42.566950000" lon="-2.471207000">
        <ele>683.70</ele>
        <time>2017-02-18T07:28:01Z</time>
      </trkpt>
      <trkpt lat="42.566952000" lon="-2.471209000">
        <ele>683.70</ele>
        <time>2017-02-18T07:28:02Z</time>
      </trkpt>
      <trkpt lat="42.566953000" lon="-2.471211000">
        <ele>683.70</ele>
        <time>2017-02-18T07:28:03Z</time>
      </trkpt>
      <trkpt lat="42.566955000" lon="-2.471214000">
        <ele>683.70</ele>
        <time>2017-02-18T07:28:04Z</time>
      </trkpt>
      <trkpt lat="42.566957000" lon="-2.471214000">
        <ele>683.60</ele>
        <time>2017-02-18T07:28:05Z</time>
      </trkpt>
      <trkpt lat="42.566957000" lon="-2.471214000">
        <ele>683.60</ele>
        <time>2017-02-18T07:28:06Z</time>
      </trkpt>
      <trkpt lat="42.566957000" lon="-2.471215000">
        <ele>683.50</ele>
        <time>2017-02-18T07:28:07Z</time>
      </trkpt>
      <trkpt lat="42.566959000" lon="-2.471211000">
        <ele>683.50</ele>
        <time>2017-02-18T07:28:08Z</time>
      </trkpt>
      <trkpt lat="42.566961000" lon="-2.471208000">
        <ele>683.50</ele>
        <time>2017-02-18T07:28:09Z</time>
      </trkpt>
      <trkpt lat="42.566962000" lon="-2.471206000">
        <ele>683.50</ele>
        <time>2017-02-18T07:28:10Z</time>
      </trkpt>
      <trkpt lat="42.566961000" lon="-2.471207000">
        <ele>683.60</ele>
        <time>2017-02-18T07:28:11Z</time>
      </trkpt>
      <trkpt lat="42.566961000" lon="-2.471207000">
        <ele>683.60</ele>
        <time>2017-02-18T07:28:12Z</time>
      </trkpt>
      <trkpt lat="42.566959000" lon="-2.471208000">
        <ele>683.70</ele>
        <time>2017-02-18T07:28:13Z</time>
      </trkpt>
      <trkpt lat="42.566959000" lon="-2.471209000">
        <ele>683.70</ele>
        <time>2017-02-18T07:28:14Z</time>
      </trkpt>
      <trkpt lat="42.566957000" lon="-2.471209000">
        <ele>683.60</ele>
        <time>2017-02-18T07:28:15Z</time>
      </trkpt>
      <trkpt lat="42.566956000" lon="-2.471209000">
        <ele>683.60</ele>
        <time>2017-02-18T07:28:16Z</time>
      </trkpt>
      <trkpt lat="42.566956000" lon="-2.471209000">
        <ele>683.50</ele>
        <time>2017-02-18T07:28:17Z</time>
      </trkpt>
      <trkpt lat="42.566955000" lon="-2.471211000">
        <ele>683.40</ele>
        <time>2017-02-18T07:28:18Z</time>
      </trkpt>
      <trkpt lat="42.566956000" lon="-2.471214000">
        <ele>683.40</ele>
        <time>2017-02-18T07:28:20Z</time>
      </trkpt>
      <trkpt lat="42.566958000" lon="-2.471214000">
        <ele>683.30</ele>
        <time>2017-02-18T07:28:21Z</time>
      </trkpt>
      <trkpt lat="42.566961000" lon="-2.471215000">
        <ele>683.30</ele>
        <time>2017-02-18T07:28:22Z</time>
      </trkpt>
      <trkpt lat="42.566962000" lon="-2.471216000">
        <ele>683.40</ele>
        <time>2017-02-18T07:28:23Z</time>
      </trkpt>
      <trkpt lat="42.566965000" lon="-2.471213000">
        <ele>683.40</ele>
        <time>2017-02-18T07:28:24Z</time>
      </trkpt>
      <trkpt lat="42.566965000" lon="-2.471213000">
        <ele>683.50</ele>
        <time>2017-02-18T07:28:25Z</time>
      </trkpt>
      <trkpt lat="42.566966000" lon="-2.471215000">
        <ele>683.50</ele>
        <time>2017-02-18T07:28:26Z</time>
      </trkpt>
      <trkpt lat="42.566965000" lon="-2.471215000">
        <ele>683.40</ele>
        <time>2017-02-18T07:28:27Z</time>
      </trkpt>
      <trkpt lat="42.566965000" lon="-2.471215000">
        <ele>683.40</ele>
        <time>2017-02-18T07:28:28Z</time>
      </trkpt>
      <trkpt lat="42.566967000" lon="-2.471217000">
        <ele>683.30</ele>
        <time>2017-02-18T07:28:29Z</time>
      </trkpt>
      <trkpt lat="42.566967000" lon="-2.471220000">
        <ele>683.20</ele>
        <time>2017-02-18T07:28:30Z</time>
      </trkpt>
      <trkpt lat="42.566966000" lon="-2.471223000">
        <ele>683.10</ele>
        <time>2017-02-18T07:28:31Z</time>
      </trkpt>
      <trkpt lat="42.566966000" lon="-2.471225000">
        <ele>683.00</ele>
        <time>2017-02-18T07:28:32Z</time>
      </trkpt>
      <trkpt lat="42.566966000" lon="-2.471226000">
        <ele>682.90</ele>
        <time>2017-02-18T07:28:33Z</time>
      </trkpt>
      <trkpt lat="42.566966000" lon="-2.471230000">
        <ele>682.80</ele>
        <time>2017-02-18T07:28:34Z</time>
      </trkpt>
      <trkpt lat="42.566965000" lon="-2.471230000">
        <ele>682.80</ele>
        <time>2017-02-18T07:28:35Z</time>
      </trkpt>
      <trkpt lat="42.566967000" lon="-2.471228000">
        <ele>682.80</ele>
        <time>2017-02-18T07:28:36Z</time>
      </trkpt>
      <trkpt lat="42.566967000" lon="-2.471230000">
        <ele>682.90</ele>
        <time>2017-02-18T07:28:37Z</time>
      </trkpt>
      <trkpt lat="42.566968000" lon="-2.471230000">
        <ele>682.90</ele>
        <time>2017-02-18T07:28:38Z</time>
      </trkpt>
      <trkpt lat="42.566969000" lon="-2.471229000">
        <ele>682.90</ele>
        <time>2017-02-18T07:28:39Z</time>
      </trkpt>
      <trkpt lat="42.566971000" lon="-2.471231000">
        <ele>682.80</ele>
        <time>2017-02-18T07:28:40Z</time>
      </trkpt>
      <trkpt lat="42.566971000" lon="-2.471233000">
        <ele>682.80</ele>
        <time>2017-02-18T07:28:41Z</time>
      </trkpt>
      <trkpt lat="42.566970000" lon="-2.471234000">
        <ele>682.90</ele>
        <time>2017-02-18T07:28:42Z</time>
      </trkpt>
      <trkpt lat="42.566970000" lon="-2.471233000">
        <ele>682.90</ele>
        <time>2017-02-18T07:28:43Z</time>
      </trkpt>
      <trkpt lat="42.566970000" lon="-2.471238000">
        <ele>682.90</ele>
        <time>2017-02-18T07:28:44Z</time>
      </trkpt>
      <trkpt lat="42.566970000" lon="-2.471241000">
        <ele>682.90</ele>
        <time>2017-02-18T07:28:45Z</time>
      </trkpt>
      <trkpt lat="42.566969000" lon="-2.471243000">
        <ele>682.90</ele>
        <time>2017-02-18T07:28:46Z</time>
      </trkpt>
      <trkpt lat="42.566969000" lon="-2.471242000">
        <ele>682.90</ele>
        <time>2017-02-18T07:28:47Z</time>
      </trkpt>
      <trkpt lat="42.566968000" lon="-2.471244000">
        <ele>683.00</ele>
        <time>2017-02-18T07:28:48Z</time>
      </trkpt>
      <trkpt lat="42.566966000" lon="-2.471242000">
        <ele>683.00</ele>
        <time>2017-02-18T07:28:49Z</time>
      </trkpt>
      <trkpt lat="42.566965000" lon="-2.471238000">
        <ele>683.00</ele>
        <time>2017-02-18T07:28:50Z</time>
      </trkpt>
      <trkpt lat="42.566965000" lon="-2.471238000">
        <ele>682.90</ele>
        <time>2017-02-18T07:28:51Z</time>
      </trkpt>
      <trkpt lat="42.566966000" lon="-2.471237000">
        <ele>682.80</ele>
        <time>2017-02-18T07:28:52Z</time>
      </trkpt>
      <trkpt lat="42.566966000" lon="-2.471235000">
        <ele>682.70</ele>
        <time>2017-02-18T07:28:53Z</time>
      </trkpt>
      <trkpt lat="42.566966000" lon="-2.471235000">
        <ele>682.60</ele>
        <time>2017-02-18T07:28:54Z</time>
      </trkpt>
      <trkpt lat="42.566970000" lon="-2.471233000">
        <ele>682.50</ele>
        <time>2017-02-18T07:28:55Z</time>
      </trkpt>
      <trkpt lat="42.566971000" lon="-2.471232000">
        <ele>682.50</ele>
        <time>2017-02-18T07:28:56Z</time>
      </trkpt>
      <trkpt lat="42.566972000" lon="-2.471228000">
        <ele>682.50</ele>
        <time>2017-02-18T07:28:57Z</time>
      </trkpt>
      <trkpt lat="42.566973000" lon="-2.471226000">
        <ele>682.50</ele>
        <time>2017-02-18T07:28:58Z</time>
      </trkpt>
      <trkpt lat="42.566974000" lon="-2.471223000">
        <ele>682.50</ele>
        <time>2017-02-18T07:28:59Z</time>
      </trkpt>
      <trkpt lat="42.566973000" lon="-2.471220000">
        <ele>682.50</ele>
        <time>2017-02-18T07:29:00Z</time>
      </trkpt>
      <trkpt lat="42.566971000" lon="-2.471217000">
        <ele>682.50</ele>
        <time>2017-02-18T07:29:01Z</time>
      </trkpt>
      <trkpt lat="42.566969000" lon="-2.471214000">
        <ele>682.50</ele>
        <time>2017-02-18T07:29:02Z</time>
      </trkpt>
      <trkpt lat="42.566964000" lon="-2.471211000">
        <ele>682.50</ele>
        <time>2017-02-18T07:29:03Z</time>
      </trkpt>
      <trkpt lat="42.566960000" lon="-2.471210000">
        <ele>682.50</ele>
        <time>2017-02-18T07:29:04Z</time>
      </trkpt>
      <trkpt lat="42.566958000" lon="-2.471208000">
        <ele>682.50</ele>
        <time>2017-02-18T07:29:05Z</time>
      </trkpt>
      <trkpt lat="42.566958000" lon="-2.471206000">
        <ele>682.50</ele>
        <time>2017-02-18T07:29:06Z</time>
      </trkpt>
      <trkpt lat="42.566959000" lon="-2.471204000">
        <ele>682.50</ele>
        <time>2017-02-18T07:29:07Z</time>
      </trkpt>
      <trkpt lat="42.566959000" lon="-2.471204000">
        <ele>682.50</ele>
        <time>2017-02-18T07:29:08Z</time>
      </trkpt>
      <trkpt lat="42.566959000" lon="-2.471201000">
        <ele>682.50</ele>
        <time>2017-02-18T07:29:09Z</time>
      </trkpt>
      <trkpt lat="42.566962000" lon="-2.471197000">
        <ele>682.50</ele>
        <time>2017-02-18T07:29:10Z</time>
      </trkpt>
      <trkpt lat="42.566966000" lon="-2.471194000">
        <ele>682.50</ele>
        <time>2017-02-18T07:29:11Z</time>
      </trkpt>
      <trkpt lat="42.566967000" lon="-2.471195000">
        <ele>682.50</ele>
        <time>2017-02-18T07:29:12Z</time>
      </trkpt>
      <trkpt lat="42.566967000" lon="-2.471195000">
        <ele>682.50</ele>
        <time>2017-02-18T07:29:13Z</time>
      </trkpt>
      <trkpt lat="42.566967000" lon="-2.471194000">
        <ele>682.60</ele>
        <time>2017-02-18T07:29:14Z</time>
      </trkpt>
      <trkpt lat="42.566968000" lon="-2.471193000">
        <ele>682.60</ele>
        <time>2017-02-18T07:29:15Z</time>
      </trkpt>
      <trkpt lat="42.566970000" lon="-2.471192000">
        <ele>682.60</ele>
        <time>2017-02-18T07:29:16Z</time>
      </trkpt>
      <trkpt lat="42.566970000" lon="-2.471193000">
        <ele>682.60</ele>
        <time>2017-02-18T07:29:17Z</time>
      </trkpt>
      <trkpt lat="42.566967000" lon="-2.471196000">
        <ele>682.60</ele>
        <time>2017-02-18T07:29:18Z</time>
      </trkpt>
      <trkpt lat="42.566966000" lon="-2.471195000">
        <ele>682.60</ele>
        <time>2017-02-18T07:29:19Z</time>
      </trkpt>
      <trkpt lat="42.566965000" lon="-2.471191000">
        <ele>682.40</ele>
        <time>2017-02-18T07:29:21Z</time>
      </trkpt>
      <trkpt lat="42.566967000" lon="-2.471192000">
        <ele>682.40</ele>
        <time>2017-02-18T07:29:22Z</time>
      </trkpt>
      <trkpt lat="42.566968000" lon="-2.471192000">
        <ele>682.30</ele>
        <time>2017-02-18T07:29:23Z</time>
      </trkpt>
      <trkpt lat="42.566970000" lon="-2.471192000">
        <ele>682.30</ele>
        <time>2017-02-18T07:29:24Z</time>
      </trkpt>
      <trkpt lat="42.566969000" lon="-2.471191000">
        <ele>682.10</ele>
        <time>2017-02-18T07:29:25Z</time>
      </trkpt>
      <trkpt lat="42.566967000" lon="-2.471190000">
        <ele>682.10</ele>
        <time>2017-02-18T07:29:26Z</time>
      </trkpt>
      <trkpt lat="42.566966000" lon="-2.471190000">
        <ele>681.90</ele>
        <time>2017-02-18T07:29:27Z</time>
      </trkpt>
      <trkpt lat="42.566965000" lon="-2.471191000">
        <ele>681.80</ele>
        <time>2017-02-18T07:29:28Z</time>
      </trkpt>
      <trkpt lat="42.566965000" lon="-2.471190000">
        <ele>681.80</ele>
        <time>2017-02-18T07:29:29Z</time>
      </trkpt>
      <trkpt lat="42.566967000" lon="-2.471187000">
        <ele>681.80</ele>
        <time>2017-02-18T07:29:30Z</time>
      </trkpt>
      <trkpt lat="42.566966000" lon="-2.471187000">
        <ele>681.70</ele>
        <time>2017-02-18T07:29:31Z</time>
      </trkpt>
      <trkpt lat="42.566966000" lon="-2.471185000">
        <ele>681.60</ele>
        <time>2017-02-18T07:29:32Z</time>
      </trkpt>
      <trkpt lat="42.566967000" lon="-2.471182000">
        <ele>681.60</ele>
        <time>2017-02-18T07:29:33Z</time>
      </trkpt>
      <trkpt lat="42.566965000" lon="-2.471181000">
        <ele>681.60</ele>
        <time>2017-02-18T07:29:34Z</time>
      </trkpt>
      <trkpt lat="42.566963000" lon="-2.471179000">
        <ele>681.60</ele>
        <time>2017-02-18T07:29:35Z</time>
      </trkpt>
      <trkpt lat="42.566961000" lon="-2.471176000">
        <ele>681.60</ele>
        <time>2017-02-18T07:29:36Z</time>
      </trkpt>
      <trkpt lat="42.566959000" lon="-2.471174000">
        <ele>681.60</ele>
        <time>2017-02-18T07:29:37Z</time>
      </trkpt>
      <trkpt lat="42.566961000" lon="-2.471178000">
        <ele>681.50</ele>
        <time>2017-02-18T07:29:38Z</time>
      </trkpt>
      <trkpt lat="42.566960000" lon="-2.471177000">
        <ele>681.60</ele>
        <time>2017-02-18T07:29:39Z</time>
      </trkpt>
      <trkpt lat="42.566955000" lon="-2.471174000">
        <ele>681.70</ele>
        <time>2017-02-18T07:29:40Z</time>
      </trkpt>
      <trkpt lat="42.566951000" lon="-2.471166000">
        <ele>681.60</ele>
        <time>2017-02-18T07:29:41Z</time>
      </trkpt>
      <trkpt lat="42.566945000" lon="-2.471147000">
        <ele>681.60</ele>
        <time>2017-02-18T07:29:42Z</time>
      </trkpt>
      <trkpt lat="42.566948000" lon="-2.471127000">
        <ele>681.50</ele>
        <time>2017-02-18T07:29:43Z</time>
      </trkpt>
      <trkpt lat="42.566957000" lon="-2.471110000">
        <ele>681.50</ele>
        <time>2017-02-18T07:29:44Z</time>
      </trkpt>
      <trkpt lat="42.566969000" lon="-2.471095000">
        <ele>681.40</ele>
        <time>2017-02-18T07:29:45Z</time>
      </trkpt>
      <trkpt lat="42.566987000" lon="-2.471090000">
        <ele>681.40</ele>
        <time>2017-02-18T07:29:46Z</time>
      </trkpt>
      <trkpt lat="42.567008000" lon="-2.471090000">
        <ele>681.50</ele>
        <time>2017-02-18T07:29:47Z</time>
      </trkpt>
      <trkpt lat="42.567027000" lon="-2.471090000">
        <ele>681.50</ele>
        <time>2017-02-18T07:29:48Z</time>
      </trkpt>
      <trkpt lat="42.567045000" lon="-2.471092000">
        <ele>681.90</ele>
        <time>2017-02-18T07:29:49Z</time>
      </trkpt>
      <trkpt lat="42.567063000" lon="-2.471089000">
        <ele>682.10</ele>
        <time>2017-02-18T07:29:50Z</time>
      </trkpt>
      <trkpt lat="42.567084000" lon="-2.471081000">
        <ele>682.20</ele>
        <time>2017-02-18T07:29:51Z</time>
      </trkpt>
      <trkpt lat="42.567100000" lon="-2.471063000">
        <ele>682.40</ele>
        <time>2017-02-18T07:29:52Z</time>
      </trkpt>
      <trkpt lat="42.567117000" lon="-2.471043000">
        <ele>682.50</ele>
        <time>2017-02-18T07:29:53Z</time>
      </trkpt>
      <trkpt lat="42.567134000" lon="-2.471023000">
        <ele>682.60</ele>
        <time>2017-02-18T07:29:54Z</time>
      </trkpt>
      <trkpt lat="42.567147000" lon="-2.471001000">
        <ele>682.60</ele>
        <time>2017-02-18T07:29:55Z</time>
      </trkpt>
      <trkpt lat="42.567163000" lon="-2.470977000">
        <ele>682.70</ele>
        <time>2017-02-18T07:29:56Z</time>
      </trkpt>
      <trkpt lat="42.567178000" lon="-2.470952000">
        <ele>682.70</ele>
        <time>2017-02-18T07:29:57Z</time>
      </trkpt>
      <trkpt lat="42.567193000" lon="-2.470927000">
        <ele>682.70</ele>
        <time>2017-02-18T07:29:58Z</time>
      </trkpt>
      <trkpt lat="42.567210000" lon="-2.470905000">
        <ele>682.80</ele>
        <time>2017-02-18T07:29:59Z</time>
      </trkpt>
      <trkpt lat="42.567227000" lon="-2.470884000">
        <ele>682.90</ele>
        <time>2017-02-18T07:30:00Z</time>
      </trkpt>
      <trkpt lat="42.567243000" lon="-2.470863000">
        <ele>683.10</ele>
        <time>2017-02-18T07:30:01Z</time>
      </trkpt>
      <trkpt lat="42.567260000" lon="-2.470839000">
        <ele>683.20</ele>
        <time>2017-02-18T07:30:02Z</time>
      </trkpt>
      <trkpt lat="42.567275000" lon="-2.470818000">
        <ele>683.30</ele>
        <time>2017-02-18T07:30:03Z</time>
      </trkpt>
      <trkpt lat="42.567288000" lon="-2.470798000">
        <ele>683.40</ele>
        <time>2017-02-18T07:30:04Z</time>
      </trkpt>
      <trkpt lat="42.567298000" lon="-2.470777000">
        <ele>683.40</ele>
        <time>2017-02-18T07:30:05Z</time>
      </trkpt>
      <trkpt lat="42.567306000" lon="-2.470754000">
        <ele>683.40</ele>
        <time>2017-02-18T07:30:06Z</time>
      </trkpt>
      <trkpt lat="42.567310000" lon="-2.470732000">
        <ele>683.60</ele>
        <time>2017-02-18T07:30:07Z</time>
      </trkpt>
      <trkpt lat="42.567314000" lon="-2.470710000">
        <ele>683.70</ele>
        <time>2017-02-18T07:30:08Z</time>
      </trkpt>
      <trkpt lat="42.567315000" lon="-2.470684000">
        <ele>683.80</ele>
        <time>2017-02-18T07:30:09Z</time>
      </trkpt>
      <trkpt lat="42.567317000" lon="-2.470657000">
        <ele>683.80</ele>
        <time>2017-02-18T07:30:10Z</time>
      </trkpt>
      <trkpt lat="42.567317000" lon="-2.470632000">
        <ele>683.90</ele>
        <time>2017-02-18T07:30:11Z</time>
      </trkpt>
      <trkpt lat="42.567313000" lon="-2.470608000">
        <ele>683.90</ele>
        <time>2017-02-18T07:30:12Z</time>
      </trkpt>
      <trkpt lat="42.567305000" lon="-2.470589000">
        <ele>683.90</ele>
        <time>2017-02-18T07:30:13Z</time>
      </trkpt>
      <trkpt lat="42.567297000" lon="-2.470570000">
        <ele>683.90</ele>
        <time>2017-02-18T07:30:14Z</time>
      </trkpt>
      <trkpt lat="42.567284000" lon="-2.470551000">
        <ele>684.10</ele>
        <time>2017-02-18T07:30:15Z</time>
      </trkpt>
      <trkpt lat="42.567270000" lon="-2.470527000">
        <ele>684.30</ele>
        <time>2017-02-18T07:30:16Z</time>
      </trkpt>
      <trkpt lat="42.567254000" lon="-2.470505000">
        <ele>684.40</ele>
        <time>2017-02-18T07:30:17Z</time>
      </trkpt>
      <trkpt lat="42.567237000" lon="-2.470480000">
        <ele>684.50</ele>
        <time>2017-02-18T07:30:18Z</time>
      </trkpt>
      <trkpt lat="42.567221000" lon="-2.470455000">
        <ele>684.50</ele>
        <time>2017-02-18T07:30:19Z</time>
      </trkpt>
      <trkpt lat="42.567202000" lon="-2.470424000">
        <ele>684.60</ele>
        <time>2017-02-18T07:30:20Z</time>
      </trkpt>
      <trkpt lat="42.567158000" lon="-2.470350000">
        <ele>684.60</ele>
        <time>2017-02-18T07:30:22Z</time>
      </trkpt>
      <trkpt lat="42.567137000" lon="-2.470312000">
        <ele>684.40</ele>
        <time>2017-02-18T07:30:23Z</time>
      </trkpt>
      <trkpt lat="42.567117000" lon="-2.470273000">
        <ele>684.20</ele>
        <time>2017-02-18T07:30:24Z</time>
      </trkpt>
      <trkpt lat="42.567099000" lon="-2.470233000">
        <ele>684.10</ele>
        <time>2017-02-18T07:30:25Z</time>
      </trkpt>
      <trkpt lat="42.567083000" lon="-2.470194000">
        <ele>684.00</ele>
        <time>2017-02-18T07:30:26Z</time>
      </trkpt>
      <trkpt lat="42.567066000" lon="-2.470156000">
        <ele>684.20</ele>
        <time>2017-02-18T07:30:27Z</time>
      </trkpt>
      <trkpt lat="42.567054000" lon="-2.470119000">
        <ele>684.30</ele>
        <time>2017-02-18T07:30:28Z</time>
      </trkpt>
      <trkpt lat="42.567037000" lon="-2.470080000">
        <ele>684.40</ele>
        <time>2017-02-18T07:30:29Z</time>
      </trkpt>
      <trkpt lat="42.567023000" lon="-2.470045000">
        <ele>684.50</ele>
        <time>2017-02-18T07:30:30Z</time>
      </trkpt>
      <trkpt lat="42.567011000" lon="-2.470005000">
        <ele>684.50</ele>
        <time>2017-02-18T07:30:31Z</time>
      </trkpt>
      <trkpt lat="42.566998000" lon="-2.469967000">
        <ele>684.50</ele>
        <time>2017-02-18T07:30:32Z</time>
      </trkpt>
      <trkpt lat="42.566985000" lon="-2.469929000">
        <ele>684.50</ele>
        <time>2017-02-18T07:30:33Z</time>
      </trkpt>
      <trkpt lat="42.566971000" lon="-2.469892000">
        <ele>684.50</ele>
        <time>2017-02-18T07:30:34Z</time>
      </trkpt>
      <trkpt lat="42.566960000" lon="-2.469857000">
        <ele>684.60</ele>
        <time>2017-02-18T07:30:35Z</time>
      </trkpt>
      <trkpt lat="42.566950000" lon="-2.469824000">
        <ele>684.60</ele>
        <time>2017-02-18T07:30:36Z</time>
      </trkpt>
      <trkpt lat="42.566941000" lon="-2.469791000">
        <ele>684.60</ele>
        <time>2017-02-18T07:30:37Z</time>
      </trkpt>
      <trkpt lat="42.566933000" lon="-2.469759000">
        <ele>684.70</ele>
        <time>2017-02-18T07:30:38Z</time>
      </trkpt>
      <trkpt lat="42.566924000" lon="-2.469728000">
        <ele>684.50</ele>
        <time>2017-02-18T07:30:39Z</time>
      </trkpt>
      <trkpt lat="42.566915000" lon="-2.469704000">
        <ele>684.30</ele>
        <time>2017-02-18T07:30:40Z</time>
      </trkpt>
      <trkpt lat="42.566907000" lon="-2.469681000">
        <ele>684.10</ele>
        <time>2017-02-18T07:30:41Z</time>
      </trkpt>
      <trkpt lat="42.566903000" lon="-2.469659000">
        <ele>684.00</ele>
        <time>2017-02-18T07:30:42Z</time>
      </trkpt>
      <trkpt lat="42.566896000" lon="-2.469641000">
        <ele>684.00</ele>
        <time>2017-02-18T07:30:43Z</time>
      </trkpt>
      <trkpt lat="42.566895000" lon="-2.469618000">
        <ele>683.90</ele>
        <time>2017-02-18T07:30:44Z</time>
      </trkpt>
      <trkpt lat="42.566896000" lon="-2.469593000">
        <ele>684.10</ele>
        <time>2017-02-18T07:30:45Z</time>
      </trkpt>
      <trkpt lat="42.566888000" lon="-2.469570000">
        <ele>684.20</ele>
        <time>2017-02-18T07:30:46Z</time>
      </trkpt>
      <trkpt lat="42.566888000" lon="-2.469547000">
        <ele>684.40</ele>
        <time>2017-02-18T07:30:47Z</time>
      </trkpt>
      <trkpt lat="42.566891000" lon="-2.469528000">
        <ele>684.50</ele>
        <time>2017-02-18T07:30:48Z</time>
      </trkpt>
      <trkpt lat="42.566894000" lon="-2.469525000">
        <ele>684.60</ele>
        <time>2017-02-18T07:30:49Z</time>
      </trkpt>
      <trkpt lat="42.566898000" lon="-2.469520000">
        <ele>684.60</ele>
        <time>2017-02-18T07:30:50Z</time>
      </trkpt>
      <trkpt lat="42.566898000" lon="-2.469510000">
        <ele>684.60</ele>
        <time>2017-02-18T07:30:51Z</time>
      </trkpt>
      <trkpt lat="42.566899000" lon="-2.469506000">
        <ele>684.60</ele>
        <time>2017-02-18T07:30:52Z</time>
      </trkpt>
      <trkpt lat="42.566900000" lon="-2.469505000">
        <ele>684.60</ele>
        <time>2017-02-18T07:30:53Z</time>
      </trkpt>
      <trkpt lat="42.566898000" lon="-2.469503000">
        <ele>684.60</ele>
        <time>2017-02-18T07:30:54Z</time>
      </trkpt>
      <trkpt lat="42.566898000" lon="-2.469501000">
        <ele>684.60</ele>
        <time>2017-02-18T07:30:55Z</time>
      </trkpt>
      <trkpt lat="42.566895000" lon="-2.469496000">
        <ele>684.60</ele>
        <time>2017-02-18T07:30:56Z</time>
      </trkpt>
      <trkpt lat="42.566893000" lon="-2.469493000">
        <ele>684.70</ele>
        <time>2017-02-18T07:30:57Z</time>
      </trkpt>
      <trkpt lat="42.566894000" lon="-2.469493000">
        <ele>684.70</ele>
        <time>2017-02-18T07:30:58Z</time>
      </trkpt>
      <trkpt lat="42.566893000" lon="-2.469493000">
        <ele>684.80</ele>
        <time>2017-02-18T07:30:59Z</time>
      </trkpt>
      <trkpt lat="42.566892000" lon="-2.469493000">
        <ele>684.80</ele>
        <time>2017-02-18T07:31:00Z</time>
      </trkpt>
      <trkpt lat="42.566894000" lon="-2.469495000">
        <ele>684.70</ele>
        <time>2017-02-18T07:31:01Z</time>
      </trkpt>
      <trkpt lat="42.566895000" lon="-2.469499000">
        <ele>684.70</ele>
        <time>2017-02-18T07:31:02Z</time>
      </trkpt>
      <trkpt lat="42.566896000" lon="-2.469501000">
        <ele>684.60</ele>
        <time>2017-02-18T07:31:03Z</time>
      </trkpt>
      <trkpt lat="42.566895000" lon="-2.469501000">
        <ele>684.60</ele>
        <time>2017-02-18T07:31:04Z</time>
      </trkpt>
      <trkpt lat="42.566895000" lon="-2.469500000">
        <ele>684.60</ele>
        <time>2017-02-18T07:31:05Z</time>
      </trkpt>
      <trkpt lat="42.566895000" lon="-2.469500000">
        <ele>684.50</ele>
        <time>2017-02-18T07:31:06Z</time>
      </trkpt>
      <trkpt lat="42.566896000" lon="-2.469495000">
        <ele>684.60</ele>
        <time>2017-02-18T07:31:07Z</time>
      </trkpt>
      <trkpt lat="42.566897000" lon="-2.469494000">
        <ele>684.60</ele>
        <time>2017-02-18T07:31:08Z</time>
      </trkpt>
      <trkpt lat="42.566898000" lon="-2.469495000">
        <ele>684.60</ele>
        <time>2017-02-18T07:31:09Z</time>
      </trkpt>
      <trkpt lat="42.566897000" lon="-2.469493000">
        <ele>684.60</ele>
        <time>2017-02-18T07:31:10Z</time>
      </trkpt>
      <trkpt lat="42.566897000" lon="-2.469494000">
        <ele>684.60</ele>
        <time>2017-02-18T07:31:11Z</time>
      </trkpt>
      <trkpt lat="42.566896000" lon="-2.469494000">
        <ele>684.60</ele>
        <time>2017-02-18T07:31:12Z</time>
      </trkpt>
      <trkpt lat="42.566896000" lon="-2.469494000">
        <ele>684.40</ele>
        <time>2017-02-18T07:31:13Z</time>
      </trkpt>
      <trkpt lat="42.566895000" lon="-2.469494000">
        <ele>684.30</ele>
        <time>2017-02-18T07:31:14Z</time>
      </trkpt>
      <trkpt lat="42.566893000" lon="-2.469494000">
        <ele>684.40</ele>
        <time>2017-02-18T07:31:15Z</time>
      </trkpt>
      <trkpt lat="42.566891000" lon="-2.469495000">
        <ele>684.50</ele>
        <time>2017-02-18T07:31:16Z</time>
      </trkpt>
      <trkpt lat="42.566892000" lon="-2.469492000">
        <ele>684.30</ele>
        <time>2017-02-18T07:31:17Z</time>
      </trkpt>
      <trkpt lat="42.566893000" lon="-2.469490000">
        <ele>684.20</ele>
        <time>2017-02-18T07:31:18Z</time>
      </trkpt>
      <trkpt lat="42.566893000" lon="-2.469487000">
        <ele>684.30</ele>
        <time>2017-02-18T07:31:19Z</time>
      </trkpt>
      <trkpt lat="42.566891000" lon="-2.469486000">
        <ele>684.40</ele>
        <time>2017-02-18T07:31:20Z</time>
      </trkpt>
      <trkpt lat="42.566889000" lon="-2.469482000">
        <ele>684.40</ele>
        <time>2017-02-18T07:31:21Z</time>
      </trkpt>
      <trkpt lat="42.566888000" lon="-2.469482000">
        <ele>684.50</ele>
        <time>2017-02-18T07:31:23Z</time>
      </trkpt>
      <trkpt lat="42.566888000" lon="-2.469482000">
        <ele>684.50</ele>
        <time>2017-02-18T07:31:24Z</time>
      </trkpt>
      <trkpt lat="42.566888000" lon="-2.469482000">
        <ele>684.50</ele>
        <time>2017-02-18T07:31:25Z</time>
      </trkpt>
      <trkpt lat="42.566889000" lon="-2.469482000">
        <ele>684.50</ele>
        <time>2017-02-18T07:31:26Z</time>
      </trkpt>
      <trkpt lat="42.566888000" lon="-2.469481000">
        <ele>684.40</ele>
        <time>2017-02-18T07:31:27Z</time>
      </trkpt>
      <trkpt lat="42.566890000" lon="-2.469481000">
        <ele>684.20</ele>
        <time>2017-02-18T07:31:28Z</time>
      </trkpt>
      <trkpt lat="42.566893000" lon="-2.469481000">
        <ele>684.10</ele>
        <time>2017-02-18T07:31:29Z</time>
      </trkpt>
      <trkpt lat="42.566895000" lon="-2.469482000">
        <ele>684.10</ele>
        <time>2017-02-18T07:31:30Z</time>
      </trkpt>
      <trkpt lat="42.566897000" lon="-2.469484000">
        <ele>684.00</ele>
        <time>2017-02-18T07:31:31Z</time>
      </trkpt>
      <trkpt lat="42.566899000" lon="-2.469485000">
        <ele>683.90</ele>
        <time>2017-02-18T07:31:32Z</time>
      </trkpt>
      <trkpt lat="42.566900000" lon="-2.469486000">
        <ele>684.00</ele>
        <time>2017-02-18T07:31:33Z</time>
      </trkpt>
      <trkpt lat="42.566898000" lon="-2.469487000">
        <ele>684.00</ele>
        <time>2017-02-18T07:31:34Z</time>
      </trkpt>
      <trkpt lat="42.566896000" lon="-2.469487000">
        <ele>684.00</ele>
        <time>2017-02-18T07:31:35Z</time>
      </trkpt>
      <trkpt lat="42.566894000" lon="-2.469489000">
        <ele>684.00</ele>
        <time>2017-02-18T07:31:36Z</time>
      </trkpt>
      <trkpt lat="42.566888000" lon="-2.469490000">
        <ele>684.00</ele>
        <time>2017-02-18T07:31:37Z</time>
      </trkpt>
      <trkpt lat="42.566885000" lon="-2.469493000">
        <ele>684.10</ele>
        <time>2017-02-18T07:31:38Z</time>
      </trkpt>
      <trkpt lat="42.566889000" lon="-2.469492000">
        <ele>684.10</ele>
        <time>2017-02-18T07:31:39Z</time>
      </trkpt>
      <trkpt lat="42.566887000" lon="-2.469492000">
        <ele>684.10</ele>
        <time>2017-02-18T07:31:40Z</time>
      </trkpt>
      <trkpt lat="42.566882000" lon="-2.469491000">
        <ele>684.20</ele>
        <time>2017-02-18T07:31:41Z</time>
      </trkpt>
      <trkpt lat="42.566879000" lon="-2.469490000">
        <ele>684.20</ele>
        <time>2017-02-18T07:31:42Z</time>
      </trkpt>
      <trkpt lat="42.566878000" lon="-2.469488000">
        <ele>684.20</ele>
        <time>2017-02-18T07:31:43Z</time>
      </trkpt>
      <trkpt lat="42.566873000" lon="-2.469491000">
        <ele>684.20</ele>
        <time>2017-02-18T07:31:44Z</time>
      </trkpt>
      <trkpt lat="42.566869000" lon="-2.469495000">
        <ele>684.20</ele>
        <time>2017-02-18T07:31:45Z</time>
      </trkpt>
      <trkpt lat="42.566876000" lon="-2.469492000">
        <ele>684.20</ele>
        <time>2017-02-18T07:31:46Z</time>
      </trkpt>
      <trkpt lat="42.566882000" lon="-2.469493000">
        <ele>684.20</ele>
        <time>2017-02-18T07:31:47Z</time>
      </trkpt>
      <trkpt lat="42.566890000" lon="-2.469488000">
        <ele>684.10</ele>
        <time>2017-02-18T07:31:48Z</time>
      </trkpt>
      <trkpt lat="42.566899000" lon="-2.469485000">
        <ele>684.10</ele>
        <time>2017-02-18T07:31:49Z</time>
      </trkpt>
      <trkpt lat="42.566905000" lon="-2.469483000">
        <ele>684.10</ele>
        <time>2017-02-18T07:31:50Z</time>
      </trkpt>
      <trkpt lat="42.566910000" lon="-2.469482000">
        <ele>684.10</ele>
        <time>2017-02-18T07:31:51Z</time>
      </trkpt>
      <trkpt lat="42.566914000" lon="-2.469478000">
        <ele>684.10</ele>
        <time>2017-02-18T07:31:52Z</time>
      </trkpt>
      <trkpt lat="42.566917000" lon="-2.469478000">
        <ele>684.00</ele>
        <time>2017-02-18T07:31:53Z</time>
      </trkpt>
      <trkpt lat="42.566919000" lon="-2.469478000">
        <ele>683.90</ele>
        <time>2017-02-18T07:31:54Z</time>
      </trkpt>
      <trkpt lat="42.566920000" lon="-2.469480000">
        <ele>683.90</ele>
        <time>2017-02-18T07:31:55Z</time>
      </trkpt>
      <trkpt lat="42.566923000" lon="-2.469483000">
        <ele>683.90</ele>
        <time>2017-02-18T07:31:56Z</time>
      </trkpt>
      <trkpt lat="42.566926000" lon="-2.469487000">
        <ele>684.00</ele>
        <time>2017-02-18T07:31:57Z</time>
      </trkpt>
      <trkpt lat="42.566928000" lon="-2.469491000">
        <ele>684.10</ele>
        <time>2017-02-18T07:31:58Z</time>
      </trkpt>
      <trkpt lat="42.566927000" lon="-2.469495000">
        <ele>684.20</ele>
        <time>2017-02-18T07:31:59Z</time>
      </trkpt>
      <trkpt lat="42.566928000" lon="-2.469499000">
        <ele>684.30</ele>
        <time>2017-02-18T07:32:00Z</time>
      </trkpt>
      <trkpt lat="42.566927000" lon="-2.469500000">
        <ele>684.40</ele>
        <time>2017-02-18T07:32:01Z</time>
      </trkpt>
      <trkpt lat="42.566925000" lon="-2.469503000">
        <ele>684.40</ele>
        <time>2017-02-18T07:32:02Z</time>
      </trkpt>
      <trkpt lat="42.566924000" lon="-2.469505000">
        <ele>684.30</ele>
        <time>2017-02-18T07:32:03Z</time>
      </trkpt>
      <trkpt lat="42.566923000" lon="-2.469506000">
        <ele>684.20</ele>
        <time>2017-02-18T07:32:04Z</time>
      </trkpt>
      <trkpt lat="42.566920000" lon="-2.469506000">
        <ele>684.10</ele>
        <time>2017-02-18T07:32:05Z</time>
      </trkpt>
      <trkpt lat="42.566917000" lon="-2.469506000">
        <ele>684.10</ele>
        <time>2017-02-18T07:32:06Z</time>
      </trkpt>
      <trkpt lat="42.566915000" lon="-2.469507000">
        <ele>684.10</ele>
        <time>2017-02-18T07:32:07Z</time>
      </trkpt>
      <trkpt lat="42.566912000" lon="-2.469505000">
        <ele>684.00</ele>
        <time>2017-02-18T07:32:08Z</time>
      </trkpt>
      <trkpt lat="42.566910000" lon="-2.469503000">
        <ele>684.00</ele>
        <time>2017-02-18T07:32:09Z</time>
      </trkpt>
      <trkpt lat="42.566910000" lon="-2.469504000">
        <ele>684.00</ele>
        <time>2017-02-18T07:32:10Z</time>
      </trkpt>
      <trkpt lat="42.566910000" lon="-2.469505000">
        <ele>684.00</ele>
        <time>2017-02-18T07:32:11Z</time>
      </trkpt>
      <trkpt lat="42.566910000" lon="-2.469501000">
        <ele>684.10</ele>
        <time>2017-02-18T07:32:12Z</time>
      </trkpt>
      <trkpt lat="42.566909000" lon="-2.469499000">
        <ele>684.10</ele>
        <time>2017-02-18T07:32:13Z</time>
      </trkpt>
      <trkpt lat="42.566902000" lon="-2.469501000">
        <ele>684.10</ele>
        <time>2017-02-18T07:32:14Z</time>
      </trkpt>
      <trkpt lat="42.566898000" lon="-2.469499000">
        <ele>684.10</ele>
        <time>2017-02-18T07:32:15Z</time>
      </trkpt>
      <trkpt lat="42.566896000" lon="-2.469491000">
        <ele>684.10</ele>
        <time>2017-02-18T07:32:16Z</time>
      </trkpt>
      <trkpt lat="42.566895000" lon="-2.469487000">
        <ele>684.00</ele>
        <time>2017-02-18T07:32:17Z</time>
      </trkpt>
      <trkpt lat="42.566893000" lon="-2.469482000">
        <ele>683.90</ele>
        <time>2017-02-18T07:32:18Z</time>
      </trkpt>
      <trkpt lat="42.566893000" lon="-2.469479000">
        <ele>683.90</ele>
        <time>2017-02-18T07:32:19Z</time>
      </trkpt>
      <trkpt lat="42.566891000" lon="-2.469481000">
        <ele>683.90</ele>
        <time>2017-02-18T07:32:20Z</time>
      </trkpt>
      <trkpt lat="42.566890000" lon="-2.469485000">
        <ele>684.00</ele>
        <time>2017-02-18T07:32:21Z</time>
      </trkpt>
      <trkpt lat="42.566890000" lon="-2.469488000">
        <ele>684.10</ele>
        <time>2017-02-18T07:32:22Z</time>
      </trkpt>
      <trkpt lat="42.566882000" lon="-2.469490000">
        <ele>684.30</ele>
        <time>2017-02-18T07:32:24Z</time>
      </trkpt>
      <trkpt lat="42.566882000" lon="-2.469490000">
        <ele>684.30</ele>
        <time>2017-02-18T07:32:25Z</time>
      </trkpt>
      <trkpt lat="42.566883000" lon="-2.469488000">
        <ele>684.40</ele>
        <time>2017-02-18T07:32:26Z</time>
      </trkpt>
      <trkpt lat="42.566884000" lon="-2.469484000">
        <ele>684.60</ele>
        <time>2017-02-18T07:32:27Z</time>
      </trkpt>
      <trkpt lat="42.566885000" lon="-2.469482000">
        <ele>684.70</ele>
        <time>2017-02-18T07:32:28Z</time>
      </trkpt>
      <trkpt lat="42.566886000" lon="-2.469482000">
        <ele>684.80</ele>
        <time>2017-02-18T07:32:29Z</time>
      </trkpt>
      <trkpt lat="42.566888000" lon="-2.469483000">
        <ele>684.90</ele>
        <time>2017-02-18T07:32:30Z</time>
      </trkpt>
      <trkpt lat="42.566891000" lon="-2.469477000">
        <ele>685.00</ele>
        <time>2017-02-18T07:32:31Z</time>
      </trkpt>
      <trkpt lat="42.566896000" lon="-2.469470000">
        <ele>685.00</ele>
        <time>2017-02-18T07:32:32Z</time>
      </trkpt>
      <trkpt lat="42.566900000" lon="-2.469465000">
        <ele>684.90</ele>
        <time>2017-02-18T07:32:33Z</time>
      </trkpt>
      <trkpt lat="42.566903000" lon="-2.469460000">
        <ele>684.90</ele>
        <time>2017-02-18T07:32:34Z</time>
      </trkpt>
      <trkpt lat="42.566904000" lon="-2.469456000">
        <ele>684.80</ele>
        <time>2017-02-18T07:32:35Z</time>
      </trkpt>
      <trkpt lat="42.566905000" lon="-2.469450000">
        <ele>684.80</ele>
        <time>2017-02-18T07:32:36Z</time>
      </trkpt>
      <trkpt lat="42.566906000" lon="-2.469445000">
        <ele>684.70</ele>
        <time>2017-02-18T07:32:37Z</time>
      </trkpt>
      <trkpt lat="42.566907000" lon="-2.469443000">
        <ele>684.70</ele>
        <time>2017-02-18T07:32:38Z</time>
      </trkpt>
      <trkpt lat="42.566908000" lon="-2.469442000">
        <ele>684.70</ele>
        <time>2017-02-18T07:32:39Z</time>
      </trkpt>
      <trkpt lat="42.566910000" lon="-2.469441000">
        <ele>684.70</ele>
        <time>2017-02-18T07:32:40Z</time>
      </trkpt>
      <trkpt lat="42.566911000" lon="-2.469445000">
        <ele>684.60</ele>
        <time>2017-02-18T07:32:41Z</time>
      </trkpt>
      <trkpt lat="42.566910000" lon="-2.469446000">
        <ele>684.60</ele>
        <time>2017-02-18T07:32:42Z</time>
      </trkpt>
      <trkpt lat="42.566906000" lon="-2.469445000">
        <ele>684.50</ele>
        <time>2017-02-18T07:32:43Z</time>
      </trkpt>
      <trkpt lat="42.566908000" lon="-2.469445000">
        <ele>684.30</ele>
        <time>2017-02-18T07:32:44Z</time>
      </trkpt>
      <trkpt lat="42.566907000" lon="-2.469441000">
        <ele>684.40</ele>
        <time>2017-02-18T07:32:45Z</time>
      </trkpt>
      <trkpt lat="42.566903000" lon="-2.469442000">
        <ele>684.40</ele>
        <time>2017-02-18T07:32:46Z</time>
      </trkpt>
      <trkpt lat="42.566903000" lon="-2.469445000">
        <ele>684.50</ele>
        <time>2017-02-18T07:32:47Z</time>
      </trkpt>
      <trkpt lat="42.566904000" lon="-2.469447000">
        <ele>684.60</ele>
        <time>2017-02-18T07:32:48Z</time>
      </trkpt>
      <trkpt lat="42.566904000" lon="-2.469447000">
        <ele>684.60</ele>
        <time>2017-02-18T07:32:49Z</time>
      </trkpt>
      <trkpt lat="42.566902000" lon="-2.469447000">
        <ele>684.60</ele>
        <time>2017-02-18T07:32:50Z</time>
      </trkpt>
      <trkpt lat="42.566902000" lon="-2.469450000">
        <ele>684.70</ele>
        <time>2017-02-18T07:32:51Z</time>
      </trkpt>
      <trkpt lat="42.566902000" lon="-2.469453000">
        <ele>684.70</ele>
        <time>2017-02-18T07:32:52Z</time>
      </trkpt>
      <trkpt lat="42.566901000" lon="-2.469455000">
        <ele>684.70</ele>
        <time>2017-02-18T07:32:53Z</time>
      </trkpt>
      <trkpt lat="42.566900000" lon="-2.469448000">
        <ele>684.70</ele>
        <time>2017-02-18T07:32:54Z</time>
      </trkpt>
      <trkpt lat="42.566902000" lon="-2.469447000">
        <ele>684.60</ele>
        <time>2017-02-18T07:32:55Z</time>
      </trkpt>
      <trkpt lat="42.566901000" lon="-2.469449000">
        <ele>684.60</ele>
        <time>2017-02-18T07:32:56Z</time>
      </trkpt>
      <trkpt lat="42.566897000" lon="-2.469456000">
        <ele>684.60</ele>
        <time>2017-02-18T07:32:57Z</time>
      </trkpt>
      <trkpt lat="42.566895000" lon="-2.469462000">
        <ele>684.50</ele>
        <time>2017-02-18T07:32:58Z</time>
      </trkpt>
      <trkpt lat="42.566888000" lon="-2.469468000">
        <ele>684.30</ele>
        <time>2017-02-18T07:32:59Z</time>
      </trkpt>
      <trkpt lat="42.566881000" lon="-2.469473000">
        <ele>684.10</ele>
        <time>2017-02-18T07:33:00Z</time>
      </trkpt>
      <trkpt lat="42.566878000" lon="-2.469474000">
        <ele>684.00</ele>
        <time>2017-02-18T07:33:01Z</time>
      </trkpt>
      <trkpt lat="42.566878000" lon="-2.469472000">
        <ele>683.90</ele>
        <time>2017-02-18T07:33:02Z</time>
      </trkpt>
      <trkpt lat="42.566881000" lon="-2.469470000">
        <ele>683.90</ele>
        <time>2017-02-18T07:33:03Z</time>
      </trkpt>
      <trkpt lat="42.566886000" lon="-2.469469000">
        <ele>683.80</ele>
        <time>2017-02-18T07:33:04Z</time>
      </trkpt>
      <trkpt lat="42.566887000" lon="-2.469471000">
        <ele>683.80</ele>
        <time>2017-02-18T07:33:05Z</time>
      </trkpt>
      <trkpt lat="42.566888000" lon="-2.469475000">
        <ele>683.80</ele>
        <time>2017-02-18T07:33:06Z</time>
      </trkpt>
      <trkpt lat="42.566891000" lon="-2.469478000">
        <ele>683.70</ele>
        <time>2017-02-18T07:33:07Z</time>
      </trkpt>
      <trkpt lat="42.566891000" lon="-2.469480000">
        <ele>683.70</ele>
        <time>2017-02-18T07:33:08Z</time>
      </trkpt>
      <trkpt lat="42.566889000" lon="-2.469483000">
        <ele>683.70</ele>
        <time>2017-02-18T07:33:09Z</time>
      </trkpt>
      <trkpt lat="42.566887000" lon="-2.469482000">
        <ele>683.70</ele>
        <time>2017-02-18T07:33:10Z</time>
      </trkpt>
      <trkpt lat="42.566889000" lon="-2.469479000">
        <ele>683.80</ele>
        <time>2017-02-18T07:33:11Z</time>
      </trkpt>
      <trkpt lat="42.566882000" lon="-2.469481000">
        <ele>683.80</ele>
        <time>2017-02-18T07:33:12Z</time>
      </trkpt>
      <trkpt lat="42.566880000" lon="-2.469484000">
        <ele>683.80</ele>
        <time>2017-02-18T07:33:13Z</time>
      </trkpt>
      <trkpt lat="42.566879000" lon="-2.469490000">
        <ele>683.80</ele>
        <time>2017-02-18T07:33:14Z</time>
      </trkpt>
      <trkpt lat="42.566879000" lon="-2.469493000">
        <ele>683.90</ele>
        <time>2017-02-18T07:33:15Z</time>
      </trkpt>
      <trkpt lat="42.566878000" lon="-2.469495000">
        <ele>683.90</ele>
        <time>2017-02-18T07:33:16Z</time>
      </trkpt>
      <trkpt lat="42.566878000" lon="-2.469497000">
        <ele>683.90</ele>
        <time>2017-02-18T07:33:17Z</time>
      </trkpt>
      <trkpt lat="42.566878000" lon="-2.469500000">
        <ele>683.80</ele>
        <time>2017-02-18T07:33:18Z</time>
      </trkpt>
      <trkpt lat="42.566876000" lon="-2.469501000">
        <ele>683.90</ele>
        <time>2017-02-18T07:33:19Z</time>
      </trkpt>
      <trkpt lat="42.566875000" lon="-2.469507000">
        <ele>683.90</ele>
        <time>2017-02-18T07:33:20Z</time>
      </trkpt>
      <trkpt lat="42.566874000" lon="-2.469511000">
        <ele>683.90</ele>
        <time>2017-02-18T07:33:21Z</time>
      </trkpt>
      <trkpt lat="42.566873000" lon="-2.469514000">
        <ele>683.90</ele>
        <time>2017-02-18T07:33:22Z</time>
      </trkpt>
      <trkpt lat="42.566873000" lon="-2.469516000">
        <ele>683.80</ele>
        <time>2017-02-18T07:33:23Z</time>
      </trkpt>
      <trkpt lat="42.566873000" lon="-2.469517000">
        <ele>683.80</ele>
        <time>2017-02-18T07:33:25Z</time>
      </trkpt>
      <trkpt lat="42.566873000" lon="-2.469520000">
        <ele>683.80</ele>
        <time>2017-02-18T07:33:26Z</time>
      </trkpt>
      <trkpt lat="42.566873000" lon="-2.469523000">
        <ele>683.70</ele>
        <time>2017-02-18T07:33:27Z</time>
      </trkpt>
      <trkpt lat="42.566872000" lon="-2.469523000">
        <ele>683.70</ele>
        <time>2017-02-18T07:33:28Z</time>
      </trkpt>
      <trkpt lat="42.566873000" lon="-2.469522000">
        <ele>683.60</ele>
        <time>2017-02-18T07:33:29Z</time>
      </trkpt>
      <trkpt lat="42.566873000" lon="-2.469521000">
        <ele>683.50</ele>
        <time>2017-02-18T07:33:30Z</time>
      </trkpt>
      <trkpt lat="42.566876000" lon="-2.469517000">
        <ele>683.50</ele>
        <time>2017-02-18T07:33:31Z</time>
      </trkpt>
      <trkpt lat="42.566877000" lon="-2.469513000">
        <ele>683.40</ele>
        <time>2017-02-18T07:33:32Z</time>
      </trkpt>
      <trkpt lat="42.566879000" lon="-2.469511000">
        <ele>683.50</ele>
        <time>2017-02-18T07:33:33Z</time>
      </trkpt>
      <trkpt lat="42.566878000" lon="-2.469508000">
        <ele>683.60</ele>
        <time>2017-02-18T07:33:34Z</time>
      </trkpt>
      <trkpt lat="42.566879000" lon="-2.469510000">
        <ele>683.70</ele>
        <time>2017-02-18T07:33:35Z</time>
      </trkpt>
      <trkpt lat="42.566881000" lon="-2.469511000">
        <ele>683.70</ele>
        <time>2017-02-18T07:33:36Z</time>
      </trkpt>
      <trkpt lat="42.566881000" lon="-2.469508000">
        <ele>683.70</ele>
        <time>2017-02-18T07:33:37Z</time>
      </trkpt>
      <trkpt lat="42.566880000" lon="-2.469504000">
        <ele>683.70</ele>
        <time>2017-02-18T07:33:38Z</time>
      </trkpt>
      <trkpt lat="42.566882000" lon="-2.469500000">
        <ele>683.70</ele>
        <time>2017-02-18T07:33:39Z</time>
      </trkpt>
      <trkpt lat="42.566883000" lon="-2.469496000">
        <ele>683.70</ele>
        <time>2017-02-18T07:33:40Z</time>
      </trkpt>
      <trkpt lat="42.566884000" lon="-2.469491000">
        <ele>683.70</ele>
        <time>2017-02-18T07:33:41Z</time>
      </trkpt>
      <trkpt lat="42.566883000" lon="-2.469484000">
        <ele>683.70</ele>
        <time>2017-02-18T07:33:42Z</time>
      </trkpt>
      <trkpt lat="42.566885000" lon="-2.469479000">
        <ele>683.70</ele>
        <time>2017-02-18T07:33:43Z</time>
      </trkpt>
      <trkpt lat="42.566884000" lon="-2.469474000">
        <ele>683.70</ele>
        <time>2017-02-18T07:33:44Z</time>
      </trkpt>
      <trkpt lat="42.566884000" lon="-2.469473000">
        <ele>683.70</ele>
        <time>2017-02-18T07:33:45Z</time>
      </trkpt>
      <trkpt lat="42.566884000" lon="-2.469473000">
        <ele>683.80</ele>
        <time>2017-02-18T07:33:46Z</time>
      </trkpt>
      <trkpt lat="42.566885000" lon="-2.469470000">
        <ele>683.80</ele>
        <time>2017-02-18T07:33:47Z</time>
      </trkpt>
      <trkpt lat="42.566885000" lon="-2.469469000">
        <ele>683.90</ele>
        <time>2017-02-18T07:33:48Z</time>
      </trkpt>
      <trkpt lat="42.566886000" lon="-2.469472000">
        <ele>683.90</ele>
        <time>2017-02-18T07:33:49Z</time>
      </trkpt>
      <trkpt lat="42.566888000" lon="-2.469471000">
        <ele>683.90</ele>
        <time>2017-02-18T07:33:50Z</time>
      </trkpt>
      <trkpt lat="42.566889000" lon="-2.469469000">
        <ele>683.90</ele>
        <time>2017-02-18T07:33:51Z</time>
      </trkpt>
      <trkpt lat="42.566889000" lon="-2.469467000">
        <ele>683.90</ele>
        <time>2017-02-18T07:33:52Z</time>
      </trkpt>
      <trkpt lat="42.566888000" lon="-2.469466000">
        <ele>683.90</ele>
        <time>2017-02-18T07:33:53Z</time>
      </trkpt>
      <trkpt lat="42.566887000" lon="-2.469467000">
        <ele>684.00</ele>
        <time>2017-02-18T07:33:54Z</time>
      </trkpt>
      <trkpt lat="42.566887000" lon="-2.469466000">
        <ele>684.00</ele>
        <time>2017-02-18T07:33:55Z</time>
      </trkpt>
      <trkpt lat="42.566888000" lon="-2.469466000">
        <ele>684.00</ele>
        <time>2017-02-18T07:33:56Z</time>
      </trkpt>
      <trkpt lat="42.566887000" lon="-2.469468000">
        <ele>684.00</ele>
        <time>2017-02-18T07:33:57Z</time>
      </trkpt>
      <trkpt lat="42.566887000" lon="-2.469470000">
        <ele>684.00</ele>
        <time>2017-02-18T07:33:58Z</time>
      </trkpt>
      <trkpt lat="42.566887000" lon="-2.469471000">
        <ele>684.00</ele>
        <time>2017-02-18T07:33:59Z</time>
      </trkpt>
      <trkpt lat="42.566888000" lon="-2.469472000">
        <ele>684.00</ele>
        <time>2017-02-18T07:34:00Z</time>
      </trkpt>
      <trkpt lat="42.566887000" lon="-2.469472000">
        <ele>684.00</ele>
        <time>2017-02-18T07:34:01Z</time>
      </trkpt>
      <trkpt lat="42.566887000" lon="-2.469470000">
        <ele>684.00</ele>
        <time>2017-02-18T07:34:02Z</time>
      </trkpt>
      <trkpt lat="42.566887000" lon="-2.469468000">
        <ele>684.20</ele>
        <time>2017-02-18T07:34:03Z</time>
      </trkpt>
      <trkpt lat="42.566885000" lon="-2.469464000">
        <ele>684.30</ele>
        <time>2017-02-18T07:34:04Z</time>
      </trkpt>
      <trkpt lat="42.566885000" lon="-2.469464000">
        <ele>684.30</ele>
        <time>2017-02-18T07:34:05Z</time>
      </trkpt>
      <trkpt lat="42.566884000" lon="-2.469464000">
        <ele>684.20</ele>
        <time>2017-02-18T07:34:06Z</time>
      </trkpt>
      <trkpt lat="42.566884000" lon="-2.469463000">
        <ele>684.20</ele>
        <time>2017-02-18T07:34:07Z</time>
      </trkpt>
      <trkpt lat="42.566886000" lon="-2.469463000">
        <ele>684.20</ele>
        <time>2017-02-18T07:34:08Z</time>
      </trkpt>
      <trkpt lat="42.566887000" lon="-2.469462000">
        <ele>684.20</ele>
        <time>2017-02-18T07:34:09Z</time>
      </trkpt>
      <trkpt lat="42.566887000" lon="-2.469461000">
        <ele>684.20</ele>
        <time>2017-02-18T07:34:10Z</time>
      </trkpt>
      <trkpt lat="42.566888000" lon="-2.469460000">
        <ele>684.20</ele>
        <time>2017-02-18T07:34:11Z</time>
      </trkpt>
      <trkpt lat="42.566890000" lon="-2.469459000">
        <ele>684.10</ele>
        <time>2017-02-18T07:34:12Z</time>
      </trkpt>
      <trkpt lat="42.566890000" lon="-2.469459000">
        <ele>684.10</ele>
        <time>2017-02-18T07:34:13Z</time>
      </trkpt>
      <trkpt lat="42.566890000" lon="-2.469459000">
        <ele>684.10</ele>
        <time>2017-02-18T07:34:14Z</time>
      </trkpt>
      <trkpt lat="42.566890000" lon="-2.469460000">
        <ele>684.00</ele>
        <time>2017-02-18T07:34:15Z</time>
      </trkpt>
      <trkpt lat="42.566889000" lon="-2.469463000">
        <ele>683.90</ele>
        <time>2017-02-18T07:34:16Z</time>
      </trkpt>
      <trkpt lat="42.566887000" lon="-2.469463000">
        <ele>683.70</ele>
        <time>2017-02-18T07:34:17Z</time>
      </trkpt>
      <trkpt lat="42.566886000" lon="-2.469460000">
        <ele>683.60</ele>
        <time>2017-02-18T07:34:18Z</time>
      </trkpt>
      <trkpt lat="42.566886000" lon="-2.469461000">
        <ele>683.50</ele>
        <time>2017-02-18T07:34:19Z</time>
      </trkpt>
      <trkpt lat="42.566886000" lon="-2.469460000">
        <ele>683.40</ele>
        <time>2017-02-18T07:34:20Z</time>
      </trkpt>
      <trkpt lat="42.566885000" lon="-2.469459000">
        <ele>683.50</ele>
        <time>2017-02-18T07:34:21Z</time>
      </trkpt>
      <trkpt lat="42.566884000" lon="-2.469457000">
        <ele>683.50</ele>
        <time>2017-02-18T07:34:22Z</time>
      </trkpt>
      <trkpt lat="42.566885000" lon="-2.469457000">
        <ele>683.60</ele>
        <time>2017-02-18T07:34:23Z</time>
      </trkpt>
      <trkpt lat="42.566885000" lon="-2.469453000">
        <ele>683.60</ele>
        <time>2017-02-18T07:34:24Z</time>
      </trkpt>
      <trkpt lat="42.566885000" lon="-2.469453000">
        <ele>683.40</ele>
        <time>2017-02-18T07:34:26Z</time>
      </trkpt>
      <trkpt lat="42.566885000" lon="-2.469454000">
        <ele>683.30</ele>
        <time>2017-02-18T07:34:27Z</time>
      </trkpt>
      <trkpt lat="42.566887000" lon="-2.469460000">
        <ele>683.30</ele>
        <time>2017-02-18T07:34:28Z</time>
      </trkpt>
      <trkpt lat="42.566886000" lon="-2.469466000">
        <ele>683.30</ele>
        <time>2017-02-18T07:34:29Z</time>
      </trkpt>
      <trkpt lat="42.566887000" lon="-2.469470000">
        <ele>683.30</ele>
        <time>2017-02-18T07:34:30Z</time>
      </trkpt>
      <trkpt lat="42.566889000" lon="-2.469473000">
        <ele>683.30</ele>
        <time>2017-02-18T07:34:31Z</time>
      </trkpt>
      <trkpt lat="42.566890000" lon="-2.469475000">
        <ele>683.40</ele>
        <time>2017-02-18T07:34:32Z</time>
      </trkpt>
      <trkpt lat="42.566893000" lon="-2.469476000">
        <ele>683.40</ele>
        <time>2017-02-18T07:34:33Z</time>
      </trkpt>
      <trkpt lat="42.566895000" lon="-2.469478000">
        <ele>683.40</ele>
        <time>2017-02-18T07:34:34Z</time>
      </trkpt>
      <trkpt lat="42.566896000" lon="-2.469479000">
        <ele>683.40</ele>
        <time>2017-02-18T07:34:35Z</time>
      </trkpt>
      <trkpt lat="42.566898000" lon="-2.469479000">
        <ele>683.50</ele>
        <time>2017-02-18T07:34:36Z</time>
      </trkpt>
      <trkpt lat="42.566900000" lon="-2.469479000">
        <ele>683.50</ele>
        <time>2017-02-18T07:34:37Z</time>
      </trkpt>
      <trkpt lat="42.566900000" lon="-2.469482000">
        <ele>683.60</ele>
        <time>2017-02-18T07:34:38Z</time>
      </trkpt>
      <trkpt lat="42.566901000" lon="-2.469484000">
        <ele>683.60</ele>
        <time>2017-02-18T07:34:39Z</time>
      </trkpt>
      <trkpt lat="42.566901000" lon="-2.469488000">
        <ele>683.70</ele>
        <time>2017-02-18T07:34:40Z</time>
      </trkpt>
      <trkpt lat="42.566902000" lon="-2.469490000">
        <ele>683.90</ele>
        <time>2017-02-18T07:34:41Z</time>
      </trkpt>
      <trkpt lat="42.566903000" lon="-2.469492000">
        <ele>684.00</ele>
        <time>2017-02-18T07:34:42Z</time>
      </trkpt>
      <trkpt lat="42.566903000" lon="-2.469491000">
        <ele>683.90</ele>
        <time>2017-02-18T07:34:43Z</time>
      </trkpt>
      <trkpt lat="42.566905000" lon="-2.469488000">
        <ele>683.80</ele>
        <time>2017-02-18T07:34:44Z</time>
      </trkpt>
      <trkpt lat="42.566906000" lon="-2.469487000">
        <ele>684.00</ele>
        <time>2017-02-18T07:34:45Z</time>
      </trkpt>
      <trkpt lat="42.566909000" lon="-2.469489000">
        <ele>684.10</ele>
        <time>2017-02-18T07:34:46Z</time>
      </trkpt>
      <trkpt lat="42.566911000" lon="-2.469489000">
        <ele>684.20</ele>
        <time>2017-02-18T07:34:47Z</time>
      </trkpt>
      <trkpt lat="42.566912000" lon="-2.469487000">
        <ele>684.30</ele>
        <time>2017-02-18T07:34:48Z</time>
      </trkpt>
      <trkpt lat="42.566914000" lon="-2.469483000">
        <ele>684.30</ele>
        <time>2017-02-18T07:34:49Z</time>
      </trkpt>
      <trkpt lat="42.566914000" lon="-2.469480000">
        <ele>684.40</ele>
        <time>2017-02-18T07:34:50Z</time>
      </trkpt>
      <trkpt lat="42.566914000" lon="-2.469477000">
        <ele>684.40</ele>
        <time>2017-02-18T07:34:51Z</time>
      </trkpt>
      <trkpt lat="42.566915000" lon="-2.469472000">
        <ele>684.40</ele>
        <time>2017-02-18T07:34:52Z</time>
      </trkpt>
      <trkpt lat="42.566915000" lon="-2.469469000">
        <ele>684.40</ele>
        <time>2017-02-18T07:34:53Z</time>
      </trkpt>
      <trkpt lat="42.566915000" lon="-2.469466000">
        <ele>684.50</ele>
        <time>2017-02-18T07:34:54Z</time>
      </trkpt>
      <trkpt lat="42.566915000" lon="-2.469465000">
        <ele>684.50</ele>
        <time>2017-02-18T07:34:55Z</time>
      </trkpt>
      <trkpt lat="42.566916000" lon="-2.469466000">
        <ele>684.50</ele>
        <time>2017-02-18T07:34:56Z</time>
      </trkpt>
      <trkpt lat="42.566915000" lon="-2.469465000">
        <ele>684.30</ele>
        <time>2017-02-18T07:34:57Z</time>
      </trkpt>
      <trkpt lat="42.566914000" lon="-2.469465000">
        <ele>684.10</ele>
        <time>2017-02-18T07:34:58Z</time>
      </trkpt>
      <trkpt lat="42.566916000" lon="-2.469464000">
        <ele>684.00</ele>
        <time>2017-02-18T07:34:59Z</time>
      </trkpt>
      <trkpt lat="42.566917000" lon="-2.469461000">
        <ele>683.90</ele>
        <time>2017-02-18T07:35:00Z</time>
      </trkpt>
      <trkpt lat="42.566917000" lon="-2.469461000">
        <ele>683.80</ele>
        <time>2017-02-18T07:35:01Z</time>
      </trkpt>
      <trkpt lat="42.566916000" lon="-2.469461000">
        <ele>683.70</ele>
        <time>2017-02-18T07:35:02Z</time>
      </trkpt>
      <trkpt lat="42.566914000" lon="-2.469462000">
        <ele>683.80</ele>
        <time>2017-02-18T07:35:03Z</time>
      </trkpt>
      <trkpt lat="42.566915000" lon="-2.469462000">
        <ele>683.80</ele>
        <time>2017-02-18T07:35:04Z</time>
      </trkpt>
      <trkpt lat="42.566912000" lon="-2.469461000">
        <ele>683.80</ele>
        <time>2017-02-18T07:35:05Z</time>
      </trkpt>
      <trkpt lat="42.566910000" lon="-2.469460000">
        <ele>683.90</ele>
        <time>2017-02-18T07:35:06Z</time>
      </trkpt>
      <trkpt lat="42.566907000" lon="-2.469463000">
        <ele>683.90</ele>
        <time>2017-02-18T07:35:07Z</time>
      </trkpt>
      <trkpt lat="42.566904000" lon="-2.469465000">
        <ele>683.90</ele>
        <time>2017-02-18T07:35:08Z</time>
      </trkpt>
      <trkpt lat="42.566901000" lon="-2.469466000">
        <ele>683.90</ele>
        <time>2017-02-18T07:35:09Z</time>
      </trkpt>
      <trkpt lat="42.566899000" lon="-2.469467000">
        <ele>683.90</ele>
        <time>2017-02-18T07:35:10Z</time>
      </trkpt>
      <trkpt lat="42.566896000" lon="-2.469469000">
        <ele>683.90</ele>
        <time>2017-02-18T07:35:11Z</time>
      </trkpt>
      <trkpt lat="42.566892000" lon="-2.469471000">
        <ele>683.90</ele>
        <time>2017-02-18T07:35:12Z</time>
      </trkpt>
      <trkpt lat="42.566889000" lon="-2.469473000">
        <ele>683.90</ele>
        <time>2017-02-18T07:35:13Z</time>
      </trkpt>
      <trkpt lat="42.566886000" lon="-2.469475000">
        <ele>683.90</ele>
        <time>2017-02-18T07:35:14Z</time>
      </trkpt>
      <trkpt lat="42.566882000" lon="-2.469477000">
        <ele>683.90</ele>
        <time>2017-02-18T07:35:15Z</time>
      </trkpt>
      <trkpt lat="42.566878000" lon="-2.469482000">
        <ele>683.80</ele>
        <time>2017-02-18T07:35:16Z</time>
      </trkpt>
      <trkpt lat="42.566877000" lon="-2.469484000">
        <ele>683.80</ele>
        <time>2017-02-18T07:35:17Z</time>
      </trkpt>
      <trkpt lat="42.566879000" lon="-2.469486000">
        <ele>683.80</ele>
        <time>2017-02-18T07:35:18Z</time>
      </trkpt>
      <trkpt lat="42.566880000" lon="-2.469490000">
        <ele>683.70</ele>
        <time>2017-02-18T07:35:19Z</time>
      </trkpt>
      <trkpt lat="42.566881000" lon="-2.469494000">
        <ele>683.70</ele>
        <time>2017-02-18T07:35:20Z</time>
      </trkpt>
      <trkpt lat="42.566880000" lon="-2.469493000">
        <ele>683.60</ele>
        <time>2017-02-18T07:35:21Z</time>
      </trkpt>
      <trkpt lat="42.566880000" lon="-2.469494000">
        <ele>683.60</ele>
        <time>2017-02-18T07:35:22Z</time>
      </trkpt>
      <trkpt lat="42.566880000" lon="-2.469492000">
        <ele>683.50</ele>
        <time>2017-02-18T07:35:23Z</time>
      </trkpt>
      <trkpt lat="42.566880000" lon="-2.469492000">
        <ele>683.50</ele>
        <time>2017-02-18T07:35:24Z</time>
      </trkpt>
      <trkpt lat="42.566880000" lon="-2.469492000">
        <ele>683.60</ele>
        <time>2017-02-18T07:35:25Z</time>
      </trkpt>
      <trkpt lat="42.566879000" lon="-2.469495000">
        <ele>683.80</ele>
        <time>2017-02-18T07:35:27Z</time>
      </trkpt>
      <trkpt lat="42.566881000" lon="-2.469494000">
        <ele>683.90</ele>
        <time>2017-02-18T07:35:28Z</time>
      </trkpt>
      <trkpt lat="42.566883000" lon="-2.469494000">
        <ele>683.90</ele>
        <time>2017-02-18T07:35:29Z</time>
      </trkpt>
      <trkpt lat="42.566884000" lon="-2.469496000">
        <ele>683.80</ele>
        <time>2017-02-18T07:35:30Z</time>
      </trkpt>
      <trkpt lat="42.566885000" lon="-2.469496000">
        <ele>683.70</ele>
        <time>2017-02-18T07:35:31Z</time>
      </trkpt>
      <trkpt lat="42.566886000" lon="-2.469496000">
        <ele>683.70</ele>
        <time>2017-02-18T07:35:32Z</time>
      </trkpt>
      <trkpt lat="42.566889000" lon="-2.469495000">
        <ele>683.60</ele>
        <time>2017-02-18T07:35:33Z</time>
      </trkpt>
      <trkpt lat="42.566891000" lon="-2.469492000">
        <ele>683.50</ele>
        <time>2017-02-18T07:35:34Z</time>
      </trkpt>
      <trkpt lat="42.566893000" lon="-2.469489000">
        <ele>683.50</ele>
        <time>2017-02-18T07:35:35Z</time>
      </trkpt>
      <trkpt lat="42.566896000" lon="-2.469489000">
        <ele>683.50</ele>
        <time>2017-02-18T07:35:36Z</time>
      </trkpt>
      <trkpt lat="42.566897000" lon="-2.469488000">
        <ele>683.70</ele>
        <time>2017-02-18T07:35:37Z</time>
      </trkpt>
      <trkpt lat="42.566899000" lon="-2.469488000">
        <ele>683.90</ele>
        <time>2017-02-18T07:35:38Z</time>
      </trkpt>
      <trkpt lat="42.566902000" lon="-2.469486000">
        <ele>684.10</ele>
        <time>2017-02-18T07:35:39Z</time>
      </trkpt>
      <trkpt lat="42.566905000" lon="-2.469487000">
        <ele>684.20</ele>
        <time>2017-02-18T07:35:40Z</time>
      </trkpt>
      <trkpt lat="42.566908000" lon="-2.469489000">
        <ele>684.20</ele>
        <time>2017-02-18T07:35:41Z</time>
      </trkpt>
      <trkpt lat="42.566912000" lon="-2.469489000">
        <ele>684.10</ele>
        <time>2017-02-18T07:35:42Z</time>
      </trkpt>
      <trkpt lat="42.566913000" lon="-2.469493000">
        <ele>683.90</ele>
        <time>2017-02-18T07:35:43Z</time>
      </trkpt>
      <trkpt lat="42.566914000" lon="-2.469494000">
        <ele>683.80</ele>
        <time>2017-02-18T07:35:44Z</time>
      </trkpt>
      <trkpt lat="42.566914000" lon="-2.469496000">
        <ele>683.70</ele>
        <time>2017-02-18T07:35:45Z</time>
      </trkpt>
      <trkpt lat="42.566914000" lon="-2.469495000">
        <ele>683.60</ele>
        <time>2017-02-18T07:35:46Z</time>
      </trkpt>
      <trkpt lat="42.566916000" lon="-2.469498000">
        <ele>683.50</ele>
        <time>2017-02-18T07:35:47Z</time>
      </trkpt>
      <trkpt lat="42.566916000" lon="-2.469500000">
        <ele>683.50</ele>
        <time>2017-02-18T07:35:48Z</time>
      </trkpt>
      <trkpt lat="42.566916000" lon="-2.469502000">
        <ele>683.50</ele>
        <time>2017-02-18T07:35:49Z</time>
      </trkpt>
      <trkpt lat="42.566915000" lon="-2.469505000">
        <ele>683.50</ele>
        <time>2017-02-18T07:35:50Z</time>
      </trkpt>
      <trkpt lat="42.566915000" lon="-2.469506000">
        <ele>683.60</ele>
        <time>2017-02-18T07:35:51Z</time>
      </trkpt>
      <trkpt lat="42.566915000" lon="-2.469511000">
        <ele>683.70</ele>
        <time>2017-02-18T07:35:52Z</time>
      </trkpt>
      <trkpt lat="42.566914000" lon="-2.469514000">
        <ele>683.70</ele>
        <time>2017-02-18T07:35:53Z</time>
      </trkpt>
      <trkpt lat="42.566910000" lon="-2.469517000">
        <ele>683.60</ele>
        <time>2017-02-18T07:35:54Z</time>
      </trkpt>
      <trkpt lat="42.566908000" lon="-2.469519000">
        <ele>683.60</ele>
        <time>2017-02-18T07:35:55Z</time>
      </trkpt>
      <trkpt lat="42.566906000" lon="-2.469522000">
        <ele>683.60</ele>
        <time>2017-02-18T07:35:56Z</time>
      </trkpt>
      <trkpt lat="42.566906000" lon="-2.469524000">
        <ele>683.60</ele>
        <time>2017-02-18T07:35:57Z</time>
      </trkpt>
      <trkpt lat="42.566904000" lon="-2.469522000">
        <ele>683.60</ele>
        <time>2017-02-18T07:35:58Z</time>
      </trkpt>
      <trkpt lat="42.566901000" lon="-2.469520000">
        <ele>683.60</ele>
        <time>2017-02-18T07:35:59Z</time>
      </trkpt>
      <trkpt lat="42.566898000" lon="-2.469516000">
        <ele>683.60</ele>
        <time>2017-02-18T07:36:00Z</time>
      </trkpt>
      <trkpt lat="42.566896000" lon="-2.469514000">
        <ele>683.90</ele>
        <time>2017-02-18T07:36:01Z</time>
      </trkpt>
      <trkpt lat="42.566895000" lon="-2.469514000">
        <ele>684.10</ele>
        <time>2017-02-18T07:36:02Z</time>
      </trkpt>
      <trkpt lat="42.566894000" lon="-2.469514000">
        <ele>684.10</ele>
        <time>2017-02-18T07:36:03Z</time>
      </trkpt>
      <trkpt lat="42.566891000" lon="-2.469512000">
        <ele>684.10</ele>
        <time>2017-02-18T07:36:04Z</time>
      </trkpt>
      <trkpt lat="42.566888000" lon="-2.469510000">
        <ele>684.10</ele>
        <time>2017-02-18T07:36:05Z</time>
      </trkpt>
      <trkpt lat="42.566886000" lon="-2.469511000">
        <ele>684.10</ele>
        <time>2017-02-18T07:36:06Z</time>
      </trkpt>
      <trkpt lat="42.566884000" lon="-2.469513000">
        <ele>684.10</ele>
        <time>2017-02-18T07:36:07Z</time>
      </trkpt>
      <trkpt lat="42.566882000" lon="-2.469510000">
        <ele>684.10</ele>
        <time>2017-02-18T07:36:08Z</time>
      </trkpt>
      <trkpt lat="42.566882000" lon="-2.469510000">
        <ele>684.10</ele>
        <time>2017-02-18T07:36:09Z</time>
      </trkpt>
      <trkpt lat="42.566883000" lon="-2.469508000">
        <ele>684.00</ele>
        <time>2017-02-18T07:36:10Z</time>
      </trkpt>
      <trkpt lat="42.566882000" lon="-2.469506000">
        <ele>684.00</ele>
        <time>2017-02-18T07:36:11Z</time>
      </trkpt>
      <trkpt lat="42.566882000" lon="-2.469503000">
        <ele>683.90</ele>
        <time>2017-02-18T07:36:12Z</time>
      </trkpt>
      <trkpt lat="42.566881000" lon="-2.469502000">
        <ele>683.90</ele>
        <time>2017-02-18T07:36:13Z</time>
      </trkpt>
      <trkpt lat="42.566880000" lon="-2.469501000">
        <ele>683.80</ele>
        <time>2017-02-18T07:36:14Z</time>
      </trkpt>
      <trkpt lat="42.566879000" lon="-2.469498000">
        <ele>683.80</ele>
        <time>2017-02-18T07:36:15Z</time>
      </trkpt>
      <trkpt lat="42.566879000" lon="-2.469497000">
        <ele>683.80</ele>
        <time>2017-02-18T07:36:16Z</time>
      </trkpt>
      <trkpt lat="42.566877000" lon="-2.469493000">
        <ele>683.70</ele>
        <time>2017-02-18T07:36:17Z</time>
      </trkpt>
      <trkpt lat="42.566875000" lon="-2.469487000">
        <ele>683.70</ele>
        <time>2017-02-18T07:36:18Z</time>
      </trkpt>
      <trkpt lat="42.566877000" lon="-2.469482000">
        <ele>683.80</ele>
        <time>2017-02-18T07:36:19Z</time>
      </trkpt>
      <trkpt lat="42.566876000" lon="-2.469478000">
        <ele>683.90</ele>
        <time>2017-02-18T07:36:20Z</time>
      </trkpt>
      <trkpt lat="42.566878000" lon="-2.469478000">
        <ele>684.00</ele>
        <time>2017-02-18T07:36:21Z</time>
      </trkpt>
      <trkpt lat="42.566879000" lon="-2.469474000">
        <ele>684.10</ele>
        <time>2017-02-18T07:36:22Z</time>
      </trkpt>
      <trkpt lat="42.566881000" lon="-2.469470000">
        <ele>684.10</ele>
        <time>2017-02-18T07:36:23Z</time>
      </trkpt>
      <trkpt lat="42.566883000" lon="-2.469468000">
        <ele>684.10</ele>
        <time>2017-02-18T07:36:24Z</time>
      </trkpt>
      <trkpt lat="42.566884000" lon="-2.469467000">
        <ele>684.10</ele>
        <time>2017-02-18T07:36:25Z</time>
      </trkpt>
      <trkpt lat="42.566885000" lon="-2.469466000">
        <ele>684.20</ele>
        <time>2017-02-18T07:36:26Z</time>
      </trkpt>
      <trkpt lat="42.566891000" lon="-2.469467000">
        <ele>684.10</ele>
        <time>2017-02-18T07:36:28Z</time>
      </trkpt>
      <trkpt lat="42.566893000" lon="-2.469468000">
        <ele>684.00</ele>
        <time>2017-02-18T07:36:29Z</time>
      </trkpt>
      <trkpt lat="42.566894000" lon="-2.469467000">
        <ele>683.90</ele>
        <time>2017-02-18T07:36:30Z</time>
      </trkpt>
      <trkpt lat="42.566896000" lon="-2.469468000">
        <ele>683.80</ele>
        <time>2017-02-18T07:36:31Z</time>
      </trkpt>
      <trkpt lat="42.566897000" lon="-2.469468000">
        <ele>683.80</ele>
        <time>2017-02-18T07:36:32Z</time>
      </trkpt>
      <trkpt lat="42.566898000" lon="-2.469470000">
        <ele>683.90</ele>
        <time>2017-02-18T07:36:33Z</time>
      </trkpt>
      <trkpt lat="42.566897000" lon="-2.469469000">
        <ele>684.00</ele>
        <time>2017-02-18T07:36:34Z</time>
      </trkpt>
      <trkpt lat="42.566898000" lon="-2.469470000">
        <ele>684.00</ele>
        <time>2017-02-18T07:36:35Z</time>
      </trkpt>
      <trkpt lat="42.566898000" lon="-2.469470000">
        <ele>684.10</ele>
        <time>2017-02-18T07:36:36Z</time>
      </trkpt>
      <trkpt lat="42.566896000" lon="-2.469470000">
        <ele>684.10</ele>
        <time>2017-02-18T07:36:37Z</time>
      </trkpt>
      <trkpt lat="42.566895000" lon="-2.469472000">
        <ele>684.10</ele>
        <time>2017-02-18T07:36:38Z</time>
      </trkpt>
      <trkpt lat="42.566891000" lon="-2.469472000">
        <ele>684.30</ele>
        <time>2017-02-18T07:36:39Z</time>
      </trkpt>
      <trkpt lat="42.566888000" lon="-2.469473000">
        <ele>684.40</ele>
        <time>2017-02-18T07:36:40Z</time>
      </trkpt>
      <trkpt lat="42.566886000" lon="-2.469475000">
        <ele>684.50</ele>
        <time>2017-02-18T07:36:41Z</time>
      </trkpt>
      <trkpt lat="42.566884000" lon="-2.469476000">
        <ele>684.60</ele>
        <time>2017-02-18T07:36:42Z</time>
      </trkpt>
      <trkpt lat="42.566883000" lon="-2.469477000">
        <ele>684.70</ele>
        <time>2017-02-18T07:36:43Z</time>
      </trkpt>
      <trkpt lat="42.566884000" lon="-2.469478000">
        <ele>684.70</ele>
        <time>2017-02-18T07:36:44Z</time>
      </trkpt>
      <trkpt lat="42.566883000" lon="-2.469479000">
        <ele>684.70</ele>
        <time>2017-02-18T07:36:45Z</time>
      </trkpt>
      <trkpt lat="42.566881000" lon="-2.469482000">
        <ele>684.60</ele>
        <time>2017-02-18T07:36:46Z</time>
      </trkpt>
      <trkpt lat="42.566880000" lon="-2.469485000">
        <ele>684.60</ele>
        <time>2017-02-18T07:36:47Z</time>
      </trkpt>
      <trkpt lat="42.566880000" lon="-2.469486000">
        <ele>684.60</ele>
        <time>2017-02-18T07:36:48Z</time>
      </trkpt>
      <trkpt lat="42.566878000" lon="-2.469487000">
        <ele>684.50</ele>
        <time>2017-02-18T07:36:49Z</time>
      </trkpt>
      <trkpt lat="42.566875000" lon="-2.469486000">
        <ele>684.50</ele>
        <time>2017-02-18T07:36:50Z</time>
      </trkpt>
      <trkpt lat="42.566872000" lon="-2.469485000">
        <ele>684.50</ele>
        <time>2017-02-18T07:36:51Z</time>
      </trkpt>
      <trkpt lat="42.566869000" lon="-2.469486000">
        <ele>684.50</ele>
        <time>2017-02-18T07:36:52Z</time>
      </trkpt>
      <trkpt lat="42.566867000" lon="-2.469487000">
        <ele>684.30</ele>
        <time>2017-02-18T07:36:53Z</time>
      </trkpt>
      <trkpt lat="42.566867000" lon="-2.469487000">
        <ele>684.20</ele>
        <time>2017-02-18T07:36:54Z</time>
      </trkpt>
      <trkpt lat="42.566868000" lon="-2.469490000">
        <ele>684.10</ele>
        <time>2017-02-18T07:36:55Z</time>
      </trkpt>
      <trkpt lat="42.566871000" lon="-2.469490000">
        <ele>684.00</ele>
        <time>2017-02-18T07:36:56Z</time>
      </trkpt>
      <trkpt lat="42.566873000" lon="-2.469491000">
        <ele>683.90</ele>
        <time>2017-02-18T07:36:57Z</time>
      </trkpt>
      <trkpt lat="42.566878000" lon="-2.469491000">
        <ele>683.90</ele>
        <time>2017-02-18T07:36:58Z</time>
      </trkpt>
      <trkpt lat="42.566882000" lon="-2.469492000">
        <ele>683.90</ele>
        <time>2017-02-18T07:36:59Z</time>
      </trkpt>
      <trkpt lat="42.566885000" lon="-2.469492000">
        <ele>684.00</ele>
        <time>2017-02-18T07:37:00Z</time>
      </trkpt>
      <trkpt lat="42.566889000" lon="-2.469491000">
        <ele>684.00</ele>
        <time>2017-02-18T07:37:01Z</time>
      </trkpt>
      <trkpt lat="42.566891000" lon="-2.469489000">
        <ele>684.00</ele>
        <time>2017-02-18T07:37:02Z</time>
      </trkpt>
      <trkpt lat="42.566892000" lon="-2.469487000">
        <ele>684.20</ele>
        <time>2017-02-18T07:37:03Z</time>
      </trkpt>
      <trkpt lat="42.566892000" lon="-2.469484000">
        <ele>684.30</ele>
        <time>2017-02-18T07:37:04Z</time>
      </trkpt>
      <trkpt lat="42.566893000" lon="-2.469482000">
        <ele>684.40</ele>
        <time>2017-02-18T07:37:05Z</time>
      </trkpt>
      <trkpt lat="42.566892000" lon="-2.469482000">
        <ele>684.50</ele>
        <time>2017-02-18T07:37:06Z</time>
      </trkpt>
      <trkpt lat="42.566889000" lon="-2.469484000">
        <ele>684.60</ele>
        <time>2017-02-18T07:37:07Z</time>
      </trkpt>
      <trkpt lat="42.566889000" lon="-2.469486000">
        <ele>684.60</ele>
        <time>2017-02-18T07:37:08Z</time>
      </trkpt>
      <trkpt lat="42.566892000" lon="-2.469489000">
        <ele>684.60</ele>
        <time>2017-02-18T07:37:09Z</time>
      </trkpt>
      <trkpt lat="42.566894000" lon="-2.469488000">
        <ele>684.60</ele>
        <time>2017-02-18T07:37:10Z</time>
      </trkpt>
      <trkpt lat="42.566896000" lon="-2.469488000">
        <ele>684.30</ele>
        <time>2017-02-18T07:37:11Z</time>
      </trkpt>
      <trkpt lat="42.566897000" lon="-2.469489000">
        <ele>684.20</ele>
        <time>2017-02-18T07:37:12Z</time>
      </trkpt>
      <trkpt lat="42.566897000" lon="-2.469491000">
        <ele>684.00</ele>
        <time>2017-02-18T07:37:13Z</time>
      </trkpt>
      <trkpt lat="42.566898000" lon="-2.469491000">
        <ele>683.90</ele>
        <time>2017-02-18T07:37:14Z</time>
      </trkpt>
      <trkpt lat="42.566897000" lon="-2.469492000">
        <ele>683.80</ele>
        <time>2017-02-18T07:37:15Z</time>
      </trkpt>
      <trkpt lat="42.566897000" lon="-2.469493000">
        <ele>683.80</ele>
        <time>2017-02-18T07:37:16Z</time>
      </trkpt>
      <trkpt lat="42.566896000" lon="-2.469495000">
        <ele>683.70</ele>
        <time>2017-02-18T07:37:17Z</time>
      </trkpt>
      <trkpt lat="42.566896000" lon="-2.469495000">
        <ele>683.70</ele>
        <time>2017-02-18T07:37:18Z</time>
      </trkpt>
      <trkpt lat="42.566895000" lon="-2.469494000">
        <ele>683.70</ele>
        <time>2017-02-18T07:37:19Z</time>
      </trkpt>
      <trkpt lat="42.566894000" lon="-2.469493000">
        <ele>683.80</ele>
        <time>2017-02-18T07:37:20Z</time>
      </trkpt>
      <trkpt lat="42.566895000" lon="-2.469490000">
        <ele>683.80</ele>
        <time>2017-02-18T07:37:21Z</time>
      </trkpt>
      <trkpt lat="42.566896000" lon="-2.469490000">
        <ele>683.80</ele>
        <time>2017-02-18T07:37:22Z</time>
      </trkpt>
      <trkpt lat="42.566897000" lon="-2.469489000">
        <ele>683.80</ele>
        <time>2017-02-18T07:37:23Z</time>
      </trkpt>
      <trkpt lat="42.566898000" lon="-2.469486000">
        <ele>683.80</ele>
        <time>2017-02-18T07:37:24Z</time>
      </trkpt>
      <trkpt lat="42.566899000" lon="-2.469485000">
        <ele>683.80</ele>
        <time>2017-02-18T07:37:25Z</time>
      </trkpt>
      <trkpt lat="42.566899000" lon="-2.469481000">
        <ele>683.80</ele>
        <time>2017-02-18T07:37:26Z</time>
      </trkpt>
      <trkpt lat="42.566899000" lon="-2.469482000">
        <ele>683.90</ele>
        <time>2017-02-18T07:37:27Z</time>
      </trkpt>
      <trkpt lat="42.566902000" lon="-2.469487000">
        <ele>684.10</ele>
        <time>2017-02-18T07:37:29Z</time>
      </trkpt>
      <trkpt lat="42.566904000" lon="-2.469488000">
        <ele>684.20</ele>
        <time>2017-02-18T07:37:30Z</time>
      </trkpt>
      <trkpt lat="42.566907000" lon="-2.469489000">
        <ele>684.30</ele>
        <time>2017-02-18T07:37:31Z</time>
      </trkpt>
      <trkpt lat="42.566907000" lon="-2.469487000">
        <ele>684.40</ele>
        <time>2017-02-18T07:37:32Z</time>
      </trkpt>
      <trkpt lat="42.566906000" lon="-2.469487000">
        <ele>684.30</ele>
        <time>2017-02-18T07:37:33Z</time>
      </trkpt>
      <trkpt lat="42.566904000" lon="-2.469491000">
        <ele>684.30</ele>
        <time>2017-02-18T07:37:34Z</time>
      </trkpt>
      <trkpt lat="42.566903000" lon="-2.469494000">
        <ele>684.20</ele>
        <time>2017-02-18T07:37:35Z</time>
      </trkpt>
      <trkpt lat="42.566900000" lon="-2.469494000">
        <ele>684.20</ele>
        <time>2017-02-18T07:37:36Z</time>
      </trkpt>
      <trkpt lat="42.566900000" lon="-2.469494000">
        <ele>684.10</ele>
        <time>2017-02-18T07:37:37Z</time>
      </trkpt>
      <trkpt lat="42.566900000" lon="-2.469493000">
        <ele>684.10</ele>
        <time>2017-02-18T07:37:38Z</time>
      </trkpt>
      <trkpt lat="42.566900000" lon="-2.469492000">
        <ele>684.10</ele>
        <time>2017-02-18T07:37:39Z</time>
      </trkpt>
      <trkpt lat="42.566896000" lon="-2.469489000">
        <ele>684.10</ele>
        <time>2017-02-18T07:37:40Z</time>
      </trkpt>
      <trkpt lat="42.566893000" lon="-2.469486000">
        <ele>684.20</ele>
        <time>2017-02-18T07:37:41Z</time>
      </trkpt>
      <trkpt lat="42.566890000" lon="-2.469484000">
        <ele>684.20</ele>
        <time>2017-02-18T07:37:42Z</time>
      </trkpt>
      <trkpt lat="42.566886000" lon="-2.469479000">
        <ele>684.20</ele>
        <time>2017-02-18T07:37:43Z</time>
      </trkpt>
      <trkpt lat="42.566884000" lon="-2.469476000">
        <ele>684.20</ele>
        <time>2017-02-18T07:37:44Z</time>
      </trkpt>
      <trkpt lat="42.566883000" lon="-2.469475000">
        <ele>684.20</ele>
        <time>2017-02-18T07:37:45Z</time>
      </trkpt>
      <trkpt lat="42.566880000" lon="-2.469475000">
        <ele>684.20</ele>
        <time>2017-02-18T07:37:46Z</time>
      </trkpt>
      <trkpt lat="42.566878000" lon="-2.469476000">
        <ele>684.30</ele>
        <time>2017-02-18T07:37:47Z</time>
      </trkpt>
      <trkpt lat="42.566877000" lon="-2.469475000">
        <ele>684.40</ele>
        <time>2017-02-18T07:37:48Z</time>
      </trkpt>
      <trkpt lat="42.566878000" lon="-2.469473000">
        <ele>684.50</ele>
        <time>2017-02-18T07:37:49Z</time>
      </trkpt>
      <trkpt lat="42.566880000" lon="-2.469474000">
        <ele>684.50</ele>
        <time>2017-02-18T07:37:50Z</time>
      </trkpt>
      <trkpt lat="42.566883000" lon="-2.469474000">
        <ele>684.50</ele>
        <time>2017-02-18T07:37:51Z</time>
      </trkpt>
      <trkpt lat="42.566884000" lon="-2.469472000">
        <ele>684.60</ele>
        <time>2017-02-18T07:37:52Z</time>
      </trkpt>
      <trkpt lat="42.566884000" lon="-2.469468000">
        <ele>684.40</ele>
        <time>2017-02-18T07:37:53Z</time>
      </trkpt>
      <trkpt lat="42.566885000" lon="-2.469467000">
        <ele>684.20</ele>
        <time>2017-02-18T07:37:54Z</time>
      </trkpt>
      <trkpt lat="42.566887000" lon="-2.469466000">
        <ele>684.10</ele>
        <time>2017-02-18T07:37:55Z</time>
      </trkpt>
      <trkpt lat="42.566889000" lon="-2.469465000">
        <ele>684.00</ele>
        <time>2017-02-18T07:37:56Z</time>
      </trkpt>
      <trkpt lat="42.566889000" lon="-2.469465000">
        <ele>684.00</ele>
        <time>2017-02-18T07:37:57Z</time>
      </trkpt>
      <trkpt lat="42.566890000" lon="-2.469465000">
        <ele>684.00</ele>
        <time>2017-02-18T07:37:58Z</time>
      </trkpt>
      <trkpt lat="42.566891000" lon="-2.469466000">
        <ele>684.00</ele>
        <time>2017-02-18T07:37:59Z</time>
      </trkpt>
      <trkpt lat="42.566893000" lon="-2.469466000">
        <ele>684.00</ele>
        <time>2017-02-18T07:38:00Z</time>
      </trkpt>
      <trkpt lat="42.566893000" lon="-2.469466000">
        <ele>684.00</ele>
        <time>2017-02-18T07:38:01Z</time>
      </trkpt>
      <trkpt lat="42.566894000" lon="-2.469467000">
        <ele>684.00</ele>
        <time>2017-02-18T07:38:02Z</time>
      </trkpt>
      <trkpt lat="42.566896000" lon="-2.469466000">
        <ele>683.90</ele>
        <time>2017-02-18T07:38:03Z</time>
      </trkpt>
      <trkpt lat="42.566895000" lon="-2.469467000">
        <ele>683.90</ele>
        <time>2017-02-18T07:38:04Z</time>
      </trkpt>
      <trkpt lat="42.566896000" lon="-2.469468000">
        <ele>683.80</ele>
        <time>2017-02-18T07:38:05Z</time>
      </trkpt>
      <trkpt lat="42.566897000" lon="-2.469470000">
        <ele>683.80</ele>
        <time>2017-02-18T07:38:06Z</time>
      </trkpt>
      <trkpt lat="42.566900000" lon="-2.469475000">
        <ele>683.90</ele>
        <time>2017-02-18T07:38:07Z</time>
      </trkpt>
      <trkpt lat="42.566902000" lon="-2.469478000">
        <ele>683.90</ele>
        <time>2017-02-18T07:38:08Z</time>
      </trkpt>
      <trkpt lat="42.566902000" lon="-2.469477000">
        <ele>684.00</ele>
        <time>2017-02-18T07:38:09Z</time>
      </trkpt>
      <trkpt lat="42.566903000" lon="-2.469479000">
        <ele>684.10</ele>
        <time>2017-02-18T07:38:10Z</time>
      </trkpt>
      <trkpt lat="42.566903000" lon="-2.469479000">
        <ele>684.20</ele>
        <time>2017-02-18T07:38:11Z</time>
      </trkpt>
      <trkpt lat="42.566907000" lon="-2.469480000">
        <ele>684.30</ele>
        <time>2017-02-18T07:38:12Z</time>
      </trkpt>
      <trkpt lat="42.566909000" lon="-2.469481000">
        <ele>684.20</ele>
        <time>2017-02-18T07:38:13Z</time>
      </trkpt>
      <trkpt lat="42.566911000" lon="-2.469481000">
        <ele>684.10</ele>
        <time>2017-02-18T07:38:14Z</time>
      </trkpt>
      <trkpt lat="42.566915000" lon="-2.469481000">
        <ele>684.00</ele>
        <time>2017-02-18T07:38:15Z</time>
      </trkpt>
      <trkpt lat="42.566921000" lon="-2.469480000">
        <ele>683.90</ele>
        <time>2017-02-18T07:38:16Z</time>
      </trkpt>
      <trkpt lat="42.566924000" lon="-2.469480000">
        <ele>683.90</ele>
        <time>2017-02-18T07:38:17Z</time>
      </trkpt>
      <trkpt lat="42.566927000" lon="-2.469477000">
        <ele>683.90</ele>
        <time>2017-02-18T07:38:18Z</time>
      </trkpt>
      <trkpt lat="42.566931000" lon="-2.469475000">
        <ele>683.90</ele>
        <time>2017-02-18T07:38:19Z</time>
      </trkpt>
      <trkpt lat="42.566934000" lon="-2.469472000">
        <ele>683.90</ele>
        <time>2017-02-18T07:38:20Z</time>
      </trkpt>
      <trkpt lat="42.566937000" lon="-2.469472000">
        <ele>684.00</ele>
        <time>2017-02-18T07:38:21Z</time>
      </trkpt>
      <trkpt lat="42.566940000" lon="-2.469473000">
        <ele>684.00</ele>
        <time>2017-02-18T07:38:22Z</time>
      </trkpt>
      <trkpt lat="42.566942000" lon="-2.469469000">
        <ele>684.00</ele>
        <time>2017-02-18T07:38:23Z</time>
      </trkpt>
      <trkpt lat="42.566944000" lon="-2.469468000">
        <ele>684.00</ele>
        <time>2017-02-18T07:38:24Z</time>
      </trkpt>
      <trkpt lat="42.566946000" lon="-2.469467000">
        <ele>684.00</ele>
        <time>2017-02-18T07:38:25Z</time>
      </trkpt>
      <trkpt lat="42.566945000" lon="-2.469469000">
        <ele>684.00</ele>
        <time>2017-02-18T07:38:26Z</time>
      </trkpt>
      <trkpt lat="42.566944000" lon="-2.469469000">
        <ele>684.00</ele>
        <time>2017-02-18T07:38:27Z</time>
      </trkpt>
      <trkpt lat="42.566944000" lon="-2.469466000">
        <ele>683.90</ele>
        <time>2017-02-18T07:38:28Z</time>
      </trkpt>
      <trkpt lat="42.566943000" lon="-2.469463000">
        <ele>683.80</ele>
        <time>2017-02-18T07:38:30Z</time>
      </trkpt>
      <trkpt lat="42.566939000" lon="-2.469460000">
        <ele>684.00</ele>
        <time>2017-02-18T07:38:31Z</time>
      </trkpt>
      <trkpt lat="42.566935000" lon="-2.469458000">
        <ele>684.10</ele>
        <time>2017-02-18T07:38:32Z</time>
      </trkpt>
      <trkpt lat="42.566933000" lon="-2.469455000">
        <ele>684.20</ele>
        <time>2017-02-18T07:38:33Z</time>
      </trkpt>
      <trkpt lat="42.566931000" lon="-2.469454000">
        <ele>684.30</ele>
        <time>2017-02-18T07:38:34Z</time>
      </trkpt>
      <trkpt lat="42.566928000" lon="-2.469453000">
        <ele>684.30</ele>
        <time>2017-02-18T07:38:35Z</time>
      </trkpt>
      <trkpt lat="42.566925000" lon="-2.469451000">
        <ele>684.40</ele>
        <time>2017-02-18T07:38:36Z</time>
      </trkpt>
      <trkpt lat="42.566921000" lon="-2.469449000">
        <ele>684.30</ele>
        <time>2017-02-18T07:38:37Z</time>
      </trkpt>
      <trkpt lat="42.566915000" lon="-2.469448000">
        <ele>684.30</ele>
        <time>2017-02-18T07:38:38Z</time>
      </trkpt>
      <trkpt lat="42.566911000" lon="-2.469447000">
        <ele>684.20</ele>
        <time>2017-02-18T07:38:39Z</time>
      </trkpt>
      <trkpt lat="42.566907000" lon="-2.469444000">
        <ele>684.20</ele>
        <time>2017-02-18T07:38:40Z</time>
      </trkpt>
      <trkpt lat="42.566904000" lon="-2.469443000">
        <ele>684.10</ele>
        <time>2017-02-18T07:38:41Z</time>
      </trkpt>
      <trkpt lat="42.566902000" lon="-2.469444000">
        <ele>684.00</ele>
        <time>2017-02-18T07:38:42Z</time>
      </trkpt>
      <trkpt lat="42.566899000" lon="-2.469444000">
        <ele>684.00</ele>
        <time>2017-02-18T07:38:43Z</time>
      </trkpt>
      <trkpt lat="42.566898000" lon="-2.469443000">
        <ele>684.00</ele>
        <time>2017-02-18T07:38:44Z</time>
      </trkpt>
      <trkpt lat="42.566894000" lon="-2.469441000">
        <ele>684.00</ele>
        <time>2017-02-18T07:38:45Z</time>
      </trkpt>
      <trkpt lat="42.566890000" lon="-2.469438000">
        <ele>684.00</ele>
        <time>2017-02-18T07:38:46Z</time>
      </trkpt>
      <trkpt lat="42.566879000" lon="-2.469439000">
        <ele>684.10</ele>
        <time>2017-02-18T07:38:47Z</time>
      </trkpt>
      <trkpt lat="42.566871000" lon="-2.469441000">
        <ele>684.10</ele>
        <time>2017-02-18T07:38:48Z</time>
      </trkpt>
      <trkpt lat="42.566867000" lon="-2.469441000">
        <ele>684.00</ele>
        <time>2017-02-18T07:38:49Z</time>
      </trkpt>
      <trkpt lat="42.566865000" lon="-2.469443000">
        <ele>684.00</ele>
        <time>2017-02-18T07:38:50Z</time>
      </trkpt>
      <trkpt lat="42.566865000" lon="-2.469443000">
        <ele>683.90</ele>
        <time>2017-02-18T07:38:51Z</time>
      </trkpt>
      <trkpt lat="42.566866000" lon="-2.469442000">
        <ele>683.90</ele>
        <time>2017-02-18T07:38:52Z</time>
      </trkpt>
      <trkpt lat="42.566863000" lon="-2.469443000">
        <ele>684.00</ele>
        <time>2017-02-18T07:38:53Z</time>
      </trkpt>
      <trkpt lat="42.566862000" lon="-2.469442000">
        <ele>684.00</ele>
        <time>2017-02-18T07:38:54Z</time>
      </trkpt>
      <trkpt lat="42.566860000" lon="-2.469441000">
        <ele>684.00</ele>
        <time>2017-02-18T07:38:55Z</time>
      </trkpt>
      <trkpt lat="42.566860000" lon="-2.469442000">
        <ele>684.10</ele>
        <time>2017-02-18T07:38:56Z</time>
      </trkpt>
      <trkpt lat="42.566859000" lon="-2.469441000">
        <ele>684.10</ele>
        <time>2017-02-18T07:38:57Z</time>
      </trkpt>
      <trkpt lat="42.566861000" lon="-2.469440000">
        <ele>684.10</ele>
        <time>2017-02-18T07:38:58Z</time>
      </trkpt>
      <trkpt lat="42.566862000" lon="-2.469441000">
        <ele>684.10</ele>
        <time>2017-02-18T07:38:59Z</time>
      </trkpt>
      <trkpt lat="42.566864000" lon="-2.469443000">
        <ele>684.10</ele>
        <time>2017-02-18T07:39:00Z</time>
      </trkpt>
      <trkpt lat="42.566866000" lon="-2.469444000">
        <ele>684.20</ele>
        <time>2017-02-18T07:39:01Z</time>
      </trkpt>
      <trkpt lat="42.566870000" lon="-2.469443000">
        <ele>684.20</ele>
        <time>2017-02-18T07:39:02Z</time>
      </trkpt>
      <trkpt lat="42.566871000" lon="-2.469442000">
        <ele>684.20</ele>
        <time>2017-02-18T07:39:03Z</time>
      </trkpt>
      <trkpt lat="42.566872000" lon="-2.469442000">
        <ele>684.10</ele>
        <time>2017-02-18T07:39:04Z</time>
      </trkpt>
      <trkpt lat="42.566870000" lon="-2.469442000">
        <ele>684.10</ele>
        <time>2017-02-18T07:39:05Z</time>
      </trkpt>
      <trkpt lat="42.566873000" lon="-2.469442000">
        <ele>683.90</ele>
        <time>2017-02-18T07:39:06Z</time>
      </trkpt>
      <trkpt lat="42.566879000" lon="-2.469441000">
        <ele>683.80</ele>
        <time>2017-02-18T07:39:07Z</time>
      </trkpt>
      <trkpt lat="42.566880000" lon="-2.469444000">
        <ele>683.80</ele>
        <time>2017-02-18T07:39:08Z</time>
      </trkpt>
      <trkpt lat="42.566881000" lon="-2.469448000">
        <ele>683.90</ele>
        <time>2017-02-18T07:39:09Z</time>
      </trkpt>
      <trkpt lat="42.566883000" lon="-2.469450000">
        <ele>683.90</ele>
        <time>2017-02-18T07:39:10Z</time>
      </trkpt>
      <trkpt lat="42.566884000" lon="-2.469451000">
        <ele>683.90</ele>
        <time>2017-02-18T07:39:11Z</time>
      </trkpt>
      <trkpt lat="42.566887000" lon="-2.469454000">
        <ele>684.00</ele>
        <time>2017-02-18T07:39:12Z</time>
      </trkpt>
      <trkpt lat="42.566887000" lon="-2.469455000">
        <ele>684.00</ele>
        <time>2017-02-18T07:39:13Z</time>
      </trkpt>
      <trkpt lat="42.566888000" lon="-2.469455000">
        <ele>684.10</ele>
        <time>2017-02-18T07:39:14Z</time>
      </trkpt>
      <trkpt lat="42.566891000" lon="-2.469453000">
        <ele>684.10</ele>
        <time>2017-02-18T07:39:15Z</time>
      </trkpt>
      <trkpt lat="42.566896000" lon="-2.469450000">
        <ele>684.10</ele>
        <time>2017-02-18T07:39:16Z</time>
      </trkpt>
      <trkpt lat="42.566898000" lon="-2.469453000">
        <ele>684.00</ele>
        <time>2017-02-18T07:39:17Z</time>
      </trkpt>
      <trkpt lat="42.566901000" lon="-2.469455000">
        <ele>684.00</ele>
        <time>2017-02-18T07:39:18Z</time>
      </trkpt>
      <trkpt lat="42.566904000" lon="-2.469454000">
        <ele>684.00</ele>
        <time>2017-02-18T07:39:19Z</time>
      </trkpt>
      <trkpt lat="42.566903000" lon="-2.469449000">
        <ele>684.00</ele>
        <time>2017-02-18T07:39:20Z</time>
      </trkpt>
      <trkpt lat="42.566904000" lon="-2.469447000">
        <ele>684.00</ele>
        <time>2017-02-18T07:39:21Z</time>
      </trkpt>
      <trkpt lat="42.566903000" lon="-2.469444000">
        <ele>684.00</ele>
        <time>2017-02-18T07:39:22Z</time>
      </trkpt>
      <trkpt lat="42.566901000" lon="-2.469445000">
        <ele>684.00</ele>
        <time>2017-02-18T07:39:23Z</time>
      </trkpt>
      <trkpt lat="42.566900000" lon="-2.469446000">
        <ele>684.00</ele>
        <time>2017-02-18T07:39:24Z</time>
      </trkpt>
      <trkpt lat="42.566899000" lon="-2.469444000">
        <ele>684.00</ele>
        <time>2017-02-18T07:39:25Z</time>
      </trkpt>
      <trkpt lat="42.566898000" lon="-2.469445000">
        <ele>683.90</ele>
        <time>2017-02-18T07:39:26Z</time>
      </trkpt>
      <trkpt lat="42.566899000" lon="-2.469443000">
        <ele>683.80</ele>
        <time>2017-02-18T07:39:27Z</time>
      </trkpt>
      <trkpt lat="42.566900000" lon="-2.469444000">
        <ele>683.80</ele>
        <time>2017-02-18T07:39:28Z</time>
      </trkpt>
      <trkpt lat="42.566902000" lon="-2.469447000">
        <ele>683.80</ele>
        <time>2017-02-18T07:39:29Z</time>
      </trkpt>
      <trkpt lat="42.566904000" lon="-2.469450000">
        <ele>683.70</ele>
        <time>2017-02-18T07:39:31Z</time>
      </trkpt>
      <trkpt lat="42.566906000" lon="-2.469450000">
        <ele>683.70</ele>
        <time>2017-02-18T07:39:32Z</time>
      </trkpt>
      <trkpt lat="42.566908000" lon="-2.469453000">
        <ele>683.70</ele>
        <time>2017-02-18T07:39:33Z</time>
      </trkpt>
      <trkpt lat="42.566909000" lon="-2.469457000">
        <ele>683.70</ele>
        <time>2017-02-18T07:39:34Z</time>
      </trkpt>
      <trkpt lat="42.566914000" lon="-2.469458000">
        <ele>683.60</ele>
        <time>2017-02-18T07:39:35Z</time>
      </trkpt>
      <trkpt lat="42.566910000" lon="-2.469461000">
        <ele>683.70</ele>
        <time>2017-02-18T07:39:36Z</time>
      </trkpt>
      <trkpt lat="42.566908000" lon="-2.469464000">
        <ele>683.70</ele>
        <time>2017-02-18T07:39:37Z</time>
      </trkpt>
      <trkpt lat="42.566904000" lon="-2.469469000">
        <ele>683.70</ele>
        <time>2017-02-18T07:39:38Z</time>
      </trkpt>
      <trkpt lat="42.566903000" lon="-2.469475000">
        <ele>683.70</ele>
        <time>2017-02-18T07:39:39Z</time>
      </trkpt>
      <trkpt lat="42.566902000" lon="-2.469479000">
        <ele>683.70</ele>
        <time>2017-02-18T07:39:40Z</time>
      </trkpt>
      <trkpt lat="42.566902000" lon="-2.469478000">
        <ele>683.70</ele>
        <time>2017-02-18T07:39:41Z</time>
      </trkpt>
      <trkpt lat="42.566901000" lon="-2.469479000">
        <ele>683.80</ele>
        <time>2017-02-18T07:39:42Z</time>
      </trkpt>
      <trkpt lat="42.566900000" lon="-2.469479000">
        <ele>683.90</ele>
        <time>2017-02-18T07:39:43Z</time>
      </trkpt>
      <trkpt lat="42.566899000" lon="-2.469477000">
        <ele>683.90</ele>
        <time>2017-02-18T07:39:44Z</time>
      </trkpt>
      <trkpt lat="42.566897000" lon="-2.469475000">
        <ele>683.90</ele>
        <time>2017-02-18T07:39:45Z</time>
      </trkpt>
      <trkpt lat="42.566896000" lon="-2.469472000">
        <ele>684.00</ele>
        <time>2017-02-18T07:39:46Z</time>
      </trkpt>
      <trkpt lat="42.566894000" lon="-2.469471000">
        <ele>684.00</ele>
        <time>2017-02-18T07:39:47Z</time>
      </trkpt>
      <trkpt lat="42.566892000" lon="-2.469471000">
        <ele>684.00</ele>
        <time>2017-02-18T07:39:48Z</time>
      </trkpt>
      <trkpt lat="42.566890000" lon="-2.469473000">
        <ele>684.00</ele>
        <time>2017-02-18T07:39:49Z</time>
      </trkpt>
      <trkpt lat="42.566890000" lon="-2.469472000">
        <ele>684.00</ele>
        <time>2017-02-18T07:39:50Z</time>
      </trkpt>
      <trkpt lat="42.566891000" lon="-2.469471000">
        <ele>684.00</ele>
        <time>2017-02-18T07:39:51Z</time>
      </trkpt>
      <trkpt lat="42.566892000" lon="-2.469472000">
        <ele>684.00</ele>
        <time>2017-02-18T07:39:52Z</time>
      </trkpt>
      <trkpt lat="42.566897000" lon="-2.469471000">
        <ele>684.00</ele>
        <time>2017-02-18T07:39:53Z</time>
      </trkpt>
      <trkpt lat="42.566897000" lon="-2.469473000">
        <ele>684.00</ele>
        <time>2017-02-18T07:39:54Z</time>
      </trkpt>
      <trkpt lat="42.566901000" lon="-2.469475000">
        <ele>684.00</ele>
        <time>2017-02-18T07:39:55Z</time>
      </trkpt>
      <trkpt lat="42.566905000" lon="-2.469469000">
        <ele>684.00</ele>
        <time>2017-02-18T07:39:56Z</time>
      </trkpt>
      <trkpt lat="42.566905000" lon="-2.469462000">
        <ele>684.00</ele>
        <time>2017-02-18T07:39:57Z</time>
      </trkpt>
      <trkpt lat="42.566909000" lon="-2.469452000">
        <ele>684.00</ele>
        <time>2017-02-18T07:39:58Z</time>
      </trkpt>
      <trkpt lat="42.566911000" lon="-2.469441000">
        <ele>684.00</ele>
        <time>2017-02-18T07:39:59Z</time>
      </trkpt>
      <trkpt lat="42.566909000" lon="-2.469435000">
        <ele>684.10</ele>
        <time>2017-02-18T07:40:00Z</time>
      </trkpt>
      <trkpt lat="42.566907000" lon="-2.469425000">
        <ele>684.20</ele>
        <time>2017-02-18T07:40:01Z</time>
      </trkpt>
      <trkpt lat="42.566900000" lon="-2.469424000">
        <ele>684.30</ele>
        <time>2017-02-18T07:40:02Z</time>
      </trkpt>
      <trkpt lat="42.566899000" lon="-2.469423000">
        <ele>684.30</ele>
        <time>2017-02-18T07:40:03Z</time>
      </trkpt>
      <trkpt lat="42.566899000" lon="-2.469422000">
        <ele>684.40</ele>
        <time>2017-02-18T07:40:04Z</time>
      </trkpt>
      <trkpt lat="42.566900000" lon="-2.469422000">
        <ele>684.40</ele>
        <time>2017-02-18T07:40:05Z</time>
      </trkpt>
      <trkpt lat="42.566899000" lon="-2.469422000">
        <ele>684.20</ele>
        <time>2017-02-18T07:40:06Z</time>
      </trkpt>
      <trkpt lat="42.566898000" lon="-2.469422000">
        <ele>684.00</ele>
        <time>2017-02-18T07:40:07Z</time>
      </trkpt>
      <trkpt lat="42.566900000" lon="-2.469419000">
        <ele>683.90</ele>
        <time>2017-02-18T07:40:08Z</time>
      </trkpt>
      <trkpt lat="42.566903000" lon="-2.469416000">
        <ele>683.80</ele>
        <time>2017-02-18T07:40:09Z</time>
      </trkpt>
      <trkpt lat="42.566905000" lon="-2.469419000">
        <ele>683.80</ele>
        <time>2017-02-18T07:40:10Z</time>
      </trkpt>
      <trkpt lat="42.566907000" lon="-2.469422000">
        <ele>683.70</ele>
        <time>2017-02-18T07:40:11Z</time>
      </trkpt>
      <trkpt lat="42.566909000" lon="-2.469423000">
        <ele>683.70</ele>
        <time>2017-02-18T07:40:12Z</time>
      </trkpt>
      <trkpt lat="42.566912000" lon="-2.469423000">
        <ele>683.70</ele>
        <time>2017-02-18T07:40:13Z</time>
      </trkpt>
      <trkpt lat="42.566915000" lon="-2.469424000">
        <ele>683.70</ele>
        <time>2017-02-18T07:40:14Z</time>
      </trkpt>
      <trkpt lat="42.566916000" lon="-2.469424000">
        <ele>683.60</ele>
        <time>2017-02-18T07:40:15Z</time>
      </trkpt>
      <trkpt lat="42.566917000" lon="-2.469424000">
        <ele>683.60</ele>
        <time>2017-02-18T07:40:16Z</time>
      </trkpt>
      <trkpt lat="42.566919000" lon="-2.469425000">
        <ele>683.60</ele>
        <time>2017-02-18T07:40:17Z</time>
      </trkpt>
      <trkpt lat="42.566922000" lon="-2.469427000">
        <ele>683.70</ele>
        <time>2017-02-18T07:40:18Z</time>
      </trkpt>
      <trkpt lat="42.566925000" lon="-2.469428000">
        <ele>683.80</ele>
        <time>2017-02-18T07:40:19Z</time>
      </trkpt>
      <trkpt lat="42.566924000" lon="-2.469427000">
        <ele>683.90</ele>
        <time>2017-02-18T07:40:20Z</time>
      </trkpt>
      <trkpt lat="42.566924000" lon="-2.469425000">
        <ele>684.00</ele>
        <time>2017-02-18T07:40:21Z</time>
      </trkpt>
      <trkpt lat="42.566923000" lon="-2.469424000">
        <ele>684.00</ele>
        <time>2017-02-18T07:40:22Z</time>
      </trkpt>
      <trkpt lat="42.566922000" lon="-2.469424000">
        <ele>684.00</ele>
        <time>2017-02-18T07:40:23Z</time>
      </trkpt>
      <trkpt lat="42.566919000" lon="-2.469423000">
        <ele>684.10</ele>
        <time>2017-02-18T07:40:24Z</time>
      </trkpt>
      <trkpt lat="42.566918000" lon="-2.469423000">
        <ele>684.10</ele>
        <time>2017-02-18T07:40:25Z</time>
      </trkpt>
      <trkpt lat="42.566915000" lon="-2.469423000">
        <ele>684.20</ele>
        <time>2017-02-18T07:40:26Z</time>
      </trkpt>
      <trkpt lat="42.566912000" lon="-2.469424000">
        <ele>684.30</ele>
        <time>2017-02-18T07:40:27Z</time>
      </trkpt>
      <trkpt lat="42.566914000" lon="-2.469424000">
        <ele>684.40</ele>
        <time>2017-02-18T07:40:28Z</time>
      </trkpt>
      <trkpt lat="42.566915000" lon="-2.469423000">
        <ele>684.40</ele>
        <time>2017-02-18T07:40:29Z</time>
      </trkpt>
      <trkpt lat="42.566915000" lon="-2.469423000">
        <ele>684.40</ele>
        <time>2017-02-18T07:40:30Z</time>
      </trkpt>
      <trkpt lat="42.566910000" lon="-2.469422000">
        <ele>684.40</ele>
        <time>2017-02-18T07:40:32Z</time>
      </trkpt>
      <trkpt lat="42.566911000" lon="-2.469421000">
        <ele>684.30</ele>
        <time>2017-02-18T07:40:33Z</time>
      </trkpt>
      <trkpt lat="42.566908000" lon="-2.469421000">
        <ele>684.20</ele>
        <time>2017-02-18T07:40:34Z</time>
      </trkpt>
      <trkpt lat="42.566906000" lon="-2.469420000">
        <ele>684.10</ele>
        <time>2017-02-18T07:40:35Z</time>
      </trkpt>
      <trkpt lat="42.566903000" lon="-2.469423000">
        <ele>684.10</ele>
        <time>2017-02-18T07:40:36Z</time>
      </trkpt>
      <trkpt lat="42.566900000" lon="-2.469423000">
        <ele>684.10</ele>
        <time>2017-02-18T07:40:37Z</time>
      </trkpt>
      <trkpt lat="42.566899000" lon="-2.469422000">
        <ele>684.10</ele>
        <time>2017-02-18T07:40:38Z</time>
      </trkpt>
      <trkpt lat="42.566897000" lon="-2.469422000">
        <ele>684.10</ele>
        <time>2017-02-18T07:40:39Z</time>
      </trkpt>
      <trkpt lat="42.566895000" lon="-2.469423000">
        <ele>684.10</ele>
        <time>2017-02-18T07:40:40Z</time>
      </trkpt>
      <trkpt lat="42.566892000" lon="-2.469427000">
        <ele>684.10</ele>
        <time>2017-02-18T07:40:41Z</time>
      </trkpt>
      <trkpt lat="42.566892000" lon="-2.469428000">
        <ele>684.30</ele>
        <time>2017-02-18T07:40:42Z</time>
      </trkpt>
      <trkpt lat="42.566896000" lon="-2.469432000">
        <ele>684.40</ele>
        <time>2017-02-18T07:40:43Z</time>
      </trkpt>
      <trkpt lat="42.566897000" lon="-2.469436000">
        <ele>684.50</ele>
        <time>2017-02-18T07:40:44Z</time>
      </trkpt>
      <trkpt lat="42.566896000" lon="-2.469436000">
        <ele>684.60</ele>
        <time>2017-02-18T07:40:45Z</time>
      </trkpt>
      <trkpt lat="42.566896000" lon="-2.469435000">
        <ele>684.60</ele>
        <time>2017-02-18T07:40:46Z</time>
      </trkpt>
      <trkpt lat="42.566896000" lon="-2.469436000">
        <ele>684.60</ele>
        <time>2017-02-18T07:40:47Z</time>
      </trkpt>
      <trkpt lat="42.566900000" lon="-2.469435000">
        <ele>684.70</ele>
        <time>2017-02-18T07:40:48Z</time>
      </trkpt>
      <trkpt lat="42.566901000" lon="-2.469433000">
        <ele>684.70</ele>
        <time>2017-02-18T07:40:49Z</time>
      </trkpt>
      <trkpt lat="42.566901000" lon="-2.469433000">
        <ele>684.70</ele>
        <time>2017-02-18T07:40:50Z</time>
      </trkpt>
      <trkpt lat="42.566898000" lon="-2.469435000">
        <ele>684.70</ele>
        <time>2017-02-18T07:40:51Z</time>
      </trkpt>
      <trkpt lat="42.566895000" lon="-2.469434000">
        <ele>684.70</ele>
        <time>2017-02-18T07:40:52Z</time>
      </trkpt>
      <trkpt lat="42.566894000" lon="-2.469432000">
        <ele>684.80</ele>
        <time>2017-02-18T07:40:53Z</time>
      </trkpt>
      <trkpt lat="42.566892000" lon="-2.469429000">
        <ele>684.80</ele>
        <time>2017-02-18T07:40:54Z</time>
      </trkpt>
      <trkpt lat="42.566891000" lon="-2.469426000">
        <ele>684.80</ele>
        <time>2017-02-18T07:40:55Z</time>
      </trkpt>
      <trkpt lat="42.566890000" lon="-2.469423000">
        <ele>684.90</ele>
        <time>2017-02-18T07:40:56Z</time>
      </trkpt>
      <trkpt lat="42.566890000" lon="-2.469420000">
        <ele>684.90</ele>
        <time>2017-02-18T07:40:57Z</time>
      </trkpt>
      <trkpt lat="42.566888000" lon="-2.469419000">
        <ele>684.90</ele>
        <time>2017-02-18T07:40:58Z</time>
      </trkpt>
      <trkpt lat="42.566886000" lon="-2.469420000">
        <ele>684.90</ele>
        <time>2017-02-18T07:40:59Z</time>
      </trkpt>
      <trkpt lat="42.566885000" lon="-2.469420000">
        <ele>684.80</ele>
        <time>2017-02-18T07:41:00Z</time>
      </trkpt>
      <trkpt lat="42.566886000" lon="-2.469418000">
        <ele>684.80</ele>
        <time>2017-02-18T07:41:01Z</time>
      </trkpt>
      <trkpt lat="42.566887000" lon="-2.469420000">
        <ele>684.80</ele>
        <time>2017-02-18T07:41:02Z</time>
      </trkpt>
      <trkpt lat="42.566890000" lon="-2.469417000">
        <ele>684.70</ele>
        <time>2017-02-18T07:41:03Z</time>
      </trkpt>
      <trkpt lat="42.566892000" lon="-2.469413000">
        <ele>684.70</ele>
        <time>2017-02-18T07:41:04Z</time>
      </trkpt>
      <trkpt lat="42.566893000" lon="-2.469413000">
        <ele>684.70</ele>
        <time>2017-02-18T07:41:05Z</time>
      </trkpt>
      <trkpt lat="42.566893000" lon="-2.469415000">
        <ele>684.60</ele>
        <time>2017-02-18T07:41:06Z</time>
      </trkpt>
      <trkpt lat="42.566892000" lon="-2.469415000">
        <ele>684.60</ele>
        <time>2017-02-18T07:41:07Z</time>
      </trkpt>
      <trkpt lat="42.566893000" lon="-2.469416000">
        <ele>684.60</ele>
        <time>2017-02-18T07:41:08Z</time>
      </trkpt>
      <trkpt lat="42.566891000" lon="-2.469417000">
        <ele>684.60</ele>
        <time>2017-02-18T07:41:09Z</time>
      </trkpt>
      <trkpt lat="42.566891000" lon="-2.469417000">
        <ele>684.60</ele>
        <time>2017-02-18T07:41:10Z</time>
      </trkpt>
      <trkpt lat="42.566892000" lon="-2.469418000">
        <ele>684.60</ele>
        <time>2017-02-18T07:41:11Z</time>
      </trkpt>
      <trkpt lat="42.566897000" lon="-2.469418000">
        <ele>684.60</ele>
        <time>2017-02-18T07:41:12Z</time>
      </trkpt>
      <trkpt lat="42.566900000" lon="-2.469419000">
        <ele>684.60</ele>
        <time>2017-02-18T07:41:13Z</time>
      </trkpt>
      <trkpt lat="42.566901000" lon="-2.469423000">
        <ele>684.60</ele>
        <time>2017-02-18T07:41:14Z</time>
      </trkpt>
      <trkpt lat="42.566902000" lon="-2.469428000">
        <ele>684.50</ele>
        <time>2017-02-18T07:41:15Z</time>
      </trkpt>
      <trkpt lat="42.566904000" lon="-2.469434000">
        <ele>684.60</ele>
        <time>2017-02-18T07:41:16Z</time>
      </trkpt>
      <trkpt lat="42.566903000" lon="-2.469438000">
        <ele>684.60</ele>
        <time>2017-02-18T07:41:17Z</time>
      </trkpt>
      <trkpt lat="42.566903000" lon="-2.469440000">
        <ele>684.40</ele>
        <time>2017-02-18T07:41:18Z</time>
      </trkpt>
      <trkpt lat="42.566903000" lon="-2.469441000">
        <ele>684.30</ele>
        <time>2017-02-18T07:41:19Z</time>
      </trkpt>
      <trkpt lat="42.566902000" lon="-2.469440000">
        <ele>684.30</ele>
        <time>2017-02-18T07:41:20Z</time>
      </trkpt>
      <trkpt lat="42.566901000" lon="-2.469440000">
        <ele>684.30</ele>
        <time>2017-02-18T07:41:21Z</time>
      </trkpt>
      <trkpt lat="42.566903000" lon="-2.469439000">
        <ele>684.40</ele>
        <time>2017-02-18T07:41:22Z</time>
      </trkpt>
      <trkpt lat="42.566903000" lon="-2.469438000">
        <ele>684.40</ele>
        <time>2017-02-18T07:41:23Z</time>
      </trkpt>
      <trkpt lat="42.566905000" lon="-2.469438000">
        <ele>684.40</ele>
        <time>2017-02-18T07:41:24Z</time>
      </trkpt>
      <trkpt lat="42.566905000" lon="-2.469440000">
        <ele>684.40</ele>
        <time>2017-02-18T07:41:25Z</time>
      </trkpt>
      <trkpt lat="42.566903000" lon="-2.469441000">
        <ele>684.40</ele>
        <time>2017-02-18T07:41:26Z</time>
      </trkpt>
      <trkpt lat="42.566903000" lon="-2.469442000">
        <ele>684.50</ele>
        <time>2017-02-18T07:41:27Z</time>
      </trkpt>
      <trkpt lat="42.566901000" lon="-2.469442000">
        <ele>684.60</ele>
        <time>2017-02-18T07:41:28Z</time>
      </trkpt>
      <trkpt lat="42.566899000" lon="-2.469445000">
        <ele>684.70</ele>
        <time>2017-02-18T07:41:29Z</time>
      </trkpt>
      <trkpt lat="42.566899000" lon="-2.469445000">
        <ele>684.80</ele>
        <time>2017-02-18T07:41:30Z</time>
      </trkpt>
      <trkpt lat="42.566899000" lon="-2.469446000">
        <ele>684.80</ele>
        <time>2017-02-18T07:41:31Z</time>
      </trkpt>
      <trkpt lat="42.566902000" lon="-2.469445000">
        <ele>684.70</ele>
        <time>2017-02-18T07:41:33Z</time>
      </trkpt>
      <trkpt lat="42.566901000" lon="-2.469444000">
        <ele>684.70</ele>
        <time>2017-02-18T07:41:34Z</time>
      </trkpt>
      <trkpt lat="42.566901000" lon="-2.469444000">
        <ele>684.60</ele>
        <time>2017-02-18T07:41:35Z</time>
      </trkpt>
      <trkpt lat="42.566900000" lon="-2.469444000">
        <ele>684.70</ele>
        <time>2017-02-18T07:41:36Z</time>
      </trkpt>
      <trkpt lat="42.566899000" lon="-2.469446000">
        <ele>684.80</ele>
        <time>2017-02-18T07:41:37Z</time>
      </trkpt>
      <trkpt lat="42.566900000" lon="-2.469445000">
        <ele>684.90</ele>
        <time>2017-02-18T07:41:38Z</time>
      </trkpt>
      <trkpt lat="42.566899000" lon="-2.469445000">
        <ele>684.90</ele>
        <time>2017-02-18T07:41:39Z</time>
      </trkpt>
      <trkpt lat="42.566899000" lon="-2.469444000">
        <ele>685.00</ele>
        <time>2017-02-18T07:41:40Z</time>
      </trkpt>
      <trkpt lat="42.566898000" lon="-2.469447000">
        <ele>685.00</ele>
        <time>2017-02-18T07:41:41Z</time>
      </trkpt>
      <trkpt lat="42.566899000" lon="-2.469447000">
        <ele>685.00</ele>
        <time>2017-02-18T07:41:42Z</time>
      </trkpt>
      <trkpt lat="42.566900000" lon="-2.469447000">
        <ele>685.00</ele>
        <time>2017-02-18T07:41:43Z</time>
      </trkpt>
      <trkpt lat="42.566902000" lon="-2.469447000">
        <ele>684.90</ele>
        <time>2017-02-18T07:41:44Z</time>
      </trkpt>
      <trkpt lat="42.566905000" lon="-2.469446000">
        <ele>684.80</ele>
        <time>2017-02-18T07:41:45Z</time>
      </trkpt>
      <trkpt lat="42.566907000" lon="-2.469448000">
        <ele>684.60</ele>
        <time>2017-02-18T07:41:46Z</time>
      </trkpt>
      <trkpt lat="42.566907000" lon="-2.469451000">
        <ele>684.40</ele>
        <time>2017-02-18T07:41:47Z</time>
      </trkpt>
      <trkpt lat="42.566906000" lon="-2.469453000">
        <ele>684.30</ele>
        <time>2017-02-18T07:41:48Z</time>
      </trkpt>
      <trkpt lat="42.566905000" lon="-2.469455000">
        <ele>684.20</ele>
        <time>2017-02-18T07:41:49Z</time>
      </trkpt>
      <trkpt lat="42.566905000" lon="-2.469458000">
        <ele>684.20</ele>
        <time>2017-02-18T07:41:50Z</time>
      </trkpt>
      <trkpt lat="42.566908000" lon="-2.469460000">
        <ele>684.10</ele>
        <time>2017-02-18T07:41:51Z</time>
      </trkpt>
      <trkpt lat="42.566909000" lon="-2.469462000">
        <ele>684.10</ele>
        <time>2017-02-18T07:41:52Z</time>
      </trkpt>
      <trkpt lat="42.566909000" lon="-2.469464000">
        <ele>684.10</ele>
        <time>2017-02-18T07:41:53Z</time>
      </trkpt>
      <trkpt lat="42.566908000" lon="-2.469466000">
        <ele>684.10</ele>
        <time>2017-02-18T07:41:54Z</time>
      </trkpt>
      <trkpt lat="42.566907000" lon="-2.469467000">
        <ele>684.10</ele>
        <time>2017-02-18T07:41:55Z</time>
      </trkpt>
      <trkpt lat="42.566910000" lon="-2.469469000">
        <ele>684.00</ele>
        <time>2017-02-18T07:41:56Z</time>
      </trkpt>
      <trkpt lat="42.566910000" lon="-2.469471000">
        <ele>684.00</ele>
        <time>2017-02-18T07:41:57Z</time>
      </trkpt>
      <trkpt lat="42.566909000" lon="-2.469474000">
        <ele>684.00</ele>
        <time>2017-02-18T07:41:58Z</time>
      </trkpt>
      <trkpt lat="42.566909000" lon="-2.469476000">
        <ele>684.00</ele>
        <time>2017-02-18T07:41:59Z</time>
      </trkpt>
      <trkpt lat="42.566909000" lon="-2.469478000">
        <ele>684.00</ele>
        <time>2017-02-18T07:42:00Z</time>
      </trkpt>
      <trkpt lat="42.566909000" lon="-2.469480000">
        <ele>684.00</ele>
        <time>2017-02-18T07:42:01Z</time>
      </trkpt>
      <trkpt lat="42.566909000" lon="-2.469481000">
        <ele>684.00</ele>
        <time>2017-02-18T07:42:02Z</time>
      </trkpt>
      <trkpt lat="42.566909000" lon="-2.469482000">
        <ele>684.10</ele>
        <time>2017-02-18T07:42:03Z</time>
      </trkpt>
      <trkpt lat="42.566909000" lon="-2.469482000">
        <ele>684.10</ele>
        <time>2017-02-18T07:42:04Z</time>
      </trkpt>
      <trkpt lat="42.566909000" lon="-2.469481000">
        <ele>684.10</ele>
        <time>2017-02-18T07:42:05Z</time>
      </trkpt>
      <trkpt lat="42.566908000" lon="-2.469479000">
        <ele>684.10</ele>
        <time>2017-02-18T07:42:06Z</time>
      </trkpt>
      <trkpt lat="42.566907000" lon="-2.469477000">
        <ele>684.10</ele>
        <time>2017-02-18T07:42:07Z</time>
      </trkpt>
      <trkpt lat="42.566906000" lon="-2.469475000">
        <ele>684.00</ele>
        <time>2017-02-18T07:42:08Z</time>
      </trkpt>
      <trkpt lat="42.566903000" lon="-2.469473000">
        <ele>684.00</ele>
        <time>2017-02-18T07:42:09Z</time>
      </trkpt>
      <trkpt lat="42.566904000" lon="-2.469470000">
        <ele>684.20</ele>
        <time>2017-02-18T07:42:10Z</time>
      </trkpt>
      <trkpt lat="42.566904000" lon="-2.469467000">
        <ele>684.40</ele>
        <time>2017-02-18T07:42:11Z</time>
      </trkpt>
      <trkpt lat="42.566906000" lon="-2.469464000">
        <ele>684.50</ele>
        <time>2017-02-18T07:42:12Z</time>
      </trkpt>
      <trkpt lat="42.566906000" lon="-2.469461000">
        <ele>684.60</ele>
        <time>2017-02-18T07:42:13Z</time>
      </trkpt>
      <trkpt lat="42.566906000" lon="-2.469457000">
        <ele>684.50</ele>
        <time>2017-02-18T07:42:14Z</time>
      </trkpt>
      <trkpt lat="42.566908000" lon="-2.469456000">
        <ele>684.40</ele>
        <time>2017-02-18T07:42:15Z</time>
      </trkpt>
      <trkpt lat="42.566910000" lon="-2.469457000">
        <ele>684.40</ele>
        <time>2017-02-18T07:42:16Z</time>
      </trkpt>
      <trkpt lat="42.566912000" lon="-2.469456000">
        <ele>684.30</ele>
        <time>2017-02-18T07:42:17Z</time>
      </trkpt>
      <trkpt lat="42.566913000" lon="-2.469453000">
        <ele>684.30</ele>
        <time>2017-02-18T07:42:18Z</time>
      </trkpt>
      <trkpt lat="42.566910000" lon="-2.469449000">
        <ele>684.30</ele>
        <time>2017-02-18T07:42:19Z</time>
      </trkpt>
      <trkpt lat="42.566910000" lon="-2.469446000">
        <ele>684.30</ele>
        <time>2017-02-18T07:42:20Z</time>
      </trkpt>
      <trkpt lat="42.566907000" lon="-2.469446000">
        <ele>684.40</ele>
        <time>2017-02-18T07:42:21Z</time>
      </trkpt>
      <trkpt lat="42.566906000" lon="-2.469446000">
        <ele>684.60</ele>
        <time>2017-02-18T07:42:22Z</time>
      </trkpt>
      <trkpt lat="42.566904000" lon="-2.469445000">
        <ele>684.80</ele>
        <time>2017-02-18T07:42:23Z</time>
      </trkpt>
      <trkpt lat="42.566907000" lon="-2.469443000">
        <ele>684.90</ele>
        <time>2017-02-18T07:42:24Z</time>
      </trkpt>
      <trkpt lat="42.566908000" lon="-2.469441000">
        <ele>685.00</ele>
        <time>2017-02-18T07:42:25Z</time>
      </trkpt>
      <trkpt lat="42.566902000" lon="-2.469441000">
        <ele>685.00</ele>
        <time>2017-02-18T07:42:26Z</time>
      </trkpt>
      <trkpt lat="42.566899000" lon="-2.469445000">
        <ele>685.00</ele>
        <time>2017-02-18T07:42:27Z</time>
      </trkpt>
      <trkpt lat="42.566897000" lon="-2.469446000">
        <ele>685.00</ele>
        <time>2017-02-18T07:42:28Z</time>
      </trkpt>
      <trkpt lat="42.566898000" lon="-2.469447000">
        <ele>685.00</ele>
        <time>2017-02-18T07:42:29Z</time>
      </trkpt>
      <trkpt lat="42.566896000" lon="-2.469445000">
        <ele>685.00</ele>
        <time>2017-02-18T07:42:30Z</time>
      </trkpt>
      <trkpt lat="42.566901000" lon="-2.469445000">
        <ele>685.00</ele>
        <time>2017-02-18T07:42:31Z</time>
      </trkpt>
      <trkpt lat="42.566899000" lon="-2.469444000">
        <ele>685.00</ele>
        <time>2017-02-18T07:42:32Z</time>
      </trkpt>
      <trkpt lat="42.566898000" lon="-2.469448000">
        <ele>685.00</ele>
        <time>2017-02-18T07:42:34Z</time>
      </trkpt>
      <trkpt lat="42.566897000" lon="-2.469447000">
        <ele>685.00</ele>
        <time>2017-02-18T07:42:35Z</time>
      </trkpt>
      <trkpt lat="42.566896000" lon="-2.469447000">
        <ele>685.00</ele>
        <time>2017-02-18T07:42:36Z</time>
      </trkpt>
      <trkpt lat="42.566892000" lon="-2.469445000">
        <ele>685.00</ele>
        <time>2017-02-18T07:42:37Z</time>
      </trkpt>
      <trkpt lat="42.566890000" lon="-2.469445000">
        <ele>685.10</ele>
        <time>2017-02-18T07:42:38Z</time>
      </trkpt>
      <trkpt lat="42.566890000" lon="-2.469444000">
        <ele>685.10</ele>
        <time>2017-02-18T07:42:39Z</time>
      </trkpt>
      <trkpt lat="42.566886000" lon="-2.469442000">
        <ele>685.00</ele>
        <time>2017-02-18T07:42:40Z</time>
      </trkpt>
      <trkpt lat="42.566884000" lon="-2.469440000">
        <ele>685.00</ele>
        <time>2017-02-18T07:42:41Z</time>
      </trkpt>
      <trkpt lat="42.566882000" lon="-2.469437000">
        <ele>684.90</ele>
        <time>2017-02-18T07:42:42Z</time>
      </trkpt>
      <trkpt lat="42.566881000" lon="-2.469433000">
        <ele>684.90</ele>
        <time>2017-02-18T07:42:43Z</time>
      </trkpt>
      <trkpt lat="42.566880000" lon="-2.469434000">
        <ele>684.70</ele>
        <time>2017-02-18T07:42:44Z</time>
      </trkpt>
      <trkpt lat="42.566877000" lon="-2.469433000">
        <ele>684.60</ele>
        <time>2017-02-18T07:42:45Z</time>
      </trkpt>
      <trkpt lat="42.566879000" lon="-2.469430000">
        <ele>684.60</ele>
        <time>2017-02-18T07:42:46Z</time>
      </trkpt>
      <trkpt lat="42.566879000" lon="-2.469428000">
        <ele>684.70</ele>
        <time>2017-02-18T07:42:47Z</time>
      </trkpt>
      <trkpt lat="42.566878000" lon="-2.469425000">
        <ele>684.60</ele>
        <time>2017-02-18T07:42:48Z</time>
      </trkpt>
      <trkpt lat="42.566879000" lon="-2.469421000">
        <ele>684.50</ele>
        <time>2017-02-18T07:42:49Z</time>
      </trkpt>
      <trkpt lat="42.566881000" lon="-2.469418000">
        <ele>684.50</ele>
        <time>2017-02-18T07:42:50Z</time>
      </trkpt>
      <trkpt lat="42.566882000" lon="-2.469413000">
        <ele>684.60</ele>
        <time>2017-02-18T07:42:51Z</time>
      </trkpt>
      <trkpt lat="42.566883000" lon="-2.469412000">
        <ele>684.60</ele>
        <time>2017-02-18T07:42:52Z</time>
      </trkpt>
      <trkpt lat="42.566884000" lon="-2.469409000">
        <ele>684.60</ele>
        <time>2017-02-18T07:42:53Z</time>
      </trkpt>
      <trkpt lat="42.566887000" lon="-2.469403000">
        <ele>684.60</ele>
        <time>2017-02-18T07:42:54Z</time>
      </trkpt>
      <trkpt lat="42.566888000" lon="-2.469411000">
        <ele>684.60</ele>
        <time>2017-02-18T07:42:55Z</time>
      </trkpt>
      <trkpt lat="42.566884000" lon="-2.469413000">
        <ele>684.70</ele>
        <time>2017-02-18T07:42:56Z</time>
      </trkpt>
      <trkpt lat="42.566887000" lon="-2.469417000">
        <ele>684.70</ele>
        <time>2017-02-18T07:42:57Z</time>
      </trkpt>
      <trkpt lat="42.566886000" lon="-2.469426000">
        <ele>684.90</ele>
        <time>2017-02-18T07:42:58Z</time>
      </trkpt>
      <trkpt lat="42.566886000" lon="-2.469429000">
        <ele>685.10</ele>
        <time>2017-02-18T07:42:59Z</time>
      </trkpt>
      <trkpt lat="42.566888000" lon="-2.469432000">
        <ele>685.20</ele>
        <time>2017-02-18T07:43:00Z</time>
      </trkpt>
      <trkpt lat="42.566883000" lon="-2.469436000">
        <ele>685.20</ele>
        <time>2017-02-18T07:43:01Z</time>
      </trkpt>
      <trkpt lat="42.566880000" lon="-2.469441000">
        <ele>685.30</ele>
        <time>2017-02-18T07:43:02Z</time>
      </trkpt>
      <trkpt lat="42.566879000" lon="-2.469445000">
        <ele>685.30</ele>
        <time>2017-02-18T07:43:03Z</time>
      </trkpt>
      <trkpt lat="42.566875000" lon="-2.469450000">
        <ele>685.40</ele>
        <time>2017-02-18T07:43:04Z</time>
      </trkpt>
      <trkpt lat="42.566874000" lon="-2.469461000">
        <ele>685.40</ele>
        <time>2017-02-18T07:43:05Z</time>
      </trkpt>
      <trkpt lat="42.566872000" lon="-2.469476000">
        <ele>685.30</ele>
        <time>2017-02-18T07:43:06Z</time>
      </trkpt>
      <trkpt lat="42.566866000" lon="-2.469500000">
        <ele>685.30</ele>
        <time>2017-02-18T07:43:07Z</time>
      </trkpt>
      <trkpt lat="42.566866000" lon="-2.469518000">
        <ele>685.30</ele>
        <time>2017-02-18T07:43:08Z</time>
      </trkpt>
      <trkpt lat="42.566867000" lon="-2.469542000">
        <ele>685.30</ele>
        <time>2017-02-18T07:43:09Z</time>
      </trkpt>
      <trkpt lat="42.566872000" lon="-2.469564000">
        <ele>685.20</ele>
        <time>2017-02-18T07:43:10Z</time>
      </trkpt>
      <trkpt lat="42.566876000" lon="-2.469587000">
        <ele>685.10</ele>
        <time>2017-02-18T07:43:11Z</time>
      </trkpt>
      <trkpt lat="42.566880000" lon="-2.469610000">
        <ele>685.00</ele>
        <time>2017-02-18T07:43:12Z</time>
      </trkpt>
      <trkpt lat="42.566884000" lon="-2.469634000">
        <ele>684.90</ele>
        <time>2017-02-18T07:43:13Z</time>
      </trkpt>
      <trkpt lat="42.566884000" lon="-2.469663000">
        <ele>684.90</ele>
        <time>2017-02-18T07:43:14Z</time>
      </trkpt>
      <trkpt lat="42.566889000" lon="-2.469693000">
        <ele>685.00</ele>
        <time>2017-02-18T07:43:15Z</time>
      </trkpt>
      <trkpt lat="42.566900000" lon="-2.469724000">
        <ele>685.00</ele>
        <time>2017-02-18T07:43:16Z</time>
      </trkpt>
      <trkpt lat="42.566911000" lon="-2.469751000">
        <ele>685.00</ele>
        <time>2017-02-18T07:43:17Z</time>
      </trkpt>
      <trkpt lat="42.566924000" lon="-2.469773000">
        <ele>685.10</ele>
        <time>2017-02-18T07:43:18Z</time>
      </trkpt>
      <trkpt lat="42.566933000" lon="-2.469797000">
        <ele>685.10</ele>
        <time>2017-02-18T07:43:19Z</time>
      </trkpt>
      <trkpt lat="42.566945000" lon="-2.469819000">
        <ele>685.20</ele>
        <time>2017-02-18T07:43:20Z</time>
      </trkpt>
      <trkpt lat="42.566956000" lon="-2.469839000">
        <ele>685.20</ele>
        <time>2017-02-18T07:43:21Z</time>
      </trkpt>
      <trkpt lat="42.566964000" lon="-2.469862000">
        <ele>685.30</ele>
        <time>2017-02-18T07:43:22Z</time>
      </trkpt>
      <trkpt lat="42.566973000" lon="-2.469887000">
        <ele>685.40</ele>
        <time>2017-02-18T07:43:23Z</time>
      </trkpt>
      <trkpt lat="42.566981000" lon="-2.469913000">
        <ele>685.50</ele>
        <time>2017-02-18T07:43:24Z</time>
      </trkpt>
      <trkpt lat="42.566987000" lon="-2.469943000">
        <ele>685.50</ele>
        <time>2017-02-18T07:43:25Z</time>
      </trkpt>
      <trkpt lat="42.566995000" lon="-2.469975000">
        <ele>685.50</ele>
        <time>2017-02-18T07:43:26Z</time>
      </trkpt>
      <trkpt lat="42.567006000" lon="-2.470004000">
        <ele>685.60</ele>
        <time>2017-02-18T07:43:27Z</time>
      </trkpt>
      <trkpt lat="42.567018000" lon="-2.470032000">
        <ele>685.30</ele>
        <time>2017-02-18T07:43:28Z</time>
      </trkpt>
      <trkpt lat="42.567030000" lon="-2.470059000">
        <ele>685.20</ele>
        <time>2017-02-18T07:43:29Z</time>
      </trkpt>
      <trkpt lat="42.567040000" lon="-2.470083000">
        <ele>685.10</ele>
        <time>2017-02-18T07:43:30Z</time>
      </trkpt>
      <trkpt lat="42.567048000" lon="-2.470106000">
        <ele>685.10</ele>
        <time>2017-02-18T07:43:31Z</time>
      </trkpt>
      <trkpt lat="42.567057000" lon="-2.470133000">
        <ele>685.00</ele>
        <time>2017-02-18T07:43:32Z</time>
      </trkpt>
      <trkpt lat="42.567063000" lon="-2.470160000">
        <ele>684.90</ele>
        <time>2017-02-18T07:43:33Z</time>
      </trkpt>
      <trkpt lat="42.567084000" lon="-2.470207000">
        <ele>684.90</ele>
        <time>2017-02-18T07:43:35Z</time>
      </trkpt>
      <trkpt lat="42.567092000" lon="-2.470235000">
        <ele>684.90</ele>
        <time>2017-02-18T07:43:36Z</time>
      </trkpt>
      <trkpt lat="42.567103000" lon="-2.470262000">
        <ele>684.80</ele>
        <time>2017-02-18T07:43:37Z</time>
      </trkpt>
      <trkpt lat="42.567114000" lon="-2.470288000">
        <ele>684.90</ele>
        <time>2017-02-18T07:43:38Z</time>
      </trkpt>
      <trkpt lat="42.567127000" lon="-2.470311000">
        <ele>685.00</ele>
        <time>2017-02-18T07:43:39Z</time>
      </trkpt>
      <trkpt lat="42.567139000" lon="-2.470335000">
        <ele>685.00</ele>
        <time>2017-02-18T07:43:40Z</time>
      </trkpt>
      <trkpt lat="42.567153000" lon="-2.470359000">
        <ele>684.90</ele>
        <time>2017-02-18T07:43:41Z</time>
      </trkpt>
      <trkpt lat="42.567166000" lon="-2.470383000">
        <ele>684.90</ele>
        <time>2017-02-18T07:43:42Z</time>
      </trkpt>
      <trkpt lat="42.567182000" lon="-2.470402000">
        <ele>684.80</ele>
        <time>2017-02-18T07:43:43Z</time>
      </trkpt>
      <trkpt lat="42.567195000" lon="-2.470426000">
        <ele>684.80</ele>
        <time>2017-02-18T07:43:44Z</time>
      </trkpt>
      <trkpt lat="42.567205000" lon="-2.470451000">
        <ele>684.80</ele>
        <time>2017-02-18T07:43:45Z</time>
      </trkpt>
      <trkpt lat="42.567215000" lon="-2.470476000">
        <ele>684.90</ele>
        <time>2017-02-18T07:43:46Z</time>
      </trkpt>
      <trkpt lat="42.567228000" lon="-2.470495000">
        <ele>684.90</ele>
        <time>2017-02-18T07:43:47Z</time>
      </trkpt>
      <trkpt lat="42.567245000" lon="-2.470508000">
        <ele>685.00</ele>
        <time>2017-02-18T07:43:48Z</time>
      </trkpt>
      <trkpt lat="42.567265000" lon="-2.470521000">
        <ele>685.00</ele>
        <time>2017-02-18T07:43:49Z</time>
      </trkpt>
      <trkpt lat="42.567281000" lon="-2.470537000">
        <ele>685.20</ele>
        <time>2017-02-18T07:43:50Z</time>
      </trkpt>
      <trkpt lat="42.567297000" lon="-2.470554000">
        <ele>685.30</ele>
        <time>2017-02-18T07:43:51Z</time>
      </trkpt>
      <trkpt lat="42.567313000" lon="-2.470570000">
        <ele>685.40</ele>
        <time>2017-02-18T07:43:52Z</time>
      </trkpt>
      <trkpt lat="42.567329000" lon="-2.470584000">
        <ele>685.40</ele>
        <time>2017-02-18T07:43:53Z</time>
      </trkpt>
      <trkpt lat="42.567345000" lon="-2.470601000">
        <ele>685.50</ele>
        <time>2017-02-18T07:43:54Z</time>
      </trkpt>
      <trkpt lat="42.567362000" lon="-2.470617000">
        <ele>685.50</ele>
        <time>2017-02-18T07:43:55Z</time>
      </trkpt>
      <trkpt lat="42.567380000" lon="-2.470633000">
        <ele>685.50</ele>
        <time>2017-02-18T07:43:56Z</time>
      </trkpt>
      <trkpt lat="42.567400000" lon="-2.470645000">
        <ele>685.60</ele>
        <time>2017-02-18T07:43:57Z</time>
      </trkpt>
      <trkpt lat="42.567419000" lon="-2.470658000">
        <ele>685.50</ele>
        <time>2017-02-18T07:43:58Z</time>
      </trkpt>
      <trkpt lat="42.567439000" lon="-2.470668000">
        <ele>685.50</ele>
        <time>2017-02-18T07:43:59Z</time>
      </trkpt>
      <trkpt lat="42.567458000" lon="-2.470677000">
        <ele>685.50</ele>
        <time>2017-02-18T07:44:00Z</time>
      </trkpt>
      <trkpt lat="42.567477000" lon="-2.470682000">
        <ele>685.50</ele>
        <time>2017-02-18T07:44:01Z</time>
      </trkpt>
      <trkpt lat="42.567496000" lon="-2.470685000">
        <ele>685.50</ele>
        <time>2017-02-18T07:44:02Z</time>
      </trkpt>
      <trkpt lat="42.567513000" lon="-2.470687000">
        <ele>685.60</ele>
        <time>2017-02-18T07:44:03Z</time>
      </trkpt>
      <trkpt lat="42.567530000" lon="-2.470690000">
        <ele>685.60</ele>
        <time>2017-02-18T07:44:04Z</time>
      </trkpt>
      <trkpt lat="42.567549000" lon="-2.470690000">
        <ele>685.60</ele>
        <time>2017-02-18T07:44:05Z</time>
      </trkpt>
      <trkpt lat="42.567567000" lon="-2.470698000">
        <ele>685.90</ele>
        <time>2017-02-18T07:44:06Z</time>
      </trkpt>
      <trkpt lat="42.567584000" lon="-2.470705000">
        <ele>686.00</ele>
        <time>2017-02-18T07:44:07Z</time>
      </trkpt>
      <trkpt lat="42.567602000" lon="-2.470709000">
        <ele>686.20</ele>
        <time>2017-02-18T07:44:08Z</time>
      </trkpt>
      <trkpt lat="42.567619000" lon="-2.470714000">
        <ele>686.30</ele>
        <time>2017-02-18T07:44:09Z</time>
      </trkpt>
      <trkpt lat="42.567634000" lon="-2.470718000">
        <ele>686.40</ele>
        <time>2017-02-18T07:44:10Z</time>
      </trkpt>
      <trkpt lat="42.567652000" lon="-2.470720000">
        <ele>686.50</ele>
        <time>2017-02-18T07:44:11Z</time>
      </trkpt>
      <trkpt lat="42.567669000" lon="-2.470722000">
        <ele>686.50</ele>
        <time>2017-02-18T07:44:12Z</time>
      </trkpt>
      <trkpt lat="42.567684000" lon="-2.470724000">
        <ele>686.60</ele>
        <time>2017-02-18T07:44:13Z</time>
      </trkpt>
      <trkpt lat="42.567699000" lon="-2.470723000">
        <ele>686.60</ele>
        <time>2017-02-18T07:44:14Z</time>
      </trkpt>
      <trkpt lat="42.567713000" lon="-2.470726000">
        <ele>686.60</ele>
        <time>2017-02-18T07:44:15Z</time>
      </trkpt>
      <trkpt lat="42.567726000" lon="-2.470726000">
        <ele>686.70</ele>
        <time>2017-02-18T07:44:16Z</time>
      </trkpt>
      <trkpt lat="42.567737000" lon="-2.470726000">
        <ele>686.80</ele>
        <time>2017-02-18T07:44:17Z</time>
      </trkpt>
      <trkpt lat="42.567754000" lon="-2.470729000">
        <ele>686.90</ele>
        <time>2017-02-18T07:44:18Z</time>
      </trkpt>
      <trkpt lat="42.567768000" lon="-2.470732000">
        <ele>687.00</ele>
        <time>2017-02-18T07:44:19Z</time>
      </trkpt>
      <trkpt lat="42.567783000" lon="-2.470734000">
        <ele>687.20</ele>
        <time>2017-02-18T07:44:20Z</time>
      </trkpt>
      <trkpt lat="42.567797000" lon="-2.470733000">
        <ele>687.40</ele>
        <time>2017-02-18T07:44:21Z</time>
      </trkpt>
      <trkpt lat="42.567810000" lon="-2.470734000">
        <ele>687.50</ele>
        <time>2017-02-18T07:44:22Z</time>
      </trkpt>
      <trkpt lat="42.567825000" lon="-2.470735000">
        <ele>687.60</ele>
        <time>2017-02-18T07:44:23Z</time>
      </trkpt>
      <trkpt lat="42.567840000" lon="-2.470738000">
        <ele>687.60</ele>
        <time>2017-02-18T07:44:24Z</time>
      </trkpt>
      <trkpt lat="42.567855000" lon="-2.470741000">
        <ele>687.70</ele>
        <time>2017-02-18T07:44:25Z</time>
      </trkpt>
      <trkpt lat="42.567871000" lon="-2.470749000">
        <ele>688.00</ele>
        <time>2017-02-18T07:44:26Z</time>
      </trkpt>
      <trkpt lat="42.567884000" lon="-2.470753000">
        <ele>688.20</ele>
        <time>2017-02-18T07:44:27Z</time>
      </trkpt>
      <trkpt lat="42.567896000" lon="-2.470758000">
        <ele>688.30</ele>
        <time>2017-02-18T07:44:28Z</time>
      </trkpt>
      <trkpt lat="42.567911000" lon="-2.470759000">
        <ele>688.40</ele>
        <time>2017-02-18T07:44:29Z</time>
      </trkpt>
      <trkpt lat="42.567927000" lon="-2.470758000">
        <ele>688.50</ele>
        <time>2017-02-18T07:44:30Z</time>
      </trkpt>
      <trkpt lat="42.567942000" lon="-2.470750000">
        <ele>688.60</ele>
        <time>2017-02-18T07:44:31Z</time>
      </trkpt>
      <trkpt lat="42.567957000" lon="-2.470742000">
        <ele>688.60</ele>
        <time>2017-02-18T07:44:32Z</time>
      </trkpt>
      <trkpt lat="42.567975000" lon="-2.470734000">
        <ele>688.70</ele>
        <time>2017-02-18T07:44:33Z</time>
      </trkpt>
      <trkpt lat="42.567992000" lon="-2.470723000">
        <ele>688.80</ele>
        <time>2017-02-18T07:44:34Z</time>
      </trkpt>
      <trkpt lat="42.568017000" lon="-2.470691000">
        <ele>689.10</ele>
        <time>2017-02-18T07:44:36Z</time>
      </trkpt>
      <trkpt lat="42.568029000" lon="-2.470673000">
        <ele>689.20</ele>
        <time>2017-02-18T07:44:37Z</time>
      </trkpt>
      <trkpt lat="42.568040000" lon="-2.470658000">
        <ele>689.50</ele>
        <time>2017-02-18T07:44:38Z</time>
      </trkpt>
      <trkpt lat="42.568059000" lon="-2.470644000">
        <ele>689.60</ele>
        <time>2017-02-18T07:44:39Z</time>
      </trkpt>
      <trkpt lat="42.568073000" lon="-2.470635000">
        <ele>689.90</ele>
        <time>2017-02-18T07:44:40Z</time>
      </trkpt>
      <trkpt lat="42.568093000" lon="-2.470629000">
        <ele>690.00</ele>
        <time>2017-02-18T07:44:41Z</time>
      </trkpt>
      <trkpt lat="42.568110000" lon="-2.470620000">
        <ele>690.20</ele>
        <time>2017-02-18T07:44:42Z</time>
      </trkpt>
      <trkpt lat="42.568129000" lon="-2.470608000">
        <ele>690.30</ele>
        <time>2017-02-18T07:44:43Z</time>
      </trkpt>
      <trkpt lat="42.568144000" lon="-2.470597000">
        <ele>690.60</ele>
        <time>2017-02-18T07:44:44Z</time>
      </trkpt>
      <trkpt lat="42.568159000" lon="-2.470583000">
        <ele>690.90</ele>
        <time>2017-02-18T07:44:45Z</time>
      </trkpt>
      <trkpt lat="42.568174000" lon="-2.470568000">
        <ele>691.20</ele>
        <time>2017-02-18T07:44:46Z</time>
      </trkpt>
      <trkpt lat="42.568190000" lon="-2.470559000">
        <ele>691.40</ele>
        <time>2017-02-18T07:44:47Z</time>
      </trkpt>
      <trkpt lat="42.568206000" lon="-2.470551000">
        <ele>691.60</ele>
        <time>2017-02-18T07:44:48Z</time>
      </trkpt>
      <trkpt lat="42.568220000" lon="-2.470542000">
        <ele>691.70</ele>
        <time>2017-02-18T07:44:49Z</time>
      </trkpt>
      <trkpt lat="42.568231000" lon="-2.470527000">
        <ele>691.80</ele>
        <time>2017-02-18T07:44:50Z</time>
      </trkpt>
      <trkpt lat="42.568240000" lon="-2.470503000">
        <ele>691.90</ele>
        <time>2017-02-18T07:44:51Z</time>
      </trkpt>
      <trkpt lat="42.568252000" lon="-2.470485000">
        <ele>692.20</ele>
        <time>2017-02-18T07:44:52Z</time>
      </trkpt>
      <trkpt lat="42.568263000" lon="-2.470465000">
        <ele>692.40</ele>
        <time>2017-02-18T07:44:53Z</time>
      </trkpt>
      <trkpt lat="42.568273000" lon="-2.470450000">
        <ele>692.50</ele>
        <time>2017-02-18T07:44:54Z</time>
      </trkpt>
      <trkpt lat="42.568282000" lon="-2.470432000">
        <ele>692.60</ele>
        <time>2017-02-18T07:44:55Z</time>
      </trkpt>
      <trkpt lat="42.568294000" lon="-2.470421000">
        <ele>692.70</ele>
        <time>2017-02-18T07:44:56Z</time>
      </trkpt>
      <trkpt lat="42.568308000" lon="-2.470414000">
        <ele>692.80</ele>
        <time>2017-02-18T07:44:57Z</time>
      </trkpt>
      <trkpt lat="42.568324000" lon="-2.470411000">
        <ele>692.80</ele>
        <time>2017-02-18T07:44:58Z</time>
      </trkpt>
      <trkpt lat="42.568345000" lon="-2.470415000">
        <ele>692.80</ele>
        <time>2017-02-18T07:44:59Z</time>
      </trkpt>
      <trkpt lat="42.568366000" lon="-2.470418000">
        <ele>692.90</ele>
        <time>2017-02-18T07:45:00Z</time>
      </trkpt>
      <trkpt lat="42.568380000" lon="-2.470424000">
        <ele>692.90</ele>
        <time>2017-02-18T07:45:01Z</time>
      </trkpt>
      <trkpt lat="42.568388000" lon="-2.470424000">
        <ele>693.30</ele>
        <time>2017-02-18T07:45:02Z</time>
      </trkpt>
      <trkpt lat="42.568394000" lon="-2.470426000">
        <ele>693.60</ele>
        <time>2017-02-18T07:45:03Z</time>
      </trkpt>
      <trkpt lat="42.568398000" lon="-2.470427000">
        <ele>693.90</ele>
        <time>2017-02-18T07:45:04Z</time>
      </trkpt>
      <trkpt lat="42.568403000" lon="-2.470426000">
        <ele>694.10</ele>
        <time>2017-02-18T07:45:05Z</time>
      </trkpt>
      <trkpt lat="42.568410000" lon="-2.470428000">
        <ele>694.30</ele>
        <time>2017-02-18T07:45:06Z</time>
      </trkpt>
      <trkpt lat="42.568417000" lon="-2.470431000">
        <ele>694.50</ele>
        <time>2017-02-18T07:45:07Z</time>
      </trkpt>
      <trkpt lat="42.568425000" lon="-2.470430000">
        <ele>694.70</ele>
        <time>2017-02-18T07:45:08Z</time>
      </trkpt>
      <trkpt lat="42.568437000" lon="-2.470432000">
        <ele>694.80</ele>
        <time>2017-02-18T07:45:09Z</time>
      </trkpt>
      <trkpt lat="42.568450000" lon="-2.470431000">
        <ele>694.80</ele>
        <time>2017-02-18T07:45:10Z</time>
      </trkpt>
      <trkpt lat="42.568460000" lon="-2.470430000">
        <ele>694.90</ele>
        <time>2017-02-18T07:45:11Z</time>
      </trkpt>
      <trkpt lat="42.568471000" lon="-2.470432000">
        <ele>694.90</ele>
        <time>2017-02-18T07:45:12Z</time>
      </trkpt>
      <trkpt lat="42.568486000" lon="-2.470439000">
        <ele>695.00</ele>
        <time>2017-02-18T07:45:13Z</time>
      </trkpt>
      <trkpt lat="42.568499000" lon="-2.470444000">
        <ele>695.30</ele>
        <time>2017-02-18T07:45:14Z</time>
      </trkpt>
      <trkpt lat="42.568510000" lon="-2.470449000">
        <ele>695.50</ele>
        <time>2017-02-18T07:45:15Z</time>
      </trkpt>
      <trkpt lat="42.568526000" lon="-2.470454000">
        <ele>695.80</ele>
        <time>2017-02-18T07:45:16Z</time>
      </trkpt>
      <trkpt lat="42.568540000" lon="-2.470457000">
        <ele>695.90</ele>
        <time>2017-02-18T07:45:17Z</time>
      </trkpt>
      <trkpt lat="42.568549000" lon="-2.470466000">
        <ele>696.10</ele>
        <time>2017-02-18T07:45:18Z</time>
      </trkpt>
      <trkpt lat="42.568563000" lon="-2.470475000">
        <ele>696.30</ele>
        <time>2017-02-18T07:45:19Z</time>
      </trkpt>
      <trkpt lat="42.568578000" lon="-2.470483000">
        <ele>696.60</ele>
        <time>2017-02-18T07:45:20Z</time>
      </trkpt>
      <trkpt lat="42.568592000" lon="-2.470490000">
        <ele>696.90</ele>
        <time>2017-02-18T07:45:21Z</time>
      </trkpt>
      <trkpt lat="42.568605000" lon="-2.470502000">
        <ele>697.10</ele>
        <time>2017-02-18T07:45:22Z</time>
      </trkpt>
      <trkpt lat="42.568616000" lon="-2.470506000">
        <ele>697.20</ele>
        <time>2017-02-18T07:45:23Z</time>
      </trkpt>
      <trkpt lat="42.568634000" lon="-2.470515000">
        <ele>697.50</ele>
        <time>2017-02-18T07:45:24Z</time>
      </trkpt>
      <trkpt lat="42.568647000" lon="-2.470520000">
        <ele>697.70</ele>
        <time>2017-02-18T07:45:25Z</time>
      </trkpt>
      <trkpt lat="42.568657000" lon="-2.470528000">
        <ele>697.90</ele>
        <time>2017-02-18T07:45:26Z</time>
      </trkpt>
      <trkpt lat="42.568670000" lon="-2.470527000">
        <ele>698.00</ele>
        <time>2017-02-18T07:45:27Z</time>
      </trkpt>
      <trkpt lat="42.568682000" lon="-2.470529000">
        <ele>698.20</ele>
        <time>2017-02-18T07:45:28Z</time>
      </trkpt>
      <trkpt lat="42.568694000" lon="-2.470533000">
        <ele>698.30</ele>
        <time>2017-02-18T07:45:29Z</time>
      </trkpt>
      <trkpt lat="42.568708000" lon="-2.470531000">
        <ele>698.50</ele>
        <time>2017-02-18T07:45:30Z</time>
      </trkpt>
      <trkpt lat="42.568724000" lon="-2.470528000">
        <ele>698.70</ele>
        <time>2017-02-18T07:45:31Z</time>
      </trkpt>
      <trkpt lat="42.568740000" lon="-2.470526000">
        <ele>698.80</ele>
        <time>2017-02-18T07:45:32Z</time>
      </trkpt>
      <trkpt lat="42.568757000" lon="-2.470527000">
        <ele>698.90</ele>
        <time>2017-02-18T07:45:33Z</time>
      </trkpt>
      <trkpt lat="42.568775000" lon="-2.470522000">
        <ele>698.90</ele>
        <time>2017-02-18T07:45:34Z</time>
      </trkpt>
      <trkpt lat="42.568790000" lon="-2.470521000">
        <ele>699.00</ele>
        <time>2017-02-18T07:45:35Z</time>
      </trkpt>
      <trkpt lat="42.568820000" lon="-2.470509000">
        <ele>698.90</ele>
        <time>2017-02-18T07:45:37Z</time>
      </trkpt>
      <trkpt lat="42.568836000" lon="-2.470507000">
        <ele>699.00</ele>
        <time>2017-02-18T07:45:38Z</time>
      </trkpt>
      <trkpt lat="42.568846000" lon="-2.470504000">
        <ele>699.00</ele>
        <time>2017-02-18T07:45:39Z</time>
      </trkpt>
      <trkpt lat="42.568857000" lon="-2.470501000">
        <ele>699.10</ele>
        <time>2017-02-18T07:45:40Z</time>
      </trkpt>
      <trkpt lat="42.568874000" lon="-2.470499000">
        <ele>699.10</ele>
        <time>2017-02-18T07:45:41Z</time>
      </trkpt>
      <trkpt lat="42.568888000" lon="-2.470496000">
        <ele>699.20</ele>
        <time>2017-02-18T07:45:42Z</time>
      </trkpt>
      <trkpt lat="42.568904000" lon="-2.470492000">
        <ele>699.20</ele>
        <time>2017-02-18T07:45:43Z</time>
      </trkpt>
      <trkpt lat="42.568918000" lon="-2.470481000">
        <ele>699.20</ele>
        <time>2017-02-18T07:45:44Z</time>
      </trkpt>
      <trkpt lat="42.568934000" lon="-2.470477000">
        <ele>699.30</ele>
        <time>2017-02-18T07:45:45Z</time>
      </trkpt>
      <trkpt lat="42.568952000" lon="-2.470477000">
        <ele>699.30</ele>
        <time>2017-02-18T07:45:46Z</time>
      </trkpt>
      <trkpt lat="42.568968000" lon="-2.470480000">
        <ele>699.30</ele>
        <time>2017-02-18T07:45:47Z</time>
      </trkpt>
      <trkpt lat="42.568989000" lon="-2.470480000">
        <ele>699.30</ele>
        <time>2017-02-18T07:45:48Z</time>
      </trkpt>
      <trkpt lat="42.569011000" lon="-2.470494000">
        <ele>699.40</ele>
        <time>2017-02-18T07:45:49Z</time>
      </trkpt>
      <trkpt lat="42.569018000" lon="-2.470514000">
        <ele>699.60</ele>
        <time>2017-02-18T07:45:50Z</time>
      </trkpt>
      <trkpt lat="42.569031000" lon="-2.470537000">
        <ele>699.70</ele>
        <time>2017-02-18T07:45:51Z</time>
      </trkpt>
      <trkpt lat="42.569039000" lon="-2.470545000">
        <ele>699.80</ele>
        <time>2017-02-18T07:45:52Z</time>
      </trkpt>
      <trkpt lat="42.569051000" lon="-2.470552000">
        <ele>699.90</ele>
        <time>2017-02-18T07:45:53Z</time>
      </trkpt>
      <trkpt lat="42.569069000" lon="-2.470557000">
        <ele>699.80</ele>
        <time>2017-02-18T07:45:54Z</time>
      </trkpt>
      <trkpt lat="42.569087000" lon="-2.470565000">
        <ele>699.70</ele>
        <time>2017-02-18T07:45:55Z</time>
      </trkpt>
      <trkpt lat="42.569107000" lon="-2.470568000">
        <ele>699.70</ele>
        <time>2017-02-18T07:45:56Z</time>
      </trkpt>
      <trkpt lat="42.569121000" lon="-2.470565000">
        <ele>699.70</ele>
        <time>2017-02-18T07:45:57Z</time>
      </trkpt>
      <trkpt lat="42.569134000" lon="-2.470565000">
        <ele>699.80</ele>
        <time>2017-02-18T07:45:58Z</time>
      </trkpt>
      <trkpt lat="42.569152000" lon="-2.470566000">
        <ele>699.80</ele>
        <time>2017-02-18T07:45:59Z</time>
      </trkpt>
      <trkpt lat="42.569170000" lon="-2.470563000">
        <ele>699.90</ele>
        <time>2017-02-18T07:46:00Z</time>
      </trkpt>
      <trkpt lat="42.569188000" lon="-2.470563000">
        <ele>699.90</ele>
        <time>2017-02-18T07:46:01Z</time>
      </trkpt>
      <trkpt lat="42.569210000" lon="-2.470563000">
        <ele>700.10</ele>
        <time>2017-02-18T07:46:02Z</time>
      </trkpt>
      <trkpt lat="42.569228000" lon="-2.470562000">
        <ele>700.20</ele>
        <time>2017-02-18T07:46:03Z</time>
      </trkpt>
      <trkpt lat="42.569245000" lon="-2.470562000">
        <ele>700.30</ele>
        <time>2017-02-18T07:46:04Z</time>
      </trkpt>
      <trkpt lat="42.569265000" lon="-2.470559000">
        <ele>700.30</ele>
        <time>2017-02-18T07:46:05Z</time>
      </trkpt>
      <trkpt lat="42.569284000" lon="-2.470564000">
        <ele>700.50</ele>
        <time>2017-02-18T07:46:06Z</time>
      </trkpt>
      <trkpt lat="42.569304000" lon="-2.470569000">
        <ele>700.60</ele>
        <time>2017-02-18T07:46:07Z</time>
      </trkpt>
      <trkpt lat="42.569326000" lon="-2.470573000">
        <ele>700.50</ele>
        <time>2017-02-18T07:46:08Z</time>
      </trkpt>
      <trkpt lat="42.569344000" lon="-2.470578000">
        <ele>700.50</ele>
        <time>2017-02-18T07:46:09Z</time>
      </trkpt>
      <trkpt lat="42.569361000" lon="-2.470579000">
        <ele>700.40</ele>
        <time>2017-02-18T07:46:10Z</time>
      </trkpt>
      <trkpt lat="42.569384000" lon="-2.470566000">
        <ele>700.30</ele>
        <time>2017-02-18T07:46:11Z</time>
      </trkpt>
      <trkpt lat="42.569408000" lon="-2.470545000">
        <ele>700.30</ele>
        <time>2017-02-18T07:46:12Z</time>
      </trkpt>
      <trkpt lat="42.569431000" lon="-2.470524000">
        <ele>700.30</ele>
        <time>2017-02-18T07:46:13Z</time>
      </trkpt>
      <trkpt lat="42.569451000" lon="-2.470507000">
        <ele>700.30</ele>
        <time>2017-02-18T07:46:14Z</time>
      </trkpt>
      <trkpt lat="42.569474000" lon="-2.470492000">
        <ele>700.30</ele>
        <time>2017-02-18T07:46:15Z</time>
      </trkpt>
      <trkpt lat="42.569502000" lon="-2.470477000">
        <ele>700.40</ele>
        <time>2017-02-18T07:46:16Z</time>
      </trkpt>
      <trkpt lat="42.569527000" lon="-2.470466000">
        <ele>700.40</ele>
        <time>2017-02-18T07:46:17Z</time>
      </trkpt>
      <trkpt lat="42.569554000" lon="-2.470454000">
        <ele>700.50</ele>
        <time>2017-02-18T07:46:18Z</time>
      </trkpt>
      <trkpt lat="42.569584000" lon="-2.470448000">
        <ele>700.50</ele>
        <time>2017-02-18T07:46:19Z</time>
      </trkpt>
      <trkpt lat="42.569620000" lon="-2.470438000">
        <ele>700.60</ele>
        <time>2017-02-18T07:46:20Z</time>
      </trkpt>
      <trkpt lat="42.569662000" lon="-2.470437000">
        <ele>700.60</ele>
        <time>2017-02-18T07:46:21Z</time>
      </trkpt>
      <trkpt lat="42.569712000" lon="-2.470445000">
        <ele>700.60</ele>
        <time>2017-02-18T07:46:22Z</time>
      </trkpt>
      <trkpt lat="42.569768000" lon="-2.470460000">
        <ele>700.60</ele>
        <time>2017-02-18T07:46:23Z</time>
      </trkpt>
      <trkpt lat="42.569831000" lon="-2.470476000">
        <ele>700.10</ele>
        <time>2017-02-18T07:46:24Z</time>
      </trkpt>
      <trkpt lat="42.569901000" lon="-2.470488000">
        <ele>699.80</ele>
        <time>2017-02-18T07:46:25Z</time>
      </trkpt>
      <trkpt lat="42.569975000" lon="-2.470503000">
        <ele>699.20</ele>
        <time>2017-02-18T07:46:26Z</time>
      </trkpt>
      <trkpt lat="42.570045000" lon="-2.470520000">
        <ele>698.70</ele>
        <time>2017-02-18T07:46:27Z</time>
      </trkpt>
      <trkpt lat="42.570125000" lon="-2.470533000">
        <ele>698.30</ele>
        <time>2017-02-18T07:46:28Z</time>
      </trkpt>
      <trkpt lat="42.570209000" lon="-2.470549000">
        <ele>698.00</ele>
        <time>2017-02-18T07:46:29Z</time>
      </trkpt>
      <trkpt lat="42.570289000" lon="-2.470564000">
        <ele>697.80</ele>
        <time>2017-02-18T07:46:30Z</time>
      </trkpt>
      <trkpt lat="42.570372000" lon="-2.470586000">
        <ele>697.60</ele>
        <time>2017-02-18T07:46:31Z</time>
      </trkpt>
      <trkpt lat="42.570454000" lon="-2.470607000">
        <ele>697.10</ele>
        <time>2017-02-18T07:46:32Z</time>
      </trkpt>
      <trkpt lat="42.570534000" lon="-2.470634000">
        <ele>696.70</ele>
        <time>2017-02-18T07:46:33Z</time>
      </trkpt>
      <trkpt lat="42.570615000" lon="-2.470653000">
        <ele>696.30</ele>
        <time>2017-02-18T07:46:34Z</time>
      </trkpt>
      <trkpt lat="42.570693000" lon="-2.470670000">
        <ele>696.00</ele>
        <time>2017-02-18T07:46:35Z</time>
      </trkpt>
      <trkpt lat="42.570765000" lon="-2.470687000">
        <ele>695.70</ele>
        <time>2017-02-18T07:46:36Z</time>
      </trkpt>
      <trkpt lat="42.570897000" lon="-2.470719000">
        <ele>695.30</ele>
        <time>2017-02-18T07:46:38Z</time>
      </trkpt>
      <trkpt lat="42.570958000" lon="-2.470737000">
        <ele>695.10</ele>
        <time>2017-02-18T07:46:39Z</time>
      </trkpt>
      <trkpt lat="42.571013000" lon="-2.470754000">
        <ele>695.00</ele>
        <time>2017-02-18T07:46:40Z</time>
      </trkpt>
      <trkpt lat="42.571065000" lon="-2.470768000">
        <ele>694.80</ele>
        <time>2017-02-18T07:46:41Z</time>
      </trkpt>
      <trkpt lat="42.571110000" lon="-2.470782000">
        <ele>694.70</ele>
        <time>2017-02-18T07:46:42Z</time>
      </trkpt>
      <trkpt lat="42.571154000" lon="-2.470797000">
        <ele>694.70</ele>
        <time>2017-02-18T07:46:43Z</time>
      </trkpt>
      <trkpt lat="42.571194000" lon="-2.470809000">
        <ele>694.60</ele>
        <time>2017-02-18T07:46:44Z</time>
      </trkpt>
      <trkpt lat="42.571239000" lon="-2.470820000">
        <ele>694.60</ele>
        <time>2017-02-18T07:46:45Z</time>
      </trkpt>
      <trkpt lat="42.571283000" lon="-2.470831000">
        <ele>694.60</ele>
        <time>2017-02-18T07:46:46Z</time>
      </trkpt>
      <trkpt lat="42.571326000" lon="-2.470842000">
        <ele>694.60</ele>
        <time>2017-02-18T07:46:47Z</time>
      </trkpt>
      <trkpt lat="42.571367000" lon="-2.470855000">
        <ele>694.60</ele>
        <time>2017-02-18T07:46:48Z</time>
      </trkpt>
      <trkpt lat="42.571413000" lon="-2.470868000">
        <ele>694.70</ele>
        <time>2017-02-18T07:46:49Z</time>
      </trkpt>
      <trkpt lat="42.571463000" lon="-2.470879000">
        <ele>694.50</ele>
        <time>2017-02-18T07:46:50Z</time>
      </trkpt>
      <trkpt lat="42.571510000" lon="-2.470887000">
        <ele>694.30</ele>
        <time>2017-02-18T07:46:51Z</time>
      </trkpt>
      <trkpt lat="42.571554000" lon="-2.470895000">
        <ele>694.20</ele>
        <time>2017-02-18T07:46:52Z</time>
      </trkpt>
      <trkpt lat="42.571596000" lon="-2.470902000">
        <ele>694.10</ele>
        <time>2017-02-18T07:46:53Z</time>
      </trkpt>
      <trkpt lat="42.571637000" lon="-2.470909000">
        <ele>694.30</ele>
        <time>2017-02-18T07:46:54Z</time>
      </trkpt>
      <trkpt lat="42.571676000" lon="-2.470916000">
        <ele>694.40</ele>
        <time>2017-02-18T07:46:55Z</time>
      </trkpt>
      <trkpt lat="42.571712000" lon="-2.470927000">
        <ele>694.70</ele>
        <time>2017-02-18T07:46:56Z</time>
      </trkpt>
      <trkpt lat="42.571744000" lon="-2.470933000">
        <ele>694.80</ele>
        <time>2017-02-18T07:46:57Z</time>
      </trkpt>
      <trkpt lat="42.571779000" lon="-2.470935000">
        <ele>695.10</ele>
        <time>2017-02-18T07:46:58Z</time>
      </trkpt>
      <trkpt lat="42.571815000" lon="-2.470934000">
        <ele>695.40</ele>
        <time>2017-02-18T07:46:59Z</time>
      </trkpt>
      <trkpt lat="42.571853000" lon="-2.470939000">
        <ele>695.60</ele>
        <time>2017-02-18T07:47:00Z</time>
      </trkpt>
      <trkpt lat="42.571889000" lon="-2.470942000">
        <ele>695.80</ele>
        <time>2017-02-18T07:47:01Z</time>
      </trkpt>
      <trkpt lat="42.571926000" lon="-2.470945000">
        <ele>696.00</ele>
        <time>2017-02-18T07:47:02Z</time>
      </trkpt>
      <trkpt lat="42.571957000" lon="-2.470951000">
        <ele>696.20</ele>
        <time>2017-02-18T07:47:03Z</time>
      </trkpt>
      <trkpt lat="42.571990000" lon="-2.470950000">
        <ele>696.40</ele>
        <time>2017-02-18T07:47:04Z</time>
      </trkpt>
      <trkpt lat="42.572028000" lon="-2.470948000">
        <ele>696.60</ele>
        <time>2017-02-18T07:47:05Z</time>
      </trkpt>
      <trkpt lat="42.572063000" lon="-2.470944000">
        <ele>696.70</ele>
        <time>2017-02-18T07:47:06Z</time>
      </trkpt>
      <trkpt lat="42.572097000" lon="-2.470942000">
        <ele>696.70</ele>
        <time>2017-02-18T07:47:07Z</time>
      </trkpt>
      <trkpt lat="42.572133000" lon="-2.470937000">
        <ele>696.70</ele>
        <time>2017-02-18T07:47:08Z</time>
      </trkpt>
      <trkpt lat="42.572170000" lon="-2.470930000">
        <ele>696.80</ele>
        <time>2017-02-18T07:47:09Z</time>
      </trkpt>
      <trkpt lat="42.572207000" lon="-2.470923000">
        <ele>696.80</ele>
        <time>2017-02-18T07:47:10Z</time>
      </trkpt>
      <trkpt lat="42.572243000" lon="-2.470914000">
        <ele>696.80</ele>
        <time>2017-02-18T07:47:11Z</time>
      </trkpt>
      <trkpt lat="42.572278000" lon="-2.470906000">
        <ele>696.90</ele>
        <time>2017-02-18T07:47:12Z</time>
      </trkpt>
      <trkpt lat="42.572312000" lon="-2.470899000">
        <ele>696.90</ele>
        <time>2017-02-18T07:47:13Z</time>
      </trkpt>
      <trkpt lat="42.572344000" lon="-2.470897000">
        <ele>697.00</ele>
        <time>2017-02-18T07:47:14Z</time>
      </trkpt>
      <trkpt lat="42.572377000" lon="-2.470893000">
        <ele>697.00</ele>
        <time>2017-02-18T07:47:15Z</time>
      </trkpt>
      <trkpt lat="42.572411000" lon="-2.470887000">
        <ele>697.10</ele>
        <time>2017-02-18T07:47:16Z</time>
      </trkpt>
      <trkpt lat="42.572443000" lon="-2.470881000">
        <ele>697.10</ele>
        <time>2017-02-18T07:47:17Z</time>
      </trkpt>
      <trkpt lat="42.572476000" lon="-2.470876000">
        <ele>697.30</ele>
        <time>2017-02-18T07:47:18Z</time>
      </trkpt>
      <trkpt lat="42.572509000" lon="-2.470869000">
        <ele>697.40</ele>
        <time>2017-02-18T07:47:19Z</time>
      </trkpt>
      <trkpt lat="42.572541000" lon="-2.470865000">
        <ele>697.50</ele>
        <time>2017-02-18T07:47:20Z</time>
      </trkpt>
      <trkpt lat="42.572575000" lon="-2.470859000">
        <ele>697.60</ele>
        <time>2017-02-18T07:47:21Z</time>
      </trkpt>
      <trkpt lat="42.572606000" lon="-2.470851000">
        <ele>697.60</ele>
        <time>2017-02-18T07:47:22Z</time>
      </trkpt>
      <trkpt lat="42.572637000" lon="-2.470846000">
        <ele>697.70</ele>
        <time>2017-02-18T07:47:23Z</time>
      </trkpt>
      <trkpt lat="42.572667000" lon="-2.470843000">
        <ele>697.70</ele>
        <time>2017-02-18T07:47:24Z</time>
      </trkpt>
      <trkpt lat="42.572698000" lon="-2.470836000">
        <ele>697.70</ele>
        <time>2017-02-18T07:47:25Z</time>
      </trkpt>
      <trkpt lat="42.572727000" lon="-2.470832000">
        <ele>697.80</ele>
        <time>2017-02-18T07:47:26Z</time>
      </trkpt>
      <trkpt lat="42.572753000" lon="-2.470833000">
        <ele>697.90</ele>
        <time>2017-02-18T07:47:27Z</time>
      </trkpt>
      <trkpt lat="42.572780000" lon="-2.470834000">
        <ele>698.00</ele>
        <time>2017-02-18T07:47:28Z</time>
      </trkpt>
      <trkpt lat="42.572809000" lon="-2.470834000">
        <ele>698.10</ele>
        <time>2017-02-18T07:47:29Z</time>
      </trkpt>
      <trkpt lat="42.572838000" lon="-2.470832000">
        <ele>698.10</ele>
        <time>2017-02-18T07:47:30Z</time>
      </trkpt>
      <trkpt lat="42.572874000" lon="-2.470837000">
        <ele>698.20</ele>
        <time>2017-02-18T07:47:31Z</time>
      </trkpt>
      <trkpt lat="42.572911000" lon="-2.470845000">
        <ele>698.20</ele>
        <time>2017-02-18T07:47:32Z</time>
      </trkpt>
      <trkpt lat="42.572949000" lon="-2.470850000">
        <ele>698.20</ele>
        <time>2017-02-18T07:47:33Z</time>
      </trkpt>
      <trkpt lat="42.572986000" lon="-2.470861000">
        <ele>698.10</ele>
        <time>2017-02-18T07:47:34Z</time>
      </trkpt>
      <trkpt lat="42.573024000" lon="-2.470875000">
        <ele>698.00</ele>
        <time>2017-02-18T07:47:35Z</time>
      </trkpt>
      <trkpt lat="42.573063000" lon="-2.470888000">
        <ele>697.90</ele>
        <time>2017-02-18T07:47:36Z</time>
      </trkpt>
      <trkpt lat="42.573101000" lon="-2.470904000">
        <ele>697.80</ele>
        <time>2017-02-18T07:47:37Z</time>
      </trkpt>
      <trkpt lat="42.573181000" lon="-2.470942000">
        <ele>697.60</ele>
        <time>2017-02-18T07:47:39Z</time>
      </trkpt>
      <trkpt lat="42.573223000" lon="-2.470967000">
        <ele>697.30</ele>
        <time>2017-02-18T07:47:40Z</time>
      </trkpt>
      <trkpt lat="42.573268000" lon="-2.470994000">
        <ele>697.00</ele>
        <time>2017-02-18T07:47:41Z</time>
      </trkpt>
      <trkpt lat="42.573312000" lon="-2.471023000">
        <ele>696.70</ele>
        <time>2017-02-18T07:47:42Z</time>
      </trkpt>
      <trkpt lat="42.573360000" lon="-2.471047000">
        <ele>696.50</ele>
        <time>2017-02-18T07:47:43Z</time>
      </trkpt>
      <trkpt lat="42.573409000" lon="-2.471075000">
        <ele>696.30</ele>
        <time>2017-02-18T07:47:44Z</time>
      </trkpt>
      <trkpt lat="42.573459000" lon="-2.471104000">
        <ele>696.10</ele>
        <time>2017-02-18T07:47:45Z</time>
      </trkpt>
      <trkpt lat="42.573512000" lon="-2.471133000">
        <ele>696.00</ele>
        <time>2017-02-18T07:47:46Z</time>
      </trkpt>
      <trkpt lat="42.573564000" lon="-2.471164000">
        <ele>695.90</ele>
        <time>2017-02-18T07:47:47Z</time>
      </trkpt>
      <trkpt lat="42.573613000" lon="-2.471193000">
        <ele>695.70</ele>
        <time>2017-02-18T07:47:48Z</time>
      </trkpt>
      <trkpt lat="42.573663000" lon="-2.471225000">
        <ele>695.50</ele>
        <time>2017-02-18T07:47:49Z</time>
      </trkpt>
      <trkpt lat="42.573715000" lon="-2.471254000">
        <ele>695.30</ele>
        <time>2017-02-18T07:47:50Z</time>
      </trkpt>
      <trkpt lat="42.573763000" lon="-2.471282000">
        <ele>695.10</ele>
        <time>2017-02-18T07:47:51Z</time>
      </trkpt>
      <trkpt lat="42.573816000" lon="-2.471311000">
        <ele>695.00</ele>
        <time>2017-02-18T07:47:52Z</time>
      </trkpt>
      <trkpt lat="42.573866000" lon="-2.471343000">
        <ele>694.90</ele>
        <time>2017-02-18T07:47:53Z</time>
      </trkpt>
      <trkpt lat="42.573918000" lon="-2.471375000">
        <ele>694.80</ele>
        <time>2017-02-18T07:47:54Z</time>
      </trkpt>
      <trkpt lat="42.573968000" lon="-2.471401000">
        <ele>694.70</ele>
        <time>2017-02-18T07:47:55Z</time>
      </trkpt>
      <trkpt lat="42.574015000" lon="-2.471429000">
        <ele>694.70</ele>
        <time>2017-02-18T07:47:56Z</time>
      </trkpt>
      <trkpt lat="42.574059000" lon="-2.471453000">
        <ele>694.60</ele>
        <time>2017-02-18T07:47:57Z</time>
      </trkpt>
      <trkpt lat="42.574103000" lon="-2.471476000">
        <ele>694.60</ele>
        <time>2017-02-18T07:47:58Z</time>
      </trkpt>
      <trkpt lat="42.574148000" lon="-2.471503000">
        <ele>694.60</ele>
        <time>2017-02-18T07:47:59Z</time>
      </trkpt>
      <trkpt lat="42.574193000" lon="-2.471530000">
        <ele>694.40</ele>
        <time>2017-02-18T07:48:00Z</time>
      </trkpt>
      <trkpt lat="42.574236000" lon="-2.471556000">
        <ele>694.30</ele>
        <time>2017-02-18T07:48:01Z</time>
      </trkpt>
      <trkpt lat="42.574282000" lon="-2.471579000">
        <ele>694.30</ele>
        <time>2017-02-18T07:48:02Z</time>
      </trkpt>
      <trkpt lat="42.574323000" lon="-2.471600000">
        <ele>694.20</ele>
        <time>2017-02-18T07:48:03Z</time>
      </trkpt>
      <trkpt lat="42.574369000" lon="-2.471623000">
        <ele>694.20</ele>
        <time>2017-02-18T07:48:04Z</time>
      </trkpt>
      <trkpt lat="42.574412000" lon="-2.471647000">
        <ele>694.20</ele>
        <time>2017-02-18T07:48:05Z</time>
      </trkpt>
      <trkpt lat="42.574457000" lon="-2.471673000">
        <ele>694.20</ele>
        <time>2017-02-18T07:48:06Z</time>
      </trkpt>
      <trkpt lat="42.574502000" lon="-2.471703000">
        <ele>694.20</ele>
        <time>2017-02-18T07:48:07Z</time>
      </trkpt>
      <trkpt lat="42.574547000" lon="-2.471729000">
        <ele>693.90</ele>
        <time>2017-02-18T07:48:08Z</time>
      </trkpt>
      <trkpt lat="42.574588000" lon="-2.471753000">
        <ele>693.70</ele>
        <time>2017-02-18T07:48:09Z</time>
      </trkpt>
      <trkpt lat="42.574633000" lon="-2.471780000">
        <ele>693.40</ele>
        <time>2017-02-18T07:48:10Z</time>
      </trkpt>
      <trkpt lat="42.574677000" lon="-2.471808000">
        <ele>693.20</ele>
        <time>2017-02-18T07:48:11Z</time>
      </trkpt>
      <trkpt lat="42.574722000" lon="-2.471835000">
        <ele>693.00</ele>
        <time>2017-02-18T07:48:12Z</time>
      </trkpt>
      <trkpt lat="42.574769000" lon="-2.471864000">
        <ele>692.80</ele>
        <time>2017-02-18T07:48:13Z</time>
      </trkpt>
      <trkpt lat="42.574816000" lon="-2.471887000">
        <ele>692.70</ele>
        <time>2017-02-18T07:48:14Z</time>
      </trkpt>
      <trkpt lat="42.574862000" lon="-2.471912000">
        <ele>692.70</ele>
        <time>2017-02-18T07:48:15Z</time>
      </trkpt>
      <trkpt lat="42.574904000" lon="-2.471937000">
        <ele>692.80</ele>
        <time>2017-02-18T07:48:16Z</time>
      </trkpt>
      <trkpt lat="42.574946000" lon="-2.471963000">
        <ele>692.80</ele>
        <time>2017-02-18T07:48:17Z</time>
      </trkpt>
      <trkpt lat="42.574988000" lon="-2.471990000">
        <ele>692.80</ele>
        <time>2017-02-18T07:48:18Z</time>
      </trkpt>
      <trkpt lat="42.575025000" lon="-2.472014000">
        <ele>692.80</ele>
        <time>2017-02-18T07:48:19Z</time>
      </trkpt>
      <trkpt lat="42.575064000" lon="-2.472037000">
        <ele>692.80</ele>
        <time>2017-02-18T07:48:20Z</time>
      </trkpt>
      <trkpt lat="42.575105000" lon="-2.472061000">
        <ele>692.80</ele>
        <time>2017-02-18T07:48:21Z</time>
      </trkpt>
      <trkpt lat="42.575142000" lon="-2.472084000">
        <ele>692.80</ele>
        <time>2017-02-18T07:48:22Z</time>
      </trkpt>
      <trkpt lat="42.575181000" lon="-2.472105000">
        <ele>692.80</ele>
        <time>2017-02-18T07:48:23Z</time>
      </trkpt>
      <trkpt lat="42.575219000" lon="-2.472126000">
        <ele>692.80</ele>
        <time>2017-02-18T07:48:24Z</time>
      </trkpt>
      <trkpt lat="42.575256000" lon="-2.472145000">
        <ele>692.80</ele>
        <time>2017-02-18T07:48:25Z</time>
      </trkpt>
      <trkpt lat="42.575293000" lon="-2.472165000">
        <ele>692.90</ele>
        <time>2017-02-18T07:48:26Z</time>
      </trkpt>
      <trkpt lat="42.575333000" lon="-2.472190000">
        <ele>692.90</ele>
        <time>2017-02-18T07:48:27Z</time>
      </trkpt>
      <trkpt lat="42.575371000" lon="-2.472212000">
        <ele>692.90</ele>
        <time>2017-02-18T07:48:28Z</time>
      </trkpt>
      <trkpt lat="42.575409000" lon="-2.472233000">
        <ele>692.90</ele>
        <time>2017-02-18T07:48:29Z</time>
      </trkpt>
      <trkpt lat="42.575447000" lon="-2.472256000">
        <ele>692.90</ele>
        <time>2017-02-18T07:48:30Z</time>
      </trkpt>
      <trkpt lat="42.575483000" lon="-2.472279000">
        <ele>693.00</ele>
        <time>2017-02-18T07:48:31Z</time>
      </trkpt>
      <trkpt lat="42.575521000" lon="-2.472297000">
        <ele>693.00</ele>
        <time>2017-02-18T07:48:32Z</time>
      </trkpt>
      <trkpt lat="42.575557000" lon="-2.472318000">
        <ele>693.00</ele>
        <time>2017-02-18T07:48:33Z</time>
      </trkpt>
      <trkpt lat="42.575590000" lon="-2.472341000">
        <ele>693.10</ele>
        <time>2017-02-18T07:48:34Z</time>
      </trkpt>
      <trkpt lat="42.575626000" lon="-2.472362000">
        <ele>693.10</ele>
        <time>2017-02-18T07:48:35Z</time>
      </trkpt>
      <trkpt lat="42.575666000" lon="-2.472377000">
        <ele>693.10</ele>
        <time>2017-02-18T07:48:36Z</time>
      </trkpt>
      <trkpt lat="42.575708000" lon="-2.472389000">
        <ele>693.10</ele>
        <time>2017-02-18T07:48:37Z</time>
      </trkpt>
      <trkpt lat="42.575747000" lon="-2.472401000">
        <ele>693.10</ele>
        <time>2017-02-18T07:48:38Z</time>
      </trkpt>
      <trkpt lat="42.575837000" lon="-2.472424000">
        <ele>693.10</ele>
        <time>2017-02-18T07:48:40Z</time>
      </trkpt>
      <trkpt lat="42.575889000" lon="-2.472432000">
        <ele>693.20</ele>
        <time>2017-02-18T07:48:41Z</time>
      </trkpt>
      <trkpt lat="42.575943000" lon="-2.472437000">
        <ele>693.20</ele>
        <time>2017-02-18T07:48:42Z</time>
      </trkpt>
      <trkpt lat="42.575998000" lon="-2.472441000">
        <ele>693.10</ele>
        <time>2017-02-18T07:48:43Z</time>
      </trkpt>
      <trkpt lat="42.576056000" lon="-2.472443000">
        <ele>693.00</ele>
        <time>2017-02-18T07:48:44Z</time>
      </trkpt>
      <trkpt lat="42.576118000" lon="-2.472444000">
        <ele>692.90</ele>
        <time>2017-02-18T07:48:45Z</time>
      </trkpt>
      <trkpt lat="42.576182000" lon="-2.472450000">
        <ele>692.60</ele>
        <time>2017-02-18T07:48:46Z</time>
      </trkpt>
      <trkpt lat="42.576248000" lon="-2.472447000">
        <ele>692.50</ele>
        <time>2017-02-18T07:48:47Z</time>
      </trkpt>
      <trkpt lat="42.576314000" lon="-2.472446000">
        <ele>692.10</ele>
        <time>2017-02-18T07:48:48Z</time>
      </trkpt>
      <trkpt lat="42.576383000" lon="-2.472443000">
        <ele>691.80</ele>
        <time>2017-02-18T07:48:49Z</time>
      </trkpt>
      <trkpt lat="42.576452000" lon="-2.472438000">
        <ele>691.30</ele>
        <time>2017-02-18T07:48:50Z</time>
      </trkpt>
      <trkpt lat="42.576523000" lon="-2.472436000">
        <ele>690.90</ele>
        <time>2017-02-18T07:48:51Z</time>
      </trkpt>
      <trkpt lat="42.576596000" lon="-2.472432000">
        <ele>690.60</ele>
        <time>2017-02-18T07:48:52Z</time>
      </trkpt>
      <trkpt lat="42.576668000" lon="-2.472431000">
        <ele>690.40</ele>
        <time>2017-02-18T07:48:53Z</time>
      </trkpt>
      <trkpt lat="42.576739000" lon="-2.472430000">
        <ele>690.00</ele>
        <time>2017-02-18T07:48:54Z</time>
      </trkpt>
      <trkpt lat="42.576805000" lon="-2.472424000">
        <ele>689.80</ele>
        <time>2017-02-18T07:48:55Z</time>
      </trkpt>
      <trkpt lat="42.576871000" lon="-2.472422000">
        <ele>689.40</ele>
        <time>2017-02-18T07:48:56Z</time>
      </trkpt>
      <trkpt lat="42.576931000" lon="-2.472417000">
        <ele>689.10</ele>
        <time>2017-02-18T07:48:57Z</time>
      </trkpt>
      <trkpt lat="42.576979000" lon="-2.472405000">
        <ele>688.80</ele>
        <time>2017-02-18T07:48:58Z</time>
      </trkpt>
      <trkpt lat="42.577014000" lon="-2.472390000">
        <ele>688.50</ele>
        <time>2017-02-18T07:48:59Z</time>
      </trkpt>
      <trkpt lat="42.577038000" lon="-2.472365000">
        <ele>688.20</ele>
        <time>2017-02-18T07:49:00Z</time>
      </trkpt>
      <trkpt lat="42.577064000" lon="-2.472337000">
        <ele>687.90</ele>
        <time>2017-02-18T07:49:01Z</time>
      </trkpt>
      <trkpt lat="42.577086000" lon="-2.472291000">
        <ele>687.70</ele>
        <time>2017-02-18T07:49:02Z</time>
      </trkpt>
      <trkpt lat="42.577098000" lon="-2.472228000">
        <ele>687.50</ele>
        <time>2017-02-18T07:49:03Z</time>
      </trkpt>
      <trkpt lat="42.577109000" lon="-2.472158000">
        <ele>687.20</ele>
        <time>2017-02-18T07:49:04Z</time>
      </trkpt>
      <trkpt lat="42.577118000" lon="-2.472077000">
        <ele>687.00</ele>
        <time>2017-02-18T07:49:05Z</time>
      </trkpt>
      <trkpt lat="42.577127000" lon="-2.471993000">
        <ele>686.70</ele>
        <time>2017-02-18T07:49:06Z</time>
      </trkpt>
      <trkpt lat="42.577135000" lon="-2.471908000">
        <ele>686.50</ele>
        <time>2017-02-18T07:49:07Z</time>
      </trkpt>
      <trkpt lat="42.577145000" lon="-2.471817000">
        <ele>686.30</ele>
        <time>2017-02-18T07:49:08Z</time>
      </trkpt>
      <trkpt lat="42.577157000" lon="-2.471725000">
        <ele>686.10</ele>
        <time>2017-02-18T07:49:09Z</time>
      </trkpt>
      <trkpt lat="42.577169000" lon="-2.471632000">
        <ele>685.60</ele>
        <time>2017-02-18T07:49:10Z</time>
      </trkpt>
      <trkpt lat="42.577179000" lon="-2.471538000">
        <ele>685.10</ele>
        <time>2017-02-18T07:49:11Z</time>
      </trkpt>
      <trkpt lat="42.577187000" lon="-2.471440000">
        <ele>684.80</ele>
        <time>2017-02-18T07:49:12Z</time>
      </trkpt>
      <trkpt lat="42.577199000" lon="-2.471340000">
        <ele>684.50</ele>
        <time>2017-02-18T07:49:13Z</time>
      </trkpt>
      <trkpt lat="42.577207000" lon="-2.471238000">
        <ele>684.10</ele>
        <time>2017-02-18T07:49:14Z</time>
      </trkpt>
      <trkpt lat="42.577215000" lon="-2.471139000">
        <ele>683.80</ele>
        <time>2017-02-18T07:49:15Z</time>
      </trkpt>
      <trkpt lat="42.577222000" lon="-2.471046000">
        <ele>683.30</ele>
        <time>2017-02-18T07:49:16Z</time>
      </trkpt>
      <trkpt lat="42.577229000" lon="-2.470956000">
        <ele>682.90</ele>
        <time>2017-02-18T07:49:17Z</time>
      </trkpt>
      <trkpt lat="42.577238000" lon="-2.470867000">
        <ele>682.60</ele>
        <time>2017-02-18T07:49:18Z</time>
      </trkpt>
      <trkpt lat="42.577244000" lon="-2.470777000">
        <ele>682.40</ele>
        <time>2017-02-18T07:49:19Z</time>
      </trkpt>
      <trkpt lat="42.577252000" lon="-2.470688000">
        <ele>682.20</ele>
        <time>2017-02-18T07:49:20Z</time>
      </trkpt>
      <trkpt lat="42.577259000" lon="-2.470604000">
        <ele>682.10</ele>
        <time>2017-02-18T07:49:21Z</time>
      </trkpt>
      <trkpt lat="42.577266000" lon="-2.470523000">
        <ele>682.20</ele>
        <time>2017-02-18T07:49:22Z</time>
      </trkpt>
      <trkpt lat="42.577276000" lon="-2.470445000">
        <ele>682.20</ele>
        <time>2017-02-18T07:49:23Z</time>
      </trkpt>
      <trkpt lat="42.577292000" lon="-2.470371000">
        <ele>682.20</ele>
        <time>2017-02-18T07:49:24Z</time>
      </trkpt>
      <trkpt lat="42.577307000" lon="-2.470302000">
        <ele>682.20</ele>
        <time>2017-02-18T07:49:25Z</time>
      </trkpt>
      <trkpt lat="42.577329000" lon="-2.470236000">
        <ele>682.20</ele>
        <time>2017-02-18T07:49:26Z</time>
      </trkpt>
      <trkpt lat="42.577352000" lon="-2.470174000">
        <ele>682.20</ele>
        <time>2017-02-18T07:49:27Z</time>
      </trkpt>
      <trkpt lat="42.577376000" lon="-2.470114000">
        <ele>682.20</ele>
        <time>2017-02-18T07:49:28Z</time>
      </trkpt>
      <trkpt lat="42.577400000" lon="-2.470055000">
        <ele>682.30</ele>
        <time>2017-02-18T07:49:29Z</time>
      </trkpt>
      <trkpt lat="42.577425000" lon="-2.469999000">
        <ele>682.30</ele>
        <time>2017-02-18T07:49:30Z</time>
      </trkpt>
      <trkpt lat="42.577453000" lon="-2.469950000">
        <ele>682.40</ele>
        <time>2017-02-18T07:49:31Z</time>
      </trkpt>
      <trkpt lat="42.577480000" lon="-2.469905000">
        <ele>682.50</ele>
        <time>2017-02-18T07:49:32Z</time>
      </trkpt>
      <trkpt lat="42.577511000" lon="-2.469865000">
        <ele>682.60</ele>
        <time>2017-02-18T07:49:33Z</time>
      </trkpt>
      <trkpt lat="42.577549000" lon="-2.469830000">
        <ele>682.70</ele>
        <time>2017-02-18T07:49:34Z</time>
      </trkpt>
      <trkpt lat="42.577595000" lon="-2.469807000">
        <ele>682.80</ele>
        <time>2017-02-18T07:49:35Z</time>
      </trkpt>
      <trkpt lat="42.577644000" lon="-2.469796000">
        <ele>682.50</ele>
        <time>2017-02-18T07:49:36Z</time>
      </trkpt>
      <trkpt lat="42.577697000" lon="-2.469804000">
        <ele>682.30</ele>
        <time>2017-02-18T07:49:37Z</time>
      </trkpt>
      <trkpt lat="42.577753000" lon="-2.469821000">
        <ele>682.10</ele>
        <time>2017-02-18T07:49:38Z</time>
      </trkpt>
      <trkpt lat="42.577810000" lon="-2.469850000">
        <ele>681.90</ele>
        <time>2017-02-18T07:49:39Z</time>
      </trkpt>
      <trkpt lat="42.577933000" lon="-2.469931000">
        <ele>681.40</ele>
        <time>2017-02-18T07:49:41Z</time>
      </trkpt>
      <trkpt lat="42.577998000" lon="-2.469976000">
        <ele>681.00</ele>
        <time>2017-02-18T07:49:42Z</time>
      </trkpt>
      <trkpt lat="42.578069000" lon="-2.470021000">
        <ele>680.70</ele>
        <time>2017-02-18T07:49:43Z</time>
      </trkpt>
      <trkpt lat="42.578147000" lon="-2.470065000">
        <ele>680.20</ele>
        <time>2017-02-18T07:49:44Z</time>
      </trkpt>
      <trkpt lat="42.578231000" lon="-2.470103000">
        <ele>679.80</ele>
        <time>2017-02-18T07:49:45Z</time>
      </trkpt>
      <trkpt lat="42.578319000" lon="-2.470134000">
        <ele>679.30</ele>
        <time>2017-02-18T07:49:46Z</time>
      </trkpt>
      <trkpt lat="42.578410000" lon="-2.470155000">
        <ele>678.80</ele>
        <time>2017-02-18T07:49:47Z</time>
      </trkpt>
      <trkpt lat="42.578505000" lon="-2.470173000">
        <ele>677.60</ele>
        <time>2017-02-18T07:49:48Z</time>
      </trkpt>
      <trkpt lat="42.578605000" lon="-2.470191000">
        <ele>676.70</ele>
        <time>2017-02-18T07:49:49Z</time>
      </trkpt>
      <trkpt lat="42.578710000" lon="-2.470213000">
        <ele>675.90</ele>
        <time>2017-02-18T07:49:50Z</time>
      </trkpt>
      <trkpt lat="42.578817000" lon="-2.470235000">
        <ele>675.20</ele>
        <time>2017-02-18T07:49:51Z</time>
      </trkpt>
      <trkpt lat="42.578928000" lon="-2.470260000">
        <ele>674.40</ele>
        <time>2017-02-18T07:49:52Z</time>
      </trkpt>
      <trkpt lat="42.579043000" lon="-2.470288000">
        <ele>673.80</ele>
        <time>2017-02-18T07:49:53Z</time>
      </trkpt>
      <trkpt lat="42.579158000" lon="-2.470315000">
        <ele>672.30</ele>
        <time>2017-02-18T07:49:54Z</time>
      </trkpt>
      <trkpt lat="42.579273000" lon="-2.470341000">
        <ele>671.10</ele>
        <time>2017-02-18T07:49:55Z</time>
      </trkpt>
      <trkpt lat="42.579396000" lon="-2.470367000">
        <ele>669.90</ele>
        <time>2017-02-18T07:49:56Z</time>
      </trkpt>
      <trkpt lat="42.579520000" lon="-2.470384000">
        <ele>669.10</ele>
        <time>2017-02-18T07:49:57Z</time>
      </trkpt>
      <trkpt lat="42.579645000" lon="-2.470399000">
        <ele>668.10</ele>
        <time>2017-02-18T07:49:58Z</time>
      </trkpt>
      <trkpt lat="42.579768000" lon="-2.470419000">
        <ele>667.30</ele>
        <time>2017-02-18T07:49:59Z</time>
      </trkpt>
      <trkpt lat="42.579892000" lon="-2.470437000">
        <ele>666.20</ele>
        <time>2017-02-18T07:50:00Z</time>
      </trkpt>
      <trkpt lat="42.580015000" lon="-2.470460000">
        <ele>665.30</ele>
        <time>2017-02-18T07:50:01Z</time>
      </trkpt>
      <trkpt lat="42.580137000" lon="-2.470485000">
        <ele>664.50</ele>
        <time>2017-02-18T07:50:02Z</time>
      </trkpt>
      <trkpt lat="42.580256000" lon="-2.470510000">
        <ele>663.80</ele>
        <time>2017-02-18T07:50:03Z</time>
      </trkpt>
      <trkpt lat="42.580371000" lon="-2.470531000">
        <ele>662.70</ele>
        <time>2017-02-18T07:50:04Z</time>
      </trkpt>
      <trkpt lat="42.580481000" lon="-2.470535000">
        <ele>661.90</ele>
        <time>2017-02-18T07:50:05Z</time>
      </trkpt>
      <trkpt lat="42.580574000" lon="-2.470533000">
        <ele>661.30</ele>
        <time>2017-02-18T07:50:06Z</time>
      </trkpt>
      <trkpt lat="42.580658000" lon="-2.470529000">
        <ele>660.80</ele>
        <time>2017-02-18T07:50:07Z</time>
      </trkpt>
      <trkpt lat="42.580728000" lon="-2.470520000">
        <ele>660.90</ele>
        <time>2017-02-18T07:50:08Z</time>
      </trkpt>
      <trkpt lat="42.580786000" lon="-2.470511000">
        <ele>660.90</ele>
        <time>2017-02-18T07:50:09Z</time>
      </trkpt>
      <trkpt lat="42.580839000" lon="-2.470498000">
        <ele>661.30</ele>
        <time>2017-02-18T07:50:10Z</time>
      </trkpt>
      <trkpt lat="42.580885000" lon="-2.470481000">
        <ele>661.50</ele>
        <time>2017-02-18T07:50:11Z</time>
      </trkpt>
      <trkpt lat="42.580927000" lon="-2.470464000">
        <ele>661.80</ele>
        <time>2017-02-18T07:50:12Z</time>
      </trkpt>
      <trkpt lat="42.580960000" lon="-2.470437000">
        <ele>662.00</ele>
        <time>2017-02-18T07:50:13Z</time>
      </trkpt>
      <trkpt lat="42.580990000" lon="-2.470408000">
        <ele>662.50</ele>
        <time>2017-02-18T07:50:14Z</time>
      </trkpt>
      <trkpt lat="42.581015000" lon="-2.470375000">
        <ele>662.90</ele>
        <time>2017-02-18T07:50:15Z</time>
      </trkpt>
      <trkpt lat="42.581038000" lon="-2.470337000">
        <ele>663.60</ele>
        <time>2017-02-18T07:50:16Z</time>
      </trkpt>
      <trkpt lat="42.581057000" lon="-2.470298000">
        <ele>664.10</ele>
        <time>2017-02-18T07:50:17Z</time>
      </trkpt>
      <trkpt lat="42.581070000" lon="-2.470258000">
        <ele>664.70</ele>
        <time>2017-02-18T07:50:18Z</time>
      </trkpt>
      <trkpt lat="42.581078000" lon="-2.470216000">
        <ele>665.10</ele>
        <time>2017-02-18T07:50:19Z</time>
      </trkpt>
      <trkpt lat="42.581079000" lon="-2.470175000">
        <ele>665.60</ele>
        <time>2017-02-18T07:50:20Z</time>
      </trkpt>
      <trkpt lat="42.581076000" lon="-2.470138000">
        <ele>665.90</ele>
        <time>2017-02-18T07:50:21Z</time>
      </trkpt>
      <trkpt lat="42.581074000" lon="-2.470101000">
        <ele>666.40</ele>
        <time>2017-02-18T07:50:22Z</time>
      </trkpt>
      <trkpt lat="42.581069000" lon="-2.470068000">
        <ele>666.80</ele>
        <time>2017-02-18T07:50:23Z</time>
      </trkpt>
      <trkpt lat="42.581062000" lon="-2.470031000">
        <ele>667.10</ele>
        <time>2017-02-18T07:50:24Z</time>
      </trkpt>
      <trkpt lat="42.581059000" lon="-2.469993000">
        <ele>667.30</ele>
        <time>2017-02-18T07:50:25Z</time>
      </trkpt>
      <trkpt lat="42.581055000" lon="-2.469958000">
        <ele>667.50</ele>
        <time>2017-02-18T07:50:26Z</time>
      </trkpt>
      <trkpt lat="42.581050000" lon="-2.469923000">
        <ele>667.70</ele>
        <time>2017-02-18T07:50:27Z</time>
      </trkpt>
      <trkpt lat="42.581045000" lon="-2.469887000">
        <ele>668.10</ele>
        <time>2017-02-18T07:50:28Z</time>
      </trkpt>
      <trkpt lat="42.581038000" lon="-2.469855000">
        <ele>668.50</ele>
        <time>2017-02-18T07:50:29Z</time>
      </trkpt>
      <trkpt lat="42.581031000" lon="-2.469824000">
        <ele>668.90</ele>
        <time>2017-02-18T07:50:30Z</time>
      </trkpt>
      <trkpt lat="42.581024000" lon="-2.469790000">
        <ele>669.20</ele>
        <time>2017-02-18T07:50:31Z</time>
      </trkpt>
      <trkpt lat="42.581017000" lon="-2.469755000">
        <ele>669.50</ele>
        <time>2017-02-18T07:50:32Z</time>
      </trkpt>
      <trkpt lat="42.581009000" lon="-2.469721000">
        <ele>669.70</ele>
        <time>2017-02-18T07:50:33Z</time>
      </trkpt>
      <trkpt lat="42.580999000" lon="-2.469688000">
        <ele>670.10</ele>
        <time>2017-02-18T07:50:34Z</time>
      </trkpt>
      <trkpt lat="42.580993000" lon="-2.469655000">
        <ele>670.40</ele>
        <time>2017-02-18T07:50:35Z</time>
      </trkpt>
      <trkpt lat="42.580987000" lon="-2.469625000">
        <ele>670.70</ele>
        <time>2017-02-18T07:50:36Z</time>
      </trkpt>
      <trkpt lat="42.580979000" lon="-2.469596000">
        <ele>670.90</ele>
        <time>2017-02-18T07:50:37Z</time>
      </trkpt>
      <trkpt lat="42.580971000" lon="-2.469565000">
        <ele>671.30</ele>
        <time>2017-02-18T07:50:38Z</time>
      </trkpt>
      <trkpt lat="42.580965000" lon="-2.469536000">
        <ele>671.60</ele>
        <time>2017-02-18T07:50:39Z</time>
      </trkpt>
      <trkpt lat="42.580961000" lon="-2.469505000">
        <ele>672.00</ele>
        <time>2017-02-18T07:50:40Z</time>
      </trkpt>
      <trkpt lat="42.580949000" lon="-2.469447000">
        <ele>672.50</ele>
        <time>2017-02-18T07:50:42Z</time>
      </trkpt>
      <trkpt lat="42.580942000" lon="-2.469418000">
        <ele>672.70</ele>
        <time>2017-02-18T07:50:43Z</time>
      </trkpt>
      <trkpt lat="42.580937000" lon="-2.469389000">
        <ele>673.00</ele>
        <time>2017-02-18T07:50:44Z</time>
      </trkpt>
      <trkpt lat="42.580932000" lon="-2.469359000">
        <ele>673.20</ele>
        <time>2017-02-18T07:50:45Z</time>
      </trkpt>
      <trkpt lat="42.580924000" lon="-2.469331000">
        <ele>673.50</ele>
        <time>2017-02-18T07:50:46Z</time>
      </trkpt>
      <trkpt lat="42.580920000" lon="-2.469303000">
        <ele>673.70</ele>
        <time>2017-02-18T07:50:47Z</time>
      </trkpt>
      <trkpt lat="42.580920000" lon="-2.469270000">
        <ele>674.20</ele>
        <time>2017-02-18T07:50:48Z</time>
      </trkpt>
      <trkpt lat="42.580920000" lon="-2.469242000">
        <ele>674.60</ele>
        <time>2017-02-18T07:50:49Z</time>
      </trkpt>
      <trkpt lat="42.580917000" lon="-2.469214000">
        <ele>674.90</ele>
        <time>2017-02-18T07:50:50Z</time>
      </trkpt>
      <trkpt lat="42.580911000" lon="-2.469182000">
        <ele>675.10</ele>
        <time>2017-02-18T07:50:51Z</time>
      </trkpt>
      <trkpt lat="42.580911000" lon="-2.469153000">
        <ele>675.60</ele>
        <time>2017-02-18T07:50:52Z</time>
      </trkpt>
      <trkpt lat="42.580912000" lon="-2.469122000">
        <ele>675.90</ele>
        <time>2017-02-18T07:50:53Z</time>
      </trkpt>
      <trkpt lat="42.580921000" lon="-2.469092000">
        <ele>676.30</ele>
        <time>2017-02-18T07:50:54Z</time>
      </trkpt>
      <trkpt lat="42.580931000" lon="-2.469065000">
        <ele>676.50</ele>
        <time>2017-02-18T07:50:55Z</time>
      </trkpt>
      <trkpt lat="42.580945000" lon="-2.469040000">
        <ele>676.80</ele>
        <time>2017-02-18T07:50:56Z</time>
      </trkpt>
      <trkpt lat="42.580954000" lon="-2.469014000">
        <ele>676.90</ele>
        <time>2017-02-18T07:50:57Z</time>
      </trkpt>
      <trkpt lat="42.580963000" lon="-2.468986000">
        <ele>677.20</ele>
        <time>2017-02-18T07:50:58Z</time>
      </trkpt>
      <trkpt lat="42.580975000" lon="-2.468959000">
        <ele>677.40</ele>
        <time>2017-02-18T07:50:59Z</time>
      </trkpt>
      <trkpt lat="42.580991000" lon="-2.468938000">
        <ele>677.60</ele>
        <time>2017-02-18T07:51:00Z</time>
      </trkpt>
      <trkpt lat="42.581003000" lon="-2.468915000">
        <ele>677.80</ele>
        <time>2017-02-18T07:51:01Z</time>
      </trkpt>
      <trkpt lat="42.581020000" lon="-2.468900000">
        <ele>678.10</ele>
        <time>2017-02-18T07:51:02Z</time>
      </trkpt>
      <trkpt lat="42.581037000" lon="-2.468887000">
        <ele>678.30</ele>
        <time>2017-02-18T07:51:03Z</time>
      </trkpt>
      <trkpt lat="42.581051000" lon="-2.468866000">
        <ele>678.50</ele>
        <time>2017-02-18T07:51:04Z</time>
      </trkpt>
      <trkpt lat="42.581068000" lon="-2.468847000">
        <ele>678.60</ele>
        <time>2017-02-18T07:51:05Z</time>
      </trkpt>
      <trkpt lat="42.581083000" lon="-2.468832000">
        <ele>678.90</ele>
        <time>2017-02-18T07:51:06Z</time>
      </trkpt>
      <trkpt lat="42.581100000" lon="-2.468822000">
        <ele>679.10</ele>
        <time>2017-02-18T07:51:07Z</time>
      </trkpt>
      <trkpt lat="42.581114000" lon="-2.468809000">
        <ele>679.40</ele>
        <time>2017-02-18T07:51:08Z</time>
      </trkpt>
      <trkpt lat="42.581132000" lon="-2.468792000">
        <ele>679.60</ele>
        <time>2017-02-18T07:51:09Z</time>
      </trkpt>
      <trkpt lat="42.581145000" lon="-2.468775000">
        <ele>679.80</ele>
        <time>2017-02-18T07:51:10Z</time>
      </trkpt>
      <trkpt lat="42.581157000" lon="-2.468758000">
        <ele>679.90</ele>
        <time>2017-02-18T07:51:11Z</time>
      </trkpt>
      <trkpt lat="42.581170000" lon="-2.468739000">
        <ele>680.20</ele>
        <time>2017-02-18T07:51:12Z</time>
      </trkpt>
      <trkpt lat="42.581183000" lon="-2.468722000">
        <ele>680.30</ele>
        <time>2017-02-18T07:51:13Z</time>
      </trkpt>
      <trkpt lat="42.581197000" lon="-2.468704000">
        <ele>680.50</ele>
        <time>2017-02-18T07:51:14Z</time>
      </trkpt>
      <trkpt lat="42.581209000" lon="-2.468686000">
        <ele>680.60</ele>
        <time>2017-02-18T07:51:15Z</time>
      </trkpt>
      <trkpt lat="42.581225000" lon="-2.468665000">
        <ele>680.70</ele>
        <time>2017-02-18T07:51:16Z</time>
      </trkpt>
      <trkpt lat="42.581239000" lon="-2.468645000">
        <ele>680.80</ele>
        <time>2017-02-18T07:51:17Z</time>
      </trkpt>
      <trkpt lat="42.581249000" lon="-2.468620000">
        <ele>681.10</ele>
        <time>2017-02-18T07:51:18Z</time>
      </trkpt>
      <trkpt lat="42.581263000" lon="-2.468596000">
        <ele>681.30</ele>
        <time>2017-02-18T07:51:19Z</time>
      </trkpt>
      <trkpt lat="42.581276000" lon="-2.468575000">
        <ele>681.40</ele>
        <time>2017-02-18T07:51:20Z</time>
      </trkpt>
      <trkpt lat="42.581286000" lon="-2.468551000">
        <ele>681.50</ele>
        <time>2017-02-18T07:51:21Z</time>
      </trkpt>
      <trkpt lat="42.581294000" lon="-2.468528000">
        <ele>681.70</ele>
        <time>2017-02-18T07:51:22Z</time>
      </trkpt>
      <trkpt lat="42.581303000" lon="-2.468507000">
        <ele>681.80</ele>
        <time>2017-02-18T07:51:23Z</time>
      </trkpt>
      <trkpt lat="42.581310000" lon="-2.468480000">
        <ele>682.00</ele>
        <time>2017-02-18T07:51:24Z</time>
      </trkpt>
      <trkpt lat="42.581317000" lon="-2.468456000">
        <ele>682.10</ele>
        <time>2017-02-18T07:51:25Z</time>
      </trkpt>
      <trkpt lat="42.581323000" lon="-2.468428000">
        <ele>682.30</ele>
        <time>2017-02-18T07:51:26Z</time>
      </trkpt>
      <trkpt lat="42.581333000" lon="-2.468406000">
        <ele>682.40</ele>
        <time>2017-02-18T07:51:27Z</time>
      </trkpt>
      <trkpt lat="42.581339000" lon="-2.468381000">
        <ele>682.40</ele>
        <time>2017-02-18T07:51:28Z</time>
      </trkpt>
      <trkpt lat="42.581347000" lon="-2.468357000">
        <ele>682.50</ele>
        <time>2017-02-18T07:51:29Z</time>
      </trkpt>
      <trkpt lat="42.581353000" lon="-2.468329000">
        <ele>682.50</ele>
        <time>2017-02-18T07:51:30Z</time>
      </trkpt>
      <trkpt lat="42.581357000" lon="-2.468300000">
        <ele>682.50</ele>
        <time>2017-02-18T07:51:31Z</time>
      </trkpt>
      <trkpt lat="42.581361000" lon="-2.468272000">
        <ele>682.80</ele>
        <time>2017-02-18T07:51:32Z</time>
      </trkpt>
      <trkpt lat="42.581367000" lon="-2.468247000">
        <ele>683.00</ele>
        <time>2017-02-18T07:51:33Z</time>
      </trkpt>
      <trkpt lat="42.581372000" lon="-2.468219000">
        <ele>683.30</ele>
        <time>2017-02-18T07:51:34Z</time>
      </trkpt>
      <trkpt lat="42.581375000" lon="-2.468193000">
        <ele>683.40</ele>
        <time>2017-02-18T07:51:35Z</time>
      </trkpt>
      <trkpt lat="42.581380000" lon="-2.468169000">
        <ele>683.60</ele>
        <time>2017-02-18T07:51:36Z</time>
      </trkpt>
      <trkpt lat="42.581385000" lon="-2.468143000">
        <ele>683.70</ele>
        <time>2017-02-18T07:51:37Z</time>
      </trkpt>
      <trkpt lat="42.581389000" lon="-2.468116000">
        <ele>683.70</ele>
        <time>2017-02-18T07:51:38Z</time>
      </trkpt>
      <trkpt lat="42.581390000" lon="-2.468090000">
        <ele>683.80</ele>
        <time>2017-02-18T07:51:39Z</time>
      </trkpt>
      <trkpt lat="42.581392000" lon="-2.468062000">
        <ele>683.90</ele>
        <time>2017-02-18T07:51:40Z</time>
      </trkpt>
      <trkpt lat="42.581395000" lon="-2.468036000">
        <ele>684.00</ele>
        <time>2017-02-18T07:51:41Z</time>
      </trkpt>
      <trkpt lat="42.581401000" lon="-2.467984000">
        <ele>684.30</ele>
        <time>2017-02-18T07:51:43Z</time>
      </trkpt>
      <trkpt lat="42.581405000" lon="-2.467959000">
        <ele>684.40</ele>
        <time>2017-02-18T07:51:44Z</time>
      </trkpt>
      <trkpt lat="42.581406000" lon="-2.467940000">
        <ele>684.40</ele>
        <time>2017-02-18T07:51:45Z</time>
      </trkpt>
      <trkpt lat="42.581410000" lon="-2.467913000">
        <ele>684.70</ele>
        <time>2017-02-18T07:51:46Z</time>
      </trkpt>
      <trkpt lat="42.581413000" lon="-2.467888000">
        <ele>684.80</ele>
        <time>2017-02-18T07:51:47Z</time>
      </trkpt>
      <trkpt lat="42.581416000" lon="-2.467861000">
        <ele>685.00</ele>
        <time>2017-02-18T07:51:48Z</time>
      </trkpt>
      <trkpt lat="42.581419000" lon="-2.467832000">
        <ele>685.10</ele>
        <time>2017-02-18T07:51:49Z</time>
      </trkpt>
      <trkpt lat="42.581423000" lon="-2.467805000">
        <ele>685.30</ele>
        <time>2017-02-18T07:51:50Z</time>
      </trkpt>
      <trkpt lat="42.581429000" lon="-2.467781000">
        <ele>685.40</ele>
        <time>2017-02-18T07:51:51Z</time>
      </trkpt>
      <trkpt lat="42.581432000" lon="-2.467756000">
        <ele>685.60</ele>
        <time>2017-02-18T07:51:52Z</time>
      </trkpt>
      <trkpt lat="42.581435000" lon="-2.467731000">
        <ele>685.60</ele>
        <time>2017-02-18T07:51:53Z</time>
      </trkpt>
      <trkpt lat="42.581440000" lon="-2.467706000">
        <ele>685.70</ele>
        <time>2017-02-18T07:51:54Z</time>
      </trkpt>
      <trkpt lat="42.581445000" lon="-2.467680000">
        <ele>685.70</ele>
        <time>2017-02-18T07:51:55Z</time>
      </trkpt>
      <trkpt lat="42.581448000" lon="-2.467652000">
        <ele>685.90</ele>
        <time>2017-02-18T07:51:56Z</time>
      </trkpt>
      <trkpt lat="42.581454000" lon="-2.467628000">
        <ele>686.00</ele>
        <time>2017-02-18T07:51:57Z</time>
      </trkpt>
      <trkpt lat="42.581460000" lon="-2.467603000">
        <ele>686.10</ele>
        <time>2017-02-18T07:51:58Z</time>
      </trkpt>
      <trkpt lat="42.581460000" lon="-2.467577000">
        <ele>686.20</ele>
        <time>2017-02-18T07:51:59Z</time>
      </trkpt>
      <trkpt lat="42.581464000" lon="-2.467552000">
        <ele>686.40</ele>
        <time>2017-02-18T07:52:00Z</time>
      </trkpt>
      <trkpt lat="42.581469000" lon="-2.467528000">
        <ele>686.50</ele>
        <time>2017-02-18T07:52:01Z</time>
      </trkpt>
      <trkpt lat="42.581476000" lon="-2.467502000">
        <ele>686.60</ele>
        <time>2017-02-18T07:52:02Z</time>
      </trkpt>
      <trkpt lat="42.581483000" lon="-2.467470000">
        <ele>686.70</ele>
        <time>2017-02-18T07:52:03Z</time>
      </trkpt>
      <trkpt lat="42.581491000" lon="-2.467439000">
        <ele>686.80</ele>
        <time>2017-02-18T07:52:04Z</time>
      </trkpt>
      <trkpt lat="42.581496000" lon="-2.467411000">
        <ele>686.80</ele>
        <time>2017-02-18T07:52:05Z</time>
      </trkpt>
      <trkpt lat="42.581503000" lon="-2.467384000">
        <ele>686.80</ele>
        <time>2017-02-18T07:52:06Z</time>
      </trkpt>
      <trkpt lat="42.581512000" lon="-2.467356000">
        <ele>686.90</ele>
        <time>2017-02-18T07:52:07Z</time>
      </trkpt>
      <trkpt lat="42.581518000" lon="-2.467327000">
        <ele>687.20</ele>
        <time>2017-02-18T07:52:08Z</time>
      </trkpt>
      <trkpt lat="42.581525000" lon="-2.467297000">
        <ele>687.40</ele>
        <time>2017-02-18T07:52:09Z</time>
      </trkpt>
      <trkpt lat="42.581533000" lon="-2.467267000">
        <ele>687.50</ele>
        <time>2017-02-18T07:52:10Z</time>
      </trkpt>
      <trkpt lat="42.581540000" lon="-2.467238000">
        <ele>687.60</ele>
        <time>2017-02-18T07:52:11Z</time>
      </trkpt>
      <trkpt lat="42.581547000" lon="-2.467208000">
        <ele>687.80</ele>
        <time>2017-02-18T07:52:12Z</time>
      </trkpt>
      <trkpt lat="42.581554000" lon="-2.467179000">
        <ele>687.90</ele>
        <time>2017-02-18T07:52:13Z</time>
      </trkpt>
      <trkpt lat="42.581563000" lon="-2.467149000">
        <ele>688.10</ele>
        <time>2017-02-18T07:52:14Z</time>
      </trkpt>
      <trkpt lat="42.581574000" lon="-2.467125000">
        <ele>688.20</ele>
        <time>2017-02-18T07:52:15Z</time>
      </trkpt>
      <trkpt lat="42.581587000" lon="-2.467099000">
        <ele>688.30</ele>
        <time>2017-02-18T07:52:16Z</time>
      </trkpt>
      <trkpt lat="42.581598000" lon="-2.467071000">
        <ele>688.30</ele>
        <time>2017-02-18T07:52:17Z</time>
      </trkpt>
      <trkpt lat="42.581607000" lon="-2.467044000">
        <ele>688.60</ele>
        <time>2017-02-18T07:52:18Z</time>
      </trkpt>
      <trkpt lat="42.581616000" lon="-2.467018000">
        <ele>688.80</ele>
        <time>2017-02-18T07:52:19Z</time>
      </trkpt>
      <trkpt lat="42.581625000" lon="-2.466992000">
        <ele>688.90</ele>
        <time>2017-02-18T07:52:20Z</time>
      </trkpt>
      <trkpt lat="42.581637000" lon="-2.466967000">
        <ele>689.00</ele>
        <time>2017-02-18T07:52:21Z</time>
      </trkpt>
      <trkpt lat="42.581646000" lon="-2.466941000">
        <ele>689.10</ele>
        <time>2017-02-18T07:52:22Z</time>
      </trkpt>
      <trkpt lat="42.581654000" lon="-2.466913000">
        <ele>689.20</ele>
        <time>2017-02-18T07:52:23Z</time>
      </trkpt>
      <trkpt lat="42.581665000" lon="-2.466887000">
        <ele>689.20</ele>
        <time>2017-02-18T07:52:24Z</time>
      </trkpt>
      <trkpt lat="42.581681000" lon="-2.466862000">
        <ele>689.20</ele>
        <time>2017-02-18T07:52:25Z</time>
      </trkpt>
      <trkpt lat="42.581696000" lon="-2.466841000">
        <ele>689.30</ele>
        <time>2017-02-18T07:52:26Z</time>
      </trkpt>
      <trkpt lat="42.581711000" lon="-2.466817000">
        <ele>689.30</ele>
        <time>2017-02-18T07:52:27Z</time>
      </trkpt>
      <trkpt lat="42.581726000" lon="-2.466794000">
        <ele>689.40</ele>
        <time>2017-02-18T07:52:28Z</time>
      </trkpt>
      <trkpt lat="42.581745000" lon="-2.466779000">
        <ele>689.50</ele>
        <time>2017-02-18T07:52:29Z</time>
      </trkpt>
      <trkpt lat="42.581766000" lon="-2.466765000">
        <ele>689.60</ele>
        <time>2017-02-18T07:52:30Z</time>
      </trkpt>
      <trkpt lat="42.581790000" lon="-2.466752000">
        <ele>689.70</ele>
        <time>2017-02-18T07:52:31Z</time>
      </trkpt>
      <trkpt lat="42.581810000" lon="-2.466736000">
        <ele>689.90</ele>
        <time>2017-02-18T07:52:32Z</time>
      </trkpt>
      <trkpt lat="42.581829000" lon="-2.466724000">
        <ele>690.10</ele>
        <time>2017-02-18T07:52:33Z</time>
      </trkpt>
      <trkpt lat="42.581847000" lon="-2.466710000">
        <ele>690.50</ele>
        <time>2017-02-18T07:52:34Z</time>
      </trkpt>
      <trkpt lat="42.581867000" lon="-2.466696000">
        <ele>690.80</ele>
        <time>2017-02-18T07:52:35Z</time>
      </trkpt>
      <trkpt lat="42.581886000" lon="-2.466685000">
        <ele>691.00</ele>
        <time>2017-02-18T07:52:36Z</time>
      </trkpt>
      <trkpt lat="42.581903000" lon="-2.466673000">
        <ele>691.10</ele>
        <time>2017-02-18T07:52:37Z</time>
      </trkpt>
      <trkpt lat="42.581921000" lon="-2.466659000">
        <ele>691.50</ele>
        <time>2017-02-18T07:52:38Z</time>
      </trkpt>
      <trkpt lat="42.581935000" lon="-2.466644000">
        <ele>691.70</ele>
        <time>2017-02-18T07:52:39Z</time>
      </trkpt>
      <trkpt lat="42.581949000" lon="-2.466637000">
        <ele>692.10</ele>
        <time>2017-02-18T07:52:40Z</time>
      </trkpt>
      <trkpt lat="42.581964000" lon="-2.466625000">
        <ele>692.40</ele>
        <time>2017-02-18T07:52:41Z</time>
      </trkpt>
      <trkpt lat="42.581981000" lon="-2.466614000">
        <ele>692.60</ele>
        <time>2017-02-18T07:52:42Z</time>
      </trkpt>
      <trkpt lat="42.582019000" lon="-2.466589000">
        <ele>693.20</ele>
        <time>2017-02-18T07:52:44Z</time>
      </trkpt>
      <trkpt lat="42.582036000" lon="-2.466575000">
        <ele>693.50</ele>
        <time>2017-02-18T07:52:45Z</time>
      </trkpt>
      <trkpt lat="42.582055000" lon="-2.466561000">
        <ele>693.80</ele>
        <time>2017-02-18T07:52:46Z</time>
      </trkpt>
      <trkpt lat="42.582073000" lon="-2.466547000">
        <ele>694.00</ele>
        <time>2017-02-18T07:52:47Z</time>
      </trkpt>
      <trkpt lat="42.582092000" lon="-2.466534000">
        <ele>694.20</ele>
        <time>2017-02-18T07:52:48Z</time>
      </trkpt>
      <trkpt lat="42.582109000" lon="-2.466521000">
        <ele>694.30</ele>
        <time>2017-02-18T07:52:49Z</time>
      </trkpt>
      <trkpt lat="42.582126000" lon="-2.466511000">
        <ele>694.60</ele>
        <time>2017-02-18T07:52:50Z</time>
      </trkpt>
      <trkpt lat="42.582144000" lon="-2.466497000">
        <ele>694.70</ele>
        <time>2017-02-18T07:52:51Z</time>
      </trkpt>
      <trkpt lat="42.582159000" lon="-2.466477000">
        <ele>694.90</ele>
        <time>2017-02-18T07:52:52Z</time>
      </trkpt>
      <trkpt lat="42.582173000" lon="-2.466465000">
        <ele>695.00</ele>
        <time>2017-02-18T07:52:53Z</time>
      </trkpt>
      <trkpt lat="42.582188000" lon="-2.466449000">
        <ele>695.20</ele>
        <time>2017-02-18T07:52:54Z</time>
      </trkpt>
      <trkpt lat="42.582201000" lon="-2.466432000">
        <ele>695.30</ele>
        <time>2017-02-18T07:52:55Z</time>
      </trkpt>
      <trkpt lat="42.582215000" lon="-2.466413000">
        <ele>695.60</ele>
        <time>2017-02-18T07:52:56Z</time>
      </trkpt>
      <trkpt lat="42.582231000" lon="-2.466395000">
        <ele>695.70</ele>
        <time>2017-02-18T07:52:57Z</time>
      </trkpt>
      <trkpt lat="42.582248000" lon="-2.466380000">
        <ele>695.90</ele>
        <time>2017-02-18T07:52:58Z</time>
      </trkpt>
      <trkpt lat="42.582267000" lon="-2.466363000">
        <ele>696.10</ele>
        <time>2017-02-18T07:52:59Z</time>
      </trkpt>
      <trkpt lat="42.582286000" lon="-2.466345000">
        <ele>696.30</ele>
        <time>2017-02-18T07:53:00Z</time>
      </trkpt>
      <trkpt lat="42.582305000" lon="-2.466324000">
        <ele>696.40</ele>
        <time>2017-02-18T07:53:01Z</time>
      </trkpt>
      <trkpt lat="42.582321000" lon="-2.466303000">
        <ele>696.50</ele>
        <time>2017-02-18T07:53:02Z</time>
      </trkpt>
      <trkpt lat="42.582342000" lon="-2.466286000">
        <ele>696.60</ele>
        <time>2017-02-18T07:53:03Z</time>
      </trkpt>
      <trkpt lat="42.582364000" lon="-2.466263000">
        <ele>696.70</ele>
        <time>2017-02-18T07:53:04Z</time>
      </trkpt>
      <trkpt lat="42.582381000" lon="-2.466243000">
        <ele>696.70</ele>
        <time>2017-02-18T07:53:05Z</time>
      </trkpt>
      <trkpt lat="42.582403000" lon="-2.466226000">
        <ele>696.70</ele>
        <time>2017-02-18T07:53:06Z</time>
      </trkpt>
      <trkpt lat="42.582418000" lon="-2.466208000">
        <ele>696.80</ele>
        <time>2017-02-18T07:53:07Z</time>
      </trkpt>
      <trkpt lat="42.582437000" lon="-2.466190000">
        <ele>697.00</ele>
        <time>2017-02-18T07:53:08Z</time>
      </trkpt>
      <trkpt lat="42.582455000" lon="-2.466170000">
        <ele>697.10</ele>
        <time>2017-02-18T07:53:09Z</time>
      </trkpt>
      <trkpt lat="42.582475000" lon="-2.466159000">
        <ele>697.30</ele>
        <time>2017-02-18T07:53:10Z</time>
      </trkpt>
      <trkpt lat="42.582497000" lon="-2.466144000">
        <ele>697.50</ele>
        <time>2017-02-18T07:53:11Z</time>
      </trkpt>
      <trkpt lat="42.582518000" lon="-2.466130000">
        <ele>697.60</ele>
        <time>2017-02-18T07:53:12Z</time>
      </trkpt>
      <trkpt lat="42.582540000" lon="-2.466118000">
        <ele>697.70</ele>
        <time>2017-02-18T07:53:13Z</time>
      </trkpt>
      <trkpt lat="42.582559000" lon="-2.466102000">
        <ele>697.70</ele>
        <time>2017-02-18T07:53:14Z</time>
      </trkpt>
      <trkpt lat="42.582579000" lon="-2.466088000">
        <ele>697.80</ele>
        <time>2017-02-18T07:53:15Z</time>
      </trkpt>
      <trkpt lat="42.582595000" lon="-2.466076000">
        <ele>697.80</ele>
        <time>2017-02-18T07:53:16Z</time>
      </trkpt>
      <trkpt lat="42.582617000" lon="-2.466066000">
        <ele>697.90</ele>
        <time>2017-02-18T07:53:17Z</time>
      </trkpt>
      <trkpt lat="42.582636000" lon="-2.466053000">
        <ele>698.10</ele>
        <time>2017-02-18T07:53:18Z</time>
      </trkpt>
      <trkpt lat="42.582657000" lon="-2.466038000">
        <ele>698.30</ele>
        <time>2017-02-18T07:53:19Z</time>
      </trkpt>
      <trkpt lat="42.582678000" lon="-2.466024000">
        <ele>698.50</ele>
        <time>2017-02-18T07:53:20Z</time>
      </trkpt>
      <trkpt lat="42.582697000" lon="-2.466013000">
        <ele>698.60</ele>
        <time>2017-02-18T07:53:21Z</time>
      </trkpt>
      <trkpt lat="42.582718000" lon="-2.465998000">
        <ele>698.70</ele>
        <time>2017-02-18T07:53:22Z</time>
      </trkpt>
      <trkpt lat="42.582735000" lon="-2.465988000">
        <ele>698.80</ele>
        <time>2017-02-18T07:53:23Z</time>
      </trkpt>
      <trkpt lat="42.582756000" lon="-2.465978000">
        <ele>699.00</ele>
        <time>2017-02-18T07:53:24Z</time>
      </trkpt>
      <trkpt lat="42.582780000" lon="-2.465967000">
        <ele>699.10</ele>
        <time>2017-02-18T07:53:25Z</time>
      </trkpt>
      <trkpt lat="42.582802000" lon="-2.465952000">
        <ele>699.40</ele>
        <time>2017-02-18T07:53:26Z</time>
      </trkpt>
      <trkpt lat="42.582823000" lon="-2.465939000">
        <ele>699.70</ele>
        <time>2017-02-18T07:53:27Z</time>
      </trkpt>
      <trkpt lat="42.582840000" lon="-2.465926000">
        <ele>699.80</ele>
        <time>2017-02-18T07:53:28Z</time>
      </trkpt>
      <trkpt lat="42.582857000" lon="-2.465919000">
        <ele>700.00</ele>
        <time>2017-02-18T07:53:29Z</time>
      </trkpt>
      <trkpt lat="42.582875000" lon="-2.465910000">
        <ele>700.10</ele>
        <time>2017-02-18T07:53:30Z</time>
      </trkpt>
      <trkpt lat="42.582894000" lon="-2.465901000">
        <ele>700.10</ele>
        <time>2017-02-18T07:53:31Z</time>
      </trkpt>
      <trkpt lat="42.582913000" lon="-2.465890000">
        <ele>700.30</ele>
        <time>2017-02-18T07:53:32Z</time>
      </trkpt>
      <trkpt lat="42.582929000" lon="-2.465881000">
        <ele>700.40</ele>
        <time>2017-02-18T07:53:33Z</time>
      </trkpt>
      <trkpt lat="42.582946000" lon="-2.465875000">
        <ele>700.60</ele>
        <time>2017-02-18T07:53:34Z</time>
      </trkpt>
      <trkpt lat="42.582960000" lon="-2.465864000">
        <ele>700.80</ele>
        <time>2017-02-18T07:53:35Z</time>
      </trkpt>
      <trkpt lat="42.582978000" lon="-2.465853000">
        <ele>701.00</ele>
        <time>2017-02-18T07:53:36Z</time>
      </trkpt>
      <trkpt lat="42.582997000" lon="-2.465841000">
        <ele>701.20</ele>
        <time>2017-02-18T07:53:37Z</time>
      </trkpt>
      <trkpt lat="42.583014000" lon="-2.465829000">
        <ele>701.50</ele>
        <time>2017-02-18T07:53:38Z</time>
      </trkpt>
      <trkpt lat="42.583030000" lon="-2.465817000">
        <ele>701.80</ele>
        <time>2017-02-18T07:53:39Z</time>
      </trkpt>
      <trkpt lat="42.583046000" lon="-2.465807000">
        <ele>702.10</ele>
        <time>2017-02-18T07:53:40Z</time>
      </trkpt>
      <trkpt lat="42.583066000" lon="-2.465800000">
        <ele>702.40</ele>
        <time>2017-02-18T07:53:41Z</time>
      </trkpt>
      <trkpt lat="42.583082000" lon="-2.465790000">
        <ele>702.70</ele>
        <time>2017-02-18T07:53:42Z</time>
      </trkpt>
      <trkpt lat="42.583099000" lon="-2.465779000">
        <ele>702.90</ele>
        <time>2017-02-18T07:53:43Z</time>
      </trkpt>
      <trkpt lat="42.583134000" lon="-2.465766000">
        <ele>703.70</ele>
        <time>2017-02-18T07:53:45Z</time>
      </trkpt>
      <trkpt lat="42.583148000" lon="-2.465761000">
        <ele>703.90</ele>
        <time>2017-02-18T07:53:46Z</time>
      </trkpt>
      <trkpt lat="42.583167000" lon="-2.465756000">
        <ele>704.10</ele>
        <time>2017-02-18T07:53:47Z</time>
      </trkpt>
      <trkpt lat="42.583186000" lon="-2.465748000">
        <ele>704.30</ele>
        <time>2017-02-18T07:53:48Z</time>
      </trkpt>
      <trkpt lat="42.583204000" lon="-2.465738000">
        <ele>704.50</ele>
        <time>2017-02-18T07:53:49Z</time>
      </trkpt>
      <trkpt lat="42.583222000" lon="-2.465732000">
        <ele>704.70</ele>
        <time>2017-02-18T07:53:50Z</time>
      </trkpt>
      <trkpt lat="42.583241000" lon="-2.465727000">
        <ele>704.80</ele>
        <time>2017-02-18T07:53:51Z</time>
      </trkpt>
      <trkpt lat="42.583257000" lon="-2.465721000">
        <ele>705.10</ele>
        <time>2017-02-18T07:53:52Z</time>
      </trkpt>
      <trkpt lat="42.583276000" lon="-2.465716000">
        <ele>705.30</ele>
        <time>2017-02-18T07:53:53Z</time>
      </trkpt>
      <trkpt lat="42.583291000" lon="-2.465713000">
        <ele>705.70</ele>
        <time>2017-02-18T07:53:54Z</time>
      </trkpt>
      <trkpt lat="42.583309000" lon="-2.465714000">
        <ele>706.00</ele>
        <time>2017-02-18T07:53:55Z</time>
      </trkpt>
      <trkpt lat="42.583326000" lon="-2.465708000">
        <ele>706.30</ele>
        <time>2017-02-18T07:53:56Z</time>
      </trkpt>
      <trkpt lat="42.583340000" lon="-2.465703000">
        <ele>706.60</ele>
        <time>2017-02-18T07:53:57Z</time>
      </trkpt>
      <trkpt lat="42.583350000" lon="-2.465697000">
        <ele>707.10</ele>
        <time>2017-02-18T07:53:58Z</time>
      </trkpt>
      <trkpt lat="42.583368000" lon="-2.465691000">
        <ele>707.40</ele>
        <time>2017-02-18T07:53:59Z</time>
      </trkpt>
      <trkpt lat="42.583383000" lon="-2.465687000">
        <ele>707.90</ele>
        <time>2017-02-18T07:54:00Z</time>
      </trkpt>
      <trkpt lat="42.583402000" lon="-2.465687000">
        <ele>708.30</ele>
        <time>2017-02-18T07:54:01Z</time>
      </trkpt>
      <trkpt lat="42.583420000" lon="-2.465686000">
        <ele>708.60</ele>
        <time>2017-02-18T07:54:02Z</time>
      </trkpt>
      <trkpt lat="42.583439000" lon="-2.465681000">
        <ele>708.80</ele>
        <time>2017-02-18T07:54:03Z</time>
      </trkpt>
      <trkpt lat="42.583457000" lon="-2.465673000">
        <ele>708.90</ele>
        <time>2017-02-18T07:54:04Z</time>
      </trkpt>
      <trkpt lat="42.583474000" lon="-2.465669000">
        <ele>709.00</ele>
        <time>2017-02-18T07:54:05Z</time>
      </trkpt>
      <trkpt lat="42.583490000" lon="-2.465663000">
        <ele>709.20</ele>
        <time>2017-02-18T07:54:06Z</time>
      </trkpt>
      <trkpt lat="42.583507000" lon="-2.465655000">
        <ele>709.30</ele>
        <time>2017-02-18T07:54:07Z</time>
      </trkpt>
      <trkpt lat="42.583525000" lon="-2.465649000">
        <ele>709.80</ele>
        <time>2017-02-18T07:54:08Z</time>
      </trkpt>
      <trkpt lat="42.583544000" lon="-2.465643000">
        <ele>710.20</ele>
        <time>2017-02-18T07:54:09Z</time>
      </trkpt>
      <trkpt lat="42.583562000" lon="-2.465644000">
        <ele>710.50</ele>
        <time>2017-02-18T07:54:10Z</time>
      </trkpt>
      <trkpt lat="42.583578000" lon="-2.465642000">
        <ele>710.80</ele>
        <time>2017-02-18T07:54:11Z</time>
      </trkpt>
      <trkpt lat="42.583590000" lon="-2.465639000">
        <ele>711.00</ele>
        <time>2017-02-18T07:54:12Z</time>
      </trkpt>
      <trkpt lat="42.583605000" lon="-2.465635000">
        <ele>711.10</ele>
        <time>2017-02-18T07:54:13Z</time>
      </trkpt>
      <trkpt lat="42.583619000" lon="-2.465631000">
        <ele>711.50</ele>
        <time>2017-02-18T07:54:14Z</time>
      </trkpt>
      <trkpt lat="42.583633000" lon="-2.465629000">
        <ele>711.70</ele>
        <time>2017-02-18T07:54:15Z</time>
      </trkpt>
      <trkpt lat="42.583648000" lon="-2.465628000">
        <ele>712.00</ele>
        <time>2017-02-18T07:54:16Z</time>
      </trkpt>
      <trkpt lat="42.583663000" lon="-2.465630000">
        <ele>712.20</ele>
        <time>2017-02-18T07:54:17Z</time>
      </trkpt>
      <trkpt lat="42.583681000" lon="-2.465631000">
        <ele>712.60</ele>
        <time>2017-02-18T07:54:18Z</time>
      </trkpt>
      <trkpt lat="42.583698000" lon="-2.465632000">
        <ele>712.90</ele>
        <time>2017-02-18T07:54:19Z</time>
      </trkpt>
      <trkpt lat="42.583713000" lon="-2.465632000">
        <ele>713.10</ele>
        <time>2017-02-18T07:54:20Z</time>
      </trkpt>
      <trkpt lat="42.583729000" lon="-2.465639000">
        <ele>713.40</ele>
        <time>2017-02-18T07:54:21Z</time>
      </trkpt>
      <trkpt lat="42.583744000" lon="-2.465649000">
        <ele>713.60</ele>
        <time>2017-02-18T07:54:22Z</time>
      </trkpt>
      <trkpt lat="42.583760000" lon="-2.465660000">
        <ele>713.90</ele>
        <time>2017-02-18T07:54:23Z</time>
      </trkpt>
      <trkpt lat="42.583775000" lon="-2.465665000">
        <ele>714.40</ele>
        <time>2017-02-18T07:54:24Z</time>
      </trkpt>
      <trkpt lat="42.583794000" lon="-2.465666000">
        <ele>714.80</ele>
        <time>2017-02-18T07:54:25Z</time>
      </trkpt>
      <trkpt lat="42.583812000" lon="-2.465668000">
        <ele>715.00</ele>
        <time>2017-02-18T07:54:26Z</time>
      </trkpt>
      <trkpt lat="42.583828000" lon="-2.465670000">
        <ele>715.30</ele>
        <time>2017-02-18T07:54:27Z</time>
      </trkpt>
      <trkpt lat="42.583844000" lon="-2.465668000">
        <ele>715.40</ele>
        <time>2017-02-18T07:54:28Z</time>
      </trkpt>
      <trkpt lat="42.583862000" lon="-2.465672000">
        <ele>715.60</ele>
        <time>2017-02-18T07:54:29Z</time>
      </trkpt>
      <trkpt lat="42.583875000" lon="-2.465669000">
        <ele>715.80</ele>
        <time>2017-02-18T07:54:30Z</time>
      </trkpt>
      <trkpt lat="42.583890000" lon="-2.465666000">
        <ele>715.90</ele>
        <time>2017-02-18T07:54:31Z</time>
      </trkpt>
      <trkpt lat="42.583904000" lon="-2.465662000">
        <ele>716.10</ele>
        <time>2017-02-18T07:54:32Z</time>
      </trkpt>
      <trkpt lat="42.583919000" lon="-2.465658000">
        <ele>716.20</ele>
        <time>2017-02-18T07:54:33Z</time>
      </trkpt>
      <trkpt lat="42.583937000" lon="-2.465652000">
        <ele>716.20</ele>
        <time>2017-02-18T07:54:34Z</time>
      </trkpt>
      <trkpt lat="42.583951000" lon="-2.465647000">
        <ele>716.30</ele>
        <time>2017-02-18T07:54:35Z</time>
      </trkpt>
      <trkpt lat="42.583968000" lon="-2.465642000">
        <ele>716.60</ele>
        <time>2017-02-18T07:54:36Z</time>
      </trkpt>
      <trkpt lat="42.583983000" lon="-2.465641000">
        <ele>716.70</ele>
        <time>2017-02-18T07:54:37Z</time>
      </trkpt>
      <trkpt lat="42.583999000" lon="-2.465640000">
        <ele>716.90</ele>
        <time>2017-02-18T07:54:38Z</time>
      </trkpt>
      <trkpt lat="42.584016000" lon="-2.465636000">
        <ele>717.00</ele>
        <time>2017-02-18T07:54:39Z</time>
      </trkpt>
      <trkpt lat="42.584029000" lon="-2.465632000">
        <ele>717.10</ele>
        <time>2017-02-18T07:54:40Z</time>
      </trkpt>
      <trkpt lat="42.584044000" lon="-2.465625000">
        <ele>717.10</ele>
        <time>2017-02-18T07:54:41Z</time>
      </trkpt>
      <trkpt lat="42.584061000" lon="-2.465618000">
        <ele>717.40</ele>
        <time>2017-02-18T07:54:42Z</time>
      </trkpt>
      <trkpt lat="42.584077000" lon="-2.465612000">
        <ele>717.60</ele>
        <time>2017-02-18T07:54:43Z</time>
      </trkpt>
      <trkpt lat="42.584093000" lon="-2.465604000">
        <ele>717.80</ele>
        <time>2017-02-18T07:54:44Z</time>
      </trkpt>
      <trkpt lat="42.584127000" lon="-2.465598000">
        <ele>718.10</ele>
        <time>2017-02-18T07:54:46Z</time>
      </trkpt>
      <trkpt lat="42.584146000" lon="-2.465595000">
        <ele>718.10</ele>
        <time>2017-02-18T07:54:47Z</time>
      </trkpt>
      <trkpt lat="42.584160000" lon="-2.465591000">
        <ele>718.30</ele>
        <time>2017-02-18T07:54:48Z</time>
      </trkpt>
      <trkpt lat="42.584178000" lon="-2.465581000">
        <ele>718.40</ele>
        <time>2017-02-18T07:54:49Z</time>
      </trkpt>
      <trkpt lat="42.584190000" lon="-2.465574000">
        <ele>718.60</ele>
        <time>2017-02-18T07:54:50Z</time>
      </trkpt>
      <trkpt lat="42.584203000" lon="-2.465565000">
        <ele>718.80</ele>
        <time>2017-02-18T07:54:51Z</time>
      </trkpt>
      <trkpt lat="42.584218000" lon="-2.465562000">
        <ele>718.90</ele>
        <time>2017-02-18T07:54:52Z</time>
      </trkpt>
      <trkpt lat="42.584233000" lon="-2.465557000">
        <ele>719.00</ele>
        <time>2017-02-18T07:54:53Z</time>
      </trkpt>
      <trkpt lat="42.584248000" lon="-2.465550000">
        <ele>719.20</ele>
        <time>2017-02-18T07:54:54Z</time>
      </trkpt>
      <trkpt lat="42.584269000" lon="-2.465548000">
        <ele>719.40</ele>
        <time>2017-02-18T07:54:55Z</time>
      </trkpt>
      <trkpt lat="42.584286000" lon="-2.465544000">
        <ele>719.50</ele>
        <time>2017-02-18T07:54:56Z</time>
      </trkpt>
      <trkpt lat="42.584301000" lon="-2.465541000">
        <ele>719.60</ele>
        <time>2017-02-18T07:54:57Z</time>
      </trkpt>
      <trkpt lat="42.584317000" lon="-2.465539000">
        <ele>719.70</ele>
        <time>2017-02-18T07:54:58Z</time>
      </trkpt>
      <trkpt lat="42.584333000" lon="-2.465535000">
        <ele>719.80</ele>
        <time>2017-02-18T07:54:59Z</time>
      </trkpt>
      <trkpt lat="42.584351000" lon="-2.465530000">
        <ele>719.90</ele>
        <time>2017-02-18T07:55:00Z</time>
      </trkpt>
      <trkpt lat="42.584369000" lon="-2.465522000">
        <ele>719.90</ele>
        <time>2017-02-18T07:55:01Z</time>
      </trkpt>
      <trkpt lat="42.584385000" lon="-2.465514000">
        <ele>720.00</ele>
        <time>2017-02-18T07:55:02Z</time>
      </trkpt>
      <trkpt lat="42.584399000" lon="-2.465503000">
        <ele>720.00</ele>
        <time>2017-02-18T07:55:03Z</time>
      </trkpt>
      <trkpt lat="42.584414000" lon="-2.465489000">
        <ele>720.00</ele>
        <time>2017-02-18T07:55:04Z</time>
      </trkpt>
      <trkpt lat="42.584425000" lon="-2.465473000">
        <ele>720.00</ele>
        <time>2017-02-18T07:55:05Z</time>
      </trkpt>
      <trkpt lat="42.584434000" lon="-2.465453000">
        <ele>720.20</ele>
        <time>2017-02-18T07:55:06Z</time>
      </trkpt>
      <trkpt lat="42.584444000" lon="-2.465433000">
        <ele>720.30</ele>
        <time>2017-02-18T07:55:07Z</time>
      </trkpt>
      <trkpt lat="42.584451000" lon="-2.465411000">
        <ele>720.40</ele>
        <time>2017-02-18T07:55:08Z</time>
      </trkpt>
      <trkpt lat="42.584458000" lon="-2.465386000">
        <ele>720.40</ele>
        <time>2017-02-18T07:55:09Z</time>
      </trkpt>
      <trkpt lat="42.584467000" lon="-2.465365000">
        <ele>720.50</ele>
        <time>2017-02-18T07:55:10Z</time>
      </trkpt>
      <trkpt lat="42.584477000" lon="-2.465343000">
        <ele>720.60</ele>
        <time>2017-02-18T07:55:11Z</time>
      </trkpt>
      <trkpt lat="42.584488000" lon="-2.465323000">
        <ele>720.70</ele>
        <time>2017-02-18T07:55:12Z</time>
      </trkpt>
      <trkpt lat="42.584497000" lon="-2.465301000">
        <ele>720.70</ele>
        <time>2017-02-18T07:55:13Z</time>
      </trkpt>
      <trkpt lat="42.584504000" lon="-2.465275000">
        <ele>720.80</ele>
        <time>2017-02-18T07:55:14Z</time>
      </trkpt>
      <trkpt lat="42.584515000" lon="-2.465249000">
        <ele>720.80</ele>
        <time>2017-02-18T07:55:15Z</time>
      </trkpt>
      <trkpt lat="42.584528000" lon="-2.465226000">
        <ele>720.90</ele>
        <time>2017-02-18T07:55:16Z</time>
      </trkpt>
      <trkpt lat="42.584539000" lon="-2.465203000">
        <ele>721.10</ele>
        <time>2017-02-18T07:55:17Z</time>
      </trkpt>
      <trkpt lat="42.584552000" lon="-2.465182000">
        <ele>721.10</ele>
        <time>2017-02-18T07:55:18Z</time>
      </trkpt>
      <trkpt lat="42.584560000" lon="-2.465162000">
        <ele>721.20</ele>
        <time>2017-02-18T07:55:19Z</time>
      </trkpt>
      <trkpt lat="42.584568000" lon="-2.465142000">
        <ele>721.30</ele>
        <time>2017-02-18T07:55:20Z</time>
      </trkpt>
      <trkpt lat="42.584575000" lon="-2.465126000">
        <ele>721.30</ele>
        <time>2017-02-18T07:55:21Z</time>
      </trkpt>
      <trkpt lat="42.584582000" lon="-2.465105000">
        <ele>721.30</ele>
        <time>2017-02-18T07:55:22Z</time>
      </trkpt>
      <trkpt lat="42.584587000" lon="-2.465086000">
        <ele>721.30</ele>
        <time>2017-02-18T07:55:23Z</time>
      </trkpt>
      <trkpt lat="42.584597000" lon="-2.465069000">
        <ele>721.30</ele>
        <time>2017-02-18T07:55:24Z</time>
      </trkpt>
      <trkpt lat="42.584606000" lon="-2.465054000">
        <ele>721.30</ele>
        <time>2017-02-18T07:55:25Z</time>
      </trkpt>
      <trkpt lat="42.584614000" lon="-2.465036000">
        <ele>721.40</ele>
        <time>2017-02-18T07:55:26Z</time>
      </trkpt>
      <trkpt lat="42.584621000" lon="-2.465020000">
        <ele>721.40</ele>
        <time>2017-02-18T07:55:27Z</time>
      </trkpt>
      <trkpt lat="42.584627000" lon="-2.465004000">
        <ele>721.50</ele>
        <time>2017-02-18T07:55:28Z</time>
      </trkpt>
      <trkpt lat="42.584634000" lon="-2.464998000">
        <ele>721.60</ele>
        <time>2017-02-18T07:55:29Z</time>
      </trkpt>
      <trkpt lat="42.584638000" lon="-2.464988000">
        <ele>721.70</ele>
        <time>2017-02-18T07:55:30Z</time>
      </trkpt>
      <trkpt lat="42.584637000" lon="-2.464971000">
        <ele>721.70</ele>
        <time>2017-02-18T07:55:31Z</time>
      </trkpt>
      <trkpt lat="42.584638000" lon="-2.464951000">
        <ele>721.80</ele>
        <time>2017-02-18T07:55:32Z</time>
      </trkpt>
      <trkpt lat="42.584620000" lon="-2.464939000">
        <ele>721.80</ele>
        <time>2017-02-18T07:55:33Z</time>
      </trkpt>
      <trkpt lat="42.584600000" lon="-2.464937000">
        <ele>721.90</ele>
        <time>2017-02-18T07:55:34Z</time>
      </trkpt>
      <trkpt lat="42.584582000" lon="-2.464937000">
        <ele>721.90</ele>
        <time>2017-02-18T07:55:35Z</time>
      </trkpt>
      <trkpt lat="42.584568000" lon="-2.464934000">
        <ele>722.00</ele>
        <time>2017-02-18T07:55:36Z</time>
      </trkpt>
      <trkpt lat="42.584565000" lon="-2.464921000">
        <ele>722.00</ele>
        <time>2017-02-18T07:55:37Z</time>
      </trkpt>
      <trkpt lat="42.584568000" lon="-2.464908000">
        <ele>722.00</ele>
        <time>2017-02-18T07:55:38Z</time>
      </trkpt>
      <trkpt lat="42.584577000" lon="-2.464898000">
        <ele>722.00</ele>
        <time>2017-02-18T07:55:39Z</time>
      </trkpt>
      <trkpt lat="42.584584000" lon="-2.464902000">
        <ele>722.00</ele>
        <time>2017-02-18T07:55:40Z</time>
      </trkpt>
      <trkpt lat="42.584591000" lon="-2.464922000">
        <ele>722.00</ele>
        <time>2017-02-18T07:55:41Z</time>
      </trkpt>
      <trkpt lat="42.584596000" lon="-2.464936000">
        <ele>722.00</ele>
        <time>2017-02-18T07:55:42Z</time>
      </trkpt>
      <trkpt lat="42.584600000" lon="-2.464954000">
        <ele>721.90</ele>
        <time>2017-02-18T07:55:43Z</time>
      </trkpt>
      <trkpt lat="42.584603000" lon="-2.464972000">
        <ele>721.90</ele>
        <time>2017-02-18T07:55:44Z</time>
      </trkpt>
      <trkpt lat="42.584603000" lon="-2.464985000">
        <ele>721.90</ele>
        <time>2017-02-18T07:55:45Z</time>
      </trkpt>
      <trkpt lat="42.584601000" lon="-2.465009000">
        <ele>721.90</ele>
        <time>2017-02-18T07:55:47Z</time>
      </trkpt>
      <trkpt lat="42.584599000" lon="-2.465028000">
        <ele>722.00</ele>
        <time>2017-02-18T07:55:48Z</time>
      </trkpt>
      <trkpt lat="42.584595000" lon="-2.465049000">
        <ele>722.00</ele>
        <time>2017-02-18T07:55:49Z</time>
      </trkpt>
      <trkpt lat="42.584591000" lon="-2.465070000">
        <ele>722.10</ele>
        <time>2017-02-18T07:55:50Z</time>
      </trkpt>
      <trkpt lat="42.584586000" lon="-2.465097000">
        <ele>722.10</ele>
        <time>2017-02-18T07:55:51Z</time>
      </trkpt>
      <trkpt lat="42.584577000" lon="-2.465129000">
        <ele>722.10</ele>
        <time>2017-02-18T07:55:52Z</time>
      </trkpt>
      <trkpt lat="42.584565000" lon="-2.465159000">
        <ele>722.10</ele>
        <time>2017-02-18T07:55:53Z</time>
      </trkpt>
      <trkpt lat="42.584547000" lon="-2.465193000">
        <ele>722.00</ele>
        <time>2017-02-18T07:55:54Z</time>
      </trkpt>
      <trkpt lat="42.584534000" lon="-2.465223000">
        <ele>722.00</ele>
        <time>2017-02-18T07:55:55Z</time>
      </trkpt>
      <trkpt lat="42.584520000" lon="-2.465247000">
        <ele>721.80</ele>
        <time>2017-02-18T07:55:56Z</time>
      </trkpt>
      <trkpt lat="42.584511000" lon="-2.465274000">
        <ele>721.70</ele>
        <time>2017-02-18T07:55:57Z</time>
      </trkpt>
      <trkpt lat="42.584502000" lon="-2.465297000">
        <ele>721.60</ele>
        <time>2017-02-18T07:55:58Z</time>
      </trkpt>
      <trkpt lat="42.584490000" lon="-2.465312000">
        <ele>721.60</ele>
        <time>2017-02-18T07:55:59Z</time>
      </trkpt>
      <trkpt lat="42.584483000" lon="-2.465334000">
        <ele>721.50</ele>
        <time>2017-02-18T07:56:00Z</time>
      </trkpt>
      <trkpt lat="42.584476000" lon="-2.465352000">
        <ele>721.40</ele>
        <time>2017-02-18T07:56:01Z</time>
      </trkpt>
      <trkpt lat="42.584471000" lon="-2.465366000">
        <ele>721.30</ele>
        <time>2017-02-18T07:56:02Z</time>
      </trkpt>
      <trkpt lat="42.584465000" lon="-2.465383000">
        <ele>721.30</ele>
        <time>2017-02-18T07:56:03Z</time>
      </trkpt>
      <trkpt lat="42.584456000" lon="-2.465394000">
        <ele>721.20</ele>
        <time>2017-02-18T07:56:04Z</time>
      </trkpt>
      <trkpt lat="42.584448000" lon="-2.465410000">
        <ele>721.20</ele>
        <time>2017-02-18T07:56:05Z</time>
      </trkpt>
      <trkpt lat="42.584438000" lon="-2.465425000">
        <ele>721.10</ele>
        <time>2017-02-18T07:56:06Z</time>
      </trkpt>
      <trkpt lat="42.584430000" lon="-2.465437000">
        <ele>721.10</ele>
        <time>2017-02-18T07:56:07Z</time>
      </trkpt>
      <trkpt lat="42.584420000" lon="-2.465453000">
        <ele>721.00</ele>
        <time>2017-02-18T07:56:08Z</time>
      </trkpt>
      <trkpt lat="42.584409000" lon="-2.465470000">
        <ele>720.90</ele>
        <time>2017-02-18T07:56:09Z</time>
      </trkpt>
      <trkpt lat="42.584401000" lon="-2.465480000">
        <ele>720.80</ele>
        <time>2017-02-18T07:56:10Z</time>
      </trkpt>
      <trkpt lat="42.584391000" lon="-2.465492000">
        <ele>720.80</ele>
        <time>2017-02-18T07:56:11Z</time>
      </trkpt>
      <trkpt lat="42.584380000" lon="-2.465497000">
        <ele>720.70</ele>
        <time>2017-02-18T07:56:12Z</time>
      </trkpt>
      <trkpt lat="42.584370000" lon="-2.465511000">
        <ele>720.70</ele>
        <time>2017-02-18T07:56:13Z</time>
      </trkpt>
      <trkpt lat="42.584365000" lon="-2.465530000">
        <ele>720.70</ele>
        <time>2017-02-18T07:56:14Z</time>
      </trkpt>
      <trkpt lat="42.584361000" lon="-2.465545000">
        <ele>720.70</ele>
        <time>2017-02-18T07:56:15Z</time>
      </trkpt>
      <trkpt lat="42.584357000" lon="-2.465555000">
        <ele>720.70</ele>
        <time>2017-02-18T07:56:16Z</time>
      </trkpt>
      <trkpt lat="42.584352000" lon="-2.465568000">
        <ele>720.70</ele>
        <time>2017-02-18T07:56:17Z</time>
      </trkpt>
      <trkpt lat="42.584346000" lon="-2.465584000">
        <ele>720.60</ele>
        <time>2017-02-18T07:56:18Z</time>
      </trkpt>
      <trkpt lat="42.584344000" lon="-2.465595000">
        <ele>720.60</ele>
        <time>2017-02-18T07:56:19Z</time>
      </trkpt>
      <trkpt lat="42.584340000" lon="-2.465607000">
        <ele>720.60</ele>
        <time>2017-02-18T07:56:20Z</time>
      </trkpt>
      <trkpt lat="42.584330000" lon="-2.465618000">
        <ele>720.60</ele>
        <time>2017-02-18T07:56:21Z</time>
      </trkpt>
      <trkpt lat="42.584325000" lon="-2.465615000">
        <ele>720.60</ele>
        <time>2017-02-18T07:56:22Z</time>
      </trkpt>
      <trkpt lat="42.584324000" lon="-2.465612000">
        <ele>720.50</ele>
        <time>2017-02-18T07:56:23Z</time>
      </trkpt>
      <trkpt lat="42.584321000" lon="-2.465608000">
        <ele>720.40</ele>
        <time>2017-02-18T07:56:24Z</time>
      </trkpt>
      <trkpt lat="42.584326000" lon="-2.465604000">
        <ele>720.40</ele>
        <time>2017-02-18T07:56:25Z</time>
      </trkpt>
      <trkpt lat="42.584324000" lon="-2.465603000">
        <ele>720.30</ele>
        <time>2017-02-18T07:56:26Z</time>
      </trkpt>
      <trkpt lat="42.584327000" lon="-2.465602000">
        <ele>720.30</ele>
        <time>2017-02-18T07:56:27Z</time>
      </trkpt>
      <trkpt lat="42.584329000" lon="-2.465603000">
        <ele>720.30</ele>
        <time>2017-02-18T07:56:28Z</time>
      </trkpt>
      <trkpt lat="42.584328000" lon="-2.465602000">
        <ele>720.40</ele>
        <time>2017-02-18T07:56:29Z</time>
      </trkpt>
      <trkpt lat="42.584326000" lon="-2.465596000">
        <ele>720.40</ele>
        <time>2017-02-18T07:56:30Z</time>
      </trkpt>
      <trkpt lat="42.584325000" lon="-2.465592000">
        <ele>720.40</ele>
        <time>2017-02-18T07:56:31Z</time>
      </trkpt>
      <trkpt lat="42.584326000" lon="-2.465584000">
        <ele>720.50</ele>
        <time>2017-02-18T07:56:32Z</time>
      </trkpt>
      <trkpt lat="42.584326000" lon="-2.465587000">
        <ele>720.60</ele>
        <time>2017-02-18T07:56:33Z</time>
      </trkpt>
      <trkpt lat="42.584323000" lon="-2.465590000">
        <ele>720.50</ele>
        <time>2017-02-18T07:56:34Z</time>
      </trkpt>
      <trkpt lat="42.584323000" lon="-2.465595000">
        <ele>720.50</ele>
        <time>2017-02-18T07:56:35Z</time>
      </trkpt>
      <trkpt lat="42.584320000" lon="-2.465597000">
        <ele>720.60</ele>
        <time>2017-02-18T07:56:36Z</time>
      </trkpt>
      <trkpt lat="42.584320000" lon="-2.465599000">
        <ele>720.60</ele>
        <time>2017-02-18T07:56:37Z</time>
      </trkpt>
      <trkpt lat="42.584321000" lon="-2.465597000">
        <ele>720.70</ele>
        <time>2017-02-18T07:56:38Z</time>
      </trkpt>
      <trkpt lat="42.584322000" lon="-2.465591000">
        <ele>720.70</ele>
        <time>2017-02-18T07:56:39Z</time>
      </trkpt>
      <trkpt lat="42.584321000" lon="-2.465593000">
        <ele>720.80</ele>
        <time>2017-02-18T07:56:40Z</time>
      </trkpt>
      <trkpt lat="42.584322000" lon="-2.465589000">
        <ele>720.80</ele>
        <time>2017-02-18T07:56:41Z</time>
      </trkpt>
      <trkpt lat="42.584322000" lon="-2.465589000">
        <ele>720.70</ele>
        <time>2017-02-18T07:56:42Z</time>
      </trkpt>
      <trkpt lat="42.584325000" lon="-2.465589000">
        <ele>720.60</ele>
        <time>2017-02-18T07:56:43Z</time>
      </trkpt>
      <trkpt lat="42.584326000" lon="-2.465590000">
        <ele>720.50</ele>
        <time>2017-02-18T07:56:44Z</time>
      </trkpt>
      <trkpt lat="42.584327000" lon="-2.465590000">
        <ele>720.50</ele>
        <time>2017-02-18T07:56:45Z</time>
      </trkpt>
      <trkpt lat="42.584326000" lon="-2.465591000">
        <ele>720.60</ele>
        <time>2017-02-18T07:56:46Z</time>
      </trkpt>
      <trkpt lat="42.584327000" lon="-2.465595000">
        <ele>720.70</ele>
        <time>2017-02-18T07:56:48Z</time>
      </trkpt>
      <trkpt lat="42.584327000" lon="-2.465597000">
        <ele>720.80</ele>
        <time>2017-02-18T07:56:49Z</time>
      </trkpt>
      <trkpt lat="42.584329000" lon="-2.465595000">
        <ele>720.60</ele>
        <time>2017-02-18T07:56:50Z</time>
      </trkpt>
      <trkpt lat="42.584330000" lon="-2.465594000">
        <ele>720.50</ele>
        <time>2017-02-18T07:56:51Z</time>
      </trkpt>
      <trkpt lat="42.584332000" lon="-2.465592000">
        <ele>720.40</ele>
        <time>2017-02-18T07:56:52Z</time>
      </trkpt>
      <trkpt lat="42.584333000" lon="-2.465591000">
        <ele>720.40</ele>
        <time>2017-02-18T07:56:53Z</time>
      </trkpt>
      <trkpt lat="42.584333000" lon="-2.465590000">
        <ele>720.40</ele>
        <time>2017-02-18T07:56:54Z</time>
      </trkpt>
      <trkpt lat="42.584335000" lon="-2.465591000">
        <ele>720.50</ele>
        <time>2017-02-18T07:56:55Z</time>
      </trkpt>
      <trkpt lat="42.584337000" lon="-2.465594000">
        <ele>720.60</ele>
        <time>2017-02-18T07:56:56Z</time>
      </trkpt>
      <trkpt lat="42.584336000" lon="-2.465595000">
        <ele>720.60</ele>
        <time>2017-02-18T07:56:57Z</time>
      </trkpt>
      <trkpt lat="42.584337000" lon="-2.465598000">
        <ele>720.50</ele>
        <time>2017-02-18T07:56:58Z</time>
      </trkpt>
      <trkpt lat="42.584337000" lon="-2.465600000">
        <ele>720.50</ele>
        <time>2017-02-18T07:56:59Z</time>
      </trkpt>
      <trkpt lat="42.584338000" lon="-2.465600000">
        <ele>720.40</ele>
        <time>2017-02-18T07:57:00Z</time>
      </trkpt>
      <trkpt lat="42.584339000" lon="-2.465598000">
        <ele>720.40</ele>
        <time>2017-02-18T07:57:01Z</time>
      </trkpt>
      <trkpt lat="42.584340000" lon="-2.465596000">
        <ele>720.30</ele>
        <time>2017-02-18T07:57:02Z</time>
      </trkpt>
      <trkpt lat="42.584340000" lon="-2.465594000">
        <ele>720.30</ele>
        <time>2017-02-18T07:57:03Z</time>
      </trkpt>
      <trkpt lat="42.584340000" lon="-2.465588000">
        <ele>720.40</ele>
        <time>2017-02-18T07:57:04Z</time>
      </trkpt>
      <trkpt lat="42.584343000" lon="-2.465575000">
        <ele>720.50</ele>
        <time>2017-02-18T07:57:05Z</time>
      </trkpt>
      <trkpt lat="42.584347000" lon="-2.465565000">
        <ele>720.50</ele>
        <time>2017-02-18T07:57:06Z</time>
      </trkpt>
      <trkpt lat="42.584346000" lon="-2.465563000">
        <ele>720.60</ele>
        <time>2017-02-18T07:57:07Z</time>
      </trkpt>
      <trkpt lat="42.584346000" lon="-2.465562000">
        <ele>720.60</ele>
        <time>2017-02-18T07:57:08Z</time>
      </trkpt>
      <trkpt lat="42.584349000" lon="-2.465552000">
        <ele>720.50</ele>
        <time>2017-02-18T07:57:09Z</time>
      </trkpt>
      <trkpt lat="42.584356000" lon="-2.465545000">
        <ele>720.50</ele>
        <time>2017-02-18T07:57:10Z</time>
      </trkpt>
      <trkpt lat="42.584361000" lon="-2.465543000">
        <ele>720.50</ele>
        <time>2017-02-18T07:57:11Z</time>
      </trkpt>
      <trkpt lat="42.584372000" lon="-2.465535000">
        <ele>720.60</ele>
        <time>2017-02-18T07:57:12Z</time>
      </trkpt>
      <trkpt lat="42.584380000" lon="-2.465521000">
        <ele>720.60</ele>
        <time>2017-02-18T07:57:13Z</time>
      </trkpt>
      <trkpt lat="42.584386000" lon="-2.465505000">
        <ele>720.70</ele>
        <time>2017-02-18T07:57:14Z</time>
      </trkpt>
      <trkpt lat="42.584392000" lon="-2.465489000">
        <ele>720.70</ele>
        <time>2017-02-18T07:57:15Z</time>
      </trkpt>
      <trkpt lat="42.584398000" lon="-2.465476000">
        <ele>720.70</ele>
        <time>2017-02-18T07:57:16Z</time>
      </trkpt>
      <trkpt lat="42.584405000" lon="-2.465461000">
        <ele>720.70</ele>
        <time>2017-02-18T07:57:17Z</time>
      </trkpt>
      <trkpt lat="42.584412000" lon="-2.465443000">
        <ele>720.70</ele>
        <time>2017-02-18T07:57:18Z</time>
      </trkpt>
      <trkpt lat="42.584416000" lon="-2.465428000">
        <ele>720.60</ele>
        <time>2017-02-18T07:57:19Z</time>
      </trkpt>
      <trkpt lat="42.584421000" lon="-2.465413000">
        <ele>720.70</ele>
        <time>2017-02-18T07:57:20Z</time>
      </trkpt>
      <trkpt lat="42.584432000" lon="-2.465395000">
        <ele>720.70</ele>
        <time>2017-02-18T07:57:21Z</time>
      </trkpt>
      <trkpt lat="42.584441000" lon="-2.465377000">
        <ele>720.70</ele>
        <time>2017-02-18T07:57:22Z</time>
      </trkpt>
      <trkpt lat="42.584455000" lon="-2.465371000">
        <ele>720.70</ele>
        <time>2017-02-18T07:57:23Z</time>
      </trkpt>
      <trkpt lat="42.584465000" lon="-2.465359000">
        <ele>720.70</ele>
        <time>2017-02-18T07:57:24Z</time>
      </trkpt>
      <trkpt lat="42.584473000" lon="-2.465345000">
        <ele>720.70</ele>
        <time>2017-02-18T07:57:25Z</time>
      </trkpt>
      <trkpt lat="42.584480000" lon="-2.465328000">
        <ele>720.70</ele>
        <time>2017-02-18T07:57:26Z</time>
      </trkpt>
      <trkpt lat="42.584487000" lon="-2.465308000">
        <ele>720.70</ele>
        <time>2017-02-18T07:57:27Z</time>
      </trkpt>
      <trkpt lat="42.584485000" lon="-2.465294000">
        <ele>720.80</ele>
        <time>2017-02-18T07:57:28Z</time>
      </trkpt>
      <trkpt lat="42.584491000" lon="-2.465279000">
        <ele>720.80</ele>
        <time>2017-02-18T07:57:29Z</time>
      </trkpt>
      <trkpt lat="42.584496000" lon="-2.465263000">
        <ele>720.90</ele>
        <time>2017-02-18T07:57:30Z</time>
      </trkpt>
      <trkpt lat="42.584502000" lon="-2.465249000">
        <ele>721.00</ele>
        <time>2017-02-18T07:57:31Z</time>
      </trkpt>
      <trkpt lat="42.584505000" lon="-2.465233000">
        <ele>721.10</ele>
        <time>2017-02-18T07:57:32Z</time>
      </trkpt>
      <trkpt lat="42.584515000" lon="-2.465218000">
        <ele>721.10</ele>
        <time>2017-02-18T07:57:33Z</time>
      </trkpt>
      <trkpt lat="42.584522000" lon="-2.465205000">
        <ele>721.10</ele>
        <time>2017-02-18T07:57:34Z</time>
      </trkpt>
      <trkpt lat="42.584531000" lon="-2.465189000">
        <ele>721.20</ele>
        <time>2017-02-18T07:57:35Z</time>
      </trkpt>
      <trkpt lat="42.584539000" lon="-2.465172000">
        <ele>721.30</ele>
        <time>2017-02-18T07:57:36Z</time>
      </trkpt>
      <trkpt lat="42.584547000" lon="-2.465152000">
        <ele>721.40</ele>
        <time>2017-02-18T07:57:37Z</time>
      </trkpt>
      <trkpt lat="42.584556000" lon="-2.465133000">
        <ele>721.50</ele>
        <time>2017-02-18T07:57:38Z</time>
      </trkpt>
      <trkpt lat="42.584566000" lon="-2.465122000">
        <ele>721.60</ele>
        <time>2017-02-18T07:57:39Z</time>
      </trkpt>
      <trkpt lat="42.584576000" lon="-2.465104000">
        <ele>721.70</ele>
        <time>2017-02-18T07:57:40Z</time>
      </trkpt>
      <trkpt lat="42.584583000" lon="-2.465087000">
        <ele>721.80</ele>
        <time>2017-02-18T07:57:41Z</time>
      </trkpt>
      <trkpt lat="42.584590000" lon="-2.465070000">
        <ele>721.90</ele>
        <time>2017-02-18T07:57:42Z</time>
      </trkpt>
      <trkpt lat="42.584599000" lon="-2.465049000">
        <ele>722.00</ele>
        <time>2017-02-18T07:57:43Z</time>
      </trkpt>
      <trkpt lat="42.584608000" lon="-2.465034000">
        <ele>721.90</ele>
        <time>2017-02-18T07:57:44Z</time>
      </trkpt>
      <trkpt lat="42.584617000" lon="-2.465012000">
        <ele>721.80</ele>
        <time>2017-02-18T07:57:45Z</time>
      </trkpt>
      <trkpt lat="42.584626000" lon="-2.465000000">
        <ele>722.00</ele>
        <time>2017-02-18T07:57:46Z</time>
      </trkpt>
      <trkpt lat="42.584635000" lon="-2.464984000">
        <ele>722.10</ele>
        <time>2017-02-18T07:57:47Z</time>
      </trkpt>
      <trkpt lat="42.584658000" lon="-2.464964000">
        <ele>722.40</ele>
        <time>2017-02-18T07:57:49Z</time>
      </trkpt>
      <trkpt lat="42.584667000" lon="-2.464955000">
        <ele>722.50</ele>
        <time>2017-02-18T07:57:50Z</time>
      </trkpt>
      <trkpt lat="42.584679000" lon="-2.464949000">
        <ele>722.60</ele>
        <time>2017-02-18T07:57:51Z</time>
      </trkpt>
      <trkpt lat="42.584688000" lon="-2.464940000">
        <ele>722.70</ele>
        <time>2017-02-18T07:57:52Z</time>
      </trkpt>
      <trkpt lat="42.584697000" lon="-2.464928000">
        <ele>722.70</ele>
        <time>2017-02-18T07:57:53Z</time>
      </trkpt>
      <trkpt lat="42.584705000" lon="-2.464917000">
        <ele>722.70</ele>
        <time>2017-02-18T07:57:54Z</time>
      </trkpt>
      <trkpt lat="42.584712000" lon="-2.464902000">
        <ele>722.80</ele>
        <time>2017-02-18T07:57:55Z</time>
      </trkpt>
      <trkpt lat="42.584717000" lon="-2.464890000">
        <ele>722.80</ele>
        <time>2017-02-18T07:57:56Z</time>
      </trkpt>
      <trkpt lat="42.584723000" lon="-2.464876000">
        <ele>722.80</ele>
        <time>2017-02-18T07:57:57Z</time>
      </trkpt>
      <trkpt lat="42.584730000" lon="-2.464862000">
        <ele>723.00</ele>
        <time>2017-02-18T07:57:58Z</time>
      </trkpt>
      <trkpt lat="42.584739000" lon="-2.464844000">
        <ele>723.10</ele>
        <time>2017-02-18T07:57:59Z</time>
      </trkpt>
      <trkpt lat="42.584747000" lon="-2.464829000">
        <ele>723.20</ele>
        <time>2017-02-18T07:58:00Z</time>
      </trkpt>
      <trkpt lat="42.584755000" lon="-2.464819000">
        <ele>723.30</ele>
        <time>2017-02-18T07:58:01Z</time>
      </trkpt>
      <trkpt lat="42.584762000" lon="-2.464808000">
        <ele>723.50</ele>
        <time>2017-02-18T07:58:02Z</time>
      </trkpt>
      <trkpt lat="42.584774000" lon="-2.464806000">
        <ele>723.70</ele>
        <time>2017-02-18T07:58:03Z</time>
      </trkpt>
      <trkpt lat="42.584780000" lon="-2.464802000">
        <ele>723.80</ele>
        <time>2017-02-18T07:58:04Z</time>
      </trkpt>
      <trkpt lat="42.584792000" lon="-2.464796000">
        <ele>723.90</ele>
        <time>2017-02-18T07:58:05Z</time>
      </trkpt>
      <trkpt lat="42.584799000" lon="-2.464787000">
        <ele>724.10</ele>
        <time>2017-02-18T07:58:06Z</time>
      </trkpt>
      <trkpt lat="42.584808000" lon="-2.464780000">
        <ele>724.30</ele>
        <time>2017-02-18T07:58:07Z</time>
      </trkpt>
      <trkpt lat="42.584813000" lon="-2.464773000">
        <ele>724.40</ele>
        <time>2017-02-18T07:58:08Z</time>
      </trkpt>
      <trkpt lat="42.584823000" lon="-2.464763000">
        <ele>724.40</ele>
        <time>2017-02-18T07:58:09Z</time>
      </trkpt>
      <trkpt lat="42.584829000" lon="-2.464753000">
        <ele>724.40</ele>
        <time>2017-02-18T07:58:10Z</time>
      </trkpt>
      <trkpt lat="42.584839000" lon="-2.464741000">
        <ele>724.50</ele>
        <time>2017-02-18T07:58:11Z</time>
      </trkpt>
      <trkpt lat="42.584849000" lon="-2.464727000">
        <ele>724.50</ele>
        <time>2017-02-18T07:58:12Z</time>
      </trkpt>
      <trkpt lat="42.584853000" lon="-2.464718000">
        <ele>724.50</ele>
        <time>2017-02-18T07:58:13Z</time>
      </trkpt>
      <trkpt lat="42.584864000" lon="-2.464710000">
        <ele>724.50</ele>
        <time>2017-02-18T07:58:14Z</time>
      </trkpt>
      <trkpt lat="42.584871000" lon="-2.464703000">
        <ele>724.60</ele>
        <time>2017-02-18T07:58:15Z</time>
      </trkpt>
      <trkpt lat="42.584885000" lon="-2.464698000">
        <ele>724.60</ele>
        <time>2017-02-18T07:58:16Z</time>
      </trkpt>
      <trkpt lat="42.584897000" lon="-2.464685000">
        <ele>724.70</ele>
        <time>2017-02-18T07:58:17Z</time>
      </trkpt>
      <trkpt lat="42.584904000" lon="-2.464676000">
        <ele>724.90</ele>
        <time>2017-02-18T07:58:18Z</time>
      </trkpt>
      <trkpt lat="42.584915000" lon="-2.464668000">
        <ele>725.10</ele>
        <time>2017-02-18T07:58:19Z</time>
      </trkpt>
      <trkpt lat="42.584921000" lon="-2.464660000">
        <ele>725.20</ele>
        <time>2017-02-18T07:58:20Z</time>
      </trkpt>
      <trkpt lat="42.584932000" lon="-2.464651000">
        <ele>725.30</ele>
        <time>2017-02-18T07:58:21Z</time>
      </trkpt>
      <trkpt lat="42.584943000" lon="-2.464640000">
        <ele>725.40</ele>
        <time>2017-02-18T07:58:22Z</time>
      </trkpt>
      <trkpt lat="42.584949000" lon="-2.464628000">
        <ele>725.50</ele>
        <time>2017-02-18T07:58:23Z</time>
      </trkpt>
      <trkpt lat="42.584961000" lon="-2.464619000">
        <ele>725.60</ele>
        <time>2017-02-18T07:58:24Z</time>
      </trkpt>
      <trkpt lat="42.584974000" lon="-2.464608000">
        <ele>725.80</ele>
        <time>2017-02-18T07:58:25Z</time>
      </trkpt>
      <trkpt lat="42.584984000" lon="-2.464598000">
        <ele>726.00</ele>
        <time>2017-02-18T07:58:26Z</time>
      </trkpt>
      <trkpt lat="42.584999000" lon="-2.464595000">
        <ele>726.20</ele>
        <time>2017-02-18T07:58:27Z</time>
      </trkpt>
      <trkpt lat="42.585011000" lon="-2.464591000">
        <ele>726.30</ele>
        <time>2017-02-18T07:58:28Z</time>
      </trkpt>
      <trkpt lat="42.585023000" lon="-2.464581000">
        <ele>726.40</ele>
        <time>2017-02-18T07:58:29Z</time>
      </trkpt>
      <trkpt lat="42.585031000" lon="-2.464570000">
        <ele>726.60</ele>
        <time>2017-02-18T07:58:30Z</time>
      </trkpt>
      <trkpt lat="42.585043000" lon="-2.464561000">
        <ele>726.70</ele>
        <time>2017-02-18T07:58:31Z</time>
      </trkpt>
      <trkpt lat="42.585053000" lon="-2.464551000">
        <ele>726.80</ele>
        <time>2017-02-18T07:58:32Z</time>
      </trkpt>
      <trkpt lat="42.585062000" lon="-2.464536000">
        <ele>726.90</ele>
        <time>2017-02-18T07:58:33Z</time>
      </trkpt>
      <trkpt lat="42.585073000" lon="-2.464524000">
        <ele>727.10</ele>
        <time>2017-02-18T07:58:34Z</time>
      </trkpt>
      <trkpt lat="42.585080000" lon="-2.464514000">
        <ele>727.20</ele>
        <time>2017-02-18T07:58:35Z</time>
      </trkpt>
      <trkpt lat="42.585088000" lon="-2.464505000">
        <ele>727.30</ele>
        <time>2017-02-18T07:58:36Z</time>
      </trkpt>
      <trkpt lat="42.585100000" lon="-2.464498000">
        <ele>727.40</ele>
        <time>2017-02-18T07:58:37Z</time>
      </trkpt>
      <trkpt lat="42.585107000" lon="-2.464482000">
        <ele>727.60</ele>
        <time>2017-02-18T07:58:38Z</time>
      </trkpt>
      <trkpt lat="42.585118000" lon="-2.464473000">
        <ele>727.80</ele>
        <time>2017-02-18T07:58:39Z</time>
      </trkpt>
      <trkpt lat="42.585128000" lon="-2.464461000">
        <ele>727.90</ele>
        <time>2017-02-18T07:58:40Z</time>
      </trkpt>
      <trkpt lat="42.585139000" lon="-2.464453000">
        <ele>728.00</ele>
        <time>2017-02-18T07:58:41Z</time>
      </trkpt>
      <trkpt lat="42.585150000" lon="-2.464438000">
        <ele>728.10</ele>
        <time>2017-02-18T07:58:42Z</time>
      </trkpt>
      <trkpt lat="42.585159000" lon="-2.464424000">
        <ele>728.20</ele>
        <time>2017-02-18T07:58:43Z</time>
      </trkpt>
      <trkpt lat="42.585173000" lon="-2.464415000">
        <ele>728.40</ele>
        <time>2017-02-18T07:58:44Z</time>
      </trkpt>
      <trkpt lat="42.585182000" lon="-2.464402000">
        <ele>728.50</ele>
        <time>2017-02-18T07:58:45Z</time>
      </trkpt>
      <trkpt lat="42.585194000" lon="-2.464393000">
        <ele>728.60</ele>
        <time>2017-02-18T07:58:46Z</time>
      </trkpt>
      <trkpt lat="42.585206000" lon="-2.464380000">
        <ele>728.80</ele>
        <time>2017-02-18T07:58:47Z</time>
      </trkpt>
      <trkpt lat="42.585217000" lon="-2.464367000">
        <ele>728.90</ele>
        <time>2017-02-18T07:58:48Z</time>
      </trkpt>
      <trkpt lat="42.585244000" lon="-2.464342000">
        <ele>729.40</ele>
        <time>2017-02-18T07:58:50Z</time>
      </trkpt>
      <trkpt lat="42.585256000" lon="-2.464329000">
        <ele>729.60</ele>
        <time>2017-02-18T07:58:51Z</time>
      </trkpt>
      <trkpt lat="42.585265000" lon="-2.464320000">
        <ele>729.80</ele>
        <time>2017-02-18T07:58:52Z</time>
      </trkpt>
      <trkpt lat="42.585277000" lon="-2.464309000">
        <ele>729.90</ele>
        <time>2017-02-18T07:58:53Z</time>
      </trkpt>
      <trkpt lat="42.585287000" lon="-2.464292000">
        <ele>730.10</ele>
        <time>2017-02-18T07:58:54Z</time>
      </trkpt>
      <trkpt lat="42.585300000" lon="-2.464278000">
        <ele>730.30</ele>
        <time>2017-02-18T07:58:55Z</time>
      </trkpt>
      <trkpt lat="42.585309000" lon="-2.464261000">
        <ele>730.40</ele>
        <time>2017-02-18T07:58:56Z</time>
      </trkpt>
      <trkpt lat="42.585322000" lon="-2.464251000">
        <ele>730.50</ele>
        <time>2017-02-18T07:58:57Z</time>
      </trkpt>
      <trkpt lat="42.585334000" lon="-2.464240000">
        <ele>730.60</ele>
        <time>2017-02-18T07:58:58Z</time>
      </trkpt>
      <trkpt lat="42.585348000" lon="-2.464232000">
        <ele>730.70</ele>
        <time>2017-02-18T07:58:59Z</time>
      </trkpt>
      <trkpt lat="42.585358000" lon="-2.464223000">
        <ele>731.00</ele>
        <time>2017-02-18T07:59:00Z</time>
      </trkpt>
      <trkpt lat="42.585369000" lon="-2.464213000">
        <ele>731.20</ele>
        <time>2017-02-18T07:59:01Z</time>
      </trkpt>
      <trkpt lat="42.585379000" lon="-2.464201000">
        <ele>731.30</ele>
        <time>2017-02-18T07:59:02Z</time>
      </trkpt>
      <trkpt lat="42.585390000" lon="-2.464189000">
        <ele>731.40</ele>
        <time>2017-02-18T07:59:03Z</time>
      </trkpt>
      <trkpt lat="42.585397000" lon="-2.464176000">
        <ele>731.50</ele>
        <time>2017-02-18T07:59:04Z</time>
      </trkpt>
      <trkpt lat="42.585414000" lon="-2.464162000">
        <ele>731.60</ele>
        <time>2017-02-18T07:59:05Z</time>
      </trkpt>
      <trkpt lat="42.585425000" lon="-2.464155000">
        <ele>731.60</ele>
        <time>2017-02-18T07:59:06Z</time>
      </trkpt>
      <trkpt lat="42.585436000" lon="-2.464142000">
        <ele>731.70</ele>
        <time>2017-02-18T07:59:07Z</time>
      </trkpt>
      <trkpt lat="42.585445000" lon="-2.464129000">
        <ele>731.80</ele>
        <time>2017-02-18T07:59:08Z</time>
      </trkpt>
      <trkpt lat="42.585458000" lon="-2.464117000">
        <ele>731.80</ele>
        <time>2017-02-18T07:59:09Z</time>
      </trkpt>
      <trkpt lat="42.585470000" lon="-2.464108000">
        <ele>731.90</ele>
        <time>2017-02-18T07:59:10Z</time>
      </trkpt>
      <trkpt lat="42.585482000" lon="-2.464094000">
        <ele>731.90</ele>
        <time>2017-02-18T07:59:11Z</time>
      </trkpt>
      <trkpt lat="42.585495000" lon="-2.464082000">
        <ele>731.90</ele>
        <time>2017-02-18T07:59:12Z</time>
      </trkpt>
      <trkpt lat="42.585504000" lon="-2.464070000">
        <ele>732.00</ele>
        <time>2017-02-18T07:59:13Z</time>
      </trkpt>
      <trkpt lat="42.585515000" lon="-2.464057000">
        <ele>732.10</ele>
        <time>2017-02-18T07:59:14Z</time>
      </trkpt>
      <trkpt lat="42.585527000" lon="-2.464041000">
        <ele>732.20</ele>
        <time>2017-02-18T07:59:15Z</time>
      </trkpt>
      <trkpt lat="42.585541000" lon="-2.464028000">
        <ele>732.30</ele>
        <time>2017-02-18T07:59:16Z</time>
      </trkpt>
      <trkpt lat="42.585552000" lon="-2.464015000">
        <ele>732.40</ele>
        <time>2017-02-18T07:59:17Z</time>
      </trkpt>
      <trkpt lat="42.585567000" lon="-2.464002000">
        <ele>732.40</ele>
        <time>2017-02-18T07:59:18Z</time>
      </trkpt>
      <trkpt lat="42.585581000" lon="-2.463989000">
        <ele>732.50</ele>
        <time>2017-02-18T07:59:19Z</time>
      </trkpt>
      <trkpt lat="42.585593000" lon="-2.463979000">
        <ele>732.60</ele>
        <time>2017-02-18T07:59:20Z</time>
      </trkpt>
      <trkpt lat="42.585605000" lon="-2.463965000">
        <ele>732.70</ele>
        <time>2017-02-18T07:59:21Z</time>
      </trkpt>
      <trkpt lat="42.585613000" lon="-2.463944000">
        <ele>732.80</ele>
        <time>2017-02-18T07:59:22Z</time>
      </trkpt>
      <trkpt lat="42.585626000" lon="-2.463932000">
        <ele>732.90</ele>
        <time>2017-02-18T07:59:23Z</time>
      </trkpt>
      <trkpt lat="42.585638000" lon="-2.463922000">
        <ele>733.00</ele>
        <time>2017-02-18T07:59:24Z</time>
      </trkpt>
      <trkpt lat="42.585655000" lon="-2.463909000">
        <ele>733.00</ele>
        <time>2017-02-18T07:59:25Z</time>
      </trkpt>
      <trkpt lat="42.585666000" lon="-2.463898000">
        <ele>733.10</ele>
        <time>2017-02-18T07:59:26Z</time>
      </trkpt>
      <trkpt lat="42.585677000" lon="-2.463887000">
        <ele>733.10</ele>
        <time>2017-02-18T07:59:27Z</time>
      </trkpt>
      <trkpt lat="42.585685000" lon="-2.463873000">
        <ele>733.10</ele>
        <time>2017-02-18T07:59:28Z</time>
      </trkpt>
      <trkpt lat="42.585700000" lon="-2.463855000">
        <ele>733.20</ele>
        <time>2017-02-18T07:59:29Z</time>
      </trkpt>
      <trkpt lat="42.585711000" lon="-2.463837000">
        <ele>733.20</ele>
        <time>2017-02-18T07:59:30Z</time>
      </trkpt>
      <trkpt lat="42.585727000" lon="-2.463821000">
        <ele>733.30</ele>
        <time>2017-02-18T07:59:31Z</time>
      </trkpt>
      <trkpt lat="42.585741000" lon="-2.463810000">
        <ele>733.40</ele>
        <time>2017-02-18T07:59:32Z</time>
      </trkpt>
      <trkpt lat="42.585753000" lon="-2.463803000">
        <ele>733.40</ele>
        <time>2017-02-18T07:59:33Z</time>
      </trkpt>
      <trkpt lat="42.585765000" lon="-2.463791000">
        <ele>733.50</ele>
        <time>2017-02-18T07:59:34Z</time>
      </trkpt>
      <trkpt lat="42.585779000" lon="-2.463781000">
        <ele>733.60</ele>
        <time>2017-02-18T07:59:35Z</time>
      </trkpt>
      <trkpt lat="42.585791000" lon="-2.463769000">
        <ele>733.60</ele>
        <time>2017-02-18T07:59:36Z</time>
      </trkpt>
      <trkpt lat="42.585799000" lon="-2.463754000">
        <ele>733.70</ele>
        <time>2017-02-18T07:59:37Z</time>
      </trkpt>
      <trkpt lat="42.585808000" lon="-2.463741000">
        <ele>733.70</ele>
        <time>2017-02-18T07:59:38Z</time>
      </trkpt>
      <trkpt lat="42.585822000" lon="-2.463733000">
        <ele>733.80</ele>
        <time>2017-02-18T07:59:39Z</time>
      </trkpt>
      <trkpt lat="42.585835000" lon="-2.463724000">
        <ele>734.00</ele>
        <time>2017-02-18T07:59:40Z</time>
      </trkpt>
      <trkpt lat="42.585850000" lon="-2.463714000">
        <ele>734.20</ele>
        <time>2017-02-18T07:59:41Z</time>
      </trkpt>
      <trkpt lat="42.585866000" lon="-2.463704000">
        <ele>734.20</ele>
        <time>2017-02-18T07:59:42Z</time>
      </trkpt>
      <trkpt lat="42.585877000" lon="-2.463696000">
        <ele>734.20</ele>
        <time>2017-02-18T07:59:43Z</time>
      </trkpt>
      <trkpt lat="42.585890000" lon="-2.463683000">
        <ele>734.20</ele>
        <time>2017-02-18T07:59:44Z</time>
      </trkpt>
      <trkpt lat="42.585903000" lon="-2.463674000">
        <ele>734.20</ele>
        <time>2017-02-18T07:59:45Z</time>
      </trkpt>
      <trkpt lat="42.585915000" lon="-2.463670000">
        <ele>734.20</ele>
        <time>2017-02-18T07:59:46Z</time>
      </trkpt>
      <trkpt lat="42.585927000" lon="-2.463665000">
        <ele>734.20</ele>
        <time>2017-02-18T07:59:47Z</time>
      </trkpt>
      <trkpt lat="42.585940000" lon="-2.463659000">
        <ele>734.20</ele>
        <time>2017-02-18T07:59:48Z</time>
      </trkpt>
      <trkpt lat="42.585953000" lon="-2.463658000">
        <ele>734.30</ele>
        <time>2017-02-18T07:59:49Z</time>
      </trkpt>
      <trkpt lat="42.585988000" lon="-2.463646000">
        <ele>734.50</ele>
        <time>2017-02-18T07:59:51Z</time>
      </trkpt>
      <trkpt lat="42.586004000" lon="-2.463644000">
        <ele>734.60</ele>
        <time>2017-02-18T07:59:52Z</time>
      </trkpt>
      <trkpt lat="42.586019000" lon="-2.463635000">
        <ele>734.60</ele>
        <time>2017-02-18T07:59:53Z</time>
      </trkpt>
      <trkpt lat="42.586034000" lon="-2.463629000">
        <ele>734.90</ele>
        <time>2017-02-18T07:59:54Z</time>
      </trkpt>
      <trkpt lat="42.586048000" lon="-2.463626000">
        <ele>735.20</ele>
        <time>2017-02-18T07:59:55Z</time>
      </trkpt>
      <trkpt lat="42.586063000" lon="-2.463621000">
        <ele>735.30</ele>
        <time>2017-02-18T07:59:56Z</time>
      </trkpt>
      <trkpt lat="42.586080000" lon="-2.463617000">
        <ele>735.50</ele>
        <time>2017-02-18T07:59:57Z</time>
      </trkpt>
      <trkpt lat="42.586096000" lon="-2.463611000">
        <ele>735.60</ele>
        <time>2017-02-18T07:59:58Z</time>
      </trkpt>
      <trkpt lat="42.586110000" lon="-2.463609000">
        <ele>735.70</ele>
        <time>2017-02-18T07:59:59Z</time>
      </trkpt>
      <trkpt lat="42.586122000" lon="-2.463602000">
        <ele>735.70</ele>
        <time>2017-02-18T08:00:00Z</time>
      </trkpt>
      <trkpt lat="42.586132000" lon="-2.463597000">
        <ele>735.70</ele>
        <time>2017-02-18T08:00:01Z</time>
      </trkpt>
      <trkpt lat="42.586146000" lon="-2.463597000">
        <ele>735.80</ele>
        <time>2017-02-18T08:00:02Z</time>
      </trkpt>
      <trkpt lat="42.586158000" lon="-2.463593000">
        <ele>735.90</ele>
        <time>2017-02-18T08:00:03Z</time>
      </trkpt>
      <trkpt lat="42.586168000" lon="-2.463590000">
        <ele>736.00</ele>
        <time>2017-02-18T08:00:04Z</time>
      </trkpt>
      <trkpt lat="42.586181000" lon="-2.463585000">
        <ele>736.00</ele>
        <time>2017-02-18T08:00:05Z</time>
      </trkpt>
      <trkpt lat="42.586197000" lon="-2.463582000">
        <ele>736.10</ele>
        <time>2017-02-18T08:00:06Z</time>
      </trkpt>
      <trkpt lat="42.586209000" lon="-2.463574000">
        <ele>736.20</ele>
        <time>2017-02-18T08:00:07Z</time>
      </trkpt>
      <trkpt lat="42.586225000" lon="-2.463565000">
        <ele>736.40</ele>
        <time>2017-02-18T08:00:08Z</time>
      </trkpt>
      <trkpt lat="42.586239000" lon="-2.463559000">
        <ele>736.50</ele>
        <time>2017-02-18T08:00:09Z</time>
      </trkpt>
      <trkpt lat="42.586252000" lon="-2.463554000">
        <ele>736.60</ele>
        <time>2017-02-18T08:00:10Z</time>
      </trkpt>
      <trkpt lat="42.586266000" lon="-2.463550000">
        <ele>736.70</ele>
        <time>2017-02-18T08:00:11Z</time>
      </trkpt>
      <trkpt lat="42.586281000" lon="-2.463544000">
        <ele>736.90</ele>
        <time>2017-02-18T08:00:12Z</time>
      </trkpt>
      <trkpt lat="42.586296000" lon="-2.463536000">
        <ele>737.00</ele>
        <time>2017-02-18T08:00:13Z</time>
      </trkpt>
      <trkpt lat="42.586310000" lon="-2.463533000">
        <ele>737.00</ele>
        <time>2017-02-18T08:00:14Z</time>
      </trkpt>
      <trkpt lat="42.586325000" lon="-2.463526000">
        <ele>737.00</ele>
        <time>2017-02-18T08:00:15Z</time>
      </trkpt>
      <trkpt lat="42.586336000" lon="-2.463525000">
        <ele>737.10</ele>
        <time>2017-02-18T08:00:16Z</time>
      </trkpt>
      <trkpt lat="42.586349000" lon="-2.463517000">
        <ele>737.20</ele>
        <time>2017-02-18T08:00:17Z</time>
      </trkpt>
      <trkpt lat="42.586360000" lon="-2.463513000">
        <ele>737.50</ele>
        <time>2017-02-18T08:00:18Z</time>
      </trkpt>
      <trkpt lat="42.586377000" lon="-2.463510000">
        <ele>737.70</ele>
        <time>2017-02-18T08:00:19Z</time>
      </trkpt>
      <trkpt lat="42.586392000" lon="-2.463500000">
        <ele>737.80</ele>
        <time>2017-02-18T08:00:20Z</time>
      </trkpt>
      <trkpt lat="42.586406000" lon="-2.463496000">
        <ele>737.90</ele>
        <time>2017-02-18T08:00:21Z</time>
      </trkpt>
      <trkpt lat="42.586418000" lon="-2.463490000">
        <ele>738.10</ele>
        <time>2017-02-18T08:00:22Z</time>
      </trkpt>
      <trkpt lat="42.586433000" lon="-2.463486000">
        <ele>738.20</ele>
        <time>2017-02-18T08:00:23Z</time>
      </trkpt>
      <trkpt lat="42.586446000" lon="-2.463480000">
        <ele>738.40</ele>
        <time>2017-02-18T08:00:24Z</time>
      </trkpt>
      <trkpt lat="42.586460000" lon="-2.463477000">
        <ele>738.50</ele>
        <time>2017-02-18T08:00:25Z</time>
      </trkpt>
      <trkpt lat="42.586473000" lon="-2.463469000">
        <ele>738.70</ele>
        <time>2017-02-18T08:00:26Z</time>
      </trkpt>
      <trkpt lat="42.586488000" lon="-2.463461000">
        <ele>738.90</ele>
        <time>2017-02-18T08:00:27Z</time>
      </trkpt>
      <trkpt lat="42.586504000" lon="-2.463455000">
        <ele>739.10</ele>
        <time>2017-02-18T08:00:28Z</time>
      </trkpt>
      <trkpt lat="42.586518000" lon="-2.463452000">
        <ele>739.30</ele>
        <time>2017-02-18T08:00:29Z</time>
      </trkpt>
      <trkpt lat="42.586532000" lon="-2.463445000">
        <ele>739.50</ele>
        <time>2017-02-18T08:00:30Z</time>
      </trkpt>
      <trkpt lat="42.586545000" lon="-2.463441000">
        <ele>739.60</ele>
        <time>2017-02-18T08:00:31Z</time>
      </trkpt>
      <trkpt lat="42.586557000" lon="-2.463439000">
        <ele>739.70</ele>
        <time>2017-02-18T08:00:32Z</time>
      </trkpt>
      <trkpt lat="42.586572000" lon="-2.463432000">
        <ele>739.70</ele>
        <time>2017-02-18T08:00:33Z</time>
      </trkpt>
      <trkpt lat="42.586584000" lon="-2.463425000">
        <ele>739.80</ele>
        <time>2017-02-18T08:00:34Z</time>
      </trkpt>
      <trkpt lat="42.586594000" lon="-2.463419000">
        <ele>739.80</ele>
        <time>2017-02-18T08:00:35Z</time>
      </trkpt>
      <trkpt lat="42.586608000" lon="-2.463414000">
        <ele>739.90</ele>
        <time>2017-02-18T08:00:36Z</time>
      </trkpt>
      <trkpt lat="42.586624000" lon="-2.463410000">
        <ele>740.00</ele>
        <time>2017-02-18T08:00:37Z</time>
      </trkpt>
      <trkpt lat="42.586634000" lon="-2.463403000">
        <ele>740.20</ele>
        <time>2017-02-18T08:00:38Z</time>
      </trkpt>
      <trkpt lat="42.586644000" lon="-2.463393000">
        <ele>740.30</ele>
        <time>2017-02-18T08:00:39Z</time>
      </trkpt>
      <trkpt lat="42.586658000" lon="-2.463389000">
        <ele>740.60</ele>
        <time>2017-02-18T08:00:40Z</time>
      </trkpt>
      <trkpt lat="42.586670000" lon="-2.463381000">
        <ele>740.80</ele>
        <time>2017-02-18T08:00:41Z</time>
      </trkpt>
      <trkpt lat="42.586688000" lon="-2.463379000">
        <ele>741.00</ele>
        <time>2017-02-18T08:00:42Z</time>
      </trkpt>
      <trkpt lat="42.586705000" lon="-2.463379000">
        <ele>741.10</ele>
        <time>2017-02-18T08:00:43Z</time>
      </trkpt>
      <trkpt lat="42.586720000" lon="-2.463377000">
        <ele>741.20</ele>
        <time>2017-02-18T08:00:44Z</time>
      </trkpt>
      <trkpt lat="42.586734000" lon="-2.463370000">
        <ele>741.30</ele>
        <time>2017-02-18T08:00:45Z</time>
      </trkpt>
      <trkpt lat="42.586750000" lon="-2.463367000">
        <ele>741.40</ele>
        <time>2017-02-18T08:00:46Z</time>
      </trkpt>
      <trkpt lat="42.586768000" lon="-2.463359000">
        <ele>741.50</ele>
        <time>2017-02-18T08:00:47Z</time>
      </trkpt>
      <trkpt lat="42.586783000" lon="-2.463356000">
        <ele>742.00</ele>
        <time>2017-02-18T08:00:48Z</time>
      </trkpt>
      <trkpt lat="42.586800000" lon="-2.463354000">
        <ele>742.30</ele>
        <time>2017-02-18T08:00:49Z</time>
      </trkpt>
      <trkpt lat="42.586814000" lon="-2.463347000">
        <ele>742.70</ele>
        <time>2017-02-18T08:00:50Z</time>
      </trkpt>
      <trkpt lat="42.586844000" lon="-2.463342000">
        <ele>743.30</ele>
        <time>2017-02-18T08:00:52Z</time>
      </trkpt>
      <trkpt lat="42.586860000" lon="-2.463336000">
        <ele>743.60</ele>
        <time>2017-02-18T08:00:53Z</time>
      </trkpt>
      <trkpt lat="42.586874000" lon="-2.463326000">
        <ele>743.90</ele>
        <time>2017-02-18T08:00:54Z</time>
      </trkpt>
      <trkpt lat="42.586888000" lon="-2.463327000">
        <ele>744.00</ele>
        <time>2017-02-18T08:00:55Z</time>
      </trkpt>
      <trkpt lat="42.586898000" lon="-2.463328000">
        <ele>744.20</ele>
        <time>2017-02-18T08:00:56Z</time>
      </trkpt>
      <trkpt lat="42.586911000" lon="-2.463324000">
        <ele>744.40</ele>
        <time>2017-02-18T08:00:57Z</time>
      </trkpt>
      <trkpt lat="42.586923000" lon="-2.463321000">
        <ele>744.70</ele>
        <time>2017-02-18T08:00:58Z</time>
      </trkpt>
      <trkpt lat="42.586939000" lon="-2.463316000">
        <ele>745.00</ele>
        <time>2017-02-18T08:00:59Z</time>
      </trkpt>
      <trkpt lat="42.586954000" lon="-2.463313000">
        <ele>745.20</ele>
        <time>2017-02-18T08:01:00Z</time>
      </trkpt>
      <trkpt lat="42.586967000" lon="-2.463312000">
        <ele>745.40</ele>
        <time>2017-02-18T08:01:01Z</time>
      </trkpt>
      <trkpt lat="42.586980000" lon="-2.463309000">
        <ele>745.60</ele>
        <time>2017-02-18T08:01:02Z</time>
      </trkpt>
      <trkpt lat="42.586992000" lon="-2.463306000">
        <ele>745.70</ele>
        <time>2017-02-18T08:01:03Z</time>
      </trkpt>
      <trkpt lat="42.587006000" lon="-2.463306000">
        <ele>745.90</ele>
        <time>2017-02-18T08:01:04Z</time>
      </trkpt>
      <trkpt lat="42.587019000" lon="-2.463307000">
        <ele>746.00</ele>
        <time>2017-02-18T08:01:05Z</time>
      </trkpt>
      <trkpt lat="42.587031000" lon="-2.463309000">
        <ele>746.20</ele>
        <time>2017-02-18T08:01:06Z</time>
      </trkpt>
      <trkpt lat="42.587043000" lon="-2.463305000">
        <ele>746.30</ele>
        <time>2017-02-18T08:01:07Z</time>
      </trkpt>
      <trkpt lat="42.587057000" lon="-2.463306000">
        <ele>746.60</ele>
        <time>2017-02-18T08:01:08Z</time>
      </trkpt>
      <trkpt lat="42.587070000" lon="-2.463305000">
        <ele>746.70</ele>
        <time>2017-02-18T08:01:09Z</time>
      </trkpt>
      <trkpt lat="42.587084000" lon="-2.463305000">
        <ele>746.90</ele>
        <time>2017-02-18T08:01:10Z</time>
      </trkpt>
      <trkpt lat="42.587097000" lon="-2.463303000">
        <ele>747.00</ele>
        <time>2017-02-18T08:01:11Z</time>
      </trkpt>
      <trkpt lat="42.587107000" lon="-2.463301000">
        <ele>747.10</ele>
        <time>2017-02-18T08:01:12Z</time>
      </trkpt>
      <trkpt lat="42.587116000" lon="-2.463302000">
        <ele>747.20</ele>
        <time>2017-02-18T08:01:13Z</time>
      </trkpt>
      <trkpt lat="42.587124000" lon="-2.463302000">
        <ele>747.40</ele>
        <time>2017-02-18T08:01:14Z</time>
      </trkpt>
      <trkpt lat="42.587129000" lon="-2.463296000">
        <ele>747.50</ele>
        <time>2017-02-18T08:01:15Z</time>
      </trkpt>
      <trkpt lat="42.587139000" lon="-2.463294000">
        <ele>747.60</ele>
        <time>2017-02-18T08:01:16Z</time>
      </trkpt>
      <trkpt lat="42.587145000" lon="-2.463295000">
        <ele>747.60</ele>
        <time>2017-02-18T08:01:17Z</time>
      </trkpt>
      <trkpt lat="42.587158000" lon="-2.463295000">
        <ele>747.70</ele>
        <time>2017-02-18T08:01:18Z</time>
      </trkpt>
      <trkpt lat="42.587168000" lon="-2.463296000">
        <ele>747.80</ele>
        <time>2017-02-18T08:01:19Z</time>
      </trkpt>
      <trkpt lat="42.587177000" lon="-2.463290000">
        <ele>747.90</ele>
        <time>2017-02-18T08:01:20Z</time>
      </trkpt>
      <trkpt lat="42.587186000" lon="-2.463288000">
        <ele>747.90</ele>
        <time>2017-02-18T08:01:21Z</time>
      </trkpt>
      <trkpt lat="42.587197000" lon="-2.463287000">
        <ele>748.00</ele>
        <time>2017-02-18T08:01:22Z</time>
      </trkpt>
      <trkpt lat="42.587208000" lon="-2.463284000">
        <ele>748.00</ele>
        <time>2017-02-18T08:01:23Z</time>
      </trkpt>
      <trkpt lat="42.587215000" lon="-2.463286000">
        <ele>748.00</ele>
        <time>2017-02-18T08:01:24Z</time>
      </trkpt>
      <trkpt lat="42.587223000" lon="-2.463284000">
        <ele>747.90</ele>
        <time>2017-02-18T08:01:25Z</time>
      </trkpt>
      <trkpt lat="42.587231000" lon="-2.463284000">
        <ele>748.00</ele>
        <time>2017-02-18T08:01:26Z</time>
      </trkpt>
      <trkpt lat="42.587236000" lon="-2.463280000">
        <ele>748.10</ele>
        <time>2017-02-18T08:01:27Z</time>
      </trkpt>
      <trkpt lat="42.587244000" lon="-2.463281000">
        <ele>748.20</ele>
        <time>2017-02-18T08:01:28Z</time>
      </trkpt>
      <trkpt lat="42.587252000" lon="-2.463272000">
        <ele>748.30</ele>
        <time>2017-02-18T08:01:29Z</time>
      </trkpt>
      <trkpt lat="42.587262000" lon="-2.463271000">
        <ele>748.30</ele>
        <time>2017-02-18T08:01:30Z</time>
      </trkpt>
      <trkpt lat="42.587273000" lon="-2.463270000">
        <ele>748.30</ele>
        <time>2017-02-18T08:01:31Z</time>
      </trkpt>
      <trkpt lat="42.587285000" lon="-2.463275000">
        <ele>748.40</ele>
        <time>2017-02-18T08:01:32Z</time>
      </trkpt>
      <trkpt lat="42.587301000" lon="-2.463281000">
        <ele>748.50</ele>
        <time>2017-02-18T08:01:33Z</time>
      </trkpt>
      <trkpt lat="42.587313000" lon="-2.463283000">
        <ele>748.50</ele>
        <time>2017-02-18T08:01:34Z</time>
      </trkpt>
      <trkpt lat="42.587326000" lon="-2.463287000">
        <ele>748.60</ele>
        <time>2017-02-18T08:01:35Z</time>
      </trkpt>
      <trkpt lat="42.587339000" lon="-2.463289000">
        <ele>748.70</ele>
        <time>2017-02-18T08:01:36Z</time>
      </trkpt>
      <trkpt lat="42.587352000" lon="-2.463299000">
        <ele>748.70</ele>
        <time>2017-02-18T08:01:37Z</time>
      </trkpt>
      <trkpt lat="42.587368000" lon="-2.463304000">
        <ele>748.80</ele>
        <time>2017-02-18T08:01:38Z</time>
      </trkpt>
      <trkpt lat="42.587380000" lon="-2.463310000">
        <ele>748.80</ele>
        <time>2017-02-18T08:01:39Z</time>
      </trkpt>
      <trkpt lat="42.587394000" lon="-2.463316000">
        <ele>748.80</ele>
        <time>2017-02-18T08:01:40Z</time>
      </trkpt>
      <trkpt lat="42.587410000" lon="-2.463322000">
        <ele>748.80</ele>
        <time>2017-02-18T08:01:41Z</time>
      </trkpt>
      <trkpt lat="42.587427000" lon="-2.463328000">
        <ele>748.80</ele>
        <time>2017-02-18T08:01:42Z</time>
      </trkpt>
      <trkpt lat="42.587443000" lon="-2.463338000">
        <ele>748.90</ele>
        <time>2017-02-18T08:01:43Z</time>
      </trkpt>
      <trkpt lat="42.587456000" lon="-2.463348000">
        <ele>749.00</ele>
        <time>2017-02-18T08:01:44Z</time>
      </trkpt>
      <trkpt lat="42.587468000" lon="-2.463358000">
        <ele>749.10</ele>
        <time>2017-02-18T08:01:45Z</time>
      </trkpt>
      <trkpt lat="42.587483000" lon="-2.463371000">
        <ele>749.20</ele>
        <time>2017-02-18T08:01:46Z</time>
      </trkpt>
      <trkpt lat="42.587501000" lon="-2.463383000">
        <ele>749.40</ele>
        <time>2017-02-18T08:01:47Z</time>
      </trkpt>
      <trkpt lat="42.587515000" lon="-2.463394000">
        <ele>749.40</ele>
        <time>2017-02-18T08:01:48Z</time>
      </trkpt>
      <trkpt lat="42.587526000" lon="-2.463403000">
        <ele>749.50</ele>
        <time>2017-02-18T08:01:49Z</time>
      </trkpt>
      <trkpt lat="42.587539000" lon="-2.463413000">
        <ele>749.60</ele>
        <time>2017-02-18T08:01:50Z</time>
      </trkpt>
      <trkpt lat="42.587557000" lon="-2.463425000">
        <ele>749.70</ele>
        <time>2017-02-18T08:01:51Z</time>
      </trkpt>
      <trkpt lat="42.587596000" lon="-2.463456000">
        <ele>749.80</ele>
        <time>2017-02-18T08:01:53Z</time>
      </trkpt>
      <trkpt lat="42.587615000" lon="-2.463468000">
        <ele>749.80</ele>
        <time>2017-02-18T08:01:54Z</time>
      </trkpt>
      <trkpt lat="42.587629000" lon="-2.463479000">
        <ele>749.90</ele>
        <time>2017-02-18T08:01:55Z</time>
      </trkpt>
      <trkpt lat="42.587641000" lon="-2.463492000">
        <ele>749.90</ele>
        <time>2017-02-18T08:01:56Z</time>
      </trkpt>
      <trkpt lat="42.587653000" lon="-2.463509000">
        <ele>749.90</ele>
        <time>2017-02-18T08:01:57Z</time>
      </trkpt>
      <trkpt lat="42.587671000" lon="-2.463524000">
        <ele>750.00</ele>
        <time>2017-02-18T08:01:58Z</time>
      </trkpt>
      <trkpt lat="42.587687000" lon="-2.463537000">
        <ele>750.10</ele>
        <time>2017-02-18T08:01:59Z</time>
      </trkpt>
      <trkpt lat="42.587698000" lon="-2.463552000">
        <ele>750.10</ele>
        <time>2017-02-18T08:02:00Z</time>
      </trkpt>
      <trkpt lat="42.587709000" lon="-2.463563000">
        <ele>750.20</ele>
        <time>2017-02-18T08:02:01Z</time>
      </trkpt>
      <trkpt lat="42.587724000" lon="-2.463573000">
        <ele>750.20</ele>
        <time>2017-02-18T08:02:02Z</time>
      </trkpt>
      <trkpt lat="42.587737000" lon="-2.463582000">
        <ele>750.20</ele>
        <time>2017-02-18T08:02:03Z</time>
      </trkpt>
      <trkpt lat="42.587750000" lon="-2.463592000">
        <ele>750.20</ele>
        <time>2017-02-18T08:02:04Z</time>
      </trkpt>
      <trkpt lat="42.587764000" lon="-2.463610000">
        <ele>750.20</ele>
        <time>2017-02-18T08:02:05Z</time>
      </trkpt>
      <trkpt lat="42.587780000" lon="-2.463620000">
        <ele>750.20</ele>
        <time>2017-02-18T08:02:06Z</time>
      </trkpt>
      <trkpt lat="42.587792000" lon="-2.463618000">
        <ele>750.10</ele>
        <time>2017-02-18T08:02:07Z</time>
      </trkpt>
      <trkpt lat="42.587806000" lon="-2.463619000">
        <ele>750.00</ele>
        <time>2017-02-18T08:02:08Z</time>
      </trkpt>
      <trkpt lat="42.587819000" lon="-2.463622000">
        <ele>750.00</ele>
        <time>2017-02-18T08:02:09Z</time>
      </trkpt>
      <trkpt lat="42.587833000" lon="-2.463623000">
        <ele>750.00</ele>
        <time>2017-02-18T08:02:10Z</time>
      </trkpt>
      <trkpt lat="42.587852000" lon="-2.463627000">
        <ele>750.00</ele>
        <time>2017-02-18T08:02:11Z</time>
      </trkpt>
      <trkpt lat="42.587873000" lon="-2.463627000">
        <ele>750.00</ele>
        <time>2017-02-18T08:02:12Z</time>
      </trkpt>
      <trkpt lat="42.587893000" lon="-2.463626000">
        <ele>750.00</ele>
        <time>2017-02-18T08:02:13Z</time>
      </trkpt>
      <trkpt lat="42.587913000" lon="-2.463626000">
        <ele>750.20</ele>
        <time>2017-02-18T08:02:14Z</time>
      </trkpt>
      <trkpt lat="42.587926000" lon="-2.463627000">
        <ele>750.40</ele>
        <time>2017-02-18T08:02:15Z</time>
      </trkpt>
      <trkpt lat="42.587940000" lon="-2.463627000">
        <ele>750.40</ele>
        <time>2017-02-18T08:02:16Z</time>
      </trkpt>
      <trkpt lat="42.587953000" lon="-2.463626000">
        <ele>750.30</ele>
        <time>2017-02-18T08:02:17Z</time>
      </trkpt>
      <trkpt lat="42.587968000" lon="-2.463626000">
        <ele>750.30</ele>
        <time>2017-02-18T08:02:18Z</time>
      </trkpt>
      <trkpt lat="42.587983000" lon="-2.463622000">
        <ele>750.30</ele>
        <time>2017-02-18T08:02:19Z</time>
      </trkpt>
      <trkpt lat="42.587997000" lon="-2.463610000">
        <ele>750.30</ele>
        <time>2017-02-18T08:02:20Z</time>
      </trkpt>
      <trkpt lat="42.588012000" lon="-2.463604000">
        <ele>750.30</ele>
        <time>2017-02-18T08:02:21Z</time>
      </trkpt>
      <trkpt lat="42.588027000" lon="-2.463604000">
        <ele>750.30</ele>
        <time>2017-02-18T08:02:22Z</time>
      </trkpt>
      <trkpt lat="42.588047000" lon="-2.463596000">
        <ele>750.30</ele>
        <time>2017-02-18T08:02:23Z</time>
      </trkpt>
      <trkpt lat="42.588066000" lon="-2.463589000">
        <ele>750.40</ele>
        <time>2017-02-18T08:02:24Z</time>
      </trkpt>
      <trkpt lat="42.588083000" lon="-2.463578000">
        <ele>750.40</ele>
        <time>2017-02-18T08:02:25Z</time>
      </trkpt>
      <trkpt lat="42.588096000" lon="-2.463571000">
        <ele>750.40</ele>
        <time>2017-02-18T08:02:26Z</time>
      </trkpt>
      <trkpt lat="42.588110000" lon="-2.463560000">
        <ele>750.40</ele>
        <time>2017-02-18T08:02:27Z</time>
      </trkpt>
      <trkpt lat="42.588126000" lon="-2.463556000">
        <ele>750.40</ele>
        <time>2017-02-18T08:02:28Z</time>
      </trkpt>
      <trkpt lat="42.588142000" lon="-2.463546000">
        <ele>750.50</ele>
        <time>2017-02-18T08:02:29Z</time>
      </trkpt>
      <trkpt lat="42.588157000" lon="-2.463534000">
        <ele>750.50</ele>
        <time>2017-02-18T08:02:30Z</time>
      </trkpt>
      <trkpt lat="42.588170000" lon="-2.463520000">
        <ele>750.50</ele>
        <time>2017-02-18T08:02:31Z</time>
      </trkpt>
      <trkpt lat="42.588185000" lon="-2.463508000">
        <ele>750.60</ele>
        <time>2017-02-18T08:02:32Z</time>
      </trkpt>
      <trkpt lat="42.588198000" lon="-2.463497000">
        <ele>750.60</ele>
        <time>2017-02-18T08:02:33Z</time>
      </trkpt>
      <trkpt lat="42.588212000" lon="-2.463487000">
        <ele>750.80</ele>
        <time>2017-02-18T08:02:34Z</time>
      </trkpt>
      <trkpt lat="42.588226000" lon="-2.463476000">
        <ele>750.80</ele>
        <time>2017-02-18T08:02:35Z</time>
      </trkpt>
      <trkpt lat="42.588240000" lon="-2.463468000">
        <ele>751.00</ele>
        <time>2017-02-18T08:02:36Z</time>
      </trkpt>
      <trkpt lat="42.588253000" lon="-2.463463000">
        <ele>751.10</ele>
        <time>2017-02-18T08:02:37Z</time>
      </trkpt>
      <trkpt lat="42.588266000" lon="-2.463457000">
        <ele>751.10</ele>
        <time>2017-02-18T08:02:38Z</time>
      </trkpt>
      <trkpt lat="42.588278000" lon="-2.463447000">
        <ele>751.20</ele>
        <time>2017-02-18T08:02:39Z</time>
      </trkpt>
      <trkpt lat="42.588289000" lon="-2.463440000">
        <ele>751.30</ele>
        <time>2017-02-18T08:02:40Z</time>
      </trkpt>
      <trkpt lat="42.588301000" lon="-2.463435000">
        <ele>751.40</ele>
        <time>2017-02-18T08:02:41Z</time>
      </trkpt>
      <trkpt lat="42.588312000" lon="-2.463431000">
        <ele>751.50</ele>
        <time>2017-02-18T08:02:42Z</time>
      </trkpt>
      <trkpt lat="42.588324000" lon="-2.463424000">
        <ele>751.60</ele>
        <time>2017-02-18T08:02:43Z</time>
      </trkpt>
      <trkpt lat="42.588338000" lon="-2.463415000">
        <ele>751.80</ele>
        <time>2017-02-18T08:02:44Z</time>
      </trkpt>
      <trkpt lat="42.588352000" lon="-2.463413000">
        <ele>751.90</ele>
        <time>2017-02-18T08:02:45Z</time>
      </trkpt>
      <trkpt lat="42.588365000" lon="-2.463409000">
        <ele>751.90</ele>
        <time>2017-02-18T08:02:46Z</time>
      </trkpt>
      <trkpt lat="42.588380000" lon="-2.463408000">
        <ele>751.90</ele>
        <time>2017-02-18T08:02:47Z</time>
      </trkpt>
      <trkpt lat="42.588392000" lon="-2.463406000">
        <ele>751.90</ele>
        <time>2017-02-18T08:02:48Z</time>
      </trkpt>
      <trkpt lat="42.588407000" lon="-2.463402000">
        <ele>752.00</ele>
        <time>2017-02-18T08:02:49Z</time>
      </trkpt>
      <trkpt lat="42.588422000" lon="-2.463398000">
        <ele>752.00</ele>
        <time>2017-02-18T08:02:50Z</time>
      </trkpt>
      <trkpt lat="42.588435000" lon="-2.463396000">
        <ele>752.10</ele>
        <time>2017-02-18T08:02:51Z</time>
      </trkpt>
      <trkpt lat="42.588447000" lon="-2.463391000">
        <ele>752.40</ele>
        <time>2017-02-18T08:02:52Z</time>
      </trkpt>
      <trkpt lat="42.588469000" lon="-2.463391000">
        <ele>752.90</ele>
        <time>2017-02-18T08:02:54Z</time>
      </trkpt>
      <trkpt lat="42.588486000" lon="-2.463393000">
        <ele>753.10</ele>
        <time>2017-02-18T08:02:55Z</time>
      </trkpt>
      <trkpt lat="42.588500000" lon="-2.463393000">
        <ele>753.30</ele>
        <time>2017-02-18T08:02:56Z</time>
      </trkpt>
      <trkpt lat="42.588516000" lon="-2.463391000">
        <ele>753.50</ele>
        <time>2017-02-18T08:02:57Z</time>
      </trkpt>
      <trkpt lat="42.588530000" lon="-2.463389000">
        <ele>753.60</ele>
        <time>2017-02-18T08:02:58Z</time>
      </trkpt>
      <trkpt lat="42.588546000" lon="-2.463391000">
        <ele>753.70</ele>
        <time>2017-02-18T08:02:59Z</time>
      </trkpt>
      <trkpt lat="42.588560000" lon="-2.463395000">
        <ele>753.80</ele>
        <time>2017-02-18T08:03:00Z</time>
      </trkpt>
      <trkpt lat="42.588572000" lon="-2.463394000">
        <ele>753.90</ele>
        <time>2017-02-18T08:03:01Z</time>
      </trkpt>
      <trkpt lat="42.588586000" lon="-2.463391000">
        <ele>754.20</ele>
        <time>2017-02-18T08:03:02Z</time>
      </trkpt>
      <trkpt lat="42.588599000" lon="-2.463390000">
        <ele>754.40</ele>
        <time>2017-02-18T08:03:03Z</time>
      </trkpt>
      <trkpt lat="42.588610000" lon="-2.463388000">
        <ele>754.50</ele>
        <time>2017-02-18T08:03:04Z</time>
      </trkpt>
      <trkpt lat="42.588623000" lon="-2.463386000">
        <ele>754.70</ele>
        <time>2017-02-18T08:03:05Z</time>
      </trkpt>
      <trkpt lat="42.588637000" lon="-2.463379000">
        <ele>754.70</ele>
        <time>2017-02-18T08:03:06Z</time>
      </trkpt>
      <trkpt lat="42.588650000" lon="-2.463373000">
        <ele>754.80</ele>
        <time>2017-02-18T08:03:07Z</time>
      </trkpt>
      <trkpt lat="42.588664000" lon="-2.463371000">
        <ele>754.90</ele>
        <time>2017-02-18T08:03:08Z</time>
      </trkpt>
      <trkpt lat="42.588675000" lon="-2.463374000">
        <ele>755.00</ele>
        <time>2017-02-18T08:03:09Z</time>
      </trkpt>
      <trkpt lat="42.588684000" lon="-2.463367000">
        <ele>755.10</ele>
        <time>2017-02-18T08:03:10Z</time>
      </trkpt>
      <trkpt lat="42.588694000" lon="-2.463361000">
        <ele>755.10</ele>
        <time>2017-02-18T08:03:11Z</time>
      </trkpt>
      <trkpt lat="42.588706000" lon="-2.463360000">
        <ele>755.20</ele>
        <time>2017-02-18T08:03:12Z</time>
      </trkpt>
      <trkpt lat="42.588718000" lon="-2.463357000">
        <ele>755.20</ele>
        <time>2017-02-18T08:03:13Z</time>
      </trkpt>
      <trkpt lat="42.588727000" lon="-2.463349000">
        <ele>755.20</ele>
        <time>2017-02-18T08:03:14Z</time>
      </trkpt>
      <trkpt lat="42.588742000" lon="-2.463345000">
        <ele>755.20</ele>
        <time>2017-02-18T08:03:15Z</time>
      </trkpt>
      <trkpt lat="42.588754000" lon="-2.463337000">
        <ele>755.20</ele>
        <time>2017-02-18T08:03:16Z</time>
      </trkpt>
      <trkpt lat="42.588769000" lon="-2.463333000">
        <ele>755.20</ele>
        <time>2017-02-18T08:03:17Z</time>
      </trkpt>
      <trkpt lat="42.588781000" lon="-2.463327000">
        <ele>755.30</ele>
        <time>2017-02-18T08:03:18Z</time>
      </trkpt>
      <trkpt lat="42.588792000" lon="-2.463319000">
        <ele>755.30</ele>
        <time>2017-02-18T08:03:19Z</time>
      </trkpt>
      <trkpt lat="42.588806000" lon="-2.463308000">
        <ele>755.30</ele>
        <time>2017-02-18T08:03:20Z</time>
      </trkpt>
      <trkpt lat="42.588819000" lon="-2.463293000">
        <ele>755.30</ele>
        <time>2017-02-18T08:03:21Z</time>
      </trkpt>
      <trkpt lat="42.588831000" lon="-2.463281000">
        <ele>755.50</ele>
        <time>2017-02-18T08:03:22Z</time>
      </trkpt>
      <trkpt lat="42.588843000" lon="-2.463277000">
        <ele>755.60</ele>
        <time>2017-02-18T08:03:23Z</time>
      </trkpt>
      <trkpt lat="42.588852000" lon="-2.463273000">
        <ele>755.70</ele>
        <time>2017-02-18T08:03:24Z</time>
      </trkpt>
      <trkpt lat="42.588869000" lon="-2.463266000">
        <ele>755.70</ele>
        <time>2017-02-18T08:03:25Z</time>
      </trkpt>
      <trkpt lat="42.588882000" lon="-2.463258000">
        <ele>755.80</ele>
        <time>2017-02-18T08:03:26Z</time>
      </trkpt>
      <trkpt lat="42.588895000" lon="-2.463250000">
        <ele>755.90</ele>
        <time>2017-02-18T08:03:27Z</time>
      </trkpt>
      <trkpt lat="42.588907000" lon="-2.463242000">
        <ele>755.90</ele>
        <time>2017-02-18T08:03:28Z</time>
      </trkpt>
      <trkpt lat="42.588922000" lon="-2.463235000">
        <ele>756.00</ele>
        <time>2017-02-18T08:03:29Z</time>
      </trkpt>
      <trkpt lat="42.588932000" lon="-2.463228000">
        <ele>756.10</ele>
        <time>2017-02-18T08:03:30Z</time>
      </trkpt>
      <trkpt lat="42.588946000" lon="-2.463224000">
        <ele>756.10</ele>
        <time>2017-02-18T08:03:31Z</time>
      </trkpt>
      <trkpt lat="42.588965000" lon="-2.463218000">
        <ele>756.20</ele>
        <time>2017-02-18T08:03:32Z</time>
      </trkpt>
      <trkpt lat="42.588980000" lon="-2.463215000">
        <ele>756.20</ele>
        <time>2017-02-18T08:03:33Z</time>
      </trkpt>
      <trkpt lat="42.588996000" lon="-2.463213000">
        <ele>756.40</ele>
        <time>2017-02-18T08:03:34Z</time>
      </trkpt>
      <trkpt lat="42.589008000" lon="-2.463212000">
        <ele>756.50</ele>
        <time>2017-02-18T08:03:35Z</time>
      </trkpt>
      <trkpt lat="42.589022000" lon="-2.463204000">
        <ele>756.60</ele>
        <time>2017-02-18T08:03:36Z</time>
      </trkpt>
      <trkpt lat="42.589038000" lon="-2.463205000">
        <ele>756.70</ele>
        <time>2017-02-18T08:03:37Z</time>
      </trkpt>
      <trkpt lat="42.589052000" lon="-2.463202000">
        <ele>756.70</ele>
        <time>2017-02-18T08:03:38Z</time>
      </trkpt>
      <trkpt lat="42.589068000" lon="-2.463200000">
        <ele>756.80</ele>
        <time>2017-02-18T08:03:39Z</time>
      </trkpt>
      <trkpt lat="42.589080000" lon="-2.463196000">
        <ele>756.90</ele>
        <time>2017-02-18T08:03:40Z</time>
      </trkpt>
      <trkpt lat="42.589092000" lon="-2.463195000">
        <ele>756.90</ele>
        <time>2017-02-18T08:03:41Z</time>
      </trkpt>
      <trkpt lat="42.589103000" lon="-2.463196000">
        <ele>757.00</ele>
        <time>2017-02-18T08:03:42Z</time>
      </trkpt>
      <trkpt lat="42.589119000" lon="-2.463194000">
        <ele>757.00</ele>
        <time>2017-02-18T08:03:43Z</time>
      </trkpt>
      <trkpt lat="42.589135000" lon="-2.463192000">
        <ele>757.20</ele>
        <time>2017-02-18T08:03:44Z</time>
      </trkpt>
      <trkpt lat="42.589150000" lon="-2.463192000">
        <ele>757.30</ele>
        <time>2017-02-18T08:03:45Z</time>
      </trkpt>
      <trkpt lat="42.589167000" lon="-2.463186000">
        <ele>757.40</ele>
        <time>2017-02-18T08:03:46Z</time>
      </trkpt>
      <trkpt lat="42.589184000" lon="-2.463184000">
        <ele>757.50</ele>
        <time>2017-02-18T08:03:47Z</time>
      </trkpt>
      <trkpt lat="42.589202000" lon="-2.463180000">
        <ele>757.60</ele>
        <time>2017-02-18T08:03:48Z</time>
      </trkpt>
      <trkpt lat="42.589217000" lon="-2.463169000">
        <ele>757.70</ele>
        <time>2017-02-18T08:03:49Z</time>
      </trkpt>
      <trkpt lat="42.589228000" lon="-2.463162000">
        <ele>757.70</ele>
        <time>2017-02-18T08:03:50Z</time>
      </trkpt>
      <trkpt lat="42.589239000" lon="-2.463163000">
        <ele>757.80</ele>
        <time>2017-02-18T08:03:51Z</time>
      </trkpt>
      <trkpt lat="42.589253000" lon="-2.463165000">
        <ele>757.80</ele>
        <time>2017-02-18T08:03:52Z</time>
      </trkpt>
      <trkpt lat="42.589261000" lon="-2.463162000">
        <ele>757.90</ele>
        <time>2017-02-18T08:03:53Z</time>
      </trkpt>
      <trkpt lat="42.589284000" lon="-2.463157000">
        <ele>758.00</ele>
        <time>2017-02-18T08:03:55Z</time>
      </trkpt>
      <trkpt lat="42.589295000" lon="-2.463154000">
        <ele>758.10</ele>
        <time>2017-02-18T08:03:56Z</time>
      </trkpt>
      <trkpt lat="42.589308000" lon="-2.463151000">
        <ele>758.10</ele>
        <time>2017-02-18T08:03:57Z</time>
      </trkpt>
      <trkpt lat="42.589321000" lon="-2.463150000">
        <ele>758.10</ele>
        <time>2017-02-18T08:03:58Z</time>
      </trkpt>
      <trkpt lat="42.589335000" lon="-2.463146000">
        <ele>758.10</ele>
        <time>2017-02-18T08:03:59Z</time>
      </trkpt>
      <trkpt lat="42.589347000" lon="-2.463138000">
        <ele>758.20</ele>
        <time>2017-02-18T08:04:00Z</time>
      </trkpt>
      <trkpt lat="42.589362000" lon="-2.463131000">
        <ele>758.20</ele>
        <time>2017-02-18T08:04:01Z</time>
      </trkpt>
      <trkpt lat="42.589379000" lon="-2.463123000">
        <ele>758.30</ele>
        <time>2017-02-18T08:04:02Z</time>
      </trkpt>
      <trkpt lat="42.589395000" lon="-2.463110000">
        <ele>758.40</ele>
        <time>2017-02-18T08:04:03Z</time>
      </trkpt>
      <trkpt lat="42.589412000" lon="-2.463102000">
        <ele>758.50</ele>
        <time>2017-02-18T08:04:04Z</time>
      </trkpt>
      <trkpt lat="42.589432000" lon="-2.463093000">
        <ele>758.60</ele>
        <time>2017-02-18T08:04:05Z</time>
      </trkpt>
      <trkpt lat="42.589451000" lon="-2.463086000">
        <ele>758.50</ele>
        <time>2017-02-18T08:04:06Z</time>
      </trkpt>
      <trkpt lat="42.589469000" lon="-2.463076000">
        <ele>758.50</ele>
        <time>2017-02-18T08:04:07Z</time>
      </trkpt>
      <trkpt lat="42.589486000" lon="-2.463066000">
        <ele>758.50</ele>
        <time>2017-02-18T08:04:08Z</time>
      </trkpt>
      <trkpt lat="42.589501000" lon="-2.463064000">
        <ele>758.50</ele>
        <time>2017-02-18T08:04:09Z</time>
      </trkpt>
      <trkpt lat="42.589515000" lon="-2.463066000">
        <ele>758.60</ele>
        <time>2017-02-18T08:04:10Z</time>
      </trkpt>
      <trkpt lat="42.589527000" lon="-2.463066000">
        <ele>758.60</ele>
        <time>2017-02-18T08:04:11Z</time>
      </trkpt>
      <trkpt lat="42.589544000" lon="-2.463068000">
        <ele>758.60</ele>
        <time>2017-02-18T08:04:12Z</time>
      </trkpt>
      <trkpt lat="42.589559000" lon="-2.463077000">
        <ele>758.70</ele>
        <time>2017-02-18T08:04:13Z</time>
      </trkpt>
      <trkpt lat="42.589572000" lon="-2.463085000">
        <ele>758.60</ele>
        <time>2017-02-18T08:04:14Z</time>
      </trkpt>
      <trkpt lat="42.589585000" lon="-2.463100000">
        <ele>758.60</ele>
        <time>2017-02-18T08:04:15Z</time>
      </trkpt>
      <trkpt lat="42.589596000" lon="-2.463119000">
        <ele>758.60</ele>
        <time>2017-02-18T08:04:16Z</time>
      </trkpt>
      <trkpt lat="42.589607000" lon="-2.463145000">
        <ele>758.50</ele>
        <time>2017-02-18T08:04:17Z</time>
      </trkpt>
      <trkpt lat="42.589614000" lon="-2.463169000">
        <ele>758.70</ele>
        <time>2017-02-18T08:04:18Z</time>
      </trkpt>
      <trkpt lat="42.589620000" lon="-2.463190000">
        <ele>758.90</ele>
        <time>2017-02-18T08:04:19Z</time>
      </trkpt>
      <trkpt lat="42.589626000" lon="-2.463212000">
        <ele>759.00</ele>
        <time>2017-02-18T08:04:20Z</time>
      </trkpt>
      <trkpt lat="42.589632000" lon="-2.463237000">
        <ele>759.10</ele>
        <time>2017-02-18T08:04:21Z</time>
      </trkpt>
      <trkpt lat="42.589638000" lon="-2.463266000">
        <ele>759.30</ele>
        <time>2017-02-18T08:04:22Z</time>
      </trkpt>
      <trkpt lat="42.589644000" lon="-2.463297000">
        <ele>759.40</ele>
        <time>2017-02-18T08:04:23Z</time>
      </trkpt>
      <trkpt lat="42.589646000" lon="-2.463327000">
        <ele>759.50</ele>
        <time>2017-02-18T08:04:24Z</time>
      </trkpt>
      <trkpt lat="42.589649000" lon="-2.463349000">
        <ele>759.60</ele>
        <time>2017-02-18T08:04:25Z</time>
      </trkpt>
      <trkpt lat="42.589652000" lon="-2.463369000">
        <ele>759.80</ele>
        <time>2017-02-18T08:04:26Z</time>
      </trkpt>
      <trkpt lat="42.589654000" lon="-2.463396000">
        <ele>759.90</ele>
        <time>2017-02-18T08:04:27Z</time>
      </trkpt>
      <trkpt lat="42.589659000" lon="-2.463415000">
        <ele>760.50</ele>
        <time>2017-02-18T08:04:28Z</time>
      </trkpt>
      <trkpt lat="42.589665000" lon="-2.463437000">
        <ele>760.90</ele>
        <time>2017-02-18T08:04:29Z</time>
      </trkpt>
      <trkpt lat="42.589667000" lon="-2.463464000">
        <ele>761.20</ele>
        <time>2017-02-18T08:04:30Z</time>
      </trkpt>
      <trkpt lat="42.589670000" lon="-2.463489000">
        <ele>761.50</ele>
        <time>2017-02-18T08:04:31Z</time>
      </trkpt>
      <trkpt lat="42.589674000" lon="-2.463514000">
        <ele>761.70</ele>
        <time>2017-02-18T08:04:32Z</time>
      </trkpt>
      <trkpt lat="42.589680000" lon="-2.463540000">
        <ele>761.80</ele>
        <time>2017-02-18T08:04:33Z</time>
      </trkpt>
      <trkpt lat="42.589685000" lon="-2.463565000">
        <ele>762.10</ele>
        <time>2017-02-18T08:04:34Z</time>
      </trkpt>
      <trkpt lat="42.589689000" lon="-2.463588000">
        <ele>762.30</ele>
        <time>2017-02-18T08:04:35Z</time>
      </trkpt>
      <trkpt lat="42.589689000" lon="-2.463611000">
        <ele>762.40</ele>
        <time>2017-02-18T08:04:36Z</time>
      </trkpt>
      <trkpt lat="42.589696000" lon="-2.463633000">
        <ele>762.60</ele>
        <time>2017-02-18T08:04:37Z</time>
      </trkpt>
      <trkpt lat="42.589697000" lon="-2.463658000">
        <ele>762.60</ele>
        <time>2017-02-18T08:04:38Z</time>
      </trkpt>
      <trkpt lat="42.589697000" lon="-2.463684000">
        <ele>762.70</ele>
        <time>2017-02-18T08:04:39Z</time>
      </trkpt>
      <trkpt lat="42.589697000" lon="-2.463709000">
        <ele>762.90</ele>
        <time>2017-02-18T08:04:40Z</time>
      </trkpt>
      <trkpt lat="42.589703000" lon="-2.463734000">
        <ele>763.10</ele>
        <time>2017-02-18T08:04:41Z</time>
      </trkpt>
      <trkpt lat="42.589709000" lon="-2.463759000">
        <ele>763.40</ele>
        <time>2017-02-18T08:04:42Z</time>
      </trkpt>
      <trkpt lat="42.589713000" lon="-2.463787000">
        <ele>763.60</ele>
        <time>2017-02-18T08:04:43Z</time>
      </trkpt>
      <trkpt lat="42.589719000" lon="-2.463815000">
        <ele>763.80</ele>
        <time>2017-02-18T08:04:44Z</time>
      </trkpt>
      <trkpt lat="42.589722000" lon="-2.463842000">
        <ele>764.10</ele>
        <time>2017-02-18T08:04:45Z</time>
      </trkpt>
      <trkpt lat="42.589722000" lon="-2.463867000">
        <ele>764.30</ele>
        <time>2017-02-18T08:04:46Z</time>
      </trkpt>
      <trkpt lat="42.589722000" lon="-2.463894000">
        <ele>764.50</ele>
        <time>2017-02-18T08:04:47Z</time>
      </trkpt>
      <trkpt lat="42.589720000" lon="-2.463914000">
        <ele>764.60</ele>
        <time>2017-02-18T08:04:48Z</time>
      </trkpt>
      <trkpt lat="42.589719000" lon="-2.463934000">
        <ele>764.70</ele>
        <time>2017-02-18T08:04:49Z</time>
      </trkpt>
      <trkpt lat="42.589720000" lon="-2.463956000">
        <ele>764.80</ele>
        <time>2017-02-18T08:04:50Z</time>
      </trkpt>
      <trkpt lat="42.589727000" lon="-2.463977000">
        <ele>764.90</ele>
        <time>2017-02-18T08:04:51Z</time>
      </trkpt>
      <trkpt lat="42.589731000" lon="-2.464003000">
        <ele>765.10</ele>
        <time>2017-02-18T08:04:52Z</time>
      </trkpt>
      <trkpt lat="42.589735000" lon="-2.464026000">
        <ele>765.30</ele>
        <time>2017-02-18T08:04:53Z</time>
      </trkpt>
      <trkpt lat="42.589738000" lon="-2.464048000">
        <ele>765.50</ele>
        <time>2017-02-18T08:04:54Z</time>
      </trkpt>
      <trkpt lat="42.589738000" lon="-2.464091000">
        <ele>765.80</ele>
        <time>2017-02-18T08:04:56Z</time>
      </trkpt>
      <trkpt lat="42.589742000" lon="-2.464110000">
        <ele>765.90</ele>
        <time>2017-02-18T08:04:57Z</time>
      </trkpt>
      <trkpt lat="42.589746000" lon="-2.464131000">
        <ele>766.20</ele>
        <time>2017-02-18T08:04:58Z</time>
      </trkpt>
      <trkpt lat="42.589748000" lon="-2.464157000">
        <ele>766.40</ele>
        <time>2017-02-18T08:04:59Z</time>
      </trkpt>
      <trkpt lat="42.589752000" lon="-2.464176000">
        <ele>766.50</ele>
        <time>2017-02-18T08:05:00Z</time>
      </trkpt>
      <trkpt lat="42.589753000" lon="-2.464203000">
        <ele>766.70</ele>
        <time>2017-02-18T08:05:01Z</time>
      </trkpt>
      <trkpt lat="42.589755000" lon="-2.464223000">
        <ele>766.90</ele>
        <time>2017-02-18T08:05:02Z</time>
      </trkpt>
      <trkpt lat="42.589755000" lon="-2.464244000">
        <ele>767.00</ele>
        <time>2017-02-18T08:05:03Z</time>
      </trkpt>
      <trkpt lat="42.589758000" lon="-2.464267000">
        <ele>767.20</ele>
        <time>2017-02-18T08:05:04Z</time>
      </trkpt>
      <trkpt lat="42.589762000" lon="-2.464290000">
        <ele>767.30</ele>
        <time>2017-02-18T08:05:05Z</time>
      </trkpt>
      <trkpt lat="42.589763000" lon="-2.464314000">
        <ele>767.30</ele>
        <time>2017-02-18T08:05:06Z</time>
      </trkpt>
      <trkpt lat="42.589766000" lon="-2.464337000">
        <ele>767.40</ele>
        <time>2017-02-18T08:05:07Z</time>
      </trkpt>
      <trkpt lat="42.589772000" lon="-2.464359000">
        <ele>767.40</ele>
        <time>2017-02-18T08:05:08Z</time>
      </trkpt>
      <trkpt lat="42.589773000" lon="-2.464381000">
        <ele>767.40</ele>
        <time>2017-02-18T08:05:09Z</time>
      </trkpt>
      <trkpt lat="42.589775000" lon="-2.464401000">
        <ele>767.80</ele>
        <time>2017-02-18T08:05:10Z</time>
      </trkpt>
      <trkpt lat="42.589778000" lon="-2.464423000">
        <ele>768.10</ele>
        <time>2017-02-18T08:05:11Z</time>
      </trkpt>
      <trkpt lat="42.589780000" lon="-2.464445000">
        <ele>768.30</ele>
        <time>2017-02-18T08:05:12Z</time>
      </trkpt>
      <trkpt lat="42.589787000" lon="-2.464468000">
        <ele>768.40</ele>
        <time>2017-02-18T08:05:13Z</time>
      </trkpt>
      <trkpt lat="42.589792000" lon="-2.464490000">
        <ele>768.50</ele>
        <time>2017-02-18T08:05:14Z</time>
      </trkpt>
      <trkpt lat="42.589796000" lon="-2.464510000">
        <ele>768.50</ele>
        <time>2017-02-18T08:05:15Z</time>
      </trkpt>
      <trkpt lat="42.589801000" lon="-2.464522000">
        <ele>768.50</ele>
        <time>2017-02-18T08:05:16Z</time>
      </trkpt>
      <trkpt lat="42.589804000" lon="-2.464536000">
        <ele>768.40</ele>
        <time>2017-02-18T08:05:17Z</time>
      </trkpt>
      <trkpt lat="42.589808000" lon="-2.464549000">
        <ele>768.50</ele>
        <time>2017-02-18T08:05:18Z</time>
      </trkpt>
      <trkpt lat="42.589813000" lon="-2.464566000">
        <ele>768.50</ele>
        <time>2017-02-18T08:05:19Z</time>
      </trkpt>
      <trkpt lat="42.589816000" lon="-2.464585000">
        <ele>768.60</ele>
        <time>2017-02-18T08:05:20Z</time>
      </trkpt>
      <trkpt lat="42.589820000" lon="-2.464600000">
        <ele>768.70</ele>
        <time>2017-02-18T08:05:21Z</time>
      </trkpt>
      <trkpt lat="42.589826000" lon="-2.464616000">
        <ele>768.70</ele>
        <time>2017-02-18T08:05:22Z</time>
      </trkpt>
      <trkpt lat="42.589828000" lon="-2.464636000">
        <ele>768.80</ele>
        <time>2017-02-18T08:05:23Z</time>
      </trkpt>
      <trkpt lat="42.589832000" lon="-2.464655000">
        <ele>768.80</ele>
        <time>2017-02-18T08:05:24Z</time>
      </trkpt>
      <trkpt lat="42.589837000" lon="-2.464675000">
        <ele>768.80</ele>
        <time>2017-02-18T08:05:25Z</time>
      </trkpt>
      <trkpt lat="42.589838000" lon="-2.464698000">
        <ele>768.80</ele>
        <time>2017-02-18T08:05:26Z</time>
      </trkpt>
      <trkpt lat="42.589837000" lon="-2.464720000">
        <ele>768.80</ele>
        <time>2017-02-18T08:05:27Z</time>
      </trkpt>
      <trkpt lat="42.589837000" lon="-2.464743000">
        <ele>768.80</ele>
        <time>2017-02-18T08:05:28Z</time>
      </trkpt>
      <trkpt lat="42.589839000" lon="-2.464765000">
        <ele>768.90</ele>
        <time>2017-02-18T08:05:29Z</time>
      </trkpt>
      <trkpt lat="42.589845000" lon="-2.464792000">
        <ele>768.90</ele>
        <time>2017-02-18T08:05:30Z</time>
      </trkpt>
      <trkpt lat="42.589850000" lon="-2.464815000">
        <ele>768.90</ele>
        <time>2017-02-18T08:05:31Z</time>
      </trkpt>
      <trkpt lat="42.589856000" lon="-2.464841000">
        <ele>768.80</ele>
        <time>2017-02-18T08:05:32Z</time>
      </trkpt>
      <trkpt lat="42.589860000" lon="-2.464861000">
        <ele>768.80</ele>
        <time>2017-02-18T08:05:33Z</time>
      </trkpt>
      <trkpt lat="42.589866000" lon="-2.464884000">
        <ele>768.80</ele>
        <time>2017-02-18T08:05:34Z</time>
      </trkpt>
      <trkpt lat="42.589872000" lon="-2.464908000">
        <ele>768.70</ele>
        <time>2017-02-18T08:05:35Z</time>
      </trkpt>
      <trkpt lat="42.589875000" lon="-2.464928000">
        <ele>768.60</ele>
        <time>2017-02-18T08:05:36Z</time>
      </trkpt>
      <trkpt lat="42.589880000" lon="-2.464952000">
        <ele>768.60</ele>
        <time>2017-02-18T08:05:37Z</time>
      </trkpt>
      <trkpt lat="42.589880000" lon="-2.464973000">
        <ele>768.50</ele>
        <time>2017-02-18T08:05:38Z</time>
      </trkpt>
      <trkpt lat="42.589884000" lon="-2.464995000">
        <ele>768.50</ele>
        <time>2017-02-18T08:05:39Z</time>
      </trkpt>
      <trkpt lat="42.589890000" lon="-2.465020000">
        <ele>768.40</ele>
        <time>2017-02-18T08:05:40Z</time>
      </trkpt>
      <trkpt lat="42.589895000" lon="-2.465040000">
        <ele>768.40</ele>
        <time>2017-02-18T08:05:41Z</time>
      </trkpt>
      <trkpt lat="42.589898000" lon="-2.465067000">
        <ele>768.50</ele>
        <time>2017-02-18T08:05:42Z</time>
      </trkpt>
      <trkpt lat="42.589903000" lon="-2.465088000">
        <ele>768.60</ele>
        <time>2017-02-18T08:05:43Z</time>
      </trkpt>
      <trkpt lat="42.589911000" lon="-2.465109000">
        <ele>768.70</ele>
        <time>2017-02-18T08:05:44Z</time>
      </trkpt>
      <trkpt lat="42.589921000" lon="-2.465127000">
        <ele>768.70</ele>
        <time>2017-02-18T08:05:45Z</time>
      </trkpt>
      <trkpt lat="42.589933000" lon="-2.465144000">
        <ele>768.80</ele>
        <time>2017-02-18T08:05:46Z</time>
      </trkpt>
      <trkpt lat="42.589952000" lon="-2.465158000">
        <ele>768.80</ele>
        <time>2017-02-18T08:05:47Z</time>
      </trkpt>
      <trkpt lat="42.589967000" lon="-2.465164000">
        <ele>768.90</ele>
        <time>2017-02-18T08:05:48Z</time>
      </trkpt>
      <trkpt lat="42.589984000" lon="-2.465166000">
        <ele>769.00</ele>
        <time>2017-02-18T08:05:49Z</time>
      </trkpt>
      <trkpt lat="42.589998000" lon="-2.465161000">
        <ele>769.30</ele>
        <time>2017-02-18T08:05:50Z</time>
      </trkpt>
      <trkpt lat="42.590015000" lon="-2.465156000">
        <ele>769.50</ele>
        <time>2017-02-18T08:05:51Z</time>
      </trkpt>
      <trkpt lat="42.590029000" lon="-2.465144000">
        <ele>769.70</ele>
        <time>2017-02-18T08:05:52Z</time>
      </trkpt>
      <trkpt lat="42.590041000" lon="-2.465132000">
        <ele>769.90</ele>
        <time>2017-02-18T08:05:53Z</time>
      </trkpt>
      <trkpt lat="42.590053000" lon="-2.465117000">
        <ele>770.10</ele>
        <time>2017-02-18T08:05:54Z</time>
      </trkpt>
      <trkpt lat="42.590067000" lon="-2.465116000">
        <ele>770.20</ele>
        <time>2017-02-18T08:05:55Z</time>
      </trkpt>
      <trkpt lat="42.590087000" lon="-2.465109000">
        <ele>770.50</ele>
        <time>2017-02-18T08:05:57Z</time>
      </trkpt>
      <trkpt lat="42.590099000" lon="-2.465105000">
        <ele>770.60</ele>
        <time>2017-02-18T08:05:58Z</time>
      </trkpt>
      <trkpt lat="42.590108000" lon="-2.465098000">
        <ele>770.70</ele>
        <time>2017-02-18T08:05:59Z</time>
      </trkpt>
      <trkpt lat="42.590116000" lon="-2.465088000">
        <ele>770.80</ele>
        <time>2017-02-18T08:06:00Z</time>
      </trkpt>
      <trkpt lat="42.590123000" lon="-2.465083000">
        <ele>770.80</ele>
        <time>2017-02-18T08:06:01Z</time>
      </trkpt>
      <trkpt lat="42.590135000" lon="-2.465077000">
        <ele>770.90</ele>
        <time>2017-02-18T08:06:02Z</time>
      </trkpt>
      <trkpt lat="42.590150000" lon="-2.465077000">
        <ele>770.90</ele>
        <time>2017-02-18T08:06:03Z</time>
      </trkpt>
      <trkpt lat="42.590163000" lon="-2.465069000">
        <ele>771.10</ele>
        <time>2017-02-18T08:06:04Z</time>
      </trkpt>
      <trkpt lat="42.590172000" lon="-2.465065000">
        <ele>771.20</ele>
        <time>2017-02-18T08:06:05Z</time>
      </trkpt>
      <trkpt lat="42.590182000" lon="-2.465054000">
        <ele>771.40</ele>
        <time>2017-02-18T08:06:06Z</time>
      </trkpt>
      <trkpt lat="42.590190000" lon="-2.465047000">
        <ele>771.60</ele>
        <time>2017-02-18T08:06:07Z</time>
      </trkpt>
      <trkpt lat="42.590203000" lon="-2.465039000">
        <ele>771.80</ele>
        <time>2017-02-18T08:06:08Z</time>
      </trkpt>
      <trkpt lat="42.590214000" lon="-2.465029000">
        <ele>772.00</ele>
        <time>2017-02-18T08:06:09Z</time>
      </trkpt>
      <trkpt lat="42.590224000" lon="-2.465019000">
        <ele>772.20</ele>
        <time>2017-02-18T08:06:10Z</time>
      </trkpt>
      <trkpt lat="42.590236000" lon="-2.465016000">
        <ele>772.30</ele>
        <time>2017-02-18T08:06:11Z</time>
      </trkpt>
      <trkpt lat="42.590243000" lon="-2.465005000">
        <ele>772.50</ele>
        <time>2017-02-18T08:06:12Z</time>
      </trkpt>
      <trkpt lat="42.590253000" lon="-2.464996000">
        <ele>772.60</ele>
        <time>2017-02-18T08:06:13Z</time>
      </trkpt>
      <trkpt lat="42.590263000" lon="-2.464988000">
        <ele>772.70</ele>
        <time>2017-02-18T08:06:14Z</time>
      </trkpt>
      <trkpt lat="42.590272000" lon="-2.464985000">
        <ele>772.70</ele>
        <time>2017-02-18T08:06:15Z</time>
      </trkpt>
      <trkpt lat="42.590282000" lon="-2.464980000">
        <ele>772.80</ele>
        <time>2017-02-18T08:06:16Z</time>
      </trkpt>
      <trkpt lat="42.590294000" lon="-2.464972000">
        <ele>772.80</ele>
        <time>2017-02-18T08:06:17Z</time>
      </trkpt>
      <trkpt lat="42.590306000" lon="-2.464965000">
        <ele>772.80</ele>
        <time>2017-02-18T08:06:18Z</time>
      </trkpt>
      <trkpt lat="42.590316000" lon="-2.464958000">
        <ele>772.80</ele>
        <time>2017-02-18T08:06:19Z</time>
      </trkpt>
      <trkpt lat="42.590325000" lon="-2.464949000">
        <ele>773.20</ele>
        <time>2017-02-18T08:06:20Z</time>
      </trkpt>
      <trkpt lat="42.590331000" lon="-2.464941000">
        <ele>773.50</ele>
        <time>2017-02-18T08:06:21Z</time>
      </trkpt>
      <trkpt lat="42.590340000" lon="-2.464933000">
        <ele>773.70</ele>
        <time>2017-02-18T08:06:22Z</time>
      </trkpt>
      <trkpt lat="42.590347000" lon="-2.464923000">
        <ele>773.90</ele>
        <time>2017-02-18T08:06:23Z</time>
      </trkpt>
      <trkpt lat="42.590355000" lon="-2.464917000">
        <ele>774.10</ele>
        <time>2017-02-18T08:06:24Z</time>
      </trkpt>
      <trkpt lat="42.590365000" lon="-2.464911000">
        <ele>774.20</ele>
        <time>2017-02-18T08:06:25Z</time>
      </trkpt>
      <trkpt lat="42.590372000" lon="-2.464903000">
        <ele>774.40</ele>
        <time>2017-02-18T08:06:26Z</time>
      </trkpt>
      <trkpt lat="42.590384000" lon="-2.464899000">
        <ele>774.50</ele>
        <time>2017-02-18T08:06:27Z</time>
      </trkpt>
      <trkpt lat="42.590394000" lon="-2.464896000">
        <ele>774.80</ele>
        <time>2017-02-18T08:06:28Z</time>
      </trkpt>
      <trkpt lat="42.590404000" lon="-2.464888000">
        <ele>775.00</ele>
        <time>2017-02-18T08:06:29Z</time>
      </trkpt>
      <trkpt lat="42.590416000" lon="-2.464884000">
        <ele>775.10</ele>
        <time>2017-02-18T08:06:30Z</time>
      </trkpt>
      <trkpt lat="42.590427000" lon="-2.464875000">
        <ele>775.30</ele>
        <time>2017-02-18T08:06:31Z</time>
      </trkpt>
      <trkpt lat="42.590434000" lon="-2.464871000">
        <ele>775.40</ele>
        <time>2017-02-18T08:06:32Z</time>
      </trkpt>
      <trkpt lat="42.590444000" lon="-2.464859000">
        <ele>775.40</ele>
        <time>2017-02-18T08:06:33Z</time>
      </trkpt>
      <trkpt lat="42.590457000" lon="-2.464853000">
        <ele>775.50</ele>
        <time>2017-02-18T08:06:34Z</time>
      </trkpt>
      <trkpt lat="42.590468000" lon="-2.464849000">
        <ele>775.50</ele>
        <time>2017-02-18T08:06:35Z</time>
      </trkpt>
      <trkpt lat="42.590480000" lon="-2.464843000">
        <ele>775.70</ele>
        <time>2017-02-18T08:06:36Z</time>
      </trkpt>
      <trkpt lat="42.590491000" lon="-2.464835000">
        <ele>775.80</ele>
        <time>2017-02-18T08:06:37Z</time>
      </trkpt>
      <trkpt lat="42.590501000" lon="-2.464829000">
        <ele>776.00</ele>
        <time>2017-02-18T08:06:38Z</time>
      </trkpt>
      <trkpt lat="42.590508000" lon="-2.464822000">
        <ele>776.20</ele>
        <time>2017-02-18T08:06:39Z</time>
      </trkpt>
      <trkpt lat="42.590516000" lon="-2.464816000">
        <ele>776.40</ele>
        <time>2017-02-18T08:06:40Z</time>
      </trkpt>
      <trkpt lat="42.590530000" lon="-2.464811000">
        <ele>776.50</ele>
        <time>2017-02-18T08:06:41Z</time>
      </trkpt>
      <trkpt lat="42.590541000" lon="-2.464800000">
        <ele>776.80</ele>
        <time>2017-02-18T08:06:42Z</time>
      </trkpt>
      <trkpt lat="42.590551000" lon="-2.464790000">
        <ele>776.90</ele>
        <time>2017-02-18T08:06:43Z</time>
      </trkpt>
      <trkpt lat="42.590562000" lon="-2.464776000">
        <ele>777.10</ele>
        <time>2017-02-18T08:06:44Z</time>
      </trkpt>
      <trkpt lat="42.590572000" lon="-2.464771000">
        <ele>777.30</ele>
        <time>2017-02-18T08:06:45Z</time>
      </trkpt>
      <trkpt lat="42.590583000" lon="-2.464767000">
        <ele>777.50</ele>
        <time>2017-02-18T08:06:46Z</time>
      </trkpt>
      <trkpt lat="42.590594000" lon="-2.464753000">
        <ele>777.70</ele>
        <time>2017-02-18T08:06:47Z</time>
      </trkpt>
      <trkpt lat="42.590608000" lon="-2.464746000">
        <ele>777.90</ele>
        <time>2017-02-18T08:06:48Z</time>
      </trkpt>
      <trkpt lat="42.590620000" lon="-2.464743000">
        <ele>778.10</ele>
        <time>2017-02-18T08:06:49Z</time>
      </trkpt>
      <trkpt lat="42.590629000" lon="-2.464731000">
        <ele>778.40</ele>
        <time>2017-02-18T08:06:50Z</time>
      </trkpt>
      <trkpt lat="42.590640000" lon="-2.464721000">
        <ele>778.60</ele>
        <time>2017-02-18T08:06:51Z</time>
      </trkpt>
      <trkpt lat="42.590650000" lon="-2.464714000">
        <ele>779.00</ele>
        <time>2017-02-18T08:06:52Z</time>
      </trkpt>
      <trkpt lat="42.590658000" lon="-2.464708000">
        <ele>779.20</ele>
        <time>2017-02-18T08:06:53Z</time>
      </trkpt>
      <trkpt lat="42.590671000" lon="-2.464706000">
        <ele>779.50</ele>
        <time>2017-02-18T08:06:54Z</time>
      </trkpt>
      <trkpt lat="42.590684000" lon="-2.464700000">
        <ele>779.70</ele>
        <time>2017-02-18T08:06:55Z</time>
      </trkpt>
      <trkpt lat="42.590695000" lon="-2.464696000">
        <ele>779.70</ele>
        <time>2017-02-18T08:06:56Z</time>
      </trkpt>
      <trkpt lat="42.590720000" lon="-2.464690000">
        <ele>780.00</ele>
        <time>2017-02-18T08:06:58Z</time>
      </trkpt>
      <trkpt lat="42.590728000" lon="-2.464684000">
        <ele>780.10</ele>
        <time>2017-02-18T08:06:59Z</time>
      </trkpt>
      <trkpt lat="42.590735000" lon="-2.464676000">
        <ele>780.40</ele>
        <time>2017-02-18T08:07:00Z</time>
      </trkpt>
      <trkpt lat="42.590746000" lon="-2.464668000">
        <ele>780.60</ele>
        <time>2017-02-18T08:07:01Z</time>
      </trkpt>
      <trkpt lat="42.590758000" lon="-2.464661000">
        <ele>780.80</ele>
        <time>2017-02-18T08:07:02Z</time>
      </trkpt>
      <trkpt lat="42.590767000" lon="-2.464654000">
        <ele>781.00</ele>
        <time>2017-02-18T08:07:03Z</time>
      </trkpt>
      <trkpt lat="42.590778000" lon="-2.464650000">
        <ele>781.40</ele>
        <time>2017-02-18T08:07:04Z</time>
      </trkpt>
      <trkpt lat="42.590787000" lon="-2.464645000">
        <ele>781.70</ele>
        <time>2017-02-18T08:07:05Z</time>
      </trkpt>
      <trkpt lat="42.590795000" lon="-2.464638000">
        <ele>781.90</ele>
        <time>2017-02-18T08:07:06Z</time>
      </trkpt>
      <trkpt lat="42.590803000" lon="-2.464634000">
        <ele>782.10</ele>
        <time>2017-02-18T08:07:07Z</time>
      </trkpt>
      <trkpt lat="42.590812000" lon="-2.464629000">
        <ele>782.10</ele>
        <time>2017-02-18T08:07:08Z</time>
      </trkpt>
      <trkpt lat="42.590822000" lon="-2.464631000">
        <ele>782.20</ele>
        <time>2017-02-18T08:07:09Z</time>
      </trkpt>
      <trkpt lat="42.590830000" lon="-2.464634000">
        <ele>782.20</ele>
        <time>2017-02-18T08:07:10Z</time>
      </trkpt>
      <trkpt lat="42.590841000" lon="-2.464633000">
        <ele>782.20</ele>
        <time>2017-02-18T08:07:11Z</time>
      </trkpt>
      <trkpt lat="42.590851000" lon="-2.464633000">
        <ele>782.50</ele>
        <time>2017-02-18T08:07:12Z</time>
      </trkpt>
      <trkpt lat="42.590861000" lon="-2.464631000">
        <ele>782.60</ele>
        <time>2017-02-18T08:07:13Z</time>
      </trkpt>
      <trkpt lat="42.590871000" lon="-2.464628000">
        <ele>782.80</ele>
        <time>2017-02-18T08:07:14Z</time>
      </trkpt>
      <trkpt lat="42.590882000" lon="-2.464627000">
        <ele>782.90</ele>
        <time>2017-02-18T08:07:15Z</time>
      </trkpt>
      <trkpt lat="42.590892000" lon="-2.464623000">
        <ele>783.10</ele>
        <time>2017-02-18T08:07:16Z</time>
      </trkpt>
      <trkpt lat="42.590904000" lon="-2.464621000">
        <ele>783.20</ele>
        <time>2017-02-18T08:07:17Z</time>
      </trkpt>
      <trkpt lat="42.590914000" lon="-2.464615000">
        <ele>783.60</ele>
        <time>2017-02-18T08:07:18Z</time>
      </trkpt>
      <trkpt lat="42.590926000" lon="-2.464612000">
        <ele>783.90</ele>
        <time>2017-02-18T08:07:19Z</time>
      </trkpt>
      <trkpt lat="42.590938000" lon="-2.464613000">
        <ele>784.10</ele>
        <time>2017-02-18T08:07:20Z</time>
      </trkpt>
      <trkpt lat="42.590949000" lon="-2.464614000">
        <ele>784.30</ele>
        <time>2017-02-18T08:07:21Z</time>
      </trkpt>
      <trkpt lat="42.590960000" lon="-2.464606000">
        <ele>784.40</ele>
        <time>2017-02-18T08:07:22Z</time>
      </trkpt>
      <trkpt lat="42.590970000" lon="-2.464603000">
        <ele>784.50</ele>
        <time>2017-02-18T08:07:23Z</time>
      </trkpt>
      <trkpt lat="42.590977000" lon="-2.464600000">
        <ele>784.50</ele>
        <time>2017-02-18T08:07:24Z</time>
      </trkpt>
      <trkpt lat="42.590986000" lon="-2.464598000">
        <ele>784.40</ele>
        <time>2017-02-18T08:07:25Z</time>
      </trkpt>
      <trkpt lat="42.590997000" lon="-2.464592000">
        <ele>784.70</ele>
        <time>2017-02-18T08:07:26Z</time>
      </trkpt>
      <trkpt lat="42.591006000" lon="-2.464586000">
        <ele>784.90</ele>
        <time>2017-02-18T08:07:27Z</time>
      </trkpt>
      <trkpt lat="42.591016000" lon="-2.464583000">
        <ele>785.00</ele>
        <time>2017-02-18T08:07:28Z</time>
      </trkpt>
      <trkpt lat="42.591028000" lon="-2.464579000">
        <ele>785.10</ele>
        <time>2017-02-18T08:07:29Z</time>
      </trkpt>
      <trkpt lat="42.591034000" lon="-2.464583000">
        <ele>785.20</ele>
        <time>2017-02-18T08:07:30Z</time>
      </trkpt>
      <trkpt lat="42.591036000" lon="-2.464587000">
        <ele>785.20</ele>
        <time>2017-02-18T08:07:31Z</time>
      </trkpt>
      <trkpt lat="42.591036000" lon="-2.464587000">
        <ele>785.30</ele>
        <time>2017-02-18T08:07:32Z</time>
      </trkpt>
      <trkpt lat="42.591036000" lon="-2.464590000">
        <ele>785.40</ele>
        <time>2017-02-18T08:07:33Z</time>
      </trkpt>
      <trkpt lat="42.591037000" lon="-2.464591000">
        <ele>785.40</ele>
        <time>2017-02-18T08:07:34Z</time>
      </trkpt>
      <trkpt lat="42.591037000" lon="-2.464589000">
        <ele>785.40</ele>
        <time>2017-02-18T08:07:35Z</time>
      </trkpt>
      <trkpt lat="42.591039000" lon="-2.464591000">
        <ele>785.40</ele>
        <time>2017-02-18T08:07:36Z</time>
      </trkpt>
      <trkpt lat="42.591037000" lon="-2.464589000">
        <ele>785.30</ele>
        <time>2017-02-18T08:07:37Z</time>
      </trkpt>
      <trkpt lat="42.591040000" lon="-2.464591000">
        <ele>785.20</ele>
        <time>2017-02-18T08:07:38Z</time>
      </trkpt>
      <trkpt lat="42.591042000" lon="-2.464594000">
        <ele>785.20</ele>
        <time>2017-02-18T08:07:39Z</time>
      </trkpt>
      <trkpt lat="42.591039000" lon="-2.464593000">
        <ele>785.20</ele>
        <time>2017-02-18T08:07:40Z</time>
      </trkpt>
      <trkpt lat="42.591037000" lon="-2.464594000">
        <ele>785.20</ele>
        <time>2017-02-18T08:07:41Z</time>
      </trkpt>
      <trkpt lat="42.591035000" lon="-2.464597000">
        <ele>785.50</ele>
        <time>2017-02-18T08:07:42Z</time>
      </trkpt>
      <trkpt lat="42.591033000" lon="-2.464597000">
        <ele>785.70</ele>
        <time>2017-02-18T08:07:43Z</time>
      </trkpt>
      <trkpt lat="42.591034000" lon="-2.464600000">
        <ele>785.80</ele>
        <time>2017-02-18T08:07:44Z</time>
      </trkpt>
      <trkpt lat="42.591036000" lon="-2.464593000">
        <ele>786.00</ele>
        <time>2017-02-18T08:07:45Z</time>
      </trkpt>
      <trkpt lat="42.591034000" lon="-2.464591000">
        <ele>786.00</ele>
        <time>2017-02-18T08:07:46Z</time>
      </trkpt>
      <trkpt lat="42.591030000" lon="-2.464584000">
        <ele>786.00</ele>
        <time>2017-02-18T08:07:47Z</time>
      </trkpt>
      <trkpt lat="42.591021000" lon="-2.464573000">
        <ele>785.90</ele>
        <time>2017-02-18T08:07:48Z</time>
      </trkpt>
      <trkpt lat="42.591013000" lon="-2.464574000">
        <ele>785.90</ele>
        <time>2017-02-18T08:07:49Z</time>
      </trkpt>
      <trkpt lat="42.591010000" lon="-2.464575000">
        <ele>785.90</ele>
        <time>2017-02-18T08:07:50Z</time>
      </trkpt>
      <trkpt lat="42.591011000" lon="-2.464575000">
        <ele>785.80</ele>
        <time>2017-02-18T08:07:51Z</time>
      </trkpt>
      <trkpt lat="42.591003000" lon="-2.464576000">
        <ele>785.60</ele>
        <time>2017-02-18T08:07:52Z</time>
      </trkpt>
      <trkpt lat="42.590982000" lon="-2.464577000">
        <ele>785.40</ele>
        <time>2017-02-18T08:07:53Z</time>
      </trkpt>
      <trkpt lat="42.590953000" lon="-2.464582000">
        <ele>785.30</ele>
        <time>2017-02-18T08:07:54Z</time>
      </trkpt>
      <trkpt lat="42.590928000" lon="-2.464595000">
        <ele>785.30</ele>
        <time>2017-02-18T08:07:55Z</time>
      </trkpt>
      <trkpt lat="42.590903000" lon="-2.464601000">
        <ele>785.20</ele>
        <time>2017-02-18T08:07:56Z</time>
      </trkpt>
      <trkpt lat="42.590875000" lon="-2.464611000">
        <ele>785.00</ele>
        <time>2017-02-18T08:07:57Z</time>
      </trkpt>
      <trkpt lat="42.590809000" lon="-2.464633000">
        <ele>784.90</ele>
        <time>2017-02-18T08:07:59Z</time>
      </trkpt>
      <trkpt lat="42.590775000" lon="-2.464648000">
        <ele>784.50</ele>
        <time>2017-02-18T08:08:00Z</time>
      </trkpt>
      <trkpt lat="42.590741000" lon="-2.464663000">
        <ele>784.20</ele>
        <time>2017-02-18T08:08:01Z</time>
      </trkpt>
      <trkpt lat="42.590706000" lon="-2.464684000">
        <ele>783.70</ele>
        <time>2017-02-18T08:08:02Z</time>
      </trkpt>
      <trkpt lat="42.590671000" lon="-2.464705000">
        <ele>783.40</ele>
        <time>2017-02-18T08:08:03Z</time>
      </trkpt>
      <trkpt lat="42.590636000" lon="-2.464732000">
        <ele>782.60</ele>
        <time>2017-02-18T08:08:04Z</time>
      </trkpt>
      <trkpt lat="42.590598000" lon="-2.464761000">
        <ele>782.00</ele>
        <time>2017-02-18T08:08:05Z</time>
      </trkpt>
      <trkpt lat="42.590553000" lon="-2.464793000">
        <ele>781.20</ele>
        <time>2017-02-18T08:08:06Z</time>
      </trkpt>
      <trkpt lat="42.590498000" lon="-2.464827000">
        <ele>780.50</ele>
        <time>2017-02-18T08:08:07Z</time>
      </trkpt>
      <trkpt lat="42.590442000" lon="-2.464868000">
        <ele>779.80</ele>
        <time>2017-02-18T08:08:08Z</time>
      </trkpt>
      <trkpt lat="42.590379000" lon="-2.464910000">
        <ele>779.30</ele>
        <time>2017-02-18T08:08:09Z</time>
      </trkpt>
      <trkpt lat="42.590314000" lon="-2.464948000">
        <ele>778.80</ele>
        <time>2017-02-18T08:08:10Z</time>
      </trkpt>
      <trkpt lat="42.590260000" lon="-2.464985000">
        <ele>778.50</ele>
        <time>2017-02-18T08:08:11Z</time>
      </trkpt>
      <trkpt lat="42.590215000" lon="-2.465020000">
        <ele>777.50</ele>
        <time>2017-02-18T08:08:12Z</time>
      </trkpt>
      <trkpt lat="42.590173000" lon="-2.465056000">
        <ele>776.70</ele>
        <time>2017-02-18T08:08:13Z</time>
      </trkpt>
      <trkpt lat="42.590127000" lon="-2.465084000">
        <ele>775.70</ele>
        <time>2017-02-18T08:08:14Z</time>
      </trkpt>
      <trkpt lat="42.590088000" lon="-2.465115000">
        <ele>775.10</ele>
        <time>2017-02-18T08:08:15Z</time>
      </trkpt>
      <trkpt lat="42.590057000" lon="-2.465133000">
        <ele>774.30</ele>
        <time>2017-02-18T08:08:16Z</time>
      </trkpt>
      <trkpt lat="42.590033000" lon="-2.465145000">
        <ele>773.80</ele>
        <time>2017-02-18T08:08:17Z</time>
      </trkpt>
      <trkpt lat="42.590011000" lon="-2.465158000">
        <ele>772.90</ele>
        <time>2017-02-18T08:08:18Z</time>
      </trkpt>
      <trkpt lat="42.589989000" lon="-2.465175000">
        <ele>772.30</ele>
        <time>2017-02-18T08:08:19Z</time>
      </trkpt>
      <trkpt lat="42.589971000" lon="-2.465194000">
        <ele>771.80</ele>
        <time>2017-02-18T08:08:20Z</time>
      </trkpt>
      <trkpt lat="42.589957000" lon="-2.465221000">
        <ele>771.40</ele>
        <time>2017-02-18T08:08:21Z</time>
      </trkpt>
      <trkpt lat="42.589951000" lon="-2.465257000">
        <ele>771.00</ele>
        <time>2017-02-18T08:08:22Z</time>
      </trkpt>
      <trkpt lat="42.589955000" lon="-2.465296000">
        <ele>770.70</ele>
        <time>2017-02-18T08:08:23Z</time>
      </trkpt>
      <trkpt lat="42.589957000" lon="-2.465332000">
        <ele>770.40</ele>
        <time>2017-02-18T08:08:24Z</time>
      </trkpt>
      <trkpt lat="42.589965000" lon="-2.465369000">
        <ele>770.20</ele>
        <time>2017-02-18T08:08:25Z</time>
      </trkpt>
      <trkpt lat="42.589977000" lon="-2.465397000">
        <ele>769.90</ele>
        <time>2017-02-18T08:08:26Z</time>
      </trkpt>
      <trkpt lat="42.589981000" lon="-2.465423000">
        <ele>769.80</ele>
        <time>2017-02-18T08:08:27Z</time>
      </trkpt>
      <trkpt lat="42.589985000" lon="-2.465454000">
        <ele>769.60</ele>
        <time>2017-02-18T08:08:28Z</time>
      </trkpt>
      <trkpt lat="42.589988000" lon="-2.465486000">
        <ele>769.50</ele>
        <time>2017-02-18T08:08:29Z</time>
      </trkpt>
      <trkpt lat="42.589995000" lon="-2.465521000">
        <ele>769.40</ele>
        <time>2017-02-18T08:08:30Z</time>
      </trkpt>
      <trkpt lat="42.590002000" lon="-2.465554000">
        <ele>769.40</ele>
        <time>2017-02-18T08:08:31Z</time>
      </trkpt>
      <trkpt lat="42.590010000" lon="-2.465589000">
        <ele>769.20</ele>
        <time>2017-02-18T08:08:32Z</time>
      </trkpt>
      <trkpt lat="42.590018000" lon="-2.465626000">
        <ele>769.10</ele>
        <time>2017-02-18T08:08:33Z</time>
      </trkpt>
      <trkpt lat="42.590024000" lon="-2.465661000">
        <ele>769.00</ele>
        <time>2017-02-18T08:08:34Z</time>
      </trkpt>
      <trkpt lat="42.590033000" lon="-2.465699000">
        <ele>769.00</ele>
        <time>2017-02-18T08:08:35Z</time>
      </trkpt>
      <trkpt lat="42.590040000" lon="-2.465736000">
        <ele>768.90</ele>
        <time>2017-02-18T08:08:36Z</time>
      </trkpt>
      <trkpt lat="42.590050000" lon="-2.465774000">
        <ele>768.90</ele>
        <time>2017-02-18T08:08:37Z</time>
      </trkpt>
      <trkpt lat="42.590057000" lon="-2.465810000">
        <ele>768.80</ele>
        <time>2017-02-18T08:08:38Z</time>
      </trkpt>
      <trkpt lat="42.590065000" lon="-2.465843000">
        <ele>768.70</ele>
        <time>2017-02-18T08:08:39Z</time>
      </trkpt>
      <trkpt lat="42.590073000" lon="-2.465875000">
        <ele>768.60</ele>
        <time>2017-02-18T08:08:40Z</time>
      </trkpt>
      <trkpt lat="42.590081000" lon="-2.465910000">
        <ele>768.50</ele>
        <time>2017-02-18T08:08:41Z</time>
      </trkpt>
      <trkpt lat="42.590086000" lon="-2.465940000">
        <ele>768.30</ele>
        <time>2017-02-18T08:08:42Z</time>
      </trkpt>
      <trkpt lat="42.590096000" lon="-2.465968000">
        <ele>768.20</ele>
        <time>2017-02-18T08:08:43Z</time>
      </trkpt>
      <trkpt lat="42.590111000" lon="-2.465995000">
        <ele>768.10</ele>
        <time>2017-02-18T08:08:44Z</time>
      </trkpt>
      <trkpt lat="42.590124000" lon="-2.466023000">
        <ele>768.00</ele>
        <time>2017-02-18T08:08:45Z</time>
      </trkpt>
      <trkpt lat="42.590139000" lon="-2.466047000">
        <ele>767.90</ele>
        <time>2017-02-18T08:08:46Z</time>
      </trkpt>
      <trkpt lat="42.590153000" lon="-2.466069000">
        <ele>767.90</ele>
        <time>2017-02-18T08:08:47Z</time>
      </trkpt>
      <trkpt lat="42.590166000" lon="-2.466095000">
        <ele>767.80</ele>
        <time>2017-02-18T08:08:48Z</time>
      </trkpt>
      <trkpt lat="42.590178000" lon="-2.466121000">
        <ele>767.80</ele>
        <time>2017-02-18T08:08:49Z</time>
      </trkpt>
      <trkpt lat="42.590191000" lon="-2.466147000">
        <ele>767.90</ele>
        <time>2017-02-18T08:08:50Z</time>
      </trkpt>
      <trkpt lat="42.590207000" lon="-2.466174000">
        <ele>767.90</ele>
        <time>2017-02-18T08:08:51Z</time>
      </trkpt>
      <trkpt lat="42.590224000" lon="-2.466198000">
        <ele>768.00</ele>
        <time>2017-02-18T08:08:52Z</time>
      </trkpt>
      <trkpt lat="42.590238000" lon="-2.466223000">
        <ele>768.10</ele>
        <time>2017-02-18T08:08:53Z</time>
      </trkpt>
      <trkpt lat="42.590252000" lon="-2.466246000">
        <ele>768.20</ele>
        <time>2017-02-18T08:08:54Z</time>
      </trkpt>
      <trkpt lat="42.590265000" lon="-2.466269000">
        <ele>768.30</ele>
        <time>2017-02-18T08:08:55Z</time>
      </trkpt>
      <trkpt lat="42.590277000" lon="-2.466291000">
        <ele>768.40</ele>
        <time>2017-02-18T08:08:56Z</time>
      </trkpt>
      <trkpt lat="42.590294000" lon="-2.466316000">
        <ele>768.40</ele>
        <time>2017-02-18T08:08:57Z</time>
      </trkpt>
      <trkpt lat="42.590306000" lon="-2.466336000">
        <ele>768.50</ele>
        <time>2017-02-18T08:08:58Z</time>
      </trkpt>
      <trkpt lat="42.590341000" lon="-2.466380000">
        <ele>768.80</ele>
        <time>2017-02-18T08:09:00Z</time>
      </trkpt>
      <trkpt lat="42.590355000" lon="-2.466400000">
        <ele>769.00</ele>
        <time>2017-02-18T08:09:01Z</time>
      </trkpt>
      <trkpt lat="42.590370000" lon="-2.466418000">
        <ele>769.20</ele>
        <time>2017-02-18T08:09:02Z</time>
      </trkpt>
      <trkpt lat="42.590385000" lon="-2.466438000">
        <ele>769.30</ele>
        <time>2017-02-18T08:09:03Z</time>
      </trkpt>
      <trkpt lat="42.590402000" lon="-2.466455000">
        <ele>769.40</ele>
        <time>2017-02-18T08:09:04Z</time>
      </trkpt>
      <trkpt lat="42.590419000" lon="-2.466468000">
        <ele>769.50</ele>
        <time>2017-02-18T08:09:05Z</time>
      </trkpt>
      <trkpt lat="42.590435000" lon="-2.466483000">
        <ele>769.50</ele>
        <time>2017-02-18T08:09:06Z</time>
      </trkpt>
      <trkpt lat="42.590454000" lon="-2.466501000">
        <ele>769.60</ele>
        <time>2017-02-18T08:09:07Z</time>
      </trkpt>
      <trkpt lat="42.590473000" lon="-2.466515000">
        <ele>769.70</ele>
        <time>2017-02-18T08:09:08Z</time>
      </trkpt>
      <trkpt lat="42.590489000" lon="-2.466525000">
        <ele>769.80</ele>
        <time>2017-02-18T08:09:09Z</time>
      </trkpt>
      <trkpt lat="42.590505000" lon="-2.466536000">
        <ele>769.90</ele>
        <time>2017-02-18T08:09:10Z</time>
      </trkpt>
      <trkpt lat="42.590521000" lon="-2.466545000">
        <ele>769.90</ele>
        <time>2017-02-18T08:09:11Z</time>
      </trkpt>
      <trkpt lat="42.590538000" lon="-2.466557000">
        <ele>769.90</ele>
        <time>2017-02-18T08:09:12Z</time>
      </trkpt>
      <trkpt lat="42.590556000" lon="-2.466566000">
        <ele>770.10</ele>
        <time>2017-02-18T08:09:13Z</time>
      </trkpt>
      <trkpt lat="42.590570000" lon="-2.466582000">
        <ele>770.20</ele>
        <time>2017-02-18T08:09:14Z</time>
      </trkpt>
      <trkpt lat="42.590590000" lon="-2.466592000">
        <ele>770.30</ele>
        <time>2017-02-18T08:09:15Z</time>
      </trkpt>
      <trkpt lat="42.590606000" lon="-2.466605000">
        <ele>770.40</ele>
        <time>2017-02-18T08:09:16Z</time>
      </trkpt>
      <trkpt lat="42.590620000" lon="-2.466621000">
        <ele>770.40</ele>
        <time>2017-02-18T08:09:17Z</time>
      </trkpt>
      <trkpt lat="42.590636000" lon="-2.466640000">
        <ele>770.40</ele>
        <time>2017-02-18T08:09:18Z</time>
      </trkpt>
      <trkpt lat="42.590651000" lon="-2.466659000">
        <ele>770.50</ele>
        <time>2017-02-18T08:09:19Z</time>
      </trkpt>
      <trkpt lat="42.590669000" lon="-2.466678000">
        <ele>770.50</ele>
        <time>2017-02-18T08:09:20Z</time>
      </trkpt>
      <trkpt lat="42.590687000" lon="-2.466696000">
        <ele>770.60</ele>
        <time>2017-02-18T08:09:21Z</time>
      </trkpt>
      <trkpt lat="42.590706000" lon="-2.466712000">
        <ele>770.80</ele>
        <time>2017-02-18T08:09:22Z</time>
      </trkpt>
      <trkpt lat="42.590721000" lon="-2.466727000">
        <ele>770.80</ele>
        <time>2017-02-18T08:09:23Z</time>
      </trkpt>
      <trkpt lat="42.590735000" lon="-2.466745000">
        <ele>770.90</ele>
        <time>2017-02-18T08:09:24Z</time>
      </trkpt>
      <trkpt lat="42.590750000" lon="-2.466764000">
        <ele>771.00</ele>
        <time>2017-02-18T08:09:25Z</time>
      </trkpt>
      <trkpt lat="42.590763000" lon="-2.466780000">
        <ele>771.00</ele>
        <time>2017-02-18T08:09:26Z</time>
      </trkpt>
      <trkpt lat="42.590779000" lon="-2.466799000">
        <ele>771.00</ele>
        <time>2017-02-18T08:09:27Z</time>
      </trkpt>
      <trkpt lat="42.590796000" lon="-2.466820000">
        <ele>771.00</ele>
        <time>2017-02-18T08:09:28Z</time>
      </trkpt>
      <trkpt lat="42.590814000" lon="-2.466839000">
        <ele>771.00</ele>
        <time>2017-02-18T08:09:29Z</time>
      </trkpt>
      <trkpt lat="42.590833000" lon="-2.466861000">
        <ele>771.10</ele>
        <time>2017-02-18T08:09:30Z</time>
      </trkpt>
      <trkpt lat="42.590854000" lon="-2.466888000">
        <ele>771.20</ele>
        <time>2017-02-18T08:09:31Z</time>
      </trkpt>
      <trkpt lat="42.590871000" lon="-2.466905000">
        <ele>771.30</ele>
        <time>2017-02-18T08:09:32Z</time>
      </trkpt>
      <trkpt lat="42.590887000" lon="-2.466925000">
        <ele>771.30</ele>
        <time>2017-02-18T08:09:33Z</time>
      </trkpt>
      <trkpt lat="42.590903000" lon="-2.466942000">
        <ele>771.40</ele>
        <time>2017-02-18T08:09:34Z</time>
      </trkpt>
      <trkpt lat="42.590918000" lon="-2.466960000">
        <ele>771.40</ele>
        <time>2017-02-18T08:09:35Z</time>
      </trkpt>
      <trkpt lat="42.590937000" lon="-2.466977000">
        <ele>771.30</ele>
        <time>2017-02-18T08:09:36Z</time>
      </trkpt>
      <trkpt lat="42.590955000" lon="-2.466993000">
        <ele>771.30</ele>
        <time>2017-02-18T08:09:37Z</time>
      </trkpt>
      <trkpt lat="42.590973000" lon="-2.467008000">
        <ele>771.20</ele>
        <time>2017-02-18T08:09:38Z</time>
      </trkpt>
      <trkpt lat="42.590994000" lon="-2.467028000">
        <ele>771.10</ele>
        <time>2017-02-18T08:09:39Z</time>
      </trkpt>
      <trkpt lat="42.591015000" lon="-2.467048000">
        <ele>771.10</ele>
        <time>2017-02-18T08:09:40Z</time>
      </trkpt>
      <trkpt lat="42.591037000" lon="-2.467067000">
        <ele>771.00</ele>
        <time>2017-02-18T08:09:41Z</time>
      </trkpt>
      <trkpt lat="42.591057000" lon="-2.467085000">
        <ele>770.90</ele>
        <time>2017-02-18T08:09:42Z</time>
      </trkpt>
      <trkpt lat="42.591079000" lon="-2.467103000">
        <ele>770.90</ele>
        <time>2017-02-18T08:09:43Z</time>
      </trkpt>
      <trkpt lat="42.591101000" lon="-2.467121000">
        <ele>770.90</ele>
        <time>2017-02-18T08:09:44Z</time>
      </trkpt>
      <trkpt lat="42.591124000" lon="-2.467140000">
        <ele>771.00</ele>
        <time>2017-02-18T08:09:45Z</time>
      </trkpt>
      <trkpt lat="42.591146000" lon="-2.467158000">
        <ele>771.20</ele>
        <time>2017-02-18T08:09:46Z</time>
      </trkpt>
      <trkpt lat="42.591170000" lon="-2.467177000">
        <ele>771.30</ele>
        <time>2017-02-18T08:09:47Z</time>
      </trkpt>
      <trkpt lat="42.591191000" lon="-2.467195000">
        <ele>771.30</ele>
        <time>2017-02-18T08:09:48Z</time>
      </trkpt>
      <trkpt lat="42.591209000" lon="-2.467208000">
        <ele>771.40</ele>
        <time>2017-02-18T08:09:49Z</time>
      </trkpt>
      <trkpt lat="42.591227000" lon="-2.467224000">
        <ele>771.40</ele>
        <time>2017-02-18T08:09:50Z</time>
      </trkpt>
      <trkpt lat="42.591246000" lon="-2.467241000">
        <ele>771.40</ele>
        <time>2017-02-18T08:09:51Z</time>
      </trkpt>
      <trkpt lat="42.591268000" lon="-2.467253000">
        <ele>771.40</ele>
        <time>2017-02-18T08:09:52Z</time>
      </trkpt>
      <trkpt lat="42.591286000" lon="-2.467271000">
        <ele>771.60</ele>
        <time>2017-02-18T08:09:53Z</time>
      </trkpt>
      <trkpt lat="42.591307000" lon="-2.467281000">
        <ele>771.70</ele>
        <time>2017-02-18T08:09:54Z</time>
      </trkpt>
      <trkpt lat="42.591327000" lon="-2.467296000">
        <ele>771.60</ele>
        <time>2017-02-18T08:09:55Z</time>
      </trkpt>
      <trkpt lat="42.591349000" lon="-2.467311000">
        <ele>771.60</ele>
        <time>2017-02-18T08:09:56Z</time>
      </trkpt>
      <trkpt lat="42.591368000" lon="-2.467323000">
        <ele>771.70</ele>
        <time>2017-02-18T08:09:57Z</time>
      </trkpt>
      <trkpt lat="42.591391000" lon="-2.467335000">
        <ele>771.90</ele>
        <time>2017-02-18T08:09:58Z</time>
      </trkpt>
      <trkpt lat="42.591411000" lon="-2.467349000">
        <ele>771.80</ele>
        <time>2017-02-18T08:09:59Z</time>
      </trkpt>
      <trkpt lat="42.591460000" lon="-2.467368000">
        <ele>771.80</ele>
        <time>2017-02-18T08:10:01Z</time>
      </trkpt>
      <trkpt lat="42.591486000" lon="-2.467374000">
        <ele>771.90</ele>
        <time>2017-02-18T08:10:02Z</time>
      </trkpt>
      <trkpt lat="42.591510000" lon="-2.467383000">
        <ele>771.80</ele>
        <time>2017-02-18T08:10:03Z</time>
      </trkpt>
      <trkpt lat="42.591537000" lon="-2.467394000">
        <ele>771.80</ele>
        <time>2017-02-18T08:10:04Z</time>
      </trkpt>
      <trkpt lat="42.591562000" lon="-2.467399000">
        <ele>771.70</ele>
        <time>2017-02-18T08:10:05Z</time>
      </trkpt>
      <trkpt lat="42.591589000" lon="-2.467408000">
        <ele>771.70</ele>
        <time>2017-02-18T08:10:06Z</time>
      </trkpt>
      <trkpt lat="42.591621000" lon="-2.467416000">
        <ele>771.70</ele>
        <time>2017-02-18T08:10:07Z</time>
      </trkpt>
      <trkpt lat="42.591657000" lon="-2.467420000">
        <ele>771.70</ele>
        <time>2017-02-18T08:10:08Z</time>
      </trkpt>
      <trkpt lat="42.591694000" lon="-2.467424000">
        <ele>771.50</ele>
        <time>2017-02-18T08:10:09Z</time>
      </trkpt>
      <trkpt lat="42.591728000" lon="-2.467422000">
        <ele>771.40</ele>
        <time>2017-02-18T08:10:10Z</time>
      </trkpt>
      <trkpt lat="42.591760000" lon="-2.467418000">
        <ele>771.30</ele>
        <time>2017-02-18T08:10:11Z</time>
      </trkpt>
      <trkpt lat="42.591797000" lon="-2.467421000">
        <ele>771.20</ele>
        <time>2017-02-18T08:10:12Z</time>
      </trkpt>
      <trkpt lat="42.591839000" lon="-2.467422000">
        <ele>771.00</ele>
        <time>2017-02-18T08:10:13Z</time>
      </trkpt>
      <trkpt lat="42.591877000" lon="-2.467428000">
        <ele>770.90</ele>
        <time>2017-02-18T08:10:14Z</time>
      </trkpt>
      <trkpt lat="42.591909000" lon="-2.467428000">
        <ele>770.80</ele>
        <time>2017-02-18T08:10:15Z</time>
      </trkpt>
      <trkpt lat="42.591928000" lon="-2.467432000">
        <ele>770.70</ele>
        <time>2017-02-18T08:10:16Z</time>
      </trkpt>
      <trkpt lat="42.591943000" lon="-2.467429000">
        <ele>770.40</ele>
        <time>2017-02-18T08:10:17Z</time>
      </trkpt>
      <trkpt lat="42.591955000" lon="-2.467426000">
        <ele>770.10</ele>
        <time>2017-02-18T08:10:18Z</time>
      </trkpt>
      <trkpt lat="42.591965000" lon="-2.467434000">
        <ele>770.00</ele>
        <time>2017-02-18T08:10:19Z</time>
      </trkpt>
      <trkpt lat="42.591972000" lon="-2.467438000">
        <ele>769.80</ele>
        <time>2017-02-18T08:10:20Z</time>
      </trkpt>
      <trkpt lat="42.591983000" lon="-2.467442000">
        <ele>769.70</ele>
        <time>2017-02-18T08:10:21Z</time>
      </trkpt>
      <trkpt lat="42.591992000" lon="-2.467441000">
        <ele>769.60</ele>
        <time>2017-02-18T08:10:22Z</time>
      </trkpt>
      <trkpt lat="42.591998000" lon="-2.467438000">
        <ele>769.60</ele>
        <time>2017-02-18T08:10:23Z</time>
      </trkpt>
      <trkpt lat="42.592008000" lon="-2.467439000">
        <ele>769.70</ele>
        <time>2017-02-18T08:10:24Z</time>
      </trkpt>
      <trkpt lat="42.592017000" lon="-2.467442000">
        <ele>769.60</ele>
        <time>2017-02-18T08:10:25Z</time>
      </trkpt>
      <trkpt lat="42.592022000" lon="-2.467442000">
        <ele>769.50</ele>
        <time>2017-02-18T08:10:26Z</time>
      </trkpt>
      <trkpt lat="42.592020000" lon="-2.467444000">
        <ele>769.40</ele>
        <time>2017-02-18T08:10:27Z</time>
      </trkpt>
      <trkpt lat="42.592017000" lon="-2.467448000">
        <ele>769.40</ele>
        <time>2017-02-18T08:10:28Z</time>
      </trkpt>
      <trkpt lat="42.592016000" lon="-2.467455000">
        <ele>769.30</ele>
        <time>2017-02-18T08:10:29Z</time>
      </trkpt>
      <trkpt lat="42.592019000" lon="-2.467460000">
        <ele>769.30</ele>
        <time>2017-02-18T08:10:30Z</time>
      </trkpt>
      <trkpt lat="42.592020000" lon="-2.467458000">
        <ele>769.30</ele>
        <time>2017-02-18T08:10:31Z</time>
      </trkpt>
      <trkpt lat="42.592019000" lon="-2.467465000">
        <ele>769.30</ele>
        <time>2017-02-18T08:10:32Z</time>
      </trkpt>
      <trkpt lat="42.592021000" lon="-2.467472000">
        <ele>769.40</ele>
        <time>2017-02-18T08:10:33Z</time>
      </trkpt>
      <trkpt lat="42.592022000" lon="-2.467481000">
        <ele>769.50</ele>
        <time>2017-02-18T08:10:34Z</time>
      </trkpt>
      <trkpt lat="42.592020000" lon="-2.467487000">
        <ele>769.60</ele>
        <time>2017-02-18T08:10:35Z</time>
      </trkpt>
      <trkpt lat="42.592016000" lon="-2.467489000">
        <ele>769.70</ele>
        <time>2017-02-18T08:10:36Z</time>
      </trkpt>
      <trkpt lat="42.592003000" lon="-2.467494000">
        <ele>769.70</ele>
        <time>2017-02-18T08:10:37Z</time>
      </trkpt>
      <trkpt lat="42.591981000" lon="-2.467486000">
        <ele>769.70</ele>
        <time>2017-02-18T08:10:38Z</time>
      </trkpt>
      <trkpt lat="42.591966000" lon="-2.467475000">
        <ele>769.70</ele>
        <time>2017-02-18T08:10:39Z</time>
      </trkpt>
      <trkpt lat="42.591951000" lon="-2.467465000">
        <ele>769.60</ele>
        <time>2017-02-18T08:10:40Z</time>
      </trkpt>
      <trkpt lat="42.591940000" lon="-2.467454000">
        <ele>769.50</ele>
        <time>2017-02-18T08:10:41Z</time>
      </trkpt>
      <trkpt lat="42.591930000" lon="-2.467441000">
        <ele>769.50</ele>
        <time>2017-02-18T08:10:42Z</time>
      </trkpt>
      <trkpt lat="42.591930000" lon="-2.467429000">
        <ele>769.40</ele>
        <time>2017-02-18T08:10:43Z</time>
      </trkpt>
      <trkpt lat="42.591936000" lon="-2.467421000">
        <ele>769.40</ele>
        <time>2017-02-18T08:10:44Z</time>
      </trkpt>
      <trkpt lat="42.591940000" lon="-2.467426000">
        <ele>769.50</ele>
        <time>2017-02-18T08:10:45Z</time>
      </trkpt>
      <trkpt lat="42.591944000" lon="-2.467429000">
        <ele>769.60</ele>
        <time>2017-02-18T08:10:46Z</time>
      </trkpt>
      <trkpt lat="42.591953000" lon="-2.467433000">
        <ele>769.70</ele>
        <time>2017-02-18T08:10:47Z</time>
      </trkpt>
      <trkpt lat="42.591965000" lon="-2.467444000">
        <ele>769.70</ele>
        <time>2017-02-18T08:10:48Z</time>
      </trkpt>
      <trkpt lat="42.591976000" lon="-2.467449000">
        <ele>769.70</ele>
        <time>2017-02-18T08:10:49Z</time>
      </trkpt>
      <trkpt lat="42.591993000" lon="-2.467459000">
        <ele>769.80</ele>
        <time>2017-02-18T08:10:50Z</time>
      </trkpt>
      <trkpt lat="42.592012000" lon="-2.467465000">
        <ele>769.60</ele>
        <time>2017-02-18T08:10:51Z</time>
      </trkpt>
      <trkpt lat="42.592036000" lon="-2.467473000">
        <ele>769.50</ele>
        <time>2017-02-18T08:10:52Z</time>
      </trkpt>
      <trkpt lat="42.592059000" lon="-2.467479000">
        <ele>769.40</ele>
        <time>2017-02-18T08:10:53Z</time>
      </trkpt>
      <trkpt lat="42.592078000" lon="-2.467493000">
        <ele>769.40</ele>
        <time>2017-02-18T08:10:54Z</time>
      </trkpt>
      <trkpt lat="42.592098000" lon="-2.467507000">
        <ele>769.40</ele>
        <time>2017-02-18T08:10:55Z</time>
      </trkpt>
      <trkpt lat="42.592114000" lon="-2.467521000">
        <ele>769.40</ele>
        <time>2017-02-18T08:10:56Z</time>
      </trkpt>
      <trkpt lat="42.592134000" lon="-2.467539000">
        <ele>769.30</ele>
        <time>2017-02-18T08:10:57Z</time>
      </trkpt>
      <trkpt lat="42.592149000" lon="-2.467558000">
        <ele>769.30</ele>
        <time>2017-02-18T08:10:58Z</time>
      </trkpt>
      <trkpt lat="42.592163000" lon="-2.467574000">
        <ele>769.30</ele>
        <time>2017-02-18T08:10:59Z</time>
      </trkpt>
      <trkpt lat="42.592182000" lon="-2.467589000">
        <ele>769.20</ele>
        <time>2017-02-18T08:11:00Z</time>
      </trkpt>
      <trkpt lat="42.592210000" lon="-2.467622000">
        <ele>769.10</ele>
        <time>2017-02-18T08:11:02Z</time>
      </trkpt>
      <trkpt lat="42.592224000" lon="-2.467639000">
        <ele>769.20</ele>
        <time>2017-02-18T08:11:03Z</time>
      </trkpt>
      <trkpt lat="42.592236000" lon="-2.467657000">
        <ele>769.20</ele>
        <time>2017-02-18T08:11:04Z</time>
      </trkpt>
      <trkpt lat="42.592246000" lon="-2.467675000">
        <ele>769.20</ele>
        <time>2017-02-18T08:11:05Z</time>
      </trkpt>
      <trkpt lat="42.592252000" lon="-2.467695000">
        <ele>769.30</ele>
        <time>2017-02-18T08:11:06Z</time>
      </trkpt>
      <trkpt lat="42.592261000" lon="-2.467721000">
        <ele>769.30</ele>
        <time>2017-02-18T08:11:07Z</time>
      </trkpt>
      <trkpt lat="42.592266000" lon="-2.467749000">
        <ele>769.30</ele>
        <time>2017-02-18T08:11:08Z</time>
      </trkpt>
      <trkpt lat="42.592272000" lon="-2.467775000">
        <ele>769.40</ele>
        <time>2017-02-18T08:11:09Z</time>
      </trkpt>
      <trkpt lat="42.592288000" lon="-2.467810000">
        <ele>769.40</ele>
        <time>2017-02-18T08:11:10Z</time>
      </trkpt>
      <trkpt lat="42.592304000" lon="-2.467846000">
        <ele>769.50</ele>
        <time>2017-02-18T08:11:11Z</time>
      </trkpt>
      <trkpt lat="42.592314000" lon="-2.467881000">
        <ele>769.60</ele>
        <time>2017-02-18T08:11:12Z</time>
      </trkpt>
      <trkpt lat="42.592322000" lon="-2.467914000">
        <ele>770.00</ele>
        <time>2017-02-18T08:11:13Z</time>
      </trkpt>
      <trkpt lat="42.592331000" lon="-2.467941000">
        <ele>770.40</ele>
        <time>2017-02-18T08:11:14Z</time>
      </trkpt>
      <trkpt lat="42.592342000" lon="-2.467963000">
        <ele>770.70</ele>
        <time>2017-02-18T08:11:15Z</time>
      </trkpt>
      <trkpt lat="42.592350000" lon="-2.467976000">
        <ele>770.90</ele>
        <time>2017-02-18T08:11:16Z</time>
      </trkpt>
      <trkpt lat="42.592365000" lon="-2.467988000">
        <ele>771.20</ele>
        <time>2017-02-18T08:11:17Z</time>
      </trkpt>
      <trkpt lat="42.592376000" lon="-2.468002000">
        <ele>771.50</ele>
        <time>2017-02-18T08:11:18Z</time>
      </trkpt>
      <trkpt lat="42.592390000" lon="-2.468011000">
        <ele>771.70</ele>
        <time>2017-02-18T08:11:19Z</time>
      </trkpt>
      <trkpt lat="42.592405000" lon="-2.468025000">
        <ele>771.90</ele>
        <time>2017-02-18T08:11:20Z</time>
      </trkpt>
      <trkpt lat="42.592418000" lon="-2.468045000">
        <ele>772.20</ele>
        <time>2017-02-18T08:11:21Z</time>
      </trkpt>
      <trkpt lat="42.592427000" lon="-2.468066000">
        <ele>772.40</ele>
        <time>2017-02-18T08:11:22Z</time>
      </trkpt>
      <trkpt lat="42.592429000" lon="-2.468089000">
        <ele>772.60</ele>
        <time>2017-02-18T08:11:23Z</time>
      </trkpt>
      <trkpt lat="42.592438000" lon="-2.468094000">
        <ele>772.90</ele>
        <time>2017-02-18T08:11:24Z</time>
      </trkpt>
      <trkpt lat="42.592436000" lon="-2.468098000">
        <ele>773.00</ele>
        <time>2017-02-18T08:11:25Z</time>
      </trkpt>
      <trkpt lat="42.592436000" lon="-2.468101000">
        <ele>773.10</ele>
        <time>2017-02-18T08:11:26Z</time>
      </trkpt>
      <trkpt lat="42.592437000" lon="-2.468102000">
        <ele>773.20</ele>
        <time>2017-02-18T08:11:27Z</time>
      </trkpt>
      <trkpt lat="42.592436000" lon="-2.468102000">
        <ele>773.30</ele>
        <time>2017-02-18T08:11:28Z</time>
      </trkpt>
      <trkpt lat="42.592439000" lon="-2.468115000">
        <ele>773.40</ele>
        <time>2017-02-18T08:11:29Z</time>
      </trkpt>
      <trkpt lat="42.592442000" lon="-2.468126000">
        <ele>773.50</ele>
        <time>2017-02-18T08:11:30Z</time>
      </trkpt>
      <trkpt lat="42.592446000" lon="-2.468138000">
        <ele>773.60</ele>
        <time>2017-02-18T08:11:31Z</time>
      </trkpt>
      <trkpt lat="42.592449000" lon="-2.468152000">
        <ele>773.80</ele>
        <time>2017-02-18T08:11:32Z</time>
      </trkpt>
      <trkpt lat="42.592453000" lon="-2.468164000">
        <ele>773.90</ele>
        <time>2017-02-18T08:11:33Z</time>
      </trkpt>
      <trkpt lat="42.592461000" lon="-2.468177000">
        <ele>774.00</ele>
        <time>2017-02-18T08:11:34Z</time>
      </trkpt>
      <trkpt lat="42.592469000" lon="-2.468189000">
        <ele>774.10</ele>
        <time>2017-02-18T08:11:35Z</time>
      </trkpt>
      <trkpt lat="42.592476000" lon="-2.468196000">
        <ele>774.10</ele>
        <time>2017-02-18T08:11:36Z</time>
      </trkpt>
      <trkpt lat="42.592482000" lon="-2.468207000">
        <ele>774.20</ele>
        <time>2017-02-18T08:11:37Z</time>
      </trkpt>
      <trkpt lat="42.592489000" lon="-2.468219000">
        <ele>774.20</ele>
        <time>2017-02-18T08:11:38Z</time>
      </trkpt>
      <trkpt lat="42.592494000" lon="-2.468226000">
        <ele>774.20</ele>
        <time>2017-02-18T08:11:39Z</time>
      </trkpt>
      <trkpt lat="42.592497000" lon="-2.468237000">
        <ele>774.20</ele>
        <time>2017-02-18T08:11:40Z</time>
      </trkpt>
      <trkpt lat="42.592496000" lon="-2.468238000">
        <ele>774.40</ele>
        <time>2017-02-18T08:11:41Z</time>
      </trkpt>
      <trkpt lat="42.592494000" lon="-2.468241000">
        <ele>774.50</ele>
        <time>2017-02-18T08:11:42Z</time>
      </trkpt>
      <trkpt lat="42.592494000" lon="-2.468246000">
        <ele>774.60</ele>
        <time>2017-02-18T08:11:43Z</time>
      </trkpt>
      <trkpt lat="42.592493000" lon="-2.468247000">
        <ele>774.70</ele>
        <time>2017-02-18T08:11:44Z</time>
      </trkpt>
      <trkpt lat="42.592497000" lon="-2.468249000">
        <ele>774.90</ele>
        <time>2017-02-18T08:11:45Z</time>
      </trkpt>
      <trkpt lat="42.592500000" lon="-2.468251000">
        <ele>775.10</ele>
        <time>2017-02-18T08:11:46Z</time>
      </trkpt>
      <trkpt lat="42.592506000" lon="-2.468252000">
        <ele>775.20</ele>
        <time>2017-02-18T08:11:47Z</time>
      </trkpt>
      <trkpt lat="42.592508000" lon="-2.468252000">
        <ele>775.30</ele>
        <time>2017-02-18T08:11:48Z</time>
      </trkpt>
      <trkpt lat="42.592517000" lon="-2.468263000">
        <ele>775.30</ele>
        <time>2017-02-18T08:11:49Z</time>
      </trkpt>
      <trkpt lat="42.592520000" lon="-2.468275000">
        <ele>775.40</ele>
        <time>2017-02-18T08:11:50Z</time>
      </trkpt>
      <trkpt lat="42.592527000" lon="-2.468287000">
        <ele>775.50</ele>
        <time>2017-02-18T08:11:51Z</time>
      </trkpt>
      <trkpt lat="42.592533000" lon="-2.468299000">
        <ele>775.60</ele>
        <time>2017-02-18T08:11:52Z</time>
      </trkpt>
      <trkpt lat="42.592540000" lon="-2.468313000">
        <ele>775.70</ele>
        <time>2017-02-18T08:11:53Z</time>
      </trkpt>
      <trkpt lat="42.592550000" lon="-2.468322000">
        <ele>775.80</ele>
        <time>2017-02-18T08:11:54Z</time>
      </trkpt>
      <trkpt lat="42.592560000" lon="-2.468338000">
        <ele>776.00</ele>
        <time>2017-02-18T08:11:55Z</time>
      </trkpt>
      <trkpt lat="42.592573000" lon="-2.468358000">
        <ele>776.20</ele>
        <time>2017-02-18T08:11:56Z</time>
      </trkpt>
      <trkpt lat="42.592585000" lon="-2.468374000">
        <ele>776.30</ele>
        <time>2017-02-18T08:11:57Z</time>
      </trkpt>
      <trkpt lat="42.592596000" lon="-2.468388000">
        <ele>776.40</ele>
        <time>2017-02-18T08:11:58Z</time>
      </trkpt>
      <trkpt lat="42.592605000" lon="-2.468405000">
        <ele>776.50</ele>
        <time>2017-02-18T08:11:59Z</time>
      </trkpt>
      <trkpt lat="42.592616000" lon="-2.468419000">
        <ele>776.60</ele>
        <time>2017-02-18T08:12:00Z</time>
      </trkpt>
      <trkpt lat="42.592630000" lon="-2.468437000">
        <ele>776.70</ele>
        <time>2017-02-18T08:12:01Z</time>
      </trkpt>
      <trkpt lat="42.592656000" lon="-2.468468000">
        <ele>776.80</ele>
        <time>2017-02-18T08:12:03Z</time>
      </trkpt>
      <trkpt lat="42.592665000" lon="-2.468485000">
        <ele>776.90</ele>
        <time>2017-02-18T08:12:04Z</time>
      </trkpt>
      <trkpt lat="42.592674000" lon="-2.468495000">
        <ele>777.00</ele>
        <time>2017-02-18T08:12:05Z</time>
      </trkpt>
      <trkpt lat="42.592681000" lon="-2.468513000">
        <ele>777.00</ele>
        <time>2017-02-18T08:12:06Z</time>
      </trkpt>
      <trkpt lat="42.592686000" lon="-2.468525000">
        <ele>777.20</ele>
        <time>2017-02-18T08:12:07Z</time>
      </trkpt>
      <trkpt lat="42.592695000" lon="-2.468540000">
        <ele>777.30</ele>
        <time>2017-02-18T08:12:08Z</time>
      </trkpt>
      <trkpt lat="42.592709000" lon="-2.468550000">
        <ele>777.40</ele>
        <time>2017-02-18T08:12:09Z</time>
      </trkpt>
      <trkpt lat="42.592722000" lon="-2.468563000">
        <ele>777.50</ele>
        <time>2017-02-18T08:12:10Z</time>
      </trkpt>
      <trkpt lat="42.592732000" lon="-2.468575000">
        <ele>777.80</ele>
        <time>2017-02-18T08:12:11Z</time>
      </trkpt>
      <trkpt lat="42.592741000" lon="-2.468588000">
        <ele>777.90</ele>
        <time>2017-02-18T08:12:12Z</time>
      </trkpt>
      <trkpt lat="42.592753000" lon="-2.468604000">
        <ele>778.10</ele>
        <time>2017-02-18T08:12:13Z</time>
      </trkpt>
      <trkpt lat="42.592764000" lon="-2.468615000">
        <ele>778.20</ele>
        <time>2017-02-18T08:12:14Z</time>
      </trkpt>
      <trkpt lat="42.592772000" lon="-2.468628000">
        <ele>778.40</ele>
        <time>2017-02-18T08:12:15Z</time>
      </trkpt>
      <trkpt lat="42.592781000" lon="-2.468645000">
        <ele>778.50</ele>
        <time>2017-02-18T08:12:16Z</time>
      </trkpt>
      <trkpt lat="42.592790000" lon="-2.468652000">
        <ele>778.70</ele>
        <time>2017-02-18T08:12:17Z</time>
      </trkpt>
      <trkpt lat="42.592798000" lon="-2.468663000">
        <ele>778.80</ele>
        <time>2017-02-18T08:12:18Z</time>
      </trkpt>
      <trkpt lat="42.592811000" lon="-2.468672000">
        <ele>779.00</ele>
        <time>2017-02-18T08:12:19Z</time>
      </trkpt>
      <trkpt lat="42.592824000" lon="-2.468681000">
        <ele>779.10</ele>
        <time>2017-02-18T08:12:20Z</time>
      </trkpt>
      <trkpt lat="42.592834000" lon="-2.468695000">
        <ele>779.40</ele>
        <time>2017-02-18T08:12:21Z</time>
      </trkpt>
      <trkpt lat="42.592843000" lon="-2.468705000">
        <ele>779.50</ele>
        <time>2017-02-18T08:12:22Z</time>
      </trkpt>
      <trkpt lat="42.592849000" lon="-2.468714000">
        <ele>779.70</ele>
        <time>2017-02-18T08:12:23Z</time>
      </trkpt>
      <trkpt lat="42.592858000" lon="-2.468719000">
        <ele>779.80</ele>
        <time>2017-02-18T08:12:24Z</time>
      </trkpt>
      <trkpt lat="42.592866000" lon="-2.468729000">
        <ele>779.90</ele>
        <time>2017-02-18T08:12:25Z</time>
      </trkpt>
      <trkpt lat="42.592874000" lon="-2.468734000">
        <ele>780.00</ele>
        <time>2017-02-18T08:12:26Z</time>
      </trkpt>
      <trkpt lat="42.592884000" lon="-2.468744000">
        <ele>780.10</ele>
        <time>2017-02-18T08:12:27Z</time>
      </trkpt>
      <trkpt lat="42.592892000" lon="-2.468753000">
        <ele>780.10</ele>
        <time>2017-02-18T08:12:28Z</time>
      </trkpt>
      <trkpt lat="42.592904000" lon="-2.468762000">
        <ele>780.20</ele>
        <time>2017-02-18T08:12:29Z</time>
      </trkpt>
      <trkpt lat="42.592916000" lon="-2.468770000">
        <ele>780.30</ele>
        <time>2017-02-18T08:12:30Z</time>
      </trkpt>
      <trkpt lat="42.592926000" lon="-2.468781000">
        <ele>780.40</ele>
        <time>2017-02-18T08:12:31Z</time>
      </trkpt>
      <trkpt lat="42.592938000" lon="-2.468793000">
        <ele>780.40</ele>
        <time>2017-02-18T08:12:32Z</time>
      </trkpt>
      <trkpt lat="42.592951000" lon="-2.468802000">
        <ele>780.50</ele>
        <time>2017-02-18T08:12:33Z</time>
      </trkpt>
      <trkpt lat="42.592957000" lon="-2.468809000">
        <ele>780.60</ele>
        <time>2017-02-18T08:12:34Z</time>
      </trkpt>
      <trkpt lat="42.592961000" lon="-2.468819000">
        <ele>780.80</ele>
        <time>2017-02-18T08:12:35Z</time>
      </trkpt>
      <trkpt lat="42.592971000" lon="-2.468826000">
        <ele>781.00</ele>
        <time>2017-02-18T08:12:36Z</time>
      </trkpt>
      <trkpt lat="42.592982000" lon="-2.468834000">
        <ele>781.20</ele>
        <time>2017-02-18T08:12:37Z</time>
      </trkpt>
      <trkpt lat="42.592992000" lon="-2.468839000">
        <ele>781.30</ele>
        <time>2017-02-18T08:12:38Z</time>
      </trkpt>
      <trkpt lat="42.593001000" lon="-2.468850000">
        <ele>781.40</ele>
        <time>2017-02-18T08:12:39Z</time>
      </trkpt>
      <trkpt lat="42.593008000" lon="-2.468860000">
        <ele>781.50</ele>
        <time>2017-02-18T08:12:40Z</time>
      </trkpt>
      <trkpt lat="42.593016000" lon="-2.468872000">
        <ele>781.70</ele>
        <time>2017-02-18T08:12:41Z</time>
      </trkpt>
      <trkpt lat="42.593025000" lon="-2.468879000">
        <ele>781.70</ele>
        <time>2017-02-18T08:12:42Z</time>
      </trkpt>
      <trkpt lat="42.593035000" lon="-2.468891000">
        <ele>782.00</ele>
        <time>2017-02-18T08:12:43Z</time>
      </trkpt>
      <trkpt lat="42.593042000" lon="-2.468897000">
        <ele>782.10</ele>
        <time>2017-02-18T08:12:44Z</time>
      </trkpt>
      <trkpt lat="42.593048000" lon="-2.468911000">
        <ele>782.30</ele>
        <time>2017-02-18T08:12:45Z</time>
      </trkpt>
      <trkpt lat="42.593057000" lon="-2.468926000">
        <ele>782.40</ele>
        <time>2017-02-18T08:12:46Z</time>
      </trkpt>
      <trkpt lat="42.593062000" lon="-2.468931000">
        <ele>782.50</ele>
        <time>2017-02-18T08:12:47Z</time>
      </trkpt>
      <trkpt lat="42.593074000" lon="-2.468939000">
        <ele>782.60</ele>
        <time>2017-02-18T08:12:48Z</time>
      </trkpt>
      <trkpt lat="42.593084000" lon="-2.468949000">
        <ele>782.70</ele>
        <time>2017-02-18T08:12:49Z</time>
      </trkpt>
      <trkpt lat="42.593092000" lon="-2.468958000">
        <ele>782.70</ele>
        <time>2017-02-18T08:12:50Z</time>
      </trkpt>
      <trkpt lat="42.593097000" lon="-2.468967000">
        <ele>782.70</ele>
        <time>2017-02-18T08:12:51Z</time>
      </trkpt>
      <trkpt lat="42.593104000" lon="-2.468974000">
        <ele>782.80</ele>
        <time>2017-02-18T08:12:52Z</time>
      </trkpt>
      <trkpt lat="42.593113000" lon="-2.468983000">
        <ele>783.10</ele>
        <time>2017-02-18T08:12:53Z</time>
      </trkpt>
      <trkpt lat="42.593123000" lon="-2.468992000">
        <ele>783.30</ele>
        <time>2017-02-18T08:12:54Z</time>
      </trkpt>
      <trkpt lat="42.593131000" lon="-2.469004000">
        <ele>783.50</ele>
        <time>2017-02-18T08:12:55Z</time>
      </trkpt>
      <trkpt lat="42.593139000" lon="-2.469013000">
        <ele>783.70</ele>
        <time>2017-02-18T08:12:56Z</time>
      </trkpt>
      <trkpt lat="42.593145000" lon="-2.469024000">
        <ele>783.80</ele>
        <time>2017-02-18T08:12:57Z</time>
      </trkpt>
      <trkpt lat="42.593154000" lon="-2.469037000">
        <ele>784.00</ele>
        <time>2017-02-18T08:12:58Z</time>
      </trkpt>
      <trkpt lat="42.593163000" lon="-2.469045000">
        <ele>784.10</ele>
        <time>2017-02-18T08:12:59Z</time>
      </trkpt>
      <trkpt lat="42.593172000" lon="-2.469056000">
        <ele>784.20</ele>
        <time>2017-02-18T08:13:00Z</time>
      </trkpt>
      <trkpt lat="42.593178000" lon="-2.469064000">
        <ele>784.30</ele>
        <time>2017-02-18T08:13:01Z</time>
      </trkpt>
      <trkpt lat="42.593186000" lon="-2.469072000">
        <ele>784.40</ele>
        <time>2017-02-18T08:13:02Z</time>
      </trkpt>
      <trkpt lat="42.593201000" lon="-2.469086000">
        <ele>784.60</ele>
        <time>2017-02-18T08:13:04Z</time>
      </trkpt>
      <trkpt lat="42.593207000" lon="-2.469095000">
        <ele>784.70</ele>
        <time>2017-02-18T08:13:05Z</time>
      </trkpt>
      <trkpt lat="42.593214000" lon="-2.469100000">
        <ele>784.80</ele>
        <time>2017-02-18T08:13:06Z</time>
      </trkpt>
      <trkpt lat="42.593220000" lon="-2.469105000">
        <ele>785.00</ele>
        <time>2017-02-18T08:13:07Z</time>
      </trkpt>
      <trkpt lat="42.593226000" lon="-2.469114000">
        <ele>785.10</ele>
        <time>2017-02-18T08:13:08Z</time>
      </trkpt>
      <trkpt lat="42.593232000" lon="-2.469120000">
        <ele>785.20</ele>
        <time>2017-02-18T08:13:09Z</time>
      </trkpt>
      <trkpt lat="42.593239000" lon="-2.469128000">
        <ele>785.40</ele>
        <time>2017-02-18T08:13:10Z</time>
      </trkpt>
      <trkpt lat="42.593249000" lon="-2.469138000">
        <ele>785.40</ele>
        <time>2017-02-18T08:13:11Z</time>
      </trkpt>
      <trkpt lat="42.593259000" lon="-2.469150000">
        <ele>785.50</ele>
        <time>2017-02-18T08:13:12Z</time>
      </trkpt>
      <trkpt lat="42.593271000" lon="-2.469164000">
        <ele>785.70</ele>
        <time>2017-02-18T08:13:13Z</time>
      </trkpt>
      <trkpt lat="42.593280000" lon="-2.469174000">
        <ele>785.80</ele>
        <time>2017-02-18T08:13:14Z</time>
      </trkpt>
      <trkpt lat="42.593287000" lon="-2.469184000">
        <ele>785.90</ele>
        <time>2017-02-18T08:13:15Z</time>
      </trkpt>
      <trkpt lat="42.593295000" lon="-2.469194000">
        <ele>786.00</ele>
        <time>2017-02-18T08:13:16Z</time>
      </trkpt>
      <trkpt lat="42.593303000" lon="-2.469203000">
        <ele>786.10</ele>
        <time>2017-02-18T08:13:17Z</time>
      </trkpt>
      <trkpt lat="42.593313000" lon="-2.469212000">
        <ele>786.10</ele>
        <time>2017-02-18T08:13:18Z</time>
      </trkpt>
      <trkpt lat="42.593321000" lon="-2.469219000">
        <ele>786.30</ele>
        <time>2017-02-18T08:13:19Z</time>
      </trkpt>
      <trkpt lat="42.593328000" lon="-2.469223000">
        <ele>786.50</ele>
        <time>2017-02-18T08:13:20Z</time>
      </trkpt>
      <trkpt lat="42.593338000" lon="-2.469232000">
        <ele>786.60</ele>
        <time>2017-02-18T08:13:21Z</time>
      </trkpt>
      <trkpt lat="42.593347000" lon="-2.469243000">
        <ele>786.70</ele>
        <time>2017-02-18T08:13:22Z</time>
      </trkpt>
      <trkpt lat="42.593354000" lon="-2.469257000">
        <ele>786.80</ele>
        <time>2017-02-18T08:13:23Z</time>
      </trkpt>
      <trkpt lat="42.593362000" lon="-2.469269000">
        <ele>786.80</ele>
        <time>2017-02-18T08:13:24Z</time>
      </trkpt>
      <trkpt lat="42.593369000" lon="-2.469281000">
        <ele>786.90</ele>
        <time>2017-02-18T08:13:25Z</time>
      </trkpt>
      <trkpt lat="42.593374000" lon="-2.469292000">
        <ele>786.90</ele>
        <time>2017-02-18T08:13:26Z</time>
      </trkpt>
      <trkpt lat="42.593381000" lon="-2.469302000">
        <ele>786.90</ele>
        <time>2017-02-18T08:13:27Z</time>
      </trkpt>
      <trkpt lat="42.593389000" lon="-2.469317000">
        <ele>787.00</ele>
        <time>2017-02-18T08:13:28Z</time>
      </trkpt>
      <trkpt lat="42.593397000" lon="-2.469331000">
        <ele>787.10</ele>
        <time>2017-02-18T08:13:29Z</time>
      </trkpt>
      <trkpt lat="42.593402000" lon="-2.469342000">
        <ele>787.40</ele>
        <time>2017-02-18T08:13:30Z</time>
      </trkpt>
      <trkpt lat="42.593406000" lon="-2.469359000">
        <ele>787.70</ele>
        <time>2017-02-18T08:13:31Z</time>
      </trkpt>
      <trkpt lat="42.593414000" lon="-2.469373000">
        <ele>788.10</ele>
        <time>2017-02-18T08:13:32Z</time>
      </trkpt>
      <trkpt lat="42.593424000" lon="-2.469382000">
        <ele>788.30</ele>
        <time>2017-02-18T08:13:33Z</time>
      </trkpt>
      <trkpt lat="42.593435000" lon="-2.469391000">
        <ele>788.50</ele>
        <time>2017-02-18T08:13:34Z</time>
      </trkpt>
      <trkpt lat="42.593445000" lon="-2.469402000">
        <ele>788.70</ele>
        <time>2017-02-18T08:13:35Z</time>
      </trkpt>
      <trkpt lat="42.593453000" lon="-2.469411000">
        <ele>788.90</ele>
        <time>2017-02-18T08:13:36Z</time>
      </trkpt>
      <trkpt lat="42.593465000" lon="-2.469415000">
        <ele>789.00</ele>
        <time>2017-02-18T08:13:37Z</time>
      </trkpt>
      <trkpt lat="42.593479000" lon="-2.469421000">
        <ele>789.10</ele>
        <time>2017-02-18T08:13:38Z</time>
      </trkpt>
      <trkpt lat="42.593489000" lon="-2.469429000">
        <ele>789.20</ele>
        <time>2017-02-18T08:13:39Z</time>
      </trkpt>
      <trkpt lat="42.593494000" lon="-2.469434000">
        <ele>789.20</ele>
        <time>2017-02-18T08:13:40Z</time>
      </trkpt>
      <trkpt lat="42.593499000" lon="-2.469441000">
        <ele>789.30</ele>
        <time>2017-02-18T08:13:41Z</time>
      </trkpt>
      <trkpt lat="42.593510000" lon="-2.469450000">
        <ele>789.30</ele>
        <time>2017-02-18T08:13:42Z</time>
      </trkpt>
      <trkpt lat="42.593515000" lon="-2.469462000">
        <ele>789.30</ele>
        <time>2017-02-18T08:13:43Z</time>
      </trkpt>
      <trkpt lat="42.593526000" lon="-2.469474000">
        <ele>789.70</ele>
        <time>2017-02-18T08:13:44Z</time>
      </trkpt>
      <trkpt lat="42.593539000" lon="-2.469487000">
        <ele>789.90</ele>
        <time>2017-02-18T08:13:45Z</time>
      </trkpt>
      <trkpt lat="42.593549000" lon="-2.469497000">
        <ele>790.10</ele>
        <time>2017-02-18T08:13:46Z</time>
      </trkpt>
      <trkpt lat="42.593556000" lon="-2.469506000">
        <ele>790.30</ele>
        <time>2017-02-18T08:13:47Z</time>
      </trkpt>
      <trkpt lat="42.593564000" lon="-2.469519000">
        <ele>790.40</ele>
        <time>2017-02-18T08:13:48Z</time>
      </trkpt>
      <trkpt lat="42.593573000" lon="-2.469521000">
        <ele>790.60</ele>
        <time>2017-02-18T08:13:49Z</time>
      </trkpt>
      <trkpt lat="42.593580000" lon="-2.469530000">
        <ele>790.70</ele>
        <time>2017-02-18T08:13:50Z</time>
      </trkpt>
      <trkpt lat="42.593589000" lon="-2.469533000">
        <ele>790.70</ele>
        <time>2017-02-18T08:13:51Z</time>
      </trkpt>
      <trkpt lat="42.593595000" lon="-2.469540000">
        <ele>790.80</ele>
        <time>2017-02-18T08:13:52Z</time>
      </trkpt>
      <trkpt lat="42.593599000" lon="-2.469554000">
        <ele>790.80</ele>
        <time>2017-02-18T08:13:53Z</time>
      </trkpt>
      <trkpt lat="42.593609000" lon="-2.469565000">
        <ele>790.90</ele>
        <time>2017-02-18T08:13:54Z</time>
      </trkpt>
      <trkpt lat="42.593620000" lon="-2.469571000">
        <ele>790.90</ele>
        <time>2017-02-18T08:13:55Z</time>
      </trkpt>
      <trkpt lat="42.593633000" lon="-2.469579000">
        <ele>790.90</ele>
        <time>2017-02-18T08:13:56Z</time>
      </trkpt>
      <trkpt lat="42.593642000" lon="-2.469588000">
        <ele>790.90</ele>
        <time>2017-02-18T08:13:57Z</time>
      </trkpt>
      <trkpt lat="42.593650000" lon="-2.469601000">
        <ele>791.00</ele>
        <time>2017-02-18T08:13:58Z</time>
      </trkpt>
      <trkpt lat="42.593659000" lon="-2.469606000">
        <ele>791.00</ele>
        <time>2017-02-18T08:13:59Z</time>
      </trkpt>
      <trkpt lat="42.593669000" lon="-2.469610000">
        <ele>791.10</ele>
        <time>2017-02-18T08:14:00Z</time>
      </trkpt>
      <trkpt lat="42.593677000" lon="-2.469619000">
        <ele>791.10</ele>
        <time>2017-02-18T08:14:01Z</time>
      </trkpt>
      <trkpt lat="42.593687000" lon="-2.469623000">
        <ele>791.10</ele>
        <time>2017-02-18T08:14:02Z</time>
      </trkpt>
      <trkpt lat="42.593697000" lon="-2.469628000">
        <ele>791.20</ele>
        <time>2017-02-18T08:14:03Z</time>
      </trkpt>
      <trkpt lat="42.593718000" lon="-2.469645000">
        <ele>791.30</ele>
        <time>2017-02-18T08:14:05Z</time>
      </trkpt>
      <trkpt lat="42.593729000" lon="-2.469655000">
        <ele>791.30</ele>
        <time>2017-02-18T08:14:06Z</time>
      </trkpt>
      <trkpt lat="42.593739000" lon="-2.469666000">
        <ele>791.40</ele>
        <time>2017-02-18T08:14:07Z</time>
      </trkpt>
      <trkpt lat="42.593748000" lon="-2.469677000">
        <ele>791.50</ele>
        <time>2017-02-18T08:14:08Z</time>
      </trkpt>
      <trkpt lat="42.593758000" lon="-2.469682000">
        <ele>791.50</ele>
        <time>2017-02-18T08:14:09Z</time>
      </trkpt>
      <trkpt lat="42.593768000" lon="-2.469690000">
        <ele>791.60</ele>
        <time>2017-02-18T08:14:10Z</time>
      </trkpt>
      <trkpt lat="42.593777000" lon="-2.469695000">
        <ele>791.70</ele>
        <time>2017-02-18T08:14:11Z</time>
      </trkpt>
      <trkpt lat="42.593784000" lon="-2.469705000">
        <ele>791.80</ele>
        <time>2017-02-18T08:14:12Z</time>
      </trkpt>
      <trkpt lat="42.593794000" lon="-2.469715000">
        <ele>791.90</ele>
        <time>2017-02-18T08:14:13Z</time>
      </trkpt>
      <trkpt lat="42.593804000" lon="-2.469729000">
        <ele>792.00</ele>
        <time>2017-02-18T08:14:14Z</time>
      </trkpt>
      <trkpt lat="42.593814000" lon="-2.469743000">
        <ele>792.20</ele>
        <time>2017-02-18T08:14:15Z</time>
      </trkpt>
      <trkpt lat="42.593822000" lon="-2.469753000">
        <ele>792.20</ele>
        <time>2017-02-18T08:14:16Z</time>
      </trkpt>
      <trkpt lat="42.593830000" lon="-2.469765000">
        <ele>792.30</ele>
        <time>2017-02-18T08:14:17Z</time>
      </trkpt>
      <trkpt lat="42.593838000" lon="-2.469772000">
        <ele>792.30</ele>
        <time>2017-02-18T08:14:18Z</time>
      </trkpt>
      <trkpt lat="42.593848000" lon="-2.469775000">
        <ele>792.40</ele>
        <time>2017-02-18T08:14:19Z</time>
      </trkpt>
      <trkpt lat="42.593861000" lon="-2.469783000">
        <ele>792.40</ele>
        <time>2017-02-18T08:14:20Z</time>
      </trkpt>
      <trkpt lat="42.593871000" lon="-2.469795000">
        <ele>792.40</ele>
        <time>2017-02-18T08:14:21Z</time>
      </trkpt>
      <trkpt lat="42.593882000" lon="-2.469803000">
        <ele>792.40</ele>
        <time>2017-02-18T08:14:22Z</time>
      </trkpt>
      <trkpt lat="42.593892000" lon="-2.469816000">
        <ele>792.30</ele>
        <time>2017-02-18T08:14:23Z</time>
      </trkpt>
      <trkpt lat="42.593902000" lon="-2.469823000">
        <ele>792.40</ele>
        <time>2017-02-18T08:14:24Z</time>
      </trkpt>
      <trkpt lat="42.593913000" lon="-2.469830000">
        <ele>792.50</ele>
        <time>2017-02-18T08:14:25Z</time>
      </trkpt>
      <trkpt lat="42.593923000" lon="-2.469839000">
        <ele>792.40</ele>
        <time>2017-02-18T08:14:26Z</time>
      </trkpt>
      <trkpt lat="42.593933000" lon="-2.469848000">
        <ele>792.40</ele>
        <time>2017-02-18T08:14:27Z</time>
      </trkpt>
      <trkpt lat="42.593943000" lon="-2.469851000">
        <ele>792.30</ele>
        <time>2017-02-18T08:14:28Z</time>
      </trkpt>
      <trkpt lat="42.593955000" lon="-2.469857000">
        <ele>792.30</ele>
        <time>2017-02-18T08:14:29Z</time>
      </trkpt>
      <trkpt lat="42.593965000" lon="-2.469858000">
        <ele>792.30</ele>
        <time>2017-02-18T08:14:30Z</time>
      </trkpt>
      <trkpt lat="42.593977000" lon="-2.469862000">
        <ele>792.20</ele>
        <time>2017-02-18T08:14:31Z</time>
      </trkpt>
      <trkpt lat="42.593986000" lon="-2.469871000">
        <ele>792.30</ele>
        <time>2017-02-18T08:14:32Z</time>
      </trkpt>
      <trkpt lat="42.593996000" lon="-2.469882000">
        <ele>792.30</ele>
        <time>2017-02-18T08:14:33Z</time>
      </trkpt>
      <trkpt lat="42.594007000" lon="-2.469892000">
        <ele>792.50</ele>
        <time>2017-02-18T08:14:34Z</time>
      </trkpt>
      <trkpt lat="42.594016000" lon="-2.469901000">
        <ele>792.60</ele>
        <time>2017-02-18T08:14:35Z</time>
      </trkpt>
      <trkpt lat="42.594024000" lon="-2.469911000">
        <ele>792.70</ele>
        <time>2017-02-18T08:14:36Z</time>
      </trkpt>
      <trkpt lat="42.594031000" lon="-2.469917000">
        <ele>792.80</ele>
        <time>2017-02-18T08:14:37Z</time>
      </trkpt>
      <trkpt lat="42.594040000" lon="-2.469921000">
        <ele>792.80</ele>
        <time>2017-02-18T08:14:38Z</time>
      </trkpt>
      <trkpt lat="42.594054000" lon="-2.469926000">
        <ele>792.80</ele>
        <time>2017-02-18T08:14:39Z</time>
      </trkpt>
      <trkpt lat="42.594062000" lon="-2.469928000">
        <ele>792.80</ele>
        <time>2017-02-18T08:14:40Z</time>
      </trkpt>
      <trkpt lat="42.594071000" lon="-2.469940000">
        <ele>792.90</ele>
        <time>2017-02-18T08:14:41Z</time>
      </trkpt>
      <trkpt lat="42.594080000" lon="-2.469952000">
        <ele>792.90</ele>
        <time>2017-02-18T08:14:42Z</time>
      </trkpt>
      <trkpt lat="42.594091000" lon="-2.469966000">
        <ele>792.90</ele>
        <time>2017-02-18T08:14:43Z</time>
      </trkpt>
      <trkpt lat="42.594101000" lon="-2.469969000">
        <ele>792.90</ele>
        <time>2017-02-18T08:14:44Z</time>
      </trkpt>
      <trkpt lat="42.594113000" lon="-2.469978000">
        <ele>792.90</ele>
        <time>2017-02-18T08:14:45Z</time>
      </trkpt>
      <trkpt lat="42.594124000" lon="-2.469987000">
        <ele>793.00</ele>
        <time>2017-02-18T08:14:46Z</time>
      </trkpt>
      <trkpt lat="42.594134000" lon="-2.470002000">
        <ele>793.00</ele>
        <time>2017-02-18T08:14:47Z</time>
      </trkpt>
      <trkpt lat="42.594147000" lon="-2.470016000">
        <ele>793.10</ele>
        <time>2017-02-18T08:14:48Z</time>
      </trkpt>
      <trkpt lat="42.594158000" lon="-2.470028000">
        <ele>793.10</ele>
        <time>2017-02-18T08:14:49Z</time>
      </trkpt>
      <trkpt lat="42.594172000" lon="-2.470038000">
        <ele>793.20</ele>
        <time>2017-02-18T08:14:50Z</time>
      </trkpt>
      <trkpt lat="42.594182000" lon="-2.470052000">
        <ele>793.20</ele>
        <time>2017-02-18T08:14:51Z</time>
      </trkpt>
      <trkpt lat="42.594192000" lon="-2.470064000">
        <ele>793.20</ele>
        <time>2017-02-18T08:14:52Z</time>
      </trkpt>
      <trkpt lat="42.594205000" lon="-2.470073000">
        <ele>793.20</ele>
        <time>2017-02-18T08:14:53Z</time>
      </trkpt>
      <trkpt lat="42.594215000" lon="-2.470082000">
        <ele>793.20</ele>
        <time>2017-02-18T08:14:54Z</time>
      </trkpt>
      <trkpt lat="42.594227000" lon="-2.470091000">
        <ele>793.20</ele>
        <time>2017-02-18T08:14:55Z</time>
      </trkpt>
      <trkpt lat="42.594239000" lon="-2.470097000">
        <ele>793.30</ele>
        <time>2017-02-18T08:14:56Z</time>
      </trkpt>
      <trkpt lat="42.594250000" lon="-2.470109000">
        <ele>793.30</ele>
        <time>2017-02-18T08:14:57Z</time>
      </trkpt>
      <trkpt lat="42.594261000" lon="-2.470123000">
        <ele>793.30</ele>
        <time>2017-02-18T08:14:58Z</time>
      </trkpt>
      <trkpt lat="42.594274000" lon="-2.470133000">
        <ele>793.30</ele>
        <time>2017-02-18T08:14:59Z</time>
      </trkpt>
      <trkpt lat="42.594285000" lon="-2.470152000">
        <ele>793.30</ele>
        <time>2017-02-18T08:15:00Z</time>
      </trkpt>
      <trkpt lat="42.594298000" lon="-2.470164000">
        <ele>793.30</ele>
        <time>2017-02-18T08:15:01Z</time>
      </trkpt>
      <trkpt lat="42.594314000" lon="-2.470179000">
        <ele>793.30</ele>
        <time>2017-02-18T08:15:02Z</time>
      </trkpt>
      <trkpt lat="42.594329000" lon="-2.470191000">
        <ele>793.20</ele>
        <time>2017-02-18T08:15:03Z</time>
      </trkpt>
      <trkpt lat="42.594340000" lon="-2.470211000">
        <ele>793.30</ele>
        <time>2017-02-18T08:15:04Z</time>
      </trkpt>
      <trkpt lat="42.594369000" lon="-2.470227000">
        <ele>793.40</ele>
        <time>2017-02-18T08:15:06Z</time>
      </trkpt>
      <trkpt lat="42.594382000" lon="-2.470237000">
        <ele>793.40</ele>
        <time>2017-02-18T08:15:07Z</time>
      </trkpt>
      <trkpt lat="42.594401000" lon="-2.470245000">
        <ele>793.50</ele>
        <time>2017-02-18T08:15:08Z</time>
      </trkpt>
      <trkpt lat="42.594411000" lon="-2.470262000">
        <ele>793.50</ele>
        <time>2017-02-18T08:15:09Z</time>
      </trkpt>
      <trkpt lat="42.594421000" lon="-2.470276000">
        <ele>793.50</ele>
        <time>2017-02-18T08:15:10Z</time>
      </trkpt>
      <trkpt lat="42.594432000" lon="-2.470291000">
        <ele>793.50</ele>
        <time>2017-02-18T08:15:11Z</time>
      </trkpt>
      <trkpt lat="42.594445000" lon="-2.470305000">
        <ele>793.60</ele>
        <time>2017-02-18T08:15:12Z</time>
      </trkpt>
      <trkpt lat="42.594458000" lon="-2.470316000">
        <ele>793.70</ele>
        <time>2017-02-18T08:15:13Z</time>
      </trkpt>
      <trkpt lat="42.594472000" lon="-2.470324000">
        <ele>793.70</ele>
        <time>2017-02-18T08:15:14Z</time>
      </trkpt>
      <trkpt lat="42.594484000" lon="-2.470333000">
        <ele>793.70</ele>
        <time>2017-02-18T08:15:15Z</time>
      </trkpt>
      <trkpt lat="42.594498000" lon="-2.470342000">
        <ele>793.80</ele>
        <time>2017-02-18T08:15:16Z</time>
      </trkpt>
      <trkpt lat="42.594510000" lon="-2.470354000">
        <ele>793.80</ele>
        <time>2017-02-18T08:15:17Z</time>
      </trkpt>
      <trkpt lat="42.594523000" lon="-2.470368000">
        <ele>794.00</ele>
        <time>2017-02-18T08:15:18Z</time>
      </trkpt>
      <trkpt lat="42.594539000" lon="-2.470381000">
        <ele>794.20</ele>
        <time>2017-02-18T08:15:19Z</time>
      </trkpt>
      <trkpt lat="42.594552000" lon="-2.470393000">
        <ele>794.30</ele>
        <time>2017-02-18T08:15:20Z</time>
      </trkpt>
      <trkpt lat="42.594563000" lon="-2.470409000">
        <ele>794.40</ele>
        <time>2017-02-18T08:15:21Z</time>
      </trkpt>
      <trkpt lat="42.594578000" lon="-2.470421000">
        <ele>794.40</ele>
        <time>2017-02-18T08:15:22Z</time>
      </trkpt>
      <trkpt lat="42.594589000" lon="-2.470434000">
        <ele>794.40</ele>
        <time>2017-02-18T08:15:23Z</time>
      </trkpt>
      <trkpt lat="42.594601000" lon="-2.470447000">
        <ele>794.40</ele>
        <time>2017-02-18T08:15:24Z</time>
      </trkpt>
      <trkpt lat="42.594612000" lon="-2.470459000">
        <ele>794.40</ele>
        <time>2017-02-18T08:15:25Z</time>
      </trkpt>
      <trkpt lat="42.594626000" lon="-2.470467000">
        <ele>794.40</ele>
        <time>2017-02-18T08:15:26Z</time>
      </trkpt>
      <trkpt lat="42.594639000" lon="-2.470477000">
        <ele>794.40</ele>
        <time>2017-02-18T08:15:27Z</time>
      </trkpt>
      <trkpt lat="42.594649000" lon="-2.470491000">
        <ele>794.60</ele>
        <time>2017-02-18T08:15:28Z</time>
      </trkpt>
      <trkpt lat="42.594660000" lon="-2.470502000">
        <ele>794.70</ele>
        <time>2017-02-18T08:15:29Z</time>
      </trkpt>
      <trkpt lat="42.594670000" lon="-2.470518000">
        <ele>794.70</ele>
        <time>2017-02-18T08:15:30Z</time>
      </trkpt>
      <trkpt lat="42.594681000" lon="-2.470532000">
        <ele>794.80</ele>
        <time>2017-02-18T08:15:31Z</time>
      </trkpt>
      <trkpt lat="42.594692000" lon="-2.470541000">
        <ele>794.80</ele>
        <time>2017-02-18T08:15:32Z</time>
      </trkpt>
      <trkpt lat="42.594703000" lon="-2.470553000">
        <ele>794.90</ele>
        <time>2017-02-18T08:15:33Z</time>
      </trkpt>
      <trkpt lat="42.594717000" lon="-2.470563000">
        <ele>795.10</ele>
        <time>2017-02-18T08:15:34Z</time>
      </trkpt>
      <trkpt lat="42.594731000" lon="-2.470572000">
        <ele>795.30</ele>
        <time>2017-02-18T08:15:35Z</time>
      </trkpt>
      <trkpt lat="42.594743000" lon="-2.470585000">
        <ele>795.50</ele>
        <time>2017-02-18T08:15:36Z</time>
      </trkpt>
      <trkpt lat="42.594757000" lon="-2.470597000">
        <ele>795.60</ele>
        <time>2017-02-18T08:15:37Z</time>
      </trkpt>
      <trkpt lat="42.594769000" lon="-2.470606000">
        <ele>795.70</ele>
        <time>2017-02-18T08:15:38Z</time>
      </trkpt>
      <trkpt lat="42.594781000" lon="-2.470619000">
        <ele>795.80</ele>
        <time>2017-02-18T08:15:39Z</time>
      </trkpt>
      <trkpt lat="42.594793000" lon="-2.470632000">
        <ele>795.60</ele>
        <time>2017-02-18T08:15:40Z</time>
      </trkpt>
      <trkpt lat="42.594808000" lon="-2.470645000">
        <ele>795.50</ele>
        <time>2017-02-18T08:15:41Z</time>
      </trkpt>
      <trkpt lat="42.594821000" lon="-2.470656000">
        <ele>795.50</ele>
        <time>2017-02-18T08:15:42Z</time>
      </trkpt>
      <trkpt lat="42.594832000" lon="-2.470667000">
        <ele>795.40</ele>
        <time>2017-02-18T08:15:43Z</time>
      </trkpt>
      <trkpt lat="42.594843000" lon="-2.470678000">
        <ele>795.40</ele>
        <time>2017-02-18T08:15:44Z</time>
      </trkpt>
      <trkpt lat="42.594856000" lon="-2.470691000">
        <ele>795.30</ele>
        <time>2017-02-18T08:15:45Z</time>
      </trkpt>
      <trkpt lat="42.594871000" lon="-2.470699000">
        <ele>795.50</ele>
        <time>2017-02-18T08:15:46Z</time>
      </trkpt>
      <trkpt lat="42.594883000" lon="-2.470708000">
        <ele>795.70</ele>
        <time>2017-02-18T08:15:47Z</time>
      </trkpt>
      <trkpt lat="42.594895000" lon="-2.470720000">
        <ele>795.90</ele>
        <time>2017-02-18T08:15:48Z</time>
      </trkpt>
      <trkpt lat="42.594906000" lon="-2.470732000">
        <ele>796.00</ele>
        <time>2017-02-18T08:15:49Z</time>
      </trkpt>
      <trkpt lat="42.594921000" lon="-2.470746000">
        <ele>796.20</ele>
        <time>2017-02-18T08:15:50Z</time>
      </trkpt>
      <trkpt lat="42.594931000" lon="-2.470762000">
        <ele>796.20</ele>
        <time>2017-02-18T08:15:51Z</time>
      </trkpt>
      <trkpt lat="42.594942000" lon="-2.470776000">
        <ele>796.40</ele>
        <time>2017-02-18T08:15:52Z</time>
      </trkpt>
      <trkpt lat="42.594956000" lon="-2.470790000">
        <ele>796.60</ele>
        <time>2017-02-18T08:15:53Z</time>
      </trkpt>
      <trkpt lat="42.594966000" lon="-2.470809000">
        <ele>796.60</ele>
        <time>2017-02-18T08:15:54Z</time>
      </trkpt>
      <trkpt lat="42.594976000" lon="-2.470817000">
        <ele>796.60</ele>
        <time>2017-02-18T08:15:55Z</time>
      </trkpt>
      <trkpt lat="42.594988000" lon="-2.470828000">
        <ele>796.80</ele>
        <time>2017-02-18T08:15:56Z</time>
      </trkpt>
      <trkpt lat="42.595003000" lon="-2.470837000">
        <ele>796.90</ele>
        <time>2017-02-18T08:15:57Z</time>
      </trkpt>
      <trkpt lat="42.595014000" lon="-2.470846000">
        <ele>796.90</ele>
        <time>2017-02-18T08:15:58Z</time>
      </trkpt>
      <trkpt lat="42.595026000" lon="-2.470860000">
        <ele>797.00</ele>
        <time>2017-02-18T08:15:59Z</time>
      </trkpt>
      <trkpt lat="42.595035000" lon="-2.470872000">
        <ele>797.10</ele>
        <time>2017-02-18T08:16:00Z</time>
      </trkpt>
      <trkpt lat="42.595045000" lon="-2.470885000">
        <ele>797.20</ele>
        <time>2017-02-18T08:16:01Z</time>
      </trkpt>
      <trkpt lat="42.595059000" lon="-2.470899000">
        <ele>797.30</ele>
        <time>2017-02-18T08:16:02Z</time>
      </trkpt>
      <trkpt lat="42.595073000" lon="-2.470908000">
        <ele>797.40</ele>
        <time>2017-02-18T08:16:03Z</time>
      </trkpt>
      <trkpt lat="42.595086000" lon="-2.470925000">
        <ele>797.70</ele>
        <time>2017-02-18T08:16:04Z</time>
      </trkpt>
      <trkpt lat="42.595096000" lon="-2.470932000">
        <ele>797.90</ele>
        <time>2017-02-18T08:16:05Z</time>
      </trkpt>
      <trkpt lat="42.595118000" lon="-2.470954000">
        <ele>798.20</ele>
        <time>2017-02-18T08:16:07Z</time>
      </trkpt>
      <trkpt lat="42.595126000" lon="-2.470968000">
        <ele>798.30</ele>
        <time>2017-02-18T08:16:08Z</time>
      </trkpt>
      <trkpt lat="42.595137000" lon="-2.470978000">
        <ele>798.30</ele>
        <time>2017-02-18T08:16:09Z</time>
      </trkpt>
      <trkpt lat="42.595149000" lon="-2.470992000">
        <ele>798.30</ele>
        <time>2017-02-18T08:16:10Z</time>
      </trkpt>
      <trkpt lat="42.595163000" lon="-2.471007000">
        <ele>798.30</ele>
        <time>2017-02-18T08:16:11Z</time>
      </trkpt>
      <trkpt lat="42.595177000" lon="-2.471014000">
        <ele>798.30</ele>
        <time>2017-02-18T08:16:12Z</time>
      </trkpt>
      <trkpt lat="42.595193000" lon="-2.471019000">
        <ele>798.30</ele>
        <time>2017-02-18T08:16:13Z</time>
      </trkpt>
      <trkpt lat="42.595205000" lon="-2.471031000">
        <ele>798.40</ele>
        <time>2017-02-18T08:16:14Z</time>
      </trkpt>
      <trkpt lat="42.595218000" lon="-2.471045000">
        <ele>798.50</ele>
        <time>2017-02-18T08:16:15Z</time>
      </trkpt>
      <trkpt lat="42.595231000" lon="-2.471055000">
        <ele>798.60</ele>
        <time>2017-02-18T08:16:16Z</time>
      </trkpt>
      <trkpt lat="42.595246000" lon="-2.471069000">
        <ele>798.60</ele>
        <time>2017-02-18T08:16:17Z</time>
      </trkpt>
      <trkpt lat="42.595259000" lon="-2.471079000">
        <ele>798.70</ele>
        <time>2017-02-18T08:16:18Z</time>
      </trkpt>
      <trkpt lat="42.595276000" lon="-2.471096000">
        <ele>798.70</ele>
        <time>2017-02-18T08:16:19Z</time>
      </trkpt>
      <trkpt lat="42.595291000" lon="-2.471109000">
        <ele>798.80</ele>
        <time>2017-02-18T08:16:20Z</time>
      </trkpt>
      <trkpt lat="42.595305000" lon="-2.471123000">
        <ele>798.80</ele>
        <time>2017-02-18T08:16:21Z</time>
      </trkpt>
      <trkpt lat="42.595317000" lon="-2.471138000">
        <ele>798.80</ele>
        <time>2017-02-18T08:16:22Z</time>
      </trkpt>
      <trkpt lat="42.595331000" lon="-2.471148000">
        <ele>798.80</ele>
        <time>2017-02-18T08:16:23Z</time>
      </trkpt>
      <trkpt lat="42.595344000" lon="-2.471161000">
        <ele>798.80</ele>
        <time>2017-02-18T08:16:24Z</time>
      </trkpt>
      <trkpt lat="42.595354000" lon="-2.471176000">
        <ele>798.80</ele>
        <time>2017-02-18T08:16:25Z</time>
      </trkpt>
      <trkpt lat="42.595364000" lon="-2.471187000">
        <ele>798.90</ele>
        <time>2017-02-18T08:16:26Z</time>
      </trkpt>
      <trkpt lat="42.595372000" lon="-2.471194000">
        <ele>798.90</ele>
        <time>2017-02-18T08:16:27Z</time>
      </trkpt>
      <trkpt lat="42.595385000" lon="-2.471208000">
        <ele>799.10</ele>
        <time>2017-02-18T08:16:28Z</time>
      </trkpt>
      <trkpt lat="42.595398000" lon="-2.471218000">
        <ele>799.20</ele>
        <time>2017-02-18T08:16:29Z</time>
      </trkpt>
      <trkpt lat="42.595411000" lon="-2.471230000">
        <ele>799.30</ele>
        <time>2017-02-18T08:16:30Z</time>
      </trkpt>
      <trkpt lat="42.595430000" lon="-2.471240000">
        <ele>799.40</ele>
        <time>2017-02-18T08:16:31Z</time>
      </trkpt>
      <trkpt lat="42.595446000" lon="-2.471256000">
        <ele>799.40</ele>
        <time>2017-02-18T08:16:32Z</time>
      </trkpt>
      <trkpt lat="42.595461000" lon="-2.471270000">
        <ele>799.50</ele>
        <time>2017-02-18T08:16:33Z</time>
      </trkpt>
      <trkpt lat="42.595474000" lon="-2.471286000">
        <ele>799.50</ele>
        <time>2017-02-18T08:16:34Z</time>
      </trkpt>
      <trkpt lat="42.595490000" lon="-2.471298000">
        <ele>799.60</ele>
        <time>2017-02-18T08:16:35Z</time>
      </trkpt>
      <trkpt lat="42.595503000" lon="-2.471311000">
        <ele>799.70</ele>
        <time>2017-02-18T08:16:36Z</time>
      </trkpt>
      <trkpt lat="42.595518000" lon="-2.471326000">
        <ele>799.80</ele>
        <time>2017-02-18T08:16:37Z</time>
      </trkpt>
      <trkpt lat="42.595531000" lon="-2.471345000">
        <ele>799.80</ele>
        <time>2017-02-18T08:16:38Z</time>
      </trkpt>
      <trkpt lat="42.595544000" lon="-2.471366000">
        <ele>799.90</ele>
        <time>2017-02-18T08:16:39Z</time>
      </trkpt>
      <trkpt lat="42.595558000" lon="-2.471384000">
        <ele>799.90</ele>
        <time>2017-02-18T08:16:40Z</time>
      </trkpt>
      <trkpt lat="42.595575000" lon="-2.471402000">
        <ele>799.90</ele>
        <time>2017-02-18T08:16:41Z</time>
      </trkpt>
      <trkpt lat="42.595587000" lon="-2.471415000">
        <ele>799.90</ele>
        <time>2017-02-18T08:16:42Z</time>
      </trkpt>
      <trkpt lat="42.595603000" lon="-2.471426000">
        <ele>799.90</ele>
        <time>2017-02-18T08:16:43Z</time>
      </trkpt>
      <trkpt lat="42.595619000" lon="-2.471440000">
        <ele>799.90</ele>
        <time>2017-02-18T08:16:44Z</time>
      </trkpt>
      <trkpt lat="42.595636000" lon="-2.471453000">
        <ele>799.90</ele>
        <time>2017-02-18T08:16:45Z</time>
      </trkpt>
      <trkpt lat="42.595651000" lon="-2.471458000">
        <ele>800.00</ele>
        <time>2017-02-18T08:16:46Z</time>
      </trkpt>
      <trkpt lat="42.595667000" lon="-2.471470000">
        <ele>800.10</ele>
        <time>2017-02-18T08:16:47Z</time>
      </trkpt>
      <trkpt lat="42.595684000" lon="-2.471478000">
        <ele>800.20</ele>
        <time>2017-02-18T08:16:48Z</time>
      </trkpt>
      <trkpt lat="42.595700000" lon="-2.471485000">
        <ele>800.30</ele>
        <time>2017-02-18T08:16:49Z</time>
      </trkpt>
      <trkpt lat="42.595716000" lon="-2.471490000">
        <ele>800.50</ele>
        <time>2017-02-18T08:16:50Z</time>
      </trkpt>
      <trkpt lat="42.595732000" lon="-2.471495000">
        <ele>800.60</ele>
        <time>2017-02-18T08:16:51Z</time>
      </trkpt>
      <trkpt lat="42.595752000" lon="-2.471504000">
        <ele>800.70</ele>
        <time>2017-02-18T08:16:52Z</time>
      </trkpt>
      <trkpt lat="42.595771000" lon="-2.471512000">
        <ele>800.70</ele>
        <time>2017-02-18T08:16:53Z</time>
      </trkpt>
      <trkpt lat="42.595790000" lon="-2.471519000">
        <ele>800.80</ele>
        <time>2017-02-18T08:16:54Z</time>
      </trkpt>
      <trkpt lat="42.595809000" lon="-2.471516000">
        <ele>800.80</ele>
        <time>2017-02-18T08:16:55Z</time>
      </trkpt>
      <trkpt lat="42.595833000" lon="-2.471519000">
        <ele>800.70</ele>
        <time>2017-02-18T08:16:56Z</time>
      </trkpt>
      <trkpt lat="42.595853000" lon="-2.471524000">
        <ele>800.70</ele>
        <time>2017-02-18T08:16:57Z</time>
      </trkpt>
      <trkpt lat="42.595870000" lon="-2.471526000">
        <ele>800.70</ele>
        <time>2017-02-18T08:16:58Z</time>
      </trkpt>
      <trkpt lat="42.595887000" lon="-2.471534000">
        <ele>800.90</ele>
        <time>2017-02-18T08:16:59Z</time>
      </trkpt>
      <trkpt lat="42.595903000" lon="-2.471538000">
        <ele>801.00</ele>
        <time>2017-02-18T08:17:00Z</time>
      </trkpt>
      <trkpt lat="42.595921000" lon="-2.471544000">
        <ele>801.10</ele>
        <time>2017-02-18T08:17:01Z</time>
      </trkpt>
      <trkpt lat="42.595938000" lon="-2.471550000">
        <ele>801.20</ele>
        <time>2017-02-18T08:17:02Z</time>
      </trkpt>
      <trkpt lat="42.595956000" lon="-2.471554000">
        <ele>801.30</ele>
        <time>2017-02-18T08:17:03Z</time>
      </trkpt>
      <trkpt lat="42.595975000" lon="-2.471561000">
        <ele>801.40</ele>
        <time>2017-02-18T08:17:04Z</time>
      </trkpt>
      <trkpt lat="42.595994000" lon="-2.471569000">
        <ele>801.40</ele>
        <time>2017-02-18T08:17:05Z</time>
      </trkpt>
      <trkpt lat="42.596010000" lon="-2.471574000">
        <ele>801.50</ele>
        <time>2017-02-18T08:17:06Z</time>
      </trkpt>
      <trkpt lat="42.596046000" lon="-2.471583000">
        <ele>801.80</ele>
        <time>2017-02-18T08:17:08Z</time>
      </trkpt>
      <trkpt lat="42.596065000" lon="-2.471594000">
        <ele>802.00</ele>
        <time>2017-02-18T08:17:09Z</time>
      </trkpt>
      <trkpt lat="42.596081000" lon="-2.471602000">
        <ele>802.10</ele>
        <time>2017-02-18T08:17:10Z</time>
      </trkpt>
      <trkpt lat="42.596098000" lon="-2.471605000">
        <ele>802.10</ele>
        <time>2017-02-18T08:17:11Z</time>
      </trkpt>
      <trkpt lat="42.596116000" lon="-2.471608000">
        <ele>802.10</ele>
        <time>2017-02-18T08:17:12Z</time>
      </trkpt>
      <trkpt lat="42.596128000" lon="-2.471612000">
        <ele>802.20</ele>
        <time>2017-02-18T08:17:13Z</time>
      </trkpt>
      <trkpt lat="42.596146000" lon="-2.471618000">
        <ele>802.30</ele>
        <time>2017-02-18T08:17:14Z</time>
      </trkpt>
      <trkpt lat="42.596161000" lon="-2.471622000">
        <ele>802.30</ele>
        <time>2017-02-18T08:17:15Z</time>
      </trkpt>
      <trkpt lat="42.596176000" lon="-2.471628000">
        <ele>802.30</ele>
        <time>2017-02-18T08:17:16Z</time>
      </trkpt>
      <trkpt lat="42.596190000" lon="-2.471633000">
        <ele>802.40</ele>
        <time>2017-02-18T08:17:17Z</time>
      </trkpt>
      <trkpt lat="42.596206000" lon="-2.471638000">
        <ele>802.50</ele>
        <time>2017-02-18T08:17:18Z</time>
      </trkpt>
      <trkpt lat="42.596217000" lon="-2.471639000">
        <ele>802.60</ele>
        <time>2017-02-18T08:17:19Z</time>
      </trkpt>
      <trkpt lat="42.596228000" lon="-2.471650000">
        <ele>802.70</ele>
        <time>2017-02-18T08:17:20Z</time>
      </trkpt>
      <trkpt lat="42.596240000" lon="-2.471652000">
        <ele>802.70</ele>
        <time>2017-02-18T08:17:21Z</time>
      </trkpt>
      <trkpt lat="42.596255000" lon="-2.471654000">
        <ele>802.80</ele>
        <time>2017-02-18T08:17:22Z</time>
      </trkpt>
      <trkpt lat="42.596268000" lon="-2.471670000">
        <ele>802.80</ele>
        <time>2017-02-18T08:17:23Z</time>
      </trkpt>
      <trkpt lat="42.596282000" lon="-2.471685000">
        <ele>802.80</ele>
        <time>2017-02-18T08:17:24Z</time>
      </trkpt>
      <trkpt lat="42.596294000" lon="-2.471696000">
        <ele>802.90</ele>
        <time>2017-02-18T08:17:25Z</time>
      </trkpt>
      <trkpt lat="42.596307000" lon="-2.471708000">
        <ele>803.00</ele>
        <time>2017-02-18T08:17:26Z</time>
      </trkpt>
      <trkpt lat="42.596321000" lon="-2.471720000">
        <ele>803.00</ele>
        <time>2017-02-18T08:17:27Z</time>
      </trkpt>
      <trkpt lat="42.596336000" lon="-2.471732000">
        <ele>803.10</ele>
        <time>2017-02-18T08:17:28Z</time>
      </trkpt>
      <trkpt lat="42.596344000" lon="-2.471747000">
        <ele>803.20</ele>
        <time>2017-02-18T08:17:29Z</time>
      </trkpt>
      <trkpt lat="42.596355000" lon="-2.471756000">
        <ele>803.30</ele>
        <time>2017-02-18T08:17:30Z</time>
      </trkpt>
      <trkpt lat="42.596364000" lon="-2.471767000">
        <ele>803.40</ele>
        <time>2017-02-18T08:17:31Z</time>
      </trkpt>
      <trkpt lat="42.596376000" lon="-2.471782000">
        <ele>803.60</ele>
        <time>2017-02-18T08:17:32Z</time>
      </trkpt>
      <trkpt lat="42.596389000" lon="-2.471793000">
        <ele>803.80</ele>
        <time>2017-02-18T08:17:33Z</time>
      </trkpt>
      <trkpt lat="42.596400000" lon="-2.471802000">
        <ele>803.90</ele>
        <time>2017-02-18T08:17:34Z</time>
      </trkpt>
      <trkpt lat="42.596407000" lon="-2.471817000">
        <ele>804.10</ele>
        <time>2017-02-18T08:17:35Z</time>
      </trkpt>
      <trkpt lat="42.596413000" lon="-2.471831000">
        <ele>804.20</ele>
        <time>2017-02-18T08:17:36Z</time>
      </trkpt>
      <trkpt lat="42.596424000" lon="-2.471844000">
        <ele>804.30</ele>
        <time>2017-02-18T08:17:37Z</time>
      </trkpt>
      <trkpt lat="42.596432000" lon="-2.471856000">
        <ele>804.40</ele>
        <time>2017-02-18T08:17:38Z</time>
      </trkpt>
      <trkpt lat="42.596441000" lon="-2.471876000">
        <ele>804.60</ele>
        <time>2017-02-18T08:17:39Z</time>
      </trkpt>
      <trkpt lat="42.596451000" lon="-2.471886000">
        <ele>804.70</ele>
        <time>2017-02-18T08:17:40Z</time>
      </trkpt>
      <trkpt lat="42.596458000" lon="-2.471900000">
        <ele>804.80</ele>
        <time>2017-02-18T08:17:41Z</time>
      </trkpt>
      <trkpt lat="42.596464000" lon="-2.471915000">
        <ele>804.80</ele>
        <time>2017-02-18T08:17:42Z</time>
      </trkpt>
      <trkpt lat="42.596468000" lon="-2.471929000">
        <ele>805.00</ele>
        <time>2017-02-18T08:17:43Z</time>
      </trkpt>
      <trkpt lat="42.596475000" lon="-2.471937000">
        <ele>805.20</ele>
        <time>2017-02-18T08:17:44Z</time>
      </trkpt>
      <trkpt lat="42.596478000" lon="-2.471949000">
        <ele>805.30</ele>
        <time>2017-02-18T08:17:45Z</time>
      </trkpt>
      <trkpt lat="42.596484000" lon="-2.471963000">
        <ele>805.40</ele>
        <time>2017-02-18T08:17:46Z</time>
      </trkpt>
      <trkpt lat="42.596489000" lon="-2.471971000">
        <ele>805.60</ele>
        <time>2017-02-18T08:17:47Z</time>
      </trkpt>
      <trkpt lat="42.596498000" lon="-2.471981000">
        <ele>805.70</ele>
        <time>2017-02-18T08:17:48Z</time>
      </trkpt>
      <trkpt lat="42.596505000" lon="-2.471995000">
        <ele>805.90</ele>
        <time>2017-02-18T08:17:49Z</time>
      </trkpt>
      <trkpt lat="42.596513000" lon="-2.472006000">
        <ele>806.10</ele>
        <time>2017-02-18T08:17:50Z</time>
      </trkpt>
      <trkpt lat="42.596519000" lon="-2.472017000">
        <ele>806.30</ele>
        <time>2017-02-18T08:17:51Z</time>
      </trkpt>
      <trkpt lat="42.596522000" lon="-2.472031000">
        <ele>806.40</ele>
        <time>2017-02-18T08:17:52Z</time>
      </trkpt>
      <trkpt lat="42.596527000" lon="-2.472047000">
        <ele>806.60</ele>
        <time>2017-02-18T08:17:53Z</time>
      </trkpt>
      <trkpt lat="42.596533000" lon="-2.472059000">
        <ele>806.70</ele>
        <time>2017-02-18T08:17:54Z</time>
      </trkpt>
      <trkpt lat="42.596536000" lon="-2.472069000">
        <ele>806.90</ele>
        <time>2017-02-18T08:17:55Z</time>
      </trkpt>
      <trkpt lat="42.596539000" lon="-2.472083000">
        <ele>807.00</ele>
        <time>2017-02-18T08:17:56Z</time>
      </trkpt>
      <trkpt lat="42.596542000" lon="-2.472099000">
        <ele>807.10</ele>
        <time>2017-02-18T08:17:57Z</time>
      </trkpt>
      <trkpt lat="42.596549000" lon="-2.472111000">
        <ele>807.20</ele>
        <time>2017-02-18T08:17:58Z</time>
      </trkpt>
      <trkpt lat="42.596555000" lon="-2.472126000">
        <ele>807.30</ele>
        <time>2017-02-18T08:17:59Z</time>
      </trkpt>
      <trkpt lat="42.596559000" lon="-2.472140000">
        <ele>807.40</ele>
        <time>2017-02-18T08:18:00Z</time>
      </trkpt>
      <trkpt lat="42.596562000" lon="-2.472150000">
        <ele>807.60</ele>
        <time>2017-02-18T08:18:01Z</time>
      </trkpt>
      <trkpt lat="42.596570000" lon="-2.472165000">
        <ele>807.70</ele>
        <time>2017-02-18T08:18:02Z</time>
      </trkpt>
      <trkpt lat="42.596574000" lon="-2.472177000">
        <ele>807.90</ele>
        <time>2017-02-18T08:18:03Z</time>
      </trkpt>
      <trkpt lat="42.596574000" lon="-2.472192000">
        <ele>808.00</ele>
        <time>2017-02-18T08:18:04Z</time>
      </trkpt>
      <trkpt lat="42.596575000" lon="-2.472206000">
        <ele>808.10</ele>
        <time>2017-02-18T08:18:05Z</time>
      </trkpt>
      <trkpt lat="42.596579000" lon="-2.472224000">
        <ele>808.20</ele>
        <time>2017-02-18T08:18:06Z</time>
      </trkpt>
      <trkpt lat="42.596581000" lon="-2.472246000">
        <ele>808.50</ele>
        <time>2017-02-18T08:18:07Z</time>
      </trkpt>
      <trkpt lat="42.596587000" lon="-2.472273000">
        <ele>808.80</ele>
        <time>2017-02-18T08:18:09Z</time>
      </trkpt>
      <trkpt lat="42.596588000" lon="-2.472290000">
        <ele>808.90</ele>
        <time>2017-02-18T08:18:10Z</time>
      </trkpt>
      <trkpt lat="42.596596000" lon="-2.472305000">
        <ele>809.00</ele>
        <time>2017-02-18T08:18:11Z</time>
      </trkpt>
      <trkpt lat="42.596601000" lon="-2.472321000">
        <ele>809.00</ele>
        <time>2017-02-18T08:18:12Z</time>
      </trkpt>
      <trkpt lat="42.596597000" lon="-2.472337000">
        <ele>809.20</ele>
        <time>2017-02-18T08:18:13Z</time>
      </trkpt>
      <trkpt lat="42.596599000" lon="-2.472356000">
        <ele>809.40</ele>
        <time>2017-02-18T08:18:14Z</time>
      </trkpt>
      <trkpt lat="42.596602000" lon="-2.472377000">
        <ele>809.50</ele>
        <time>2017-02-18T08:18:15Z</time>
      </trkpt>
      <trkpt lat="42.596600000" lon="-2.472393000">
        <ele>809.70</ele>
        <time>2017-02-18T08:18:16Z</time>
      </trkpt>
      <trkpt lat="42.596601000" lon="-2.472409000">
        <ele>809.80</ele>
        <time>2017-02-18T08:18:17Z</time>
      </trkpt>
      <trkpt lat="42.596597000" lon="-2.472422000">
        <ele>809.90</ele>
        <time>2017-02-18T08:18:18Z</time>
      </trkpt>
      <trkpt lat="42.596596000" lon="-2.472438000">
        <ele>810.10</ele>
        <time>2017-02-18T08:18:19Z</time>
      </trkpt>
      <trkpt lat="42.596595000" lon="-2.472455000">
        <ele>810.10</ele>
        <time>2017-02-18T08:18:20Z</time>
      </trkpt>
      <trkpt lat="42.596594000" lon="-2.472473000">
        <ele>810.30</ele>
        <time>2017-02-18T08:18:21Z</time>
      </trkpt>
      <trkpt lat="42.596594000" lon="-2.472490000">
        <ele>810.50</ele>
        <time>2017-02-18T08:18:22Z</time>
      </trkpt>
      <trkpt lat="42.596595000" lon="-2.472506000">
        <ele>810.70</ele>
        <time>2017-02-18T08:18:23Z</time>
      </trkpt>
      <trkpt lat="42.596590000" lon="-2.472520000">
        <ele>810.90</ele>
        <time>2017-02-18T08:18:24Z</time>
      </trkpt>
      <trkpt lat="42.596588000" lon="-2.472537000">
        <ele>811.10</ele>
        <time>2017-02-18T08:18:25Z</time>
      </trkpt>
      <trkpt lat="42.596580000" lon="-2.472555000">
        <ele>811.20</ele>
        <time>2017-02-18T08:18:26Z</time>
      </trkpt>
      <trkpt lat="42.596578000" lon="-2.472571000">
        <ele>811.40</ele>
        <time>2017-02-18T08:18:27Z</time>
      </trkpt>
      <trkpt lat="42.596576000" lon="-2.472591000">
        <ele>811.50</ele>
        <time>2017-02-18T08:18:28Z</time>
      </trkpt>
      <trkpt lat="42.596570000" lon="-2.472606000">
        <ele>811.60</ele>
        <time>2017-02-18T08:18:29Z</time>
      </trkpt>
      <trkpt lat="42.596566000" lon="-2.472621000">
        <ele>811.70</ele>
        <time>2017-02-18T08:18:30Z</time>
      </trkpt>
      <trkpt lat="42.596564000" lon="-2.472635000">
        <ele>811.80</ele>
        <time>2017-02-18T08:18:31Z</time>
      </trkpt>
      <trkpt lat="42.596564000" lon="-2.472649000">
        <ele>811.80</ele>
        <time>2017-02-18T08:18:32Z</time>
      </trkpt>
      <trkpt lat="42.596562000" lon="-2.472666000">
        <ele>811.90</ele>
        <time>2017-02-18T08:18:33Z</time>
      </trkpt>
      <trkpt lat="42.596556000" lon="-2.472680000">
        <ele>812.00</ele>
        <time>2017-02-18T08:18:34Z</time>
      </trkpt>
      <trkpt lat="42.596554000" lon="-2.472695000">
        <ele>812.10</ele>
        <time>2017-02-18T08:18:35Z</time>
      </trkpt>
      <trkpt lat="42.596550000" lon="-2.472711000">
        <ele>812.20</ele>
        <time>2017-02-18T08:18:36Z</time>
      </trkpt>
      <trkpt lat="42.596546000" lon="-2.472726000">
        <ele>812.40</ele>
        <time>2017-02-18T08:18:37Z</time>
      </trkpt>
      <trkpt lat="42.596542000" lon="-2.472744000">
        <ele>812.50</ele>
        <time>2017-02-18T08:18:38Z</time>
      </trkpt>
      <trkpt lat="42.596539000" lon="-2.472759000">
        <ele>812.60</ele>
        <time>2017-02-18T08:18:39Z</time>
      </trkpt>
      <trkpt lat="42.596536000" lon="-2.472775000">
        <ele>812.70</ele>
        <time>2017-02-18T08:18:40Z</time>
      </trkpt>
      <trkpt lat="42.596534000" lon="-2.472790000">
        <ele>812.90</ele>
        <time>2017-02-18T08:18:41Z</time>
      </trkpt>
      <trkpt lat="42.596534000" lon="-2.472806000">
        <ele>813.10</ele>
        <time>2017-02-18T08:18:42Z</time>
      </trkpt>
      <trkpt lat="42.596530000" lon="-2.472819000">
        <ele>813.30</ele>
        <time>2017-02-18T08:18:43Z</time>
      </trkpt>
      <trkpt lat="42.596524000" lon="-2.472838000">
        <ele>813.40</ele>
        <time>2017-02-18T08:18:44Z</time>
      </trkpt>
      <trkpt lat="42.596520000" lon="-2.472856000">
        <ele>813.70</ele>
        <time>2017-02-18T08:18:45Z</time>
      </trkpt>
      <trkpt lat="42.596516000" lon="-2.472873000">
        <ele>813.90</ele>
        <time>2017-02-18T08:18:46Z</time>
      </trkpt>
      <trkpt lat="42.596513000" lon="-2.472890000">
        <ele>814.10</ele>
        <time>2017-02-18T08:18:47Z</time>
      </trkpt>
      <trkpt lat="42.596508000" lon="-2.472909000">
        <ele>814.30</ele>
        <time>2017-02-18T08:18:48Z</time>
      </trkpt>
      <trkpt lat="42.596506000" lon="-2.472923000">
        <ele>814.50</ele>
        <time>2017-02-18T08:18:49Z</time>
      </trkpt>
      <trkpt lat="42.596508000" lon="-2.472933000">
        <ele>814.60</ele>
        <time>2017-02-18T08:18:50Z</time>
      </trkpt>
      <trkpt lat="42.596510000" lon="-2.472949000">
        <ele>814.60</ele>
        <time>2017-02-18T08:18:51Z</time>
      </trkpt>
      <trkpt lat="42.596504000" lon="-2.472962000">
        <ele>814.70</ele>
        <time>2017-02-18T08:18:52Z</time>
      </trkpt>
      <trkpt lat="42.596505000" lon="-2.472974000">
        <ele>814.70</ele>
        <time>2017-02-18T08:18:53Z</time>
      </trkpt>
      <trkpt lat="42.596504000" lon="-2.472989000">
        <ele>814.70</ele>
        <time>2017-02-18T08:18:54Z</time>
      </trkpt>
      <trkpt lat="42.596501000" lon="-2.473000000">
        <ele>814.70</ele>
        <time>2017-02-18T08:18:55Z</time>
      </trkpt>
      <trkpt lat="42.596504000" lon="-2.473014000">
        <ele>814.70</ele>
        <time>2017-02-18T08:18:56Z</time>
      </trkpt>
      <trkpt lat="42.596505000" lon="-2.473028000">
        <ele>814.80</ele>
        <time>2017-02-18T08:18:57Z</time>
      </trkpt>
      <trkpt lat="42.596505000" lon="-2.473045000">
        <ele>814.90</ele>
        <time>2017-02-18T08:18:58Z</time>
      </trkpt>
      <trkpt lat="42.596506000" lon="-2.473057000">
        <ele>815.20</ele>
        <time>2017-02-18T08:18:59Z</time>
      </trkpt>
      <trkpt lat="42.596506000" lon="-2.473074000">
        <ele>815.40</ele>
        <time>2017-02-18T08:19:00Z</time>
      </trkpt>
      <trkpt lat="42.596506000" lon="-2.473090000">
        <ele>815.60</ele>
        <time>2017-02-18T08:19:01Z</time>
      </trkpt>
      <trkpt lat="42.596507000" lon="-2.473106000">
        <ele>815.70</ele>
        <time>2017-02-18T08:19:02Z</time>
      </trkpt>
      <trkpt lat="42.596509000" lon="-2.473120000">
        <ele>815.70</ele>
        <time>2017-02-18T08:19:03Z</time>
      </trkpt>
      <trkpt lat="42.596511000" lon="-2.473133000">
        <ele>815.70</ele>
        <time>2017-02-18T08:19:04Z</time>
      </trkpt>
      <trkpt lat="42.596512000" lon="-2.473147000">
        <ele>815.80</ele>
        <time>2017-02-18T08:19:05Z</time>
      </trkpt>
      <trkpt lat="42.596516000" lon="-2.473158000">
        <ele>815.80</ele>
        <time>2017-02-18T08:19:06Z</time>
      </trkpt>
      <trkpt lat="42.596520000" lon="-2.473168000">
        <ele>815.90</ele>
        <time>2017-02-18T08:19:07Z</time>
      </trkpt>
      <trkpt lat="42.596522000" lon="-2.473179000">
        <ele>816.00</ele>
        <time>2017-02-18T08:19:08Z</time>
      </trkpt>
      <trkpt lat="42.596533000" lon="-2.473200000">
        <ele>816.20</ele>
        <time>2017-02-18T08:19:10Z</time>
      </trkpt>
      <trkpt lat="42.596537000" lon="-2.473214000">
        <ele>816.20</ele>
        <time>2017-02-18T08:19:11Z</time>
      </trkpt>
      <trkpt lat="42.596541000" lon="-2.473229000">
        <ele>816.30</ele>
        <time>2017-02-18T08:19:12Z</time>
      </trkpt>
      <trkpt lat="42.596547000" lon="-2.473243000">
        <ele>816.30</ele>
        <time>2017-02-18T08:19:13Z</time>
      </trkpt>
      <trkpt lat="42.596549000" lon="-2.473262000">
        <ele>816.40</ele>
        <time>2017-02-18T08:19:14Z</time>
      </trkpt>
      <trkpt lat="42.596553000" lon="-2.473280000">
        <ele>816.60</ele>
        <time>2017-02-18T08:19:15Z</time>
      </trkpt>
      <trkpt lat="42.596558000" lon="-2.473291000">
        <ele>816.80</ele>
        <time>2017-02-18T08:19:16Z</time>
      </trkpt>
      <trkpt lat="42.596564000" lon="-2.473307000">
        <ele>816.80</ele>
        <time>2017-02-18T08:19:17Z</time>
      </trkpt>
      <trkpt lat="42.596567000" lon="-2.473320000">
        <ele>816.90</ele>
        <time>2017-02-18T08:19:18Z</time>
      </trkpt>
      <trkpt lat="42.596573000" lon="-2.473339000">
        <ele>817.00</ele>
        <time>2017-02-18T08:19:19Z</time>
      </trkpt>
      <trkpt lat="42.596578000" lon="-2.473354000">
        <ele>817.10</ele>
        <time>2017-02-18T08:19:20Z</time>
      </trkpt>
      <trkpt lat="42.596582000" lon="-2.473370000">
        <ele>817.20</ele>
        <time>2017-02-18T08:19:21Z</time>
      </trkpt>
      <trkpt lat="42.596584000" lon="-2.473389000">
        <ele>817.30</ele>
        <time>2017-02-18T08:19:22Z</time>
      </trkpt>
      <trkpt lat="42.596586000" lon="-2.473405000">
        <ele>817.40</ele>
        <time>2017-02-18T08:19:23Z</time>
      </trkpt>
      <trkpt lat="42.596591000" lon="-2.473421000">
        <ele>817.40</ele>
        <time>2017-02-18T08:19:24Z</time>
      </trkpt>
      <trkpt lat="42.596596000" lon="-2.473431000">
        <ele>817.60</ele>
        <time>2017-02-18T08:19:25Z</time>
      </trkpt>
      <trkpt lat="42.596596000" lon="-2.473447000">
        <ele>817.70</ele>
        <time>2017-02-18T08:19:26Z</time>
      </trkpt>
      <trkpt lat="42.596596000" lon="-2.473462000">
        <ele>817.80</ele>
        <time>2017-02-18T08:19:27Z</time>
      </trkpt>
      <trkpt lat="42.596595000" lon="-2.473480000">
        <ele>817.80</ele>
        <time>2017-02-18T08:19:28Z</time>
      </trkpt>
      <trkpt lat="42.596600000" lon="-2.473494000">
        <ele>817.90</ele>
        <time>2017-02-18T08:19:29Z</time>
      </trkpt>
      <trkpt lat="42.596608000" lon="-2.473500000">
        <ele>817.90</ele>
        <time>2017-02-18T08:19:30Z</time>
      </trkpt>
      <trkpt lat="42.596613000" lon="-2.473516000">
        <ele>818.00</ele>
        <time>2017-02-18T08:19:31Z</time>
      </trkpt>
      <trkpt lat="42.596616000" lon="-2.473532000">
        <ele>818.10</ele>
        <time>2017-02-18T08:19:32Z</time>
      </trkpt>
      <trkpt lat="42.596620000" lon="-2.473543000">
        <ele>818.10</ele>
        <time>2017-02-18T08:19:33Z</time>
      </trkpt>
      <trkpt lat="42.596623000" lon="-2.473559000">
        <ele>818.20</ele>
        <time>2017-02-18T08:19:34Z</time>
      </trkpt>
      <trkpt lat="42.596623000" lon="-2.473564000">
        <ele>818.30</ele>
        <time>2017-02-18T08:19:35Z</time>
      </trkpt>
      <trkpt lat="42.596622000" lon="-2.473569000">
        <ele>818.30</ele>
        <time>2017-02-18T08:19:36Z</time>
      </trkpt>
      <trkpt lat="42.596622000" lon="-2.473567000">
        <ele>818.40</ele>
        <time>2017-02-18T08:19:37Z</time>
      </trkpt>
      <trkpt lat="42.596625000" lon="-2.473568000">
        <ele>818.50</ele>
        <time>2017-02-18T08:19:38Z</time>
      </trkpt>
      <trkpt lat="42.596625000" lon="-2.473565000">
        <ele>818.50</ele>
        <time>2017-02-18T08:19:39Z</time>
      </trkpt>
      <trkpt lat="42.596625000" lon="-2.473563000">
        <ele>818.50</ele>
        <time>2017-02-18T08:19:40Z</time>
      </trkpt>
      <trkpt lat="42.596623000" lon="-2.473566000">
        <ele>818.50</ele>
        <time>2017-02-18T08:19:41Z</time>
      </trkpt>
      <trkpt lat="42.596621000" lon="-2.473568000">
        <ele>818.50</ele>
        <time>2017-02-18T08:19:42Z</time>
      </trkpt>
      <trkpt lat="42.596618000" lon="-2.473572000">
        <ele>818.50</ele>
        <time>2017-02-18T08:19:43Z</time>
      </trkpt>
      <trkpt lat="42.596619000" lon="-2.473570000">
        <ele>818.50</ele>
        <time>2017-02-18T08:19:44Z</time>
      </trkpt>
      <trkpt lat="42.596615000" lon="-2.473569000">
        <ele>818.50</ele>
        <time>2017-02-18T08:19:45Z</time>
      </trkpt>
      <trkpt lat="42.596615000" lon="-2.473569000">
        <ele>818.40</ele>
        <time>2017-02-18T08:19:46Z</time>
      </trkpt>
      <trkpt lat="42.596615000" lon="-2.473569000">
        <ele>818.50</ele>
        <time>2017-02-18T08:19:47Z</time>
      </trkpt>
      <trkpt lat="42.596618000" lon="-2.473573000">
        <ele>818.60</ele>
        <time>2017-02-18T08:19:48Z</time>
      </trkpt>
      <trkpt lat="42.596620000" lon="-2.473574000">
        <ele>818.70</ele>
        <time>2017-02-18T08:19:49Z</time>
      </trkpt>
      <trkpt lat="42.596621000" lon="-2.473574000">
        <ele>818.70</ele>
        <time>2017-02-18T08:19:50Z</time>
      </trkpt>
      <trkpt lat="42.596622000" lon="-2.473571000">
        <ele>818.80</ele>
        <time>2017-02-18T08:19:51Z</time>
      </trkpt>
      <trkpt lat="42.596621000" lon="-2.473573000">
        <ele>818.80</ele>
        <time>2017-02-18T08:19:52Z</time>
      </trkpt>
      <trkpt lat="42.596617000" lon="-2.473575000">
        <ele>818.80</ele>
        <time>2017-02-18T08:19:53Z</time>
      </trkpt>
      <trkpt lat="42.596614000" lon="-2.473581000">
        <ele>818.80</ele>
        <time>2017-02-18T08:19:54Z</time>
      </trkpt>
      <trkpt lat="42.596614000" lon="-2.473585000">
        <ele>818.90</ele>
        <time>2017-02-18T08:19:55Z</time>
      </trkpt>
      <trkpt lat="42.596614000" lon="-2.473587000">
        <ele>818.90</ele>
        <time>2017-02-18T08:19:56Z</time>
      </trkpt>
      <trkpt lat="42.596613000" lon="-2.473589000">
        <ele>819.00</ele>
        <time>2017-02-18T08:19:57Z</time>
      </trkpt>
      <trkpt lat="42.596613000" lon="-2.473591000">
        <ele>819.00</ele>
        <time>2017-02-18T08:19:58Z</time>
      </trkpt>
      <trkpt lat="42.596613000" lon="-2.473591000">
        <ele>819.00</ele>
        <time>2017-02-18T08:19:59Z</time>
      </trkpt>
      <trkpt lat="42.596613000" lon="-2.473590000">
        <ele>819.00</ele>
        <time>2017-02-18T08:20:00Z</time>
      </trkpt>
      <trkpt lat="42.596611000" lon="-2.473584000">
        <ele>819.00</ele>
        <time>2017-02-18T08:20:01Z</time>
      </trkpt>
      <trkpt lat="42.596613000" lon="-2.473579000">
        <ele>819.10</ele>
        <time>2017-02-18T08:20:02Z</time>
      </trkpt>
      <trkpt lat="42.596615000" lon="-2.473575000">
        <ele>819.00</ele>
        <time>2017-02-18T08:20:03Z</time>
      </trkpt>
      <trkpt lat="42.596616000" lon="-2.473573000">
        <ele>818.90</ele>
        <time>2017-02-18T08:20:04Z</time>
      </trkpt>
      <trkpt lat="42.596618000" lon="-2.473572000">
        <ele>818.80</ele>
        <time>2017-02-18T08:20:05Z</time>
      </trkpt>
      <trkpt lat="42.596621000" lon="-2.473567000">
        <ele>818.70</ele>
        <time>2017-02-18T08:20:06Z</time>
      </trkpt>
      <trkpt lat="42.596620000" lon="-2.473568000">
        <ele>818.70</ele>
        <time>2017-02-18T08:20:07Z</time>
      </trkpt>
      <trkpt lat="42.596618000" lon="-2.473571000">
        <ele>818.60</ele>
        <time>2017-02-18T08:20:08Z</time>
      </trkpt>
      <trkpt lat="42.596616000" lon="-2.473571000">
        <ele>818.60</ele>
        <time>2017-02-18T08:20:09Z</time>
      </trkpt>
      <trkpt lat="42.596610000" lon="-2.473571000">
        <ele>818.60</ele>
        <time>2017-02-18T08:20:11Z</time>
      </trkpt>
      <trkpt lat="42.596607000" lon="-2.473571000">
        <ele>818.70</ele>
        <time>2017-02-18T08:20:12Z</time>
      </trkpt>
      <trkpt lat="42.596607000" lon="-2.473569000">
        <ele>818.70</ele>
        <time>2017-02-18T08:20:13Z</time>
      </trkpt>
      <trkpt lat="42.596612000" lon="-2.473568000">
        <ele>818.70</ele>
        <time>2017-02-18T08:20:14Z</time>
      </trkpt>
      <trkpt lat="42.596615000" lon="-2.473570000">
        <ele>818.70</ele>
        <time>2017-02-18T08:20:15Z</time>
      </trkpt>
      <trkpt lat="42.596617000" lon="-2.473569000">
        <ele>818.80</ele>
        <time>2017-02-18T08:20:16Z</time>
      </trkpt>
      <trkpt lat="42.596618000" lon="-2.473572000">
        <ele>818.60</ele>
        <time>2017-02-18T08:20:17Z</time>
      </trkpt>
      <trkpt lat="42.596620000" lon="-2.473569000">
        <ele>818.50</ele>
        <time>2017-02-18T08:20:18Z</time>
      </trkpt>
      <trkpt lat="42.596621000" lon="-2.473566000">
        <ele>818.50</ele>
        <time>2017-02-18T08:20:19Z</time>
      </trkpt>
      <trkpt lat="42.596623000" lon="-2.473563000">
        <ele>818.40</ele>
        <time>2017-02-18T08:20:20Z</time>
      </trkpt>
      <trkpt lat="42.596626000" lon="-2.473564000">
        <ele>818.50</ele>
        <time>2017-02-18T08:20:21Z</time>
      </trkpt>
      <trkpt lat="42.596624000" lon="-2.473562000">
        <ele>818.60</ele>
        <time>2017-02-18T08:20:22Z</time>
      </trkpt>
      <trkpt lat="42.596621000" lon="-2.473564000">
        <ele>818.60</ele>
        <time>2017-02-18T08:20:23Z</time>
      </trkpt>
      <trkpt lat="42.596618000" lon="-2.473568000">
        <ele>818.70</ele>
        <time>2017-02-18T08:20:24Z</time>
      </trkpt>
      <trkpt lat="42.596614000" lon="-2.473576000">
        <ele>818.70</ele>
        <time>2017-02-18T08:20:25Z</time>
      </trkpt>
      <trkpt lat="42.596611000" lon="-2.473582000">
        <ele>818.70</ele>
        <time>2017-02-18T08:20:26Z</time>
      </trkpt>
      <trkpt lat="42.596608000" lon="-2.473587000">
        <ele>818.50</ele>
        <time>2017-02-18T08:20:27Z</time>
      </trkpt>
      <trkpt lat="42.596607000" lon="-2.473590000">
        <ele>818.40</ele>
        <time>2017-02-18T08:20:28Z</time>
      </trkpt>
      <trkpt lat="42.596608000" lon="-2.473587000">
        <ele>818.30</ele>
        <time>2017-02-18T08:20:29Z</time>
      </trkpt>
      <trkpt lat="42.596608000" lon="-2.473584000">
        <ele>818.20</ele>
        <time>2017-02-18T08:20:30Z</time>
      </trkpt>
      <trkpt lat="42.596607000" lon="-2.473582000">
        <ele>818.20</ele>
        <time>2017-02-18T08:20:31Z</time>
      </trkpt>
      <trkpt lat="42.596607000" lon="-2.473581000">
        <ele>818.20</ele>
        <time>2017-02-18T08:20:32Z</time>
      </trkpt>
      <trkpt lat="42.596606000" lon="-2.473581000">
        <ele>818.30</ele>
        <time>2017-02-18T08:20:33Z</time>
      </trkpt>
      <trkpt lat="42.596606000" lon="-2.473579000">
        <ele>818.40</ele>
        <time>2017-02-18T08:20:34Z</time>
      </trkpt>
      <trkpt lat="42.596607000" lon="-2.473577000">
        <ele>818.40</ele>
        <time>2017-02-18T08:20:35Z</time>
      </trkpt>
      <trkpt lat="42.596607000" lon="-2.473575000">
        <ele>818.40</ele>
        <time>2017-02-18T08:20:36Z</time>
      </trkpt>
      <trkpt lat="42.596608000" lon="-2.473572000">
        <ele>818.50</ele>
        <time>2017-02-18T08:20:37Z</time>
      </trkpt>
      <trkpt lat="42.596607000" lon="-2.473569000">
        <ele>818.50</ele>
        <time>2017-02-18T08:20:38Z</time>
      </trkpt>
      <trkpt lat="42.596609000" lon="-2.473565000">
        <ele>818.50</ele>
        <time>2017-02-18T08:20:39Z</time>
      </trkpt>
      <trkpt lat="42.596611000" lon="-2.473562000">
        <ele>818.60</ele>
        <time>2017-02-18T08:20:40Z</time>
      </trkpt>
      <trkpt lat="42.596613000" lon="-2.473560000">
        <ele>818.70</ele>
        <time>2017-02-18T08:20:41Z</time>
      </trkpt>
      <trkpt lat="42.596610000" lon="-2.473562000">
        <ele>818.70</ele>
        <time>2017-02-18T08:20:42Z</time>
      </trkpt>
      <trkpt lat="42.596609000" lon="-2.473564000">
        <ele>818.70</ele>
        <time>2017-02-18T08:20:43Z</time>
      </trkpt>
      <trkpt lat="42.596610000" lon="-2.473563000">
        <ele>818.70</ele>
        <time>2017-02-18T08:20:44Z</time>
      </trkpt>
      <trkpt lat="42.596611000" lon="-2.473567000">
        <ele>818.70</ele>
        <time>2017-02-18T08:20:45Z</time>
      </trkpt>
      <trkpt lat="42.596613000" lon="-2.473570000">
        <ele>818.80</ele>
        <time>2017-02-18T08:20:46Z</time>
      </trkpt>
      <trkpt lat="42.596612000" lon="-2.473572000">
        <ele>818.60</ele>
        <time>2017-02-18T08:20:47Z</time>
      </trkpt>
      <trkpt lat="42.596612000" lon="-2.473574000">
        <ele>818.50</ele>
        <time>2017-02-18T08:20:48Z</time>
      </trkpt>
      <trkpt lat="42.596613000" lon="-2.473574000">
        <ele>818.50</ele>
        <time>2017-02-18T08:20:49Z</time>
      </trkpt>
      <trkpt lat="42.596614000" lon="-2.473575000">
        <ele>818.40</ele>
        <time>2017-02-18T08:20:50Z</time>
      </trkpt>
      <trkpt lat="42.596614000" lon="-2.473574000">
        <ele>818.40</ele>
        <time>2017-02-18T08:20:51Z</time>
      </trkpt>
      <trkpt lat="42.596615000" lon="-2.473572000">
        <ele>818.30</ele>
        <time>2017-02-18T08:20:52Z</time>
      </trkpt>
      <trkpt lat="42.596616000" lon="-2.473571000">
        <ele>818.40</ele>
        <time>2017-02-18T08:20:53Z</time>
      </trkpt>
      <trkpt lat="42.596621000" lon="-2.473568000">
        <ele>818.40</ele>
        <time>2017-02-18T08:20:54Z</time>
      </trkpt>
      <trkpt lat="42.596621000" lon="-2.473563000">
        <ele>818.40</ele>
        <time>2017-02-18T08:20:55Z</time>
      </trkpt>
      <trkpt lat="42.596622000" lon="-2.473561000">
        <ele>818.30</ele>
        <time>2017-02-18T08:20:56Z</time>
      </trkpt>
      <trkpt lat="42.596623000" lon="-2.473563000">
        <ele>818.50</ele>
        <time>2017-02-18T08:20:57Z</time>
      </trkpt>
      <trkpt lat="42.596624000" lon="-2.473567000">
        <ele>818.50</ele>
        <time>2017-02-18T08:20:58Z</time>
      </trkpt>
      <trkpt lat="42.596626000" lon="-2.473569000">
        <ele>818.60</ele>
        <time>2017-02-18T08:20:59Z</time>
      </trkpt>
      <trkpt lat="42.596627000" lon="-2.473570000">
        <ele>818.60</ele>
        <time>2017-02-18T08:21:00Z</time>
      </trkpt>
      <trkpt lat="42.596627000" lon="-2.473571000">
        <ele>818.70</ele>
        <time>2017-02-18T08:21:01Z</time>
      </trkpt>
      <trkpt lat="42.596625000" lon="-2.473571000">
        <ele>818.70</ele>
        <time>2017-02-18T08:21:02Z</time>
      </trkpt>
      <trkpt lat="42.596623000" lon="-2.473572000">
        <ele>818.70</ele>
        <time>2017-02-18T08:21:03Z</time>
      </trkpt>
      <trkpt lat="42.596622000" lon="-2.473572000">
        <ele>818.70</ele>
        <time>2017-02-18T08:21:04Z</time>
      </trkpt>
      <trkpt lat="42.596621000" lon="-2.473575000">
        <ele>818.60</ele>
        <time>2017-02-18T08:21:05Z</time>
      </trkpt>
      <trkpt lat="42.596620000" lon="-2.473578000">
        <ele>818.50</ele>
        <time>2017-02-18T08:21:06Z</time>
      </trkpt>
      <trkpt lat="42.596620000" lon="-2.473580000">
        <ele>818.40</ele>
        <time>2017-02-18T08:21:07Z</time>
      </trkpt>
      <trkpt lat="42.596619000" lon="-2.473581000">
        <ele>818.30</ele>
        <time>2017-02-18T08:21:08Z</time>
      </trkpt>
      <trkpt lat="42.596620000" lon="-2.473579000">
        <ele>818.30</ele>
        <time>2017-02-18T08:21:09Z</time>
      </trkpt>
      <trkpt lat="42.596622000" lon="-2.473577000">
        <ele>818.30</ele>
        <time>2017-02-18T08:21:10Z</time>
      </trkpt>
      <trkpt lat="42.596621000" lon="-2.473582000">
        <ele>818.20</ele>
        <time>2017-02-18T08:21:12Z</time>
      </trkpt>
      <trkpt lat="42.596621000" lon="-2.473581000">
        <ele>818.30</ele>
        <time>2017-02-18T08:21:13Z</time>
      </trkpt>
      <trkpt lat="42.596623000" lon="-2.473579000">
        <ele>818.30</ele>
        <time>2017-02-18T08:21:14Z</time>
      </trkpt>
      <trkpt lat="42.596623000" lon="-2.473579000">
        <ele>818.40</ele>
        <time>2017-02-18T08:21:15Z</time>
      </trkpt>
      <trkpt lat="42.596621000" lon="-2.473578000">
        <ele>818.50</ele>
        <time>2017-02-18T08:21:16Z</time>
      </trkpt>
      <trkpt lat="42.596620000" lon="-2.473582000">
        <ele>818.50</ele>
        <time>2017-02-18T08:21:17Z</time>
      </trkpt>
      <trkpt lat="42.596620000" lon="-2.473585000">
        <ele>818.60</ele>
        <time>2017-02-18T08:21:18Z</time>
      </trkpt>
      <trkpt lat="42.596621000" lon="-2.473584000">
        <ele>818.60</ele>
        <time>2017-02-18T08:21:19Z</time>
      </trkpt>
      <trkpt lat="42.596623000" lon="-2.473578000">
        <ele>818.60</ele>
        <time>2017-02-18T08:21:20Z</time>
      </trkpt>
      <trkpt lat="42.596623000" lon="-2.473576000">
        <ele>818.60</ele>
        <time>2017-02-18T08:21:21Z</time>
      </trkpt>
      <trkpt lat="42.596622000" lon="-2.473575000">
        <ele>818.70</ele>
        <time>2017-02-18T08:21:22Z</time>
      </trkpt>
      <trkpt lat="42.596621000" lon="-2.473577000">
        <ele>818.70</ele>
        <time>2017-02-18T08:21:23Z</time>
      </trkpt>
      <trkpt lat="42.596619000" lon="-2.473578000">
        <ele>818.70</ele>
        <time>2017-02-18T08:21:24Z</time>
      </trkpt>
      <trkpt lat="42.596617000" lon="-2.473582000">
        <ele>818.80</ele>
        <time>2017-02-18T08:21:25Z</time>
      </trkpt>
      <trkpt lat="42.596615000" lon="-2.473583000">
        <ele>818.80</ele>
        <time>2017-02-18T08:21:26Z</time>
      </trkpt>
      <trkpt lat="42.596617000" lon="-2.473586000">
        <ele>818.70</ele>
        <time>2017-02-18T08:21:27Z</time>
      </trkpt>
      <trkpt lat="42.596616000" lon="-2.473590000">
        <ele>818.60</ele>
        <time>2017-02-18T08:21:28Z</time>
      </trkpt>
      <trkpt lat="42.596616000" lon="-2.473592000">
        <ele>818.60</ele>
        <time>2017-02-18T08:21:29Z</time>
      </trkpt>
      <trkpt lat="42.596616000" lon="-2.473590000">
        <ele>818.60</ele>
        <time>2017-02-18T08:21:30Z</time>
      </trkpt>
      <trkpt lat="42.596622000" lon="-2.473578000">
        <ele>818.60</ele>
        <time>2017-02-18T08:21:31Z</time>
      </trkpt>
      <trkpt lat="42.596623000" lon="-2.473571000">
        <ele>818.60</ele>
        <time>2017-02-18T08:21:32Z</time>
      </trkpt>
      <trkpt lat="42.596623000" lon="-2.473571000">
        <ele>818.70</ele>
        <time>2017-02-18T08:21:33Z</time>
      </trkpt>
      <trkpt lat="42.596625000" lon="-2.473568000">
        <ele>818.70</ele>
        <time>2017-02-18T08:21:34Z</time>
      </trkpt>
      <trkpt lat="42.596625000" lon="-2.473564000">
        <ele>818.80</ele>
        <time>2017-02-18T08:21:35Z</time>
      </trkpt>
      <trkpt lat="42.596628000" lon="-2.473562000">
        <ele>818.80</ele>
        <time>2017-02-18T08:21:36Z</time>
      </trkpt>
      <trkpt lat="42.596627000" lon="-2.473564000">
        <ele>818.80</ele>
        <time>2017-02-18T08:21:37Z</time>
      </trkpt>
      <trkpt lat="42.596625000" lon="-2.473565000">
        <ele>818.70</ele>
        <time>2017-02-18T08:21:38Z</time>
      </trkpt>
      <trkpt lat="42.596623000" lon="-2.473567000">
        <ele>818.70</ele>
        <time>2017-02-18T08:21:39Z</time>
      </trkpt>
      <trkpt lat="42.596624000" lon="-2.473575000">
        <ele>818.70</ele>
        <time>2017-02-18T08:21:40Z</time>
      </trkpt>
      <trkpt lat="42.596625000" lon="-2.473576000">
        <ele>818.50</ele>
        <time>2017-02-18T08:21:41Z</time>
      </trkpt>
      <trkpt lat="42.596627000" lon="-2.473575000">
        <ele>818.40</ele>
        <time>2017-02-18T08:21:42Z</time>
      </trkpt>
      <trkpt lat="42.596626000" lon="-2.473574000">
        <ele>818.40</ele>
        <time>2017-02-18T08:21:43Z</time>
      </trkpt>
      <trkpt lat="42.596628000" lon="-2.473574000">
        <ele>818.30</ele>
        <time>2017-02-18T08:21:44Z</time>
      </trkpt>
      <trkpt lat="42.596625000" lon="-2.473572000">
        <ele>818.30</ele>
        <time>2017-02-18T08:21:45Z</time>
      </trkpt>
      <trkpt lat="42.596623000" lon="-2.473568000">
        <ele>818.30</ele>
        <time>2017-02-18T08:21:46Z</time>
      </trkpt>
      <trkpt lat="42.596621000" lon="-2.473568000">
        <ele>818.30</ele>
        <time>2017-02-18T08:21:47Z</time>
      </trkpt>
      <trkpt lat="42.596617000" lon="-2.473565000">
        <ele>818.40</ele>
        <time>2017-02-18T08:21:48Z</time>
      </trkpt>
      <trkpt lat="42.596614000" lon="-2.473562000">
        <ele>818.50</ele>
        <time>2017-02-18T08:21:49Z</time>
      </trkpt>
      <trkpt lat="42.596615000" lon="-2.473554000">
        <ele>818.50</ele>
        <time>2017-02-18T08:21:50Z</time>
      </trkpt>
      <trkpt lat="42.596617000" lon="-2.473554000">
        <ele>818.60</ele>
        <time>2017-02-18T08:21:51Z</time>
      </trkpt>
      <trkpt lat="42.596617000" lon="-2.473558000">
        <ele>818.70</ele>
        <time>2017-02-18T08:21:52Z</time>
      </trkpt>
      <trkpt lat="42.596613000" lon="-2.473562000">
        <ele>818.70</ele>
        <time>2017-02-18T08:21:53Z</time>
      </trkpt>
      <trkpt lat="42.596611000" lon="-2.473569000">
        <ele>818.80</ele>
        <time>2017-02-18T08:21:54Z</time>
      </trkpt>
      <trkpt lat="42.596608000" lon="-2.473572000">
        <ele>818.70</ele>
        <time>2017-02-18T08:21:55Z</time>
      </trkpt>
      <trkpt lat="42.596608000" lon="-2.473572000">
        <ele>818.60</ele>
        <time>2017-02-18T08:21:56Z</time>
      </trkpt>
      <trkpt lat="42.596608000" lon="-2.473569000">
        <ele>818.50</ele>
        <time>2017-02-18T08:21:57Z</time>
      </trkpt>
      <trkpt lat="42.596611000" lon="-2.473567000">
        <ele>818.50</ele>
        <time>2017-02-18T08:21:58Z</time>
      </trkpt>
      <trkpt lat="42.596608000" lon="-2.473571000">
        <ele>818.40</ele>
        <time>2017-02-18T08:21:59Z</time>
      </trkpt>
      <trkpt lat="42.596608000" lon="-2.473575000">
        <ele>818.40</ele>
        <time>2017-02-18T08:22:00Z</time>
      </trkpt>
      <trkpt lat="42.596608000" lon="-2.473576000">
        <ele>818.50</ele>
        <time>2017-02-18T08:22:01Z</time>
      </trkpt>
      <trkpt lat="42.596607000" lon="-2.473578000">
        <ele>818.50</ele>
        <time>2017-02-18T08:22:02Z</time>
      </trkpt>
      <trkpt lat="42.596606000" lon="-2.473582000">
        <ele>818.70</ele>
        <time>2017-02-18T08:22:03Z</time>
      </trkpt>
      <trkpt lat="42.596607000" lon="-2.473582000">
        <ele>818.90</ele>
        <time>2017-02-18T08:22:04Z</time>
      </trkpt>
      <trkpt lat="42.596608000" lon="-2.473581000">
        <ele>819.00</ele>
        <time>2017-02-18T08:22:05Z</time>
      </trkpt>
      <trkpt lat="42.596608000" lon="-2.473581000">
        <ele>819.10</ele>
        <time>2017-02-18T08:22:06Z</time>
      </trkpt>
      <trkpt lat="42.596609000" lon="-2.473578000">
        <ele>819.00</ele>
        <time>2017-02-18T08:22:07Z</time>
      </trkpt>
      <trkpt lat="42.596613000" lon="-2.473576000">
        <ele>818.90</ele>
        <time>2017-02-18T08:22:08Z</time>
      </trkpt>
      <trkpt lat="42.596614000" lon="-2.473574000">
        <ele>818.80</ele>
        <time>2017-02-18T08:22:09Z</time>
      </trkpt>
      <trkpt lat="42.596613000" lon="-2.473572000">
        <ele>818.70</ele>
        <time>2017-02-18T08:22:10Z</time>
      </trkpt>
      <trkpt lat="42.596611000" lon="-2.473570000">
        <ele>818.50</ele>
        <time>2017-02-18T08:22:11Z</time>
      </trkpt>
      <trkpt lat="42.596607000" lon="-2.473567000">
        <ele>818.30</ele>
        <time>2017-02-18T08:22:13Z</time>
      </trkpt>
      <trkpt lat="42.596608000" lon="-2.473566000">
        <ele>818.30</ele>
        <time>2017-02-18T08:22:14Z</time>
      </trkpt>
      <trkpt lat="42.596609000" lon="-2.473565000">
        <ele>818.30</ele>
        <time>2017-02-18T08:22:15Z</time>
      </trkpt>
      <trkpt lat="42.596610000" lon="-2.473563000">
        <ele>818.30</ele>
        <time>2017-02-18T08:22:16Z</time>
      </trkpt>
      <trkpt lat="42.596608000" lon="-2.473563000">
        <ele>818.30</ele>
        <time>2017-02-18T08:22:17Z</time>
      </trkpt>
      <trkpt lat="42.596607000" lon="-2.473565000">
        <ele>818.30</ele>
        <time>2017-02-18T08:22:18Z</time>
      </trkpt>
      <trkpt lat="42.596605000" lon="-2.473563000">
        <ele>818.40</ele>
        <time>2017-02-18T08:22:19Z</time>
      </trkpt>
      <trkpt lat="42.596605000" lon="-2.473561000">
        <ele>818.40</ele>
        <time>2017-02-18T08:22:20Z</time>
      </trkpt>
      <trkpt lat="42.596605000" lon="-2.473558000">
        <ele>818.40</ele>
        <time>2017-02-18T08:22:21Z</time>
      </trkpt>
      <trkpt lat="42.596606000" lon="-2.473558000">
        <ele>818.40</ele>
        <time>2017-02-18T08:22:22Z</time>
      </trkpt>
      <trkpt lat="42.596607000" lon="-2.473557000">
        <ele>818.50</ele>
        <time>2017-02-18T08:22:23Z</time>
      </trkpt>
      <trkpt lat="42.596606000" lon="-2.473561000">
        <ele>818.50</ele>
        <time>2017-02-18T08:22:24Z</time>
      </trkpt>
      <trkpt lat="42.596603000" lon="-2.473565000">
        <ele>818.60</ele>
        <time>2017-02-18T08:22:25Z</time>
      </trkpt>
      <trkpt lat="42.596603000" lon="-2.473569000">
        <ele>818.70</ele>
        <time>2017-02-18T08:22:26Z</time>
      </trkpt>
      <trkpt lat="42.596603000" lon="-2.473572000">
        <ele>818.80</ele>
        <time>2017-02-18T08:22:27Z</time>
      </trkpt>
      <trkpt lat="42.596604000" lon="-2.473572000">
        <ele>818.90</ele>
        <time>2017-02-18T08:22:28Z</time>
      </trkpt>
      <trkpt lat="42.596604000" lon="-2.473570000">
        <ele>819.00</ele>
        <time>2017-02-18T08:22:29Z</time>
      </trkpt>
      <trkpt lat="42.596603000" lon="-2.473566000">
        <ele>819.10</ele>
        <time>2017-02-18T08:22:30Z</time>
      </trkpt>
      <trkpt lat="42.596602000" lon="-2.473567000">
        <ele>819.00</ele>
        <time>2017-02-18T08:22:31Z</time>
      </trkpt>
      <trkpt lat="42.596605000" lon="-2.473568000">
        <ele>818.90</ele>
        <time>2017-02-18T08:22:32Z</time>
      </trkpt>
      <trkpt lat="42.596608000" lon="-2.473566000">
        <ele>818.90</ele>
        <time>2017-02-18T08:22:33Z</time>
      </trkpt>
      <trkpt lat="42.596608000" lon="-2.473562000">
        <ele>818.80</ele>
        <time>2017-02-18T08:22:34Z</time>
      </trkpt>
      <trkpt lat="42.596609000" lon="-2.473567000">
        <ele>818.70</ele>
        <time>2017-02-18T08:22:35Z</time>
      </trkpt>
      <trkpt lat="42.596609000" lon="-2.473569000">
        <ele>818.60</ele>
        <time>2017-02-18T08:22:36Z</time>
      </trkpt>
      <trkpt lat="42.596609000" lon="-2.473569000">
        <ele>818.50</ele>
        <time>2017-02-18T08:22:37Z</time>
      </trkpt>
      <trkpt lat="42.596609000" lon="-2.473570000">
        <ele>818.40</ele>
        <time>2017-02-18T08:22:38Z</time>
      </trkpt>
      <trkpt lat="42.596610000" lon="-2.473568000">
        <ele>818.40</ele>
        <time>2017-02-18T08:22:39Z</time>
      </trkpt>
      <trkpt lat="42.596610000" lon="-2.473566000">
        <ele>818.40</ele>
        <time>2017-02-18T08:22:40Z</time>
      </trkpt>
      <trkpt lat="42.596612000" lon="-2.473566000">
        <ele>818.40</ele>
        <time>2017-02-18T08:22:41Z</time>
      </trkpt>
      <trkpt lat="42.596613000" lon="-2.473565000">
        <ele>818.50</ele>
        <time>2017-02-18T08:22:42Z</time>
      </trkpt>
      <trkpt lat="42.596613000" lon="-2.473564000">
        <ele>818.50</ele>
        <time>2017-02-18T08:22:43Z</time>
      </trkpt>
      <trkpt lat="42.596613000" lon="-2.473562000">
        <ele>818.50</ele>
        <time>2017-02-18T08:22:44Z</time>
      </trkpt>
      <trkpt lat="42.596608000" lon="-2.473562000">
        <ele>818.60</ele>
        <time>2017-02-18T08:22:45Z</time>
      </trkpt>
      <trkpt lat="42.596602000" lon="-2.473565000">
        <ele>818.60</ele>
        <time>2017-02-18T08:22:46Z</time>
      </trkpt>
      <trkpt lat="42.596602000" lon="-2.473568000">
        <ele>818.60</ele>
        <time>2017-02-18T08:22:47Z</time>
      </trkpt>
      <trkpt lat="42.596600000" lon="-2.473573000">
        <ele>818.60</ele>
        <time>2017-02-18T08:22:48Z</time>
      </trkpt>
      <trkpt lat="42.596604000" lon="-2.473583000">
        <ele>818.60</ele>
        <time>2017-02-18T08:22:49Z</time>
      </trkpt>
      <trkpt lat="42.596605000" lon="-2.473589000">
        <ele>818.60</ele>
        <time>2017-02-18T08:22:50Z</time>
      </trkpt>
      <trkpt lat="42.596607000" lon="-2.473591000">
        <ele>818.70</ele>
        <time>2017-02-18T08:22:51Z</time>
      </trkpt>
      <trkpt lat="42.596609000" lon="-2.473590000">
        <ele>818.70</ele>
        <time>2017-02-18T08:22:52Z</time>
      </trkpt>
      <trkpt lat="42.596612000" lon="-2.473590000">
        <ele>818.70</ele>
        <time>2017-02-18T08:22:53Z</time>
      </trkpt>
      <trkpt lat="42.596611000" lon="-2.473592000">
        <ele>818.70</ele>
        <time>2017-02-18T08:22:54Z</time>
      </trkpt>
      <trkpt lat="42.596610000" lon="-2.473594000">
        <ele>818.80</ele>
        <time>2017-02-18T08:22:55Z</time>
      </trkpt>
      <trkpt lat="42.596610000" lon="-2.473593000">
        <ele>818.80</ele>
        <time>2017-02-18T08:22:56Z</time>
      </trkpt>
      <trkpt lat="42.596611000" lon="-2.473596000">
        <ele>818.80</ele>
        <time>2017-02-18T08:22:57Z</time>
      </trkpt>
      <trkpt lat="42.596614000" lon="-2.473599000">
        <ele>818.80</ele>
        <time>2017-02-18T08:22:58Z</time>
      </trkpt>
      <trkpt lat="42.596619000" lon="-2.473598000">
        <ele>818.80</ele>
        <time>2017-02-18T08:22:59Z</time>
      </trkpt>
      <trkpt lat="42.596618000" lon="-2.473595000">
        <ele>818.80</ele>
        <time>2017-02-18T08:23:00Z</time>
      </trkpt>
      <trkpt lat="42.596618000" lon="-2.473593000">
        <ele>818.80</ele>
        <time>2017-02-18T08:23:01Z</time>
      </trkpt>
      <trkpt lat="42.596617000" lon="-2.473597000">
        <ele>818.80</ele>
        <time>2017-02-18T08:23:02Z</time>
      </trkpt>
      <trkpt lat="42.596615000" lon="-2.473597000">
        <ele>818.80</ele>
        <time>2017-02-18T08:23:03Z</time>
      </trkpt>
      <trkpt lat="42.596614000" lon="-2.473596000">
        <ele>818.70</ele>
        <time>2017-02-18T08:23:04Z</time>
      </trkpt>
      <trkpt lat="42.596615000" lon="-2.473596000">
        <ele>818.70</ele>
        <time>2017-02-18T08:23:05Z</time>
      </trkpt>
      <trkpt lat="42.596618000" lon="-2.473593000">
        <ele>818.70</ele>
        <time>2017-02-18T08:23:06Z</time>
      </trkpt>
      <trkpt lat="42.596617000" lon="-2.473601000">
        <ele>818.70</ele>
        <time>2017-02-18T08:23:07Z</time>
      </trkpt>
      <trkpt lat="42.596617000" lon="-2.473604000">
        <ele>818.70</ele>
        <time>2017-02-18T08:23:08Z</time>
      </trkpt>
      <trkpt lat="42.596619000" lon="-2.473603000">
        <ele>818.70</ele>
        <time>2017-02-18T08:23:09Z</time>
      </trkpt>
      <trkpt lat="42.596616000" lon="-2.473608000">
        <ele>818.70</ele>
        <time>2017-02-18T08:23:10Z</time>
      </trkpt>
      <trkpt lat="42.596616000" lon="-2.473608000">
        <ele>818.80</ele>
        <time>2017-02-18T08:23:11Z</time>
      </trkpt>
      <trkpt lat="42.596616000" lon="-2.473605000">
        <ele>818.80</ele>
        <time>2017-02-18T08:23:12Z</time>
      </trkpt>
      <trkpt lat="42.596620000" lon="-2.473597000">
        <ele>818.80</ele>
        <time>2017-02-18T08:23:14Z</time>
      </trkpt>
      <trkpt lat="42.596623000" lon="-2.473600000">
        <ele>818.80</ele>
        <time>2017-02-18T08:23:15Z</time>
      </trkpt>
      <trkpt lat="42.596620000" lon="-2.473603000">
        <ele>818.80</ele>
        <time>2017-02-18T08:23:16Z</time>
      </trkpt>
      <trkpt lat="42.596622000" lon="-2.473610000">
        <ele>818.90</ele>
        <time>2017-02-18T08:23:17Z</time>
      </trkpt>
      <trkpt lat="42.596625000" lon="-2.473613000">
        <ele>819.00</ele>
        <time>2017-02-18T08:23:18Z</time>
      </trkpt>
      <trkpt lat="42.596628000" lon="-2.473618000">
        <ele>819.00</ele>
        <time>2017-02-18T08:23:19Z</time>
      </trkpt>
      <trkpt lat="42.596635000" lon="-2.473618000">
        <ele>819.00</ele>
        <time>2017-02-18T08:23:20Z</time>
      </trkpt>
      <trkpt lat="42.596642000" lon="-2.473613000">
        <ele>819.00</ele>
        <time>2017-02-18T08:23:21Z</time>
      </trkpt>
      <trkpt lat="42.596649000" lon="-2.473609000">
        <ele>819.00</ele>
        <time>2017-02-18T08:23:22Z</time>
      </trkpt>
      <trkpt lat="42.596657000" lon="-2.473606000">
        <ele>818.90</ele>
        <time>2017-02-18T08:23:23Z</time>
      </trkpt>
      <trkpt lat="42.596662000" lon="-2.473605000">
        <ele>818.90</ele>
        <time>2017-02-18T08:23:24Z</time>
      </trkpt>
      <trkpt lat="42.596666000" lon="-2.473601000">
        <ele>818.90</ele>
        <time>2017-02-18T08:23:25Z</time>
      </trkpt>
      <trkpt lat="42.596674000" lon="-2.473598000">
        <ele>818.90</ele>
        <time>2017-02-18T08:23:26Z</time>
      </trkpt>
      <trkpt lat="42.596678000" lon="-2.473591000">
        <ele>818.90</ele>
        <time>2017-02-18T08:23:27Z</time>
      </trkpt>
      <trkpt lat="42.596680000" lon="-2.473579000">
        <ele>818.90</ele>
        <time>2017-02-18T08:23:28Z</time>
      </trkpt>
      <trkpt lat="42.596683000" lon="-2.473565000">
        <ele>819.10</ele>
        <time>2017-02-18T08:23:29Z</time>
      </trkpt>
      <trkpt lat="42.596682000" lon="-2.473551000">
        <ele>819.20</ele>
        <time>2017-02-18T08:23:30Z</time>
      </trkpt>
      <trkpt lat="42.596681000" lon="-2.473534000">
        <ele>819.30</ele>
        <time>2017-02-18T08:23:31Z</time>
      </trkpt>
      <trkpt lat="42.596683000" lon="-2.473508000">
        <ele>819.40</ele>
        <time>2017-02-18T08:23:32Z</time>
      </trkpt>
      <trkpt lat="42.596693000" lon="-2.473495000">
        <ele>819.60</ele>
        <time>2017-02-18T08:23:33Z</time>
      </trkpt>
      <trkpt lat="42.596695000" lon="-2.473481000">
        <ele>819.70</ele>
        <time>2017-02-18T08:23:34Z</time>
      </trkpt>
      <trkpt lat="42.596702000" lon="-2.473464000">
        <ele>819.80</ele>
        <time>2017-02-18T08:23:35Z</time>
      </trkpt>
      <trkpt lat="42.596710000" lon="-2.473451000">
        <ele>819.90</ele>
        <time>2017-02-18T08:23:36Z</time>
      </trkpt>
      <trkpt lat="42.596715000" lon="-2.473433000">
        <ele>820.00</ele>
        <time>2017-02-18T08:23:37Z</time>
      </trkpt>
      <trkpt lat="42.596720000" lon="-2.473414000">
        <ele>820.20</ele>
        <time>2017-02-18T08:23:38Z</time>
      </trkpt>
      <trkpt lat="42.596723000" lon="-2.473397000">
        <ele>820.20</ele>
        <time>2017-02-18T08:23:39Z</time>
      </trkpt>
      <trkpt lat="42.596729000" lon="-2.473378000">
        <ele>820.30</ele>
        <time>2017-02-18T08:23:40Z</time>
      </trkpt>
      <trkpt lat="42.596735000" lon="-2.473357000">
        <ele>820.30</ele>
        <time>2017-02-18T08:23:41Z</time>
      </trkpt>
      <trkpt lat="42.596742000" lon="-2.473337000">
        <ele>820.30</ele>
        <time>2017-02-18T08:23:42Z</time>
      </trkpt>
      <trkpt lat="42.596748000" lon="-2.473314000">
        <ele>820.30</ele>
        <time>2017-02-18T08:23:43Z</time>
      </trkpt>
      <trkpt lat="42.596757000" lon="-2.473298000">
        <ele>820.20</ele>
        <time>2017-02-18T08:23:44Z</time>
      </trkpt>
      <trkpt lat="42.596770000" lon="-2.473282000">
        <ele>820.30</ele>
        <time>2017-02-18T08:23:45Z</time>
      </trkpt>
      <trkpt lat="42.596786000" lon="-2.473266000">
        <ele>820.40</ele>
        <time>2017-02-18T08:23:46Z</time>
      </trkpt>
      <trkpt lat="42.596799000" lon="-2.473250000">
        <ele>820.40</ele>
        <time>2017-02-18T08:23:47Z</time>
      </trkpt>
      <trkpt lat="42.596813000" lon="-2.473229000">
        <ele>820.50</ele>
        <time>2017-02-18T08:23:48Z</time>
      </trkpt>
      <trkpt lat="42.596828000" lon="-2.473211000">
        <ele>820.60</ele>
        <time>2017-02-18T08:23:49Z</time>
      </trkpt>
      <trkpt lat="42.596841000" lon="-2.473194000">
        <ele>820.70</ele>
        <time>2017-02-18T08:23:50Z</time>
      </trkpt>
      <trkpt lat="42.596852000" lon="-2.473174000">
        <ele>820.80</ele>
        <time>2017-02-18T08:23:51Z</time>
      </trkpt>
      <trkpt lat="42.596866000" lon="-2.473154000">
        <ele>820.80</ele>
        <time>2017-02-18T08:23:52Z</time>
      </trkpt>
      <trkpt lat="42.596877000" lon="-2.473134000">
        <ele>821.00</ele>
        <time>2017-02-18T08:23:53Z</time>
      </trkpt>
      <trkpt lat="42.596894000" lon="-2.473121000">
        <ele>821.20</ele>
        <time>2017-02-18T08:23:54Z</time>
      </trkpt>
      <trkpt lat="42.596912000" lon="-2.473106000">
        <ele>821.30</ele>
        <time>2017-02-18T08:23:55Z</time>
      </trkpt>
      <trkpt lat="42.596926000" lon="-2.473090000">
        <ele>821.30</ele>
        <time>2017-02-18T08:23:56Z</time>
      </trkpt>
      <trkpt lat="42.596941000" lon="-2.473071000">
        <ele>821.40</ele>
        <time>2017-02-18T08:23:57Z</time>
      </trkpt>
      <trkpt lat="42.596956000" lon="-2.473056000">
        <ele>821.60</ele>
        <time>2017-02-18T08:23:58Z</time>
      </trkpt>
      <trkpt lat="42.596972000" lon="-2.473041000">
        <ele>821.80</ele>
        <time>2017-02-18T08:23:59Z</time>
      </trkpt>
      <trkpt lat="42.596986000" lon="-2.473021000">
        <ele>822.00</ele>
        <time>2017-02-18T08:24:00Z</time>
      </trkpt>
      <trkpt lat="42.597000000" lon="-2.473000000">
        <ele>822.20</ele>
        <time>2017-02-18T08:24:01Z</time>
      </trkpt>
      <trkpt lat="42.597010000" lon="-2.472984000">
        <ele>822.30</ele>
        <time>2017-02-18T08:24:02Z</time>
      </trkpt>
      <trkpt lat="42.597023000" lon="-2.472969000">
        <ele>822.40</ele>
        <time>2017-02-18T08:24:03Z</time>
      </trkpt>
      <trkpt lat="42.597037000" lon="-2.472953000">
        <ele>822.50</ele>
        <time>2017-02-18T08:24:04Z</time>
      </trkpt>
      <trkpt lat="42.597050000" lon="-2.472937000">
        <ele>822.50</ele>
        <time>2017-02-18T08:24:05Z</time>
      </trkpt>
      <trkpt lat="42.597067000" lon="-2.472920000">
        <ele>822.60</ele>
        <time>2017-02-18T08:24:06Z</time>
      </trkpt>
      <trkpt lat="42.597077000" lon="-2.472900000">
        <ele>822.60</ele>
        <time>2017-02-18T08:24:07Z</time>
      </trkpt>
      <trkpt lat="42.597088000" lon="-2.472884000">
        <ele>822.70</ele>
        <time>2017-02-18T08:24:08Z</time>
      </trkpt>
      <trkpt lat="42.597102000" lon="-2.472863000">
        <ele>822.80</ele>
        <time>2017-02-18T08:24:09Z</time>
      </trkpt>
      <trkpt lat="42.597114000" lon="-2.472844000">
        <ele>822.80</ele>
        <time>2017-02-18T08:24:10Z</time>
      </trkpt>
      <trkpt lat="42.597130000" lon="-2.472828000">
        <ele>822.90</ele>
        <time>2017-02-18T08:24:11Z</time>
      </trkpt>
      <trkpt lat="42.597144000" lon="-2.472810000">
        <ele>823.00</ele>
        <time>2017-02-18T08:24:12Z</time>
      </trkpt>
      <trkpt lat="42.597157000" lon="-2.472787000">
        <ele>823.00</ele>
        <time>2017-02-18T08:24:13Z</time>
      </trkpt>
      <trkpt lat="42.597183000" lon="-2.472749000">
        <ele>823.50</ele>
        <time>2017-02-18T08:24:15Z</time>
      </trkpt>
      <trkpt lat="42.597196000" lon="-2.472728000">
        <ele>823.70</ele>
        <time>2017-02-18T08:24:16Z</time>
      </trkpt>
      <trkpt lat="42.597206000" lon="-2.472707000">
        <ele>823.90</ele>
        <time>2017-02-18T08:24:17Z</time>
      </trkpt>
      <trkpt lat="42.597218000" lon="-2.472687000">
        <ele>824.00</ele>
        <time>2017-02-18T08:24:18Z</time>
      </trkpt>
      <trkpt lat="42.597227000" lon="-2.472665000">
        <ele>824.10</ele>
        <time>2017-02-18T08:24:19Z</time>
      </trkpt>
      <trkpt lat="42.597235000" lon="-2.472645000">
        <ele>824.20</ele>
        <time>2017-02-18T08:24:20Z</time>
      </trkpt>
      <trkpt lat="42.597246000" lon="-2.472628000">
        <ele>824.40</ele>
        <time>2017-02-18T08:24:21Z</time>
      </trkpt>
      <trkpt lat="42.597257000" lon="-2.472608000">
        <ele>824.60</ele>
        <time>2017-02-18T08:24:22Z</time>
      </trkpt>
      <trkpt lat="42.597269000" lon="-2.472586000">
        <ele>824.90</ele>
        <time>2017-02-18T08:24:23Z</time>
      </trkpt>
      <trkpt lat="42.597276000" lon="-2.472560000">
        <ele>825.00</ele>
        <time>2017-02-18T08:24:24Z</time>
      </trkpt>
      <trkpt lat="42.597282000" lon="-2.472536000">
        <ele>825.10</ele>
        <time>2017-02-18T08:24:25Z</time>
      </trkpt>
      <trkpt lat="42.597290000" lon="-2.472511000">
        <ele>825.20</ele>
        <time>2017-02-18T08:24:26Z</time>
      </trkpt>
      <trkpt lat="42.597296000" lon="-2.472485000">
        <ele>825.30</ele>
        <time>2017-02-18T08:24:27Z</time>
      </trkpt>
      <trkpt lat="42.597304000" lon="-2.472463000">
        <ele>825.50</ele>
        <time>2017-02-18T08:24:28Z</time>
      </trkpt>
      <trkpt lat="42.597314000" lon="-2.472441000">
        <ele>825.70</ele>
        <time>2017-02-18T08:24:29Z</time>
      </trkpt>
      <trkpt lat="42.597325000" lon="-2.472420000">
        <ele>825.90</ele>
        <time>2017-02-18T08:24:30Z</time>
      </trkpt>
      <trkpt lat="42.597335000" lon="-2.472397000">
        <ele>826.00</ele>
        <time>2017-02-18T08:24:31Z</time>
      </trkpt>
      <trkpt lat="42.597345000" lon="-2.472374000">
        <ele>826.00</ele>
        <time>2017-02-18T08:24:32Z</time>
      </trkpt>
      <trkpt lat="42.597353000" lon="-2.472350000">
        <ele>826.00</ele>
        <time>2017-02-18T08:24:33Z</time>
      </trkpt>
      <trkpt lat="42.597360000" lon="-2.472326000">
        <ele>826.10</ele>
        <time>2017-02-18T08:24:34Z</time>
      </trkpt>
      <trkpt lat="42.597370000" lon="-2.472303000">
        <ele>826.10</ele>
        <time>2017-02-18T08:24:35Z</time>
      </trkpt>
      <trkpt lat="42.597377000" lon="-2.472278000">
        <ele>826.20</ele>
        <time>2017-02-18T08:24:36Z</time>
      </trkpt>
      <trkpt lat="42.597383000" lon="-2.472249000">
        <ele>826.30</ele>
        <time>2017-02-18T08:24:37Z</time>
      </trkpt>
      <trkpt lat="42.597392000" lon="-2.472225000">
        <ele>826.50</ele>
        <time>2017-02-18T08:24:38Z</time>
      </trkpt>
      <trkpt lat="42.597403000" lon="-2.472201000">
        <ele>826.70</ele>
        <time>2017-02-18T08:24:39Z</time>
      </trkpt>
      <trkpt lat="42.597413000" lon="-2.472176000">
        <ele>826.90</ele>
        <time>2017-02-18T08:24:40Z</time>
      </trkpt>
      <trkpt lat="42.597421000" lon="-2.472152000">
        <ele>827.10</ele>
        <time>2017-02-18T08:24:41Z</time>
      </trkpt>
      <trkpt lat="42.597430000" lon="-2.472131000">
        <ele>827.40</ele>
        <time>2017-02-18T08:24:42Z</time>
      </trkpt>
      <trkpt lat="42.597440000" lon="-2.472108000">
        <ele>827.60</ele>
        <time>2017-02-18T08:24:43Z</time>
      </trkpt>
      <trkpt lat="42.597445000" lon="-2.472082000">
        <ele>827.70</ele>
        <time>2017-02-18T08:24:44Z</time>
      </trkpt>
      <trkpt lat="42.597453000" lon="-2.472053000">
        <ele>827.80</ele>
        <time>2017-02-18T08:24:45Z</time>
      </trkpt>
      <trkpt lat="42.597463000" lon="-2.472028000">
        <ele>828.10</ele>
        <time>2017-02-18T08:24:46Z</time>
      </trkpt>
      <trkpt lat="42.597469000" lon="-2.472004000">
        <ele>828.20</ele>
        <time>2017-02-18T08:24:47Z</time>
      </trkpt>
      <trkpt lat="42.597475000" lon="-2.471982000">
        <ele>828.60</ele>
        <time>2017-02-18T08:24:48Z</time>
      </trkpt>
      <trkpt lat="42.597483000" lon="-2.471962000">
        <ele>828.80</ele>
        <time>2017-02-18T08:24:49Z</time>
      </trkpt>
      <trkpt lat="42.597489000" lon="-2.471938000">
        <ele>829.00</ele>
        <time>2017-02-18T08:24:50Z</time>
      </trkpt>
      <trkpt lat="42.597499000" lon="-2.471914000">
        <ele>829.20</ele>
        <time>2017-02-18T08:24:51Z</time>
      </trkpt>
      <trkpt lat="42.597507000" lon="-2.471891000">
        <ele>829.30</ele>
        <time>2017-02-18T08:24:52Z</time>
      </trkpt>
      <trkpt lat="42.597513000" lon="-2.471868000">
        <ele>829.40</ele>
        <time>2017-02-18T08:24:53Z</time>
      </trkpt>
      <trkpt lat="42.597525000" lon="-2.471842000">
        <ele>829.50</ele>
        <time>2017-02-18T08:24:54Z</time>
      </trkpt>
      <trkpt lat="42.597534000" lon="-2.471822000">
        <ele>829.60</ele>
        <time>2017-02-18T08:24:55Z</time>
      </trkpt>
      <trkpt lat="42.597544000" lon="-2.471803000">
        <ele>829.70</ele>
        <time>2017-02-18T08:24:56Z</time>
      </trkpt>
      <trkpt lat="42.597553000" lon="-2.471777000">
        <ele>829.70</ele>
        <time>2017-02-18T08:24:57Z</time>
      </trkpt>
      <trkpt lat="42.597561000" lon="-2.471756000">
        <ele>829.80</ele>
        <time>2017-02-18T08:24:58Z</time>
      </trkpt>
      <trkpt lat="42.597570000" lon="-2.471733000">
        <ele>829.90</ele>
        <time>2017-02-18T08:24:59Z</time>
      </trkpt>
      <trkpt lat="42.597578000" lon="-2.471712000">
        <ele>830.00</ele>
        <time>2017-02-18T08:25:00Z</time>
      </trkpt>
      <trkpt lat="42.597587000" lon="-2.471688000">
        <ele>830.20</ele>
        <time>2017-02-18T08:25:01Z</time>
      </trkpt>
      <trkpt lat="42.597588000" lon="-2.471662000">
        <ele>830.40</ele>
        <time>2017-02-18T08:25:02Z</time>
      </trkpt>
      <trkpt lat="42.597594000" lon="-2.471638000">
        <ele>830.50</ele>
        <time>2017-02-18T08:25:03Z</time>
      </trkpt>
      <trkpt lat="42.597602000" lon="-2.471615000">
        <ele>830.70</ele>
        <time>2017-02-18T08:25:04Z</time>
      </trkpt>
      <trkpt lat="42.597613000" lon="-2.471590000">
        <ele>830.80</ele>
        <time>2017-02-18T08:25:05Z</time>
      </trkpt>
      <trkpt lat="42.597621000" lon="-2.471567000">
        <ele>830.90</ele>
        <time>2017-02-18T08:25:06Z</time>
      </trkpt>
      <trkpt lat="42.597629000" lon="-2.471546000">
        <ele>831.00</ele>
        <time>2017-02-18T08:25:07Z</time>
      </trkpt>
      <trkpt lat="42.597632000" lon="-2.471519000">
        <ele>831.20</ele>
        <time>2017-02-18T08:25:08Z</time>
      </trkpt>
      <trkpt lat="42.597640000" lon="-2.471496000">
        <ele>831.30</ele>
        <time>2017-02-18T08:25:09Z</time>
      </trkpt>
      <trkpt lat="42.597651000" lon="-2.471473000">
        <ele>831.50</ele>
        <time>2017-02-18T08:25:10Z</time>
      </trkpt>
      <trkpt lat="42.597655000" lon="-2.471447000">
        <ele>831.60</ele>
        <time>2017-02-18T08:25:11Z</time>
      </trkpt>
      <trkpt lat="42.597663000" lon="-2.471423000">
        <ele>831.70</ele>
        <time>2017-02-18T08:25:12Z</time>
      </trkpt>
      <trkpt lat="42.597673000" lon="-2.471401000">
        <ele>831.80</ele>
        <time>2017-02-18T08:25:13Z</time>
      </trkpt>
      <trkpt lat="42.597680000" lon="-2.471381000">
        <ele>832.00</ele>
        <time>2017-02-18T08:25:14Z</time>
      </trkpt>
      <trkpt lat="42.597693000" lon="-2.471336000">
        <ele>832.20</ele>
        <time>2017-02-18T08:25:16Z</time>
      </trkpt>
      <trkpt lat="42.597703000" lon="-2.471315000">
        <ele>832.30</ele>
        <time>2017-02-18T08:25:17Z</time>
      </trkpt>
      <trkpt lat="42.597711000" lon="-2.471293000">
        <ele>832.30</ele>
        <time>2017-02-18T08:25:18Z</time>
      </trkpt>
      <trkpt lat="42.597722000" lon="-2.471268000">
        <ele>832.30</ele>
        <time>2017-02-18T08:25:19Z</time>
      </trkpt>
      <trkpt lat="42.597733000" lon="-2.471244000">
        <ele>832.40</ele>
        <time>2017-02-18T08:25:20Z</time>
      </trkpt>
      <trkpt lat="42.597739000" lon="-2.471219000">
        <ele>832.40</ele>
        <time>2017-02-18T08:25:21Z</time>
      </trkpt>
      <trkpt lat="42.597746000" lon="-2.471197000">
        <ele>832.60</ele>
        <time>2017-02-18T08:25:22Z</time>
      </trkpt>
      <trkpt lat="42.597756000" lon="-2.471176000">
        <ele>832.70</ele>
        <time>2017-02-18T08:25:23Z</time>
      </trkpt>
      <trkpt lat="42.597763000" lon="-2.471150000">
        <ele>833.10</ele>
        <time>2017-02-18T08:25:24Z</time>
      </trkpt>
      <trkpt lat="42.597768000" lon="-2.471124000">
        <ele>833.40</ele>
        <time>2017-02-18T08:25:25Z</time>
      </trkpt>
      <trkpt lat="42.597774000" lon="-2.471100000">
        <ele>833.60</ele>
        <time>2017-02-18T08:25:26Z</time>
      </trkpt>
      <trkpt lat="42.597781000" lon="-2.471075000">
        <ele>833.90</ele>
        <time>2017-02-18T08:25:27Z</time>
      </trkpt>
      <trkpt lat="42.597794000" lon="-2.471053000">
        <ele>834.00</ele>
        <time>2017-02-18T08:25:28Z</time>
      </trkpt>
      <trkpt lat="42.597801000" lon="-2.471029000">
        <ele>834.20</ele>
        <time>2017-02-18T08:25:29Z</time>
      </trkpt>
      <trkpt lat="42.597810000" lon="-2.471002000">
        <ele>834.30</ele>
        <time>2017-02-18T08:25:30Z</time>
      </trkpt>
      <trkpt lat="42.597820000" lon="-2.470974000">
        <ele>834.40</ele>
        <time>2017-02-18T08:25:31Z</time>
      </trkpt>
      <trkpt lat="42.597829000" lon="-2.470954000">
        <ele>834.70</ele>
        <time>2017-02-18T08:25:32Z</time>
      </trkpt>
      <trkpt lat="42.597836000" lon="-2.470932000">
        <ele>834.90</ele>
        <time>2017-02-18T08:25:33Z</time>
      </trkpt>
      <trkpt lat="42.597840000" lon="-2.470912000">
        <ele>835.10</ele>
        <time>2017-02-18T08:25:34Z</time>
      </trkpt>
      <trkpt lat="42.597848000" lon="-2.470891000">
        <ele>835.20</ele>
        <time>2017-02-18T08:25:35Z</time>
      </trkpt>
      <trkpt lat="42.597856000" lon="-2.470870000">
        <ele>835.30</ele>
        <time>2017-02-18T08:25:36Z</time>
      </trkpt>
      <trkpt lat="42.597861000" lon="-2.470849000">
        <ele>835.30</ele>
        <time>2017-02-18T08:25:37Z</time>
      </trkpt>
      <trkpt lat="42.597869000" lon="-2.470828000">
        <ele>835.30</ele>
        <time>2017-02-18T08:25:38Z</time>
      </trkpt>
      <trkpt lat="42.597877000" lon="-2.470808000">
        <ele>835.40</ele>
        <time>2017-02-18T08:25:39Z</time>
      </trkpt>
      <trkpt lat="42.597884000" lon="-2.470788000">
        <ele>835.60</ele>
        <time>2017-02-18T08:25:40Z</time>
      </trkpt>
      <trkpt lat="42.597891000" lon="-2.470763000">
        <ele>835.70</ele>
        <time>2017-02-18T08:25:41Z</time>
      </trkpt>
      <trkpt lat="42.597899000" lon="-2.470745000">
        <ele>835.90</ele>
        <time>2017-02-18T08:25:42Z</time>
      </trkpt>
      <trkpt lat="42.597907000" lon="-2.470720000">
        <ele>836.00</ele>
        <time>2017-02-18T08:25:43Z</time>
      </trkpt>
      <trkpt lat="42.597916000" lon="-2.470695000">
        <ele>836.10</ele>
        <time>2017-02-18T08:25:44Z</time>
      </trkpt>
      <trkpt lat="42.597925000" lon="-2.470673000">
        <ele>836.20</ele>
        <time>2017-02-18T08:25:45Z</time>
      </trkpt>
      <trkpt lat="42.597932000" lon="-2.470647000">
        <ele>836.30</ele>
        <time>2017-02-18T08:25:46Z</time>
      </trkpt>
      <trkpt lat="42.597937000" lon="-2.470620000">
        <ele>836.40</ele>
        <time>2017-02-18T08:25:47Z</time>
      </trkpt>
      <trkpt lat="42.597943000" lon="-2.470593000">
        <ele>836.50</ele>
        <time>2017-02-18T08:25:48Z</time>
      </trkpt>
      <trkpt lat="42.597951000" lon="-2.470570000">
        <ele>836.60</ele>
        <time>2017-02-18T08:25:49Z</time>
      </trkpt>
      <trkpt lat="42.597960000" lon="-2.470547000">
        <ele>836.60</ele>
        <time>2017-02-18T08:25:50Z</time>
      </trkpt>
      <trkpt lat="42.597970000" lon="-2.470525000">
        <ele>836.70</ele>
        <time>2017-02-18T08:25:51Z</time>
      </trkpt>
      <trkpt lat="42.597983000" lon="-2.470501000">
        <ele>836.90</ele>
        <time>2017-02-18T08:25:52Z</time>
      </trkpt>
      <trkpt lat="42.597991000" lon="-2.470479000">
        <ele>837.10</ele>
        <time>2017-02-18T08:25:53Z</time>
      </trkpt>
      <trkpt lat="42.597997000" lon="-2.470458000">
        <ele>837.30</ele>
        <time>2017-02-18T08:25:54Z</time>
      </trkpt>
      <trkpt lat="42.598003000" lon="-2.470436000">
        <ele>837.50</ele>
        <time>2017-02-18T08:25:55Z</time>
      </trkpt>
      <trkpt lat="42.598013000" lon="-2.470413000">
        <ele>837.70</ele>
        <time>2017-02-18T08:25:56Z</time>
      </trkpt>
      <trkpt lat="42.598022000" lon="-2.470389000">
        <ele>837.90</ele>
        <time>2017-02-18T08:25:57Z</time>
      </trkpt>
      <trkpt lat="42.598029000" lon="-2.470362000">
        <ele>838.00</ele>
        <time>2017-02-18T08:25:58Z</time>
      </trkpt>
      <trkpt lat="42.598037000" lon="-2.470339000">
        <ele>838.10</ele>
        <time>2017-02-18T08:25:59Z</time>
      </trkpt>
      <trkpt lat="42.598043000" lon="-2.470313000">
        <ele>838.40</ele>
        <time>2017-02-18T08:26:00Z</time>
      </trkpt>
      <trkpt lat="42.598053000" lon="-2.470287000">
        <ele>838.60</ele>
        <time>2017-02-18T08:26:01Z</time>
      </trkpt>
      <trkpt lat="42.598062000" lon="-2.470258000">
        <ele>838.80</ele>
        <time>2017-02-18T08:26:02Z</time>
      </trkpt>
      <trkpt lat="42.598071000" lon="-2.470232000">
        <ele>839.00</ele>
        <time>2017-02-18T08:26:03Z</time>
      </trkpt>
      <trkpt lat="42.598080000" lon="-2.470206000">
        <ele>839.10</ele>
        <time>2017-02-18T08:26:04Z</time>
      </trkpt>
      <trkpt lat="42.598087000" lon="-2.470180000">
        <ele>839.20</ele>
        <time>2017-02-18T08:26:05Z</time>
      </trkpt>
      <trkpt lat="42.598097000" lon="-2.470152000">
        <ele>839.30</ele>
        <time>2017-02-18T08:26:06Z</time>
      </trkpt>
      <trkpt lat="42.598107000" lon="-2.470129000">
        <ele>839.40</ele>
        <time>2017-02-18T08:26:07Z</time>
      </trkpt>
      <trkpt lat="42.598116000" lon="-2.470103000">
        <ele>839.40</ele>
        <time>2017-02-18T08:26:08Z</time>
      </trkpt>
      <trkpt lat="42.598125000" lon="-2.470079000">
        <ele>839.40</ele>
        <time>2017-02-18T08:26:09Z</time>
      </trkpt>
      <trkpt lat="42.598129000" lon="-2.470052000">
        <ele>839.60</ele>
        <time>2017-02-18T08:26:10Z</time>
      </trkpt>
      <trkpt lat="42.598133000" lon="-2.470026000">
        <ele>839.70</ele>
        <time>2017-02-18T08:26:11Z</time>
      </trkpt>
      <trkpt lat="42.598137000" lon="-2.469998000">
        <ele>839.90</ele>
        <time>2017-02-18T08:26:12Z</time>
      </trkpt>
      <trkpt lat="42.598140000" lon="-2.469970000">
        <ele>840.00</ele>
        <time>2017-02-18T08:26:13Z</time>
      </trkpt>
      <trkpt lat="42.598146000" lon="-2.469940000">
        <ele>840.20</ele>
        <time>2017-02-18T08:26:14Z</time>
      </trkpt>
      <trkpt lat="42.598147000" lon="-2.469910000">
        <ele>840.30</ele>
        <time>2017-02-18T08:26:15Z</time>
      </trkpt>
      <trkpt lat="42.598151000" lon="-2.469853000">
        <ele>840.70</ele>
        <time>2017-02-18T08:26:17Z</time>
      </trkpt>
      <trkpt lat="42.598152000" lon="-2.469823000">
        <ele>840.80</ele>
        <time>2017-02-18T08:26:18Z</time>
      </trkpt>
      <trkpt lat="42.598153000" lon="-2.469795000">
        <ele>840.90</ele>
        <time>2017-02-18T08:26:19Z</time>
      </trkpt>
      <trkpt lat="42.598153000" lon="-2.469762000">
        <ele>841.10</ele>
        <time>2017-02-18T08:26:20Z</time>
      </trkpt>
      <trkpt lat="42.598154000" lon="-2.469732000">
        <ele>841.20</ele>
        <time>2017-02-18T08:26:21Z</time>
      </trkpt>
      <trkpt lat="42.598150000" lon="-2.469704000">
        <ele>841.20</ele>
        <time>2017-02-18T08:26:22Z</time>
      </trkpt>
      <trkpt lat="42.598145000" lon="-2.469673000">
        <ele>841.20</ele>
        <time>2017-02-18T08:26:23Z</time>
      </trkpt>
      <trkpt lat="42.598136000" lon="-2.469641000">
        <ele>841.30</ele>
        <time>2017-02-18T08:26:24Z</time>
      </trkpt>
      <trkpt lat="42.598131000" lon="-2.469610000">
        <ele>841.40</ele>
        <time>2017-02-18T08:26:25Z</time>
      </trkpt>
      <trkpt lat="42.598124000" lon="-2.469575000">
        <ele>841.80</ele>
        <time>2017-02-18T08:26:26Z</time>
      </trkpt>
      <trkpt lat="42.598111000" lon="-2.469539000">
        <ele>842.00</ele>
        <time>2017-02-18T08:26:27Z</time>
      </trkpt>
      <trkpt lat="42.598101000" lon="-2.469506000">
        <ele>842.20</ele>
        <time>2017-02-18T08:26:28Z</time>
      </trkpt>
      <trkpt lat="42.598090000" lon="-2.469480000">
        <ele>842.40</ele>
        <time>2017-02-18T08:26:29Z</time>
      </trkpt>
      <trkpt lat="42.598084000" lon="-2.469454000">
        <ele>842.60</ele>
        <time>2017-02-18T08:26:30Z</time>
      </trkpt>
      <trkpt lat="42.598078000" lon="-2.469433000">
        <ele>842.70</ele>
        <time>2017-02-18T08:26:31Z</time>
      </trkpt>
      <trkpt lat="42.598073000" lon="-2.469411000">
        <ele>842.80</ele>
        <time>2017-02-18T08:26:32Z</time>
      </trkpt>
      <trkpt lat="42.598068000" lon="-2.469392000">
        <ele>842.80</ele>
        <time>2017-02-18T08:26:33Z</time>
      </trkpt>
      <trkpt lat="42.598062000" lon="-2.469370000">
        <ele>842.90</ele>
        <time>2017-02-18T08:26:34Z</time>
      </trkpt>
      <trkpt lat="42.598051000" lon="-2.469354000">
        <ele>842.90</ele>
        <time>2017-02-18T08:26:35Z</time>
      </trkpt>
      <trkpt lat="42.598044000" lon="-2.469341000">
        <ele>843.20</ele>
        <time>2017-02-18T08:26:36Z</time>
      </trkpt>
      <trkpt lat="42.598037000" lon="-2.469324000">
        <ele>843.40</ele>
        <time>2017-02-18T08:26:37Z</time>
      </trkpt>
      <trkpt lat="42.598031000" lon="-2.469302000">
        <ele>843.40</ele>
        <time>2017-02-18T08:26:38Z</time>
      </trkpt>
      <trkpt lat="42.598025000" lon="-2.469282000">
        <ele>843.40</ele>
        <time>2017-02-18T08:26:39Z</time>
      </trkpt>
      <trkpt lat="42.598017000" lon="-2.469264000">
        <ele>843.40</ele>
        <time>2017-02-18T08:26:40Z</time>
      </trkpt>
      <trkpt lat="42.598010000" lon="-2.469248000">
        <ele>843.50</ele>
        <time>2017-02-18T08:26:41Z</time>
      </trkpt>
      <trkpt lat="42.598000000" lon="-2.469230000">
        <ele>843.50</ele>
        <time>2017-02-18T08:26:42Z</time>
      </trkpt>
      <trkpt lat="42.597990000" lon="-2.469208000">
        <ele>843.50</ele>
        <time>2017-02-18T08:26:43Z</time>
      </trkpt>
      <trkpt lat="42.597979000" lon="-2.469186000">
        <ele>843.50</ele>
        <time>2017-02-18T08:26:44Z</time>
      </trkpt>
      <trkpt lat="42.597968000" lon="-2.469162000">
        <ele>843.50</ele>
        <time>2017-02-18T08:26:45Z</time>
      </trkpt>
      <trkpt lat="42.597953000" lon="-2.469137000">
        <ele>843.70</ele>
        <time>2017-02-18T08:26:46Z</time>
      </trkpt>
      <trkpt lat="42.597942000" lon="-2.469119000">
        <ele>843.80</ele>
        <time>2017-02-18T08:26:47Z</time>
      </trkpt>
      <trkpt lat="42.597932000" lon="-2.469097000">
        <ele>844.00</ele>
        <time>2017-02-18T08:26:48Z</time>
      </trkpt>
      <trkpt lat="42.597920000" lon="-2.469074000">
        <ele>844.20</ele>
        <time>2017-02-18T08:26:49Z</time>
      </trkpt>
      <trkpt lat="42.597903000" lon="-2.469051000">
        <ele>844.40</ele>
        <time>2017-02-18T08:26:50Z</time>
      </trkpt>
      <trkpt lat="42.597889000" lon="-2.469032000">
        <ele>844.50</ele>
        <time>2017-02-18T08:26:51Z</time>
      </trkpt>
      <trkpt lat="42.597880000" lon="-2.469015000">
        <ele>844.40</ele>
        <time>2017-02-18T08:26:52Z</time>
      </trkpt>
      <trkpt lat="42.597866000" lon="-2.469001000">
        <ele>844.40</ele>
        <time>2017-02-18T08:26:53Z</time>
      </trkpt>
      <trkpt lat="42.597858000" lon="-2.468986000">
        <ele>844.40</ele>
        <time>2017-02-18T08:26:54Z</time>
      </trkpt>
      <trkpt lat="42.597846000" lon="-2.468972000">
        <ele>844.40</ele>
        <time>2017-02-18T08:26:55Z</time>
      </trkpt>
      <trkpt lat="42.597832000" lon="-2.468955000">
        <ele>844.50</ele>
        <time>2017-02-18T08:26:56Z</time>
      </trkpt>
      <trkpt lat="42.597819000" lon="-2.468938000">
        <ele>844.60</ele>
        <time>2017-02-18T08:26:57Z</time>
      </trkpt>
      <trkpt lat="42.597807000" lon="-2.468922000">
        <ele>844.70</ele>
        <time>2017-02-18T08:26:58Z</time>
      </trkpt>
      <trkpt lat="42.597795000" lon="-2.468904000">
        <ele>844.80</ele>
        <time>2017-02-18T08:26:59Z</time>
      </trkpt>
      <trkpt lat="42.597783000" lon="-2.468885000">
        <ele>844.90</ele>
        <time>2017-02-18T08:27:00Z</time>
      </trkpt>
      <trkpt lat="42.597771000" lon="-2.468864000">
        <ele>845.00</ele>
        <time>2017-02-18T08:27:01Z</time>
      </trkpt>
      <trkpt lat="42.597760000" lon="-2.468843000">
        <ele>845.10</ele>
        <time>2017-02-18T08:27:02Z</time>
      </trkpt>
      <trkpt lat="42.597744000" lon="-2.468825000">
        <ele>845.20</ele>
        <time>2017-02-18T08:27:03Z</time>
      </trkpt>
      <trkpt lat="42.597730000" lon="-2.468804000">
        <ele>845.30</ele>
        <time>2017-02-18T08:27:04Z</time>
      </trkpt>
      <trkpt lat="42.597718000" lon="-2.468786000">
        <ele>845.30</ele>
        <time>2017-02-18T08:27:05Z</time>
      </trkpt>
      <trkpt lat="42.597706000" lon="-2.468769000">
        <ele>845.30</ele>
        <time>2017-02-18T08:27:06Z</time>
      </trkpt>
      <trkpt lat="42.597696000" lon="-2.468755000">
        <ele>845.40</ele>
        <time>2017-02-18T08:27:07Z</time>
      </trkpt>
      <trkpt lat="42.597684000" lon="-2.468742000">
        <ele>845.40</ele>
        <time>2017-02-18T08:27:08Z</time>
      </trkpt>
      <trkpt lat="42.597671000" lon="-2.468730000">
        <ele>845.40</ele>
        <time>2017-02-18T08:27:09Z</time>
      </trkpt>
      <trkpt lat="42.597661000" lon="-2.468714000">
        <ele>845.60</ele>
        <time>2017-02-18T08:27:10Z</time>
      </trkpt>
      <trkpt lat="42.597652000" lon="-2.468694000">
        <ele>845.80</ele>
        <time>2017-02-18T08:27:11Z</time>
      </trkpt>
      <trkpt lat="42.597645000" lon="-2.468679000">
        <ele>845.90</ele>
        <time>2017-02-18T08:27:12Z</time>
      </trkpt>
      <trkpt lat="42.597636000" lon="-2.468662000">
        <ele>846.00</ele>
        <time>2017-02-18T08:27:13Z</time>
      </trkpt>
      <trkpt lat="42.597630000" lon="-2.468642000">
        <ele>846.10</ele>
        <time>2017-02-18T08:27:14Z</time>
      </trkpt>
      <trkpt lat="42.597621000" lon="-2.468614000">
        <ele>846.10</ele>
        <time>2017-02-18T08:27:15Z</time>
      </trkpt>
      <trkpt lat="42.597614000" lon="-2.468592000">
        <ele>846.10</ele>
        <time>2017-02-18T08:27:16Z</time>
      </trkpt>
      <trkpt lat="42.597602000" lon="-2.468551000">
        <ele>846.20</ele>
        <time>2017-02-18T08:27:18Z</time>
      </trkpt>
      <trkpt lat="42.597599000" lon="-2.468532000">
        <ele>846.20</ele>
        <time>2017-02-18T08:27:19Z</time>
      </trkpt>
      <trkpt lat="42.597596000" lon="-2.468515000">
        <ele>846.40</ele>
        <time>2017-02-18T08:27:20Z</time>
      </trkpt>
      <trkpt lat="42.597588000" lon="-2.468493000">
        <ele>846.50</ele>
        <time>2017-02-18T08:27:21Z</time>
      </trkpt>
      <trkpt lat="42.597578000" lon="-2.468477000">
        <ele>846.50</ele>
        <time>2017-02-18T08:27:22Z</time>
      </trkpt>
      <trkpt lat="42.597563000" lon="-2.468462000">
        <ele>846.60</ele>
        <time>2017-02-18T08:27:23Z</time>
      </trkpt>
      <trkpt lat="42.597552000" lon="-2.468448000">
        <ele>846.70</ele>
        <time>2017-02-18T08:27:24Z</time>
      </trkpt>
      <trkpt lat="42.597537000" lon="-2.468437000">
        <ele>846.70</ele>
        <time>2017-02-18T08:27:25Z</time>
      </trkpt>
      <trkpt lat="42.597520000" lon="-2.468426000">
        <ele>846.80</ele>
        <time>2017-02-18T08:27:26Z</time>
      </trkpt>
      <trkpt lat="42.597502000" lon="-2.468420000">
        <ele>846.90</ele>
        <time>2017-02-18T08:27:27Z</time>
      </trkpt>
      <trkpt lat="42.597482000" lon="-2.468414000">
        <ele>846.80</ele>
        <time>2017-02-18T08:27:28Z</time>
      </trkpt>
      <trkpt lat="42.597464000" lon="-2.468410000">
        <ele>846.80</ele>
        <time>2017-02-18T08:27:29Z</time>
      </trkpt>
      <trkpt lat="42.597442000" lon="-2.468409000">
        <ele>846.80</ele>
        <time>2017-02-18T08:27:30Z</time>
      </trkpt>
      <trkpt lat="42.597420000" lon="-2.468413000">
        <ele>846.80</ele>
        <time>2017-02-18T08:27:31Z</time>
      </trkpt>
      <trkpt lat="42.597397000" lon="-2.468413000">
        <ele>846.80</ele>
        <time>2017-02-18T08:27:32Z</time>
      </trkpt>
      <trkpt lat="42.597372000" lon="-2.468416000">
        <ele>846.80</ele>
        <time>2017-02-18T08:27:33Z</time>
      </trkpt>
      <trkpt lat="42.597344000" lon="-2.468417000">
        <ele>847.00</ele>
        <time>2017-02-18T08:27:34Z</time>
      </trkpt>
      <trkpt lat="42.597314000" lon="-2.468414000">
        <ele>847.20</ele>
        <time>2017-02-18T08:27:35Z</time>
      </trkpt>
      <trkpt lat="42.597280000" lon="-2.468410000">
        <ele>847.30</ele>
        <time>2017-02-18T08:27:36Z</time>
      </trkpt>
      <trkpt lat="42.597248000" lon="-2.468404000">
        <ele>847.40</ele>
        <time>2017-02-18T08:27:37Z</time>
      </trkpt>
      <trkpt lat="42.597219000" lon="-2.468394000">
        <ele>847.40</ele>
        <time>2017-02-18T08:27:38Z</time>
      </trkpt>
      <trkpt lat="42.597191000" lon="-2.468374000">
        <ele>847.50</ele>
        <time>2017-02-18T08:27:39Z</time>
      </trkpt>
      <trkpt lat="42.597162000" lon="-2.468344000">
        <ele>847.40</ele>
        <time>2017-02-18T08:27:40Z</time>
      </trkpt>
      <trkpt lat="42.597142000" lon="-2.468302000">
        <ele>847.30</ele>
        <time>2017-02-18T08:27:41Z</time>
      </trkpt>
      <trkpt lat="42.597123000" lon="-2.468254000">
        <ele>847.10</ele>
        <time>2017-02-18T08:27:42Z</time>
      </trkpt>
      <trkpt lat="42.597105000" lon="-2.468204000">
        <ele>847.00</ele>
        <time>2017-02-18T08:27:43Z</time>
      </trkpt>
      <trkpt lat="42.597086000" lon="-2.468147000">
        <ele>846.60</ele>
        <time>2017-02-18T08:27:44Z</time>
      </trkpt>
      <trkpt lat="42.597069000" lon="-2.468087000">
        <ele>846.30</ele>
        <time>2017-02-18T08:27:45Z</time>
      </trkpt>
      <trkpt lat="42.597049000" lon="-2.468026000">
        <ele>846.10</ele>
        <time>2017-02-18T08:27:46Z</time>
      </trkpt>
      <trkpt lat="42.597028000" lon="-2.467960000">
        <ele>845.90</ele>
        <time>2017-02-18T08:27:47Z</time>
      </trkpt>
      <trkpt lat="42.597008000" lon="-2.467890000">
        <ele>845.80</ele>
        <time>2017-02-18T08:27:48Z</time>
      </trkpt>
      <trkpt lat="42.596988000" lon="-2.467815000">
        <ele>845.70</ele>
        <time>2017-02-18T08:27:49Z</time>
      </trkpt>
      <trkpt lat="42.596971000" lon="-2.467732000">
        <ele>845.40</ele>
        <time>2017-02-18T08:27:50Z</time>
      </trkpt>
      <trkpt lat="42.596959000" lon="-2.467646000">
        <ele>845.10</ele>
        <time>2017-02-18T08:27:51Z</time>
      </trkpt>
      <trkpt lat="42.596955000" lon="-2.467555000">
        <ele>844.90</ele>
        <time>2017-02-18T08:27:52Z</time>
      </trkpt>
      <trkpt lat="42.596962000" lon="-2.467463000">
        <ele>844.80</ele>
        <time>2017-02-18T08:27:53Z</time>
      </trkpt>
      <trkpt lat="42.596976000" lon="-2.467371000">
        <ele>844.40</ele>
        <time>2017-02-18T08:27:54Z</time>
      </trkpt>
      <trkpt lat="42.596991000" lon="-2.467282000">
        <ele>844.20</ele>
        <time>2017-02-18T08:27:55Z</time>
      </trkpt>
      <trkpt lat="42.597008000" lon="-2.467190000">
        <ele>843.80</ele>
        <time>2017-02-18T08:27:56Z</time>
      </trkpt>
      <trkpt lat="42.597028000" lon="-2.467099000">
        <ele>843.50</ele>
        <time>2017-02-18T08:27:57Z</time>
      </trkpt>
      <trkpt lat="42.597047000" lon="-2.467007000">
        <ele>843.20</ele>
        <time>2017-02-18T08:27:58Z</time>
      </trkpt>
      <trkpt lat="42.597067000" lon="-2.466919000">
        <ele>843.00</ele>
        <time>2017-02-18T08:27:59Z</time>
      </trkpt>
      <trkpt lat="42.597085000" lon="-2.466834000">
        <ele>842.80</ele>
        <time>2017-02-18T08:28:00Z</time>
      </trkpt>
      <trkpt lat="42.597103000" lon="-2.466748000">
        <ele>842.60</ele>
        <time>2017-02-18T08:28:01Z</time>
      </trkpt>
      <trkpt lat="42.597126000" lon="-2.466661000">
        <ele>842.60</ele>
        <time>2017-02-18T08:28:02Z</time>
      </trkpt>
      <trkpt lat="42.597146000" lon="-2.466577000">
        <ele>842.50</ele>
        <time>2017-02-18T08:28:03Z</time>
      </trkpt>
      <trkpt lat="42.597168000" lon="-2.466493000">
        <ele>842.40</ele>
        <time>2017-02-18T08:28:04Z</time>
      </trkpt>
      <trkpt lat="42.597190000" lon="-2.466407000">
        <ele>842.20</ele>
        <time>2017-02-18T08:28:05Z</time>
      </trkpt>
      <trkpt lat="42.597208000" lon="-2.466316000">
        <ele>842.10</ele>
        <time>2017-02-18T08:28:06Z</time>
      </trkpt>
      <trkpt lat="42.597219000" lon="-2.466219000">
        <ele>842.10</ele>
        <time>2017-02-18T08:28:07Z</time>
      </trkpt>
      <trkpt lat="42.597217000" lon="-2.466118000">
        <ele>842.00</ele>
        <time>2017-02-18T08:28:08Z</time>
      </trkpt>
      <trkpt lat="42.597197000" lon="-2.466022000">
        <ele>841.90</ele>
        <time>2017-02-18T08:28:09Z</time>
      </trkpt>
      <trkpt lat="42.597165000" lon="-2.465938000">
        <ele>841.30</ele>
        <time>2017-02-18T08:28:10Z</time>
      </trkpt>
      <trkpt lat="42.597116000" lon="-2.465865000">
        <ele>840.90</ele>
        <time>2017-02-18T08:28:11Z</time>
      </trkpt>
      <trkpt lat="42.597066000" lon="-2.465796000">
        <ele>840.60</ele>
        <time>2017-02-18T08:28:12Z</time>
      </trkpt>
      <trkpt lat="42.597018000" lon="-2.465726000">
        <ele>840.40</ele>
        <time>2017-02-18T08:28:13Z</time>
      </trkpt>
      <trkpt lat="42.596970000" lon="-2.465654000">
        <ele>840.20</ele>
        <time>2017-02-18T08:28:14Z</time>
      </trkpt>
      <trkpt lat="42.596916000" lon="-2.465577000">
        <ele>840.10</ele>
        <time>2017-02-18T08:28:15Z</time>
      </trkpt>
      <trkpt lat="42.596864000" lon="-2.465498000">
        <ele>840.00</ele>
        <time>2017-02-18T08:28:16Z</time>
      </trkpt>
      <trkpt lat="42.596808000" lon="-2.465419000">
        <ele>839.90</ele>
        <time>2017-02-18T08:28:17Z</time>
      </trkpt>
      <trkpt lat="42.596694000" lon="-2.465263000">
        <ele>839.00</ele>
        <time>2017-02-18T08:28:19Z</time>
      </trkpt>
      <trkpt lat="42.596635000" lon="-2.465181000">
        <ele>838.50</ele>
        <time>2017-02-18T08:28:20Z</time>
      </trkpt>
      <trkpt lat="42.596576000" lon="-2.465098000">
        <ele>838.20</ele>
        <time>2017-02-18T08:28:21Z</time>
      </trkpt>
      <trkpt lat="42.596521000" lon="-2.465000000">
        <ele>837.80</ele>
        <time>2017-02-18T08:28:22Z</time>
      </trkpt>
      <trkpt lat="42.596472000" lon="-2.464898000">
        <ele>837.50</ele>
        <time>2017-02-18T08:28:23Z</time>
      </trkpt>
      <trkpt lat="42.596444000" lon="-2.464781000">
        <ele>837.00</ele>
        <time>2017-02-18T08:28:24Z</time>
      </trkpt>
      <trkpt lat="42.596434000" lon="-2.464657000">
        <ele>836.60</ele>
        <time>2017-02-18T08:28:25Z</time>
      </trkpt>
      <trkpt lat="42.596435000" lon="-2.464529000">
        <ele>836.20</ele>
        <time>2017-02-18T08:28:26Z</time>
      </trkpt>
      <trkpt lat="42.596434000" lon="-2.464400000">
        <ele>835.90</ele>
        <time>2017-02-18T08:28:27Z</time>
      </trkpt>
      <trkpt lat="42.596437000" lon="-2.464273000">
        <ele>835.50</ele>
        <time>2017-02-18T08:28:28Z</time>
      </trkpt>
      <trkpt lat="42.596441000" lon="-2.464144000">
        <ele>835.10</ele>
        <time>2017-02-18T08:28:29Z</time>
      </trkpt>
      <trkpt lat="42.596444000" lon="-2.464021000">
        <ele>834.70</ele>
        <time>2017-02-18T08:28:30Z</time>
      </trkpt>
      <trkpt lat="42.596448000" lon="-2.463894000">
        <ele>834.30</ele>
        <time>2017-02-18T08:28:31Z</time>
      </trkpt>
      <trkpt lat="42.596454000" lon="-2.463773000">
        <ele>833.90</ele>
        <time>2017-02-18T08:28:32Z</time>
      </trkpt>
      <trkpt lat="42.596466000" lon="-2.463656000">
        <ele>833.60</ele>
        <time>2017-02-18T08:28:33Z</time>
      </trkpt>
      <trkpt lat="42.596481000" lon="-2.463543000">
        <ele>833.20</ele>
        <time>2017-02-18T08:28:34Z</time>
      </trkpt>
      <trkpt lat="42.596503000" lon="-2.463430000">
        <ele>832.90</ele>
        <time>2017-02-18T08:28:35Z</time>
      </trkpt>
      <trkpt lat="42.596531000" lon="-2.463322000">
        <ele>832.60</ele>
        <time>2017-02-18T08:28:36Z</time>
      </trkpt>
      <trkpt lat="42.596573000" lon="-2.463222000">
        <ele>832.40</ele>
        <time>2017-02-18T08:28:37Z</time>
      </trkpt>
      <trkpt lat="42.596629000" lon="-2.463132000">
        <ele>831.60</ele>
        <time>2017-02-18T08:28:38Z</time>
      </trkpt>
      <trkpt lat="42.596691000" lon="-2.463050000">
        <ele>831.00</ele>
        <time>2017-02-18T08:28:39Z</time>
      </trkpt>
      <trkpt lat="42.596756000" lon="-2.462975000">
        <ele>830.50</ele>
        <time>2017-02-18T08:28:40Z</time>
      </trkpt>
      <trkpt lat="42.596823000" lon="-2.462908000">
        <ele>830.20</ele>
        <time>2017-02-18T08:28:41Z</time>
      </trkpt>
      <trkpt lat="42.596892000" lon="-2.462844000">
        <ele>829.90</ele>
        <time>2017-02-18T08:28:42Z</time>
      </trkpt>
      <trkpt lat="42.596952000" lon="-2.462767000">
        <ele>829.80</ele>
        <time>2017-02-18T08:28:43Z</time>
      </trkpt>
      <trkpt lat="42.596990000" lon="-2.462673000">
        <ele>829.60</ele>
        <time>2017-02-18T08:28:44Z</time>
      </trkpt>
      <trkpt lat="42.597002000" lon="-2.462570000">
        <ele>829.40</ele>
        <time>2017-02-18T08:28:45Z</time>
      </trkpt>
      <trkpt lat="42.596988000" lon="-2.462471000">
        <ele>829.40</ele>
        <time>2017-02-18T08:28:46Z</time>
      </trkpt>
      <trkpt lat="42.596963000" lon="-2.462378000">
        <ele>829.30</ele>
        <time>2017-02-18T08:28:47Z</time>
      </trkpt>
      <trkpt lat="42.596938000" lon="-2.462289000">
        <ele>829.30</ele>
        <time>2017-02-18T08:28:48Z</time>
      </trkpt>
      <trkpt lat="42.596917000" lon="-2.462200000">
        <ele>829.30</ele>
        <time>2017-02-18T08:28:49Z</time>
      </trkpt>
      <trkpt lat="42.596896000" lon="-2.462112000">
        <ele>829.30</ele>
        <time>2017-02-18T08:28:50Z</time>
      </trkpt>
      <trkpt lat="42.596881000" lon="-2.462028000">
        <ele>829.30</ele>
        <time>2017-02-18T08:28:51Z</time>
      </trkpt>
      <trkpt lat="42.596871000" lon="-2.461944000">
        <ele>829.20</ele>
        <time>2017-02-18T08:28:52Z</time>
      </trkpt>
      <trkpt lat="42.596871000" lon="-2.461861000">
        <ele>829.10</ele>
        <time>2017-02-18T08:28:53Z</time>
      </trkpt>
      <trkpt lat="42.596884000" lon="-2.461785000">
        <ele>829.00</ele>
        <time>2017-02-18T08:28:54Z</time>
      </trkpt>
      <trkpt lat="42.596905000" lon="-2.461717000">
        <ele>828.90</ele>
        <time>2017-02-18T08:28:55Z</time>
      </trkpt>
      <trkpt lat="42.596929000" lon="-2.461650000">
        <ele>828.80</ele>
        <time>2017-02-18T08:28:56Z</time>
      </trkpt>
      <trkpt lat="42.596954000" lon="-2.461581000">
        <ele>828.80</ele>
        <time>2017-02-18T08:28:57Z</time>
      </trkpt>
      <trkpt lat="42.596983000" lon="-2.461515000">
        <ele>828.90</ele>
        <time>2017-02-18T08:28:58Z</time>
      </trkpt>
      <trkpt lat="42.597013000" lon="-2.461449000">
        <ele>829.00</ele>
        <time>2017-02-18T08:28:59Z</time>
      </trkpt>
      <trkpt lat="42.597045000" lon="-2.461378000">
        <ele>829.00</ele>
        <time>2017-02-18T08:29:00Z</time>
      </trkpt>
      <trkpt lat="42.597075000" lon="-2.461303000">
        <ele>829.10</ele>
        <time>2017-02-18T08:29:01Z</time>
      </trkpt>
      <trkpt lat="42.597105000" lon="-2.461224000">
        <ele>829.20</ele>
        <time>2017-02-18T08:29:02Z</time>
      </trkpt>
      <trkpt lat="42.597130000" lon="-2.461143000">
        <ele>829.20</ele>
        <time>2017-02-18T08:29:03Z</time>
      </trkpt>
      <trkpt lat="42.597142000" lon="-2.461057000">
        <ele>829.20</ele>
        <time>2017-02-18T08:29:04Z</time>
      </trkpt>
      <trkpt lat="42.597140000" lon="-2.460965000">
        <ele>829.30</ele>
        <time>2017-02-18T08:29:05Z</time>
      </trkpt>
      <trkpt lat="42.597124000" lon="-2.460888000">
        <ele>829.20</ele>
        <time>2017-02-18T08:29:06Z</time>
      </trkpt>
      <trkpt lat="42.597095000" lon="-2.460816000">
        <ele>829.20</ele>
        <time>2017-02-18T08:29:07Z</time>
      </trkpt>
      <trkpt lat="42.597063000" lon="-2.460756000">
        <ele>829.00</ele>
        <time>2017-02-18T08:29:08Z</time>
      </trkpt>
      <trkpt lat="42.597022000" lon="-2.460695000">
        <ele>828.90</ele>
        <time>2017-02-18T08:29:09Z</time>
      </trkpt>
      <trkpt lat="42.596980000" lon="-2.460635000">
        <ele>828.70</ele>
        <time>2017-02-18T08:29:10Z</time>
      </trkpt>
      <trkpt lat="42.596938000" lon="-2.460570000">
        <ele>828.60</ele>
        <time>2017-02-18T08:29:11Z</time>
      </trkpt>
      <trkpt lat="42.596896000" lon="-2.460505000">
        <ele>828.50</ele>
        <time>2017-02-18T08:29:12Z</time>
      </trkpt>
      <trkpt lat="42.596852000" lon="-2.460438000">
        <ele>828.30</ele>
        <time>2017-02-18T08:29:13Z</time>
      </trkpt>
      <trkpt lat="42.596812000" lon="-2.460369000">
        <ele>828.20</ele>
        <time>2017-02-18T08:29:14Z</time>
      </trkpt>
      <trkpt lat="42.596775000" lon="-2.460294000">
        <ele>828.00</ele>
        <time>2017-02-18T08:29:15Z</time>
      </trkpt>
      <trkpt lat="42.596741000" lon="-2.460213000">
        <ele>827.90</ele>
        <time>2017-02-18T08:29:16Z</time>
      </trkpt>
      <trkpt lat="42.596715000" lon="-2.460131000">
        <ele>827.90</ele>
        <time>2017-02-18T08:29:17Z</time>
      </trkpt>
      <trkpt lat="42.596699000" lon="-2.460042000">
        <ele>827.80</ele>
        <time>2017-02-18T08:29:18Z</time>
      </trkpt>
      <trkpt lat="42.596679000" lon="-2.459853000">
        <ele>827.50</ele>
        <time>2017-02-18T08:29:20Z</time>
      </trkpt>
      <trkpt lat="42.596672000" lon="-2.459757000">
        <ele>827.20</ele>
        <time>2017-02-18T08:29:21Z</time>
      </trkpt>
      <trkpt lat="42.596667000" lon="-2.459658000">
        <ele>826.80</ele>
        <time>2017-02-18T08:29:22Z</time>
      </trkpt>
      <trkpt lat="42.596663000" lon="-2.459559000">
        <ele>826.50</ele>
        <time>2017-02-18T08:29:23Z</time>
      </trkpt>
      <trkpt lat="42.596658000" lon="-2.459464000">
        <ele>826.20</ele>
        <time>2017-02-18T08:29:24Z</time>
      </trkpt>
      <trkpt lat="42.596655000" lon="-2.459367000">
        <ele>826.00</ele>
        <time>2017-02-18T08:29:25Z</time>
      </trkpt>
      <trkpt lat="42.596651000" lon="-2.459269000">
        <ele>825.80</ele>
        <time>2017-02-18T08:29:26Z</time>
      </trkpt>
      <trkpt lat="42.596649000" lon="-2.459174000">
        <ele>825.60</ele>
        <time>2017-02-18T08:29:27Z</time>
      </trkpt>
      <trkpt lat="42.596644000" lon="-2.459075000">
        <ele>825.50</ele>
        <time>2017-02-18T08:29:28Z</time>
      </trkpt>
      <trkpt lat="42.596641000" lon="-2.458979000">
        <ele>825.40</ele>
        <time>2017-02-18T08:29:29Z</time>
      </trkpt>
      <trkpt lat="42.596640000" lon="-2.458882000">
        <ele>825.30</ele>
        <time>2017-02-18T08:29:30Z</time>
      </trkpt>
      <trkpt lat="42.596646000" lon="-2.458792000">
        <ele>825.30</ele>
        <time>2017-02-18T08:29:31Z</time>
      </trkpt>
      <trkpt lat="42.596667000" lon="-2.458711000">
        <ele>825.40</ele>
        <time>2017-02-18T08:29:32Z</time>
      </trkpt>
      <trkpt lat="42.596696000" lon="-2.458636000">
        <ele>825.40</ele>
        <time>2017-02-18T08:29:33Z</time>
      </trkpt>
      <trkpt lat="42.596731000" lon="-2.458571000">
        <ele>825.50</ele>
        <time>2017-02-18T08:29:34Z</time>
      </trkpt>
      <trkpt lat="42.596773000" lon="-2.458512000">
        <ele>825.50</ele>
        <time>2017-02-18T08:29:35Z</time>
      </trkpt>
      <trkpt lat="42.596820000" lon="-2.458454000">
        <ele>825.30</ele>
        <time>2017-02-18T08:29:36Z</time>
      </trkpt>
      <trkpt lat="42.596867000" lon="-2.458394000">
        <ele>825.20</ele>
        <time>2017-02-18T08:29:37Z</time>
      </trkpt>
      <trkpt lat="42.596915000" lon="-2.458334000">
        <ele>825.10</ele>
        <time>2017-02-18T08:29:38Z</time>
      </trkpt>
      <trkpt lat="42.596961000" lon="-2.458270000">
        <ele>825.00</ele>
        <time>2017-02-18T08:29:39Z</time>
      </trkpt>
      <trkpt lat="42.597004000" lon="-2.458199000">
        <ele>825.00</ele>
        <time>2017-02-18T08:29:40Z</time>
      </trkpt>
      <trkpt lat="42.597035000" lon="-2.458121000">
        <ele>825.00</ele>
        <time>2017-02-18T08:29:41Z</time>
      </trkpt>
      <trkpt lat="42.597057000" lon="-2.458034000">
        <ele>825.00</ele>
        <time>2017-02-18T08:29:42Z</time>
      </trkpt>
      <trkpt lat="42.597069000" lon="-2.457942000">
        <ele>825.00</ele>
        <time>2017-02-18T08:29:43Z</time>
      </trkpt>
      <trkpt lat="42.597072000" lon="-2.457843000">
        <ele>824.90</ele>
        <time>2017-02-18T08:29:44Z</time>
      </trkpt>
      <trkpt lat="42.597070000" lon="-2.457741000">
        <ele>824.90</ele>
        <time>2017-02-18T08:29:45Z</time>
      </trkpt>
      <trkpt lat="42.597065000" lon="-2.457638000">
        <ele>824.30</ele>
        <time>2017-02-18T08:29:46Z</time>
      </trkpt>
      <trkpt lat="42.597056000" lon="-2.457531000">
        <ele>823.90</ele>
        <time>2017-02-18T08:29:47Z</time>
      </trkpt>
      <trkpt lat="42.597048000" lon="-2.457427000">
        <ele>823.50</ele>
        <time>2017-02-18T08:29:48Z</time>
      </trkpt>
      <trkpt lat="42.597036000" lon="-2.457323000">
        <ele>823.30</ele>
        <time>2017-02-18T08:29:49Z</time>
      </trkpt>
      <trkpt lat="42.597026000" lon="-2.457223000">
        <ele>822.90</ele>
        <time>2017-02-18T08:29:50Z</time>
      </trkpt>
      <trkpt lat="42.597014000" lon="-2.457124000">
        <ele>822.60</ele>
        <time>2017-02-18T08:29:51Z</time>
      </trkpt>
      <trkpt lat="42.597002000" lon="-2.457028000">
        <ele>822.40</ele>
        <time>2017-02-18T08:29:52Z</time>
      </trkpt>
      <trkpt lat="42.596993000" lon="-2.456936000">
        <ele>822.10</ele>
        <time>2017-02-18T08:29:53Z</time>
      </trkpt>
      <trkpt lat="42.596981000" lon="-2.456841000">
        <ele>822.00</ele>
        <time>2017-02-18T08:29:54Z</time>
      </trkpt>
      <trkpt lat="42.596972000" lon="-2.456751000">
        <ele>821.80</ele>
        <time>2017-02-18T08:29:55Z</time>
      </trkpt>
      <trkpt lat="42.596964000" lon="-2.456663000">
        <ele>821.90</ele>
        <time>2017-02-18T08:29:56Z</time>
      </trkpt>
      <trkpt lat="42.596954000" lon="-2.456575000">
        <ele>821.90</ele>
        <time>2017-02-18T08:29:57Z</time>
      </trkpt>
      <trkpt lat="42.596947000" lon="-2.456488000">
        <ele>821.90</ele>
        <time>2017-02-18T08:29:58Z</time>
      </trkpt>
      <trkpt lat="42.596943000" lon="-2.456402000">
        <ele>822.00</ele>
        <time>2017-02-18T08:29:59Z</time>
      </trkpt>
      <trkpt lat="42.596946000" lon="-2.456318000">
        <ele>822.00</ele>
        <time>2017-02-18T08:30:00Z</time>
      </trkpt>
      <trkpt lat="42.596955000" lon="-2.456231000">
        <ele>822.00</ele>
        <time>2017-02-18T08:30:01Z</time>
      </trkpt>
      <trkpt lat="42.596973000" lon="-2.456151000">
        <ele>821.80</ele>
        <time>2017-02-18T08:30:02Z</time>
      </trkpt>
      <trkpt lat="42.596998000" lon="-2.456076000">
        <ele>821.60</ele>
        <time>2017-02-18T08:30:03Z</time>
      </trkpt>
      <trkpt lat="42.597021000" lon="-2.455998000">
        <ele>821.50</ele>
        <time>2017-02-18T08:30:04Z</time>
      </trkpt>
      <trkpt lat="42.597041000" lon="-2.455918000">
        <ele>821.40</ele>
        <time>2017-02-18T08:30:05Z</time>
      </trkpt>
      <trkpt lat="42.597054000" lon="-2.455836000">
        <ele>821.30</ele>
        <time>2017-02-18T08:30:06Z</time>
      </trkpt>
      <trkpt lat="42.597061000" lon="-2.455753000">
        <ele>821.30</ele>
        <time>2017-02-18T08:30:07Z</time>
      </trkpt>
      <trkpt lat="42.597061000" lon="-2.455673000">
        <ele>821.10</ele>
        <time>2017-02-18T08:30:08Z</time>
      </trkpt>
      <trkpt lat="42.597051000" lon="-2.455590000">
        <ele>821.00</ele>
        <time>2017-02-18T08:30:09Z</time>
      </trkpt>
      <trkpt lat="42.597036000" lon="-2.455514000">
        <ele>821.00</ele>
        <time>2017-02-18T08:30:10Z</time>
      </trkpt>
      <trkpt lat="42.597014000" lon="-2.455444000">
        <ele>820.90</ele>
        <time>2017-02-18T08:30:11Z</time>
      </trkpt>
      <trkpt lat="42.596981000" lon="-2.455382000">
        <ele>820.40</ele>
        <time>2017-02-18T08:30:12Z</time>
      </trkpt>
      <trkpt lat="42.596945000" lon="-2.455322000">
        <ele>820.10</ele>
        <time>2017-02-18T08:30:13Z</time>
      </trkpt>
      <trkpt lat="42.596908000" lon="-2.455267000">
        <ele>819.80</ele>
        <time>2017-02-18T08:30:14Z</time>
      </trkpt>
      <trkpt lat="42.596872000" lon="-2.455212000">
        <ele>819.60</ele>
        <time>2017-02-18T08:30:15Z</time>
      </trkpt>
      <trkpt lat="42.596837000" lon="-2.455159000">
        <ele>819.30</ele>
        <time>2017-02-18T08:30:16Z</time>
      </trkpt>
      <trkpt lat="42.596804000" lon="-2.455109000">
        <ele>819.10</ele>
        <time>2017-02-18T08:30:17Z</time>
      </trkpt>
      <trkpt lat="42.596775000" lon="-2.455062000">
        <ele>818.70</ele>
        <time>2017-02-18T08:30:18Z</time>
      </trkpt>
      <trkpt lat="42.596752000" lon="-2.455023000">
        <ele>818.50</ele>
        <time>2017-02-18T08:30:19Z</time>
      </trkpt>
      <trkpt lat="42.596711000" lon="-2.454962000">
        <ele>817.90</ele>
        <time>2017-02-18T08:30:21Z</time>
      </trkpt>
      <trkpt lat="42.596691000" lon="-2.454936000">
        <ele>817.70</ele>
        <time>2017-02-18T08:30:22Z</time>
      </trkpt>
      <trkpt lat="42.596672000" lon="-2.454911000">
        <ele>817.50</ele>
        <time>2017-02-18T08:30:23Z</time>
      </trkpt>
      <trkpt lat="42.596649000" lon="-2.454890000">
        <ele>817.30</ele>
        <time>2017-02-18T08:30:24Z</time>
      </trkpt>
      <trkpt lat="42.596625000" lon="-2.454877000">
        <ele>817.20</ele>
        <time>2017-02-18T08:30:25Z</time>
      </trkpt>
      <trkpt lat="42.596607000" lon="-2.454868000">
        <ele>817.10</ele>
        <time>2017-02-18T08:30:26Z</time>
      </trkpt>
      <trkpt lat="42.596599000" lon="-2.454860000">
        <ele>817.00</ele>
        <time>2017-02-18T08:30:27Z</time>
      </trkpt>
      <trkpt lat="42.596602000" lon="-2.454860000">
        <ele>817.00</ele>
        <time>2017-02-18T08:30:28Z</time>
      </trkpt>
      <trkpt lat="42.596602000" lon="-2.454868000">
        <ele>816.90</ele>
        <time>2017-02-18T08:30:29Z</time>
      </trkpt>
      <trkpt lat="42.596604000" lon="-2.454869000">
        <ele>816.80</ele>
        <time>2017-02-18T08:30:30Z</time>
      </trkpt>
      <trkpt lat="42.596605000" lon="-2.454872000">
        <ele>816.70</ele>
        <time>2017-02-18T08:30:31Z</time>
      </trkpt>
      <trkpt lat="42.596606000" lon="-2.454874000">
        <ele>816.70</ele>
        <time>2017-02-18T08:30:32Z</time>
      </trkpt>
      <trkpt lat="42.596606000" lon="-2.454874000">
        <ele>816.60</ele>
        <time>2017-02-18T08:30:33Z</time>
      </trkpt>
      <trkpt lat="42.596605000" lon="-2.454874000">
        <ele>816.60</ele>
        <time>2017-02-18T08:30:34Z</time>
      </trkpt>
      <trkpt lat="42.596605000" lon="-2.454874000">
        <ele>816.60</ele>
        <time>2017-02-18T08:30:35Z</time>
      </trkpt>
      <trkpt lat="42.596600000" lon="-2.454871000">
        <ele>816.50</ele>
        <time>2017-02-18T08:30:36Z</time>
      </trkpt>
      <trkpt lat="42.596599000" lon="-2.454869000">
        <ele>816.50</ele>
        <time>2017-02-18T08:30:37Z</time>
      </trkpt>
      <trkpt lat="42.596598000" lon="-2.454869000">
        <ele>816.40</ele>
        <time>2017-02-18T08:30:38Z</time>
      </trkpt>
      <trkpt lat="42.596598000" lon="-2.454869000">
        <ele>816.40</ele>
        <time>2017-02-18T08:30:39Z</time>
      </trkpt>
      <trkpt lat="42.596599000" lon="-2.454869000">
        <ele>816.30</ele>
        <time>2017-02-18T08:30:40Z</time>
      </trkpt>
      <trkpt lat="42.596599000" lon="-2.454869000">
        <ele>816.30</ele>
        <time>2017-02-18T08:30:41Z</time>
      </trkpt>
      <trkpt lat="42.596599000" lon="-2.454868000">
        <ele>816.40</ele>
        <time>2017-02-18T08:30:42Z</time>
      </trkpt>
      <trkpt lat="42.596598000" lon="-2.454867000">
        <ele>816.50</ele>
        <time>2017-02-18T08:30:43Z</time>
      </trkpt>
      <trkpt lat="42.596593000" lon="-2.454869000">
        <ele>816.60</ele>
        <time>2017-02-18T08:30:44Z</time>
      </trkpt>
      <trkpt lat="42.596592000" lon="-2.454868000">
        <ele>816.60</ele>
        <time>2017-02-18T08:30:45Z</time>
      </trkpt>
      <trkpt lat="42.596592000" lon="-2.454865000">
        <ele>816.60</ele>
        <time>2017-02-18T08:30:46Z</time>
      </trkpt>
      <trkpt lat="42.596589000" lon="-2.454865000">
        <ele>816.70</ele>
        <time>2017-02-18T08:30:47Z</time>
      </trkpt>
      <trkpt lat="42.596588000" lon="-2.454864000">
        <ele>816.90</ele>
        <time>2017-02-18T08:30:48Z</time>
      </trkpt>
      <trkpt lat="42.596588000" lon="-2.454863000">
        <ele>817.00</ele>
        <time>2017-02-18T08:30:49Z</time>
      </trkpt>
      <trkpt lat="42.596588000" lon="-2.454864000">
        <ele>817.10</ele>
        <time>2017-02-18T08:30:50Z</time>
      </trkpt>
      <trkpt lat="42.596587000" lon="-2.454863000">
        <ele>817.20</ele>
        <time>2017-02-18T08:30:51Z</time>
      </trkpt>
      <trkpt lat="42.596586000" lon="-2.454864000">
        <ele>817.10</ele>
        <time>2017-02-18T08:30:52Z</time>
      </trkpt>
      <trkpt lat="42.596586000" lon="-2.454863000">
        <ele>817.10</ele>
        <time>2017-02-18T08:30:53Z</time>
      </trkpt>
      <trkpt lat="42.596586000" lon="-2.454863000">
        <ele>816.80</ele>
        <time>2017-02-18T08:30:54Z</time>
      </trkpt>
      <trkpt lat="42.596587000" lon="-2.454865000">
        <ele>816.60</ele>
        <time>2017-02-18T08:30:55Z</time>
      </trkpt>
      <trkpt lat="42.596588000" lon="-2.454866000">
        <ele>816.40</ele>
        <time>2017-02-18T08:30:56Z</time>
      </trkpt>
      <trkpt lat="42.596588000" lon="-2.454867000">
        <ele>816.30</ele>
        <time>2017-02-18T08:30:57Z</time>
      </trkpt>
      <trkpt lat="42.596588000" lon="-2.454867000">
        <ele>816.20</ele>
        <time>2017-02-18T08:30:58Z</time>
      </trkpt>
      <trkpt lat="42.596588000" lon="-2.454867000">
        <ele>816.10</ele>
        <time>2017-02-18T08:30:59Z</time>
      </trkpt>
      <trkpt lat="42.596588000" lon="-2.454868000">
        <ele>816.10</ele>
        <time>2017-02-18T08:31:00Z</time>
      </trkpt>
      <trkpt lat="42.596587000" lon="-2.454867000">
        <ele>816.00</ele>
        <time>2017-02-18T08:31:01Z</time>
      </trkpt>
      <trkpt lat="42.596582000" lon="-2.454867000">
        <ele>816.10</ele>
        <time>2017-02-18T08:31:02Z</time>
      </trkpt>
      <trkpt lat="42.596575000" lon="-2.454867000">
        <ele>816.10</ele>
        <time>2017-02-18T08:31:03Z</time>
      </trkpt>
      <trkpt lat="42.596572000" lon="-2.454867000">
        <ele>816.10</ele>
        <time>2017-02-18T08:31:04Z</time>
      </trkpt>
      <trkpt lat="42.596569000" lon="-2.454872000">
        <ele>816.10</ele>
        <time>2017-02-18T08:31:05Z</time>
      </trkpt>
      <trkpt lat="42.596565000" lon="-2.454878000">
        <ele>816.10</ele>
        <time>2017-02-18T08:31:06Z</time>
      </trkpt>
      <trkpt lat="42.596564000" lon="-2.454880000">
        <ele>816.20</ele>
        <time>2017-02-18T08:31:07Z</time>
      </trkpt>
      <trkpt lat="42.596563000" lon="-2.454882000">
        <ele>816.20</ele>
        <time>2017-02-18T08:31:08Z</time>
      </trkpt>
      <trkpt lat="42.596556000" lon="-2.454889000">
        <ele>816.10</ele>
        <time>2017-02-18T08:31:09Z</time>
      </trkpt>
      <trkpt lat="42.596541000" lon="-2.454883000">
        <ele>816.10</ele>
        <time>2017-02-18T08:31:10Z</time>
      </trkpt>
      <trkpt lat="42.596534000" lon="-2.454878000">
        <ele>816.10</ele>
        <time>2017-02-18T08:31:11Z</time>
      </trkpt>
      <trkpt lat="42.596514000" lon="-2.454876000">
        <ele>816.10</ele>
        <time>2017-02-18T08:31:12Z</time>
      </trkpt>
      <trkpt lat="42.596495000" lon="-2.454877000">
        <ele>816.10</ele>
        <time>2017-02-18T08:31:13Z</time>
      </trkpt>
      <trkpt lat="42.596474000" lon="-2.454872000">
        <ele>816.20</ele>
        <time>2017-02-18T08:31:14Z</time>
      </trkpt>
      <trkpt lat="42.596454000" lon="-2.454867000">
        <ele>816.20</ele>
        <time>2017-02-18T08:31:15Z</time>
      </trkpt>
      <trkpt lat="42.596434000" lon="-2.454863000">
        <ele>816.20</ele>
        <time>2017-02-18T08:31:16Z</time>
      </trkpt>
      <trkpt lat="42.596416000" lon="-2.454850000">
        <ele>816.20</ele>
        <time>2017-02-18T08:31:17Z</time>
      </trkpt>
      <trkpt lat="42.596392000" lon="-2.454846000">
        <ele>816.10</ele>
        <time>2017-02-18T08:31:18Z</time>
      </trkpt>
      <trkpt lat="42.596368000" lon="-2.454850000">
        <ele>816.10</ele>
        <time>2017-02-18T08:31:19Z</time>
      </trkpt>
      <trkpt lat="42.596344000" lon="-2.454852000">
        <ele>816.00</ele>
        <time>2017-02-18T08:31:20Z</time>
      </trkpt>
      <trkpt lat="42.596292000" lon="-2.454855000">
        <ele>815.90</ele>
        <time>2017-02-18T08:31:22Z</time>
      </trkpt>
      <trkpt lat="42.596262000" lon="-2.454853000">
        <ele>815.90</ele>
        <time>2017-02-18T08:31:23Z</time>
      </trkpt>
      <trkpt lat="42.596235000" lon="-2.454855000">
        <ele>815.80</ele>
        <time>2017-02-18T08:31:24Z</time>
      </trkpt>
      <trkpt lat="42.596208000" lon="-2.454860000">
        <ele>815.60</ele>
        <time>2017-02-18T08:31:25Z</time>
      </trkpt>
      <trkpt lat="42.596177000" lon="-2.454859000">
        <ele>815.70</ele>
        <time>2017-02-18T08:31:26Z</time>
      </trkpt>
      <trkpt lat="42.596147000" lon="-2.454860000">
        <ele>815.70</ele>
        <time>2017-02-18T08:31:27Z</time>
      </trkpt>
      <trkpt lat="42.596116000" lon="-2.454864000">
        <ele>815.60</ele>
        <time>2017-02-18T08:31:28Z</time>
      </trkpt>
      <trkpt lat="42.596085000" lon="-2.454861000">
        <ele>815.60</ele>
        <time>2017-02-18T08:31:29Z</time>
      </trkpt>
      <trkpt lat="42.596054000" lon="-2.454864000">
        <ele>815.50</ele>
        <time>2017-02-18T08:31:30Z</time>
      </trkpt>
      <trkpt lat="42.596022000" lon="-2.454865000">
        <ele>815.50</ele>
        <time>2017-02-18T08:31:31Z</time>
      </trkpt>
      <trkpt lat="42.595987000" lon="-2.454869000">
        <ele>815.50</ele>
        <time>2017-02-18T08:31:32Z</time>
      </trkpt>
      <trkpt lat="42.595953000" lon="-2.454873000">
        <ele>815.50</ele>
        <time>2017-02-18T08:31:33Z</time>
      </trkpt>
      <trkpt lat="42.595919000" lon="-2.454875000">
        <ele>815.30</ele>
        <time>2017-02-18T08:31:34Z</time>
      </trkpt>
      <trkpt lat="42.595884000" lon="-2.454878000">
        <ele>815.20</ele>
        <time>2017-02-18T08:31:35Z</time>
      </trkpt>
      <trkpt lat="42.595848000" lon="-2.454879000">
        <ele>815.10</ele>
        <time>2017-02-18T08:31:36Z</time>
      </trkpt>
      <trkpt lat="42.595811000" lon="-2.454879000">
        <ele>815.00</ele>
        <time>2017-02-18T08:31:37Z</time>
      </trkpt>
      <trkpt lat="42.595776000" lon="-2.454878000">
        <ele>815.10</ele>
        <time>2017-02-18T08:31:38Z</time>
      </trkpt>
      <trkpt lat="42.595739000" lon="-2.454882000">
        <ele>815.20</ele>
        <time>2017-02-18T08:31:39Z</time>
      </trkpt>
      <trkpt lat="42.595703000" lon="-2.454884000">
        <ele>815.20</ele>
        <time>2017-02-18T08:31:40Z</time>
      </trkpt>
      <trkpt lat="42.595667000" lon="-2.454883000">
        <ele>815.30</ele>
        <time>2017-02-18T08:31:41Z</time>
      </trkpt>
      <trkpt lat="42.595629000" lon="-2.454886000">
        <ele>815.20</ele>
        <time>2017-02-18T08:31:42Z</time>
      </trkpt>
      <trkpt lat="42.595591000" lon="-2.454887000">
        <ele>815.10</ele>
        <time>2017-02-18T08:31:43Z</time>
      </trkpt>
      <trkpt lat="42.595552000" lon="-2.454885000">
        <ele>814.90</ele>
        <time>2017-02-18T08:31:44Z</time>
      </trkpt>
      <trkpt lat="42.595511000" lon="-2.454886000">
        <ele>814.80</ele>
        <time>2017-02-18T08:31:45Z</time>
      </trkpt>
      <trkpt lat="42.595470000" lon="-2.454886000">
        <ele>814.60</ele>
        <time>2017-02-18T08:31:46Z</time>
      </trkpt>
      <trkpt lat="42.595429000" lon="-2.454888000">
        <ele>814.60</ele>
        <time>2017-02-18T08:31:47Z</time>
      </trkpt>
      <trkpt lat="42.595387000" lon="-2.454890000">
        <ele>814.60</ele>
        <time>2017-02-18T08:31:48Z</time>
      </trkpt>
      <trkpt lat="42.595346000" lon="-2.454890000">
        <ele>814.60</ele>
        <time>2017-02-18T08:31:49Z</time>
      </trkpt>
      <trkpt lat="42.595304000" lon="-2.454892000">
        <ele>814.60</ele>
        <time>2017-02-18T08:31:50Z</time>
      </trkpt>
      <trkpt lat="42.595259000" lon="-2.454894000">
        <ele>814.60</ele>
        <time>2017-02-18T08:31:51Z</time>
      </trkpt>
      <trkpt lat="42.595212000" lon="-2.454894000">
        <ele>814.50</ele>
        <time>2017-02-18T08:31:52Z</time>
      </trkpt>
      <trkpt lat="42.595168000" lon="-2.454897000">
        <ele>814.50</ele>
        <time>2017-02-18T08:31:53Z</time>
      </trkpt>
      <trkpt lat="42.595121000" lon="-2.454904000">
        <ele>814.40</ele>
        <time>2017-02-18T08:31:54Z</time>
      </trkpt>
      <trkpt lat="42.595073000" lon="-2.454904000">
        <ele>814.30</ele>
        <time>2017-02-18T08:31:55Z</time>
      </trkpt>
      <trkpt lat="42.595021000" lon="-2.454907000">
        <ele>814.10</ele>
        <time>2017-02-18T08:31:56Z</time>
      </trkpt>
      <trkpt lat="42.594971000" lon="-2.454904000">
        <ele>814.00</ele>
        <time>2017-02-18T08:31:57Z</time>
      </trkpt>
      <trkpt lat="42.594923000" lon="-2.454906000">
        <ele>813.80</ele>
        <time>2017-02-18T08:31:58Z</time>
      </trkpt>
      <trkpt lat="42.594873000" lon="-2.454906000">
        <ele>813.80</ele>
        <time>2017-02-18T08:31:59Z</time>
      </trkpt>
      <trkpt lat="42.594825000" lon="-2.454905000">
        <ele>813.60</ele>
        <time>2017-02-18T08:32:00Z</time>
      </trkpt>
      <trkpt lat="42.594777000" lon="-2.454908000">
        <ele>813.40</ele>
        <time>2017-02-18T08:32:01Z</time>
      </trkpt>
      <trkpt lat="42.594729000" lon="-2.454910000">
        <ele>813.30</ele>
        <time>2017-02-18T08:32:02Z</time>
      </trkpt>
      <trkpt lat="42.594684000" lon="-2.454914000">
        <ele>813.20</ele>
        <time>2017-02-18T08:32:03Z</time>
      </trkpt>
      <trkpt lat="42.594636000" lon="-2.454917000">
        <ele>812.80</ele>
        <time>2017-02-18T08:32:04Z</time>
      </trkpt>
      <trkpt lat="42.594590000" lon="-2.454924000">
        <ele>812.50</ele>
        <time>2017-02-18T08:32:05Z</time>
      </trkpt>
      <trkpt lat="42.594544000" lon="-2.454939000">
        <ele>812.30</ele>
        <time>2017-02-18T08:32:06Z</time>
      </trkpt>
      <trkpt lat="42.594500000" lon="-2.454949000">
        <ele>812.20</ele>
        <time>2017-02-18T08:32:07Z</time>
      </trkpt>
      <trkpt lat="42.594456000" lon="-2.454949000">
        <ele>812.10</ele>
        <time>2017-02-18T08:32:08Z</time>
      </trkpt>
      <trkpt lat="42.594414000" lon="-2.454951000">
        <ele>812.00</ele>
        <time>2017-02-18T08:32:09Z</time>
      </trkpt>
      <trkpt lat="42.594376000" lon="-2.454947000">
        <ele>812.10</ele>
        <time>2017-02-18T08:32:10Z</time>
      </trkpt>
      <trkpt lat="42.594340000" lon="-2.454955000">
        <ele>812.20</ele>
        <time>2017-02-18T08:32:11Z</time>
      </trkpt>
      <trkpt lat="42.594307000" lon="-2.454958000">
        <ele>812.20</ele>
        <time>2017-02-18T08:32:12Z</time>
      </trkpt>
      <trkpt lat="42.594275000" lon="-2.454963000">
        <ele>812.20</ele>
        <time>2017-02-18T08:32:13Z</time>
      </trkpt>
      <trkpt lat="42.594247000" lon="-2.454963000">
        <ele>812.20</ele>
        <time>2017-02-18T08:32:14Z</time>
      </trkpt>
      <trkpt lat="42.594218000" lon="-2.454957000">
        <ele>812.20</ele>
        <time>2017-02-18T08:32:15Z</time>
      </trkpt>
      <trkpt lat="42.594190000" lon="-2.454957000">
        <ele>812.00</ele>
        <time>2017-02-18T08:32:16Z</time>
      </trkpt>
      <trkpt lat="42.594161000" lon="-2.454953000">
        <ele>811.80</ele>
        <time>2017-02-18T08:32:17Z</time>
      </trkpt>
      <trkpt lat="42.594133000" lon="-2.454953000">
        <ele>811.60</ele>
        <time>2017-02-18T08:32:18Z</time>
      </trkpt>
      <trkpt lat="42.594103000" lon="-2.454953000">
        <ele>811.50</ele>
        <time>2017-02-18T08:32:19Z</time>
      </trkpt>
      <trkpt lat="42.594071000" lon="-2.454954000">
        <ele>811.30</ele>
        <time>2017-02-18T08:32:20Z</time>
      </trkpt>
      <trkpt lat="42.594038000" lon="-2.454949000">
        <ele>811.10</ele>
        <time>2017-02-18T08:32:21Z</time>
      </trkpt>
      <trkpt lat="42.593961000" lon="-2.454935000">
        <ele>811.40</ele>
        <time>2017-02-18T08:32:23Z</time>
      </trkpt>
      <trkpt lat="42.593916000" lon="-2.454923000">
        <ele>811.20</ele>
        <time>2017-02-18T08:32:24Z</time>
      </trkpt>
      <trkpt lat="42.593869000" lon="-2.454910000">
        <ele>811.00</ele>
        <time>2017-02-18T08:32:25Z</time>
      </trkpt>
      <trkpt lat="42.593816000" lon="-2.454897000">
        <ele>810.50</ele>
        <time>2017-02-18T08:32:26Z</time>
      </trkpt>
      <trkpt lat="42.593756000" lon="-2.454880000">
        <ele>810.20</ele>
        <time>2017-02-18T08:32:27Z</time>
      </trkpt>
      <trkpt lat="42.593695000" lon="-2.454863000">
        <ele>809.70</ele>
        <time>2017-02-18T08:32:28Z</time>
      </trkpt>
      <trkpt lat="42.593630000" lon="-2.454840000">
        <ele>809.30</ele>
        <time>2017-02-18T08:32:29Z</time>
      </trkpt>
      <trkpt lat="42.593559000" lon="-2.454817000">
        <ele>809.00</ele>
        <time>2017-02-18T08:32:30Z</time>
      </trkpt>
      <trkpt lat="42.593487000" lon="-2.454796000">
        <ele>808.70</ele>
        <time>2017-02-18T08:32:31Z</time>
      </trkpt>
      <trkpt lat="42.593412000" lon="-2.454778000">
        <ele>808.50</ele>
        <time>2017-02-18T08:32:32Z</time>
      </trkpt>
      <trkpt lat="42.593332000" lon="-2.454753000">
        <ele>808.30</ele>
        <time>2017-02-18T08:32:33Z</time>
      </trkpt>
      <trkpt lat="42.593255000" lon="-2.454733000">
        <ele>808.00</ele>
        <time>2017-02-18T08:32:34Z</time>
      </trkpt>
      <trkpt lat="42.593171000" lon="-2.454715000">
        <ele>807.70</ele>
        <time>2017-02-18T08:32:35Z</time>
      </trkpt>
      <trkpt lat="42.593083000" lon="-2.454689000">
        <ele>807.00</ele>
        <time>2017-02-18T08:32:36Z</time>
      </trkpt>
      <trkpt lat="42.592991000" lon="-2.454662000">
        <ele>806.40</ele>
        <time>2017-02-18T08:32:37Z</time>
      </trkpt>
      <trkpt lat="42.592896000" lon="-2.454636000">
        <ele>805.30</ele>
        <time>2017-02-18T08:32:38Z</time>
      </trkpt>
      <trkpt lat="42.592799000" lon="-2.454609000">
        <ele>804.60</ele>
        <time>2017-02-18T08:32:39Z</time>
      </trkpt>
      <trkpt lat="42.592699000" lon="-2.454580000">
        <ele>804.00</ele>
        <time>2017-02-18T08:32:40Z</time>
      </trkpt>
      <trkpt lat="42.592600000" lon="-2.454554000">
        <ele>803.60</ele>
        <time>2017-02-18T08:32:41Z</time>
      </trkpt>
      <trkpt lat="42.592500000" lon="-2.454525000">
        <ele>802.40</ele>
        <time>2017-02-18T08:32:42Z</time>
      </trkpt>
      <trkpt lat="42.592398000" lon="-2.454493000">
        <ele>801.60</ele>
        <time>2017-02-18T08:32:43Z</time>
      </trkpt>
      <trkpt lat="42.592295000" lon="-2.454460000">
        <ele>800.60</ele>
        <time>2017-02-18T08:32:44Z</time>
      </trkpt>
      <trkpt lat="42.592193000" lon="-2.454429000">
        <ele>799.90</ele>
        <time>2017-02-18T08:32:45Z</time>
      </trkpt>
      <trkpt lat="42.592094000" lon="-2.454402000">
        <ele>799.30</ele>
        <time>2017-02-18T08:32:46Z</time>
      </trkpt>
      <trkpt lat="42.591994000" lon="-2.454374000">
        <ele>798.80</ele>
        <time>2017-02-18T08:32:47Z</time>
      </trkpt>
      <trkpt lat="42.591898000" lon="-2.454344000">
        <ele>797.90</ele>
        <time>2017-02-18T08:32:48Z</time>
      </trkpt>
      <trkpt lat="42.591804000" lon="-2.454318000">
        <ele>797.30</ele>
        <time>2017-02-18T08:32:49Z</time>
      </trkpt>
      <trkpt lat="42.591714000" lon="-2.454291000">
        <ele>796.60</ele>
        <time>2017-02-18T08:32:50Z</time>
      </trkpt>
      <trkpt lat="42.591626000" lon="-2.454268000">
        <ele>796.10</ele>
        <time>2017-02-18T08:32:51Z</time>
      </trkpt>
      <trkpt lat="42.591541000" lon="-2.454246000">
        <ele>795.70</ele>
        <time>2017-02-18T08:32:52Z</time>
      </trkpt>
      <trkpt lat="42.591459000" lon="-2.454224000">
        <ele>795.50</ele>
        <time>2017-02-18T08:32:53Z</time>
      </trkpt>
      <trkpt lat="42.591379000" lon="-2.454202000">
        <ele>794.90</ele>
        <time>2017-02-18T08:32:54Z</time>
      </trkpt>
      <trkpt lat="42.591302000" lon="-2.454181000">
        <ele>794.50</ele>
        <time>2017-02-18T08:32:55Z</time>
      </trkpt>
      <trkpt lat="42.591229000" lon="-2.454160000">
        <ele>794.20</ele>
        <time>2017-02-18T08:32:56Z</time>
      </trkpt>
      <trkpt lat="42.591158000" lon="-2.454139000">
        <ele>794.00</ele>
        <time>2017-02-18T08:32:57Z</time>
      </trkpt>
      <trkpt lat="42.591086000" lon="-2.454119000">
        <ele>793.70</ele>
        <time>2017-02-18T08:32:58Z</time>
      </trkpt>
      <trkpt lat="42.591016000" lon="-2.454096000">
        <ele>793.40</ele>
        <time>2017-02-18T08:32:59Z</time>
      </trkpt>
      <trkpt lat="42.590947000" lon="-2.454075000">
        <ele>793.20</ele>
        <time>2017-02-18T08:33:00Z</time>
      </trkpt>
      <trkpt lat="42.590880000" lon="-2.454058000">
        <ele>793.00</ele>
        <time>2017-02-18T08:33:01Z</time>
      </trkpt>
      <trkpt lat="42.590814000" lon="-2.454041000">
        <ele>792.80</ele>
        <time>2017-02-18T08:33:02Z</time>
      </trkpt>
      <trkpt lat="42.590750000" lon="-2.454024000">
        <ele>792.70</ele>
        <time>2017-02-18T08:33:03Z</time>
      </trkpt>
      <trkpt lat="42.590688000" lon="-2.454006000">
        <ele>792.60</ele>
        <time>2017-02-18T08:33:04Z</time>
      </trkpt>
      <trkpt lat="42.590626000" lon="-2.453991000">
        <ele>792.60</ele>
        <time>2017-02-18T08:33:05Z</time>
      </trkpt>
      <trkpt lat="42.590567000" lon="-2.453974000">
        <ele>792.20</ele>
        <time>2017-02-18T08:33:06Z</time>
      </trkpt>
      <trkpt lat="42.590507000" lon="-2.453960000">
        <ele>792.00</ele>
        <time>2017-02-18T08:33:07Z</time>
      </trkpt>
      <trkpt lat="42.590449000" lon="-2.453943000">
        <ele>791.30</ele>
        <time>2017-02-18T08:33:08Z</time>
      </trkpt>
      <trkpt lat="42.590395000" lon="-2.453926000">
        <ele>790.70</ele>
        <time>2017-02-18T08:33:09Z</time>
      </trkpt>
      <trkpt lat="42.590338000" lon="-2.453907000">
        <ele>790.30</ele>
        <time>2017-02-18T08:33:10Z</time>
      </trkpt>
      <trkpt lat="42.590281000" lon="-2.453896000">
        <ele>790.00</ele>
        <time>2017-02-18T08:33:11Z</time>
      </trkpt>
      <trkpt lat="42.590226000" lon="-2.453881000">
        <ele>790.30</ele>
        <time>2017-02-18T08:33:12Z</time>
      </trkpt>
      <trkpt lat="42.590168000" lon="-2.453864000">
        <ele>790.50</ele>
        <time>2017-02-18T08:33:13Z</time>
      </trkpt>
      <trkpt lat="42.590110000" lon="-2.453846000">
        <ele>790.60</ele>
        <time>2017-02-18T08:33:14Z</time>
      </trkpt>
      <trkpt lat="42.590048000" lon="-2.453829000">
        <ele>790.80</ele>
        <time>2017-02-18T08:33:15Z</time>
      </trkpt>
      <trkpt lat="42.589987000" lon="-2.453809000">
        <ele>790.50</ele>
        <time>2017-02-18T08:33:16Z</time>
      </trkpt>
      <trkpt lat="42.589929000" lon="-2.453790000">
        <ele>790.20</ele>
        <time>2017-02-18T08:33:17Z</time>
      </trkpt>
      <trkpt lat="42.589868000" lon="-2.453771000">
        <ele>790.00</ele>
        <time>2017-02-18T08:33:18Z</time>
      </trkpt>
      <trkpt lat="42.589806000" lon="-2.453753000">
        <ele>789.90</ele>
        <time>2017-02-18T08:33:19Z</time>
      </trkpt>
      <trkpt lat="42.589743000" lon="-2.453733000">
        <ele>789.60</ele>
        <time>2017-02-18T08:33:20Z</time>
      </trkpt>
      <trkpt lat="42.589682000" lon="-2.453715000">
        <ele>789.30</ele>
        <time>2017-02-18T08:33:21Z</time>
      </trkpt>
      <trkpt lat="42.589624000" lon="-2.453699000">
        <ele>789.40</ele>
        <time>2017-02-18T08:33:22Z</time>
      </trkpt>
      <trkpt lat="42.589506000" lon="-2.453669000">
        <ele>789.00</ele>
        <time>2017-02-18T08:33:24Z</time>
      </trkpt>
      <trkpt lat="42.589448000" lon="-2.453655000">
        <ele>788.80</ele>
        <time>2017-02-18T08:33:25Z</time>
      </trkpt>
      <trkpt lat="42.589390000" lon="-2.453637000">
        <ele>788.70</ele>
        <time>2017-02-18T08:33:26Z</time>
      </trkpt>
      <trkpt lat="42.589339000" lon="-2.453614000">
        <ele>788.60</ele>
        <time>2017-02-18T08:33:27Z</time>
      </trkpt>
      <trkpt lat="42.589284000" lon="-2.453600000">
        <ele>788.50</ele>
        <time>2017-02-18T08:33:28Z</time>
      </trkpt>
      <trkpt lat="42.589227000" lon="-2.453586000">
        <ele>788.50</ele>
        <time>2017-02-18T08:33:29Z</time>
      </trkpt>
      <trkpt lat="42.589173000" lon="-2.453567000">
        <ele>788.60</ele>
        <time>2017-02-18T08:33:30Z</time>
      </trkpt>
      <trkpt lat="42.589117000" lon="-2.453550000">
        <ele>788.60</ele>
        <time>2017-02-18T08:33:31Z</time>
      </trkpt>
      <trkpt lat="42.589061000" lon="-2.453530000">
        <ele>788.70</ele>
        <time>2017-02-18T08:33:32Z</time>
      </trkpt>
      <trkpt lat="42.589009000" lon="-2.453520000">
        <ele>788.70</ele>
        <time>2017-02-18T08:33:33Z</time>
      </trkpt>
      <trkpt lat="42.588959000" lon="-2.453507000">
        <ele>788.80</ele>
        <time>2017-02-18T08:33:34Z</time>
      </trkpt>
      <trkpt lat="42.588912000" lon="-2.453501000">
        <ele>788.90</ele>
        <time>2017-02-18T08:33:35Z</time>
      </trkpt>
      <trkpt lat="42.588868000" lon="-2.453496000">
        <ele>788.90</ele>
        <time>2017-02-18T08:33:36Z</time>
      </trkpt>
      <trkpt lat="42.588828000" lon="-2.453492000">
        <ele>789.00</ele>
        <time>2017-02-18T08:33:37Z</time>
      </trkpt>
      <trkpt lat="42.588790000" lon="-2.453483000">
        <ele>789.00</ele>
        <time>2017-02-18T08:33:38Z</time>
      </trkpt>
      <trkpt lat="42.588751000" lon="-2.453466000">
        <ele>789.10</ele>
        <time>2017-02-18T08:33:39Z</time>
      </trkpt>
      <trkpt lat="42.588708000" lon="-2.453446000">
        <ele>789.10</ele>
        <time>2017-02-18T08:33:40Z</time>
      </trkpt>
      <trkpt lat="42.588663000" lon="-2.453426000">
        <ele>789.10</ele>
        <time>2017-02-18T08:33:41Z</time>
      </trkpt>
      <trkpt lat="42.588612000" lon="-2.453410000">
        <ele>789.10</ele>
        <time>2017-02-18T08:33:42Z</time>
      </trkpt>
      <trkpt lat="42.588561000" lon="-2.453400000">
        <ele>789.00</ele>
        <time>2017-02-18T08:33:43Z</time>
      </trkpt>
      <trkpt lat="42.588509000" lon="-2.453400000">
        <ele>789.00</ele>
        <time>2017-02-18T08:33:44Z</time>
      </trkpt>
      <trkpt lat="42.588456000" lon="-2.453401000">
        <ele>789.00</ele>
        <time>2017-02-18T08:33:45Z</time>
      </trkpt>
      <trkpt lat="42.588401000" lon="-2.453388000">
        <ele>788.90</ele>
        <time>2017-02-18T08:33:46Z</time>
      </trkpt>
      <trkpt lat="42.588347000" lon="-2.453369000">
        <ele>788.90</ele>
        <time>2017-02-18T08:33:47Z</time>
      </trkpt>
      <trkpt lat="42.588294000" lon="-2.453351000">
        <ele>788.90</ele>
        <time>2017-02-18T08:33:48Z</time>
      </trkpt>
      <trkpt lat="42.588242000" lon="-2.453325000">
        <ele>788.80</ele>
        <time>2017-02-18T08:33:49Z</time>
      </trkpt>
      <trkpt lat="42.588189000" lon="-2.453302000">
        <ele>788.60</ele>
        <time>2017-02-18T08:33:50Z</time>
      </trkpt>
      <trkpt lat="42.588138000" lon="-2.453270000">
        <ele>788.50</ele>
        <time>2017-02-18T08:33:51Z</time>
      </trkpt>
      <trkpt lat="42.588088000" lon="-2.453233000">
        <ele>788.30</ele>
        <time>2017-02-18T08:33:52Z</time>
      </trkpt>
      <trkpt lat="42.588039000" lon="-2.453188000">
        <ele>788.20</ele>
        <time>2017-02-18T08:33:53Z</time>
      </trkpt>
      <trkpt lat="42.587988000" lon="-2.453153000">
        <ele>788.10</ele>
        <time>2017-02-18T08:33:54Z</time>
      </trkpt>
      <trkpt lat="42.587939000" lon="-2.453111000">
        <ele>788.00</ele>
        <time>2017-02-18T08:33:55Z</time>
      </trkpt>
      <trkpt lat="42.587890000" lon="-2.453064000">
        <ele>787.90</ele>
        <time>2017-02-18T08:33:56Z</time>
      </trkpt>
      <trkpt lat="42.587841000" lon="-2.453017000">
        <ele>787.70</ele>
        <time>2017-02-18T08:33:57Z</time>
      </trkpt>
      <trkpt lat="42.587790000" lon="-2.452969000">
        <ele>787.60</ele>
        <time>2017-02-18T08:33:58Z</time>
      </trkpt>
      <trkpt lat="42.587739000" lon="-2.452920000">
        <ele>787.50</ele>
        <time>2017-02-18T08:33:59Z</time>
      </trkpt>
      <trkpt lat="42.587687000" lon="-2.452867000">
        <ele>787.00</ele>
        <time>2017-02-18T08:34:00Z</time>
      </trkpt>
      <trkpt lat="42.587634000" lon="-2.452811000">
        <ele>786.60</ele>
        <time>2017-02-18T08:34:01Z</time>
      </trkpt>
      <trkpt lat="42.587584000" lon="-2.452754000">
        <ele>786.30</ele>
        <time>2017-02-18T08:34:02Z</time>
      </trkpt>
      <trkpt lat="42.587531000" lon="-2.452705000">
        <ele>786.10</ele>
        <time>2017-02-18T08:34:03Z</time>
      </trkpt>
      <trkpt lat="42.587482000" lon="-2.452658000">
        <ele>786.00</ele>
        <time>2017-02-18T08:34:04Z</time>
      </trkpt>
      <trkpt lat="42.587432000" lon="-2.452612000">
        <ele>786.00</ele>
        <time>2017-02-18T08:34:05Z</time>
      </trkpt>
      <trkpt lat="42.587382000" lon="-2.452567000">
        <ele>786.20</ele>
        <time>2017-02-18T08:34:06Z</time>
      </trkpt>
      <trkpt lat="42.587333000" lon="-2.452526000">
        <ele>786.40</ele>
        <time>2017-02-18T08:34:07Z</time>
      </trkpt>
      <trkpt lat="42.587292000" lon="-2.452486000">
        <ele>786.30</ele>
        <time>2017-02-18T08:34:08Z</time>
      </trkpt>
      <trkpt lat="42.587252000" lon="-2.452450000">
        <ele>786.20</ele>
        <time>2017-02-18T08:34:09Z</time>
      </trkpt>
      <trkpt lat="42.587218000" lon="-2.452424000">
        <ele>786.10</ele>
        <time>2017-02-18T08:34:10Z</time>
      </trkpt>
      <trkpt lat="42.587194000" lon="-2.452400000">
        <ele>786.00</ele>
        <time>2017-02-18T08:34:11Z</time>
      </trkpt>
      <trkpt lat="42.587174000" lon="-2.452377000">
        <ele>785.90</ele>
        <time>2017-02-18T08:34:12Z</time>
      </trkpt>
      <trkpt lat="42.587148000" lon="-2.452355000">
        <ele>785.80</ele>
        <time>2017-02-18T08:34:13Z</time>
      </trkpt>
      <trkpt lat="42.587123000" lon="-2.452333000">
        <ele>785.70</ele>
        <time>2017-02-18T08:34:14Z</time>
      </trkpt>
      <trkpt lat="42.587096000" lon="-2.452311000">
        <ele>785.60</ele>
        <time>2017-02-18T08:34:15Z</time>
      </trkpt>
      <trkpt lat="42.587067000" lon="-2.452282000">
        <ele>785.60</ele>
        <time>2017-02-18T08:34:16Z</time>
      </trkpt>
      <trkpt lat="42.587034000" lon="-2.452255000">
        <ele>785.50</ele>
        <time>2017-02-18T08:34:17Z</time>
      </trkpt>
      <trkpt lat="42.586997000" lon="-2.452221000">
        <ele>785.60</ele>
        <time>2017-02-18T08:34:18Z</time>
      </trkpt>
      <trkpt lat="42.586958000" lon="-2.452179000">
        <ele>785.60</ele>
        <time>2017-02-18T08:34:19Z</time>
      </trkpt>
      <trkpt lat="42.586915000" lon="-2.452140000">
        <ele>785.70</ele>
        <time>2017-02-18T08:34:20Z</time>
      </trkpt>
      <trkpt lat="42.586868000" lon="-2.452102000">
        <ele>785.70</ele>
        <time>2017-02-18T08:34:21Z</time>
      </trkpt>
      <trkpt lat="42.586819000" lon="-2.452069000">
        <ele>785.70</ele>
        <time>2017-02-18T08:34:22Z</time>
      </trkpt>
      <trkpt lat="42.586773000" lon="-2.452034000">
        <ele>785.70</ele>
        <time>2017-02-18T08:34:23Z</time>
      </trkpt>
      <trkpt lat="42.586684000" lon="-2.451966000">
        <ele>785.80</ele>
        <time>2017-02-18T08:34:25Z</time>
      </trkpt>
      <trkpt lat="42.586638000" lon="-2.451933000">
        <ele>785.90</ele>
        <time>2017-02-18T08:34:26Z</time>
      </trkpt>
      <trkpt lat="42.586592000" lon="-2.451907000">
        <ele>785.90</ele>
        <time>2017-02-18T08:34:27Z</time>
      </trkpt>
      <trkpt lat="42.586548000" lon="-2.451879000">
        <ele>785.90</ele>
        <time>2017-02-18T08:34:28Z</time>
      </trkpt>
      <trkpt lat="42.586504000" lon="-2.451846000">
        <ele>785.90</ele>
        <time>2017-02-18T08:34:29Z</time>
      </trkpt>
      <trkpt lat="42.586460000" lon="-2.451815000">
        <ele>785.70</ele>
        <time>2017-02-18T08:34:30Z</time>
      </trkpt>
      <trkpt lat="42.586411000" lon="-2.451782000">
        <ele>785.50</ele>
        <time>2017-02-18T08:34:31Z</time>
      </trkpt>
      <trkpt lat="42.586359000" lon="-2.451746000">
        <ele>785.30</ele>
        <time>2017-02-18T08:34:32Z</time>
      </trkpt>
      <trkpt lat="42.586305000" lon="-2.451717000">
        <ele>785.20</ele>
        <time>2017-02-18T08:34:33Z</time>
      </trkpt>
      <trkpt lat="42.586241000" lon="-2.451708000">
        <ele>785.10</ele>
        <time>2017-02-18T08:34:34Z</time>
      </trkpt>
      <trkpt lat="42.586169000" lon="-2.451719000">
        <ele>785.10</ele>
        <time>2017-02-18T08:34:35Z</time>
      </trkpt>
      <trkpt lat="42.586090000" lon="-2.451742000">
        <ele>784.60</ele>
        <time>2017-02-18T08:34:36Z</time>
      </trkpt>
      <trkpt lat="42.586005000" lon="-2.451776000">
        <ele>784.20</ele>
        <time>2017-02-18T08:34:37Z</time>
      </trkpt>
      <trkpt lat="42.585918000" lon="-2.451813000">
        <ele>783.30</ele>
        <time>2017-02-18T08:34:38Z</time>
      </trkpt>
      <trkpt lat="42.585824000" lon="-2.451854000">
        <ele>782.70</ele>
        <time>2017-02-18T08:34:39Z</time>
      </trkpt>
      <trkpt lat="42.585727000" lon="-2.451897000">
        <ele>781.80</ele>
        <time>2017-02-18T08:34:40Z</time>
      </trkpt>
      <trkpt lat="42.585628000" lon="-2.451937000">
        <ele>781.20</ele>
        <time>2017-02-18T08:34:41Z</time>
      </trkpt>
      <trkpt lat="42.585530000" lon="-2.451980000">
        <ele>780.00</ele>
        <time>2017-02-18T08:34:42Z</time>
      </trkpt>
      <trkpt lat="42.585433000" lon="-2.452014000">
        <ele>779.20</ele>
        <time>2017-02-18T08:34:43Z</time>
      </trkpt>
      <trkpt lat="42.585339000" lon="-2.452040000">
        <ele>778.40</ele>
        <time>2017-02-18T08:34:44Z</time>
      </trkpt>
      <trkpt lat="42.585249000" lon="-2.452053000">
        <ele>777.70</ele>
        <time>2017-02-18T08:34:45Z</time>
      </trkpt>
      <trkpt lat="42.585166000" lon="-2.452058000">
        <ele>777.00</ele>
        <time>2017-02-18T08:34:46Z</time>
      </trkpt>
      <trkpt lat="42.585087000" lon="-2.452059000">
        <ele>776.40</ele>
        <time>2017-02-18T08:34:47Z</time>
      </trkpt>
      <trkpt lat="42.585017000" lon="-2.452054000">
        <ele>776.00</ele>
        <time>2017-02-18T08:34:48Z</time>
      </trkpt>
      <trkpt lat="42.584957000" lon="-2.452042000">
        <ele>775.60</ele>
        <time>2017-02-18T08:34:49Z</time>
      </trkpt>
      <trkpt lat="42.584904000" lon="-2.452033000">
        <ele>775.60</ele>
        <time>2017-02-18T08:34:50Z</time>
      </trkpt>
      <trkpt lat="42.584857000" lon="-2.452021000">
        <ele>775.60</ele>
        <time>2017-02-18T08:34:51Z</time>
      </trkpt>
      <trkpt lat="42.584815000" lon="-2.452005000">
        <ele>775.80</ele>
        <time>2017-02-18T08:34:52Z</time>
      </trkpt>
      <trkpt lat="42.584775000" lon="-2.451989000">
        <ele>776.00</ele>
        <time>2017-02-18T08:34:53Z</time>
      </trkpt>
      <trkpt lat="42.584736000" lon="-2.451976000">
        <ele>776.10</ele>
        <time>2017-02-18T08:34:54Z</time>
      </trkpt>
      <trkpt lat="42.584700000" lon="-2.451962000">
        <ele>776.20</ele>
        <time>2017-02-18T08:34:55Z</time>
      </trkpt>
      <trkpt lat="42.584661000" lon="-2.451946000">
        <ele>776.20</ele>
        <time>2017-02-18T08:34:56Z</time>
      </trkpt>
      <trkpt lat="42.584619000" lon="-2.451927000">
        <ele>776.20</ele>
        <time>2017-02-18T08:34:57Z</time>
      </trkpt>
      <trkpt lat="42.584574000" lon="-2.451905000">
        <ele>776.20</ele>
        <time>2017-02-18T08:34:58Z</time>
      </trkpt>
      <trkpt lat="42.584531000" lon="-2.451883000">
        <ele>776.20</ele>
        <time>2017-02-18T08:34:59Z</time>
      </trkpt>
      <trkpt lat="42.584487000" lon="-2.451857000">
        <ele>776.20</ele>
        <time>2017-02-18T08:35:00Z</time>
      </trkpt>
      <trkpt lat="42.584441000" lon="-2.451836000">
        <ele>776.20</ele>
        <time>2017-02-18T08:35:01Z</time>
      </trkpt>
      <trkpt lat="42.584392000" lon="-2.451811000">
        <ele>776.10</ele>
        <time>2017-02-18T08:35:02Z</time>
      </trkpt>
      <trkpt lat="42.584346000" lon="-2.451785000">
        <ele>776.00</ele>
        <time>2017-02-18T08:35:03Z</time>
      </trkpt>
      <trkpt lat="42.584297000" lon="-2.451757000">
        <ele>776.00</ele>
        <time>2017-02-18T08:35:04Z</time>
      </trkpt>
      <trkpt lat="42.584249000" lon="-2.451729000">
        <ele>776.00</ele>
        <time>2017-02-18T08:35:05Z</time>
      </trkpt>
      <trkpt lat="42.584197000" lon="-2.451696000">
        <ele>775.50</ele>
        <time>2017-02-18T08:35:06Z</time>
      </trkpt>
      <trkpt lat="42.584145000" lon="-2.451660000">
        <ele>775.20</ele>
        <time>2017-02-18T08:35:07Z</time>
      </trkpt>
      <trkpt lat="42.584090000" lon="-2.451627000">
        <ele>775.60</ele>
        <time>2017-02-18T08:35:08Z</time>
      </trkpt>
      <trkpt lat="42.584031000" lon="-2.451590000">
        <ele>775.90</ele>
        <time>2017-02-18T08:35:09Z</time>
      </trkpt>
      <trkpt lat="42.583970000" lon="-2.451552000">
        <ele>775.40</ele>
        <time>2017-02-18T08:35:10Z</time>
      </trkpt>
      <trkpt lat="42.583908000" lon="-2.451512000">
        <ele>775.10</ele>
        <time>2017-02-18T08:35:11Z</time>
      </trkpt>
      <trkpt lat="42.583839000" lon="-2.451474000">
        <ele>774.70</ele>
        <time>2017-02-18T08:35:12Z</time>
      </trkpt>
      <trkpt lat="42.583773000" lon="-2.451432000">
        <ele>774.50</ele>
        <time>2017-02-18T08:35:13Z</time>
      </trkpt>
      <trkpt lat="42.583707000" lon="-2.451383000">
        <ele>774.00</ele>
        <time>2017-02-18T08:35:14Z</time>
      </trkpt>
      <trkpt lat="42.583637000" lon="-2.451341000">
        <ele>773.70</ele>
        <time>2017-02-18T08:35:15Z</time>
      </trkpt>
      <trkpt lat="42.583567000" lon="-2.451300000">
        <ele>773.20</ele>
        <time>2017-02-18T08:35:16Z</time>
      </trkpt>
      <trkpt lat="42.583498000" lon="-2.451258000">
        <ele>772.80</ele>
        <time>2017-02-18T08:35:17Z</time>
      </trkpt>
      <trkpt lat="42.583425000" lon="-2.451218000">
        <ele>772.30</ele>
        <time>2017-02-18T08:35:18Z</time>
      </trkpt>
      <trkpt lat="42.583355000" lon="-2.451173000">
        <ele>771.90</ele>
        <time>2017-02-18T08:35:19Z</time>
      </trkpt>
      <trkpt lat="42.583283000" lon="-2.451130000">
        <ele>771.50</ele>
        <time>2017-02-18T08:35:20Z</time>
      </trkpt>
      <trkpt lat="42.583208000" lon="-2.451087000">
        <ele>771.10</ele>
        <time>2017-02-18T08:35:21Z</time>
      </trkpt>
      <trkpt lat="42.583133000" lon="-2.451042000">
        <ele>770.30</ele>
        <time>2017-02-18T08:35:22Z</time>
      </trkpt>
      <trkpt lat="42.583060000" lon="-2.451001000">
        <ele>769.70</ele>
        <time>2017-02-18T08:35:23Z</time>
      </trkpt>
      <trkpt lat="42.582988000" lon="-2.450956000">
        <ele>769.20</ele>
        <time>2017-02-18T08:35:24Z</time>
      </trkpt>
      <trkpt lat="42.582838000" lon="-2.450866000">
        <ele>768.70</ele>
        <time>2017-02-18T08:35:26Z</time>
      </trkpt>
      <trkpt lat="42.582762000" lon="-2.450817000">
        <ele>768.50</ele>
        <time>2017-02-18T08:35:27Z</time>
      </trkpt>
      <trkpt lat="42.582683000" lon="-2.450773000">
        <ele>768.40</ele>
        <time>2017-02-18T08:35:28Z</time>
      </trkpt>
      <trkpt lat="42.582610000" lon="-2.450726000">
        <ele>768.30</ele>
        <time>2017-02-18T08:35:29Z</time>
      </trkpt>
      <trkpt lat="42.582534000" lon="-2.450673000">
        <ele>768.00</ele>
        <time>2017-02-18T08:35:30Z</time>
      </trkpt>
      <trkpt lat="42.582460000" lon="-2.450619000">
        <ele>767.80</ele>
        <time>2017-02-18T08:35:31Z</time>
      </trkpt>
      <trkpt lat="42.582383000" lon="-2.450572000">
        <ele>767.60</ele>
        <time>2017-02-18T08:35:32Z</time>
      </trkpt>
      <trkpt lat="42.582306000" lon="-2.450534000">
        <ele>767.40</ele>
        <time>2017-02-18T08:35:33Z</time>
      </trkpt>
      <trkpt lat="42.582228000" lon="-2.450514000">
        <ele>766.50</ele>
        <time>2017-02-18T08:35:34Z</time>
      </trkpt>
      <trkpt lat="42.582146000" lon="-2.450520000">
        <ele>765.70</ele>
        <time>2017-02-18T08:35:35Z</time>
      </trkpt>
      <trkpt lat="42.582066000" lon="-2.450541000">
        <ele>765.20</ele>
        <time>2017-02-18T08:35:36Z</time>
      </trkpt>
      <trkpt lat="42.581988000" lon="-2.450571000">
        <ele>764.80</ele>
        <time>2017-02-18T08:35:37Z</time>
      </trkpt>
      <trkpt lat="42.581908000" lon="-2.450599000">
        <ele>764.50</ele>
        <time>2017-02-18T08:35:38Z</time>
      </trkpt>
      <trkpt lat="42.581826000" lon="-2.450626000">
        <ele>764.20</ele>
        <time>2017-02-18T08:35:39Z</time>
      </trkpt>
      <trkpt lat="42.581740000" lon="-2.450649000">
        <ele>763.40</ele>
        <time>2017-02-18T08:35:40Z</time>
      </trkpt>
      <trkpt lat="42.581654000" lon="-2.450660000">
        <ele>762.80</ele>
        <time>2017-02-18T08:35:41Z</time>
      </trkpt>
      <trkpt lat="42.581566000" lon="-2.450666000">
        <ele>762.30</ele>
        <time>2017-02-18T08:35:42Z</time>
      </trkpt>
      <trkpt lat="42.581480000" lon="-2.450665000">
        <ele>762.00</ele>
        <time>2017-02-18T08:35:43Z</time>
      </trkpt>
      <trkpt lat="42.581397000" lon="-2.450653000">
        <ele>761.70</ele>
        <time>2017-02-18T08:35:44Z</time>
      </trkpt>
      <trkpt lat="42.581320000" lon="-2.450634000">
        <ele>761.50</ele>
        <time>2017-02-18T08:35:45Z</time>
      </trkpt>
      <trkpt lat="42.581247000" lon="-2.450607000">
        <ele>761.40</ele>
        <time>2017-02-18T08:35:46Z</time>
      </trkpt>
      <trkpt lat="42.581174000" lon="-2.450586000">
        <ele>761.30</ele>
        <time>2017-02-18T08:35:47Z</time>
      </trkpt>
      <trkpt lat="42.581106000" lon="-2.450569000">
        <ele>761.10</ele>
        <time>2017-02-18T08:35:48Z</time>
      </trkpt>
      <trkpt lat="42.581037000" lon="-2.450545000">
        <ele>761.00</ele>
        <time>2017-02-18T08:35:49Z</time>
      </trkpt>
      <trkpt lat="42.580968000" lon="-2.450515000">
        <ele>760.70</ele>
        <time>2017-02-18T08:35:50Z</time>
      </trkpt>
      <trkpt lat="42.580903000" lon="-2.450481000">
        <ele>760.50</ele>
        <time>2017-02-18T08:35:51Z</time>
      </trkpt>
      <trkpt lat="42.580830000" lon="-2.450453000">
        <ele>760.20</ele>
        <time>2017-02-18T08:35:52Z</time>
      </trkpt>
      <trkpt lat="42.580750000" lon="-2.450441000">
        <ele>760.10</ele>
        <time>2017-02-18T08:35:53Z</time>
      </trkpt>
      <trkpt lat="42.580668000" lon="-2.450454000">
        <ele>759.80</ele>
        <time>2017-02-18T08:35:54Z</time>
      </trkpt>
      <trkpt lat="42.580584000" lon="-2.450494000">
        <ele>759.60</ele>
        <time>2017-02-18T08:35:55Z</time>
      </trkpt>
      <trkpt lat="42.580503000" lon="-2.450539000">
        <ele>759.20</ele>
        <time>2017-02-18T08:35:56Z</time>
      </trkpt>
      <trkpt lat="42.580438000" lon="-2.450586000">
        <ele>758.90</ele>
        <time>2017-02-18T08:35:57Z</time>
      </trkpt>
      <trkpt lat="42.580396000" lon="-2.450623000">
        <ele>758.20</ele>
        <time>2017-02-18T08:35:58Z</time>
      </trkpt>
      <trkpt lat="42.580369000" lon="-2.450644000">
        <ele>757.60</ele>
        <time>2017-02-18T08:35:59Z</time>
      </trkpt>
      <trkpt lat="42.580349000" lon="-2.450665000">
        <ele>757.00</ele>
        <time>2017-02-18T08:36:00Z</time>
      </trkpt>
      <trkpt lat="42.580336000" lon="-2.450683000">
        <ele>756.50</ele>
        <time>2017-02-18T08:36:01Z</time>
      </trkpt>
      <trkpt lat="42.580321000" lon="-2.450696000">
        <ele>756.00</ele>
        <time>2017-02-18T08:36:02Z</time>
      </trkpt>
      <trkpt lat="42.580318000" lon="-2.450696000">
        <ele>755.60</ele>
        <time>2017-02-18T08:36:03Z</time>
      </trkpt>
      <trkpt lat="42.580317000" lon="-2.450696000">
        <ele>755.30</ele>
        <time>2017-02-18T08:36:04Z</time>
      </trkpt>
      <trkpt lat="42.580316000" lon="-2.450696000">
        <ele>755.10</ele>
        <time>2017-02-18T08:36:05Z</time>
      </trkpt>
      <trkpt lat="42.580317000" lon="-2.450684000">
        <ele>754.80</ele>
        <time>2017-02-18T08:36:06Z</time>
      </trkpt>
      <trkpt lat="42.580327000" lon="-2.450677000">
        <ele>754.50</ele>
        <time>2017-02-18T08:36:07Z</time>
      </trkpt>
      <trkpt lat="42.580328000" lon="-2.450669000">
        <ele>754.40</ele>
        <time>2017-02-18T08:36:08Z</time>
      </trkpt>
      <trkpt lat="42.580339000" lon="-2.450667000">
        <ele>754.30</ele>
        <time>2017-02-18T08:36:09Z</time>
      </trkpt>
      <trkpt lat="42.580348000" lon="-2.450662000">
        <ele>754.30</ele>
        <time>2017-02-18T08:36:10Z</time>
      </trkpt>
      <trkpt lat="42.580353000" lon="-2.450653000">
        <ele>754.20</ele>
        <time>2017-02-18T08:36:11Z</time>
      </trkpt>
      <trkpt lat="42.580360000" lon="-2.450649000">
        <ele>754.30</ele>
        <time>2017-02-18T08:36:12Z</time>
      </trkpt>
      <trkpt lat="42.580362000" lon="-2.450649000">
        <ele>754.40</ele>
        <time>2017-02-18T08:36:13Z</time>
      </trkpt>
      <trkpt lat="42.580369000" lon="-2.450639000">
        <ele>754.50</ele>
        <time>2017-02-18T08:36:14Z</time>
      </trkpt>
      <trkpt lat="42.580382000" lon="-2.450628000">
        <ele>754.50</ele>
        <time>2017-02-18T08:36:15Z</time>
      </trkpt>
      <trkpt lat="42.580393000" lon="-2.450621000">
        <ele>754.60</ele>
        <time>2017-02-18T08:36:16Z</time>
      </trkpt>
      <trkpt lat="42.580407000" lon="-2.450609000">
        <ele>754.60</ele>
        <time>2017-02-18T08:36:17Z</time>
      </trkpt>
      <trkpt lat="42.580417000" lon="-2.450596000">
        <ele>754.70</ele>
        <time>2017-02-18T08:36:18Z</time>
      </trkpt>
      <trkpt lat="42.580428000" lon="-2.450590000">
        <ele>754.70</ele>
        <time>2017-02-18T08:36:19Z</time>
      </trkpt>
      <trkpt lat="42.580439000" lon="-2.450584000">
        <ele>754.90</ele>
        <time>2017-02-18T08:36:20Z</time>
      </trkpt>
      <trkpt lat="42.580449000" lon="-2.450582000">
        <ele>755.00</ele>
        <time>2017-02-18T08:36:21Z</time>
      </trkpt>
      <trkpt lat="42.580460000" lon="-2.450580000">
        <ele>755.10</ele>
        <time>2017-02-18T08:36:22Z</time>
      </trkpt>
      <trkpt lat="42.580472000" lon="-2.450576000">
        <ele>755.20</ele>
        <time>2017-02-18T08:36:23Z</time>
      </trkpt>
      <trkpt lat="42.580487000" lon="-2.450562000">
        <ele>755.20</ele>
        <time>2017-02-18T08:36:24Z</time>
      </trkpt>
      <trkpt lat="42.580501000" lon="-2.450542000">
        <ele>755.20</ele>
        <time>2017-02-18T08:36:25Z</time>
      </trkpt>
      <trkpt lat="42.580529000" lon="-2.450512000">
        <ele>755.20</ele>
        <time>2017-02-18T08:36:27Z</time>
      </trkpt>
      <trkpt lat="42.580546000" lon="-2.450501000">
        <ele>755.40</ele>
        <time>2017-02-18T08:36:28Z</time>
      </trkpt>
      <trkpt lat="42.580561000" lon="-2.450488000">
        <ele>755.50</ele>
        <time>2017-02-18T08:36:29Z</time>
      </trkpt>
      <trkpt lat="42.580575000" lon="-2.450473000">
        <ele>755.70</ele>
        <time>2017-02-18T08:36:30Z</time>
      </trkpt>
      <trkpt lat="42.580585000" lon="-2.450468000">
        <ele>755.90</ele>
        <time>2017-02-18T08:36:31Z</time>
      </trkpt>
      <trkpt lat="42.580589000" lon="-2.450459000">
        <ele>756.10</ele>
        <time>2017-02-18T08:36:32Z</time>
      </trkpt>
      <trkpt lat="42.580588000" lon="-2.450459000">
        <ele>756.20</ele>
        <time>2017-02-18T08:36:33Z</time>
      </trkpt>
      <trkpt lat="42.580587000" lon="-2.450457000">
        <ele>756.30</ele>
        <time>2017-02-18T08:36:34Z</time>
      </trkpt>
      <trkpt lat="42.580593000" lon="-2.450454000">
        <ele>756.40</ele>
        <time>2017-02-18T08:36:35Z</time>
      </trkpt>
      <trkpt lat="42.580595000" lon="-2.450457000">
        <ele>756.50</ele>
        <time>2017-02-18T08:36:36Z</time>
      </trkpt>
      <trkpt lat="42.580596000" lon="-2.450456000">
        <ele>756.50</ele>
        <time>2017-02-18T08:36:37Z</time>
      </trkpt>
      <trkpt lat="42.580610000" lon="-2.450449000">
        <ele>756.50</ele>
        <time>2017-02-18T08:36:38Z</time>
      </trkpt>
      <trkpt lat="42.580619000" lon="-2.450447000">
        <ele>756.50</ele>
        <time>2017-02-18T08:36:39Z</time>
      </trkpt>
      <trkpt lat="42.580616000" lon="-2.450445000">
        <ele>756.70</ele>
        <time>2017-02-18T08:36:40Z</time>
      </trkpt>
      <trkpt lat="42.580614000" lon="-2.450447000">
        <ele>756.80</ele>
        <time>2017-02-18T08:36:41Z</time>
      </trkpt>
      <trkpt lat="42.580616000" lon="-2.450442000">
        <ele>756.90</ele>
        <time>2017-02-18T08:36:42Z</time>
      </trkpt>
      <trkpt lat="42.580618000" lon="-2.450441000">
        <ele>757.00</ele>
        <time>2017-02-18T08:36:43Z</time>
      </trkpt>
      <trkpt lat="42.580619000" lon="-2.450441000">
        <ele>757.10</ele>
        <time>2017-02-18T08:36:44Z</time>
      </trkpt>
      <trkpt lat="42.580619000" lon="-2.450442000">
        <ele>757.10</ele>
        <time>2017-02-18T08:36:45Z</time>
      </trkpt>
      <trkpt lat="42.580619000" lon="-2.450444000">
        <ele>757.10</ele>
        <time>2017-02-18T08:36:46Z</time>
      </trkpt>
      <trkpt lat="42.580618000" lon="-2.450446000">
        <ele>757.20</ele>
        <time>2017-02-18T08:36:47Z</time>
      </trkpt>
      <trkpt lat="42.580615000" lon="-2.450448000">
        <ele>757.10</ele>
        <time>2017-02-18T08:36:48Z</time>
      </trkpt>
      <trkpt lat="42.580614000" lon="-2.450451000">
        <ele>757.10</ele>
        <time>2017-02-18T08:36:49Z</time>
      </trkpt>
      <trkpt lat="42.580614000" lon="-2.450454000">
        <ele>757.20</ele>
        <time>2017-02-18T08:36:50Z</time>
      </trkpt>
      <trkpt lat="42.580614000" lon="-2.450454000">
        <ele>757.20</ele>
        <time>2017-02-18T08:36:51Z</time>
      </trkpt>
      <trkpt lat="42.580613000" lon="-2.450455000">
        <ele>757.30</ele>
        <time>2017-02-18T08:36:52Z</time>
      </trkpt>
      <trkpt lat="42.580614000" lon="-2.450453000">
        <ele>757.30</ele>
        <time>2017-02-18T08:36:53Z</time>
      </trkpt>
      <trkpt lat="42.580614000" lon="-2.450453000">
        <ele>757.30</ele>
        <time>2017-02-18T08:36:54Z</time>
      </trkpt>
      <trkpt lat="42.580614000" lon="-2.450453000">
        <ele>757.30</ele>
        <time>2017-02-18T08:36:55Z</time>
      </trkpt>
      <trkpt lat="42.580615000" lon="-2.450453000">
        <ele>757.40</ele>
        <time>2017-02-18T08:36:56Z</time>
      </trkpt>
      <trkpt lat="42.580614000" lon="-2.450455000">
        <ele>757.40</ele>
        <time>2017-02-18T08:36:57Z</time>
      </trkpt>
      <trkpt lat="42.580615000" lon="-2.450456000">
        <ele>757.30</ele>
        <time>2017-02-18T08:36:58Z</time>
      </trkpt>
      <trkpt lat="42.580616000" lon="-2.450457000">
        <ele>757.20</ele>
        <time>2017-02-18T08:36:59Z</time>
      </trkpt>
      <trkpt lat="42.580617000" lon="-2.450459000">
        <ele>757.20</ele>
        <time>2017-02-18T08:37:00Z</time>
      </trkpt>
      <trkpt lat="42.580616000" lon="-2.450458000">
        <ele>757.20</ele>
        <time>2017-02-18T08:37:01Z</time>
      </trkpt>
      <trkpt lat="42.580617000" lon="-2.450458000">
        <ele>757.10</ele>
        <time>2017-02-18T08:37:02Z</time>
      </trkpt>
      <trkpt lat="42.580617000" lon="-2.450458000">
        <ele>757.00</ele>
        <time>2017-02-18T08:37:03Z</time>
      </trkpt>
      <trkpt lat="42.580619000" lon="-2.450456000">
        <ele>757.00</ele>
        <time>2017-02-18T08:37:04Z</time>
      </trkpt>
      <trkpt lat="42.580619000" lon="-2.450455000">
        <ele>757.00</ele>
        <time>2017-02-18T08:37:05Z</time>
      </trkpt>
      <trkpt lat="42.580619000" lon="-2.450454000">
        <ele>756.90</ele>
        <time>2017-02-18T08:37:06Z</time>
      </trkpt>
      <trkpt lat="42.580619000" lon="-2.450454000">
        <ele>756.90</ele>
        <time>2017-02-18T08:37:07Z</time>
      </trkpt>
      <trkpt lat="42.580618000" lon="-2.450455000">
        <ele>756.90</ele>
        <time>2017-02-18T08:37:08Z</time>
      </trkpt>
      <trkpt lat="42.580617000" lon="-2.450456000">
        <ele>756.90</ele>
        <time>2017-02-18T08:37:09Z</time>
      </trkpt>
      <trkpt lat="42.580616000" lon="-2.450457000">
        <ele>756.90</ele>
        <time>2017-02-18T08:37:10Z</time>
      </trkpt>
      <trkpt lat="42.580615000" lon="-2.450458000">
        <ele>756.90</ele>
        <time>2017-02-18T08:37:11Z</time>
      </trkpt>
      <trkpt lat="42.580615000" lon="-2.450458000">
        <ele>756.90</ele>
        <time>2017-02-18T08:37:12Z</time>
      </trkpt>
      <trkpt lat="42.580615000" lon="-2.450457000">
        <ele>757.00</ele>
        <time>2017-02-18T08:37:13Z</time>
      </trkpt>
      <trkpt lat="42.580614000" lon="-2.450457000">
        <ele>757.00</ele>
        <time>2017-02-18T08:37:14Z</time>
      </trkpt>
      <trkpt lat="42.580614000" lon="-2.450456000">
        <ele>757.00</ele>
        <time>2017-02-18T08:37:15Z</time>
      </trkpt>
      <trkpt lat="42.580619000" lon="-2.450449000">
        <ele>757.00</ele>
        <time>2017-02-18T08:37:16Z</time>
      </trkpt>
      <trkpt lat="42.580627000" lon="-2.450442000">
        <ele>757.00</ele>
        <time>2017-02-18T08:37:17Z</time>
      </trkpt>
      <trkpt lat="42.580637000" lon="-2.450434000">
        <ele>757.00</ele>
        <time>2017-02-18T08:37:18Z</time>
      </trkpt>
      <trkpt lat="42.580648000" lon="-2.450426000">
        <ele>757.00</ele>
        <time>2017-02-18T08:37:19Z</time>
      </trkpt>
      <trkpt lat="42.580658000" lon="-2.450425000">
        <ele>757.10</ele>
        <time>2017-02-18T08:37:20Z</time>
      </trkpt>
      <trkpt lat="42.580666000" lon="-2.450434000">
        <ele>757.20</ele>
        <time>2017-02-18T08:37:21Z</time>
      </trkpt>
      <trkpt lat="42.580674000" lon="-2.450440000">
        <ele>757.30</ele>
        <time>2017-02-18T08:37:22Z</time>
      </trkpt>
      <trkpt lat="42.580681000" lon="-2.450446000">
        <ele>757.50</ele>
        <time>2017-02-18T08:37:23Z</time>
      </trkpt>
      <trkpt lat="42.580692000" lon="-2.450448000">
        <ele>757.70</ele>
        <time>2017-02-18T08:37:24Z</time>
      </trkpt>
      <trkpt lat="42.580692000" lon="-2.450444000">
        <ele>757.90</ele>
        <time>2017-02-18T08:37:25Z</time>
      </trkpt>
      <trkpt lat="42.580693000" lon="-2.450442000">
        <ele>758.00</ele>
        <time>2017-02-18T08:37:26Z</time>
      </trkpt>
      <trkpt lat="42.580692000" lon="-2.450441000">
        <ele>758.20</ele>
        <time>2017-02-18T08:37:28Z</time>
      </trkpt>
      <trkpt lat="42.580693000" lon="-2.450442000">
        <ele>758.20</ele>
        <time>2017-02-18T08:37:29Z</time>
      </trkpt>
      <trkpt lat="42.580693000" lon="-2.450442000">
        <ele>758.10</ele>
        <time>2017-02-18T08:37:30Z</time>
      </trkpt>
      <trkpt lat="42.580693000" lon="-2.450442000">
        <ele>758.10</ele>
        <time>2017-02-18T08:37:31Z</time>
      </trkpt>
      <trkpt lat="42.580694000" lon="-2.450442000">
        <ele>757.90</ele>
        <time>2017-02-18T08:37:32Z</time>
      </trkpt>
      <trkpt lat="42.580694000" lon="-2.450443000">
        <ele>757.70</ele>
        <time>2017-02-18T08:37:33Z</time>
      </trkpt>
      <trkpt lat="42.580694000" lon="-2.450445000">
        <ele>757.60</ele>
        <time>2017-02-18T08:37:34Z</time>
      </trkpt>
      <trkpt lat="42.580694000" lon="-2.450446000">
        <ele>757.60</ele>
        <time>2017-02-18T08:37:35Z</time>
      </trkpt>
      <trkpt lat="42.580694000" lon="-2.450447000">
        <ele>757.50</ele>
        <time>2017-02-18T08:37:36Z</time>
      </trkpt>
      <trkpt lat="42.580695000" lon="-2.450448000">
        <ele>757.40</ele>
        <time>2017-02-18T08:37:37Z</time>
      </trkpt>
      <trkpt lat="42.580700000" lon="-2.450447000">
        <ele>757.40</ele>
        <time>2017-02-18T08:37:38Z</time>
      </trkpt>
      <trkpt lat="42.580706000" lon="-2.450449000">
        <ele>757.40</ele>
        <time>2017-02-18T08:37:39Z</time>
      </trkpt>
      <trkpt lat="42.580712000" lon="-2.450448000">
        <ele>757.50</ele>
        <time>2017-02-18T08:37:40Z</time>
      </trkpt>
      <trkpt lat="42.580725000" lon="-2.450455000">
        <ele>757.60</ele>
        <time>2017-02-18T08:37:41Z</time>
      </trkpt>
      <trkpt lat="42.580734000" lon="-2.450456000">
        <ele>757.70</ele>
        <time>2017-02-18T08:37:42Z</time>
      </trkpt>
      <trkpt lat="42.580744000" lon="-2.450462000">
        <ele>757.70</ele>
        <time>2017-02-18T08:37:43Z</time>
      </trkpt>
      <trkpt lat="42.580758000" lon="-2.450467000">
        <ele>757.90</ele>
        <time>2017-02-18T08:37:44Z</time>
      </trkpt>
      <trkpt lat="42.580771000" lon="-2.450470000">
        <ele>758.00</ele>
        <time>2017-02-18T08:37:45Z</time>
      </trkpt>
      <trkpt lat="42.580790000" lon="-2.450472000">
        <ele>758.10</ele>
        <time>2017-02-18T08:37:46Z</time>
      </trkpt>
      <trkpt lat="42.580815000" lon="-2.450475000">
        <ele>758.10</ele>
        <time>2017-02-18T08:37:47Z</time>
      </trkpt>
      <trkpt lat="42.580842000" lon="-2.450485000">
        <ele>758.30</ele>
        <time>2017-02-18T08:37:48Z</time>
      </trkpt>
      <trkpt lat="42.580866000" lon="-2.450492000">
        <ele>758.50</ele>
        <time>2017-02-18T08:37:49Z</time>
      </trkpt>
      <trkpt lat="42.580888000" lon="-2.450498000">
        <ele>758.70</ele>
        <time>2017-02-18T08:37:50Z</time>
      </trkpt>
      <trkpt lat="42.580909000" lon="-2.450510000">
        <ele>758.90</ele>
        <time>2017-02-18T08:37:51Z</time>
      </trkpt>
      <trkpt lat="42.580934000" lon="-2.450523000">
        <ele>759.20</ele>
        <time>2017-02-18T08:37:52Z</time>
      </trkpt>
      <trkpt lat="42.580955000" lon="-2.450531000">
        <ele>759.50</ele>
        <time>2017-02-18T08:37:53Z</time>
      </trkpt>
      <trkpt lat="42.580974000" lon="-2.450538000">
        <ele>759.70</ele>
        <time>2017-02-18T08:37:54Z</time>
      </trkpt>
      <trkpt lat="42.580996000" lon="-2.450545000">
        <ele>759.80</ele>
        <time>2017-02-18T08:37:55Z</time>
      </trkpt>
      <trkpt lat="42.581018000" lon="-2.450554000">
        <ele>759.90</ele>
        <time>2017-02-18T08:37:56Z</time>
      </trkpt>
      <trkpt lat="42.581038000" lon="-2.450562000">
        <ele>760.00</ele>
        <time>2017-02-18T08:37:57Z</time>
      </trkpt>
      <trkpt lat="42.581058000" lon="-2.450570000">
        <ele>760.10</ele>
        <time>2017-02-18T08:37:58Z</time>
      </trkpt>
      <trkpt lat="42.581079000" lon="-2.450578000">
        <ele>760.20</ele>
        <time>2017-02-18T08:37:59Z</time>
      </trkpt>
      <trkpt lat="42.581099000" lon="-2.450585000">
        <ele>760.30</ele>
        <time>2017-02-18T08:38:00Z</time>
      </trkpt>
      <trkpt lat="42.581114000" lon="-2.450591000">
        <ele>760.40</ele>
        <time>2017-02-18T08:38:01Z</time>
      </trkpt>
      <trkpt lat="42.581132000" lon="-2.450593000">
        <ele>760.40</ele>
        <time>2017-02-18T08:38:02Z</time>
      </trkpt>
      <trkpt lat="42.581151000" lon="-2.450601000">
        <ele>760.40</ele>
        <time>2017-02-18T08:38:03Z</time>
      </trkpt>
      <trkpt lat="42.581172000" lon="-2.450603000">
        <ele>760.40</ele>
        <time>2017-02-18T08:38:04Z</time>
      </trkpt>
      <trkpt lat="42.581195000" lon="-2.450605000">
        <ele>760.50</ele>
        <time>2017-02-18T08:38:05Z</time>
      </trkpt>
      <trkpt lat="42.581219000" lon="-2.450613000">
        <ele>760.50</ele>
        <time>2017-02-18T08:38:06Z</time>
      </trkpt>
      <trkpt lat="42.581242000" lon="-2.450619000">
        <ele>760.50</ele>
        <time>2017-02-18T08:38:07Z</time>
      </trkpt>
      <trkpt lat="42.581267000" lon="-2.450626000">
        <ele>760.40</ele>
        <time>2017-02-18T08:38:08Z</time>
      </trkpt>
      <trkpt lat="42.581291000" lon="-2.450638000">
        <ele>760.40</ele>
        <time>2017-02-18T08:38:09Z</time>
      </trkpt>
      <trkpt lat="42.581317000" lon="-2.450644000">
        <ele>760.30</ele>
        <time>2017-02-18T08:38:10Z</time>
      </trkpt>
      <trkpt lat="42.581344000" lon="-2.450651000">
        <ele>760.30</ele>
        <time>2017-02-18T08:38:11Z</time>
      </trkpt>
      <trkpt lat="42.581368000" lon="-2.450656000">
        <ele>760.40</ele>
        <time>2017-02-18T08:38:12Z</time>
      </trkpt>
      <trkpt lat="42.581393000" lon="-2.450657000">
        <ele>760.50</ele>
        <time>2017-02-18T08:38:13Z</time>
      </trkpt>
      <trkpt lat="42.581423000" lon="-2.450658000">
        <ele>760.60</ele>
        <time>2017-02-18T08:38:14Z</time>
      </trkpt>
      <trkpt lat="42.581455000" lon="-2.450662000">
        <ele>760.60</ele>
        <time>2017-02-18T08:38:15Z</time>
      </trkpt>
      <trkpt lat="42.581487000" lon="-2.450665000">
        <ele>760.70</ele>
        <time>2017-02-18T08:38:16Z</time>
      </trkpt>
      <trkpt lat="42.581517000" lon="-2.450669000">
        <ele>760.70</ele>
        <time>2017-02-18T08:38:17Z</time>
      </trkpt>
      <trkpt lat="42.581550000" lon="-2.450670000">
        <ele>760.60</ele>
        <time>2017-02-18T08:38:18Z</time>
      </trkpt>
      <trkpt lat="42.581585000" lon="-2.450668000">
        <ele>760.50</ele>
        <time>2017-02-18T08:38:19Z</time>
      </trkpt>
      <trkpt lat="42.581620000" lon="-2.450662000">
        <ele>760.40</ele>
        <time>2017-02-18T08:38:20Z</time>
      </trkpt>
      <trkpt lat="42.581658000" lon="-2.450659000">
        <ele>760.40</ele>
        <time>2017-02-18T08:38:21Z</time>
      </trkpt>
      <trkpt lat="42.581696000" lon="-2.450656000">
        <ele>760.40</ele>
        <time>2017-02-18T08:38:22Z</time>
      </trkpt>
      <trkpt lat="42.581735000" lon="-2.450654000">
        <ele>760.40</ele>
        <time>2017-02-18T08:38:23Z</time>
      </trkpt>
      <trkpt lat="42.581770000" lon="-2.450649000">
        <ele>760.70</ele>
        <time>2017-02-18T08:38:24Z</time>
      </trkpt>
      <trkpt lat="42.581805000" lon="-2.450640000">
        <ele>760.90</ele>
        <time>2017-02-18T08:38:25Z</time>
      </trkpt>
      <trkpt lat="42.581840000" lon="-2.450629000">
        <ele>761.10</ele>
        <time>2017-02-18T08:38:26Z</time>
      </trkpt>
      <trkpt lat="42.581874000" lon="-2.450617000">
        <ele>761.20</ele>
        <time>2017-02-18T08:38:27Z</time>
      </trkpt>
      <trkpt lat="42.581942000" lon="-2.450594000">
        <ele>761.90</ele>
        <time>2017-02-18T08:38:29Z</time>
      </trkpt>
      <trkpt lat="42.581976000" lon="-2.450582000">
        <ele>762.20</ele>
        <time>2017-02-18T08:38:30Z</time>
      </trkpt>
      <trkpt lat="42.582013000" lon="-2.450571000">
        <ele>762.40</ele>
        <time>2017-02-18T08:38:31Z</time>
      </trkpt>
      <trkpt lat="42.582048000" lon="-2.450557000">
        <ele>762.60</ele>
        <time>2017-02-18T08:38:32Z</time>
      </trkpt>
      <trkpt lat="42.582081000" lon="-2.450547000">
        <ele>762.80</ele>
        <time>2017-02-18T08:38:33Z</time>
      </trkpt>
      <trkpt lat="42.582111000" lon="-2.450535000">
        <ele>762.90</ele>
        <time>2017-02-18T08:38:34Z</time>
      </trkpt>
      <trkpt lat="42.582144000" lon="-2.450528000">
        <ele>763.00</ele>
        <time>2017-02-18T08:38:35Z</time>
      </trkpt>
      <trkpt lat="42.582177000" lon="-2.450525000">
        <ele>763.10</ele>
        <time>2017-02-18T08:38:36Z</time>
      </trkpt>
      <trkpt lat="42.582207000" lon="-2.450532000">
        <ele>763.20</ele>
        <time>2017-02-18T08:38:37Z</time>
      </trkpt>
      <trkpt lat="42.582237000" lon="-2.450541000">
        <ele>763.40</ele>
        <time>2017-02-18T08:38:38Z</time>
      </trkpt>
      <trkpt lat="42.582270000" lon="-2.450545000">
        <ele>763.60</ele>
        <time>2017-02-18T08:38:39Z</time>
      </trkpt>
      <trkpt lat="42.582300000" lon="-2.450549000">
        <ele>763.80</ele>
        <time>2017-02-18T08:38:40Z</time>
      </trkpt>
      <trkpt lat="42.582332000" lon="-2.450557000">
        <ele>764.00</ele>
        <time>2017-02-18T08:38:41Z</time>
      </trkpt>
      <trkpt lat="42.582364000" lon="-2.450567000">
        <ele>764.20</ele>
        <time>2017-02-18T08:38:42Z</time>
      </trkpt>
      <trkpt lat="42.582391000" lon="-2.450585000">
        <ele>764.40</ele>
        <time>2017-02-18T08:38:43Z</time>
      </trkpt>
      <trkpt lat="42.582414000" lon="-2.450607000">
        <ele>764.50</ele>
        <time>2017-02-18T08:38:44Z</time>
      </trkpt>
      <trkpt lat="42.582439000" lon="-2.450629000">
        <ele>764.60</ele>
        <time>2017-02-18T08:38:45Z</time>
      </trkpt>
      <trkpt lat="42.582463000" lon="-2.450651000">
        <ele>764.90</ele>
        <time>2017-02-18T08:38:46Z</time>
      </trkpt>
      <trkpt lat="42.582488000" lon="-2.450674000">
        <ele>765.10</ele>
        <time>2017-02-18T08:38:47Z</time>
      </trkpt>
      <trkpt lat="42.582512000" lon="-2.450689000">
        <ele>765.20</ele>
        <time>2017-02-18T08:38:48Z</time>
      </trkpt>
      <trkpt lat="42.582537000" lon="-2.450705000">
        <ele>765.30</ele>
        <time>2017-02-18T08:38:49Z</time>
      </trkpt>
      <trkpt lat="42.582562000" lon="-2.450721000">
        <ele>765.50</ele>
        <time>2017-02-18T08:38:50Z</time>
      </trkpt>
      <trkpt lat="42.582586000" lon="-2.450738000">
        <ele>765.60</ele>
        <time>2017-02-18T08:38:51Z</time>
      </trkpt>
      <trkpt lat="42.582611000" lon="-2.450755000">
        <ele>765.70</ele>
        <time>2017-02-18T08:38:52Z</time>
      </trkpt>
      <trkpt lat="42.582638000" lon="-2.450771000">
        <ele>765.90</ele>
        <time>2017-02-18T08:38:53Z</time>
      </trkpt>
      <trkpt lat="42.582664000" lon="-2.450787000">
        <ele>765.90</ele>
        <time>2017-02-18T08:38:54Z</time>
      </trkpt>
      <trkpt lat="42.582692000" lon="-2.450798000">
        <ele>766.00</ele>
        <time>2017-02-18T08:38:55Z</time>
      </trkpt>
      <trkpt lat="42.582720000" lon="-2.450817000">
        <ele>766.20</ele>
        <time>2017-02-18T08:38:56Z</time>
      </trkpt>
      <trkpt lat="42.582745000" lon="-2.450832000">
        <ele>766.30</ele>
        <time>2017-02-18T08:38:57Z</time>
      </trkpt>
      <trkpt lat="42.582769000" lon="-2.450844000">
        <ele>766.40</ele>
        <time>2017-02-18T08:38:58Z</time>
      </trkpt>
      <trkpt lat="42.582795000" lon="-2.450857000">
        <ele>766.50</ele>
        <time>2017-02-18T08:38:59Z</time>
      </trkpt>
      <trkpt lat="42.582821000" lon="-2.450873000">
        <ele>766.60</ele>
        <time>2017-02-18T08:39:00Z</time>
      </trkpt>
      <trkpt lat="42.582847000" lon="-2.450892000">
        <ele>766.60</ele>
        <time>2017-02-18T08:39:01Z</time>
      </trkpt>
      <trkpt lat="42.582878000" lon="-2.450910000">
        <ele>766.80</ele>
        <time>2017-02-18T08:39:02Z</time>
      </trkpt>
      <trkpt lat="42.582906000" lon="-2.450928000">
        <ele>766.90</ele>
        <time>2017-02-18T08:39:03Z</time>
      </trkpt>
      <trkpt lat="42.582936000" lon="-2.450950000">
        <ele>767.00</ele>
        <time>2017-02-18T08:39:04Z</time>
      </trkpt>
      <trkpt lat="42.582961000" lon="-2.450966000">
        <ele>767.10</ele>
        <time>2017-02-18T08:39:05Z</time>
      </trkpt>
      <trkpt lat="42.582989000" lon="-2.450983000">
        <ele>767.20</ele>
        <time>2017-02-18T08:39:06Z</time>
      </trkpt>
      <trkpt lat="42.583015000" lon="-2.450998000">
        <ele>767.30</ele>
        <time>2017-02-18T08:39:07Z</time>
      </trkpt>
      <trkpt lat="42.583044000" lon="-2.451014000">
        <ele>767.50</ele>
        <time>2017-02-18T08:39:08Z</time>
      </trkpt>
      <trkpt lat="42.583072000" lon="-2.451031000">
        <ele>767.70</ele>
        <time>2017-02-18T08:39:09Z</time>
      </trkpt>
      <trkpt lat="42.583099000" lon="-2.451047000">
        <ele>767.90</ele>
        <time>2017-02-18T08:39:10Z</time>
      </trkpt>
      <trkpt lat="42.583129000" lon="-2.451062000">
        <ele>768.10</ele>
        <time>2017-02-18T08:39:11Z</time>
      </trkpt>
      <trkpt lat="42.583158000" lon="-2.451080000">
        <ele>768.20</ele>
        <time>2017-02-18T08:39:12Z</time>
      </trkpt>
      <trkpt lat="42.583187000" lon="-2.451100000">
        <ele>768.30</ele>
        <time>2017-02-18T08:39:13Z</time>
      </trkpt>
      <trkpt lat="42.583214000" lon="-2.451115000">
        <ele>768.40</ele>
        <time>2017-02-18T08:39:14Z</time>
      </trkpt>
      <trkpt lat="42.583241000" lon="-2.451131000">
        <ele>768.50</ele>
        <time>2017-02-18T08:39:15Z</time>
      </trkpt>
      <trkpt lat="42.583270000" lon="-2.451140000">
        <ele>768.70</ele>
        <time>2017-02-18T08:39:16Z</time>
      </trkpt>
      <trkpt lat="42.583294000" lon="-2.451154000">
        <ele>768.80</ele>
        <time>2017-02-18T08:39:17Z</time>
      </trkpt>
      <trkpt lat="42.583320000" lon="-2.451171000">
        <ele>769.20</ele>
        <time>2017-02-18T08:39:18Z</time>
      </trkpt>
      <trkpt lat="42.583349000" lon="-2.451187000">
        <ele>769.40</ele>
        <time>2017-02-18T08:39:19Z</time>
      </trkpt>
      <trkpt lat="42.583378000" lon="-2.451199000">
        <ele>769.60</ele>
        <time>2017-02-18T08:39:20Z</time>
      </trkpt>
      <trkpt lat="42.583403000" lon="-2.451215000">
        <ele>769.70</ele>
        <time>2017-02-18T08:39:21Z</time>
      </trkpt>
      <trkpt lat="42.583431000" lon="-2.451230000">
        <ele>769.70</ele>
        <time>2017-02-18T08:39:22Z</time>
      </trkpt>
      <trkpt lat="42.583456000" lon="-2.451247000">
        <ele>769.80</ele>
        <time>2017-02-18T08:39:23Z</time>
      </trkpt>
      <trkpt lat="42.583481000" lon="-2.451263000">
        <ele>769.80</ele>
        <time>2017-02-18T08:39:24Z</time>
      </trkpt>
      <trkpt lat="42.583508000" lon="-2.451278000">
        <ele>769.80</ele>
        <time>2017-02-18T08:39:25Z</time>
      </trkpt>
      <trkpt lat="42.583536000" lon="-2.451294000">
        <ele>769.90</ele>
        <time>2017-02-18T08:39:26Z</time>
      </trkpt>
      <trkpt lat="42.583559000" lon="-2.451306000">
        <ele>770.00</ele>
        <time>2017-02-18T08:39:27Z</time>
      </trkpt>
      <trkpt lat="42.583583000" lon="-2.451322000">
        <ele>770.10</ele>
        <time>2017-02-18T08:39:28Z</time>
      </trkpt>
      <trkpt lat="42.583635000" lon="-2.451354000">
        <ele>770.30</ele>
        <time>2017-02-18T08:39:30Z</time>
      </trkpt>
      <trkpt lat="42.583663000" lon="-2.451369000">
        <ele>770.50</ele>
        <time>2017-02-18T08:39:31Z</time>
      </trkpt>
      <trkpt lat="42.583689000" lon="-2.451385000">
        <ele>770.70</ele>
        <time>2017-02-18T08:39:32Z</time>
      </trkpt>
      <trkpt lat="42.583717000" lon="-2.451405000">
        <ele>770.90</ele>
        <time>2017-02-18T08:39:33Z</time>
      </trkpt>
      <trkpt lat="42.583741000" lon="-2.451424000">
        <ele>771.00</ele>
        <time>2017-02-18T08:39:34Z</time>
      </trkpt>
      <trkpt lat="42.583769000" lon="-2.451445000">
        <ele>771.10</ele>
        <time>2017-02-18T08:39:35Z</time>
      </trkpt>
      <trkpt lat="42.583793000" lon="-2.451462000">
        <ele>771.30</ele>
        <time>2017-02-18T08:39:36Z</time>
      </trkpt>
      <trkpt lat="42.583816000" lon="-2.451476000">
        <ele>771.40</ele>
        <time>2017-02-18T08:39:37Z</time>
      </trkpt>
      <trkpt lat="42.583840000" lon="-2.451492000">
        <ele>771.50</ele>
        <time>2017-02-18T08:39:38Z</time>
      </trkpt>
      <trkpt lat="42.583865000" lon="-2.451508000">
        <ele>771.60</ele>
        <time>2017-02-18T08:39:39Z</time>
      </trkpt>
      <trkpt lat="42.583890000" lon="-2.451526000">
        <ele>771.80</ele>
        <time>2017-02-18T08:39:40Z</time>
      </trkpt>
      <trkpt lat="42.583916000" lon="-2.451546000">
        <ele>771.90</ele>
        <time>2017-02-18T08:39:41Z</time>
      </trkpt>
      <trkpt lat="42.583947000" lon="-2.451563000">
        <ele>772.10</ele>
        <time>2017-02-18T08:39:42Z</time>
      </trkpt>
      <trkpt lat="42.583972000" lon="-2.451578000">
        <ele>772.20</ele>
        <time>2017-02-18T08:39:43Z</time>
      </trkpt>
      <trkpt lat="42.583999000" lon="-2.451594000">
        <ele>772.30</ele>
        <time>2017-02-18T08:39:44Z</time>
      </trkpt>
      <trkpt lat="42.584023000" lon="-2.451608000">
        <ele>772.40</ele>
        <time>2017-02-18T08:39:45Z</time>
      </trkpt>
      <trkpt lat="42.584048000" lon="-2.451622000">
        <ele>772.70</ele>
        <time>2017-02-18T08:39:46Z</time>
      </trkpt>
      <trkpt lat="42.584072000" lon="-2.451639000">
        <ele>773.00</ele>
        <time>2017-02-18T08:39:47Z</time>
      </trkpt>
      <trkpt lat="42.584099000" lon="-2.451654000">
        <ele>773.30</ele>
        <time>2017-02-18T08:39:48Z</time>
      </trkpt>
      <trkpt lat="42.584121000" lon="-2.451670000">
        <ele>773.50</ele>
        <time>2017-02-18T08:39:49Z</time>
      </trkpt>
      <trkpt lat="42.584145000" lon="-2.451681000">
        <ele>773.70</ele>
        <time>2017-02-18T08:39:50Z</time>
      </trkpt>
      <trkpt lat="42.584170000" lon="-2.451699000">
        <ele>773.90</ele>
        <time>2017-02-18T08:39:51Z</time>
      </trkpt>
      <trkpt lat="42.584193000" lon="-2.451712000">
        <ele>774.10</ele>
        <time>2017-02-18T08:39:52Z</time>
      </trkpt>
      <trkpt lat="42.584215000" lon="-2.451730000">
        <ele>774.20</ele>
        <time>2017-02-18T08:39:53Z</time>
      </trkpt>
      <trkpt lat="42.584238000" lon="-2.451742000">
        <ele>774.20</ele>
        <time>2017-02-18T08:39:54Z</time>
      </trkpt>
      <trkpt lat="42.584261000" lon="-2.451753000">
        <ele>774.30</ele>
        <time>2017-02-18T08:39:55Z</time>
      </trkpt>
      <trkpt lat="42.584283000" lon="-2.451766000">
        <ele>774.40</ele>
        <time>2017-02-18T08:39:56Z</time>
      </trkpt>
      <trkpt lat="42.584307000" lon="-2.451778000">
        <ele>774.50</ele>
        <time>2017-02-18T08:39:57Z</time>
      </trkpt>
      <trkpt lat="42.584329000" lon="-2.451788000">
        <ele>774.60</ele>
        <time>2017-02-18T08:39:58Z</time>
      </trkpt>
      <trkpt lat="42.584348000" lon="-2.451803000">
        <ele>774.70</ele>
        <time>2017-02-18T08:39:59Z</time>
      </trkpt>
      <trkpt lat="42.584369000" lon="-2.451813000">
        <ele>775.00</ele>
        <time>2017-02-18T08:40:00Z</time>
      </trkpt>
      <trkpt lat="42.584392000" lon="-2.451823000">
        <ele>775.20</ele>
        <time>2017-02-18T08:40:01Z</time>
      </trkpt>
      <trkpt lat="42.584419000" lon="-2.451835000">
        <ele>775.40</ele>
        <time>2017-02-18T08:40:02Z</time>
      </trkpt>
      <trkpt lat="42.584442000" lon="-2.451848000">
        <ele>775.50</ele>
        <time>2017-02-18T08:40:03Z</time>
      </trkpt>
      <trkpt lat="42.584468000" lon="-2.451859000">
        <ele>775.60</ele>
        <time>2017-02-18T08:40:04Z</time>
      </trkpt>
      <trkpt lat="42.584492000" lon="-2.451869000">
        <ele>775.70</ele>
        <time>2017-02-18T08:40:05Z</time>
      </trkpt>
      <trkpt lat="42.584517000" lon="-2.451883000">
        <ele>775.80</ele>
        <time>2017-02-18T08:40:06Z</time>
      </trkpt>
      <trkpt lat="42.584539000" lon="-2.451896000">
        <ele>775.90</ele>
        <time>2017-02-18T08:40:07Z</time>
      </trkpt>
      <trkpt lat="42.584563000" lon="-2.451908000">
        <ele>775.90</ele>
        <time>2017-02-18T08:40:08Z</time>
      </trkpt>
      <trkpt lat="42.584586000" lon="-2.451920000">
        <ele>776.00</ele>
        <time>2017-02-18T08:40:09Z</time>
      </trkpt>
      <trkpt lat="42.584611000" lon="-2.451929000">
        <ele>776.00</ele>
        <time>2017-02-18T08:40:10Z</time>
      </trkpt>
      <trkpt lat="42.584637000" lon="-2.451940000">
        <ele>776.10</ele>
        <time>2017-02-18T08:40:11Z</time>
      </trkpt>
      <trkpt lat="42.584660000" lon="-2.451954000">
        <ele>776.10</ele>
        <time>2017-02-18T08:40:12Z</time>
      </trkpt>
      <trkpt lat="42.584687000" lon="-2.451966000">
        <ele>776.10</ele>
        <time>2017-02-18T08:40:13Z</time>
      </trkpt>
      <trkpt lat="42.584715000" lon="-2.451975000">
        <ele>776.00</ele>
        <time>2017-02-18T08:40:14Z</time>
      </trkpt>
      <trkpt lat="42.584739000" lon="-2.451987000">
        <ele>776.00</ele>
        <time>2017-02-18T08:40:15Z</time>
      </trkpt>
      <trkpt lat="42.584763000" lon="-2.451994000">
        <ele>775.90</ele>
        <time>2017-02-18T08:40:16Z</time>
      </trkpt>
      <trkpt lat="42.584787000" lon="-2.452004000">
        <ele>775.90</ele>
        <time>2017-02-18T08:40:17Z</time>
      </trkpt>
      <trkpt lat="42.584811000" lon="-2.452015000">
        <ele>776.10</ele>
        <time>2017-02-18T08:40:18Z</time>
      </trkpt>
      <trkpt lat="42.584840000" lon="-2.452025000">
        <ele>776.20</ele>
        <time>2017-02-18T08:40:19Z</time>
      </trkpt>
      <trkpt lat="42.584871000" lon="-2.452032000">
        <ele>776.30</ele>
        <time>2017-02-18T08:40:20Z</time>
      </trkpt>
      <trkpt lat="42.584900000" lon="-2.452040000">
        <ele>776.40</ele>
        <time>2017-02-18T08:40:21Z</time>
      </trkpt>
      <trkpt lat="42.584927000" lon="-2.452047000">
        <ele>776.30</ele>
        <time>2017-02-18T08:40:22Z</time>
      </trkpt>
      <trkpt lat="42.584956000" lon="-2.452052000">
        <ele>776.30</ele>
        <time>2017-02-18T08:40:23Z</time>
      </trkpt>
      <trkpt lat="42.584988000" lon="-2.452057000">
        <ele>776.10</ele>
        <time>2017-02-18T08:40:24Z</time>
      </trkpt>
      <trkpt lat="42.585022000" lon="-2.452060000">
        <ele>775.90</ele>
        <time>2017-02-18T08:40:25Z</time>
      </trkpt>
      <trkpt lat="42.585055000" lon="-2.452064000">
        <ele>775.80</ele>
        <time>2017-02-18T08:40:26Z</time>
      </trkpt>
      <trkpt lat="42.585091000" lon="-2.452070000">
        <ele>775.80</ele>
        <time>2017-02-18T08:40:27Z</time>
      </trkpt>
      <trkpt lat="42.585126000" lon="-2.452071000">
        <ele>775.80</ele>
        <time>2017-02-18T08:40:28Z</time>
      </trkpt>
      <trkpt lat="42.585159000" lon="-2.452070000">
        <ele>775.70</ele>
        <time>2017-02-18T08:40:29Z</time>
      </trkpt>
      <trkpt lat="42.585219000" lon="-2.452065000">
        <ele>775.70</ele>
        <time>2017-02-18T08:40:31Z</time>
      </trkpt>
      <trkpt lat="42.585244000" lon="-2.452062000">
        <ele>775.50</ele>
        <time>2017-02-18T08:40:32Z</time>
      </trkpt>
      <trkpt lat="42.585269000" lon="-2.452056000">
        <ele>775.30</ele>
        <time>2017-02-18T08:40:33Z</time>
      </trkpt>
      <trkpt lat="42.585289000" lon="-2.452041000">
        <ele>775.20</ele>
        <time>2017-02-18T08:40:34Z</time>
      </trkpt>
      <trkpt lat="42.585298000" lon="-2.452042000">
        <ele>775.10</ele>
        <time>2017-02-18T08:40:35Z</time>
      </trkpt>
      <trkpt lat="42.585298000" lon="-2.452046000">
        <ele>775.00</ele>
        <time>2017-02-18T08:40:36Z</time>
      </trkpt>
      <trkpt lat="42.585298000" lon="-2.452046000">
        <ele>774.90</ele>
        <time>2017-02-18T08:40:37Z</time>
      </trkpt>
      <trkpt lat="42.585299000" lon="-2.452047000">
        <ele>774.80</ele>
        <time>2017-02-18T08:40:38Z</time>
      </trkpt>
      <trkpt lat="42.585296000" lon="-2.452048000">
        <ele>774.70</ele>
        <time>2017-02-18T08:40:39Z</time>
      </trkpt>
      <trkpt lat="42.585297000" lon="-2.452047000">
        <ele>774.50</ele>
        <time>2017-02-18T08:40:40Z</time>
      </trkpt>
      <trkpt lat="42.585302000" lon="-2.452045000">
        <ele>774.40</ele>
        <time>2017-02-18T08:40:41Z</time>
      </trkpt>
      <trkpt lat="42.585298000" lon="-2.452045000">
        <ele>774.30</ele>
        <time>2017-02-18T08:40:42Z</time>
      </trkpt>
      <trkpt lat="42.585299000" lon="-2.452047000">
        <ele>774.20</ele>
        <time>2017-02-18T08:40:43Z</time>
      </trkpt>
      <trkpt lat="42.585301000" lon="-2.452045000">
        <ele>774.10</ele>
        <time>2017-02-18T08:40:44Z</time>
      </trkpt>
      <trkpt lat="42.585302000" lon="-2.452045000">
        <ele>774.10</ele>
        <time>2017-02-18T08:40:45Z</time>
      </trkpt>
      <trkpt lat="42.585301000" lon="-2.452046000">
        <ele>774.10</ele>
        <time>2017-02-18T08:40:46Z</time>
      </trkpt>
      <trkpt lat="42.585300000" lon="-2.452047000">
        <ele>774.20</ele>
        <time>2017-02-18T08:40:47Z</time>
      </trkpt>
      <trkpt lat="42.585299000" lon="-2.452050000">
        <ele>774.10</ele>
        <time>2017-02-18T08:40:48Z</time>
      </trkpt>
      <trkpt lat="42.585300000" lon="-2.452051000">
        <ele>774.10</ele>
        <time>2017-02-18T08:40:49Z</time>
      </trkpt>
      <trkpt lat="42.585300000" lon="-2.452049000">
        <ele>774.10</ele>
        <time>2017-02-18T08:40:50Z</time>
      </trkpt>
      <trkpt lat="42.585303000" lon="-2.452048000">
        <ele>774.10</ele>
        <time>2017-02-18T08:40:51Z</time>
      </trkpt>
      <trkpt lat="42.585306000" lon="-2.452045000">
        <ele>774.10</ele>
        <time>2017-02-18T08:40:52Z</time>
      </trkpt>
      <trkpt lat="42.585313000" lon="-2.452039000">
        <ele>774.10</ele>
        <time>2017-02-18T08:40:53Z</time>
      </trkpt>
      <trkpt lat="42.585315000" lon="-2.452035000">
        <ele>774.10</ele>
        <time>2017-02-18T08:40:54Z</time>
      </trkpt>
      <trkpt lat="42.585316000" lon="-2.452035000">
        <ele>774.20</ele>
        <time>2017-02-18T08:40:55Z</time>
      </trkpt>
      <trkpt lat="42.585316000" lon="-2.452032000">
        <ele>774.30</ele>
        <time>2017-02-18T08:40:56Z</time>
      </trkpt>
      <trkpt lat="42.585315000" lon="-2.452027000">
        <ele>774.40</ele>
        <time>2017-02-18T08:40:57Z</time>
      </trkpt>
      <trkpt lat="42.585317000" lon="-2.452024000">
        <ele>774.50</ele>
        <time>2017-02-18T08:40:58Z</time>
      </trkpt>
      <trkpt lat="42.585316000" lon="-2.452025000">
        <ele>774.60</ele>
        <time>2017-02-18T08:40:59Z</time>
      </trkpt>
      <trkpt lat="42.585318000" lon="-2.452031000">
        <ele>774.50</ele>
        <time>2017-02-18T08:41:00Z</time>
      </trkpt>
      <trkpt lat="42.585315000" lon="-2.452031000">
        <ele>774.50</ele>
        <time>2017-02-18T08:41:01Z</time>
      </trkpt>
      <trkpt lat="42.585314000" lon="-2.452031000">
        <ele>774.40</ele>
        <time>2017-02-18T08:41:02Z</time>
      </trkpt>
      <trkpt lat="42.585314000" lon="-2.452035000">
        <ele>774.30</ele>
        <time>2017-02-18T08:41:03Z</time>
      </trkpt>
      <trkpt lat="42.585313000" lon="-2.452036000">
        <ele>774.20</ele>
        <time>2017-02-18T08:41:04Z</time>
      </trkpt>
      <trkpt lat="42.585310000" lon="-2.452034000">
        <ele>774.20</ele>
        <time>2017-02-18T08:41:05Z</time>
      </trkpt>
      <trkpt lat="42.585306000" lon="-2.452037000">
        <ele>774.10</ele>
        <time>2017-02-18T08:41:06Z</time>
      </trkpt>
      <trkpt lat="42.585307000" lon="-2.452041000">
        <ele>774.10</ele>
        <time>2017-02-18T08:41:07Z</time>
      </trkpt>
      <trkpt lat="42.585306000" lon="-2.452039000">
        <ele>774.30</ele>
        <time>2017-02-18T08:41:08Z</time>
      </trkpt>
      <trkpt lat="42.585305000" lon="-2.452036000">
        <ele>774.40</ele>
        <time>2017-02-18T08:41:09Z</time>
      </trkpt>
      <trkpt lat="42.585309000" lon="-2.452029000">
        <ele>774.50</ele>
        <time>2017-02-18T08:41:10Z</time>
      </trkpt>
      <trkpt lat="42.585313000" lon="-2.452029000">
        <ele>774.60</ele>
        <time>2017-02-18T08:41:11Z</time>
      </trkpt>
      <trkpt lat="42.585319000" lon="-2.452028000">
        <ele>774.70</ele>
        <time>2017-02-18T08:41:12Z</time>
      </trkpt>
      <trkpt lat="42.585322000" lon="-2.452026000">
        <ele>774.70</ele>
        <time>2017-02-18T08:41:13Z</time>
      </trkpt>
      <trkpt lat="42.585324000" lon="-2.452025000">
        <ele>774.70</ele>
        <time>2017-02-18T08:41:14Z</time>
      </trkpt>
      <trkpt lat="42.585323000" lon="-2.452027000">
        <ele>774.80</ele>
        <time>2017-02-18T08:41:15Z</time>
      </trkpt>
      <trkpt lat="42.585321000" lon="-2.452023000">
        <ele>774.60</ele>
        <time>2017-02-18T08:41:16Z</time>
      </trkpt>
      <trkpt lat="42.585320000" lon="-2.452023000">
        <ele>774.40</ele>
        <time>2017-02-18T08:41:17Z</time>
      </trkpt>
      <trkpt lat="42.585320000" lon="-2.452023000">
        <ele>774.30</ele>
        <time>2017-02-18T08:41:18Z</time>
      </trkpt>
      <trkpt lat="42.585319000" lon="-2.452023000">
        <ele>774.30</ele>
        <time>2017-02-18T08:41:19Z</time>
      </trkpt>
      <trkpt lat="42.585318000" lon="-2.452022000">
        <ele>774.40</ele>
        <time>2017-02-18T08:41:20Z</time>
      </trkpt>
      <trkpt lat="42.585316000" lon="-2.452020000">
        <ele>774.50</ele>
        <time>2017-02-18T08:41:21Z</time>
      </trkpt>
      <trkpt lat="42.585315000" lon="-2.452021000">
        <ele>774.60</ele>
        <time>2017-02-18T08:41:22Z</time>
      </trkpt>
      <trkpt lat="42.585316000" lon="-2.452023000">
        <ele>774.60</ele>
        <time>2017-02-18T08:41:23Z</time>
      </trkpt>
      <trkpt lat="42.585316000" lon="-2.452026000">
        <ele>774.60</ele>
        <time>2017-02-18T08:41:24Z</time>
      </trkpt>
      <trkpt lat="42.585316000" lon="-2.452027000">
        <ele>774.60</ele>
        <time>2017-02-18T08:41:25Z</time>
      </trkpt>
      <trkpt lat="42.585317000" lon="-2.452030000">
        <ele>774.60</ele>
        <time>2017-02-18T08:41:26Z</time>
      </trkpt>
      <trkpt lat="42.585319000" lon="-2.452029000">
        <ele>774.60</ele>
        <time>2017-02-18T08:41:27Z</time>
      </trkpt>
      <trkpt lat="42.585320000" lon="-2.452029000">
        <ele>774.50</ele>
        <time>2017-02-18T08:41:28Z</time>
      </trkpt>
      <trkpt lat="42.585322000" lon="-2.452028000">
        <ele>774.50</ele>
        <time>2017-02-18T08:41:29Z</time>
      </trkpt>
      <trkpt lat="42.585327000" lon="-2.452031000">
        <ele>774.50</ele>
        <time>2017-02-18T08:41:30Z</time>
      </trkpt>
      <trkpt lat="42.585333000" lon="-2.452028000">
        <ele>774.60</ele>
        <time>2017-02-18T08:41:32Z</time>
      </trkpt>
      <trkpt lat="42.585333000" lon="-2.452026000">
        <ele>774.60</ele>
        <time>2017-02-18T08:41:33Z</time>
      </trkpt>
      <trkpt lat="42.585330000" lon="-2.452025000">
        <ele>774.70</ele>
        <time>2017-02-18T08:41:34Z</time>
      </trkpt>
      <trkpt lat="42.585327000" lon="-2.452026000">
        <ele>774.70</ele>
        <time>2017-02-18T08:41:35Z</time>
      </trkpt>
      <trkpt lat="42.585323000" lon="-2.452031000">
        <ele>774.80</ele>
        <time>2017-02-18T08:41:36Z</time>
      </trkpt>
      <trkpt lat="42.585319000" lon="-2.452032000">
        <ele>774.80</ele>
        <time>2017-02-18T08:41:37Z</time>
      </trkpt>
      <trkpt lat="42.585316000" lon="-2.452029000">
        <ele>774.50</ele>
        <time>2017-02-18T08:41:38Z</time>
      </trkpt>
      <trkpt lat="42.585315000" lon="-2.452029000">
        <ele>774.40</ele>
        <time>2017-02-18T08:41:39Z</time>
      </trkpt>
      <trkpt lat="42.585313000" lon="-2.452031000">
        <ele>774.40</ele>
        <time>2017-02-18T08:41:40Z</time>
      </trkpt>
      <trkpt lat="42.585313000" lon="-2.452028000">
        <ele>774.50</ele>
        <time>2017-02-18T08:41:41Z</time>
      </trkpt>
      <trkpt lat="42.585313000" lon="-2.452030000">
        <ele>774.50</ele>
        <time>2017-02-18T08:41:42Z</time>
      </trkpt>
      <trkpt lat="42.585312000" lon="-2.452028000">
        <ele>774.60</ele>
        <time>2017-02-18T08:41:43Z</time>
      </trkpt>
      <trkpt lat="42.585313000" lon="-2.452029000">
        <ele>774.60</ele>
        <time>2017-02-18T08:41:44Z</time>
      </trkpt>
      <trkpt lat="42.585314000" lon="-2.452027000">
        <ele>774.60</ele>
        <time>2017-02-18T08:41:45Z</time>
      </trkpt>
      <trkpt lat="42.585313000" lon="-2.452034000">
        <ele>774.70</ele>
        <time>2017-02-18T08:41:46Z</time>
      </trkpt>
      <trkpt lat="42.585311000" lon="-2.452034000">
        <ele>774.70</ele>
        <time>2017-02-18T08:41:47Z</time>
      </trkpt>
      <trkpt lat="42.585312000" lon="-2.452036000">
        <ele>774.60</ele>
        <time>2017-02-18T08:41:48Z</time>
      </trkpt>
      <trkpt lat="42.585312000" lon="-2.452033000">
        <ele>774.50</ele>
        <time>2017-02-18T08:41:49Z</time>
      </trkpt>
      <trkpt lat="42.585312000" lon="-2.452037000">
        <ele>774.50</ele>
        <time>2017-02-18T08:41:50Z</time>
      </trkpt>
      <trkpt lat="42.585313000" lon="-2.452032000">
        <ele>774.60</ele>
        <time>2017-02-18T08:41:51Z</time>
      </trkpt>
      <trkpt lat="42.585315000" lon="-2.452019000">
        <ele>774.60</ele>
        <time>2017-02-18T08:41:52Z</time>
      </trkpt>
      <trkpt lat="42.585324000" lon="-2.451994000">
        <ele>774.50</ele>
        <time>2017-02-18T08:41:53Z</time>
      </trkpt>
      <trkpt lat="42.585324000" lon="-2.451960000">
        <ele>774.50</ele>
        <time>2017-02-18T08:41:54Z</time>
      </trkpt>
      <trkpt lat="42.585322000" lon="-2.451921000">
        <ele>774.50</ele>
        <time>2017-02-18T08:41:55Z</time>
      </trkpt>
      <trkpt lat="42.585317000" lon="-2.451880000">
        <ele>774.30</ele>
        <time>2017-02-18T08:41:56Z</time>
      </trkpt>
      <trkpt lat="42.585306000" lon="-2.451831000">
        <ele>774.10</ele>
        <time>2017-02-18T08:41:57Z</time>
      </trkpt>
      <trkpt lat="42.585295000" lon="-2.451775000">
        <ele>773.90</ele>
        <time>2017-02-18T08:41:58Z</time>
      </trkpt>
      <trkpt lat="42.585282000" lon="-2.451717000">
        <ele>773.70</ele>
        <time>2017-02-18T08:41:59Z</time>
      </trkpt>
      <trkpt lat="42.585276000" lon="-2.451654000">
        <ele>773.40</ele>
        <time>2017-02-18T08:42:00Z</time>
      </trkpt>
      <trkpt lat="42.585271000" lon="-2.451589000">
        <ele>773.10</ele>
        <time>2017-02-18T08:42:01Z</time>
      </trkpt>
      <trkpt lat="42.585263000" lon="-2.451522000">
        <ele>772.80</ele>
        <time>2017-02-18T08:42:02Z</time>
      </trkpt>
      <trkpt lat="42.585251000" lon="-2.451449000">
        <ele>772.60</ele>
        <time>2017-02-18T08:42:03Z</time>
      </trkpt>
      <trkpt lat="42.585239000" lon="-2.451376000">
        <ele>772.20</ele>
        <time>2017-02-18T08:42:04Z</time>
      </trkpt>
      <trkpt lat="42.585231000" lon="-2.451303000">
        <ele>771.90</ele>
        <time>2017-02-18T08:42:05Z</time>
      </trkpt>
      <trkpt lat="42.585219000" lon="-2.451226000">
        <ele>771.70</ele>
        <time>2017-02-18T08:42:06Z</time>
      </trkpt>
      <trkpt lat="42.585204000" lon="-2.451150000">
        <ele>771.40</ele>
        <time>2017-02-18T08:42:07Z</time>
      </trkpt>
      <trkpt lat="42.585189000" lon="-2.451078000">
        <ele>771.20</ele>
        <time>2017-02-18T08:42:08Z</time>
      </trkpt>
      <trkpt lat="42.585177000" lon="-2.451005000">
        <ele>771.10</ele>
        <time>2017-02-18T08:42:09Z</time>
      </trkpt>
      <trkpt lat="42.585163000" lon="-2.450930000">
        <ele>770.70</ele>
        <time>2017-02-18T08:42:10Z</time>
      </trkpt>
      <trkpt lat="42.585149000" lon="-2.450851000">
        <ele>770.50</ele>
        <time>2017-02-18T08:42:11Z</time>
      </trkpt>
      <trkpt lat="42.585136000" lon="-2.450773000">
        <ele>770.30</ele>
        <time>2017-02-18T08:42:12Z</time>
      </trkpt>
      <trkpt lat="42.585122000" lon="-2.450695000">
        <ele>770.20</ele>
        <time>2017-02-18T08:42:13Z</time>
      </trkpt>
      <trkpt lat="42.585112000" lon="-2.450615000">
        <ele>770.00</ele>
        <time>2017-02-18T08:42:14Z</time>
      </trkpt>
      <trkpt lat="42.585100000" lon="-2.450535000">
        <ele>769.90</ele>
        <time>2017-02-18T08:42:15Z</time>
      </trkpt>
      <trkpt lat="42.585085000" lon="-2.450453000">
        <ele>769.80</ele>
        <time>2017-02-18T08:42:16Z</time>
      </trkpt>
      <trkpt lat="42.585070000" lon="-2.450373000">
        <ele>769.80</ele>
        <time>2017-02-18T08:42:17Z</time>
      </trkpt>
      <trkpt lat="42.585056000" lon="-2.450292000">
        <ele>769.70</ele>
        <time>2017-02-18T08:42:18Z</time>
      </trkpt>
      <trkpt lat="42.585044000" lon="-2.450212000">
        <ele>769.70</ele>
        <time>2017-02-18T08:42:19Z</time>
      </trkpt>
      <trkpt lat="42.585031000" lon="-2.450132000">
        <ele>769.40</ele>
        <time>2017-02-18T08:42:20Z</time>
      </trkpt>
      <trkpt lat="42.585016000" lon="-2.450049000">
        <ele>769.20</ele>
        <time>2017-02-18T08:42:21Z</time>
      </trkpt>
      <trkpt lat="42.585000000" lon="-2.449966000">
        <ele>769.10</ele>
        <time>2017-02-18T08:42:22Z</time>
      </trkpt>
      <trkpt lat="42.584984000" lon="-2.449887000">
        <ele>769.00</ele>
        <time>2017-02-18T08:42:23Z</time>
      </trkpt>
      <trkpt lat="42.584968000" lon="-2.449807000">
        <ele>768.80</ele>
        <time>2017-02-18T08:42:24Z</time>
      </trkpt>
      <trkpt lat="42.584952000" lon="-2.449726000">
        <ele>768.70</ele>
        <time>2017-02-18T08:42:25Z</time>
      </trkpt>
      <trkpt lat="42.584936000" lon="-2.449644000">
        <ele>768.40</ele>
        <time>2017-02-18T08:42:26Z</time>
      </trkpt>
      <trkpt lat="42.584919000" lon="-2.449563000">
        <ele>768.30</ele>
        <time>2017-02-18T08:42:27Z</time>
      </trkpt>
      <trkpt lat="42.584903000" lon="-2.449479000">
        <ele>768.10</ele>
        <time>2017-02-18T08:42:28Z</time>
      </trkpt>
      <trkpt lat="42.584889000" lon="-2.449396000">
        <ele>768.00</ele>
        <time>2017-02-18T08:42:29Z</time>
      </trkpt>
      <trkpt lat="42.584875000" lon="-2.449312000">
        <ele>767.90</ele>
        <time>2017-02-18T08:42:30Z</time>
      </trkpt>
      <trkpt lat="42.584862000" lon="-2.449230000">
        <ele>767.90</ele>
        <time>2017-02-18T08:42:31Z</time>
      </trkpt>
      <trkpt lat="42.584835000" lon="-2.449071000">
        <ele>767.40</ele>
        <time>2017-02-18T08:42:33Z</time>
      </trkpt>
      <trkpt lat="42.584823000" lon="-2.448991000">
        <ele>767.20</ele>
        <time>2017-02-18T08:42:34Z</time>
      </trkpt>
      <trkpt lat="42.584809000" lon="-2.448914000">
        <ele>767.10</ele>
        <time>2017-02-18T08:42:35Z</time>
      </trkpt>
      <trkpt lat="42.584800000" lon="-2.448840000">
        <ele>766.90</ele>
        <time>2017-02-18T08:42:36Z</time>
      </trkpt>
      <trkpt lat="42.584787000" lon="-2.448766000">
        <ele>766.80</ele>
        <time>2017-02-18T08:42:37Z</time>
      </trkpt>
      <trkpt lat="42.584775000" lon="-2.448689000">
        <ele>766.80</ele>
        <time>2017-02-18T08:42:38Z</time>
      </trkpt>
      <trkpt lat="42.584762000" lon="-2.448613000">
        <ele>766.80</ele>
        <time>2017-02-18T08:42:39Z</time>
      </trkpt>
      <trkpt lat="42.584746000" lon="-2.448540000">
        <ele>766.70</ele>
        <time>2017-02-18T08:42:40Z</time>
      </trkpt>
      <trkpt lat="42.584734000" lon="-2.448465000">
        <ele>766.60</ele>
        <time>2017-02-18T08:42:41Z</time>
      </trkpt>
      <trkpt lat="42.584721000" lon="-2.448389000">
        <ele>766.70</ele>
        <time>2017-02-18T08:42:42Z</time>
      </trkpt>
      <trkpt lat="42.584706000" lon="-2.448319000">
        <ele>766.70</ele>
        <time>2017-02-18T08:42:43Z</time>
      </trkpt>
      <trkpt lat="42.584692000" lon="-2.448248000">
        <ele>766.70</ele>
        <time>2017-02-18T08:42:44Z</time>
      </trkpt>
      <trkpt lat="42.584679000" lon="-2.448177000">
        <ele>766.60</ele>
        <time>2017-02-18T08:42:45Z</time>
      </trkpt>
      <trkpt lat="42.584665000" lon="-2.448108000">
        <ele>766.60</ele>
        <time>2017-02-18T08:42:46Z</time>
      </trkpt>
      <trkpt lat="42.584650000" lon="-2.448039000">
        <ele>766.60</ele>
        <time>2017-02-18T08:42:47Z</time>
      </trkpt>
      <trkpt lat="42.584636000" lon="-2.447970000">
        <ele>766.50</ele>
        <time>2017-02-18T08:42:48Z</time>
      </trkpt>
      <trkpt lat="42.584623000" lon="-2.447904000">
        <ele>766.50</ele>
        <time>2017-02-18T08:42:49Z</time>
      </trkpt>
      <trkpt lat="42.584608000" lon="-2.447840000">
        <ele>766.40</ele>
        <time>2017-02-18T08:42:50Z</time>
      </trkpt>
      <trkpt lat="42.584590000" lon="-2.447774000">
        <ele>766.40</ele>
        <time>2017-02-18T08:42:51Z</time>
      </trkpt>
      <trkpt lat="42.584562000" lon="-2.447713000">
        <ele>766.40</ele>
        <time>2017-02-18T08:42:52Z</time>
      </trkpt>
      <trkpt lat="42.584525000" lon="-2.447652000">
        <ele>766.30</ele>
        <time>2017-02-18T08:42:53Z</time>
      </trkpt>
      <trkpt lat="42.584480000" lon="-2.447594000">
        <ele>766.20</ele>
        <time>2017-02-18T08:42:54Z</time>
      </trkpt>
      <trkpt lat="42.584430000" lon="-2.447535000">
        <ele>766.10</ele>
        <time>2017-02-18T08:42:55Z</time>
      </trkpt>
      <trkpt lat="42.584373000" lon="-2.447476000">
        <ele>765.60</ele>
        <time>2017-02-18T08:42:56Z</time>
      </trkpt>
      <trkpt lat="42.584313000" lon="-2.447418000">
        <ele>765.20</ele>
        <time>2017-02-18T08:42:57Z</time>
      </trkpt>
      <trkpt lat="42.584250000" lon="-2.447359000">
        <ele>764.90</ele>
        <time>2017-02-18T08:42:58Z</time>
      </trkpt>
      <trkpt lat="42.584189000" lon="-2.447294000">
        <ele>764.70</ele>
        <time>2017-02-18T08:42:59Z</time>
      </trkpt>
      <trkpt lat="42.584126000" lon="-2.447231000">
        <ele>764.10</ele>
        <time>2017-02-18T08:43:00Z</time>
      </trkpt>
      <trkpt lat="42.584059000" lon="-2.447168000">
        <ele>763.70</ele>
        <time>2017-02-18T08:43:01Z</time>
      </trkpt>
      <trkpt lat="42.583989000" lon="-2.447108000">
        <ele>763.00</ele>
        <time>2017-02-18T08:43:02Z</time>
      </trkpt>
      <trkpt lat="42.583917000" lon="-2.447052000">
        <ele>762.50</ele>
        <time>2017-02-18T08:43:03Z</time>
      </trkpt>
      <trkpt lat="42.583844000" lon="-2.446999000">
        <ele>762.00</ele>
        <time>2017-02-18T08:43:04Z</time>
      </trkpt>
      <trkpt lat="42.583772000" lon="-2.446948000">
        <ele>761.70</ele>
        <time>2017-02-18T08:43:05Z</time>
      </trkpt>
      <trkpt lat="42.583700000" lon="-2.446896000">
        <ele>761.40</ele>
        <time>2017-02-18T08:43:06Z</time>
      </trkpt>
      <trkpt lat="42.583631000" lon="-2.446846000">
        <ele>761.20</ele>
        <time>2017-02-18T08:43:07Z</time>
      </trkpt>
      <trkpt lat="42.583564000" lon="-2.446794000">
        <ele>760.90</ele>
        <time>2017-02-18T08:43:08Z</time>
      </trkpt>
      <trkpt lat="42.583497000" lon="-2.446750000">
        <ele>760.70</ele>
        <time>2017-02-18T08:43:09Z</time>
      </trkpt>
      <trkpt lat="42.583432000" lon="-2.446709000">
        <ele>760.50</ele>
        <time>2017-02-18T08:43:10Z</time>
      </trkpt>
      <trkpt lat="42.583369000" lon="-2.446680000">
        <ele>760.40</ele>
        <time>2017-02-18T08:43:11Z</time>
      </trkpt>
      <trkpt lat="42.583303000" lon="-2.446650000">
        <ele>760.20</ele>
        <time>2017-02-18T08:43:12Z</time>
      </trkpt>
      <trkpt lat="42.583238000" lon="-2.446624000">
        <ele>760.10</ele>
        <time>2017-02-18T08:43:13Z</time>
      </trkpt>
      <trkpt lat="42.583176000" lon="-2.446604000">
        <ele>759.90</ele>
        <time>2017-02-18T08:43:14Z</time>
      </trkpt>
      <trkpt lat="42.583114000" lon="-2.446584000">
        <ele>759.80</ele>
        <time>2017-02-18T08:43:15Z</time>
      </trkpt>
      <trkpt lat="42.583052000" lon="-2.446566000">
        <ele>759.60</ele>
        <time>2017-02-18T08:43:16Z</time>
      </trkpt>
      <trkpt lat="42.582989000" lon="-2.446547000">
        <ele>759.50</ele>
        <time>2017-02-18T08:43:17Z</time>
      </trkpt>
      <trkpt lat="42.582928000" lon="-2.446529000">
        <ele>759.20</ele>
        <time>2017-02-18T08:43:18Z</time>
      </trkpt>
      <trkpt lat="42.582870000" lon="-2.446510000">
        <ele>759.00</ele>
        <time>2017-02-18T08:43:19Z</time>
      </trkpt>
      <trkpt lat="42.582811000" lon="-2.446491000">
        <ele>758.60</ele>
        <time>2017-02-18T08:43:20Z</time>
      </trkpt>
      <trkpt lat="42.582751000" lon="-2.446476000">
        <ele>758.40</ele>
        <time>2017-02-18T08:43:21Z</time>
      </trkpt>
      <trkpt lat="42.582692000" lon="-2.446459000">
        <ele>758.20</ele>
        <time>2017-02-18T08:43:22Z</time>
      </trkpt>
      <trkpt lat="42.582634000" lon="-2.446444000">
        <ele>758.10</ele>
        <time>2017-02-18T08:43:23Z</time>
      </trkpt>
      <trkpt lat="42.582575000" lon="-2.446433000">
        <ele>758.00</ele>
        <time>2017-02-18T08:43:24Z</time>
      </trkpt>
      <trkpt lat="42.582515000" lon="-2.446425000">
        <ele>757.90</ele>
        <time>2017-02-18T08:43:25Z</time>
      </trkpt>
      <trkpt lat="42.582455000" lon="-2.446421000">
        <ele>757.90</ele>
        <time>2017-02-18T08:43:26Z</time>
      </trkpt>
      <trkpt lat="42.582393000" lon="-2.446414000">
        <ele>757.90</ele>
        <time>2017-02-18T08:43:27Z</time>
      </trkpt>
      <trkpt lat="42.582332000" lon="-2.446407000">
        <ele>757.70</ele>
        <time>2017-02-18T08:43:28Z</time>
      </trkpt>
      <trkpt lat="42.582269000" lon="-2.446396000">
        <ele>757.60</ele>
        <time>2017-02-18T08:43:29Z</time>
      </trkpt>
      <trkpt lat="42.582201000" lon="-2.446389000">
        <ele>757.40</ele>
        <time>2017-02-18T08:43:30Z</time>
      </trkpt>
      <trkpt lat="42.582135000" lon="-2.446388000">
        <ele>757.30</ele>
        <time>2017-02-18T08:43:31Z</time>
      </trkpt>
      <trkpt lat="42.582066000" lon="-2.446381000">
        <ele>757.10</ele>
        <time>2017-02-18T08:43:32Z</time>
      </trkpt>
      <trkpt lat="42.581928000" lon="-2.446369000">
        <ele>756.90</ele>
        <time>2017-02-18T08:43:34Z</time>
      </trkpt>
      <trkpt lat="42.581856000" lon="-2.446356000">
        <ele>756.80</ele>
        <time>2017-02-18T08:43:35Z</time>
      </trkpt>
      <trkpt lat="42.581784000" lon="-2.446334000">
        <ele>756.40</ele>
        <time>2017-02-18T08:43:36Z</time>
      </trkpt>
      <trkpt lat="42.581712000" lon="-2.446306000">
        <ele>756.00</ele>
        <time>2017-02-18T08:43:37Z</time>
      </trkpt>
      <trkpt lat="42.581641000" lon="-2.446273000">
        <ele>755.80</ele>
        <time>2017-02-18T08:43:38Z</time>
      </trkpt>
      <trkpt lat="42.581572000" lon="-2.446238000">
        <ele>755.60</ele>
        <time>2017-02-18T08:43:39Z</time>
      </trkpt>
      <trkpt lat="42.581504000" lon="-2.446184000">
        <ele>755.10</ele>
        <time>2017-02-18T08:43:40Z</time>
      </trkpt>
      <trkpt lat="42.581435000" lon="-2.446128000">
        <ele>754.70</ele>
        <time>2017-02-18T08:43:41Z</time>
      </trkpt>
      <trkpt lat="42.581363000" lon="-2.446071000">
        <ele>754.10</ele>
        <time>2017-02-18T08:43:42Z</time>
      </trkpt>
      <trkpt lat="42.581296000" lon="-2.445999000">
        <ele>753.70</ele>
        <time>2017-02-18T08:43:43Z</time>
      </trkpt>
      <trkpt lat="42.581223000" lon="-2.445934000">
        <ele>753.00</ele>
        <time>2017-02-18T08:43:44Z</time>
      </trkpt>
      <trkpt lat="42.581150000" lon="-2.445864000">
        <ele>752.60</ele>
        <time>2017-02-18T08:43:45Z</time>
      </trkpt>
      <trkpt lat="42.581075000" lon="-2.445796000">
        <ele>752.00</ele>
        <time>2017-02-18T08:43:46Z</time>
      </trkpt>
      <trkpt lat="42.581000000" lon="-2.445737000">
        <ele>751.60</ele>
        <time>2017-02-18T08:43:47Z</time>
      </trkpt>
      <trkpt lat="42.580922000" lon="-2.445684000">
        <ele>750.80</ele>
        <time>2017-02-18T08:43:48Z</time>
      </trkpt>
      <trkpt lat="42.580843000" lon="-2.445631000">
        <ele>750.20</ele>
        <time>2017-02-18T08:43:49Z</time>
      </trkpt>
      <trkpt lat="42.580766000" lon="-2.445586000">
        <ele>749.70</ele>
        <time>2017-02-18T08:43:50Z</time>
      </trkpt>
      <trkpt lat="42.580690000" lon="-2.445547000">
        <ele>749.40</ele>
        <time>2017-02-18T08:43:51Z</time>
      </trkpt>
      <trkpt lat="42.580615000" lon="-2.445516000">
        <ele>749.10</ele>
        <time>2017-02-18T08:43:52Z</time>
      </trkpt>
      <trkpt lat="42.580542000" lon="-2.445497000">
        <ele>748.90</ele>
        <time>2017-02-18T08:43:53Z</time>
      </trkpt>
      <trkpt lat="42.580483000" lon="-2.445486000">
        <ele>748.40</ele>
        <time>2017-02-18T08:43:54Z</time>
      </trkpt>
      <trkpt lat="42.580434000" lon="-2.445470000">
        <ele>748.00</ele>
        <time>2017-02-18T08:43:55Z</time>
      </trkpt>
      <trkpt lat="42.580392000" lon="-2.445447000">
        <ele>747.70</ele>
        <time>2017-02-18T08:43:56Z</time>
      </trkpt>
      <trkpt lat="42.580368000" lon="-2.445417000">
        <ele>747.40</ele>
        <time>2017-02-18T08:43:57Z</time>
      </trkpt>
      <trkpt lat="42.580353000" lon="-2.445383000">
        <ele>747.10</ele>
        <time>2017-02-18T08:43:58Z</time>
      </trkpt>
      <trkpt lat="42.580344000" lon="-2.445340000">
        <ele>746.90</ele>
        <time>2017-02-18T08:43:59Z</time>
      </trkpt>
      <trkpt lat="42.580321000" lon="-2.445287000">
        <ele>746.70</ele>
        <time>2017-02-18T08:44:00Z</time>
      </trkpt>
      <trkpt lat="42.580290000" lon="-2.445228000">
        <ele>746.50</ele>
        <time>2017-02-18T08:44:01Z</time>
      </trkpt>
      <trkpt lat="42.580249000" lon="-2.445158000">
        <ele>746.30</ele>
        <time>2017-02-18T08:44:02Z</time>
      </trkpt>
      <trkpt lat="42.580201000" lon="-2.445089000">
        <ele>746.10</ele>
        <time>2017-02-18T08:44:03Z</time>
      </trkpt>
      <trkpt lat="42.580142000" lon="-2.445025000">
        <ele>745.90</ele>
        <time>2017-02-18T08:44:04Z</time>
      </trkpt>
      <trkpt lat="42.580077000" lon="-2.444967000">
        <ele>745.70</ele>
        <time>2017-02-18T08:44:05Z</time>
      </trkpt>
      <trkpt lat="42.580009000" lon="-2.444917000">
        <ele>745.30</ele>
        <time>2017-02-18T08:44:06Z</time>
      </trkpt>
      <trkpt lat="42.579936000" lon="-2.444877000">
        <ele>745.00</ele>
        <time>2017-02-18T08:44:07Z</time>
      </trkpt>
      <trkpt lat="42.579859000" lon="-2.444847000">
        <ele>744.30</ele>
        <time>2017-02-18T08:44:08Z</time>
      </trkpt>
      <trkpt lat="42.579781000" lon="-2.444827000">
        <ele>743.70</ele>
        <time>2017-02-18T08:44:09Z</time>
      </trkpt>
      <trkpt lat="42.579697000" lon="-2.444811000">
        <ele>743.30</ele>
        <time>2017-02-18T08:44:10Z</time>
      </trkpt>
      <trkpt lat="42.579613000" lon="-2.444787000">
        <ele>743.00</ele>
        <time>2017-02-18T08:44:11Z</time>
      </trkpt>
      <trkpt lat="42.579532000" lon="-2.444750000">
        <ele>742.50</ele>
        <time>2017-02-18T08:44:12Z</time>
      </trkpt>
      <trkpt lat="42.579452000" lon="-2.444702000">
        <ele>742.10</ele>
        <time>2017-02-18T08:44:13Z</time>
      </trkpt>
      <trkpt lat="42.579371000" lon="-2.444655000">
        <ele>741.80</ele>
        <time>2017-02-18T08:44:14Z</time>
      </trkpt>
      <trkpt lat="42.579293000" lon="-2.444602000">
        <ele>741.60</ele>
        <time>2017-02-18T08:44:15Z</time>
      </trkpt>
      <trkpt lat="42.579215000" lon="-2.444550000">
        <ele>741.30</ele>
        <time>2017-02-18T08:44:16Z</time>
      </trkpt>
      <trkpt lat="42.579136000" lon="-2.444502000">
        <ele>741.00</ele>
        <time>2017-02-18T08:44:17Z</time>
      </trkpt>
      <trkpt lat="42.579063000" lon="-2.444453000">
        <ele>740.20</ele>
        <time>2017-02-18T08:44:18Z</time>
      </trkpt>
      <trkpt lat="42.578987000" lon="-2.444407000">
        <ele>739.50</ele>
        <time>2017-02-18T08:44:19Z</time>
      </trkpt>
      <trkpt lat="42.578917000" lon="-2.444361000">
        <ele>739.00</ele>
        <time>2017-02-18T08:44:20Z</time>
      </trkpt>
      <trkpt lat="42.578848000" lon="-2.444312000">
        <ele>738.60</ele>
        <time>2017-02-18T08:44:21Z</time>
      </trkpt>
      <trkpt lat="42.578782000" lon="-2.444266000">
        <ele>738.90</ele>
        <time>2017-02-18T08:44:22Z</time>
      </trkpt>
      <trkpt lat="42.578718000" lon="-2.444222000">
        <ele>739.10</ele>
        <time>2017-02-18T08:44:23Z</time>
      </trkpt>
      <trkpt lat="42.578659000" lon="-2.444182000">
        <ele>739.20</ele>
        <time>2017-02-18T08:44:24Z</time>
      </trkpt>
      <trkpt lat="42.578602000" lon="-2.444144000">
        <ele>739.30</ele>
        <time>2017-02-18T08:44:25Z</time>
      </trkpt>
      <trkpt lat="42.578546000" lon="-2.444108000">
        <ele>739.10</ele>
        <time>2017-02-18T08:44:26Z</time>
      </trkpt>
      <trkpt lat="42.578493000" lon="-2.444072000">
        <ele>739.00</ele>
        <time>2017-02-18T08:44:27Z</time>
      </trkpt>
      <trkpt lat="42.578442000" lon="-2.444038000">
        <ele>738.90</ele>
        <time>2017-02-18T08:44:28Z</time>
      </trkpt>
      <trkpt lat="42.578394000" lon="-2.444006000">
        <ele>738.80</ele>
        <time>2017-02-18T08:44:29Z</time>
      </trkpt>
      <trkpt lat="42.578354000" lon="-2.443984000">
        <ele>738.70</ele>
        <time>2017-02-18T08:44:30Z</time>
      </trkpt>
      <trkpt lat="42.578322000" lon="-2.443963000">
        <ele>738.70</ele>
        <time>2017-02-18T08:44:31Z</time>
      </trkpt>
      <trkpt lat="42.578300000" lon="-2.443941000">
        <ele>738.60</ele>
        <time>2017-02-18T08:44:32Z</time>
      </trkpt>
      <trkpt lat="42.578272000" lon="-2.443928000">
        <ele>738.50</ele>
        <time>2017-02-18T08:44:33Z</time>
      </trkpt>
      <trkpt lat="42.578212000" lon="-2.443889000">
        <ele>738.40</ele>
        <time>2017-02-18T08:44:35Z</time>
      </trkpt>
      <trkpt lat="42.578184000" lon="-2.443868000">
        <ele>738.20</ele>
        <time>2017-02-18T08:44:36Z</time>
      </trkpt>
      <trkpt lat="42.578158000" lon="-2.443846000">
        <ele>738.00</ele>
        <time>2017-02-18T08:44:37Z</time>
      </trkpt>
      <trkpt lat="42.578132000" lon="-2.443826000">
        <ele>737.90</ele>
        <time>2017-02-18T08:44:38Z</time>
      </trkpt>
      <trkpt lat="42.578105000" lon="-2.443797000">
        <ele>737.80</ele>
        <time>2017-02-18T08:44:39Z</time>
      </trkpt>
      <trkpt lat="42.578075000" lon="-2.443772000">
        <ele>737.70</ele>
        <time>2017-02-18T08:44:40Z</time>
      </trkpt>
      <trkpt lat="42.578044000" lon="-2.443742000">
        <ele>737.70</ele>
        <time>2017-02-18T08:44:41Z</time>
      </trkpt>
      <trkpt lat="42.578011000" lon="-2.443709000">
        <ele>737.60</ele>
        <time>2017-02-18T08:44:42Z</time>
      </trkpt>
      <trkpt lat="42.577976000" lon="-2.443675000">
        <ele>737.50</ele>
        <time>2017-02-18T08:44:43Z</time>
      </trkpt>
      <trkpt lat="42.577940000" lon="-2.443642000">
        <ele>737.40</ele>
        <time>2017-02-18T08:44:44Z</time>
      </trkpt>
      <trkpt lat="42.577906000" lon="-2.443607000">
        <ele>737.40</ele>
        <time>2017-02-18T08:44:45Z</time>
      </trkpt>
      <trkpt lat="42.577873000" lon="-2.443576000">
        <ele>737.70</ele>
        <time>2017-02-18T08:44:46Z</time>
      </trkpt>
      <trkpt lat="42.577839000" lon="-2.443544000">
        <ele>738.00</ele>
        <time>2017-02-18T08:44:47Z</time>
      </trkpt>
      <trkpt lat="42.577805000" lon="-2.443512000">
        <ele>738.20</ele>
        <time>2017-02-18T08:44:48Z</time>
      </trkpt>
      <trkpt lat="42.577770000" lon="-2.443481000">
        <ele>738.30</ele>
        <time>2017-02-18T08:44:49Z</time>
      </trkpt>
      <trkpt lat="42.577736000" lon="-2.443450000">
        <ele>738.40</ele>
        <time>2017-02-18T08:44:50Z</time>
      </trkpt>
      <trkpt lat="42.577702000" lon="-2.443422000">
        <ele>738.50</ele>
        <time>2017-02-18T08:44:51Z</time>
      </trkpt>
      <trkpt lat="42.577669000" lon="-2.443394000">
        <ele>738.50</ele>
        <time>2017-02-18T08:44:52Z</time>
      </trkpt>
      <trkpt lat="42.577637000" lon="-2.443368000">
        <ele>738.40</ele>
        <time>2017-02-18T08:44:53Z</time>
      </trkpt>
      <trkpt lat="42.577606000" lon="-2.443339000">
        <ele>738.50</ele>
        <time>2017-02-18T08:44:54Z</time>
      </trkpt>
      <trkpt lat="42.577575000" lon="-2.443309000">
        <ele>738.60</ele>
        <time>2017-02-18T08:44:55Z</time>
      </trkpt>
      <trkpt lat="42.577544000" lon="-2.443275000">
        <ele>738.60</ele>
        <time>2017-02-18T08:44:56Z</time>
      </trkpt>
      <trkpt lat="42.577512000" lon="-2.443243000">
        <ele>738.70</ele>
        <time>2017-02-18T08:44:57Z</time>
      </trkpt>
      <trkpt lat="42.577479000" lon="-2.443210000">
        <ele>738.70</ele>
        <time>2017-02-18T08:44:58Z</time>
      </trkpt>
      <trkpt lat="42.577449000" lon="-2.443177000">
        <ele>738.70</ele>
        <time>2017-02-18T08:44:59Z</time>
      </trkpt>
      <trkpt lat="42.577415000" lon="-2.443146000">
        <ele>739.00</ele>
        <time>2017-02-18T08:45:00Z</time>
      </trkpt>
      <trkpt lat="42.577380000" lon="-2.443111000">
        <ele>739.20</ele>
        <time>2017-02-18T08:45:01Z</time>
      </trkpt>
      <trkpt lat="42.577348000" lon="-2.443080000">
        <ele>739.80</ele>
        <time>2017-02-18T08:45:02Z</time>
      </trkpt>
      <trkpt lat="42.577317000" lon="-2.443050000">
        <ele>740.30</ele>
        <time>2017-02-18T08:45:03Z</time>
      </trkpt>
      <trkpt lat="42.577288000" lon="-2.443022000">
        <ele>740.60</ele>
        <time>2017-02-18T08:45:04Z</time>
      </trkpt>
      <trkpt lat="42.577258000" lon="-2.442990000">
        <ele>740.90</ele>
        <time>2017-02-18T08:45:05Z</time>
      </trkpt>
      <trkpt lat="42.577224000" lon="-2.442958000">
        <ele>741.00</ele>
        <time>2017-02-18T08:45:06Z</time>
      </trkpt>
      <trkpt lat="42.577191000" lon="-2.442928000">
        <ele>741.00</ele>
        <time>2017-02-18T08:45:07Z</time>
      </trkpt>
      <trkpt lat="42.577158000" lon="-2.442898000">
        <ele>741.10</ele>
        <time>2017-02-18T08:45:08Z</time>
      </trkpt>
      <trkpt lat="42.577125000" lon="-2.442870000">
        <ele>741.10</ele>
        <time>2017-02-18T08:45:09Z</time>
      </trkpt>
      <trkpt lat="42.577093000" lon="-2.442839000">
        <ele>741.20</ele>
        <time>2017-02-18T08:45:10Z</time>
      </trkpt>
      <trkpt lat="42.577062000" lon="-2.442811000">
        <ele>741.40</ele>
        <time>2017-02-18T08:45:11Z</time>
      </trkpt>
      <trkpt lat="42.577032000" lon="-2.442783000">
        <ele>741.60</ele>
        <time>2017-02-18T08:45:12Z</time>
      </trkpt>
      <trkpt lat="42.577003000" lon="-2.442750000">
        <ele>741.90</ele>
        <time>2017-02-18T08:45:13Z</time>
      </trkpt>
      <trkpt lat="42.576973000" lon="-2.442717000">
        <ele>742.00</ele>
        <time>2017-02-18T08:45:14Z</time>
      </trkpt>
      <trkpt lat="42.576940000" lon="-2.442681000">
        <ele>742.10</ele>
        <time>2017-02-18T08:45:15Z</time>
      </trkpt>
      <trkpt lat="42.576905000" lon="-2.442644000">
        <ele>742.20</ele>
        <time>2017-02-18T08:45:16Z</time>
      </trkpt>
      <trkpt lat="42.576871000" lon="-2.442603000">
        <ele>742.30</ele>
        <time>2017-02-18T08:45:17Z</time>
      </trkpt>
      <trkpt lat="42.576832000" lon="-2.442556000">
        <ele>742.20</ele>
        <time>2017-02-18T08:45:18Z</time>
      </trkpt>
      <trkpt lat="42.576791000" lon="-2.442510000">
        <ele>742.10</ele>
        <time>2017-02-18T08:45:19Z</time>
      </trkpt>
      <trkpt lat="42.576748000" lon="-2.442464000">
        <ele>742.10</ele>
        <time>2017-02-18T08:45:20Z</time>
      </trkpt>
      <trkpt lat="42.576702000" lon="-2.442410000">
        <ele>742.10</ele>
        <time>2017-02-18T08:45:21Z</time>
      </trkpt>
      <trkpt lat="42.576652000" lon="-2.442350000">
        <ele>741.60</ele>
        <time>2017-02-18T08:45:22Z</time>
      </trkpt>
      <trkpt lat="42.576600000" lon="-2.442289000">
        <ele>741.30</ele>
        <time>2017-02-18T08:45:23Z</time>
      </trkpt>
      <trkpt lat="42.576549000" lon="-2.442229000">
        <ele>740.90</ele>
        <time>2017-02-18T08:45:24Z</time>
      </trkpt>
      <trkpt lat="42.576494000" lon="-2.442167000">
        <ele>740.60</ele>
        <time>2017-02-18T08:45:25Z</time>
      </trkpt>
      <trkpt lat="42.576436000" lon="-2.442108000">
        <ele>739.30</ele>
        <time>2017-02-18T08:45:26Z</time>
      </trkpt>
      <trkpt lat="42.576376000" lon="-2.442052000">
        <ele>738.40</ele>
        <time>2017-02-18T08:45:27Z</time>
      </trkpt>
      <trkpt lat="42.576315000" lon="-2.442005000">
        <ele>737.40</ele>
        <time>2017-02-18T08:45:28Z</time>
      </trkpt>
      <trkpt lat="42.576247000" lon="-2.441962000">
        <ele>736.60</ele>
        <time>2017-02-18T08:45:29Z</time>
      </trkpt>
      <trkpt lat="42.576171000" lon="-2.441924000">
        <ele>736.10</ele>
        <time>2017-02-18T08:45:30Z</time>
      </trkpt>
      <trkpt lat="42.576088000" lon="-2.441887000">
        <ele>735.60</ele>
        <time>2017-02-18T08:45:31Z</time>
      </trkpt>
      <trkpt lat="42.576004000" lon="-2.441854000">
        <ele>734.80</ele>
        <time>2017-02-18T08:45:32Z</time>
      </trkpt>
      <trkpt lat="42.575925000" lon="-2.441827000">
        <ele>734.20</ele>
        <time>2017-02-18T08:45:33Z</time>
      </trkpt>
      <trkpt lat="42.575845000" lon="-2.441791000">
        <ele>733.70</ele>
        <time>2017-02-18T08:45:34Z</time>
      </trkpt>
      <trkpt lat="42.575688000" lon="-2.441714000">
        <ele>731.80</ele>
        <time>2017-02-18T08:45:36Z</time>
      </trkpt>
      <trkpt lat="42.575620000" lon="-2.441667000">
        <ele>730.70</ele>
        <time>2017-02-18T08:45:37Z</time>
      </trkpt>
      <trkpt lat="42.575547000" lon="-2.441615000">
        <ele>729.30</ele>
        <time>2017-02-18T08:45:38Z</time>
      </trkpt>
      <trkpt lat="42.575471000" lon="-2.441558000">
        <ele>728.30</ele>
        <time>2017-02-18T08:45:39Z</time>
      </trkpt>
      <trkpt lat="42.575392000" lon="-2.441496000">
        <ele>726.60</ele>
        <time>2017-02-18T08:45:40Z</time>
      </trkpt>
      <trkpt lat="42.575311000" lon="-2.441426000">
        <ele>725.40</ele>
        <time>2017-02-18T08:45:41Z</time>
      </trkpt>
      <trkpt lat="42.575229000" lon="-2.441355000">
        <ele>724.40</ele>
        <time>2017-02-18T08:45:42Z</time>
      </trkpt>
      <trkpt lat="42.575146000" lon="-2.441289000">
        <ele>723.70</ele>
        <time>2017-02-18T08:45:43Z</time>
      </trkpt>
      <trkpt lat="42.575064000" lon="-2.441217000">
        <ele>722.90</ele>
        <time>2017-02-18T08:45:44Z</time>
      </trkpt>
      <trkpt lat="42.574981000" lon="-2.441149000">
        <ele>722.30</ele>
        <time>2017-02-18T08:45:45Z</time>
      </trkpt>
      <trkpt lat="42.574898000" lon="-2.441074000">
        <ele>721.50</ele>
        <time>2017-02-18T08:45:46Z</time>
      </trkpt>
      <trkpt lat="42.574816000" lon="-2.440999000">
        <ele>720.90</ele>
        <time>2017-02-18T08:45:47Z</time>
      </trkpt>
      <trkpt lat="42.574733000" lon="-2.440924000">
        <ele>719.90</ele>
        <time>2017-02-18T08:45:48Z</time>
      </trkpt>
      <trkpt lat="42.574650000" lon="-2.440850000">
        <ele>719.10</ele>
        <time>2017-02-18T08:45:49Z</time>
      </trkpt>
      <trkpt lat="42.574568000" lon="-2.440775000">
        <ele>718.10</ele>
        <time>2017-02-18T08:45:50Z</time>
      </trkpt>
      <trkpt lat="42.574485000" lon="-2.440703000">
        <ele>717.30</ele>
        <time>2017-02-18T08:45:51Z</time>
      </trkpt>
      <trkpt lat="42.574402000" lon="-2.440627000">
        <ele>716.40</ele>
        <time>2017-02-18T08:45:52Z</time>
      </trkpt>
      <trkpt lat="42.574320000" lon="-2.440552000">
        <ele>715.80</ele>
        <time>2017-02-18T08:45:53Z</time>
      </trkpt>
      <trkpt lat="42.574238000" lon="-2.440480000">
        <ele>715.20</ele>
        <time>2017-02-18T08:45:54Z</time>
      </trkpt>
      <trkpt lat="42.574157000" lon="-2.440409000">
        <ele>714.70</ele>
        <time>2017-02-18T08:45:55Z</time>
      </trkpt>
      <trkpt lat="42.574077000" lon="-2.440336000">
        <ele>714.20</ele>
        <time>2017-02-18T08:45:56Z</time>
      </trkpt>
      <trkpt lat="42.573997000" lon="-2.440260000">
        <ele>713.80</ele>
        <time>2017-02-18T08:45:57Z</time>
      </trkpt>
      <trkpt lat="42.573917000" lon="-2.440186000">
        <ele>713.10</ele>
        <time>2017-02-18T08:45:58Z</time>
      </trkpt>
      <trkpt lat="42.573836000" lon="-2.440114000">
        <ele>712.50</ele>
        <time>2017-02-18T08:45:59Z</time>
      </trkpt>
      <trkpt lat="42.573755000" lon="-2.440042000">
        <ele>711.90</ele>
        <time>2017-02-18T08:46:00Z</time>
      </trkpt>
      <trkpt lat="42.573680000" lon="-2.439962000">
        <ele>711.50</ele>
        <time>2017-02-18T08:46:01Z</time>
      </trkpt>
      <trkpt lat="42.573605000" lon="-2.439889000">
        <ele>711.10</ele>
        <time>2017-02-18T08:46:02Z</time>
      </trkpt>
      <trkpt lat="42.573534000" lon="-2.439819000">
        <ele>710.90</ele>
        <time>2017-02-18T08:46:03Z</time>
      </trkpt>
      <trkpt lat="42.573467000" lon="-2.439751000">
        <ele>710.50</ele>
        <time>2017-02-18T08:46:04Z</time>
      </trkpt>
      <trkpt lat="42.573406000" lon="-2.439684000">
        <ele>710.20</ele>
        <time>2017-02-18T08:46:05Z</time>
      </trkpt>
      <trkpt lat="42.573344000" lon="-2.439623000">
        <ele>709.40</ele>
        <time>2017-02-18T08:46:06Z</time>
      </trkpt>
      <trkpt lat="42.573290000" lon="-2.439556000">
        <ele>708.80</ele>
        <time>2017-02-18T08:46:07Z</time>
      </trkpt>
      <trkpt lat="42.573239000" lon="-2.439487000">
        <ele>708.50</ele>
        <time>2017-02-18T08:46:08Z</time>
      </trkpt>
      <trkpt lat="42.573190000" lon="-2.439414000">
        <ele>708.40</ele>
        <time>2017-02-18T08:46:09Z</time>
      </trkpt>
      <trkpt lat="42.573140000" lon="-2.439347000">
        <ele>708.20</ele>
        <time>2017-02-18T08:46:10Z</time>
      </trkpt>
      <trkpt lat="42.573097000" lon="-2.439287000">
        <ele>708.20</ele>
        <time>2017-02-18T08:46:11Z</time>
      </trkpt>
      <trkpt lat="42.573053000" lon="-2.439229000">
        <ele>708.30</ele>
        <time>2017-02-18T08:46:12Z</time>
      </trkpt>
      <trkpt lat="42.573013000" lon="-2.439176000">
        <ele>708.50</ele>
        <time>2017-02-18T08:46:13Z</time>
      </trkpt>
      <trkpt lat="42.572974000" lon="-2.439118000">
        <ele>708.60</ele>
        <time>2017-02-18T08:46:14Z</time>
      </trkpt>
      <trkpt lat="42.572936000" lon="-2.439065000">
        <ele>708.70</ele>
        <time>2017-02-18T08:46:15Z</time>
      </trkpt>
      <trkpt lat="42.572900000" lon="-2.439011000">
        <ele>708.90</ele>
        <time>2017-02-18T08:46:16Z</time>
      </trkpt>
      <trkpt lat="42.572866000" lon="-2.438957000">
        <ele>709.00</ele>
        <time>2017-02-18T08:46:17Z</time>
      </trkpt>
      <trkpt lat="42.572831000" lon="-2.438909000">
        <ele>709.10</ele>
        <time>2017-02-18T08:46:18Z</time>
      </trkpt>
      <trkpt lat="42.572799000" lon="-2.438860000">
        <ele>709.20</ele>
        <time>2017-02-18T08:46:19Z</time>
      </trkpt>
      <trkpt lat="42.572771000" lon="-2.438818000">
        <ele>709.50</ele>
        <time>2017-02-18T08:46:20Z</time>
      </trkpt>
      <trkpt lat="42.572740000" lon="-2.438781000">
        <ele>709.70</ele>
        <time>2017-02-18T08:46:21Z</time>
      </trkpt>
      <trkpt lat="42.572708000" lon="-2.438737000">
        <ele>709.70</ele>
        <time>2017-02-18T08:46:22Z</time>
      </trkpt>
      <trkpt lat="42.572671000" lon="-2.438694000">
        <ele>709.70</ele>
        <time>2017-02-18T08:46:23Z</time>
      </trkpt>
      <trkpt lat="42.572632000" lon="-2.438645000">
        <ele>709.90</ele>
        <time>2017-02-18T08:46:24Z</time>
      </trkpt>
      <trkpt lat="42.572585000" lon="-2.438593000">
        <ele>710.00</ele>
        <time>2017-02-18T08:46:25Z</time>
      </trkpt>
      <trkpt lat="42.572534000" lon="-2.438537000">
        <ele>710.00</ele>
        <time>2017-02-18T08:46:26Z</time>
      </trkpt>
      <trkpt lat="42.572478000" lon="-2.438477000">
        <ele>709.90</ele>
        <time>2017-02-18T08:46:27Z</time>
      </trkpt>
      <trkpt lat="42.572415000" lon="-2.438418000">
        <ele>709.50</ele>
        <time>2017-02-18T08:46:28Z</time>
      </trkpt>
      <trkpt lat="42.572350000" lon="-2.438356000">
        <ele>709.20</ele>
        <time>2017-02-18T08:46:29Z</time>
      </trkpt>
      <trkpt lat="42.572280000" lon="-2.438287000">
        <ele>708.50</ele>
        <time>2017-02-18T08:46:30Z</time>
      </trkpt>
      <trkpt lat="42.572206000" lon="-2.438213000">
        <ele>707.90</ele>
        <time>2017-02-18T08:46:31Z</time>
      </trkpt>
      <trkpt lat="42.572129000" lon="-2.438136000">
        <ele>707.10</ele>
        <time>2017-02-18T08:46:32Z</time>
      </trkpt>
      <trkpt lat="42.572048000" lon="-2.438057000">
        <ele>706.40</ele>
        <time>2017-02-18T08:46:33Z</time>
      </trkpt>
      <trkpt lat="42.571965000" lon="-2.437973000">
        <ele>705.60</ele>
        <time>2017-02-18T08:46:34Z</time>
      </trkpt>
      <trkpt lat="42.571881000" lon="-2.437887000">
        <ele>705.10</ele>
        <time>2017-02-18T08:46:35Z</time>
      </trkpt>
      <trkpt lat="42.571709000" lon="-2.437718000">
        <ele>703.60</ele>
        <time>2017-02-18T08:46:37Z</time>
      </trkpt>
      <trkpt lat="42.571624000" lon="-2.437636000">
        <ele>702.80</ele>
        <time>2017-02-18T08:46:38Z</time>
      </trkpt>
      <trkpt lat="42.571543000" lon="-2.437556000">
        <ele>702.20</ele>
        <time>2017-02-18T08:46:39Z</time>
      </trkpt>
      <trkpt lat="42.571460000" lon="-2.437473000">
        <ele>701.30</ele>
        <time>2017-02-18T08:46:40Z</time>
      </trkpt>
      <trkpt lat="42.571378000" lon="-2.437390000">
        <ele>700.60</ele>
        <time>2017-02-18T08:46:41Z</time>
      </trkpt>
      <trkpt lat="42.571296000" lon="-2.437309000">
        <ele>700.10</ele>
        <time>2017-02-18T08:46:42Z</time>
      </trkpt>
      <trkpt lat="42.571215000" lon="-2.437226000">
        <ele>699.70</ele>
        <time>2017-02-18T08:46:43Z</time>
      </trkpt>
      <trkpt lat="42.571132000" lon="-2.437145000">
        <ele>698.80</ele>
        <time>2017-02-18T08:46:44Z</time>
      </trkpt>
      <trkpt lat="42.571049000" lon="-2.437065000">
        <ele>698.10</ele>
        <time>2017-02-18T08:46:45Z</time>
      </trkpt>
      <trkpt lat="42.570965000" lon="-2.436984000">
        <ele>697.50</ele>
        <time>2017-02-18T08:46:46Z</time>
      </trkpt>
      <trkpt lat="42.570879000" lon="-2.436905000">
        <ele>697.10</ele>
        <time>2017-02-18T08:46:47Z</time>
      </trkpt>
      <trkpt lat="42.570791000" lon="-2.436827000">
        <ele>696.50</ele>
        <time>2017-02-18T08:46:48Z</time>
      </trkpt>
      <trkpt lat="42.570701000" lon="-2.436748000">
        <ele>696.00</ele>
        <time>2017-02-18T08:46:49Z</time>
      </trkpt>
      <trkpt lat="42.570607000" lon="-2.436667000">
        <ele>695.50</ele>
        <time>2017-02-18T08:46:50Z</time>
      </trkpt>
      <trkpt lat="42.570509000" lon="-2.436592000">
        <ele>695.10</ele>
        <time>2017-02-18T08:46:51Z</time>
      </trkpt>
      <trkpt lat="42.570408000" lon="-2.436521000">
        <ele>694.70</ele>
        <time>2017-02-18T08:46:52Z</time>
      </trkpt>
      <trkpt lat="42.570310000" lon="-2.436455000">
        <ele>694.40</ele>
        <time>2017-02-18T08:46:53Z</time>
      </trkpt>
      <trkpt lat="42.570218000" lon="-2.436383000">
        <ele>692.90</ele>
        <time>2017-02-18T08:46:54Z</time>
      </trkpt>
      <trkpt lat="42.570132000" lon="-2.436311000">
        <ele>691.70</ele>
        <time>2017-02-18T08:46:55Z</time>
      </trkpt>
      <trkpt lat="42.570053000" lon="-2.436232000">
        <ele>690.80</ele>
        <time>2017-02-18T08:46:56Z</time>
      </trkpt>
      <trkpt lat="42.569975000" lon="-2.436147000">
        <ele>690.10</ele>
        <time>2017-02-18T08:46:57Z</time>
      </trkpt>
      <trkpt lat="42.569901000" lon="-2.436052000">
        <ele>688.10</ele>
        <time>2017-02-18T08:46:58Z</time>
      </trkpt>
      <trkpt lat="42.569828000" lon="-2.435961000">
        <ele>686.70</ele>
        <time>2017-02-18T08:46:59Z</time>
      </trkpt>
      <trkpt lat="42.569756000" lon="-2.435865000">
        <ele>685.20</ele>
        <time>2017-02-18T08:47:00Z</time>
      </trkpt>
      <trkpt lat="42.569682000" lon="-2.435762000">
        <ele>684.10</ele>
        <time>2017-02-18T08:47:01Z</time>
      </trkpt>
      <trkpt lat="42.569608000" lon="-2.435661000">
        <ele>682.10</ele>
        <time>2017-02-18T08:47:02Z</time>
      </trkpt>
      <trkpt lat="42.569536000" lon="-2.435558000">
        <ele>680.50</ele>
        <time>2017-02-18T08:47:03Z</time>
      </trkpt>
      <trkpt lat="42.569460000" lon="-2.435455000">
        <ele>678.80</ele>
        <time>2017-02-18T08:47:04Z</time>
      </trkpt>
      <trkpt lat="42.569386000" lon="-2.435352000">
        <ele>677.50</ele>
        <time>2017-02-18T08:47:05Z</time>
      </trkpt>
      <trkpt lat="42.569316000" lon="-2.435254000">
        <ele>675.30</ele>
        <time>2017-02-18T08:47:06Z</time>
      </trkpt>
      <trkpt lat="42.569246000" lon="-2.435159000">
        <ele>673.60</ele>
        <time>2017-02-18T08:47:07Z</time>
      </trkpt>
      <trkpt lat="42.569175000" lon="-2.435065000">
        <ele>671.90</ele>
        <time>2017-02-18T08:47:08Z</time>
      </trkpt>
      <trkpt lat="42.569103000" lon="-2.434973000">
        <ele>670.60</ele>
        <time>2017-02-18T08:47:09Z</time>
      </trkpt>
      <trkpt lat="42.569028000" lon="-2.434881000">
        <ele>669.00</ele>
        <time>2017-02-18T08:47:10Z</time>
      </trkpt>
      <trkpt lat="42.568954000" lon="-2.434792000">
        <ele>667.90</ele>
        <time>2017-02-18T08:47:11Z</time>
      </trkpt>
      <trkpt lat="42.568877000" lon="-2.434702000">
        <ele>666.80</ele>
        <time>2017-02-18T08:47:12Z</time>
      </trkpt>
      <trkpt lat="42.568800000" lon="-2.434614000">
        <ele>666.00</ele>
        <time>2017-02-18T08:47:13Z</time>
      </trkpt>
      <trkpt lat="42.568722000" lon="-2.434525000">
        <ele>664.50</ele>
        <time>2017-02-18T08:47:14Z</time>
      </trkpt>
      <trkpt lat="42.568648000" lon="-2.434441000">
        <ele>663.40</ele>
        <time>2017-02-18T08:47:15Z</time>
      </trkpt>
      <trkpt lat="42.568574000" lon="-2.434365000">
        <ele>661.90</ele>
        <time>2017-02-18T08:47:16Z</time>
      </trkpt>
      <trkpt lat="42.568500000" lon="-2.434297000">
        <ele>660.80</ele>
        <time>2017-02-18T08:47:17Z</time>
      </trkpt>
      <trkpt lat="42.568416000" lon="-2.434237000">
        <ele>659.10</ele>
        <time>2017-02-18T08:47:18Z</time>
      </trkpt>
      <trkpt lat="42.568324000" lon="-2.434184000">
        <ele>657.70</ele>
        <time>2017-02-18T08:47:19Z</time>
      </trkpt>
      <trkpt lat="42.568226000" lon="-2.434142000">
        <ele>656.50</ele>
        <time>2017-02-18T08:47:20Z</time>
      </trkpt>
      <trkpt lat="42.568129000" lon="-2.434116000">
        <ele>655.60</ele>
        <time>2017-02-18T08:47:21Z</time>
      </trkpt>
      <trkpt lat="42.568037000" lon="-2.434107000">
        <ele>654.00</ele>
        <time>2017-02-18T08:47:22Z</time>
      </trkpt>
      <trkpt lat="42.567951000" lon="-2.434108000">
        <ele>652.90</ele>
        <time>2017-02-18T08:47:23Z</time>
      </trkpt>
      <trkpt lat="42.567872000" lon="-2.434112000">
        <ele>651.90</ele>
        <time>2017-02-18T08:47:24Z</time>
      </trkpt>
      <trkpt lat="42.567788000" lon="-2.434116000">
        <ele>651.20</ele>
        <time>2017-02-18T08:47:25Z</time>
      </trkpt>
      <trkpt lat="42.567698000" lon="-2.434121000">
        <ele>649.60</ele>
        <time>2017-02-18T08:47:26Z</time>
      </trkpt>
      <trkpt lat="42.567606000" lon="-2.434125000">
        <ele>648.40</ele>
        <time>2017-02-18T08:47:27Z</time>
      </trkpt>
      <trkpt lat="42.567509000" lon="-2.434124000">
        <ele>647.00</ele>
        <time>2017-02-18T08:47:28Z</time>
      </trkpt>
      <trkpt lat="42.567410000" lon="-2.434122000">
        <ele>646.10</ele>
        <time>2017-02-18T08:47:29Z</time>
      </trkpt>
      <trkpt lat="42.567312000" lon="-2.434122000">
        <ele>644.20</ele>
        <time>2017-02-18T08:47:30Z</time>
      </trkpt>
      <trkpt lat="42.567222000" lon="-2.434132000">
        <ele>642.80</ele>
        <time>2017-02-18T08:47:31Z</time>
      </trkpt>
      <trkpt lat="42.567139000" lon="-2.434140000">
        <ele>641.30</ele>
        <time>2017-02-18T08:47:32Z</time>
      </trkpt>
      <trkpt lat="42.567062000" lon="-2.434143000">
        <ele>640.30</ele>
        <time>2017-02-18T08:47:33Z</time>
      </trkpt>
      <trkpt lat="42.566988000" lon="-2.434135000">
        <ele>638.70</ele>
        <time>2017-02-18T08:47:34Z</time>
      </trkpt>
      <trkpt lat="42.566917000" lon="-2.434125000">
        <ele>637.60</ele>
        <time>2017-02-18T08:47:35Z</time>
      </trkpt>
      <trkpt lat="42.566849000" lon="-2.434119000">
        <ele>636.30</ele>
        <time>2017-02-18T08:47:36Z</time>
      </trkpt>
      <trkpt lat="42.566723000" lon="-2.434111000">
        <ele>633.60</ele>
        <time>2017-02-18T08:47:38Z</time>
      </trkpt>
      <trkpt lat="42.566667000" lon="-2.434100000">
        <ele>632.40</ele>
        <time>2017-02-18T08:47:39Z</time>
      </trkpt>
      <trkpt lat="42.566624000" lon="-2.434093000">
        <ele>630.40</ele>
        <time>2017-02-18T08:47:40Z</time>
      </trkpt>
      <trkpt lat="42.566587000" lon="-2.434084000">
        <ele>628.90</ele>
        <time>2017-02-18T08:47:41Z</time>
      </trkpt>
      <trkpt lat="42.566565000" lon="-2.434066000">
        <ele>627.70</ele>
        <time>2017-02-18T08:47:42Z</time>
      </trkpt>
      <trkpt lat="42.566550000" lon="-2.434035000">
        <ele>626.80</ele>
        <time>2017-02-18T08:47:43Z</time>
      </trkpt>
      <trkpt lat="42.566541000" lon="-2.434002000">
        <ele>626.10</ele>
        <time>2017-02-18T08:47:44Z</time>
      </trkpt>
      <trkpt lat="42.566542000" lon="-2.433972000">
        <ele>625.50</ele>
        <time>2017-02-18T08:47:45Z</time>
      </trkpt>
      <trkpt lat="42.566552000" lon="-2.433946000">
        <ele>625.10</ele>
        <time>2017-02-18T08:47:46Z</time>
      </trkpt>
      <trkpt lat="42.566565000" lon="-2.433923000">
        <ele>624.70</ele>
        <time>2017-02-18T08:47:47Z</time>
      </trkpt>
      <trkpt lat="42.566572000" lon="-2.433920000">
        <ele>624.40</ele>
        <time>2017-02-18T08:47:48Z</time>
      </trkpt>
      <trkpt lat="42.566574000" lon="-2.433918000">
        <ele>624.20</ele>
        <time>2017-02-18T08:47:49Z</time>
      </trkpt>
      <trkpt lat="42.566576000" lon="-2.433914000">
        <ele>623.90</ele>
        <time>2017-02-18T08:47:50Z</time>
      </trkpt>
      <trkpt lat="42.566576000" lon="-2.433920000">
        <ele>623.70</ele>
        <time>2017-02-18T08:47:51Z</time>
      </trkpt>
      <trkpt lat="42.566573000" lon="-2.433926000">
        <ele>623.50</ele>
        <time>2017-02-18T08:47:52Z</time>
      </trkpt>
      <trkpt lat="42.566571000" lon="-2.433931000">
        <ele>623.40</ele>
        <time>2017-02-18T08:47:53Z</time>
      </trkpt>
      <trkpt lat="42.566572000" lon="-2.433933000">
        <ele>623.30</ele>
        <time>2017-02-18T08:47:54Z</time>
      </trkpt>
      <trkpt lat="42.566574000" lon="-2.433933000">
        <ele>623.20</ele>
        <time>2017-02-18T08:47:55Z</time>
      </trkpt>
      <trkpt lat="42.566574000" lon="-2.433931000">
        <ele>623.20</ele>
        <time>2017-02-18T08:47:56Z</time>
      </trkpt>
      <trkpt lat="42.566574000" lon="-2.433931000">
        <ele>623.20</ele>
        <time>2017-02-18T08:47:57Z</time>
      </trkpt>
      <trkpt lat="42.566575000" lon="-2.433930000">
        <ele>623.20</ele>
        <time>2017-02-18T08:47:58Z</time>
      </trkpt>
      <trkpt lat="42.566578000" lon="-2.433929000">
        <ele>623.20</ele>
        <time>2017-02-18T08:47:59Z</time>
      </trkpt>
      <trkpt lat="42.566580000" lon="-2.433928000">
        <ele>623.20</ele>
        <time>2017-02-18T08:48:00Z</time>
      </trkpt>
      <trkpt lat="42.566580000" lon="-2.433926000">
        <ele>623.20</ele>
        <time>2017-02-18T08:48:01Z</time>
      </trkpt>
      <trkpt lat="42.566580000" lon="-2.433925000">
        <ele>623.10</ele>
        <time>2017-02-18T08:48:02Z</time>
      </trkpt>
      <trkpt lat="42.566580000" lon="-2.433926000">
        <ele>623.10</ele>
        <time>2017-02-18T08:48:03Z</time>
      </trkpt>
      <trkpt lat="42.566579000" lon="-2.433927000">
        <ele>623.10</ele>
        <time>2017-02-18T08:48:04Z</time>
      </trkpt>
      <trkpt lat="42.566579000" lon="-2.433928000">
        <ele>623.10</ele>
        <time>2017-02-18T08:48:05Z</time>
      </trkpt>
      <trkpt lat="42.566579000" lon="-2.433929000">
        <ele>623.10</ele>
        <time>2017-02-18T08:48:06Z</time>
      </trkpt>
      <trkpt lat="42.566580000" lon="-2.433929000">
        <ele>623.20</ele>
        <time>2017-02-18T08:48:07Z</time>
      </trkpt>
      <trkpt lat="42.566581000" lon="-2.433929000">
        <ele>623.20</ele>
        <time>2017-02-18T08:48:08Z</time>
      </trkpt>
      <trkpt lat="42.566582000" lon="-2.433929000">
        <ele>623.20</ele>
        <time>2017-02-18T08:48:09Z</time>
      </trkpt>
      <trkpt lat="42.566583000" lon="-2.433929000">
        <ele>623.10</ele>
        <time>2017-02-18T08:48:10Z</time>
      </trkpt>
      <trkpt lat="42.566583000" lon="-2.433929000">
        <ele>623.10</ele>
        <time>2017-02-18T08:48:11Z</time>
      </trkpt>
      <trkpt lat="42.566583000" lon="-2.433929000">
        <ele>623.00</ele>
        <time>2017-02-18T08:48:12Z</time>
      </trkpt>
      <trkpt lat="42.566583000" lon="-2.433929000">
        <ele>623.00</ele>
        <time>2017-02-18T08:48:13Z</time>
      </trkpt>
      <trkpt lat="42.566582000" lon="-2.433929000">
        <ele>623.00</ele>
        <time>2017-02-18T08:48:14Z</time>
      </trkpt>
      <trkpt lat="42.566582000" lon="-2.433930000">
        <ele>623.10</ele>
        <time>2017-02-18T08:48:15Z</time>
      </trkpt>
      <trkpt lat="42.566582000" lon="-2.433931000">
        <ele>623.10</ele>
        <time>2017-02-18T08:48:16Z</time>
      </trkpt>
      <trkpt lat="42.566582000" lon="-2.433932000">
        <ele>623.10</ele>
        <time>2017-02-18T08:48:17Z</time>
      </trkpt>
      <trkpt lat="42.566583000" lon="-2.433932000">
        <ele>623.10</ele>
        <time>2017-02-18T08:48:18Z</time>
      </trkpt>
      <trkpt lat="42.566583000" lon="-2.433933000">
        <ele>623.20</ele>
        <time>2017-02-18T08:48:19Z</time>
      </trkpt>
      <trkpt lat="42.566584000" lon="-2.433933000">
        <ele>623.20</ele>
        <time>2017-02-18T08:48:20Z</time>
      </trkpt>
      <trkpt lat="42.566585000" lon="-2.433933000">
        <ele>623.20</ele>
        <time>2017-02-18T08:48:21Z</time>
      </trkpt>
      <trkpt lat="42.566585000" lon="-2.433934000">
        <ele>623.30</ele>
        <time>2017-02-18T08:48:22Z</time>
      </trkpt>
      <trkpt lat="42.566585000" lon="-2.433933000">
        <ele>623.30</ele>
        <time>2017-02-18T08:48:23Z</time>
      </trkpt>
      <trkpt lat="42.566586000" lon="-2.433932000">
        <ele>623.40</ele>
        <time>2017-02-18T08:48:24Z</time>
      </trkpt>
      <trkpt lat="42.566586000" lon="-2.433931000">
        <ele>623.40</ele>
        <time>2017-02-18T08:48:25Z</time>
      </trkpt>
      <trkpt lat="42.566586000" lon="-2.433930000">
        <ele>623.60</ele>
        <time>2017-02-18T08:48:26Z</time>
      </trkpt>
      <trkpt lat="42.566586000" lon="-2.433930000">
        <ele>623.60</ele>
        <time>2017-02-18T08:48:27Z</time>
      </trkpt>
      <trkpt lat="42.566585000" lon="-2.433930000">
        <ele>623.70</ele>
        <time>2017-02-18T08:48:28Z</time>
      </trkpt>
      <trkpt lat="42.566584000" lon="-2.433931000">
        <ele>623.70</ele>
        <time>2017-02-18T08:48:29Z</time>
      </trkpt>
      <trkpt lat="42.566583000" lon="-2.433931000">
        <ele>623.80</ele>
        <time>2017-02-18T08:48:30Z</time>
      </trkpt>
      <trkpt lat="42.566582000" lon="-2.433932000">
        <ele>623.80</ele>
        <time>2017-02-18T08:48:31Z</time>
      </trkpt>
      <trkpt lat="42.566581000" lon="-2.433933000">
        <ele>623.70</ele>
        <time>2017-02-18T08:48:32Z</time>
      </trkpt>
      <trkpt lat="42.566581000" lon="-2.433933000">
        <ele>623.60</ele>
        <time>2017-02-18T08:48:33Z</time>
      </trkpt>
      <trkpt lat="42.566580000" lon="-2.433933000">
        <ele>623.60</ele>
        <time>2017-02-18T08:48:34Z</time>
      </trkpt>
      <trkpt lat="42.566579000" lon="-2.433932000">
        <ele>623.50</ele>
        <time>2017-02-18T08:48:35Z</time>
      </trkpt>
      <trkpt lat="42.566579000" lon="-2.433931000">
        <ele>623.50</ele>
        <time>2017-02-18T08:48:36Z</time>
      </trkpt>
      <trkpt lat="42.566579000" lon="-2.433931000">
        <ele>623.40</ele>
        <time>2017-02-18T08:48:37Z</time>
      </trkpt>
      <trkpt lat="42.566577000" lon="-2.433931000">
        <ele>623.50</ele>
        <time>2017-02-18T08:48:39Z</time>
      </trkpt>
      <trkpt lat="42.566576000" lon="-2.433931000">
        <ele>623.50</ele>
        <time>2017-02-18T08:48:40Z</time>
      </trkpt>
      <trkpt lat="42.566575000" lon="-2.433932000">
        <ele>623.60</ele>
        <time>2017-02-18T08:48:41Z</time>
      </trkpt>
      <trkpt lat="42.566574000" lon="-2.433935000">
        <ele>623.70</ele>
        <time>2017-02-18T08:48:42Z</time>
      </trkpt>
      <trkpt lat="42.566573000" lon="-2.433935000">
        <ele>623.80</ele>
        <time>2017-02-18T08:48:43Z</time>
      </trkpt>
      <trkpt lat="42.566573000" lon="-2.433936000">
        <ele>623.80</ele>
        <time>2017-02-18T08:48:44Z</time>
      </trkpt>
      <trkpt lat="42.566571000" lon="-2.433938000">
        <ele>623.70</ele>
        <time>2017-02-18T08:48:45Z</time>
      </trkpt>
      <trkpt lat="42.566572000" lon="-2.433937000">
        <ele>623.70</ele>
        <time>2017-02-18T08:48:46Z</time>
      </trkpt>
      <trkpt lat="42.566573000" lon="-2.433936000">
        <ele>623.70</ele>
        <time>2017-02-18T08:48:47Z</time>
      </trkpt>
      <trkpt lat="42.566572000" lon="-2.433933000">
        <ele>623.60</ele>
        <time>2017-02-18T08:48:48Z</time>
      </trkpt>
      <trkpt lat="42.566572000" lon="-2.433932000">
        <ele>623.50</ele>
        <time>2017-02-18T08:48:49Z</time>
      </trkpt>
      <trkpt lat="42.566574000" lon="-2.433929000">
        <ele>623.50</ele>
        <time>2017-02-18T08:48:50Z</time>
      </trkpt>
      <trkpt lat="42.566575000" lon="-2.433928000">
        <ele>623.50</ele>
        <time>2017-02-18T08:48:51Z</time>
      </trkpt>
      <trkpt lat="42.566575000" lon="-2.433928000">
        <ele>623.60</ele>
        <time>2017-02-18T08:48:52Z</time>
      </trkpt>
      <trkpt lat="42.566574000" lon="-2.433929000">
        <ele>623.80</ele>
        <time>2017-02-18T08:48:53Z</time>
      </trkpt>
      <trkpt lat="42.566575000" lon="-2.433931000">
        <ele>623.90</ele>
        <time>2017-02-18T08:48:54Z</time>
      </trkpt>
      <trkpt lat="42.566575000" lon="-2.433930000">
        <ele>623.90</ele>
        <time>2017-02-18T08:48:55Z</time>
      </trkpt>
      <trkpt lat="42.566575000" lon="-2.433930000">
        <ele>623.80</ele>
        <time>2017-02-18T08:48:56Z</time>
      </trkpt>
      <trkpt lat="42.566576000" lon="-2.433928000">
        <ele>623.70</ele>
        <time>2017-02-18T08:48:57Z</time>
      </trkpt>
      <trkpt lat="42.566578000" lon="-2.433927000">
        <ele>623.60</ele>
        <time>2017-02-18T08:48:58Z</time>
      </trkpt>
      <trkpt lat="42.566579000" lon="-2.433927000">
        <ele>623.60</ele>
        <time>2017-02-18T08:48:59Z</time>
      </trkpt>
      <trkpt lat="42.566580000" lon="-2.433927000">
        <ele>623.50</ele>
        <time>2017-02-18T08:49:00Z</time>
      </trkpt>
      <trkpt lat="42.566581000" lon="-2.433926000">
        <ele>623.50</ele>
        <time>2017-02-18T08:49:01Z</time>
      </trkpt>
      <trkpt lat="42.566581000" lon="-2.433926000">
        <ele>623.60</ele>
        <time>2017-02-18T08:49:02Z</time>
      </trkpt>
      <trkpt lat="42.566581000" lon="-2.433927000">
        <ele>623.60</ele>
        <time>2017-02-18T08:49:03Z</time>
      </trkpt>
      <trkpt lat="42.566582000" lon="-2.433928000">
        <ele>623.60</ele>
        <time>2017-02-18T08:49:04Z</time>
      </trkpt>
      <trkpt lat="42.566582000" lon="-2.433928000">
        <ele>623.70</ele>
        <time>2017-02-18T08:49:05Z</time>
      </trkpt>
      <trkpt lat="42.566582000" lon="-2.433928000">
        <ele>623.70</ele>
        <time>2017-02-18T08:49:06Z</time>
      </trkpt>
      <trkpt lat="42.566583000" lon="-2.433927000">
        <ele>623.70</ele>
        <time>2017-02-18T08:49:07Z</time>
      </trkpt>
      <trkpt lat="42.566592000" lon="-2.433914000">
        <ele>623.70</ele>
        <time>2017-02-18T08:49:08Z</time>
      </trkpt>
      <trkpt lat="42.566608000" lon="-2.433895000">
        <ele>623.70</ele>
        <time>2017-02-18T08:49:09Z</time>
      </trkpt>
      <trkpt lat="42.566627000" lon="-2.433871000">
        <ele>623.60</ele>
        <time>2017-02-18T08:49:10Z</time>
      </trkpt>
      <trkpt lat="42.566651000" lon="-2.433848000">
        <ele>623.60</ele>
        <time>2017-02-18T08:49:11Z</time>
      </trkpt>
      <trkpt lat="42.566681000" lon="-2.433820000">
        <ele>623.20</ele>
        <time>2017-02-18T08:49:12Z</time>
      </trkpt>
      <trkpt lat="42.566710000" lon="-2.433800000">
        <ele>623.00</ele>
        <time>2017-02-18T08:49:13Z</time>
      </trkpt>
      <trkpt lat="42.566732000" lon="-2.433788000">
        <ele>622.70</ele>
        <time>2017-02-18T08:49:14Z</time>
      </trkpt>
      <trkpt lat="42.566752000" lon="-2.433777000">
        <ele>622.50</ele>
        <time>2017-02-18T08:49:15Z</time>
      </trkpt>
      <trkpt lat="42.566772000" lon="-2.433764000">
        <ele>622.30</ele>
        <time>2017-02-18T08:49:16Z</time>
      </trkpt>
      <trkpt lat="42.566791000" lon="-2.433748000">
        <ele>622.10</ele>
        <time>2017-02-18T08:49:17Z</time>
      </trkpt>
      <trkpt lat="42.566809000" lon="-2.433735000">
        <ele>621.80</ele>
        <time>2017-02-18T08:49:18Z</time>
      </trkpt>
      <trkpt lat="42.566823000" lon="-2.433728000">
        <ele>621.60</ele>
        <time>2017-02-18T08:49:19Z</time>
      </trkpt>
      <trkpt lat="42.566838000" lon="-2.433709000">
        <ele>621.40</ele>
        <time>2017-02-18T08:49:20Z</time>
      </trkpt>
      <trkpt lat="42.566855000" lon="-2.433690000">
        <ele>621.30</ele>
        <time>2017-02-18T08:49:21Z</time>
      </trkpt>
      <trkpt lat="42.566872000" lon="-2.433668000">
        <ele>621.00</ele>
        <time>2017-02-18T08:49:22Z</time>
      </trkpt>
      <trkpt lat="42.566889000" lon="-2.433643000">
        <ele>620.90</ele>
        <time>2017-02-18T08:49:23Z</time>
      </trkpt>
      <trkpt lat="42.566906000" lon="-2.433617000">
        <ele>620.70</ele>
        <time>2017-02-18T08:49:24Z</time>
      </trkpt>
      <trkpt lat="42.566926000" lon="-2.433588000">
        <ele>620.60</ele>
        <time>2017-02-18T08:49:25Z</time>
      </trkpt>
      <trkpt lat="42.566946000" lon="-2.433561000">
        <ele>620.10</ele>
        <time>2017-02-18T08:49:26Z</time>
      </trkpt>
      <trkpt lat="42.566963000" lon="-2.433533000">
        <ele>619.70</ele>
        <time>2017-02-18T08:49:27Z</time>
      </trkpt>
      <trkpt lat="42.566982000" lon="-2.433500000">
        <ele>619.40</ele>
        <time>2017-02-18T08:49:28Z</time>
      </trkpt>
      <trkpt lat="42.567002000" lon="-2.433459000">
        <ele>619.10</ele>
        <time>2017-02-18T08:49:29Z</time>
      </trkpt>
      <trkpt lat="42.567027000" lon="-2.433406000">
        <ele>618.90</ele>
        <time>2017-02-18T08:49:30Z</time>
      </trkpt>
      <trkpt lat="42.567051000" lon="-2.433344000">
        <ele>618.70</ele>
        <time>2017-02-18T08:49:31Z</time>
      </trkpt>
      <trkpt lat="42.567075000" lon="-2.433273000">
        <ele>618.40</ele>
        <time>2017-02-18T08:49:32Z</time>
      </trkpt>
      <trkpt lat="42.567094000" lon="-2.433192000">
        <ele>618.20</ele>
        <time>2017-02-18T08:49:33Z</time>
      </trkpt>
      <trkpt lat="42.567107000" lon="-2.433106000">
        <ele>617.70</ele>
        <time>2017-02-18T08:49:34Z</time>
      </trkpt>
      <trkpt lat="42.567117000" lon="-2.433026000">
        <ele>617.40</ele>
        <time>2017-02-18T08:49:35Z</time>
      </trkpt>
      <trkpt lat="42.567126000" lon="-2.432960000">
        <ele>616.70</ele>
        <time>2017-02-18T08:49:36Z</time>
      </trkpt>
      <trkpt lat="42.567132000" lon="-2.432897000">
        <ele>616.20</ele>
        <time>2017-02-18T08:49:37Z</time>
      </trkpt>
      <trkpt lat="42.567144000" lon="-2.432836000">
        <ele>615.40</ele>
        <time>2017-02-18T08:49:38Z</time>
      </trkpt>
      <trkpt lat="42.567169000" lon="-2.432702000">
        <ele>614.20</ele>
        <time>2017-02-18T08:49:40Z</time>
      </trkpt>
      <trkpt lat="42.567182000" lon="-2.432629000">
        <ele>613.70</ele>
        <time>2017-02-18T08:49:41Z</time>
      </trkpt>
      <trkpt lat="42.567196000" lon="-2.432552000">
        <ele>613.20</ele>
        <time>2017-02-18T08:49:42Z</time>
      </trkpt>
      <trkpt lat="42.567207000" lon="-2.432481000">
        <ele>612.80</ele>
        <time>2017-02-18T08:49:43Z</time>
      </trkpt>
      <trkpt lat="42.567223000" lon="-2.432407000">
        <ele>611.90</ele>
        <time>2017-02-18T08:49:44Z</time>
      </trkpt>
      <trkpt lat="42.567240000" lon="-2.432327000">
        <ele>611.20</ele>
        <time>2017-02-18T08:49:45Z</time>
      </trkpt>
      <trkpt lat="42.567256000" lon="-2.432242000">
        <ele>610.70</ele>
        <time>2017-02-18T08:49:46Z</time>
      </trkpt>
      <trkpt lat="42.567267000" lon="-2.432159000">
        <ele>610.40</ele>
        <time>2017-02-18T08:49:47Z</time>
      </trkpt>
      <trkpt lat="42.567280000" lon="-2.432078000">
        <ele>609.50</ele>
        <time>2017-02-18T08:49:48Z</time>
      </trkpt>
      <trkpt lat="42.567295000" lon="-2.432003000">
        <ele>608.80</ele>
        <time>2017-02-18T08:49:49Z</time>
      </trkpt>
      <trkpt lat="42.567316000" lon="-2.431935000">
        <ele>608.20</ele>
        <time>2017-02-18T08:49:50Z</time>
      </trkpt>
      <trkpt lat="42.567334000" lon="-2.431865000">
        <ele>607.60</ele>
        <time>2017-02-18T08:49:51Z</time>
      </trkpt>
      <trkpt lat="42.567355000" lon="-2.431793000">
        <ele>606.80</ele>
        <time>2017-02-18T08:49:52Z</time>
      </trkpt>
      <trkpt lat="42.567370000" lon="-2.431726000">
        <ele>606.20</ele>
        <time>2017-02-18T08:49:53Z</time>
      </trkpt>
      <trkpt lat="42.567379000" lon="-2.431662000">
        <ele>605.00</ele>
        <time>2017-02-18T08:49:54Z</time>
      </trkpt>
      <trkpt lat="42.567388000" lon="-2.431598000">
        <ele>604.10</ele>
        <time>2017-02-18T08:49:55Z</time>
      </trkpt>
      <trkpt lat="42.567394000" lon="-2.431538000">
        <ele>603.30</ele>
        <time>2017-02-18T08:49:56Z</time>
      </trkpt>
      <trkpt lat="42.567402000" lon="-2.431485000">
        <ele>602.60</ele>
        <time>2017-02-18T08:49:57Z</time>
      </trkpt>
      <trkpt lat="42.567404000" lon="-2.431437000">
        <ele>601.80</ele>
        <time>2017-02-18T08:49:58Z</time>
      </trkpt>
      <trkpt lat="42.567403000" lon="-2.431397000">
        <ele>601.20</ele>
        <time>2017-02-18T08:49:59Z</time>
      </trkpt>
      <trkpt lat="42.567406000" lon="-2.431357000">
        <ele>600.60</ele>
        <time>2017-02-18T08:50:00Z</time>
      </trkpt>
      <trkpt lat="42.567415000" lon="-2.431312000">
        <ele>600.10</ele>
        <time>2017-02-18T08:50:01Z</time>
      </trkpt>
      <trkpt lat="42.567432000" lon="-2.431271000">
        <ele>599.60</ele>
        <time>2017-02-18T08:50:02Z</time>
      </trkpt>
      <trkpt lat="42.567462000" lon="-2.431244000">
        <ele>599.10</ele>
        <time>2017-02-18T08:50:03Z</time>
      </trkpt>
      <trkpt lat="42.567496000" lon="-2.431242000">
        <ele>598.80</ele>
        <time>2017-02-18T08:50:04Z</time>
      </trkpt>
      <trkpt lat="42.567529000" lon="-2.431252000">
        <ele>598.60</ele>
        <time>2017-02-18T08:50:05Z</time>
      </trkpt>
      <trkpt lat="42.567560000" lon="-2.431264000">
        <ele>598.40</ele>
        <time>2017-02-18T08:50:06Z</time>
      </trkpt>
      <trkpt lat="42.567588000" lon="-2.431278000">
        <ele>598.30</ele>
        <time>2017-02-18T08:50:07Z</time>
      </trkpt>
      <trkpt lat="42.567618000" lon="-2.431291000">
        <ele>598.20</ele>
        <time>2017-02-18T08:50:08Z</time>
      </trkpt>
      <trkpt lat="42.567645000" lon="-2.431312000">
        <ele>598.10</ele>
        <time>2017-02-18T08:50:09Z</time>
      </trkpt>
      <trkpt lat="42.567671000" lon="-2.431332000">
        <ele>598.10</ele>
        <time>2017-02-18T08:50:10Z</time>
      </trkpt>
      <trkpt lat="42.567699000" lon="-2.431350000">
        <ele>598.20</ele>
        <time>2017-02-18T08:50:11Z</time>
      </trkpt>
      <trkpt lat="42.567725000" lon="-2.431373000">
        <ele>598.20</ele>
        <time>2017-02-18T08:50:12Z</time>
      </trkpt>
      <trkpt lat="42.567751000" lon="-2.431398000">
        <ele>598.20</ele>
        <time>2017-02-18T08:50:13Z</time>
      </trkpt>
      <trkpt lat="42.567780000" lon="-2.431414000">
        <ele>598.30</ele>
        <time>2017-02-18T08:50:14Z</time>
      </trkpt>
      <trkpt lat="42.567810000" lon="-2.431426000">
        <ele>598.40</ele>
        <time>2017-02-18T08:50:15Z</time>
      </trkpt>
      <trkpt lat="42.567839000" lon="-2.431440000">
        <ele>598.60</ele>
        <time>2017-02-18T08:50:16Z</time>
      </trkpt>
      <trkpt lat="42.567862000" lon="-2.431457000">
        <ele>598.80</ele>
        <time>2017-02-18T08:50:17Z</time>
      </trkpt>
      <trkpt lat="42.567889000" lon="-2.431473000">
        <ele>598.90</ele>
        <time>2017-02-18T08:50:18Z</time>
      </trkpt>
      <trkpt lat="42.567924000" lon="-2.431481000">
        <ele>599.00</ele>
        <time>2017-02-18T08:50:19Z</time>
      </trkpt>
      <trkpt lat="42.567956000" lon="-2.431488000">
        <ele>599.10</ele>
        <time>2017-02-18T08:50:20Z</time>
      </trkpt>
      <trkpt lat="42.567988000" lon="-2.431497000">
        <ele>599.20</ele>
        <time>2017-02-18T08:50:21Z</time>
      </trkpt>
      <trkpt lat="42.568019000" lon="-2.431507000">
        <ele>599.30</ele>
        <time>2017-02-18T08:50:22Z</time>
      </trkpt>
      <trkpt lat="42.568051000" lon="-2.431518000">
        <ele>599.40</ele>
        <time>2017-02-18T08:50:23Z</time>
      </trkpt>
      <trkpt lat="42.568080000" lon="-2.431532000">
        <ele>599.50</ele>
        <time>2017-02-18T08:50:24Z</time>
      </trkpt>
      <trkpt lat="42.568107000" lon="-2.431543000">
        <ele>599.60</ele>
        <time>2017-02-18T08:50:25Z</time>
      </trkpt>
      <trkpt lat="42.568134000" lon="-2.431558000">
        <ele>599.70</ele>
        <time>2017-02-18T08:50:26Z</time>
      </trkpt>
      <trkpt lat="42.568163000" lon="-2.431578000">
        <ele>599.80</ele>
        <time>2017-02-18T08:50:27Z</time>
      </trkpt>
      <trkpt lat="42.568190000" lon="-2.431595000">
        <ele>599.90</ele>
        <time>2017-02-18T08:50:28Z</time>
      </trkpt>
      <trkpt lat="42.568219000" lon="-2.431612000">
        <ele>600.00</ele>
        <time>2017-02-18T08:50:29Z</time>
      </trkpt>
      <trkpt lat="42.568246000" lon="-2.431631000">
        <ele>600.30</ele>
        <time>2017-02-18T08:50:30Z</time>
      </trkpt>
      <trkpt lat="42.568273000" lon="-2.431653000">
        <ele>600.50</ele>
        <time>2017-02-18T08:50:31Z</time>
      </trkpt>
      <trkpt lat="42.568305000" lon="-2.431675000">
        <ele>600.60</ele>
        <time>2017-02-18T08:50:32Z</time>
      </trkpt>
      <trkpt lat="42.568338000" lon="-2.431694000">
        <ele>600.70</ele>
        <time>2017-02-18T08:50:33Z</time>
      </trkpt>
      <trkpt lat="42.568371000" lon="-2.431713000">
        <ele>600.80</ele>
        <time>2017-02-18T08:50:34Z</time>
      </trkpt>
      <trkpt lat="42.568406000" lon="-2.431732000">
        <ele>600.90</ele>
        <time>2017-02-18T08:50:35Z</time>
      </trkpt>
      <trkpt lat="42.568440000" lon="-2.431749000">
        <ele>600.90</ele>
        <time>2017-02-18T08:50:36Z</time>
      </trkpt>
      <trkpt lat="42.568471000" lon="-2.431762000">
        <ele>600.90</ele>
        <time>2017-02-18T08:50:37Z</time>
      </trkpt>
      <trkpt lat="42.568505000" lon="-2.431771000">
        <ele>601.00</ele>
        <time>2017-02-18T08:50:38Z</time>
      </trkpt>
      <trkpt lat="42.568537000" lon="-2.431777000">
        <ele>601.00</ele>
        <time>2017-02-18T08:50:39Z</time>
      </trkpt>
      <trkpt lat="42.568597000" lon="-2.431789000">
        <ele>601.20</ele>
        <time>2017-02-18T08:50:41Z</time>
      </trkpt>
      <trkpt lat="42.568624000" lon="-2.431797000">
        <ele>601.40</ele>
        <time>2017-02-18T08:50:42Z</time>
      </trkpt>
      <trkpt lat="42.568651000" lon="-2.431802000">
        <ele>601.70</ele>
        <time>2017-02-18T08:50:43Z</time>
      </trkpt>
      <trkpt lat="42.568677000" lon="-2.431808000">
        <ele>601.90</ele>
        <time>2017-02-18T08:50:44Z</time>
      </trkpt>
      <trkpt lat="42.568707000" lon="-2.431814000">
        <ele>602.10</ele>
        <time>2017-02-18T08:50:45Z</time>
      </trkpt>
      <trkpt lat="42.568732000" lon="-2.431821000">
        <ele>602.30</ele>
        <time>2017-02-18T08:50:46Z</time>
      </trkpt>
      <trkpt lat="42.568758000" lon="-2.431827000">
        <ele>602.40</ele>
        <time>2017-02-18T08:50:47Z</time>
      </trkpt>
      <trkpt lat="42.568784000" lon="-2.431833000">
        <ele>602.60</ele>
        <time>2017-02-18T08:50:48Z</time>
      </trkpt>
      <trkpt lat="42.568809000" lon="-2.431835000">
        <ele>602.70</ele>
        <time>2017-02-18T08:50:49Z</time>
      </trkpt>
      <trkpt lat="42.568836000" lon="-2.431834000">
        <ele>602.90</ele>
        <time>2017-02-18T08:50:50Z</time>
      </trkpt>
      <trkpt lat="42.568860000" lon="-2.431833000">
        <ele>603.00</ele>
        <time>2017-02-18T08:50:51Z</time>
      </trkpt>
      <trkpt lat="42.568881000" lon="-2.431833000">
        <ele>603.40</ele>
        <time>2017-02-18T08:50:52Z</time>
      </trkpt>
      <trkpt lat="42.568902000" lon="-2.431834000">
        <ele>603.80</ele>
        <time>2017-02-18T08:50:53Z</time>
      </trkpt>
      <trkpt lat="42.568922000" lon="-2.431836000">
        <ele>604.10</ele>
        <time>2017-02-18T08:50:54Z</time>
      </trkpt>
      <trkpt lat="42.568942000" lon="-2.431839000">
        <ele>604.30</ele>
        <time>2017-02-18T08:50:55Z</time>
      </trkpt>
      <trkpt lat="42.568959000" lon="-2.431839000">
        <ele>604.60</ele>
        <time>2017-02-18T08:50:56Z</time>
      </trkpt>
      <trkpt lat="42.568978000" lon="-2.431842000">
        <ele>604.80</ele>
        <time>2017-02-18T08:50:57Z</time>
      </trkpt>
      <trkpt lat="42.568996000" lon="-2.431847000">
        <ele>605.20</ele>
        <time>2017-02-18T08:50:58Z</time>
      </trkpt>
      <trkpt lat="42.569014000" lon="-2.431846000">
        <ele>605.50</ele>
        <time>2017-02-18T08:50:59Z</time>
      </trkpt>
      <trkpt lat="42.569033000" lon="-2.431849000">
        <ele>605.50</ele>
        <time>2017-02-18T08:51:00Z</time>
      </trkpt>
      <trkpt lat="42.569050000" lon="-2.431856000">
        <ele>605.60</ele>
        <time>2017-02-18T08:51:01Z</time>
      </trkpt>
      <trkpt lat="42.569069000" lon="-2.431862000">
        <ele>605.60</ele>
        <time>2017-02-18T08:51:02Z</time>
      </trkpt>
      <trkpt lat="42.569085000" lon="-2.431866000">
        <ele>605.70</ele>
        <time>2017-02-18T08:51:03Z</time>
      </trkpt>
      <trkpt lat="42.569103000" lon="-2.431872000">
        <ele>605.70</ele>
        <time>2017-02-18T08:51:04Z</time>
      </trkpt>
      <trkpt lat="42.569120000" lon="-2.431872000">
        <ele>605.70</ele>
        <time>2017-02-18T08:51:05Z</time>
      </trkpt>
      <trkpt lat="42.569136000" lon="-2.431881000">
        <ele>605.80</ele>
        <time>2017-02-18T08:51:06Z</time>
      </trkpt>
      <trkpt lat="42.569155000" lon="-2.431887000">
        <ele>606.00</ele>
        <time>2017-02-18T08:51:07Z</time>
      </trkpt>
      <trkpt lat="42.569174000" lon="-2.431889000">
        <ele>606.20</ele>
        <time>2017-02-18T08:51:08Z</time>
      </trkpt>
      <trkpt lat="42.569194000" lon="-2.431888000">
        <ele>606.30</ele>
        <time>2017-02-18T08:51:09Z</time>
      </trkpt>
      <trkpt lat="42.569216000" lon="-2.431892000">
        <ele>606.50</ele>
        <time>2017-02-18T08:51:10Z</time>
      </trkpt>
      <trkpt lat="42.569234000" lon="-2.431891000">
        <ele>606.70</ele>
        <time>2017-02-18T08:51:11Z</time>
      </trkpt>
      <trkpt lat="42.569250000" lon="-2.431897000">
        <ele>607.10</ele>
        <time>2017-02-18T08:51:12Z</time>
      </trkpt>
      <trkpt lat="42.569268000" lon="-2.431902000">
        <ele>607.40</ele>
        <time>2017-02-18T08:51:13Z</time>
      </trkpt>
      <trkpt lat="42.569281000" lon="-2.431905000">
        <ele>607.70</ele>
        <time>2017-02-18T08:51:14Z</time>
      </trkpt>
      <trkpt lat="42.569294000" lon="-2.431908000">
        <ele>607.80</ele>
        <time>2017-02-18T08:51:15Z</time>
      </trkpt>
      <trkpt lat="42.569309000" lon="-2.431909000">
        <ele>608.00</ele>
        <time>2017-02-18T08:51:16Z</time>
      </trkpt>
      <trkpt lat="42.569324000" lon="-2.431906000">
        <ele>608.20</ele>
        <time>2017-02-18T08:51:17Z</time>
      </trkpt>
      <trkpt lat="42.569335000" lon="-2.431912000">
        <ele>608.40</ele>
        <time>2017-02-18T08:51:18Z</time>
      </trkpt>
      <trkpt lat="42.569347000" lon="-2.431912000">
        <ele>608.50</ele>
        <time>2017-02-18T08:51:19Z</time>
      </trkpt>
      <trkpt lat="42.569359000" lon="-2.431923000">
        <ele>608.60</ele>
        <time>2017-02-18T08:51:20Z</time>
      </trkpt>
      <trkpt lat="42.569372000" lon="-2.431924000">
        <ele>608.70</ele>
        <time>2017-02-18T08:51:21Z</time>
      </trkpt>
      <trkpt lat="42.569391000" lon="-2.431921000">
        <ele>608.90</ele>
        <time>2017-02-18T08:51:22Z</time>
      </trkpt>
      <trkpt lat="42.569405000" lon="-2.431925000">
        <ele>609.10</ele>
        <time>2017-02-18T08:51:23Z</time>
      </trkpt>
      <trkpt lat="42.569419000" lon="-2.431928000">
        <ele>609.30</ele>
        <time>2017-02-18T08:51:24Z</time>
      </trkpt>
      <trkpt lat="42.569433000" lon="-2.431935000">
        <ele>609.40</ele>
        <time>2017-02-18T08:51:25Z</time>
      </trkpt>
      <trkpt lat="42.569445000" lon="-2.431942000">
        <ele>609.50</ele>
        <time>2017-02-18T08:51:26Z</time>
      </trkpt>
      <trkpt lat="42.569458000" lon="-2.431950000">
        <ele>609.50</ele>
        <time>2017-02-18T08:51:27Z</time>
      </trkpt>
      <trkpt lat="42.569470000" lon="-2.431957000">
        <ele>609.60</ele>
        <time>2017-02-18T08:51:28Z</time>
      </trkpt>
      <trkpt lat="42.569483000" lon="-2.431963000">
        <ele>609.60</ele>
        <time>2017-02-18T08:51:29Z</time>
      </trkpt>
      <trkpt lat="42.569497000" lon="-2.431967000">
        <ele>609.70</ele>
        <time>2017-02-18T08:51:30Z</time>
      </trkpt>
      <trkpt lat="42.569509000" lon="-2.431968000">
        <ele>609.90</ele>
        <time>2017-02-18T08:51:31Z</time>
      </trkpt>
      <trkpt lat="42.569523000" lon="-2.431974000">
        <ele>609.90</ele>
        <time>2017-02-18T08:51:32Z</time>
      </trkpt>
      <trkpt lat="42.569537000" lon="-2.431978000">
        <ele>609.90</ele>
        <time>2017-02-18T08:51:33Z</time>
      </trkpt>
      <trkpt lat="42.569551000" lon="-2.431982000">
        <ele>610.00</ele>
        <time>2017-02-18T08:51:34Z</time>
      </trkpt>
      <trkpt lat="42.569562000" lon="-2.431985000">
        <ele>610.00</ele>
        <time>2017-02-18T08:51:35Z</time>
      </trkpt>
      <trkpt lat="42.569575000" lon="-2.431993000">
        <ele>610.10</ele>
        <time>2017-02-18T08:51:36Z</time>
      </trkpt>
      <trkpt lat="42.569592000" lon="-2.432000000">
        <ele>610.10</ele>
        <time>2017-02-18T08:51:37Z</time>
      </trkpt>
      <trkpt lat="42.569606000" lon="-2.432010000">
        <ele>610.30</ele>
        <time>2017-02-18T08:51:38Z</time>
      </trkpt>
      <trkpt lat="42.569624000" lon="-2.432017000">
        <ele>610.50</ele>
        <time>2017-02-18T08:51:39Z</time>
      </trkpt>
      <trkpt lat="42.569645000" lon="-2.432023000">
        <ele>610.80</ele>
        <time>2017-02-18T08:51:40Z</time>
      </trkpt>
      <trkpt lat="42.569685000" lon="-2.432037000">
        <ele>611.30</ele>
        <time>2017-02-18T08:51:42Z</time>
      </trkpt>
      <trkpt lat="42.569702000" lon="-2.432042000">
        <ele>611.50</ele>
        <time>2017-02-18T08:51:43Z</time>
      </trkpt>
      <trkpt lat="42.569720000" lon="-2.432044000">
        <ele>611.80</ele>
        <time>2017-02-18T08:51:44Z</time>
      </trkpt>
      <trkpt lat="42.569736000" lon="-2.432049000">
        <ele>612.00</ele>
        <time>2017-02-18T08:51:45Z</time>
      </trkpt>
      <trkpt lat="42.569752000" lon="-2.432053000">
        <ele>612.20</ele>
        <time>2017-02-18T08:51:46Z</time>
      </trkpt>
      <trkpt lat="42.569768000" lon="-2.432062000">
        <ele>612.40</ele>
        <time>2017-02-18T08:51:47Z</time>
      </trkpt>
      <trkpt lat="42.569782000" lon="-2.432074000">
        <ele>612.60</ele>
        <time>2017-02-18T08:51:48Z</time>
      </trkpt>
      <trkpt lat="42.569798000" lon="-2.432079000">
        <ele>612.70</ele>
        <time>2017-02-18T08:51:49Z</time>
      </trkpt>
      <trkpt lat="42.569815000" lon="-2.432092000">
        <ele>612.80</ele>
        <time>2017-02-18T08:51:50Z</time>
      </trkpt>
      <trkpt lat="42.569833000" lon="-2.432095000">
        <ele>613.00</ele>
        <time>2017-02-18T08:51:51Z</time>
      </trkpt>
      <trkpt lat="42.569853000" lon="-2.432101000">
        <ele>613.00</ele>
        <time>2017-02-18T08:51:52Z</time>
      </trkpt>
      <trkpt lat="42.569870000" lon="-2.432109000">
        <ele>613.00</ele>
        <time>2017-02-18T08:51:53Z</time>
      </trkpt>
      <trkpt lat="42.569888000" lon="-2.432116000">
        <ele>613.10</ele>
        <time>2017-02-18T08:51:54Z</time>
      </trkpt>
      <trkpt lat="42.569905000" lon="-2.432122000">
        <ele>613.10</ele>
        <time>2017-02-18T08:51:55Z</time>
      </trkpt>
      <trkpt lat="42.569922000" lon="-2.432133000">
        <ele>613.40</ele>
        <time>2017-02-18T08:51:56Z</time>
      </trkpt>
      <trkpt lat="42.569939000" lon="-2.432141000">
        <ele>613.50</ele>
        <time>2017-02-18T08:51:57Z</time>
      </trkpt>
      <trkpt lat="42.569958000" lon="-2.432147000">
        <ele>613.80</ele>
        <time>2017-02-18T08:51:58Z</time>
      </trkpt>
      <trkpt lat="42.569977000" lon="-2.432159000">
        <ele>614.00</ele>
        <time>2017-02-18T08:51:59Z</time>
      </trkpt>
      <trkpt lat="42.569996000" lon="-2.432168000">
        <ele>614.10</ele>
        <time>2017-02-18T08:52:00Z</time>
      </trkpt>
      <trkpt lat="42.570013000" lon="-2.432174000">
        <ele>614.20</ele>
        <time>2017-02-18T08:52:01Z</time>
      </trkpt>
      <trkpt lat="42.570030000" lon="-2.432181000">
        <ele>614.20</ele>
        <time>2017-02-18T08:52:02Z</time>
      </trkpt>
      <trkpt lat="42.570048000" lon="-2.432191000">
        <ele>614.10</ele>
        <time>2017-02-18T08:52:03Z</time>
      </trkpt>
      <trkpt lat="42.570069000" lon="-2.432201000">
        <ele>614.10</ele>
        <time>2017-02-18T08:52:04Z</time>
      </trkpt>
      <trkpt lat="42.570089000" lon="-2.432207000">
        <ele>614.10</ele>
        <time>2017-02-18T08:52:05Z</time>
      </trkpt>
      <trkpt lat="42.570109000" lon="-2.432218000">
        <ele>614.30</ele>
        <time>2017-02-18T08:52:06Z</time>
      </trkpt>
      <trkpt lat="42.570127000" lon="-2.432227000">
        <ele>614.50</ele>
        <time>2017-02-18T08:52:07Z</time>
      </trkpt>
      <trkpt lat="42.570144000" lon="-2.432237000">
        <ele>614.80</ele>
        <time>2017-02-18T08:52:08Z</time>
      </trkpt>
      <trkpt lat="42.570159000" lon="-2.432248000">
        <ele>615.00</ele>
        <time>2017-02-18T08:52:09Z</time>
      </trkpt>
      <trkpt lat="42.570175000" lon="-2.432256000">
        <ele>615.10</ele>
        <time>2017-02-18T08:52:10Z</time>
      </trkpt>
      <trkpt lat="42.570193000" lon="-2.432266000">
        <ele>615.20</ele>
        <time>2017-02-18T08:52:11Z</time>
      </trkpt>
      <trkpt lat="42.570210000" lon="-2.432274000">
        <ele>615.30</ele>
        <time>2017-02-18T08:52:12Z</time>
      </trkpt>
      <trkpt lat="42.570228000" lon="-2.432282000">
        <ele>615.40</ele>
        <time>2017-02-18T08:52:13Z</time>
      </trkpt>
      <trkpt lat="42.570247000" lon="-2.432287000">
        <ele>615.40</ele>
        <time>2017-02-18T08:52:14Z</time>
      </trkpt>
      <trkpt lat="42.570264000" lon="-2.432296000">
        <ele>615.50</ele>
        <time>2017-02-18T08:52:15Z</time>
      </trkpt>
      <trkpt lat="42.570281000" lon="-2.432304000">
        <ele>615.60</ele>
        <time>2017-02-18T08:52:16Z</time>
      </trkpt>
      <trkpt lat="42.570297000" lon="-2.432311000">
        <ele>615.70</ele>
        <time>2017-02-18T08:52:17Z</time>
      </trkpt>
      <trkpt lat="42.570315000" lon="-2.432321000">
        <ele>615.90</ele>
        <time>2017-02-18T08:52:18Z</time>
      </trkpt>
      <trkpt lat="42.570332000" lon="-2.432333000">
        <ele>616.00</ele>
        <time>2017-02-18T08:52:19Z</time>
      </trkpt>
      <trkpt lat="42.570348000" lon="-2.432340000">
        <ele>616.10</ele>
        <time>2017-02-18T08:52:20Z</time>
      </trkpt>
      <trkpt lat="42.570366000" lon="-2.432353000">
        <ele>616.20</ele>
        <time>2017-02-18T08:52:21Z</time>
      </trkpt>
      <trkpt lat="42.570386000" lon="-2.432363000">
        <ele>616.20</ele>
        <time>2017-02-18T08:52:22Z</time>
      </trkpt>
      <trkpt lat="42.570401000" lon="-2.432374000">
        <ele>616.20</ele>
        <time>2017-02-18T08:52:23Z</time>
      </trkpt>
      <trkpt lat="42.570418000" lon="-2.432386000">
        <ele>616.30</ele>
        <time>2017-02-18T08:52:24Z</time>
      </trkpt>
      <trkpt lat="42.570435000" lon="-2.432400000">
        <ele>616.40</ele>
        <time>2017-02-18T08:52:25Z</time>
      </trkpt>
      <trkpt lat="42.570454000" lon="-2.432419000">
        <ele>616.50</ele>
        <time>2017-02-18T08:52:26Z</time>
      </trkpt>
      <trkpt lat="42.570471000" lon="-2.432436000">
        <ele>616.50</ele>
        <time>2017-02-18T08:52:27Z</time>
      </trkpt>
      <trkpt lat="42.570489000" lon="-2.432453000">
        <ele>616.50</ele>
        <time>2017-02-18T08:52:28Z</time>
      </trkpt>
      <trkpt lat="42.570505000" lon="-2.432464000">
        <ele>616.50</ele>
        <time>2017-02-18T08:52:29Z</time>
      </trkpt>
      <trkpt lat="42.570524000" lon="-2.432479000">
        <ele>616.70</ele>
        <time>2017-02-18T08:52:30Z</time>
      </trkpt>
      <trkpt lat="42.570540000" lon="-2.432493000">
        <ele>616.90</ele>
        <time>2017-02-18T08:52:31Z</time>
      </trkpt>
      <trkpt lat="42.570557000" lon="-2.432508000">
        <ele>617.20</ele>
        <time>2017-02-18T08:52:32Z</time>
      </trkpt>
      <trkpt lat="42.570574000" lon="-2.432521000">
        <ele>617.40</ele>
        <time>2017-02-18T08:52:33Z</time>
      </trkpt>
      <trkpt lat="42.570590000" lon="-2.432536000">
        <ele>617.70</ele>
        <time>2017-02-18T08:52:34Z</time>
      </trkpt>
      <trkpt lat="42.570608000" lon="-2.432555000">
        <ele>617.80</ele>
        <time>2017-02-18T08:52:35Z</time>
      </trkpt>
      <trkpt lat="42.570626000" lon="-2.432571000">
        <ele>618.00</ele>
        <time>2017-02-18T08:52:36Z</time>
      </trkpt>
      <trkpt lat="42.570646000" lon="-2.432585000">
        <ele>618.10</ele>
        <time>2017-02-18T08:52:37Z</time>
      </trkpt>
      <trkpt lat="42.570664000" lon="-2.432596000">
        <ele>618.20</ele>
        <time>2017-02-18T08:52:38Z</time>
      </trkpt>
      <trkpt lat="42.570681000" lon="-2.432612000">
        <ele>618.30</ele>
        <time>2017-02-18T08:52:39Z</time>
      </trkpt>
      <trkpt lat="42.570698000" lon="-2.432628000">
        <ele>618.40</ele>
        <time>2017-02-18T08:52:40Z</time>
      </trkpt>
      <trkpt lat="42.570714000" lon="-2.432642000">
        <ele>618.50</ele>
        <time>2017-02-18T08:52:41Z</time>
      </trkpt>
      <trkpt lat="42.570746000" lon="-2.432665000">
        <ele>618.60</ele>
        <time>2017-02-18T08:52:43Z</time>
      </trkpt>
      <trkpt lat="42.570762000" lon="-2.432675000">
        <ele>618.70</ele>
        <time>2017-02-18T08:52:44Z</time>
      </trkpt>
      <trkpt lat="42.570779000" lon="-2.432684000">
        <ele>618.70</ele>
        <time>2017-02-18T08:52:45Z</time>
      </trkpt>
      <trkpt lat="42.570796000" lon="-2.432692000">
        <ele>618.80</ele>
        <time>2017-02-18T08:52:46Z</time>
      </trkpt>
      <trkpt lat="42.570816000" lon="-2.432699000">
        <ele>618.90</ele>
        <time>2017-02-18T08:52:47Z</time>
      </trkpt>
      <trkpt lat="42.570832000" lon="-2.432703000">
        <ele>618.90</ele>
        <time>2017-02-18T08:52:48Z</time>
      </trkpt>
      <trkpt lat="42.570849000" lon="-2.432709000">
        <ele>619.00</ele>
        <time>2017-02-18T08:52:49Z</time>
      </trkpt>
      <trkpt lat="42.570867000" lon="-2.432715000">
        <ele>619.10</ele>
        <time>2017-02-18T08:52:50Z</time>
      </trkpt>
      <trkpt lat="42.570881000" lon="-2.432714000">
        <ele>619.20</ele>
        <time>2017-02-18T08:52:51Z</time>
      </trkpt>
      <trkpt lat="42.570896000" lon="-2.432713000">
        <ele>619.40</ele>
        <time>2017-02-18T08:52:52Z</time>
      </trkpt>
      <trkpt lat="42.570913000" lon="-2.432716000">
        <ele>619.50</ele>
        <time>2017-02-18T08:52:53Z</time>
      </trkpt>
      <trkpt lat="42.570929000" lon="-2.432720000">
        <ele>619.80</ele>
        <time>2017-02-18T08:52:54Z</time>
      </trkpt>
      <trkpt lat="42.570948000" lon="-2.432727000">
        <ele>620.00</ele>
        <time>2017-02-18T08:52:55Z</time>
      </trkpt>
      <trkpt lat="42.570966000" lon="-2.432729000">
        <ele>620.20</ele>
        <time>2017-02-18T08:52:56Z</time>
      </trkpt>
      <trkpt lat="42.570982000" lon="-2.432730000">
        <ele>620.40</ele>
        <time>2017-02-18T08:52:57Z</time>
      </trkpt>
      <trkpt lat="42.570999000" lon="-2.432730000">
        <ele>620.50</ele>
        <time>2017-02-18T08:52:58Z</time>
      </trkpt>
      <trkpt lat="42.571014000" lon="-2.432731000">
        <ele>620.60</ele>
        <time>2017-02-18T08:52:59Z</time>
      </trkpt>
      <trkpt lat="42.571035000" lon="-2.432737000">
        <ele>620.70</ele>
        <time>2017-02-18T08:53:00Z</time>
      </trkpt>
      <trkpt lat="42.571049000" lon="-2.432735000">
        <ele>620.70</ele>
        <time>2017-02-18T08:53:01Z</time>
      </trkpt>
      <trkpt lat="42.571066000" lon="-2.432740000">
        <ele>620.90</ele>
        <time>2017-02-18T08:53:02Z</time>
      </trkpt>
      <trkpt lat="42.571082000" lon="-2.432742000">
        <ele>621.00</ele>
        <time>2017-02-18T08:53:03Z</time>
      </trkpt>
      <trkpt lat="42.571098000" lon="-2.432743000">
        <ele>621.40</ele>
        <time>2017-02-18T08:53:04Z</time>
      </trkpt>
      <trkpt lat="42.571115000" lon="-2.432747000">
        <ele>621.60</ele>
        <time>2017-02-18T08:53:05Z</time>
      </trkpt>
      <trkpt lat="42.571133000" lon="-2.432752000">
        <ele>621.80</ele>
        <time>2017-02-18T08:53:06Z</time>
      </trkpt>
      <trkpt lat="42.571148000" lon="-2.432754000">
        <ele>622.00</ele>
        <time>2017-02-18T08:53:07Z</time>
      </trkpt>
      <trkpt lat="42.571165000" lon="-2.432756000">
        <ele>622.10</ele>
        <time>2017-02-18T08:53:08Z</time>
      </trkpt>
      <trkpt lat="42.571182000" lon="-2.432759000">
        <ele>622.20</ele>
        <time>2017-02-18T08:53:09Z</time>
      </trkpt>
      <trkpt lat="42.571201000" lon="-2.432764000">
        <ele>622.10</ele>
        <time>2017-02-18T08:53:10Z</time>
      </trkpt>
      <trkpt lat="42.571214000" lon="-2.432766000">
        <ele>622.10</ele>
        <time>2017-02-18T08:53:11Z</time>
      </trkpt>
      <trkpt lat="42.571229000" lon="-2.432771000">
        <ele>622.10</ele>
        <time>2017-02-18T08:53:12Z</time>
      </trkpt>
      <trkpt lat="42.571245000" lon="-2.432780000">
        <ele>622.00</ele>
        <time>2017-02-18T08:53:13Z</time>
      </trkpt>
      <trkpt lat="42.571261000" lon="-2.432783000">
        <ele>622.30</ele>
        <time>2017-02-18T08:53:14Z</time>
      </trkpt>
      <trkpt lat="42.571276000" lon="-2.432787000">
        <ele>622.60</ele>
        <time>2017-02-18T08:53:15Z</time>
      </trkpt>
      <trkpt lat="42.571290000" lon="-2.432793000">
        <ele>622.80</ele>
        <time>2017-02-18T08:53:16Z</time>
      </trkpt>
      <trkpt lat="42.571304000" lon="-2.432800000">
        <ele>622.90</ele>
        <time>2017-02-18T08:53:17Z</time>
      </trkpt>
      <trkpt lat="42.571318000" lon="-2.432803000">
        <ele>623.00</ele>
        <time>2017-02-18T08:53:18Z</time>
      </trkpt>
      <trkpt lat="42.571334000" lon="-2.432812000">
        <ele>623.00</ele>
        <time>2017-02-18T08:53:19Z</time>
      </trkpt>
      <trkpt lat="42.571349000" lon="-2.432817000">
        <ele>623.10</ele>
        <time>2017-02-18T08:53:20Z</time>
      </trkpt>
      <trkpt lat="42.571364000" lon="-2.432824000">
        <ele>623.10</ele>
        <time>2017-02-18T08:53:21Z</time>
      </trkpt>
      <trkpt lat="42.571380000" lon="-2.432831000">
        <ele>623.10</ele>
        <time>2017-02-18T08:53:22Z</time>
      </trkpt>
      <trkpt lat="42.571396000" lon="-2.432838000">
        <ele>623.20</ele>
        <time>2017-02-18T08:53:23Z</time>
      </trkpt>
      <trkpt lat="42.571412000" lon="-2.432848000">
        <ele>623.30</ele>
        <time>2017-02-18T08:53:24Z</time>
      </trkpt>
      <trkpt lat="42.571428000" lon="-2.432856000">
        <ele>623.40</ele>
        <time>2017-02-18T08:53:25Z</time>
      </trkpt>
      <trkpt lat="42.571444000" lon="-2.432862000">
        <ele>623.50</ele>
        <time>2017-02-18T08:53:26Z</time>
      </trkpt>
      <trkpt lat="42.571463000" lon="-2.432868000">
        <ele>623.50</ele>
        <time>2017-02-18T08:53:27Z</time>
      </trkpt>
      <trkpt lat="42.571478000" lon="-2.432875000">
        <ele>623.70</ele>
        <time>2017-02-18T08:53:28Z</time>
      </trkpt>
      <trkpt lat="42.571494000" lon="-2.432882000">
        <ele>623.80</ele>
        <time>2017-02-18T08:53:29Z</time>
      </trkpt>
      <trkpt lat="42.571509000" lon="-2.432885000">
        <ele>624.10</ele>
        <time>2017-02-18T08:53:30Z</time>
      </trkpt>
      <trkpt lat="42.571524000" lon="-2.432888000">
        <ele>624.20</ele>
        <time>2017-02-18T08:53:31Z</time>
      </trkpt>
      <trkpt lat="42.571538000" lon="-2.432898000">
        <ele>624.40</ele>
        <time>2017-02-18T08:53:32Z</time>
      </trkpt>
      <trkpt lat="42.571551000" lon="-2.432910000">
        <ele>624.60</ele>
        <time>2017-02-18T08:53:33Z</time>
      </trkpt>
      <trkpt lat="42.571566000" lon="-2.432919000">
        <ele>624.80</ele>
        <time>2017-02-18T08:53:34Z</time>
      </trkpt>
      <trkpt lat="42.571579000" lon="-2.432929000">
        <ele>624.90</ele>
        <time>2017-02-18T08:53:35Z</time>
      </trkpt>
      <trkpt lat="42.571593000" lon="-2.432940000">
        <ele>625.10</ele>
        <time>2017-02-18T08:53:36Z</time>
      </trkpt>
      <trkpt lat="42.571609000" lon="-2.432946000">
        <ele>625.30</ele>
        <time>2017-02-18T08:53:37Z</time>
      </trkpt>
      <trkpt lat="42.571626000" lon="-2.432953000">
        <ele>625.40</ele>
        <time>2017-02-18T08:53:38Z</time>
      </trkpt>
      <trkpt lat="42.571643000" lon="-2.432963000">
        <ele>625.50</ele>
        <time>2017-02-18T08:53:39Z</time>
      </trkpt>
      <trkpt lat="42.571660000" lon="-2.432972000">
        <ele>625.70</ele>
        <time>2017-02-18T08:53:40Z</time>
      </trkpt>
      <trkpt lat="42.571673000" lon="-2.432983000">
        <ele>625.80</ele>
        <time>2017-02-18T08:53:41Z</time>
      </trkpt>
      <trkpt lat="42.571689000" lon="-2.432997000">
        <ele>625.70</ele>
        <time>2017-02-18T08:53:42Z</time>
      </trkpt>
      <trkpt lat="42.571721000" lon="-2.433020000">
        <ele>625.80</ele>
        <time>2017-02-18T08:53:44Z</time>
      </trkpt>
      <trkpt lat="42.571741000" lon="-2.433030000">
        <ele>625.90</ele>
        <time>2017-02-18T08:53:45Z</time>
      </trkpt>
      <trkpt lat="42.571757000" lon="-2.433040000">
        <ele>625.80</ele>
        <time>2017-02-18T08:53:46Z</time>
      </trkpt>
      <trkpt lat="42.571773000" lon="-2.433050000">
        <ele>625.80</ele>
        <time>2017-02-18T08:53:47Z</time>
      </trkpt>
      <trkpt lat="42.571788000" lon="-2.433062000">
        <ele>626.00</ele>
        <time>2017-02-18T08:53:48Z</time>
      </trkpt>
      <trkpt lat="42.571804000" lon="-2.433074000">
        <ele>626.20</ele>
        <time>2017-02-18T08:53:49Z</time>
      </trkpt>
      <trkpt lat="42.571822000" lon="-2.433088000">
        <ele>626.30</ele>
        <time>2017-02-18T08:53:50Z</time>
      </trkpt>
      <trkpt lat="42.571831000" lon="-2.433101000">
        <ele>626.40</ele>
        <time>2017-02-18T08:53:51Z</time>
      </trkpt>
      <trkpt lat="42.571844000" lon="-2.433112000">
        <ele>626.40</ele>
        <time>2017-02-18T08:53:52Z</time>
      </trkpt>
      <trkpt lat="42.571859000" lon="-2.433125000">
        <ele>626.50</ele>
        <time>2017-02-18T08:53:53Z</time>
      </trkpt>
      <trkpt lat="42.571875000" lon="-2.433140000">
        <ele>626.50</ele>
        <time>2017-02-18T08:53:54Z</time>
      </trkpt>
      <trkpt lat="42.571886000" lon="-2.433149000">
        <ele>626.50</ele>
        <time>2017-02-18T08:53:55Z</time>
      </trkpt>
      <trkpt lat="42.571902000" lon="-2.433165000">
        <ele>626.50</ele>
        <time>2017-02-18T08:53:56Z</time>
      </trkpt>
      <trkpt lat="42.571920000" lon="-2.433176000">
        <ele>626.60</ele>
        <time>2017-02-18T08:53:57Z</time>
      </trkpt>
      <trkpt lat="42.571933000" lon="-2.433185000">
        <ele>626.70</ele>
        <time>2017-02-18T08:53:58Z</time>
      </trkpt>
      <trkpt lat="42.571944000" lon="-2.433196000">
        <ele>626.90</ele>
        <time>2017-02-18T08:53:59Z</time>
      </trkpt>
      <trkpt lat="42.571955000" lon="-2.433210000">
        <ele>626.90</ele>
        <time>2017-02-18T08:54:00Z</time>
      </trkpt>
      <trkpt lat="42.571970000" lon="-2.433226000">
        <ele>627.00</ele>
        <time>2017-02-18T08:54:01Z</time>
      </trkpt>
      <trkpt lat="42.571987000" lon="-2.433240000">
        <ele>627.10</ele>
        <time>2017-02-18T08:54:02Z</time>
      </trkpt>
      <trkpt lat="42.571999000" lon="-2.433254000">
        <ele>627.10</ele>
        <time>2017-02-18T08:54:03Z</time>
      </trkpt>
      <trkpt lat="42.572013000" lon="-2.433267000">
        <ele>627.30</ele>
        <time>2017-02-18T08:54:04Z</time>
      </trkpt>
      <trkpt lat="42.572023000" lon="-2.433279000">
        <ele>627.50</ele>
        <time>2017-02-18T08:54:05Z</time>
      </trkpt>
      <trkpt lat="42.572036000" lon="-2.433292000">
        <ele>627.70</ele>
        <time>2017-02-18T08:54:06Z</time>
      </trkpt>
      <trkpt lat="42.572048000" lon="-2.433305000">
        <ele>627.80</ele>
        <time>2017-02-18T08:54:07Z</time>
      </trkpt>
      <trkpt lat="42.572061000" lon="-2.433319000">
        <ele>627.90</ele>
        <time>2017-02-18T08:54:08Z</time>
      </trkpt>
      <trkpt lat="42.572076000" lon="-2.433334000">
        <ele>628.00</ele>
        <time>2017-02-18T08:54:09Z</time>
      </trkpt>
      <trkpt lat="42.572088000" lon="-2.433350000">
        <ele>628.10</ele>
        <time>2017-02-18T08:54:10Z</time>
      </trkpt>
      <trkpt lat="42.572102000" lon="-2.433365000">
        <ele>628.10</ele>
        <time>2017-02-18T08:54:11Z</time>
      </trkpt>
      <trkpt lat="42.572120000" lon="-2.433374000">
        <ele>628.20</ele>
        <time>2017-02-18T08:54:12Z</time>
      </trkpt>
      <trkpt lat="42.572135000" lon="-2.433387000">
        <ele>628.20</ele>
        <time>2017-02-18T08:54:13Z</time>
      </trkpt>
      <trkpt lat="42.572149000" lon="-2.433401000">
        <ele>628.30</ele>
        <time>2017-02-18T08:54:14Z</time>
      </trkpt>
      <trkpt lat="42.572164000" lon="-2.433414000">
        <ele>628.30</ele>
        <time>2017-02-18T08:54:15Z</time>
      </trkpt>
      <trkpt lat="42.572181000" lon="-2.433422000">
        <ele>628.40</ele>
        <time>2017-02-18T08:54:16Z</time>
      </trkpt>
      <trkpt lat="42.572195000" lon="-2.433429000">
        <ele>628.40</ele>
        <time>2017-02-18T08:54:17Z</time>
      </trkpt>
      <trkpt lat="42.572211000" lon="-2.433435000">
        <ele>628.50</ele>
        <time>2017-02-18T08:54:18Z</time>
      </trkpt>
      <trkpt lat="42.572227000" lon="-2.433441000">
        <ele>628.50</ele>
        <time>2017-02-18T08:54:19Z</time>
      </trkpt>
      <trkpt lat="42.572241000" lon="-2.433448000">
        <ele>628.60</ele>
        <time>2017-02-18T08:54:20Z</time>
      </trkpt>
      <trkpt lat="42.572257000" lon="-2.433452000">
        <ele>628.70</ele>
        <time>2017-02-18T08:54:21Z</time>
      </trkpt>
      <trkpt lat="42.572268000" lon="-2.433452000">
        <ele>628.90</ele>
        <time>2017-02-18T08:54:22Z</time>
      </trkpt>
      <trkpt lat="42.572285000" lon="-2.433451000">
        <ele>629.10</ele>
        <time>2017-02-18T08:54:23Z</time>
      </trkpt>
      <trkpt lat="42.572298000" lon="-2.433445000">
        <ele>629.30</ele>
        <time>2017-02-18T08:54:24Z</time>
      </trkpt>
      <trkpt lat="42.572308000" lon="-2.433426000">
        <ele>629.40</ele>
        <time>2017-02-18T08:54:25Z</time>
      </trkpt>
      <trkpt lat="42.572312000" lon="-2.433407000">
        <ele>629.50</ele>
        <time>2017-02-18T08:54:26Z</time>
      </trkpt>
      <trkpt lat="42.572309000" lon="-2.433389000">
        <ele>629.60</ele>
        <time>2017-02-18T08:54:27Z</time>
      </trkpt>
      <trkpt lat="42.572300000" lon="-2.433371000">
        <ele>629.70</ele>
        <time>2017-02-18T08:54:28Z</time>
      </trkpt>
      <trkpt lat="42.572287000" lon="-2.433356000">
        <ele>629.70</ele>
        <time>2017-02-18T08:54:29Z</time>
      </trkpt>
      <trkpt lat="42.572272000" lon="-2.433347000">
        <ele>629.90</ele>
        <time>2017-02-18T08:54:30Z</time>
      </trkpt>
      <trkpt lat="42.572258000" lon="-2.433340000">
        <ele>630.00</ele>
        <time>2017-02-18T08:54:31Z</time>
      </trkpt>
      <trkpt lat="42.572250000" lon="-2.433337000">
        <ele>630.10</ele>
        <time>2017-02-18T08:54:32Z</time>
      </trkpt>
      <trkpt lat="42.572247000" lon="-2.433333000">
        <ele>630.20</ele>
        <time>2017-02-18T08:54:33Z</time>
      </trkpt>
      <trkpt lat="42.572247000" lon="-2.433331000">
        <ele>630.10</ele>
        <time>2017-02-18T08:54:34Z</time>
      </trkpt>
      <trkpt lat="42.572249000" lon="-2.433322000">
        <ele>630.00</ele>
        <time>2017-02-18T08:54:35Z</time>
      </trkpt>
      <trkpt lat="42.572249000" lon="-2.433319000">
        <ele>630.00</ele>
        <time>2017-02-18T08:54:36Z</time>
      </trkpt>
      <trkpt lat="42.572249000" lon="-2.433315000">
        <ele>630.00</ele>
        <time>2017-02-18T08:54:37Z</time>
      </trkpt>
      <trkpt lat="42.572247000" lon="-2.433312000">
        <ele>630.00</ele>
        <time>2017-02-18T08:54:38Z</time>
      </trkpt>
      <trkpt lat="42.572246000" lon="-2.433308000">
        <ele>630.00</ele>
        <time>2017-02-18T08:54:39Z</time>
      </trkpt>
      <trkpt lat="42.572246000" lon="-2.433306000">
        <ele>630.00</ele>
        <time>2017-02-18T08:54:40Z</time>
      </trkpt>
      <trkpt lat="42.572244000" lon="-2.433305000">
        <ele>630.10</ele>
        <time>2017-02-18T08:54:41Z</time>
      </trkpt>
      <trkpt lat="42.572245000" lon="-2.433305000">
        <ele>629.90</ele>
        <time>2017-02-18T08:54:42Z</time>
      </trkpt>
      <trkpt lat="42.572245000" lon="-2.433305000">
        <ele>629.90</ele>
        <time>2017-02-18T08:54:43Z</time>
      </trkpt>
      <trkpt lat="42.572244000" lon="-2.433301000">
        <ele>629.70</ele>
        <time>2017-02-18T08:54:45Z</time>
      </trkpt>
      <trkpt lat="42.572245000" lon="-2.433299000">
        <ele>629.70</ele>
        <time>2017-02-18T08:54:46Z</time>
      </trkpt>
      <trkpt lat="42.572246000" lon="-2.433296000">
        <ele>629.70</ele>
        <time>2017-02-18T08:54:47Z</time>
      </trkpt>
      <trkpt lat="42.572248000" lon="-2.433294000">
        <ele>629.70</ele>
        <time>2017-02-18T08:54:48Z</time>
      </trkpt>
      <trkpt lat="42.572249000" lon="-2.433292000">
        <ele>629.60</ele>
        <time>2017-02-18T08:54:49Z</time>
      </trkpt>
      <trkpt lat="42.572250000" lon="-2.433290000">
        <ele>629.60</ele>
        <time>2017-02-18T08:54:50Z</time>
      </trkpt>
      <trkpt lat="42.572249000" lon="-2.433292000">
        <ele>629.60</ele>
        <time>2017-02-18T08:54:51Z</time>
      </trkpt>
      <trkpt lat="42.572248000" lon="-2.433296000">
        <ele>629.60</ele>
        <time>2017-02-18T08:54:52Z</time>
      </trkpt>
      <trkpt lat="42.572248000" lon="-2.433302000">
        <ele>629.60</ele>
        <time>2017-02-18T08:54:53Z</time>
      </trkpt>
      <trkpt lat="42.572247000" lon="-2.433308000">
        <ele>629.60</ele>
        <time>2017-02-18T08:54:54Z</time>
      </trkpt>
      <trkpt lat="42.572250000" lon="-2.433307000">
        <ele>629.60</ele>
        <time>2017-02-18T08:54:55Z</time>
      </trkpt>
      <trkpt lat="42.572251000" lon="-2.433304000">
        <ele>629.60</ele>
        <time>2017-02-18T08:54:56Z</time>
      </trkpt>
      <trkpt lat="42.572252000" lon="-2.433302000">
        <ele>629.60</ele>
        <time>2017-02-18T08:54:57Z</time>
      </trkpt>
      <trkpt lat="42.572253000" lon="-2.433304000">
        <ele>629.60</ele>
        <time>2017-02-18T08:54:58Z</time>
      </trkpt>
      <trkpt lat="42.572254000" lon="-2.433307000">
        <ele>629.60</ele>
        <time>2017-02-18T08:54:59Z</time>
      </trkpt>
      <trkpt lat="42.572256000" lon="-2.433308000">
        <ele>629.90</ele>
        <time>2017-02-18T08:55:00Z</time>
      </trkpt>
      <trkpt lat="42.572257000" lon="-2.433306000">
        <ele>630.10</ele>
        <time>2017-02-18T08:55:01Z</time>
      </trkpt>
      <trkpt lat="42.572256000" lon="-2.433307000">
        <ele>629.90</ele>
        <time>2017-02-18T08:55:02Z</time>
      </trkpt>
      <trkpt lat="42.572255000" lon="-2.433307000">
        <ele>629.70</ele>
        <time>2017-02-18T08:55:03Z</time>
      </trkpt>
      <trkpt lat="42.572254000" lon="-2.433308000">
        <ele>630.00</ele>
        <time>2017-02-18T08:55:04Z</time>
      </trkpt>
      <trkpt lat="42.572256000" lon="-2.433307000">
        <ele>630.10</ele>
        <time>2017-02-18T08:55:05Z</time>
      </trkpt>
      <trkpt lat="42.572258000" lon="-2.433308000">
        <ele>630.10</ele>
        <time>2017-02-18T08:55:06Z</time>
      </trkpt>
      <trkpt lat="42.572261000" lon="-2.433311000">
        <ele>630.10</ele>
        <time>2017-02-18T08:55:07Z</time>
      </trkpt>
      <trkpt lat="42.572263000" lon="-2.433313000">
        <ele>630.30</ele>
        <time>2017-02-18T08:55:08Z</time>
      </trkpt>
      <trkpt lat="42.572265000" lon="-2.433314000">
        <ele>630.40</ele>
        <time>2017-02-18T08:55:09Z</time>
      </trkpt>
      <trkpt lat="42.572266000" lon="-2.433311000">
        <ele>630.30</ele>
        <time>2017-02-18T08:55:10Z</time>
      </trkpt>
      <trkpt lat="42.572266000" lon="-2.433308000">
        <ele>630.20</ele>
        <time>2017-02-18T08:55:11Z</time>
      </trkpt>
      <trkpt lat="42.572266000" lon="-2.433307000">
        <ele>630.10</ele>
        <time>2017-02-18T08:55:12Z</time>
      </trkpt>
      <trkpt lat="42.572266000" lon="-2.433305000">
        <ele>630.00</ele>
        <time>2017-02-18T08:55:13Z</time>
      </trkpt>
      <trkpt lat="42.572267000" lon="-2.433304000">
        <ele>629.90</ele>
        <time>2017-02-18T08:55:14Z</time>
      </trkpt>
      <trkpt lat="42.572268000" lon="-2.433302000">
        <ele>629.80</ele>
        <time>2017-02-18T08:55:15Z</time>
      </trkpt>
      <trkpt lat="42.572268000" lon="-2.433300000">
        <ele>629.80</ele>
        <time>2017-02-18T08:55:16Z</time>
      </trkpt>
      <trkpt lat="42.572270000" lon="-2.433299000">
        <ele>629.80</ele>
        <time>2017-02-18T08:55:17Z</time>
      </trkpt>
      <trkpt lat="42.572273000" lon="-2.433299000">
        <ele>629.80</ele>
        <time>2017-02-18T08:55:18Z</time>
      </trkpt>
      <trkpt lat="42.572272000" lon="-2.433305000">
        <ele>629.80</ele>
        <time>2017-02-18T08:55:19Z</time>
      </trkpt>
      <trkpt lat="42.572270000" lon="-2.433312000">
        <ele>630.00</ele>
        <time>2017-02-18T08:55:20Z</time>
      </trkpt>
      <trkpt lat="42.572265000" lon="-2.433316000">
        <ele>630.10</ele>
        <time>2017-02-18T08:55:21Z</time>
      </trkpt>
      <trkpt lat="42.572262000" lon="-2.433314000">
        <ele>630.00</ele>
        <time>2017-02-18T08:55:22Z</time>
      </trkpt>
      <trkpt lat="42.572262000" lon="-2.433310000">
        <ele>630.00</ele>
        <time>2017-02-18T08:55:23Z</time>
      </trkpt>
      <trkpt lat="42.572262000" lon="-2.433307000">
        <ele>630.00</ele>
        <time>2017-02-18T08:55:24Z</time>
      </trkpt>
      <trkpt lat="42.572262000" lon="-2.433303000">
        <ele>630.10</ele>
        <time>2017-02-18T08:55:25Z</time>
      </trkpt>
      <trkpt lat="42.572262000" lon="-2.433304000">
        <ele>630.00</ele>
        <time>2017-02-18T08:55:26Z</time>
      </trkpt>
      <trkpt lat="42.572261000" lon="-2.433305000">
        <ele>629.90</ele>
        <time>2017-02-18T08:55:27Z</time>
      </trkpt>
      <trkpt lat="42.572261000" lon="-2.433305000">
        <ele>629.90</ele>
        <time>2017-02-18T08:55:28Z</time>
      </trkpt>
      <trkpt lat="42.572260000" lon="-2.433305000">
        <ele>629.90</ele>
        <time>2017-02-18T08:55:29Z</time>
      </trkpt>
      <trkpt lat="42.572260000" lon="-2.433305000">
        <ele>629.90</ele>
        <time>2017-02-18T08:55:30Z</time>
      </trkpt>
      <trkpt lat="42.572261000" lon="-2.433307000">
        <ele>629.90</ele>
        <time>2017-02-18T08:55:31Z</time>
      </trkpt>
      <trkpt lat="42.572262000" lon="-2.433303000">
        <ele>629.90</ele>
        <time>2017-02-18T08:55:32Z</time>
      </trkpt>
      <trkpt lat="42.572261000" lon="-2.433297000">
        <ele>629.90</ele>
        <time>2017-02-18T08:55:33Z</time>
      </trkpt>
      <trkpt lat="42.572261000" lon="-2.433294000">
        <ele>629.90</ele>
        <time>2017-02-18T08:55:34Z</time>
      </trkpt>
      <trkpt lat="42.572258000" lon="-2.433292000">
        <ele>629.90</ele>
        <time>2017-02-18T08:55:35Z</time>
      </trkpt>
      <trkpt lat="42.572255000" lon="-2.433291000">
        <ele>629.90</ele>
        <time>2017-02-18T08:55:36Z</time>
      </trkpt>
      <trkpt lat="42.572255000" lon="-2.433290000">
        <ele>629.90</ele>
        <time>2017-02-18T08:55:37Z</time>
      </trkpt>
      <trkpt lat="42.572254000" lon="-2.433294000">
        <ele>629.90</ele>
        <time>2017-02-18T08:55:38Z</time>
      </trkpt>
      <trkpt lat="42.572253000" lon="-2.433298000">
        <ele>629.90</ele>
        <time>2017-02-18T08:55:39Z</time>
      </trkpt>
      <trkpt lat="42.572252000" lon="-2.433306000">
        <ele>629.90</ele>
        <time>2017-02-18T08:55:40Z</time>
      </trkpt>
      <trkpt lat="42.572254000" lon="-2.433314000">
        <ele>629.90</ele>
        <time>2017-02-18T08:55:41Z</time>
      </trkpt>
      <trkpt lat="42.572252000" lon="-2.433320000">
        <ele>629.80</ele>
        <time>2017-02-18T08:55:42Z</time>
      </trkpt>
      <trkpt lat="42.572252000" lon="-2.433323000">
        <ele>629.80</ele>
        <time>2017-02-18T08:55:43Z</time>
      </trkpt>
      <trkpt lat="42.572252000" lon="-2.433326000">
        <ele>629.80</ele>
        <time>2017-02-18T08:55:44Z</time>
      </trkpt>
      <trkpt lat="42.572259000" lon="-2.433321000">
        <ele>629.80</ele>
        <time>2017-02-18T08:55:46Z</time>
      </trkpt>
      <trkpt lat="42.572262000" lon="-2.433318000">
        <ele>629.80</ele>
        <time>2017-02-18T08:55:47Z</time>
      </trkpt>
      <trkpt lat="42.572265000" lon="-2.433317000">
        <ele>629.80</ele>
        <time>2017-02-18T08:55:48Z</time>
      </trkpt>
      <trkpt lat="42.572268000" lon="-2.433315000">
        <ele>629.80</ele>
        <time>2017-02-18T08:55:49Z</time>
      </trkpt>
      <trkpt lat="42.572267000" lon="-2.433316000">
        <ele>629.80</ele>
        <time>2017-02-18T08:55:50Z</time>
      </trkpt>
      <trkpt lat="42.572264000" lon="-2.433322000">
        <ele>629.80</ele>
        <time>2017-02-18T08:55:51Z</time>
      </trkpt>
      <trkpt lat="42.572265000" lon="-2.433327000">
        <ele>629.80</ele>
        <time>2017-02-18T08:55:52Z</time>
      </trkpt>
      <trkpt lat="42.572262000" lon="-2.433325000">
        <ele>629.80</ele>
        <time>2017-02-18T08:55:53Z</time>
      </trkpt>
      <trkpt lat="42.572257000" lon="-2.433322000">
        <ele>629.80</ele>
        <time>2017-02-18T08:55:54Z</time>
      </trkpt>
      <trkpt lat="42.572244000" lon="-2.433312000">
        <ele>629.80</ele>
        <time>2017-02-18T08:55:55Z</time>
      </trkpt>
      <trkpt lat="42.572228000" lon="-2.433293000">
        <ele>629.90</ele>
        <time>2017-02-18T08:55:56Z</time>
      </trkpt>
      <trkpt lat="42.572211000" lon="-2.433273000">
        <ele>630.10</ele>
        <time>2017-02-18T08:55:57Z</time>
      </trkpt>
      <trkpt lat="42.572190000" lon="-2.433248000">
        <ele>630.00</ele>
        <time>2017-02-18T08:55:58Z</time>
      </trkpt>
      <trkpt lat="42.572168000" lon="-2.433226000">
        <ele>630.00</ele>
        <time>2017-02-18T08:55:59Z</time>
      </trkpt>
      <trkpt lat="42.572148000" lon="-2.433207000">
        <ele>629.90</ele>
        <time>2017-02-18T08:56:00Z</time>
      </trkpt>
      <trkpt lat="42.572131000" lon="-2.433183000">
        <ele>629.90</ele>
        <time>2017-02-18T08:56:01Z</time>
      </trkpt>
      <trkpt lat="42.572110000" lon="-2.433160000">
        <ele>629.90</ele>
        <time>2017-02-18T08:56:02Z</time>
      </trkpt>
      <trkpt lat="42.572088000" lon="-2.433139000">
        <ele>629.90</ele>
        <time>2017-02-18T08:56:03Z</time>
      </trkpt>
      <trkpt lat="42.572065000" lon="-2.433112000">
        <ele>629.80</ele>
        <time>2017-02-18T08:56:04Z</time>
      </trkpt>
      <trkpt lat="42.572042000" lon="-2.433088000">
        <ele>629.80</ele>
        <time>2017-02-18T08:56:05Z</time>
      </trkpt>
      <trkpt lat="42.572022000" lon="-2.433069000">
        <ele>629.80</ele>
        <time>2017-02-18T08:56:06Z</time>
      </trkpt>
      <trkpt lat="42.572002000" lon="-2.433044000">
        <ele>629.80</ele>
        <time>2017-02-18T08:56:07Z</time>
      </trkpt>
      <trkpt lat="42.571981000" lon="-2.433018000">
        <ele>629.80</ele>
        <time>2017-02-18T08:56:08Z</time>
      </trkpt>
      <trkpt lat="42.571961000" lon="-2.432995000">
        <ele>629.90</ele>
        <time>2017-02-18T08:56:09Z</time>
      </trkpt>
      <trkpt lat="42.571940000" lon="-2.432972000">
        <ele>629.90</ele>
        <time>2017-02-18T08:56:10Z</time>
      </trkpt>
      <trkpt lat="42.571920000" lon="-2.432949000">
        <ele>629.90</ele>
        <time>2017-02-18T08:56:11Z</time>
      </trkpt>
      <trkpt lat="42.571899000" lon="-2.432927000">
        <ele>629.90</ele>
        <time>2017-02-18T08:56:12Z</time>
      </trkpt>
      <trkpt lat="42.571879000" lon="-2.432908000">
        <ele>629.90</ele>
        <time>2017-02-18T08:56:13Z</time>
      </trkpt>
      <trkpt lat="42.571858000" lon="-2.432887000">
        <ele>629.90</ele>
        <time>2017-02-18T08:56:14Z</time>
      </trkpt>
      <trkpt lat="42.571839000" lon="-2.432864000">
        <ele>629.80</ele>
        <time>2017-02-18T08:56:15Z</time>
      </trkpt>
      <trkpt lat="42.571821000" lon="-2.432843000">
        <ele>630.00</ele>
        <time>2017-02-18T08:56:16Z</time>
      </trkpt>
      <trkpt lat="42.571801000" lon="-2.432822000">
        <ele>630.10</ele>
        <time>2017-02-18T08:56:17Z</time>
      </trkpt>
      <trkpt lat="42.571782000" lon="-2.432799000">
        <ele>630.30</ele>
        <time>2017-02-18T08:56:18Z</time>
      </trkpt>
      <trkpt lat="42.571763000" lon="-2.432775000">
        <ele>630.50</ele>
        <time>2017-02-18T08:56:19Z</time>
      </trkpt>
      <trkpt lat="42.571746000" lon="-2.432751000">
        <ele>630.70</ele>
        <time>2017-02-18T08:56:20Z</time>
      </trkpt>
      <trkpt lat="42.571722000" lon="-2.432729000">
        <ele>630.90</ele>
        <time>2017-02-18T08:56:21Z</time>
      </trkpt>
      <trkpt lat="42.571700000" lon="-2.432701000">
        <ele>631.10</ele>
        <time>2017-02-18T08:56:22Z</time>
      </trkpt>
      <trkpt lat="42.571680000" lon="-2.432678000">
        <ele>631.20</ele>
        <time>2017-02-18T08:56:23Z</time>
      </trkpt>
      <trkpt lat="42.571663000" lon="-2.432655000">
        <ele>631.40</ele>
        <time>2017-02-18T08:56:24Z</time>
      </trkpt>
      <trkpt lat="42.571645000" lon="-2.432629000">
        <ele>631.60</ele>
        <time>2017-02-18T08:56:25Z</time>
      </trkpt>
      <trkpt lat="42.571626000" lon="-2.432608000">
        <ele>631.70</ele>
        <time>2017-02-18T08:56:26Z</time>
      </trkpt>
      <trkpt lat="42.571607000" lon="-2.432583000">
        <ele>631.80</ele>
        <time>2017-02-18T08:56:27Z</time>
      </trkpt>
      <trkpt lat="42.571588000" lon="-2.432562000">
        <ele>631.90</ele>
        <time>2017-02-18T08:56:28Z</time>
      </trkpt>
      <trkpt lat="42.571570000" lon="-2.432535000">
        <ele>632.00</ele>
        <time>2017-02-18T08:56:29Z</time>
      </trkpt>
      <trkpt lat="42.571550000" lon="-2.432518000">
        <ele>632.10</ele>
        <time>2017-02-18T08:56:30Z</time>
      </trkpt>
      <trkpt lat="42.571533000" lon="-2.432500000">
        <ele>632.10</ele>
        <time>2017-02-18T08:56:31Z</time>
      </trkpt>
      <trkpt lat="42.571516000" lon="-2.432487000">
        <ele>632.30</ele>
        <time>2017-02-18T08:56:32Z</time>
      </trkpt>
      <trkpt lat="42.571499000" lon="-2.432468000">
        <ele>632.40</ele>
        <time>2017-02-18T08:56:33Z</time>
      </trkpt>
      <trkpt lat="42.571481000" lon="-2.432447000">
        <ele>632.60</ele>
        <time>2017-02-18T08:56:34Z</time>
      </trkpt>
      <trkpt lat="42.571463000" lon="-2.432425000">
        <ele>632.80</ele>
        <time>2017-02-18T08:56:35Z</time>
      </trkpt>
      <trkpt lat="42.571444000" lon="-2.432406000">
        <ele>632.90</ele>
        <time>2017-02-18T08:56:36Z</time>
      </trkpt>
      <trkpt lat="42.571424000" lon="-2.432388000">
        <ele>633.00</ele>
        <time>2017-02-18T08:56:37Z</time>
      </trkpt>
      <trkpt lat="42.571408000" lon="-2.432371000">
        <ele>633.10</ele>
        <time>2017-02-18T08:56:38Z</time>
      </trkpt>
      <trkpt lat="42.571392000" lon="-2.432355000">
        <ele>633.10</ele>
        <time>2017-02-18T08:56:39Z</time>
      </trkpt>
      <trkpt lat="42.571377000" lon="-2.432346000">
        <ele>633.40</ele>
        <time>2017-02-18T08:56:40Z</time>
      </trkpt>
      <trkpt lat="42.571362000" lon="-2.432328000">
        <ele>633.50</ele>
        <time>2017-02-18T08:56:41Z</time>
      </trkpt>
      <trkpt lat="42.571345000" lon="-2.432317000">
        <ele>633.70</ele>
        <time>2017-02-18T08:56:42Z</time>
      </trkpt>
      <trkpt lat="42.571331000" lon="-2.432300000">
        <ele>633.80</ele>
        <time>2017-02-18T08:56:43Z</time>
      </trkpt>
      <trkpt lat="42.571313000" lon="-2.432291000">
        <ele>633.90</ele>
        <time>2017-02-18T08:56:44Z</time>
      </trkpt>
      <trkpt lat="42.571297000" lon="-2.432282000">
        <ele>634.00</ele>
        <time>2017-02-18T08:56:45Z</time>
      </trkpt>
      <trkpt lat="42.571263000" lon="-2.432255000">
        <ele>634.30</ele>
        <time>2017-02-18T08:56:47Z</time>
      </trkpt>
      <trkpt lat="42.571245000" lon="-2.432238000">
        <ele>634.60</ele>
        <time>2017-02-18T08:56:48Z</time>
      </trkpt>
      <trkpt lat="42.571226000" lon="-2.432222000">
        <ele>634.80</ele>
        <time>2017-02-18T08:56:49Z</time>
      </trkpt>
      <trkpt lat="42.571210000" lon="-2.432203000">
        <ele>635.00</ele>
        <time>2017-02-18T08:56:50Z</time>
      </trkpt>
      <trkpt lat="42.571193000" lon="-2.432175000">
        <ele>635.10</ele>
        <time>2017-02-18T08:56:51Z</time>
      </trkpt>
      <trkpt lat="42.571178000" lon="-2.432167000">
        <ele>635.50</ele>
        <time>2017-02-18T08:56:52Z</time>
      </trkpt>
      <trkpt lat="42.571157000" lon="-2.432152000">
        <ele>635.70</ele>
        <time>2017-02-18T08:56:53Z</time>
      </trkpt>
      <trkpt lat="42.571139000" lon="-2.432139000">
        <ele>636.00</ele>
        <time>2017-02-18T08:56:54Z</time>
      </trkpt>
      <trkpt lat="42.571121000" lon="-2.432127000">
        <ele>636.20</ele>
        <time>2017-02-18T08:56:55Z</time>
      </trkpt>
      <trkpt lat="42.571104000" lon="-2.432115000">
        <ele>636.40</ele>
        <time>2017-02-18T08:56:56Z</time>
      </trkpt>
      <trkpt lat="42.571087000" lon="-2.432094000">
        <ele>636.50</ele>
        <time>2017-02-18T08:56:57Z</time>
      </trkpt>
      <trkpt lat="42.571068000" lon="-2.432079000">
        <ele>636.80</ele>
        <time>2017-02-18T08:56:58Z</time>
      </trkpt>
      <trkpt lat="42.571048000" lon="-2.432065000">
        <ele>637.00</ele>
        <time>2017-02-18T08:56:59Z</time>
      </trkpt>
      <trkpt lat="42.571031000" lon="-2.432046000">
        <ele>637.20</ele>
        <time>2017-02-18T08:57:00Z</time>
      </trkpt>
      <trkpt lat="42.571014000" lon="-2.432026000">
        <ele>637.30</ele>
        <time>2017-02-18T08:57:01Z</time>
      </trkpt>
      <trkpt lat="42.570998000" lon="-2.432009000">
        <ele>637.40</ele>
        <time>2017-02-18T08:57:02Z</time>
      </trkpt>
      <trkpt lat="42.570983000" lon="-2.431992000">
        <ele>637.50</ele>
        <time>2017-02-18T08:57:03Z</time>
      </trkpt>
      <trkpt lat="42.570966000" lon="-2.431973000">
        <ele>637.50</ele>
        <time>2017-02-18T08:57:04Z</time>
      </trkpt>
      <trkpt lat="42.570949000" lon="-2.431951000">
        <ele>637.50</ele>
        <time>2017-02-18T08:57:05Z</time>
      </trkpt>
      <trkpt lat="42.570933000" lon="-2.431932000">
        <ele>637.80</ele>
        <time>2017-02-18T08:57:06Z</time>
      </trkpt>
      <trkpt lat="42.570916000" lon="-2.431913000">
        <ele>638.10</ele>
        <time>2017-02-18T08:57:07Z</time>
      </trkpt>
      <trkpt lat="42.570900000" lon="-2.431892000">
        <ele>638.50</ele>
        <time>2017-02-18T08:57:08Z</time>
      </trkpt>
      <trkpt lat="42.570886000" lon="-2.431869000">
        <ele>638.80</ele>
        <time>2017-02-18T08:57:09Z</time>
      </trkpt>
      <trkpt lat="42.570871000" lon="-2.431848000">
        <ele>639.10</ele>
        <time>2017-02-18T08:57:10Z</time>
      </trkpt>
      <trkpt lat="42.570854000" lon="-2.431825000">
        <ele>639.30</ele>
        <time>2017-02-18T08:57:11Z</time>
      </trkpt>
      <trkpt lat="42.570838000" lon="-2.431804000">
        <ele>639.60</ele>
        <time>2017-02-18T08:57:12Z</time>
      </trkpt>
      <trkpt lat="42.570825000" lon="-2.431781000">
        <ele>639.80</ele>
        <time>2017-02-18T08:57:13Z</time>
      </trkpt>
      <trkpt lat="42.570809000" lon="-2.431759000">
        <ele>640.00</ele>
        <time>2017-02-18T08:57:14Z</time>
      </trkpt>
      <trkpt lat="42.570793000" lon="-2.431722000">
        <ele>640.20</ele>
        <time>2017-02-18T08:57:15Z</time>
      </trkpt>
      <trkpt lat="42.570778000" lon="-2.431699000">
        <ele>640.30</ele>
        <time>2017-02-18T08:57:16Z</time>
      </trkpt>
      <trkpt lat="42.570759000" lon="-2.431688000">
        <ele>640.40</ele>
        <time>2017-02-18T08:57:17Z</time>
      </trkpt>
      <trkpt lat="42.570743000" lon="-2.431665000">
        <ele>640.50</ele>
        <time>2017-02-18T08:57:18Z</time>
      </trkpt>
      <trkpt lat="42.570728000" lon="-2.431641000">
        <ele>640.60</ele>
        <time>2017-02-18T08:57:19Z</time>
      </trkpt>
      <trkpt lat="42.570711000" lon="-2.431616000">
        <ele>640.70</ele>
        <time>2017-02-18T08:57:20Z</time>
      </trkpt>
      <trkpt lat="42.570695000" lon="-2.431592000">
        <ele>640.80</ele>
        <time>2017-02-18T08:57:21Z</time>
      </trkpt>
      <trkpt lat="42.570680000" lon="-2.431569000">
        <ele>641.00</ele>
        <time>2017-02-18T08:57:22Z</time>
      </trkpt>
      <trkpt lat="42.570664000" lon="-2.431546000">
        <ele>641.10</ele>
        <time>2017-02-18T08:57:23Z</time>
      </trkpt>
      <trkpt lat="42.570649000" lon="-2.431519000">
        <ele>641.10</ele>
        <time>2017-02-18T08:57:24Z</time>
      </trkpt>
      <trkpt lat="42.570635000" lon="-2.431497000">
        <ele>641.10</ele>
        <time>2017-02-18T08:57:25Z</time>
      </trkpt>
      <trkpt lat="42.570619000" lon="-2.431473000">
        <ele>641.20</ele>
        <time>2017-02-18T08:57:26Z</time>
      </trkpt>
      <trkpt lat="42.570605000" lon="-2.431445000">
        <ele>641.30</ele>
        <time>2017-02-18T08:57:27Z</time>
      </trkpt>
      <trkpt lat="42.570588000" lon="-2.431419000">
        <ele>641.50</ele>
        <time>2017-02-18T08:57:28Z</time>
      </trkpt>
      <trkpt lat="42.570574000" lon="-2.431396000">
        <ele>641.60</ele>
        <time>2017-02-18T08:57:29Z</time>
      </trkpt>
      <trkpt lat="42.570558000" lon="-2.431378000">
        <ele>641.90</ele>
        <time>2017-02-18T08:57:30Z</time>
      </trkpt>
      <trkpt lat="42.570545000" lon="-2.431357000">
        <ele>642.00</ele>
        <time>2017-02-18T08:57:31Z</time>
      </trkpt>
      <trkpt lat="42.570530000" lon="-2.431332000">
        <ele>642.30</ele>
        <time>2017-02-18T08:57:32Z</time>
      </trkpt>
      <trkpt lat="42.570514000" lon="-2.431310000">
        <ele>642.40</ele>
        <time>2017-02-18T08:57:33Z</time>
      </trkpt>
      <trkpt lat="42.570500000" lon="-2.431284000">
        <ele>642.60</ele>
        <time>2017-02-18T08:57:34Z</time>
      </trkpt>
      <trkpt lat="42.570485000" lon="-2.431259000">
        <ele>642.70</ele>
        <time>2017-02-18T08:57:35Z</time>
      </trkpt>
      <trkpt lat="42.570468000" lon="-2.431238000">
        <ele>643.00</ele>
        <time>2017-02-18T08:57:36Z</time>
      </trkpt>
      <trkpt lat="42.570452000" lon="-2.431214000">
        <ele>643.30</ele>
        <time>2017-02-18T08:57:37Z</time>
      </trkpt>
      <trkpt lat="42.570438000" lon="-2.431193000">
        <ele>643.50</ele>
        <time>2017-02-18T08:57:38Z</time>
      </trkpt>
      <trkpt lat="42.570426000" lon="-2.431173000">
        <ele>643.70</ele>
        <time>2017-02-18T08:57:39Z</time>
      </trkpt>
      <trkpt lat="42.570418000" lon="-2.431154000">
        <ele>643.80</ele>
        <time>2017-02-18T08:57:40Z</time>
      </trkpt>
      <trkpt lat="42.570410000" lon="-2.431135000">
        <ele>643.90</ele>
        <time>2017-02-18T08:57:41Z</time>
      </trkpt>
      <trkpt lat="42.570398000" lon="-2.431125000">
        <ele>644.00</ele>
        <time>2017-02-18T08:57:42Z</time>
      </trkpt>
      <trkpt lat="42.570386000" lon="-2.431113000">
        <ele>644.10</ele>
        <time>2017-02-18T08:57:43Z</time>
      </trkpt>
      <trkpt lat="42.570373000" lon="-2.431102000">
        <ele>644.40</ele>
        <time>2017-02-18T08:57:44Z</time>
      </trkpt>
      <trkpt lat="42.570360000" lon="-2.431089000">
        <ele>644.60</ele>
        <time>2017-02-18T08:57:45Z</time>
      </trkpt>
      <trkpt lat="42.570347000" lon="-2.431074000">
        <ele>644.90</ele>
        <time>2017-02-18T08:57:46Z</time>
      </trkpt>
      <trkpt lat="42.570322000" lon="-2.431040000">
        <ele>645.20</ele>
        <time>2017-02-18T08:57:48Z</time>
      </trkpt>
      <trkpt lat="42.570308000" lon="-2.431019000">
        <ele>645.30</ele>
        <time>2017-02-18T08:57:49Z</time>
      </trkpt>
      <trkpt lat="42.570293000" lon="-2.431000000">
        <ele>645.30</ele>
        <time>2017-02-18T08:57:50Z</time>
      </trkpt>
      <trkpt lat="42.570280000" lon="-2.430980000">
        <ele>645.40</ele>
        <time>2017-02-18T08:57:51Z</time>
      </trkpt>
      <trkpt lat="42.570269000" lon="-2.430959000">
        <ele>645.50</ele>
        <time>2017-02-18T08:57:52Z</time>
      </trkpt>
      <trkpt lat="42.570255000" lon="-2.430933000">
        <ele>645.60</ele>
        <time>2017-02-18T08:57:53Z</time>
      </trkpt>
      <trkpt lat="42.570239000" lon="-2.430909000">
        <ele>645.60</ele>
        <time>2017-02-18T08:57:54Z</time>
      </trkpt>
      <trkpt lat="42.570227000" lon="-2.430890000">
        <ele>645.70</ele>
        <time>2017-02-18T08:57:55Z</time>
      </trkpt>
      <trkpt lat="42.570210000" lon="-2.430866000">
        <ele>645.90</ele>
        <time>2017-02-18T08:57:56Z</time>
      </trkpt>
      <trkpt lat="42.570195000" lon="-2.430842000">
        <ele>646.00</ele>
        <time>2017-02-18T08:57:57Z</time>
      </trkpt>
      <trkpt lat="42.570182000" lon="-2.430823000">
        <ele>646.10</ele>
        <time>2017-02-18T08:57:58Z</time>
      </trkpt>
      <trkpt lat="42.570170000" lon="-2.430804000">
        <ele>646.20</ele>
        <time>2017-02-18T08:57:59Z</time>
      </trkpt>
      <trkpt lat="42.570155000" lon="-2.430788000">
        <ele>646.40</ele>
        <time>2017-02-18T08:58:00Z</time>
      </trkpt>
      <trkpt lat="42.570138000" lon="-2.430769000">
        <ele>646.50</ele>
        <time>2017-02-18T08:58:01Z</time>
      </trkpt>
      <trkpt lat="42.570122000" lon="-2.430744000">
        <ele>646.60</ele>
        <time>2017-02-18T08:58:02Z</time>
      </trkpt>
      <trkpt lat="42.570107000" lon="-2.430723000">
        <ele>646.70</ele>
        <time>2017-02-18T08:58:03Z</time>
      </trkpt>
      <trkpt lat="42.570090000" lon="-2.430706000">
        <ele>646.80</ele>
        <time>2017-02-18T08:58:04Z</time>
      </trkpt>
      <trkpt lat="42.570075000" lon="-2.430679000">
        <ele>646.80</ele>
        <time>2017-02-18T08:58:05Z</time>
      </trkpt>
      <trkpt lat="42.570058000" lon="-2.430655000">
        <ele>646.90</ele>
        <time>2017-02-18T08:58:06Z</time>
      </trkpt>
      <trkpt lat="42.570044000" lon="-2.430634000">
        <ele>646.90</ele>
        <time>2017-02-18T08:58:07Z</time>
      </trkpt>
      <trkpt lat="42.570028000" lon="-2.430610000">
        <ele>646.90</ele>
        <time>2017-02-18T08:58:08Z</time>
      </trkpt>
      <trkpt lat="42.570011000" lon="-2.430589000">
        <ele>646.90</ele>
        <time>2017-02-18T08:58:09Z</time>
      </trkpt>
      <trkpt lat="42.569994000" lon="-2.430566000">
        <ele>646.90</ele>
        <time>2017-02-18T08:58:10Z</time>
      </trkpt>
      <trkpt lat="42.569976000" lon="-2.430539000">
        <ele>646.80</ele>
        <time>2017-02-18T08:58:11Z</time>
      </trkpt>
      <trkpt lat="42.569961000" lon="-2.430517000">
        <ele>646.80</ele>
        <time>2017-02-18T08:58:12Z</time>
      </trkpt>
      <trkpt lat="42.569946000" lon="-2.430492000">
        <ele>646.80</ele>
        <time>2017-02-18T08:58:13Z</time>
      </trkpt>
      <trkpt lat="42.569931000" lon="-2.430468000">
        <ele>646.90</ele>
        <time>2017-02-18T08:58:14Z</time>
      </trkpt>
      <trkpt lat="42.569915000" lon="-2.430445000">
        <ele>647.00</ele>
        <time>2017-02-18T08:58:15Z</time>
      </trkpt>
      <trkpt lat="42.569898000" lon="-2.430421000">
        <ele>647.40</ele>
        <time>2017-02-18T08:58:16Z</time>
      </trkpt>
      <trkpt lat="42.569882000" lon="-2.430401000">
        <ele>647.70</ele>
        <time>2017-02-18T08:58:17Z</time>
      </trkpt>
      <trkpt lat="42.569867000" lon="-2.430382000">
        <ele>647.90</ele>
        <time>2017-02-18T08:58:18Z</time>
      </trkpt>
      <trkpt lat="42.569852000" lon="-2.430361000">
        <ele>648.10</ele>
        <time>2017-02-18T08:58:19Z</time>
      </trkpt>
      <trkpt lat="42.569835000" lon="-2.430339000">
        <ele>648.20</ele>
        <time>2017-02-18T08:58:20Z</time>
      </trkpt>
      <trkpt lat="42.569822000" lon="-2.430322000">
        <ele>648.30</ele>
        <time>2017-02-18T08:58:21Z</time>
      </trkpt>
      <trkpt lat="42.569806000" lon="-2.430302000">
        <ele>648.40</ele>
        <time>2017-02-18T08:58:22Z</time>
      </trkpt>
      <trkpt lat="42.569790000" lon="-2.430283000">
        <ele>648.50</ele>
        <time>2017-02-18T08:58:23Z</time>
      </trkpt>
      <trkpt lat="42.569775000" lon="-2.430263000">
        <ele>648.60</ele>
        <time>2017-02-18T08:58:24Z</time>
      </trkpt>
      <trkpt lat="42.569761000" lon="-2.430240000">
        <ele>648.80</ele>
        <time>2017-02-18T08:58:25Z</time>
      </trkpt>
      <trkpt lat="42.569744000" lon="-2.430226000">
        <ele>648.90</ele>
        <time>2017-02-18T08:58:26Z</time>
      </trkpt>
      <trkpt lat="42.569727000" lon="-2.430212000">
        <ele>648.90</ele>
        <time>2017-02-18T08:58:27Z</time>
      </trkpt>
      <trkpt lat="42.569711000" lon="-2.430194000">
        <ele>649.10</ele>
        <time>2017-02-18T08:58:28Z</time>
      </trkpt>
      <trkpt lat="42.569693000" lon="-2.430179000">
        <ele>649.30</ele>
        <time>2017-02-18T08:58:29Z</time>
      </trkpt>
      <trkpt lat="42.569674000" lon="-2.430164000">
        <ele>649.40</ele>
        <time>2017-02-18T08:58:30Z</time>
      </trkpt>
      <trkpt lat="42.569656000" lon="-2.430148000">
        <ele>649.50</ele>
        <time>2017-02-18T08:58:31Z</time>
      </trkpt>
      <trkpt lat="42.569637000" lon="-2.430132000">
        <ele>649.50</ele>
        <time>2017-02-18T08:58:32Z</time>
      </trkpt>
      <trkpt lat="42.569616000" lon="-2.430122000">
        <ele>649.60</ele>
        <time>2017-02-18T08:58:33Z</time>
      </trkpt>
      <trkpt lat="42.569598000" lon="-2.430110000">
        <ele>649.70</ele>
        <time>2017-02-18T08:58:34Z</time>
      </trkpt>
      <trkpt lat="42.569576000" lon="-2.430098000">
        <ele>649.70</ele>
        <time>2017-02-18T08:58:35Z</time>
      </trkpt>
      <trkpt lat="42.569558000" lon="-2.430087000">
        <ele>649.90</ele>
        <time>2017-02-18T08:58:36Z</time>
      </trkpt>
      <trkpt lat="42.569535000" lon="-2.430073000">
        <ele>650.00</ele>
        <time>2017-02-18T08:58:37Z</time>
      </trkpt>
      <trkpt lat="42.569515000" lon="-2.430062000">
        <ele>650.20</ele>
        <time>2017-02-18T08:58:38Z</time>
      </trkpt>
      <trkpt lat="42.569490000" lon="-2.430050000">
        <ele>650.40</ele>
        <time>2017-02-18T08:58:39Z</time>
      </trkpt>
      <trkpt lat="42.569463000" lon="-2.430030000">
        <ele>650.60</ele>
        <time>2017-02-18T08:58:40Z</time>
      </trkpt>
      <trkpt lat="42.569444000" lon="-2.430017000">
        <ele>650.70</ele>
        <time>2017-02-18T08:58:41Z</time>
      </trkpt>
      <trkpt lat="42.569426000" lon="-2.430010000">
        <ele>650.90</ele>
        <time>2017-02-18T08:58:42Z</time>
      </trkpt>
      <trkpt lat="42.569408000" lon="-2.429998000">
        <ele>651.00</ele>
        <time>2017-02-18T08:58:43Z</time>
      </trkpt>
      <trkpt lat="42.569389000" lon="-2.429989000">
        <ele>651.40</ele>
        <time>2017-02-18T08:58:44Z</time>
      </trkpt>
      <trkpt lat="42.569368000" lon="-2.429978000">
        <ele>651.70</ele>
        <time>2017-02-18T08:58:45Z</time>
      </trkpt>
      <trkpt lat="42.569350000" lon="-2.429972000">
        <ele>652.00</ele>
        <time>2017-02-18T08:58:46Z</time>
      </trkpt>
      <trkpt lat="42.569332000" lon="-2.429962000">
        <ele>652.10</ele>
        <time>2017-02-18T08:58:47Z</time>
      </trkpt>
      <trkpt lat="42.569293000" lon="-2.429936000">
        <ele>652.40</ele>
        <time>2017-02-18T08:58:49Z</time>
      </trkpt>
      <trkpt lat="42.569273000" lon="-2.429917000">
        <ele>652.60</ele>
        <time>2017-02-18T08:58:50Z</time>
      </trkpt>
      <trkpt lat="42.569254000" lon="-2.429901000">
        <ele>652.70</ele>
        <time>2017-02-18T08:58:51Z</time>
      </trkpt>
      <trkpt lat="42.569238000" lon="-2.429886000">
        <ele>652.90</ele>
        <time>2017-02-18T08:58:52Z</time>
      </trkpt>
      <trkpt lat="42.569220000" lon="-2.429873000">
        <ele>652.90</ele>
        <time>2017-02-18T08:58:53Z</time>
      </trkpt>
      <trkpt lat="42.569204000" lon="-2.429862000">
        <ele>653.00</ele>
        <time>2017-02-18T08:58:54Z</time>
      </trkpt>
      <trkpt lat="42.569188000" lon="-2.429851000">
        <ele>653.10</ele>
        <time>2017-02-18T08:58:55Z</time>
      </trkpt>
      <trkpt lat="42.569173000" lon="-2.429839000">
        <ele>653.10</ele>
        <time>2017-02-18T08:58:56Z</time>
      </trkpt>
      <trkpt lat="42.569160000" lon="-2.429827000">
        <ele>653.20</ele>
        <time>2017-02-18T08:58:57Z</time>
      </trkpt>
      <trkpt lat="42.569142000" lon="-2.429813000">
        <ele>653.30</ele>
        <time>2017-02-18T08:58:58Z</time>
      </trkpt>
      <trkpt lat="42.569126000" lon="-2.429798000">
        <ele>653.50</ele>
        <time>2017-02-18T08:58:59Z</time>
      </trkpt>
      <trkpt lat="42.569109000" lon="-2.429782000">
        <ele>653.70</ele>
        <time>2017-02-18T08:59:00Z</time>
      </trkpt>
      <trkpt lat="42.569094000" lon="-2.429763000">
        <ele>653.80</ele>
        <time>2017-02-18T08:59:01Z</time>
      </trkpt>
      <trkpt lat="42.569077000" lon="-2.429744000">
        <ele>653.90</ele>
        <time>2017-02-18T08:59:02Z</time>
      </trkpt>
      <trkpt lat="42.569062000" lon="-2.429724000">
        <ele>654.00</ele>
        <time>2017-02-18T08:59:03Z</time>
      </trkpt>
      <trkpt lat="42.569046000" lon="-2.429707000">
        <ele>654.10</ele>
        <time>2017-02-18T08:59:04Z</time>
      </trkpt>
      <trkpt lat="42.569032000" lon="-2.429688000">
        <ele>654.20</ele>
        <time>2017-02-18T08:59:05Z</time>
      </trkpt>
      <trkpt lat="42.569018000" lon="-2.429668000">
        <ele>654.30</ele>
        <time>2017-02-18T08:59:06Z</time>
      </trkpt>
      <trkpt lat="42.569003000" lon="-2.429653000">
        <ele>654.40</ele>
        <time>2017-02-18T08:59:07Z</time>
      </trkpt>
      <trkpt lat="42.568989000" lon="-2.429635000">
        <ele>654.80</ele>
        <time>2017-02-18T08:59:08Z</time>
      </trkpt>
      <trkpt lat="42.568974000" lon="-2.429616000">
        <ele>655.10</ele>
        <time>2017-02-18T08:59:09Z</time>
      </trkpt>
      <trkpt lat="42.568958000" lon="-2.429594000">
        <ele>655.40</ele>
        <time>2017-02-18T08:59:10Z</time>
      </trkpt>
      <trkpt lat="42.568942000" lon="-2.429576000">
        <ele>655.60</ele>
        <time>2017-02-18T08:59:11Z</time>
      </trkpt>
      <trkpt lat="42.568924000" lon="-2.429554000">
        <ele>655.70</ele>
        <time>2017-02-18T08:59:12Z</time>
      </trkpt>
      <trkpt lat="42.568908000" lon="-2.429537000">
        <ele>655.80</ele>
        <time>2017-02-18T08:59:13Z</time>
      </trkpt>
      <trkpt lat="42.568894000" lon="-2.429517000">
        <ele>655.90</ele>
        <time>2017-02-18T08:59:14Z</time>
      </trkpt>
      <trkpt lat="42.568879000" lon="-2.429497000">
        <ele>655.90</ele>
        <time>2017-02-18T08:59:15Z</time>
      </trkpt>
      <trkpt lat="42.568864000" lon="-2.429478000">
        <ele>656.00</ele>
        <time>2017-02-18T08:59:16Z</time>
      </trkpt>
      <trkpt lat="42.568849000" lon="-2.429460000">
        <ele>656.00</ele>
        <time>2017-02-18T08:59:17Z</time>
      </trkpt>
      <trkpt lat="42.568833000" lon="-2.429442000">
        <ele>656.10</ele>
        <time>2017-02-18T08:59:18Z</time>
      </trkpt>
      <trkpt lat="42.568817000" lon="-2.429424000">
        <ele>656.10</ele>
        <time>2017-02-18T08:59:19Z</time>
      </trkpt>
      <trkpt lat="42.568801000" lon="-2.429405000">
        <ele>656.30</ele>
        <time>2017-02-18T08:59:20Z</time>
      </trkpt>
      <trkpt lat="42.568786000" lon="-2.429385000">
        <ele>656.50</ele>
        <time>2017-02-18T08:59:21Z</time>
      </trkpt>
      <trkpt lat="42.568770000" lon="-2.429366000">
        <ele>656.80</ele>
        <time>2017-02-18T08:59:22Z</time>
      </trkpt>
      <trkpt lat="42.568753000" lon="-2.429343000">
        <ele>657.10</ele>
        <time>2017-02-18T08:59:23Z</time>
      </trkpt>
      <trkpt lat="42.568737000" lon="-2.429324000">
        <ele>657.20</ele>
        <time>2017-02-18T08:59:24Z</time>
      </trkpt>
      <trkpt lat="42.568726000" lon="-2.429298000">
        <ele>657.40</ele>
        <time>2017-02-18T08:59:25Z</time>
      </trkpt>
      <trkpt lat="42.568710000" lon="-2.429277000">
        <ele>657.50</ele>
        <time>2017-02-18T08:59:26Z</time>
      </trkpt>
      <trkpt lat="42.568692000" lon="-2.429259000">
        <ele>657.70</ele>
        <time>2017-02-18T08:59:27Z</time>
      </trkpt>
      <trkpt lat="42.568676000" lon="-2.429240000">
        <ele>657.80</ele>
        <time>2017-02-18T08:59:28Z</time>
      </trkpt>
      <trkpt lat="42.568658000" lon="-2.429224000">
        <ele>657.80</ele>
        <time>2017-02-18T08:59:29Z</time>
      </trkpt>
      <trkpt lat="42.568642000" lon="-2.429206000">
        <ele>658.00</ele>
        <time>2017-02-18T08:59:30Z</time>
      </trkpt>
      <trkpt lat="42.568625000" lon="-2.429188000">
        <ele>658.00</ele>
        <time>2017-02-18T08:59:31Z</time>
      </trkpt>
      <trkpt lat="42.568609000" lon="-2.429171000">
        <ele>658.30</ele>
        <time>2017-02-18T08:59:32Z</time>
      </trkpt>
      <trkpt lat="42.568595000" lon="-2.429152000">
        <ele>658.50</ele>
        <time>2017-02-18T08:59:33Z</time>
      </trkpt>
      <trkpt lat="42.568575000" lon="-2.429133000">
        <ele>658.70</ele>
        <time>2017-02-18T08:59:34Z</time>
      </trkpt>
      <trkpt lat="42.568560000" lon="-2.429117000">
        <ele>658.80</ele>
        <time>2017-02-18T08:59:35Z</time>
      </trkpt>
      <trkpt lat="42.568543000" lon="-2.429096000">
        <ele>658.90</ele>
        <time>2017-02-18T08:59:36Z</time>
      </trkpt>
      <trkpt lat="42.568528000" lon="-2.429077000">
        <ele>659.00</ele>
        <time>2017-02-18T08:59:37Z</time>
      </trkpt>
      <trkpt lat="42.568511000" lon="-2.429060000">
        <ele>659.10</ele>
        <time>2017-02-18T08:59:38Z</time>
      </trkpt>
      <trkpt lat="42.568495000" lon="-2.429041000">
        <ele>659.20</ele>
        <time>2017-02-18T08:59:39Z</time>
      </trkpt>
      <trkpt lat="42.568480000" lon="-2.429022000">
        <ele>659.30</ele>
        <time>2017-02-18T08:59:40Z</time>
      </trkpt>
      <trkpt lat="42.568465000" lon="-2.429000000">
        <ele>659.30</ele>
        <time>2017-02-18T08:59:41Z</time>
      </trkpt>
      <trkpt lat="42.568449000" lon="-2.428980000">
        <ele>659.50</ele>
        <time>2017-02-18T08:59:42Z</time>
      </trkpt>
      <trkpt lat="42.568433000" lon="-2.428962000">
        <ele>659.60</ele>
        <time>2017-02-18T08:59:43Z</time>
      </trkpt>
      <trkpt lat="42.568418000" lon="-2.428942000">
        <ele>659.80</ele>
        <time>2017-02-18T08:59:44Z</time>
      </trkpt>
      <trkpt lat="42.568400000" lon="-2.428924000">
        <ele>660.00</ele>
        <time>2017-02-18T08:59:45Z</time>
      </trkpt>
      <trkpt lat="42.568383000" lon="-2.428903000">
        <ele>660.40</ele>
        <time>2017-02-18T08:59:46Z</time>
      </trkpt>
      <trkpt lat="42.568367000" lon="-2.428882000">
        <ele>660.70</ele>
        <time>2017-02-18T08:59:47Z</time>
      </trkpt>
      <trkpt lat="42.568349000" lon="-2.428865000">
        <ele>660.90</ele>
        <time>2017-02-18T08:59:48Z</time>
      </trkpt>
      <trkpt lat="42.568322000" lon="-2.428822000">
        <ele>661.30</ele>
        <time>2017-02-18T08:59:50Z</time>
      </trkpt>
      <trkpt lat="42.568309000" lon="-2.428801000">
        <ele>661.50</ele>
        <time>2017-02-18T08:59:51Z</time>
      </trkpt>
      <trkpt lat="42.568295000" lon="-2.428779000">
        <ele>661.90</ele>
        <time>2017-02-18T08:59:52Z</time>
      </trkpt>
      <trkpt lat="42.568283000" lon="-2.428753000">
        <ele>662.20</ele>
        <time>2017-02-18T08:59:53Z</time>
      </trkpt>
      <trkpt lat="42.568268000" lon="-2.428732000">
        <ele>662.40</ele>
        <time>2017-02-18T08:59:54Z</time>
      </trkpt>
      <trkpt lat="42.568255000" lon="-2.428710000">
        <ele>662.60</ele>
        <time>2017-02-18T08:59:55Z</time>
      </trkpt>
      <trkpt lat="42.568244000" lon="-2.428687000">
        <ele>662.70</ele>
        <time>2017-02-18T08:59:56Z</time>
      </trkpt>
      <trkpt lat="42.568233000" lon="-2.428662000">
        <ele>662.80</ele>
        <time>2017-02-18T08:59:57Z</time>
      </trkpt>
      <trkpt lat="42.568223000" lon="-2.428638000">
        <ele>662.90</ele>
        <time>2017-02-18T08:59:58Z</time>
      </trkpt>
      <trkpt lat="42.568212000" lon="-2.428611000">
        <ele>663.00</ele>
        <time>2017-02-18T08:59:59Z</time>
      </trkpt>
      <trkpt lat="42.568200000" lon="-2.428585000">
        <ele>663.40</ele>
        <time>2017-02-18T09:00:00Z</time>
      </trkpt>
      <trkpt lat="42.568186000" lon="-2.428559000">
        <ele>663.70</ele>
        <time>2017-02-18T09:00:01Z</time>
      </trkpt>
      <trkpt lat="42.568176000" lon="-2.428537000">
        <ele>664.00</ele>
        <time>2017-02-18T09:00:02Z</time>
      </trkpt>
      <trkpt lat="42.568164000" lon="-2.428508000">
        <ele>664.20</ele>
        <time>2017-02-18T09:00:03Z</time>
      </trkpt>
      <trkpt lat="42.568151000" lon="-2.428484000">
        <ele>664.40</ele>
        <time>2017-02-18T09:00:04Z</time>
      </trkpt>
      <trkpt lat="42.568140000" lon="-2.428461000">
        <ele>664.50</ele>
        <time>2017-02-18T09:00:05Z</time>
      </trkpt>
      <trkpt lat="42.568128000" lon="-2.428434000">
        <ele>664.70</ele>
        <time>2017-02-18T09:00:06Z</time>
      </trkpt>
      <trkpt lat="42.568118000" lon="-2.428405000">
        <ele>664.90</ele>
        <time>2017-02-18T09:00:07Z</time>
      </trkpt>
      <trkpt lat="42.568109000" lon="-2.428384000">
        <ele>665.10</ele>
        <time>2017-02-18T09:00:08Z</time>
      </trkpt>
      <trkpt lat="42.568099000" lon="-2.428362000">
        <ele>665.30</ele>
        <time>2017-02-18T09:00:09Z</time>
      </trkpt>
      <trkpt lat="42.568090000" lon="-2.428340000">
        <ele>665.50</ele>
        <time>2017-02-18T09:00:10Z</time>
      </trkpt>
      <trkpt lat="42.568083000" lon="-2.428317000">
        <ele>665.60</ele>
        <time>2017-02-18T09:00:11Z</time>
      </trkpt>
      <trkpt lat="42.568076000" lon="-2.428294000">
        <ele>665.70</ele>
        <time>2017-02-18T09:00:12Z</time>
      </trkpt>
      <trkpt lat="42.568069000" lon="-2.428273000">
        <ele>665.80</ele>
        <time>2017-02-18T09:00:13Z</time>
      </trkpt>
      <trkpt lat="42.568060000" lon="-2.428256000">
        <ele>665.90</ele>
        <time>2017-02-18T09:00:14Z</time>
      </trkpt>
      <trkpt lat="42.568054000" lon="-2.428241000">
        <ele>665.90</ele>
        <time>2017-02-18T09:00:15Z</time>
      </trkpt>
      <trkpt lat="42.568046000" lon="-2.428222000">
        <ele>666.20</ele>
        <time>2017-02-18T09:00:16Z</time>
      </trkpt>
      <trkpt lat="42.568042000" lon="-2.428204000">
        <ele>666.30</ele>
        <time>2017-02-18T09:00:17Z</time>
      </trkpt>
      <trkpt lat="42.568038000" lon="-2.428185000">
        <ele>666.50</ele>
        <time>2017-02-18T09:00:18Z</time>
      </trkpt>
      <trkpt lat="42.568037000" lon="-2.428167000">
        <ele>666.70</ele>
        <time>2017-02-18T09:00:19Z</time>
      </trkpt>
      <trkpt lat="42.568045000" lon="-2.428153000">
        <ele>666.80</ele>
        <time>2017-02-18T09:00:20Z</time>
      </trkpt>
      <trkpt lat="42.568062000" lon="-2.428147000">
        <ele>667.00</ele>
        <time>2017-02-18T09:00:21Z</time>
      </trkpt>
      <trkpt lat="42.568088000" lon="-2.428152000">
        <ele>667.10</ele>
        <time>2017-02-18T09:00:22Z</time>
      </trkpt>
      <trkpt lat="42.568109000" lon="-2.428166000">
        <ele>667.20</ele>
        <time>2017-02-18T09:00:23Z</time>
      </trkpt>
      <trkpt lat="42.568130000" lon="-2.428177000">
        <ele>667.40</ele>
        <time>2017-02-18T09:00:24Z</time>
      </trkpt>
      <trkpt lat="42.568146000" lon="-2.428191000">
        <ele>667.60</ele>
        <time>2017-02-18T09:00:25Z</time>
      </trkpt>
      <trkpt lat="42.568165000" lon="-2.428204000">
        <ele>667.60</ele>
        <time>2017-02-18T09:00:26Z</time>
      </trkpt>
      <trkpt lat="42.568182000" lon="-2.428219000">
        <ele>667.70</ele>
        <time>2017-02-18T09:00:27Z</time>
      </trkpt>
      <trkpt lat="42.568197000" lon="-2.428231000">
        <ele>667.70</ele>
        <time>2017-02-18T09:00:28Z</time>
      </trkpt>
      <trkpt lat="42.568212000" lon="-2.428240000">
        <ele>667.70</ele>
        <time>2017-02-18T09:00:29Z</time>
      </trkpt>
      <trkpt lat="42.568225000" lon="-2.428250000">
        <ele>667.70</ele>
        <time>2017-02-18T09:00:30Z</time>
      </trkpt>
      <trkpt lat="42.568241000" lon="-2.428263000">
        <ele>667.70</ele>
        <time>2017-02-18T09:00:31Z</time>
      </trkpt>
      <trkpt lat="42.568252000" lon="-2.428273000">
        <ele>668.00</ele>
        <time>2017-02-18T09:00:32Z</time>
      </trkpt>
      <trkpt lat="42.568266000" lon="-2.428276000">
        <ele>668.10</ele>
        <time>2017-02-18T09:00:33Z</time>
      </trkpt>
      <trkpt lat="42.568279000" lon="-2.428284000">
        <ele>668.30</ele>
        <time>2017-02-18T09:00:34Z</time>
      </trkpt>
      <trkpt lat="42.568291000" lon="-2.428295000">
        <ele>668.40</ele>
        <time>2017-02-18T09:00:35Z</time>
      </trkpt>
      <trkpt lat="42.568304000" lon="-2.428305000">
        <ele>668.70</ele>
        <time>2017-02-18T09:00:36Z</time>
      </trkpt>
      <trkpt lat="42.568318000" lon="-2.428315000">
        <ele>668.90</ele>
        <time>2017-02-18T09:00:37Z</time>
      </trkpt>
      <trkpt lat="42.568335000" lon="-2.428323000">
        <ele>669.20</ele>
        <time>2017-02-18T09:00:38Z</time>
      </trkpt>
      <trkpt lat="42.568351000" lon="-2.428334000">
        <ele>669.50</ele>
        <time>2017-02-18T09:00:39Z</time>
      </trkpt>
      <trkpt lat="42.568369000" lon="-2.428342000">
        <ele>669.70</ele>
        <time>2017-02-18T09:00:40Z</time>
      </trkpt>
      <trkpt lat="42.568383000" lon="-2.428352000">
        <ele>669.90</ele>
        <time>2017-02-18T09:00:41Z</time>
      </trkpt>
      <trkpt lat="42.568397000" lon="-2.428367000">
        <ele>670.00</ele>
        <time>2017-02-18T09:00:42Z</time>
      </trkpt>
      <trkpt lat="42.568411000" lon="-2.428378000">
        <ele>670.10</ele>
        <time>2017-02-18T09:00:43Z</time>
      </trkpt>
      <trkpt lat="42.568424000" lon="-2.428389000">
        <ele>670.20</ele>
        <time>2017-02-18T09:00:44Z</time>
      </trkpt>
      <trkpt lat="42.568437000" lon="-2.428389000">
        <ele>670.20</ele>
        <time>2017-02-18T09:00:45Z</time>
      </trkpt>
      <trkpt lat="42.568451000" lon="-2.428396000">
        <ele>670.60</ele>
        <time>2017-02-18T09:00:46Z</time>
      </trkpt>
      <trkpt lat="42.568466000" lon="-2.428401000">
        <ele>670.90</ele>
        <time>2017-02-18T09:00:47Z</time>
      </trkpt>
      <trkpt lat="42.568481000" lon="-2.428405000">
        <ele>671.10</ele>
        <time>2017-02-18T09:00:48Z</time>
      </trkpt>
      <trkpt lat="42.568493000" lon="-2.428416000">
        <ele>671.20</ele>
        <time>2017-02-18T09:00:49Z</time>
      </trkpt>
      <trkpt lat="42.568502000" lon="-2.428421000">
        <ele>671.30</ele>
        <time>2017-02-18T09:00:50Z</time>
      </trkpt>
      <trkpt lat="42.568521000" lon="-2.428424000">
        <ele>671.30</ele>
        <time>2017-02-18T09:00:52Z</time>
      </trkpt>
      <trkpt lat="42.568528000" lon="-2.428426000">
        <ele>671.40</ele>
        <time>2017-02-18T09:00:53Z</time>
      </trkpt>
      <trkpt lat="42.568536000" lon="-2.428432000">
        <ele>671.50</ele>
        <time>2017-02-18T09:00:54Z</time>
      </trkpt>
      <trkpt lat="42.568543000" lon="-2.428437000">
        <ele>671.60</ele>
        <time>2017-02-18T09:00:55Z</time>
      </trkpt>
      <trkpt lat="42.568554000" lon="-2.428444000">
        <ele>671.70</ele>
        <time>2017-02-18T09:00:56Z</time>
      </trkpt>
      <trkpt lat="42.568561000" lon="-2.428447000">
        <ele>671.80</ele>
        <time>2017-02-18T09:00:57Z</time>
      </trkpt>
      <trkpt lat="42.568574000" lon="-2.428450000">
        <ele>671.80</ele>
        <time>2017-02-18T09:00:58Z</time>
      </trkpt>
      <trkpt lat="42.568584000" lon="-2.428460000">
        <ele>671.90</ele>
        <time>2017-02-18T09:00:59Z</time>
      </trkpt>
      <trkpt lat="42.568595000" lon="-2.428471000">
        <ele>671.90</ele>
        <time>2017-02-18T09:01:00Z</time>
      </trkpt>
      <trkpt lat="42.568606000" lon="-2.428478000">
        <ele>671.90</ele>
        <time>2017-02-18T09:01:01Z</time>
      </trkpt>
      <trkpt lat="42.568618000" lon="-2.428484000">
        <ele>672.00</ele>
        <time>2017-02-18T09:01:02Z</time>
      </trkpt>
      <trkpt lat="42.568632000" lon="-2.428490000">
        <ele>672.20</ele>
        <time>2017-02-18T09:01:03Z</time>
      </trkpt>
      <trkpt lat="42.568647000" lon="-2.428496000">
        <ele>672.20</ele>
        <time>2017-02-18T09:01:04Z</time>
      </trkpt>
      <trkpt lat="42.568665000" lon="-2.428509000">
        <ele>672.30</ele>
        <time>2017-02-18T09:01:05Z</time>
      </trkpt>
      <trkpt lat="42.568681000" lon="-2.428529000">
        <ele>672.40</ele>
        <time>2017-02-18T09:01:06Z</time>
      </trkpt>
      <trkpt lat="42.568695000" lon="-2.428541000">
        <ele>672.50</ele>
        <time>2017-02-18T09:01:07Z</time>
      </trkpt>
      <trkpt lat="42.568709000" lon="-2.428553000">
        <ele>672.60</ele>
        <time>2017-02-18T09:01:08Z</time>
      </trkpt>
      <trkpt lat="42.568721000" lon="-2.428567000">
        <ele>672.60</ele>
        <time>2017-02-18T09:01:09Z</time>
      </trkpt>
      <trkpt lat="42.568740000" lon="-2.428571000">
        <ele>672.70</ele>
        <time>2017-02-18T09:01:10Z</time>
      </trkpt>
      <trkpt lat="42.568762000" lon="-2.428577000">
        <ele>672.80</ele>
        <time>2017-02-18T09:01:11Z</time>
      </trkpt>
      <trkpt lat="42.568781000" lon="-2.428589000">
        <ele>672.70</ele>
        <time>2017-02-18T09:01:12Z</time>
      </trkpt>
      <trkpt lat="42.568801000" lon="-2.428604000">
        <ele>672.70</ele>
        <time>2017-02-18T09:01:13Z</time>
      </trkpt>
      <trkpt lat="42.568821000" lon="-2.428616000">
        <ele>672.70</ele>
        <time>2017-02-18T09:01:14Z</time>
      </trkpt>
      <trkpt lat="42.568840000" lon="-2.428622000">
        <ele>672.80</ele>
        <time>2017-02-18T09:01:15Z</time>
      </trkpt>
      <trkpt lat="42.568861000" lon="-2.428631000">
        <ele>672.70</ele>
        <time>2017-02-18T09:01:16Z</time>
      </trkpt>
      <trkpt lat="42.568882000" lon="-2.428648000">
        <ele>672.60</ele>
        <time>2017-02-18T09:01:17Z</time>
      </trkpt>
      <trkpt lat="42.568904000" lon="-2.428661000">
        <ele>672.50</ele>
        <time>2017-02-18T09:01:18Z</time>
      </trkpt>
      <trkpt lat="42.568922000" lon="-2.428672000">
        <ele>672.40</ele>
        <time>2017-02-18T09:01:19Z</time>
      </trkpt>
      <trkpt lat="42.568944000" lon="-2.428692000">
        <ele>672.40</ele>
        <time>2017-02-18T09:01:20Z</time>
      </trkpt>
      <trkpt lat="42.568969000" lon="-2.428707000">
        <ele>672.30</ele>
        <time>2017-02-18T09:01:21Z</time>
      </trkpt>
      <trkpt lat="42.568993000" lon="-2.428723000">
        <ele>672.30</ele>
        <time>2017-02-18T09:01:22Z</time>
      </trkpt>
      <trkpt lat="42.569015000" lon="-2.428745000">
        <ele>672.30</ele>
        <time>2017-02-18T09:01:23Z</time>
      </trkpt>
      <trkpt lat="42.569040000" lon="-2.428775000">
        <ele>672.40</ele>
        <time>2017-02-18T09:01:24Z</time>
      </trkpt>
      <trkpt lat="42.569064000" lon="-2.428806000">
        <ele>672.50</ele>
        <time>2017-02-18T09:01:25Z</time>
      </trkpt>
      <trkpt lat="42.569087000" lon="-2.428815000">
        <ele>672.40</ele>
        <time>2017-02-18T09:01:26Z</time>
      </trkpt>
      <trkpt lat="42.569114000" lon="-2.428824000">
        <ele>672.40</ele>
        <time>2017-02-18T09:01:27Z</time>
      </trkpt>
      <trkpt lat="42.569139000" lon="-2.428837000">
        <ele>672.20</ele>
        <time>2017-02-18T09:01:28Z</time>
      </trkpt>
      <trkpt lat="42.569165000" lon="-2.428848000">
        <ele>672.10</ele>
        <time>2017-02-18T09:01:29Z</time>
      </trkpt>
      <trkpt lat="42.569186000" lon="-2.428869000">
        <ele>672.00</ele>
        <time>2017-02-18T09:01:30Z</time>
      </trkpt>
      <trkpt lat="42.569209000" lon="-2.428886000">
        <ele>671.90</ele>
        <time>2017-02-18T09:01:31Z</time>
      </trkpt>
      <trkpt lat="42.569231000" lon="-2.428904000">
        <ele>671.70</ele>
        <time>2017-02-18T09:01:32Z</time>
      </trkpt>
      <trkpt lat="42.569256000" lon="-2.428924000">
        <ele>671.50</ele>
        <time>2017-02-18T09:01:33Z</time>
      </trkpt>
      <trkpt lat="42.569281000" lon="-2.428944000">
        <ele>671.40</ele>
        <time>2017-02-18T09:01:34Z</time>
      </trkpt>
      <trkpt lat="42.569309000" lon="-2.428956000">
        <ele>671.30</ele>
        <time>2017-02-18T09:01:35Z</time>
      </trkpt>
      <trkpt lat="42.569337000" lon="-2.428966000">
        <ele>671.40</ele>
        <time>2017-02-18T09:01:36Z</time>
      </trkpt>
      <trkpt lat="42.569365000" lon="-2.428972000">
        <ele>671.50</ele>
        <time>2017-02-18T09:01:37Z</time>
      </trkpt>
      <trkpt lat="42.569395000" lon="-2.428978000">
        <ele>671.50</ele>
        <time>2017-02-18T09:01:38Z</time>
      </trkpt>
      <trkpt lat="42.569422000" lon="-2.428996000">
        <ele>671.50</ele>
        <time>2017-02-18T09:01:39Z</time>
      </trkpt>
      <trkpt lat="42.569452000" lon="-2.429012000">
        <ele>671.50</ele>
        <time>2017-02-18T09:01:40Z</time>
      </trkpt>
      <trkpt lat="42.569480000" lon="-2.429028000">
        <ele>671.60</ele>
        <time>2017-02-18T09:01:41Z</time>
      </trkpt>
      <trkpt lat="42.569509000" lon="-2.429046000">
        <ele>671.60</ele>
        <time>2017-02-18T09:01:42Z</time>
      </trkpt>
      <trkpt lat="42.569535000" lon="-2.429061000">
        <ele>671.60</ele>
        <time>2017-02-18T09:01:43Z</time>
      </trkpt>
      <trkpt lat="42.569561000" lon="-2.429076000">
        <ele>671.60</ele>
        <time>2017-02-18T09:01:44Z</time>
      </trkpt>
      <trkpt lat="42.569592000" lon="-2.429093000">
        <ele>671.60</ele>
        <time>2017-02-18T09:01:45Z</time>
      </trkpt>
      <trkpt lat="42.569619000" lon="-2.429104000">
        <ele>671.60</ele>
        <time>2017-02-18T09:01:46Z</time>
      </trkpt>
      <trkpt lat="42.569646000" lon="-2.429121000">
        <ele>671.70</ele>
        <time>2017-02-18T09:01:47Z</time>
      </trkpt>
      <trkpt lat="42.569674000" lon="-2.429139000">
        <ele>671.70</ele>
        <time>2017-02-18T09:01:48Z</time>
      </trkpt>
      <trkpt lat="42.569704000" lon="-2.429162000">
        <ele>671.70</ele>
        <time>2017-02-18T09:01:49Z</time>
      </trkpt>
      <trkpt lat="42.569733000" lon="-2.429182000">
        <ele>671.80</ele>
        <time>2017-02-18T09:01:50Z</time>
      </trkpt>
      <trkpt lat="42.569761000" lon="-2.429202000">
        <ele>671.90</ele>
        <time>2017-02-18T09:01:51Z</time>
      </trkpt>
      <trkpt lat="42.569790000" lon="-2.429223000">
        <ele>671.80</ele>
        <time>2017-02-18T09:01:52Z</time>
      </trkpt>
      <trkpt lat="42.569846000" lon="-2.429258000">
        <ele>671.80</ele>
        <time>2017-02-18T09:01:54Z</time>
      </trkpt>
      <trkpt lat="42.569875000" lon="-2.429279000">
        <ele>671.80</ele>
        <time>2017-02-18T09:01:55Z</time>
      </trkpt>
      <trkpt lat="42.569905000" lon="-2.429298000">
        <ele>671.70</ele>
        <time>2017-02-18T09:01:56Z</time>
      </trkpt>
      <trkpt lat="42.569930000" lon="-2.429318000">
        <ele>671.70</ele>
        <time>2017-02-18T09:01:57Z</time>
      </trkpt>
      <trkpt lat="42.569959000" lon="-2.429339000">
        <ele>671.60</ele>
        <time>2017-02-18T09:01:58Z</time>
      </trkpt>
      <trkpt lat="42.569988000" lon="-2.429350000">
        <ele>671.60</ele>
        <time>2017-02-18T09:01:59Z</time>
      </trkpt>
      <trkpt lat="42.570018000" lon="-2.429365000">
        <ele>671.60</ele>
        <time>2017-02-18T09:02:00Z</time>
      </trkpt>
      <trkpt lat="42.570046000" lon="-2.429386000">
        <ele>671.60</ele>
        <time>2017-02-18T09:02:01Z</time>
      </trkpt>
      <trkpt lat="42.570074000" lon="-2.429404000">
        <ele>671.70</ele>
        <time>2017-02-18T09:02:02Z</time>
      </trkpt>
      <trkpt lat="42.570105000" lon="-2.429422000">
        <ele>671.70</ele>
        <time>2017-02-18T09:02:03Z</time>
      </trkpt>
      <trkpt lat="42.570134000" lon="-2.429439000">
        <ele>671.80</ele>
        <time>2017-02-18T09:02:04Z</time>
      </trkpt>
      <trkpt lat="42.570164000" lon="-2.429456000">
        <ele>671.80</ele>
        <time>2017-02-18T09:02:05Z</time>
      </trkpt>
      <trkpt lat="42.570192000" lon="-2.429475000">
        <ele>671.80</ele>
        <time>2017-02-18T09:02:06Z</time>
      </trkpt>
      <trkpt lat="42.570219000" lon="-2.429495000">
        <ele>671.80</ele>
        <time>2017-02-18T09:02:07Z</time>
      </trkpt>
      <trkpt lat="42.570242000" lon="-2.429506000">
        <ele>671.70</ele>
        <time>2017-02-18T09:02:08Z</time>
      </trkpt>
      <trkpt lat="42.570269000" lon="-2.429524000">
        <ele>671.60</ele>
        <time>2017-02-18T09:02:09Z</time>
      </trkpt>
      <trkpt lat="42.570295000" lon="-2.429542000">
        <ele>671.50</ele>
        <time>2017-02-18T09:02:10Z</time>
      </trkpt>
      <trkpt lat="42.570325000" lon="-2.429563000">
        <ele>671.40</ele>
        <time>2017-02-18T09:02:11Z</time>
      </trkpt>
      <trkpt lat="42.570353000" lon="-2.429581000">
        <ele>671.40</ele>
        <time>2017-02-18T09:02:12Z</time>
      </trkpt>
      <trkpt lat="42.570379000" lon="-2.429597000">
        <ele>671.40</ele>
        <time>2017-02-18T09:02:13Z</time>
      </trkpt>
      <trkpt lat="42.570406000" lon="-2.429614000">
        <ele>671.40</ele>
        <time>2017-02-18T09:02:14Z</time>
      </trkpt>
      <trkpt lat="42.570432000" lon="-2.429635000">
        <ele>671.40</ele>
        <time>2017-02-18T09:02:15Z</time>
      </trkpt>
      <trkpt lat="42.570461000" lon="-2.429654000">
        <ele>671.70</ele>
        <time>2017-02-18T09:02:16Z</time>
      </trkpt>
      <trkpt lat="42.570490000" lon="-2.429674000">
        <ele>671.90</ele>
        <time>2017-02-18T09:02:17Z</time>
      </trkpt>
      <trkpt lat="42.570517000" lon="-2.429691000">
        <ele>672.10</ele>
        <time>2017-02-18T09:02:18Z</time>
      </trkpt>
      <trkpt lat="42.570545000" lon="-2.429709000">
        <ele>672.20</ele>
        <time>2017-02-18T09:02:19Z</time>
      </trkpt>
      <trkpt lat="42.570573000" lon="-2.429727000">
        <ele>672.20</ele>
        <time>2017-02-18T09:02:20Z</time>
      </trkpt>
      <trkpt lat="42.570602000" lon="-2.429744000">
        <ele>672.20</ele>
        <time>2017-02-18T09:02:21Z</time>
      </trkpt>
      <trkpt lat="42.570631000" lon="-2.429759000">
        <ele>672.00</ele>
        <time>2017-02-18T09:02:22Z</time>
      </trkpt>
      <trkpt lat="42.570657000" lon="-2.429774000">
        <ele>671.90</ele>
        <time>2017-02-18T09:02:23Z</time>
      </trkpt>
      <trkpt lat="42.570688000" lon="-2.429792000">
        <ele>671.80</ele>
        <time>2017-02-18T09:02:24Z</time>
      </trkpt>
      <trkpt lat="42.570720000" lon="-2.429809000">
        <ele>671.70</ele>
        <time>2017-02-18T09:02:25Z</time>
      </trkpt>
      <trkpt lat="42.570751000" lon="-2.429820000">
        <ele>671.80</ele>
        <time>2017-02-18T09:02:26Z</time>
      </trkpt>
      <trkpt lat="42.570781000" lon="-2.429830000">
        <ele>671.90</ele>
        <time>2017-02-18T09:02:27Z</time>
      </trkpt>
      <trkpt lat="42.570810000" lon="-2.429842000">
        <ele>671.90</ele>
        <time>2017-02-18T09:02:28Z</time>
      </trkpt>
      <trkpt lat="42.570840000" lon="-2.429853000">
        <ele>671.90</ele>
        <time>2017-02-18T09:02:29Z</time>
      </trkpt>
      <trkpt lat="42.570869000" lon="-2.429861000">
        <ele>672.00</ele>
        <time>2017-02-18T09:02:30Z</time>
      </trkpt>
      <trkpt lat="42.570900000" lon="-2.429865000">
        <ele>672.00</ele>
        <time>2017-02-18T09:02:31Z</time>
      </trkpt>
      <trkpt lat="42.570929000" lon="-2.429866000">
        <ele>672.10</ele>
        <time>2017-02-18T09:02:32Z</time>
      </trkpt>
      <trkpt lat="42.570961000" lon="-2.429867000">
        <ele>672.20</ele>
        <time>2017-02-18T09:02:33Z</time>
      </trkpt>
      <trkpt lat="42.570992000" lon="-2.429869000">
        <ele>672.30</ele>
        <time>2017-02-18T09:02:34Z</time>
      </trkpt>
      <trkpt lat="42.571025000" lon="-2.429870000">
        <ele>672.30</ele>
        <time>2017-02-18T09:02:35Z</time>
      </trkpt>
      <trkpt lat="42.571059000" lon="-2.429867000">
        <ele>672.40</ele>
        <time>2017-02-18T09:02:36Z</time>
      </trkpt>
      <trkpt lat="42.571096000" lon="-2.429864000">
        <ele>672.40</ele>
        <time>2017-02-18T09:02:37Z</time>
      </trkpt>
      <trkpt lat="42.571130000" lon="-2.429868000">
        <ele>672.40</ele>
        <time>2017-02-18T09:02:38Z</time>
      </trkpt>
      <trkpt lat="42.571164000" lon="-2.429871000">
        <ele>672.40</ele>
        <time>2017-02-18T09:02:39Z</time>
      </trkpt>
      <trkpt lat="42.571198000" lon="-2.429868000">
        <ele>672.50</ele>
        <time>2017-02-18T09:02:40Z</time>
      </trkpt>
      <trkpt lat="42.571231000" lon="-2.429866000">
        <ele>672.60</ele>
        <time>2017-02-18T09:02:41Z</time>
      </trkpt>
      <trkpt lat="42.571265000" lon="-2.429867000">
        <ele>672.50</ele>
        <time>2017-02-18T09:02:42Z</time>
      </trkpt>
      <trkpt lat="42.571300000" lon="-2.429867000">
        <ele>672.50</ele>
        <time>2017-02-18T09:02:43Z</time>
      </trkpt>
      <trkpt lat="42.571333000" lon="-2.429866000">
        <ele>672.50</ele>
        <time>2017-02-18T09:02:44Z</time>
      </trkpt>
      <trkpt lat="42.571367000" lon="-2.429866000">
        <ele>672.50</ele>
        <time>2017-02-18T09:02:45Z</time>
      </trkpt>
      <trkpt lat="42.571401000" lon="-2.429867000">
        <ele>672.40</ele>
        <time>2017-02-18T09:02:46Z</time>
      </trkpt>
      <trkpt lat="42.571438000" lon="-2.429870000">
        <ele>672.40</ele>
        <time>2017-02-18T09:02:47Z</time>
      </trkpt>
      <trkpt lat="42.571475000" lon="-2.429872000">
        <ele>672.40</ele>
        <time>2017-02-18T09:02:48Z</time>
      </trkpt>
      <trkpt lat="42.571511000" lon="-2.429870000">
        <ele>672.30</ele>
        <time>2017-02-18T09:02:49Z</time>
      </trkpt>
      <trkpt lat="42.571548000" lon="-2.429868000">
        <ele>672.20</ele>
        <time>2017-02-18T09:02:50Z</time>
      </trkpt>
      <trkpt lat="42.571585000" lon="-2.429868000">
        <ele>672.10</ele>
        <time>2017-02-18T09:02:51Z</time>
      </trkpt>
      <trkpt lat="42.571622000" lon="-2.429872000">
        <ele>672.10</ele>
        <time>2017-02-18T09:02:52Z</time>
      </trkpt>
      <trkpt lat="42.571663000" lon="-2.429877000">
        <ele>672.00</ele>
        <time>2017-02-18T09:02:53Z</time>
      </trkpt>
      <trkpt lat="42.571732000" lon="-2.429887000">
        <ele>672.00</ele>
        <time>2017-02-18T09:02:55Z</time>
      </trkpt>
      <trkpt lat="42.571769000" lon="-2.429881000">
        <ele>672.00</ele>
        <time>2017-02-18T09:02:56Z</time>
      </trkpt>
      <trkpt lat="42.571805000" lon="-2.429884000">
        <ele>672.00</ele>
        <time>2017-02-18T09:02:57Z</time>
      </trkpt>
      <trkpt lat="42.571840000" lon="-2.429889000">
        <ele>671.90</ele>
        <time>2017-02-18T09:02:58Z</time>
      </trkpt>
      <trkpt lat="42.571874000" lon="-2.429891000">
        <ele>671.80</ele>
        <time>2017-02-18T09:02:59Z</time>
      </trkpt>
      <trkpt lat="42.571909000" lon="-2.429888000">
        <ele>671.70</ele>
        <time>2017-02-18T09:03:00Z</time>
      </trkpt>
      <trkpt lat="42.571946000" lon="-2.429890000">
        <ele>671.70</ele>
        <time>2017-02-18T09:03:01Z</time>
      </trkpt>
      <trkpt lat="42.571979000" lon="-2.429888000">
        <ele>671.60</ele>
        <time>2017-02-18T09:03:02Z</time>
      </trkpt>
      <trkpt lat="42.572011000" lon="-2.429887000">
        <ele>671.60</ele>
        <time>2017-02-18T09:03:03Z</time>
      </trkpt>
      <trkpt lat="42.572042000" lon="-2.429888000">
        <ele>671.70</ele>
        <time>2017-02-18T09:03:04Z</time>
      </trkpt>
      <trkpt lat="42.572070000" lon="-2.429883000">
        <ele>671.70</ele>
        <time>2017-02-18T09:03:05Z</time>
      </trkpt>
      <trkpt lat="42.572093000" lon="-2.429877000">
        <ele>671.60</ele>
        <time>2017-02-18T09:03:06Z</time>
      </trkpt>
      <trkpt lat="42.572110000" lon="-2.429877000">
        <ele>671.60</ele>
        <time>2017-02-18T09:03:07Z</time>
      </trkpt>
      <trkpt lat="42.572121000" lon="-2.429874000">
        <ele>671.60</ele>
        <time>2017-02-18T09:03:08Z</time>
      </trkpt>
      <trkpt lat="42.572132000" lon="-2.429858000">
        <ele>671.60</ele>
        <time>2017-02-18T09:03:09Z</time>
      </trkpt>
      <trkpt lat="42.572145000" lon="-2.429846000">
        <ele>671.50</ele>
        <time>2017-02-18T09:03:10Z</time>
      </trkpt>
      <trkpt lat="42.572163000" lon="-2.429830000">
        <ele>671.50</ele>
        <time>2017-02-18T09:03:11Z</time>
      </trkpt>
      <trkpt lat="42.572188000" lon="-2.429811000">
        <ele>671.40</ele>
        <time>2017-02-18T09:03:12Z</time>
      </trkpt>
      <trkpt lat="42.572213000" lon="-2.429787000">
        <ele>671.30</ele>
        <time>2017-02-18T09:03:13Z</time>
      </trkpt>
      <trkpt lat="42.572241000" lon="-2.429763000">
        <ele>671.00</ele>
        <time>2017-02-18T09:03:14Z</time>
      </trkpt>
      <trkpt lat="42.572282000" lon="-2.429740000">
        <ele>670.80</ele>
        <time>2017-02-18T09:03:15Z</time>
      </trkpt>
      <trkpt lat="42.572327000" lon="-2.429713000">
        <ele>670.40</ele>
        <time>2017-02-18T09:03:16Z</time>
      </trkpt>
      <trkpt lat="42.572374000" lon="-2.429688000">
        <ele>670.00</ele>
        <time>2017-02-18T09:03:17Z</time>
      </trkpt>
      <trkpt lat="42.572420000" lon="-2.429663000">
        <ele>669.50</ele>
        <time>2017-02-18T09:03:18Z</time>
      </trkpt>
      <trkpt lat="42.572463000" lon="-2.429640000">
        <ele>669.10</ele>
        <time>2017-02-18T09:03:19Z</time>
      </trkpt>
      <trkpt lat="42.572502000" lon="-2.429612000">
        <ele>668.50</ele>
        <time>2017-02-18T09:03:20Z</time>
      </trkpt>
      <trkpt lat="42.572544000" lon="-2.429583000">
        <ele>668.10</ele>
        <time>2017-02-18T09:03:21Z</time>
      </trkpt>
      <trkpt lat="42.572585000" lon="-2.429552000">
        <ele>667.50</ele>
        <time>2017-02-18T09:03:22Z</time>
      </trkpt>
      <trkpt lat="42.572628000" lon="-2.429523000">
        <ele>667.00</ele>
        <time>2017-02-18T09:03:23Z</time>
      </trkpt>
      <trkpt lat="42.572668000" lon="-2.429494000">
        <ele>666.40</ele>
        <time>2017-02-18T09:03:24Z</time>
      </trkpt>
      <trkpt lat="42.572706000" lon="-2.429463000">
        <ele>666.00</ele>
        <time>2017-02-18T09:03:25Z</time>
      </trkpt>
      <trkpt lat="42.572743000" lon="-2.429438000">
        <ele>665.30</ele>
        <time>2017-02-18T09:03:26Z</time>
      </trkpt>
      <trkpt lat="42.572777000" lon="-2.429409000">
        <ele>664.80</ele>
        <time>2017-02-18T09:03:27Z</time>
      </trkpt>
      <trkpt lat="42.572811000" lon="-2.429385000">
        <ele>664.10</ele>
        <time>2017-02-18T09:03:28Z</time>
      </trkpt>
      <trkpt lat="42.572839000" lon="-2.429368000">
        <ele>663.60</ele>
        <time>2017-02-18T09:03:29Z</time>
      </trkpt>
      <trkpt lat="42.572867000" lon="-2.429350000">
        <ele>663.00</ele>
        <time>2017-02-18T09:03:30Z</time>
      </trkpt>
      <trkpt lat="42.572894000" lon="-2.429332000">
        <ele>662.50</ele>
        <time>2017-02-18T09:03:31Z</time>
      </trkpt>
      <trkpt lat="42.572916000" lon="-2.429316000">
        <ele>661.90</ele>
        <time>2017-02-18T09:03:32Z</time>
      </trkpt>
      <trkpt lat="42.572945000" lon="-2.429298000">
        <ele>661.50</ele>
        <time>2017-02-18T09:03:33Z</time>
      </trkpt>
      <trkpt lat="42.572973000" lon="-2.429281000">
        <ele>661.00</ele>
        <time>2017-02-18T09:03:34Z</time>
      </trkpt>
      <trkpt lat="42.572998000" lon="-2.429265000">
        <ele>660.60</ele>
        <time>2017-02-18T09:03:35Z</time>
      </trkpt>
      <trkpt lat="42.573024000" lon="-2.429247000">
        <ele>660.10</ele>
        <time>2017-02-18T09:03:36Z</time>
      </trkpt>
      <trkpt lat="42.573044000" lon="-2.429224000">
        <ele>659.80</ele>
        <time>2017-02-18T09:03:37Z</time>
      </trkpt>
      <trkpt lat="42.573067000" lon="-2.429193000">
        <ele>659.00</ele>
        <time>2017-02-18T09:03:38Z</time>
      </trkpt>
      <trkpt lat="42.573092000" lon="-2.429170000">
        <ele>658.50</ele>
        <time>2017-02-18T09:03:39Z</time>
      </trkpt>
      <trkpt lat="42.573114000" lon="-2.429140000">
        <ele>657.70</ele>
        <time>2017-02-18T09:03:40Z</time>
      </trkpt>
      <trkpt lat="42.573135000" lon="-2.429109000">
        <ele>657.10</ele>
        <time>2017-02-18T09:03:41Z</time>
      </trkpt>
      <trkpt lat="42.573160000" lon="-2.429073000">
        <ele>656.30</ele>
        <time>2017-02-18T09:03:42Z</time>
      </trkpt>
      <trkpt lat="42.573185000" lon="-2.429033000">
        <ele>655.80</ele>
        <time>2017-02-18T09:03:43Z</time>
      </trkpt>
      <trkpt lat="42.573218000" lon="-2.428993000">
        <ele>655.20</ele>
        <time>2017-02-18T09:03:44Z</time>
      </trkpt>
      <trkpt lat="42.573250000" lon="-2.428947000">
        <ele>654.80</ele>
        <time>2017-02-18T09:03:45Z</time>
      </trkpt>
      <trkpt lat="42.573287000" lon="-2.428892000">
        <ele>653.90</ele>
        <time>2017-02-18T09:03:46Z</time>
      </trkpt>
      <trkpt lat="42.573332000" lon="-2.428834000">
        <ele>653.20</ele>
        <time>2017-02-18T09:03:47Z</time>
      </trkpt>
      <trkpt lat="42.573382000" lon="-2.428775000">
        <ele>652.30</ele>
        <time>2017-02-18T09:03:48Z</time>
      </trkpt>
      <trkpt lat="42.573433000" lon="-2.428717000">
        <ele>651.70</ele>
        <time>2017-02-18T09:03:49Z</time>
      </trkpt>
      <trkpt lat="42.573479000" lon="-2.428659000">
        <ele>650.90</ele>
        <time>2017-02-18T09:03:50Z</time>
      </trkpt>
      <trkpt lat="42.573515000" lon="-2.428606000">
        <ele>650.30</ele>
        <time>2017-02-18T09:03:51Z</time>
      </trkpt>
      <trkpt lat="42.573546000" lon="-2.428555000">
        <ele>649.50</ele>
        <time>2017-02-18T09:03:52Z</time>
      </trkpt>
      <trkpt lat="42.573575000" lon="-2.428507000">
        <ele>648.90</ele>
        <time>2017-02-18T09:03:53Z</time>
      </trkpt>
      <trkpt lat="42.573597000" lon="-2.428460000">
        <ele>648.30</ele>
        <time>2017-02-18T09:03:54Z</time>
      </trkpt>
      <trkpt lat="42.573650000" lon="-2.428373000">
        <ele>647.20</ele>
        <time>2017-02-18T09:03:56Z</time>
      </trkpt>
      <trkpt lat="42.573678000" lon="-2.428339000">
        <ele>646.70</ele>
        <time>2017-02-18T09:03:57Z</time>
      </trkpt>
      <trkpt lat="42.573707000" lon="-2.428302000">
        <ele>646.20</ele>
        <time>2017-02-18T09:03:58Z</time>
      </trkpt>
      <trkpt lat="42.573736000" lon="-2.428265000">
        <ele>645.70</ele>
        <time>2017-02-18T09:03:59Z</time>
      </trkpt>
      <trkpt lat="42.573763000" lon="-2.428226000">
        <ele>645.30</ele>
        <time>2017-02-18T09:04:00Z</time>
      </trkpt>
      <trkpt lat="42.573791000" lon="-2.428188000">
        <ele>645.00</ele>
        <time>2017-02-18T09:04:01Z</time>
      </trkpt>
      <trkpt lat="42.573813000" lon="-2.428155000">
        <ele>644.70</ele>
        <time>2017-02-18T09:04:02Z</time>
      </trkpt>
      <trkpt lat="42.573828000" lon="-2.428121000">
        <ele>644.50</ele>
        <time>2017-02-18T09:04:03Z</time>
      </trkpt>
      <trkpt lat="42.573836000" lon="-2.428090000">
        <ele>644.30</ele>
        <time>2017-02-18T09:04:04Z</time>
      </trkpt>
      <trkpt lat="42.573839000" lon="-2.428055000">
        <ele>644.20</ele>
        <time>2017-02-18T09:04:05Z</time>
      </trkpt>
      <trkpt lat="42.573826000" lon="-2.428020000">
        <ele>644.00</ele>
        <time>2017-02-18T09:04:06Z</time>
      </trkpt>
      <trkpt lat="42.573799000" lon="-2.427992000">
        <ele>643.90</ele>
        <time>2017-02-18T09:04:07Z</time>
      </trkpt>
      <trkpt lat="42.573766000" lon="-2.427969000">
        <ele>643.70</ele>
        <time>2017-02-18T09:04:08Z</time>
      </trkpt>
      <trkpt lat="42.573721000" lon="-2.427947000">
        <ele>643.60</ele>
        <time>2017-02-18T09:04:09Z</time>
      </trkpt>
      <trkpt lat="42.573667000" lon="-2.427927000">
        <ele>643.50</ele>
        <time>2017-02-18T09:04:10Z</time>
      </trkpt>
      <trkpt lat="42.573606000" lon="-2.427913000">
        <ele>643.40</ele>
        <time>2017-02-18T09:04:11Z</time>
      </trkpt>
      <trkpt lat="42.573539000" lon="-2.427905000">
        <ele>643.00</ele>
        <time>2017-02-18T09:04:12Z</time>
      </trkpt>
      <trkpt lat="42.573465000" lon="-2.427908000">
        <ele>642.70</ele>
        <time>2017-02-18T09:04:13Z</time>
      </trkpt>
      <trkpt lat="42.573386000" lon="-2.427908000">
        <ele>642.20</ele>
        <time>2017-02-18T09:04:14Z</time>
      </trkpt>
      <trkpt lat="42.573301000" lon="-2.427909000">
        <ele>641.80</ele>
        <time>2017-02-18T09:04:15Z</time>
      </trkpt>
      <trkpt lat="42.573209000" lon="-2.427917000">
        <ele>641.20</ele>
        <time>2017-02-18T09:04:16Z</time>
      </trkpt>
      <trkpt lat="42.573109000" lon="-2.427926000">
        <ele>640.70</ele>
        <time>2017-02-18T09:04:17Z</time>
      </trkpt>
      <trkpt lat="42.573007000" lon="-2.427934000">
        <ele>639.60</ele>
        <time>2017-02-18T09:04:18Z</time>
      </trkpt>
      <trkpt lat="42.572903000" lon="-2.427932000">
        <ele>638.70</ele>
        <time>2017-02-18T09:04:19Z</time>
      </trkpt>
      <trkpt lat="42.572797000" lon="-2.427925000">
        <ele>637.80</ele>
        <time>2017-02-18T09:04:20Z</time>
      </trkpt>
      <trkpt lat="42.572690000" lon="-2.427904000">
        <ele>637.10</ele>
        <time>2017-02-18T09:04:21Z</time>
      </trkpt>
      <trkpt lat="42.572592000" lon="-2.427880000">
        <ele>635.90</ele>
        <time>2017-02-18T09:04:22Z</time>
      </trkpt>
      <trkpt lat="42.572500000" lon="-2.427851000">
        <ele>635.00</ele>
        <time>2017-02-18T09:04:23Z</time>
      </trkpt>
      <trkpt lat="42.572413000" lon="-2.427811000">
        <ele>633.10</ele>
        <time>2017-02-18T09:04:24Z</time>
      </trkpt>
      <trkpt lat="42.572330000" lon="-2.427768000">
        <ele>631.60</ele>
        <time>2017-02-18T09:04:25Z</time>
      </trkpt>
      <trkpt lat="42.572253000" lon="-2.427724000">
        <ele>630.20</ele>
        <time>2017-02-18T09:04:26Z</time>
      </trkpt>
      <trkpt lat="42.572181000" lon="-2.427675000">
        <ele>629.30</ele>
        <time>2017-02-18T09:04:27Z</time>
      </trkpt>
      <trkpt lat="42.572120000" lon="-2.427612000">
        <ele>627.40</ele>
        <time>2017-02-18T09:04:28Z</time>
      </trkpt>
      <trkpt lat="42.572073000" lon="-2.427516000">
        <ele>626.00</ele>
        <time>2017-02-18T09:04:29Z</time>
      </trkpt>
      <trkpt lat="42.572040000" lon="-2.427399000">
        <ele>624.40</ele>
        <time>2017-02-18T09:04:30Z</time>
      </trkpt>
      <trkpt lat="42.572002000" lon="-2.427275000">
        <ele>623.20</ele>
        <time>2017-02-18T09:04:31Z</time>
      </trkpt>
      <trkpt lat="42.571943000" lon="-2.427164000">
        <ele>621.30</ele>
        <time>2017-02-18T09:04:32Z</time>
      </trkpt>
      <trkpt lat="42.571875000" lon="-2.427077000">
        <ele>619.90</ele>
        <time>2017-02-18T09:04:33Z</time>
      </trkpt>
      <trkpt lat="42.571809000" lon="-2.427003000">
        <ele>618.80</ele>
        <time>2017-02-18T09:04:34Z</time>
      </trkpt>
      <trkpt lat="42.571746000" lon="-2.426938000">
        <ele>617.90</ele>
        <time>2017-02-18T09:04:35Z</time>
      </trkpt>
      <trkpt lat="42.571691000" lon="-2.426883000">
        <ele>617.30</ele>
        <time>2017-02-18T09:04:36Z</time>
      </trkpt>
      <trkpt lat="42.571638000" lon="-2.426840000">
        <ele>616.80</ele>
        <time>2017-02-18T09:04:37Z</time>
      </trkpt>
      <trkpt lat="42.571589000" lon="-2.426804000">
        <ele>616.70</ele>
        <time>2017-02-18T09:04:38Z</time>
      </trkpt>
      <trkpt lat="42.571542000" lon="-2.426775000">
        <ele>616.50</ele>
        <time>2017-02-18T09:04:39Z</time>
      </trkpt>
      <trkpt lat="42.571496000" lon="-2.426756000">
        <ele>616.80</ele>
        <time>2017-02-18T09:04:40Z</time>
      </trkpt>
      <trkpt lat="42.571455000" lon="-2.426742000">
        <ele>617.00</ele>
        <time>2017-02-18T09:04:41Z</time>
      </trkpt>
      <trkpt lat="42.571415000" lon="-2.426734000">
        <ele>617.40</ele>
        <time>2017-02-18T09:04:42Z</time>
      </trkpt>
      <trkpt lat="42.571376000" lon="-2.426724000">
        <ele>617.70</ele>
        <time>2017-02-18T09:04:43Z</time>
      </trkpt>
      <trkpt lat="42.571339000" lon="-2.426714000">
        <ele>618.20</ele>
        <time>2017-02-18T09:04:44Z</time>
      </trkpt>
      <trkpt lat="42.571307000" lon="-2.426699000">
        <ele>618.60</ele>
        <time>2017-02-18T09:04:45Z</time>
      </trkpt>
      <trkpt lat="42.571275000" lon="-2.426684000">
        <ele>619.10</ele>
        <time>2017-02-18T09:04:46Z</time>
      </trkpt>
      <trkpt lat="42.571245000" lon="-2.426668000">
        <ele>619.40</ele>
        <time>2017-02-18T09:04:47Z</time>
      </trkpt>
      <trkpt lat="42.571212000" lon="-2.426648000">
        <ele>619.90</ele>
        <time>2017-02-18T09:04:48Z</time>
      </trkpt>
      <trkpt lat="42.571181000" lon="-2.426629000">
        <ele>620.20</ele>
        <time>2017-02-18T09:04:49Z</time>
      </trkpt>
      <trkpt lat="42.571150000" lon="-2.426606000">
        <ele>620.50</ele>
        <time>2017-02-18T09:04:50Z</time>
      </trkpt>
      <trkpt lat="42.571121000" lon="-2.426584000">
        <ele>620.70</ele>
        <time>2017-02-18T09:04:51Z</time>
      </trkpt>
      <trkpt lat="42.571095000" lon="-2.426558000">
        <ele>621.20</ele>
        <time>2017-02-18T09:04:52Z</time>
      </trkpt>
      <trkpt lat="42.571070000" lon="-2.426530000">
        <ele>621.70</ele>
        <time>2017-02-18T09:04:53Z</time>
      </trkpt>
      <trkpt lat="42.571050000" lon="-2.426498000">
        <ele>622.00</ele>
        <time>2017-02-18T09:04:54Z</time>
      </trkpt>
      <trkpt lat="42.571030000" lon="-2.426463000">
        <ele>622.30</ele>
        <time>2017-02-18T09:04:55Z</time>
      </trkpt>
      <trkpt lat="42.570999000" lon="-2.426379000">
        <ele>623.20</ele>
        <time>2017-02-18T09:04:57Z</time>
      </trkpt>
      <trkpt lat="42.570985000" lon="-2.426335000">
        <ele>623.80</ele>
        <time>2017-02-18T09:04:58Z</time>
      </trkpt>
      <trkpt lat="42.570980000" lon="-2.426288000">
        <ele>624.20</ele>
        <time>2017-02-18T09:04:59Z</time>
      </trkpt>
      <trkpt lat="42.570974000" lon="-2.426243000">
        <ele>624.60</ele>
        <time>2017-02-18T09:05:00Z</time>
      </trkpt>
      <trkpt lat="42.570966000" lon="-2.426200000">
        <ele>624.90</ele>
        <time>2017-02-18T09:05:01Z</time>
      </trkpt>
      <trkpt lat="42.570956000" lon="-2.426160000">
        <ele>625.10</ele>
        <time>2017-02-18T09:05:02Z</time>
      </trkpt>
      <trkpt lat="42.570949000" lon="-2.426125000">
        <ele>625.30</ele>
        <time>2017-02-18T09:05:03Z</time>
      </trkpt>
      <trkpt lat="42.570946000" lon="-2.426089000">
        <ele>625.60</ele>
        <time>2017-02-18T09:05:04Z</time>
      </trkpt>
      <trkpt lat="42.570941000" lon="-2.426054000">
        <ele>625.90</ele>
        <time>2017-02-18T09:05:05Z</time>
      </trkpt>
      <trkpt lat="42.570936000" lon="-2.426021000">
        <ele>626.20</ele>
        <time>2017-02-18T09:05:06Z</time>
      </trkpt>
      <trkpt lat="42.570930000" lon="-2.425984000">
        <ele>626.50</ele>
        <time>2017-02-18T09:05:07Z</time>
      </trkpt>
      <trkpt lat="42.570928000" lon="-2.425947000">
        <ele>626.90</ele>
        <time>2017-02-18T09:05:08Z</time>
      </trkpt>
      <trkpt lat="42.570924000" lon="-2.425906000">
        <ele>627.20</ele>
        <time>2017-02-18T09:05:09Z</time>
      </trkpt>
      <trkpt lat="42.570924000" lon="-2.425868000">
        <ele>627.40</ele>
        <time>2017-02-18T09:05:10Z</time>
      </trkpt>
      <trkpt lat="42.570921000" lon="-2.425830000">
        <ele>627.60</ele>
        <time>2017-02-18T09:05:11Z</time>
      </trkpt>
      <trkpt lat="42.570920000" lon="-2.425792000">
        <ele>627.70</ele>
        <time>2017-02-18T09:05:12Z</time>
      </trkpt>
      <trkpt lat="42.570918000" lon="-2.425755000">
        <ele>627.70</ele>
        <time>2017-02-18T09:05:13Z</time>
      </trkpt>
      <trkpt lat="42.570917000" lon="-2.425718000">
        <ele>627.70</ele>
        <time>2017-02-18T09:05:14Z</time>
      </trkpt>
      <trkpt lat="42.570913000" lon="-2.425682000">
        <ele>627.80</ele>
        <time>2017-02-18T09:05:15Z</time>
      </trkpt>
      <trkpt lat="42.570911000" lon="-2.425649000">
        <ele>628.00</ele>
        <time>2017-02-18T09:05:16Z</time>
      </trkpt>
      <trkpt lat="42.570907000" lon="-2.425614000">
        <ele>628.30</ele>
        <time>2017-02-18T09:05:17Z</time>
      </trkpt>
      <trkpt lat="42.570902000" lon="-2.425578000">
        <ele>628.50</ele>
        <time>2017-02-18T09:05:18Z</time>
      </trkpt>
      <trkpt lat="42.570897000" lon="-2.425542000">
        <ele>628.60</ele>
        <time>2017-02-18T09:05:19Z</time>
      </trkpt>
      <trkpt lat="42.570895000" lon="-2.425502000">
        <ele>628.90</ele>
        <time>2017-02-18T09:05:20Z</time>
      </trkpt>
      <trkpt lat="42.570892000" lon="-2.425464000">
        <ele>629.10</ele>
        <time>2017-02-18T09:05:21Z</time>
      </trkpt>
      <trkpt lat="42.570889000" lon="-2.425427000">
        <ele>629.20</ele>
        <time>2017-02-18T09:05:22Z</time>
      </trkpt>
      <trkpt lat="42.570886000" lon="-2.425389000">
        <ele>629.30</ele>
        <time>2017-02-18T09:05:23Z</time>
      </trkpt>
      <trkpt lat="42.570881000" lon="-2.425352000">
        <ele>629.50</ele>
        <time>2017-02-18T09:05:24Z</time>
      </trkpt>
      <trkpt lat="42.570874000" lon="-2.425314000">
        <ele>629.60</ele>
        <time>2017-02-18T09:05:25Z</time>
      </trkpt>
      <trkpt lat="42.570869000" lon="-2.425277000">
        <ele>629.70</ele>
        <time>2017-02-18T09:05:26Z</time>
      </trkpt>
      <trkpt lat="42.570862000" lon="-2.425242000">
        <ele>629.80</ele>
        <time>2017-02-18T09:05:27Z</time>
      </trkpt>
      <trkpt lat="42.570852000" lon="-2.425207000">
        <ele>629.80</ele>
        <time>2017-02-18T09:05:28Z</time>
      </trkpt>
      <trkpt lat="42.570846000" lon="-2.425168000">
        <ele>629.90</ele>
        <time>2017-02-18T09:05:29Z</time>
      </trkpt>
      <trkpt lat="42.570837000" lon="-2.425132000">
        <ele>630.00</ele>
        <time>2017-02-18T09:05:30Z</time>
      </trkpt>
      <trkpt lat="42.570828000" lon="-2.425095000">
        <ele>630.00</ele>
        <time>2017-02-18T09:05:31Z</time>
      </trkpt>
      <trkpt lat="42.570821000" lon="-2.425058000">
        <ele>630.20</ele>
        <time>2017-02-18T09:05:32Z</time>
      </trkpt>
      <trkpt lat="42.570812000" lon="-2.425022000">
        <ele>630.30</ele>
        <time>2017-02-18T09:05:33Z</time>
      </trkpt>
      <trkpt lat="42.570800000" lon="-2.424985000">
        <ele>630.40</ele>
        <time>2017-02-18T09:05:34Z</time>
      </trkpt>
      <trkpt lat="42.570788000" lon="-2.424952000">
        <ele>630.50</ele>
        <time>2017-02-18T09:05:35Z</time>
      </trkpt>
      <trkpt lat="42.570774000" lon="-2.424922000">
        <ele>630.60</ele>
        <time>2017-02-18T09:05:36Z</time>
      </trkpt>
      <trkpt lat="42.570761000" lon="-2.424889000">
        <ele>630.70</ele>
        <time>2017-02-18T09:05:37Z</time>
      </trkpt>
      <trkpt lat="42.570746000" lon="-2.424856000">
        <ele>630.90</ele>
        <time>2017-02-18T09:05:38Z</time>
      </trkpt>
      <trkpt lat="42.570732000" lon="-2.424822000">
        <ele>631.00</ele>
        <time>2017-02-18T09:05:39Z</time>
      </trkpt>
      <trkpt lat="42.570717000" lon="-2.424785000">
        <ele>631.20</ele>
        <time>2017-02-18T09:05:40Z</time>
      </trkpt>
      <trkpt lat="42.570702000" lon="-2.424757000">
        <ele>631.30</ele>
        <time>2017-02-18T09:05:41Z</time>
      </trkpt>
      <trkpt lat="42.570686000" lon="-2.424726000">
        <ele>631.40</ele>
        <time>2017-02-18T09:05:42Z</time>
      </trkpt>
      <trkpt lat="42.570671000" lon="-2.424699000">
        <ele>631.50</ele>
        <time>2017-02-18T09:05:43Z</time>
      </trkpt>
      <trkpt lat="42.570653000" lon="-2.424685000">
        <ele>631.50</ele>
        <time>2017-02-18T09:05:44Z</time>
      </trkpt>
      <trkpt lat="42.570640000" lon="-2.424662000">
        <ele>631.60</ele>
        <time>2017-02-18T09:05:45Z</time>
      </trkpt>
      <trkpt lat="42.570633000" lon="-2.424642000">
        <ele>631.60</ele>
        <time>2017-02-18T09:05:46Z</time>
      </trkpt>
      <trkpt lat="42.570626000" lon="-2.424618000">
        <ele>631.60</ele>
        <time>2017-02-18T09:05:47Z</time>
      </trkpt>
      <trkpt lat="42.570621000" lon="-2.424597000">
        <ele>631.90</ele>
        <time>2017-02-18T09:05:48Z</time>
      </trkpt>
      <trkpt lat="42.570607000" lon="-2.424586000">
        <ele>632.10</ele>
        <time>2017-02-18T09:05:49Z</time>
      </trkpt>
      <trkpt lat="42.570594000" lon="-2.424578000">
        <ele>632.30</ele>
        <time>2017-02-18T09:05:50Z</time>
      </trkpt>
      <trkpt lat="42.570580000" lon="-2.424569000">
        <ele>632.40</ele>
        <time>2017-02-18T09:05:51Z</time>
      </trkpt>
      <trkpt lat="42.570567000" lon="-2.424559000">
        <ele>632.50</ele>
        <time>2017-02-18T09:05:52Z</time>
      </trkpt>
      <trkpt lat="42.570555000" lon="-2.424549000">
        <ele>632.50</ele>
        <time>2017-02-18T09:05:53Z</time>
      </trkpt>
      <trkpt lat="42.570555000" lon="-2.424531000">
        <ele>632.70</ele>
        <time>2017-02-18T09:05:54Z</time>
      </trkpt>
      <trkpt lat="42.570557000" lon="-2.424514000">
        <ele>632.90</ele>
        <time>2017-02-18T09:05:55Z</time>
      </trkpt>
      <trkpt lat="42.570558000" lon="-2.424498000">
        <ele>632.80</ele>
        <time>2017-02-18T09:05:56Z</time>
      </trkpt>
      <trkpt lat="42.570552000" lon="-2.424472000">
        <ele>632.90</ele>
        <time>2017-02-18T09:05:58Z</time>
      </trkpt>
      <trkpt lat="42.570546000" lon="-2.424465000">
        <ele>633.00</ele>
        <time>2017-02-18T09:05:59Z</time>
      </trkpt>
      <trkpt lat="42.570535000" lon="-2.424457000">
        <ele>633.10</ele>
        <time>2017-02-18T09:06:00Z</time>
      </trkpt>
      <trkpt lat="42.570523000" lon="-2.424449000">
        <ele>633.20</ele>
        <time>2017-02-18T09:06:01Z</time>
      </trkpt>
      <trkpt lat="42.570512000" lon="-2.424438000">
        <ele>633.30</ele>
        <time>2017-02-18T09:06:02Z</time>
      </trkpt>
      <trkpt lat="42.570501000" lon="-2.424430000">
        <ele>633.40</ele>
        <time>2017-02-18T09:06:03Z</time>
      </trkpt>
      <trkpt lat="42.570490000" lon="-2.424417000">
        <ele>633.40</ele>
        <time>2017-02-18T09:06:04Z</time>
      </trkpt>
      <trkpt lat="42.570481000" lon="-2.424404000">
        <ele>633.50</ele>
        <time>2017-02-18T09:06:05Z</time>
      </trkpt>
      <trkpt lat="42.570474000" lon="-2.424384000">
        <ele>633.50</ele>
        <time>2017-02-18T09:06:06Z</time>
      </trkpt>
      <trkpt lat="42.570471000" lon="-2.424367000">
        <ele>633.50</ele>
        <time>2017-02-18T09:06:07Z</time>
      </trkpt>
      <trkpt lat="42.570471000" lon="-2.424350000">
        <ele>633.50</ele>
        <time>2017-02-18T09:06:08Z</time>
      </trkpt>
      <trkpt lat="42.570470000" lon="-2.424335000">
        <ele>633.40</ele>
        <time>2017-02-18T09:06:09Z</time>
      </trkpt>
      <trkpt lat="42.570463000" lon="-2.424324000">
        <ele>633.40</ele>
        <time>2017-02-18T09:06:10Z</time>
      </trkpt>
      <trkpt lat="42.570451000" lon="-2.424315000">
        <ele>633.40</ele>
        <time>2017-02-18T09:06:11Z</time>
      </trkpt>
      <trkpt lat="42.570443000" lon="-2.424308000">
        <ele>633.40</ele>
        <time>2017-02-18T09:06:12Z</time>
      </trkpt>
      <trkpt lat="42.570434000" lon="-2.424296000">
        <ele>633.40</ele>
        <time>2017-02-18T09:06:13Z</time>
      </trkpt>
      <trkpt lat="42.570424000" lon="-2.424287000">
        <ele>633.40</ele>
        <time>2017-02-18T09:06:14Z</time>
      </trkpt>
      <trkpt lat="42.570418000" lon="-2.424277000">
        <ele>633.40</ele>
        <time>2017-02-18T09:06:15Z</time>
      </trkpt>
      <trkpt lat="42.570414000" lon="-2.424253000">
        <ele>633.40</ele>
        <time>2017-02-18T09:06:16Z</time>
      </trkpt>
      <trkpt lat="42.570406000" lon="-2.424235000">
        <ele>633.40</ele>
        <time>2017-02-18T09:06:17Z</time>
      </trkpt>
      <trkpt lat="42.570397000" lon="-2.424212000">
        <ele>633.50</ele>
        <time>2017-02-18T09:06:18Z</time>
      </trkpt>
      <trkpt lat="42.570386000" lon="-2.424180000">
        <ele>633.60</ele>
        <time>2017-02-18T09:06:19Z</time>
      </trkpt>
      <trkpt lat="42.570373000" lon="-2.424147000">
        <ele>633.70</ele>
        <time>2017-02-18T09:06:20Z</time>
      </trkpt>
      <trkpt lat="42.570362000" lon="-2.424118000">
        <ele>633.70</ele>
        <time>2017-02-18T09:06:21Z</time>
      </trkpt>
      <trkpt lat="42.570352000" lon="-2.424084000">
        <ele>633.80</ele>
        <time>2017-02-18T09:06:22Z</time>
      </trkpt>
      <trkpt lat="42.570346000" lon="-2.424056000">
        <ele>633.80</ele>
        <time>2017-02-18T09:06:23Z</time>
      </trkpt>
      <trkpt lat="42.570333000" lon="-2.424030000">
        <ele>633.90</ele>
        <time>2017-02-18T09:06:24Z</time>
      </trkpt>
      <trkpt lat="42.570322000" lon="-2.424005000">
        <ele>634.00</ele>
        <time>2017-02-18T09:06:25Z</time>
      </trkpt>
      <trkpt lat="42.570312000" lon="-2.423976000">
        <ele>634.00</ele>
        <time>2017-02-18T09:06:26Z</time>
      </trkpt>
      <trkpt lat="42.570304000" lon="-2.423946000">
        <ele>634.00</ele>
        <time>2017-02-18T09:06:27Z</time>
      </trkpt>
      <trkpt lat="42.570296000" lon="-2.423921000">
        <ele>634.10</ele>
        <time>2017-02-18T09:06:28Z</time>
      </trkpt>
      <trkpt lat="42.570290000" lon="-2.423897000">
        <ele>634.20</ele>
        <time>2017-02-18T09:06:29Z</time>
      </trkpt>
      <trkpt lat="42.570284000" lon="-2.423872000">
        <ele>634.30</ele>
        <time>2017-02-18T09:06:30Z</time>
      </trkpt>
      <trkpt lat="42.570277000" lon="-2.423841000">
        <ele>634.30</ele>
        <time>2017-02-18T09:06:31Z</time>
      </trkpt>
      <trkpt lat="42.570272000" lon="-2.423812000">
        <ele>634.30</ele>
        <time>2017-02-18T09:06:32Z</time>
      </trkpt>
      <trkpt lat="42.570267000" lon="-2.423778000">
        <ele>634.30</ele>
        <time>2017-02-18T09:06:33Z</time>
      </trkpt>
      <trkpt lat="42.570265000" lon="-2.423741000">
        <ele>634.40</ele>
        <time>2017-02-18T09:06:34Z</time>
      </trkpt>
      <trkpt lat="42.570262000" lon="-2.423703000">
        <ele>634.50</ele>
        <time>2017-02-18T09:06:35Z</time>
      </trkpt>
      <trkpt lat="42.570258000" lon="-2.423663000">
        <ele>634.70</ele>
        <time>2017-02-18T09:06:36Z</time>
      </trkpt>
      <trkpt lat="42.570261000" lon="-2.423626000">
        <ele>634.80</ele>
        <time>2017-02-18T09:06:37Z</time>
      </trkpt>
      <trkpt lat="42.570268000" lon="-2.423588000">
        <ele>634.80</ele>
        <time>2017-02-18T09:06:38Z</time>
      </trkpt>
      <trkpt lat="42.570276000" lon="-2.423550000">
        <ele>634.70</ele>
        <time>2017-02-18T09:06:39Z</time>
      </trkpt>
      <trkpt lat="42.570285000" lon="-2.423514000">
        <ele>634.70</ele>
        <time>2017-02-18T09:06:40Z</time>
      </trkpt>
      <trkpt lat="42.570295000" lon="-2.423476000">
        <ele>634.70</ele>
        <time>2017-02-18T09:06:41Z</time>
      </trkpt>
      <trkpt lat="42.570307000" lon="-2.423438000">
        <ele>634.70</ele>
        <time>2017-02-18T09:06:42Z</time>
      </trkpt>
      <trkpt lat="42.570323000" lon="-2.423401000">
        <ele>634.70</ele>
        <time>2017-02-18T09:06:43Z</time>
      </trkpt>
      <trkpt lat="42.570337000" lon="-2.423363000">
        <ele>634.60</ele>
        <time>2017-02-18T09:06:44Z</time>
      </trkpt>
      <trkpt lat="42.570348000" lon="-2.423327000">
        <ele>634.60</ele>
        <time>2017-02-18T09:06:45Z</time>
      </trkpt>
      <trkpt lat="42.570357000" lon="-2.423286000">
        <ele>634.50</ele>
        <time>2017-02-18T09:06:46Z</time>
      </trkpt>
      <trkpt lat="42.570361000" lon="-2.423245000">
        <ele>634.50</ele>
        <time>2017-02-18T09:06:47Z</time>
      </trkpt>
      <trkpt lat="42.570365000" lon="-2.423200000">
        <ele>634.50</ele>
        <time>2017-02-18T09:06:48Z</time>
      </trkpt>
      <trkpt lat="42.570364000" lon="-2.423151000">
        <ele>634.50</ele>
        <time>2017-02-18T09:06:49Z</time>
      </trkpt>
      <trkpt lat="42.570359000" lon="-2.423102000">
        <ele>634.50</ele>
        <time>2017-02-18T09:06:50Z</time>
      </trkpt>
      <trkpt lat="42.570350000" lon="-2.423053000">
        <ele>634.40</ele>
        <time>2017-02-18T09:06:51Z</time>
      </trkpt>
      <trkpt lat="42.570338000" lon="-2.423007000">
        <ele>634.60</ele>
        <time>2017-02-18T09:06:52Z</time>
      </trkpt>
      <trkpt lat="42.570325000" lon="-2.422964000">
        <ele>634.80</ele>
        <time>2017-02-18T09:06:53Z</time>
      </trkpt>
      <trkpt lat="42.570306000" lon="-2.422921000">
        <ele>634.90</ele>
        <time>2017-02-18T09:06:54Z</time>
      </trkpt>
      <trkpt lat="42.570282000" lon="-2.422884000">
        <ele>635.00</ele>
        <time>2017-02-18T09:06:55Z</time>
      </trkpt>
      <trkpt lat="42.570258000" lon="-2.422849000">
        <ele>635.20</ele>
        <time>2017-02-18T09:06:56Z</time>
      </trkpt>
      <trkpt lat="42.570234000" lon="-2.422816000">
        <ele>635.30</ele>
        <time>2017-02-18T09:06:57Z</time>
      </trkpt>
      <trkpt lat="42.570177000" lon="-2.422765000">
        <ele>635.30</ele>
        <time>2017-02-18T09:06:59Z</time>
      </trkpt>
      <trkpt lat="42.570149000" lon="-2.422741000">
        <ele>635.40</ele>
        <time>2017-02-18T09:07:00Z</time>
      </trkpt>
      <trkpt lat="42.570120000" lon="-2.422721000">
        <ele>635.50</ele>
        <time>2017-02-18T09:07:01Z</time>
      </trkpt>
      <trkpt lat="42.570092000" lon="-2.422710000">
        <ele>635.60</ele>
        <time>2017-02-18T09:07:02Z</time>
      </trkpt>
      <trkpt lat="42.570060000" lon="-2.422701000">
        <ele>635.60</ele>
        <time>2017-02-18T09:07:03Z</time>
      </trkpt>
      <trkpt lat="42.570031000" lon="-2.422688000">
        <ele>635.60</ele>
        <time>2017-02-18T09:07:04Z</time>
      </trkpt>
      <trkpt lat="42.570002000" lon="-2.422682000">
        <ele>635.70</ele>
        <time>2017-02-18T09:07:05Z</time>
      </trkpt>
      <trkpt lat="42.569973000" lon="-2.422672000">
        <ele>635.80</ele>
        <time>2017-02-18T09:07:06Z</time>
      </trkpt>
      <trkpt lat="42.569944000" lon="-2.422662000">
        <ele>635.90</ele>
        <time>2017-02-18T09:07:07Z</time>
      </trkpt>
      <trkpt lat="42.569917000" lon="-2.422656000">
        <ele>636.00</ele>
        <time>2017-02-18T09:07:08Z</time>
      </trkpt>
      <trkpt lat="42.569892000" lon="-2.422651000">
        <ele>636.20</ele>
        <time>2017-02-18T09:07:09Z</time>
      </trkpt>
      <trkpt lat="42.569868000" lon="-2.422642000">
        <ele>636.40</ele>
        <time>2017-02-18T09:07:10Z</time>
      </trkpt>
      <trkpt lat="42.569843000" lon="-2.422633000">
        <ele>636.50</ele>
        <time>2017-02-18T09:07:11Z</time>
      </trkpt>
      <trkpt lat="42.569819000" lon="-2.422626000">
        <ele>636.70</ele>
        <time>2017-02-18T09:07:12Z</time>
      </trkpt>
      <trkpt lat="42.569794000" lon="-2.422618000">
        <ele>636.80</ele>
        <time>2017-02-18T09:07:13Z</time>
      </trkpt>
      <trkpt lat="42.569764000" lon="-2.422611000">
        <ele>637.00</ele>
        <time>2017-02-18T09:07:14Z</time>
      </trkpt>
      <trkpt lat="42.569738000" lon="-2.422598000">
        <ele>637.10</ele>
        <time>2017-02-18T09:07:15Z</time>
      </trkpt>
      <trkpt lat="42.569712000" lon="-2.422585000">
        <ele>637.30</ele>
        <time>2017-02-18T09:07:16Z</time>
      </trkpt>
      <trkpt lat="42.569686000" lon="-2.422567000">
        <ele>637.50</ele>
        <time>2017-02-18T09:07:17Z</time>
      </trkpt>
      <trkpt lat="42.569660000" lon="-2.422549000">
        <ele>637.80</ele>
        <time>2017-02-18T09:07:18Z</time>
      </trkpt>
      <trkpt lat="42.569639000" lon="-2.422527000">
        <ele>638.00</ele>
        <time>2017-02-18T09:07:19Z</time>
      </trkpt>
      <trkpt lat="42.569615000" lon="-2.422504000">
        <ele>638.10</ele>
        <time>2017-02-18T09:07:20Z</time>
      </trkpt>
      <trkpt lat="42.569595000" lon="-2.422478000">
        <ele>638.20</ele>
        <time>2017-02-18T09:07:21Z</time>
      </trkpt>
      <trkpt lat="42.569576000" lon="-2.422450000">
        <ele>638.30</ele>
        <time>2017-02-18T09:07:22Z</time>
      </trkpt>
      <trkpt lat="42.569558000" lon="-2.422421000">
        <ele>638.40</ele>
        <time>2017-02-18T09:07:23Z</time>
      </trkpt>
      <trkpt lat="42.569544000" lon="-2.422391000">
        <ele>638.50</ele>
        <time>2017-02-18T09:07:24Z</time>
      </trkpt>
      <trkpt lat="42.569531000" lon="-2.422361000">
        <ele>638.70</ele>
        <time>2017-02-18T09:07:25Z</time>
      </trkpt>
      <trkpt lat="42.569518000" lon="-2.422329000">
        <ele>638.80</ele>
        <time>2017-02-18T09:07:26Z</time>
      </trkpt>
      <trkpt lat="42.569505000" lon="-2.422297000">
        <ele>638.80</ele>
        <time>2017-02-18T09:07:27Z</time>
      </trkpt>
      <trkpt lat="42.569494000" lon="-2.422266000">
        <ele>639.10</ele>
        <time>2017-02-18T09:07:28Z</time>
      </trkpt>
      <trkpt lat="42.569484000" lon="-2.422231000">
        <ele>639.20</ele>
        <time>2017-02-18T09:07:29Z</time>
      </trkpt>
      <trkpt lat="42.569473000" lon="-2.422199000">
        <ele>639.50</ele>
        <time>2017-02-18T09:07:30Z</time>
      </trkpt>
      <trkpt lat="42.569464000" lon="-2.422164000">
        <ele>639.70</ele>
        <time>2017-02-18T09:07:31Z</time>
      </trkpt>
      <trkpt lat="42.569454000" lon="-2.422131000">
        <ele>639.70</ele>
        <time>2017-02-18T09:07:32Z</time>
      </trkpt>
      <trkpt lat="42.569443000" lon="-2.422097000">
        <ele>639.70</ele>
        <time>2017-02-18T09:07:33Z</time>
      </trkpt>
      <trkpt lat="42.569432000" lon="-2.422063000">
        <ele>639.80</ele>
        <time>2017-02-18T09:07:34Z</time>
      </trkpt>
      <trkpt lat="42.569421000" lon="-2.422031000">
        <ele>639.90</ele>
        <time>2017-02-18T09:07:35Z</time>
      </trkpt>
      <trkpt lat="42.569412000" lon="-2.421997000">
        <ele>639.90</ele>
        <time>2017-02-18T09:07:36Z</time>
      </trkpt>
      <trkpt lat="42.569401000" lon="-2.421964000">
        <ele>639.90</ele>
        <time>2017-02-18T09:07:37Z</time>
      </trkpt>
      <trkpt lat="42.569391000" lon="-2.421929000">
        <ele>640.00</ele>
        <time>2017-02-18T09:07:38Z</time>
      </trkpt>
      <trkpt lat="42.569385000" lon="-2.421894000">
        <ele>640.10</ele>
        <time>2017-02-18T09:07:39Z</time>
      </trkpt>
      <trkpt lat="42.569378000" lon="-2.421861000">
        <ele>640.10</ele>
        <time>2017-02-18T09:07:40Z</time>
      </trkpt>
      <trkpt lat="42.569369000" lon="-2.421824000">
        <ele>640.20</ele>
        <time>2017-02-18T09:07:41Z</time>
      </trkpt>
      <trkpt lat="42.569360000" lon="-2.421786000">
        <ele>640.30</ele>
        <time>2017-02-18T09:07:42Z</time>
      </trkpt>
      <trkpt lat="42.569348000" lon="-2.421751000">
        <ele>640.30</ele>
        <time>2017-02-18T09:07:43Z</time>
      </trkpt>
      <trkpt lat="42.569338000" lon="-2.421719000">
        <ele>640.40</ele>
        <time>2017-02-18T09:07:44Z</time>
      </trkpt>
      <trkpt lat="42.569330000" lon="-2.421684000">
        <ele>640.40</ele>
        <time>2017-02-18T09:07:45Z</time>
      </trkpt>
      <trkpt lat="42.569324000" lon="-2.421651000">
        <ele>640.50</ele>
        <time>2017-02-18T09:07:46Z</time>
      </trkpt>
      <trkpt lat="42.569315000" lon="-2.421614000">
        <ele>640.50</ele>
        <time>2017-02-18T09:07:47Z</time>
      </trkpt>
      <trkpt lat="42.569307000" lon="-2.421577000">
        <ele>640.70</ele>
        <time>2017-02-18T09:07:48Z</time>
      </trkpt>
      <trkpt lat="42.569301000" lon="-2.421534000">
        <ele>640.90</ele>
        <time>2017-02-18T09:07:49Z</time>
      </trkpt>
      <trkpt lat="42.569294000" lon="-2.421494000">
        <ele>641.00</ele>
        <time>2017-02-18T09:07:50Z</time>
      </trkpt>
      <trkpt lat="42.569292000" lon="-2.421455000">
        <ele>641.10</ele>
        <time>2017-02-18T09:07:51Z</time>
      </trkpt>
      <trkpt lat="42.569290000" lon="-2.421414000">
        <ele>641.10</ele>
        <time>2017-02-18T09:07:52Z</time>
      </trkpt>
      <trkpt lat="42.569290000" lon="-2.421372000">
        <ele>641.20</ele>
        <time>2017-02-18T09:07:53Z</time>
      </trkpt>
      <trkpt lat="42.569290000" lon="-2.421332000">
        <ele>641.20</ele>
        <time>2017-02-18T09:07:54Z</time>
      </trkpt>
      <trkpt lat="42.569292000" lon="-2.421291000">
        <ele>641.30</ele>
        <time>2017-02-18T09:07:55Z</time>
      </trkpt>
      <trkpt lat="42.569293000" lon="-2.421249000">
        <ele>641.20</ele>
        <time>2017-02-18T09:07:56Z</time>
      </trkpt>
      <trkpt lat="42.569296000" lon="-2.421212000">
        <ele>641.20</ele>
        <time>2017-02-18T09:07:57Z</time>
      </trkpt>
      <trkpt lat="42.569295000" lon="-2.421176000">
        <ele>641.20</ele>
        <time>2017-02-18T09:07:58Z</time>
      </trkpt>
      <trkpt lat="42.569298000" lon="-2.421097000">
        <ele>641.30</ele>
        <time>2017-02-18T09:08:00Z</time>
      </trkpt>
      <trkpt lat="42.569303000" lon="-2.421061000">
        <ele>641.30</ele>
        <time>2017-02-18T09:08:01Z</time>
      </trkpt>
      <trkpt lat="42.569308000" lon="-2.421028000">
        <ele>641.50</ele>
        <time>2017-02-18T09:08:02Z</time>
      </trkpt>
      <trkpt lat="42.569313000" lon="-2.420994000">
        <ele>641.70</ele>
        <time>2017-02-18T09:08:03Z</time>
      </trkpt>
      <trkpt lat="42.569318000" lon="-2.420959000">
        <ele>641.80</ele>
        <time>2017-02-18T09:08:04Z</time>
      </trkpt>
      <trkpt lat="42.569320000" lon="-2.420923000">
        <ele>641.80</ele>
        <time>2017-02-18T09:08:05Z</time>
      </trkpt>
      <trkpt lat="42.569324000" lon="-2.420886000">
        <ele>641.90</ele>
        <time>2017-02-18T09:08:06Z</time>
      </trkpt>
      <trkpt lat="42.569328000" lon="-2.420848000">
        <ele>641.90</ele>
        <time>2017-02-18T09:08:07Z</time>
      </trkpt>
      <trkpt lat="42.569336000" lon="-2.420811000">
        <ele>642.20</ele>
        <time>2017-02-18T09:08:08Z</time>
      </trkpt>
      <trkpt lat="42.569339000" lon="-2.420774000">
        <ele>642.40</ele>
        <time>2017-02-18T09:08:09Z</time>
      </trkpt>
      <trkpt lat="42.569343000" lon="-2.420740000">
        <ele>642.60</ele>
        <time>2017-02-18T09:08:10Z</time>
      </trkpt>
      <trkpt lat="42.569342000" lon="-2.420701000">
        <ele>642.70</ele>
        <time>2017-02-18T09:08:11Z</time>
      </trkpt>
      <trkpt lat="42.569346000" lon="-2.420662000">
        <ele>642.80</ele>
        <time>2017-02-18T09:08:12Z</time>
      </trkpt>
      <trkpt lat="42.569349000" lon="-2.420623000">
        <ele>642.90</ele>
        <time>2017-02-18T09:08:13Z</time>
      </trkpt>
      <trkpt lat="42.569350000" lon="-2.420586000">
        <ele>642.90</ele>
        <time>2017-02-18T09:08:14Z</time>
      </trkpt>
      <trkpt lat="42.569349000" lon="-2.420550000">
        <ele>643.00</ele>
        <time>2017-02-18T09:08:15Z</time>
      </trkpt>
      <trkpt lat="42.569348000" lon="-2.420514000">
        <ele>643.00</ele>
        <time>2017-02-18T09:08:16Z</time>
      </trkpt>
      <trkpt lat="42.569349000" lon="-2.420479000">
        <ele>643.00</ele>
        <time>2017-02-18T09:08:17Z</time>
      </trkpt>
      <trkpt lat="42.569349000" lon="-2.420441000">
        <ele>643.20</ele>
        <time>2017-02-18T09:08:18Z</time>
      </trkpt>
      <trkpt lat="42.569348000" lon="-2.420406000">
        <ele>643.30</ele>
        <time>2017-02-18T09:08:19Z</time>
      </trkpt>
      <trkpt lat="42.569349000" lon="-2.420371000">
        <ele>643.50</ele>
        <time>2017-02-18T09:08:20Z</time>
      </trkpt>
      <trkpt lat="42.569348000" lon="-2.420335000">
        <ele>643.70</ele>
        <time>2017-02-18T09:08:21Z</time>
      </trkpt>
      <trkpt lat="42.569344000" lon="-2.420301000">
        <ele>643.90</ele>
        <time>2017-02-18T09:08:22Z</time>
      </trkpt>
      <trkpt lat="42.569341000" lon="-2.420269000">
        <ele>644.10</ele>
        <time>2017-02-18T09:08:23Z</time>
      </trkpt>
      <trkpt lat="42.569336000" lon="-2.420237000">
        <ele>644.50</ele>
        <time>2017-02-18T09:08:24Z</time>
      </trkpt>
      <trkpt lat="42.569333000" lon="-2.420205000">
        <ele>644.70</ele>
        <time>2017-02-18T09:08:25Z</time>
      </trkpt>
      <trkpt lat="42.569328000" lon="-2.420177000">
        <ele>645.00</ele>
        <time>2017-02-18T09:08:26Z</time>
      </trkpt>
      <trkpt lat="42.569319000" lon="-2.420150000">
        <ele>645.20</ele>
        <time>2017-02-18T09:08:27Z</time>
      </trkpt>
      <trkpt lat="42.569310000" lon="-2.420123000">
        <ele>645.30</ele>
        <time>2017-02-18T09:08:28Z</time>
      </trkpt>
      <trkpt lat="42.569302000" lon="-2.420096000">
        <ele>645.40</ele>
        <time>2017-02-18T09:08:29Z</time>
      </trkpt>
      <trkpt lat="42.569294000" lon="-2.420067000">
        <ele>645.60</ele>
        <time>2017-02-18T09:08:30Z</time>
      </trkpt>
      <trkpt lat="42.569287000" lon="-2.420041000">
        <ele>645.70</ele>
        <time>2017-02-18T09:08:31Z</time>
      </trkpt>
      <trkpt lat="42.569282000" lon="-2.420010000">
        <ele>645.90</ele>
        <time>2017-02-18T09:08:32Z</time>
      </trkpt>
      <trkpt lat="42.569274000" lon="-2.419985000">
        <ele>646.10</ele>
        <time>2017-02-18T09:08:33Z</time>
      </trkpt>
      <trkpt lat="42.569264000" lon="-2.419972000">
        <ele>646.40</ele>
        <time>2017-02-18T09:08:34Z</time>
      </trkpt>
      <trkpt lat="42.569258000" lon="-2.419952000">
        <ele>646.70</ele>
        <time>2017-02-18T09:08:35Z</time>
      </trkpt>
      <trkpt lat="42.569254000" lon="-2.419930000">
        <ele>647.00</ele>
        <time>2017-02-18T09:08:36Z</time>
      </trkpt>
      <trkpt lat="42.569247000" lon="-2.419916000">
        <ele>647.20</ele>
        <time>2017-02-18T09:08:37Z</time>
      </trkpt>
      <trkpt lat="42.569242000" lon="-2.419897000">
        <ele>647.50</ele>
        <time>2017-02-18T09:08:38Z</time>
      </trkpt>
      <trkpt lat="42.569235000" lon="-2.419879000">
        <ele>647.70</ele>
        <time>2017-02-18T09:08:39Z</time>
      </trkpt>
      <trkpt lat="42.569229000" lon="-2.419861000">
        <ele>647.90</ele>
        <time>2017-02-18T09:08:40Z</time>
      </trkpt>
      <trkpt lat="42.569224000" lon="-2.419845000">
        <ele>648.00</ele>
        <time>2017-02-18T09:08:41Z</time>
      </trkpt>
      <trkpt lat="42.569217000" lon="-2.419825000">
        <ele>648.10</ele>
        <time>2017-02-18T09:08:42Z</time>
      </trkpt>
      <trkpt lat="42.569209000" lon="-2.419812000">
        <ele>648.20</ele>
        <time>2017-02-18T09:08:43Z</time>
      </trkpt>
      <trkpt lat="42.569200000" lon="-2.419800000">
        <ele>648.40</ele>
        <time>2017-02-18T09:08:44Z</time>
      </trkpt>
      <trkpt lat="42.569193000" lon="-2.419789000">
        <ele>648.60</ele>
        <time>2017-02-18T09:08:45Z</time>
      </trkpt>
      <trkpt lat="42.569190000" lon="-2.419778000">
        <ele>648.70</ele>
        <time>2017-02-18T09:08:46Z</time>
      </trkpt>
      <trkpt lat="42.569186000" lon="-2.419764000">
        <ele>648.90</ele>
        <time>2017-02-18T09:08:47Z</time>
      </trkpt>
      <trkpt lat="42.569180000" lon="-2.419751000">
        <ele>649.10</ele>
        <time>2017-02-18T09:08:48Z</time>
      </trkpt>
      <trkpt lat="42.569172000" lon="-2.419738000">
        <ele>649.20</ele>
        <time>2017-02-18T09:08:49Z</time>
      </trkpt>
      <trkpt lat="42.569160000" lon="-2.419742000">
        <ele>649.30</ele>
        <time>2017-02-18T09:08:50Z</time>
      </trkpt>
      <trkpt lat="42.569153000" lon="-2.419738000">
        <ele>649.40</ele>
        <time>2017-02-18T09:08:51Z</time>
      </trkpt>
      <trkpt lat="42.569147000" lon="-2.419727000">
        <ele>649.50</ele>
        <time>2017-02-18T09:08:52Z</time>
      </trkpt>
      <trkpt lat="42.569143000" lon="-2.419715000">
        <ele>649.50</ele>
        <time>2017-02-18T09:08:53Z</time>
      </trkpt>
      <trkpt lat="42.569138000" lon="-2.419703000">
        <ele>649.80</ele>
        <time>2017-02-18T09:08:54Z</time>
      </trkpt>
      <trkpt lat="42.569130000" lon="-2.419688000">
        <ele>650.00</ele>
        <time>2017-02-18T09:08:55Z</time>
      </trkpt>
      <trkpt lat="42.569122000" lon="-2.419676000">
        <ele>650.10</ele>
        <time>2017-02-18T09:08:56Z</time>
      </trkpt>
      <trkpt lat="42.569113000" lon="-2.419666000">
        <ele>650.20</ele>
        <time>2017-02-18T09:08:57Z</time>
      </trkpt>
      <trkpt lat="42.569104000" lon="-2.419654000">
        <ele>650.40</ele>
        <time>2017-02-18T09:08:58Z</time>
      </trkpt>
      <trkpt lat="42.569096000" lon="-2.419641000">
        <ele>650.50</ele>
        <time>2017-02-18T09:08:59Z</time>
      </trkpt>
      <trkpt lat="42.569078000" lon="-2.419622000">
        <ele>651.20</ele>
        <time>2017-02-18T09:09:01Z</time>
      </trkpt>
      <trkpt lat="42.569069000" lon="-2.419614000">
        <ele>651.60</ele>
        <time>2017-02-18T09:09:02Z</time>
      </trkpt>
      <trkpt lat="42.569061000" lon="-2.419607000">
        <ele>651.90</ele>
        <time>2017-02-18T09:09:03Z</time>
      </trkpt>
      <trkpt lat="42.569051000" lon="-2.419601000">
        <ele>652.10</ele>
        <time>2017-02-18T09:09:04Z</time>
      </trkpt>
      <trkpt lat="42.569045000" lon="-2.419591000">
        <ele>652.20</ele>
        <time>2017-02-18T09:09:05Z</time>
      </trkpt>
      <trkpt lat="42.569042000" lon="-2.419579000">
        <ele>652.30</ele>
        <time>2017-02-18T09:09:06Z</time>
      </trkpt>
      <trkpt lat="42.569035000" lon="-2.419566000">
        <ele>652.30</ele>
        <time>2017-02-18T09:09:07Z</time>
      </trkpt>
      <trkpt lat="42.569030000" lon="-2.419553000">
        <ele>652.30</ele>
        <time>2017-02-18T09:09:08Z</time>
      </trkpt>
      <trkpt lat="42.569024000" lon="-2.419540000">
        <ele>652.40</ele>
        <time>2017-02-18T09:09:09Z</time>
      </trkpt>
      <trkpt lat="42.569015000" lon="-2.419525000">
        <ele>652.60</ele>
        <time>2017-02-18T09:09:10Z</time>
      </trkpt>
      <trkpt lat="42.569007000" lon="-2.419516000">
        <ele>652.80</ele>
        <time>2017-02-18T09:09:11Z</time>
      </trkpt>
      <trkpt lat="42.568997000" lon="-2.419501000">
        <ele>653.20</ele>
        <time>2017-02-18T09:09:12Z</time>
      </trkpt>
      <trkpt lat="42.568988000" lon="-2.419487000">
        <ele>653.40</ele>
        <time>2017-02-18T09:09:13Z</time>
      </trkpt>
      <trkpt lat="42.568980000" lon="-2.419472000">
        <ele>653.60</ele>
        <time>2017-02-18T09:09:14Z</time>
      </trkpt>
      <trkpt lat="42.568974000" lon="-2.419456000">
        <ele>653.70</ele>
        <time>2017-02-18T09:09:15Z</time>
      </trkpt>
      <trkpt lat="42.568965000" lon="-2.419443000">
        <ele>653.80</ele>
        <time>2017-02-18T09:09:16Z</time>
      </trkpt>
      <trkpt lat="42.568954000" lon="-2.419434000">
        <ele>653.90</ele>
        <time>2017-02-18T09:09:17Z</time>
      </trkpt>
      <trkpt lat="42.568945000" lon="-2.419426000">
        <ele>654.20</ele>
        <time>2017-02-18T09:09:18Z</time>
      </trkpt>
      <trkpt lat="42.568939000" lon="-2.419416000">
        <ele>654.40</ele>
        <time>2017-02-18T09:09:19Z</time>
      </trkpt>
      <trkpt lat="42.568931000" lon="-2.419405000">
        <ele>654.60</ele>
        <time>2017-02-18T09:09:20Z</time>
      </trkpt>
      <trkpt lat="42.568926000" lon="-2.419393000">
        <ele>654.70</ele>
        <time>2017-02-18T09:09:21Z</time>
      </trkpt>
      <trkpt lat="42.568919000" lon="-2.419381000">
        <ele>654.80</ele>
        <time>2017-02-18T09:09:22Z</time>
      </trkpt>
      <trkpt lat="42.568912000" lon="-2.419370000">
        <ele>655.00</ele>
        <time>2017-02-18T09:09:23Z</time>
      </trkpt>
      <trkpt lat="42.568908000" lon="-2.419361000">
        <ele>655.10</ele>
        <time>2017-02-18T09:09:24Z</time>
      </trkpt>
      <trkpt lat="42.568901000" lon="-2.419353000">
        <ele>655.20</ele>
        <time>2017-02-18T09:09:25Z</time>
      </trkpt>
      <trkpt lat="42.568895000" lon="-2.419341000">
        <ele>655.50</ele>
        <time>2017-02-18T09:09:26Z</time>
      </trkpt>
      <trkpt lat="42.568889000" lon="-2.419334000">
        <ele>655.60</ele>
        <time>2017-02-18T09:09:27Z</time>
      </trkpt>
      <trkpt lat="42.568884000" lon="-2.419326000">
        <ele>655.90</ele>
        <time>2017-02-18T09:09:28Z</time>
      </trkpt>
      <trkpt lat="42.568876000" lon="-2.419318000">
        <ele>656.20</ele>
        <time>2017-02-18T09:09:29Z</time>
      </trkpt>
      <trkpt lat="42.568866000" lon="-2.419311000">
        <ele>656.40</ele>
        <time>2017-02-18T09:09:30Z</time>
      </trkpt>
      <trkpt lat="42.568862000" lon="-2.419300000">
        <ele>656.50</ele>
        <time>2017-02-18T09:09:31Z</time>
      </trkpt>
      <trkpt lat="42.568858000" lon="-2.419287000">
        <ele>656.70</ele>
        <time>2017-02-18T09:09:32Z</time>
      </trkpt>
      <trkpt lat="42.568847000" lon="-2.419280000">
        <ele>656.80</ele>
        <time>2017-02-18T09:09:33Z</time>
      </trkpt>
      <trkpt lat="42.568840000" lon="-2.419273000">
        <ele>657.00</ele>
        <time>2017-02-18T09:09:34Z</time>
      </trkpt>
      <trkpt lat="42.568836000" lon="-2.419262000">
        <ele>657.20</ele>
        <time>2017-02-18T09:09:35Z</time>
      </trkpt>
      <trkpt lat="42.568832000" lon="-2.419248000">
        <ele>657.70</ele>
        <time>2017-02-18T09:09:36Z</time>
      </trkpt>
      <trkpt lat="42.568825000" lon="-2.419233000">
        <ele>658.10</ele>
        <time>2017-02-18T09:09:37Z</time>
      </trkpt>
      <trkpt lat="42.568818000" lon="-2.419219000">
        <ele>658.40</ele>
        <time>2017-02-18T09:09:38Z</time>
      </trkpt>
      <trkpt lat="42.568810000" lon="-2.419208000">
        <ele>658.60</ele>
        <time>2017-02-18T09:09:39Z</time>
      </trkpt>
      <trkpt lat="42.568806000" lon="-2.419197000">
        <ele>658.80</ele>
        <time>2017-02-18T09:09:40Z</time>
      </trkpt>
      <trkpt lat="42.568800000" lon="-2.419188000">
        <ele>658.90</ele>
        <time>2017-02-18T09:09:41Z</time>
      </trkpt>
      <trkpt lat="42.568792000" lon="-2.419174000">
        <ele>659.00</ele>
        <time>2017-02-18T09:09:42Z</time>
      </trkpt>
      <trkpt lat="42.568783000" lon="-2.419163000">
        <ele>659.10</ele>
        <time>2017-02-18T09:09:43Z</time>
      </trkpt>
      <trkpt lat="42.568779000" lon="-2.419152000">
        <ele>659.20</ele>
        <time>2017-02-18T09:09:44Z</time>
      </trkpt>
      <trkpt lat="42.568776000" lon="-2.419140000">
        <ele>659.30</ele>
        <time>2017-02-18T09:09:45Z</time>
      </trkpt>
      <trkpt lat="42.568770000" lon="-2.419133000">
        <ele>659.50</ele>
        <time>2017-02-18T09:09:46Z</time>
      </trkpt>
      <trkpt lat="42.568761000" lon="-2.419123000">
        <ele>659.50</ele>
        <time>2017-02-18T09:09:47Z</time>
      </trkpt>
      <trkpt lat="42.568752000" lon="-2.419115000">
        <ele>659.90</ele>
        <time>2017-02-18T09:09:48Z</time>
      </trkpt>
      <trkpt lat="42.568744000" lon="-2.419106000">
        <ele>660.20</ele>
        <time>2017-02-18T09:09:49Z</time>
      </trkpt>
      <trkpt lat="42.568736000" lon="-2.419098000">
        <ele>660.60</ele>
        <time>2017-02-18T09:09:50Z</time>
      </trkpt>
      <trkpt lat="42.568735000" lon="-2.419082000">
        <ele>660.90</ele>
        <time>2017-02-18T09:09:51Z</time>
      </trkpt>
      <trkpt lat="42.568733000" lon="-2.419069000">
        <ele>661.20</ele>
        <time>2017-02-18T09:09:52Z</time>
      </trkpt>
      <trkpt lat="42.568725000" lon="-2.419056000">
        <ele>661.40</ele>
        <time>2017-02-18T09:09:53Z</time>
      </trkpt>
      <trkpt lat="42.568719000" lon="-2.419042000">
        <ele>661.50</ele>
        <time>2017-02-18T09:09:54Z</time>
      </trkpt>
      <trkpt lat="42.568716000" lon="-2.419031000">
        <ele>661.60</ele>
        <time>2017-02-18T09:09:55Z</time>
      </trkpt>
      <trkpt lat="42.568710000" lon="-2.419020000">
        <ele>661.80</ele>
        <time>2017-02-18T09:09:56Z</time>
      </trkpt>
      <trkpt lat="42.568701000" lon="-2.419012000">
        <ele>661.90</ele>
        <time>2017-02-18T09:09:57Z</time>
      </trkpt>
      <trkpt lat="42.568693000" lon="-2.419006000">
        <ele>661.90</ele>
        <time>2017-02-18T09:09:58Z</time>
      </trkpt>
      <trkpt lat="42.568686000" lon="-2.418998000">
        <ele>662.00</ele>
        <time>2017-02-18T09:09:59Z</time>
      </trkpt>
      <trkpt lat="42.568680000" lon="-2.418987000">
        <ele>662.20</ele>
        <time>2017-02-18T09:10:00Z</time>
      </trkpt>
      <trkpt lat="42.568666000" lon="-2.418964000">
        <ele>662.70</ele>
        <time>2017-02-18T09:10:02Z</time>
      </trkpt>
      <trkpt lat="42.568659000" lon="-2.418952000">
        <ele>662.80</ele>
        <time>2017-02-18T09:10:03Z</time>
      </trkpt>
      <trkpt lat="42.568653000" lon="-2.418941000">
        <ele>663.10</ele>
        <time>2017-02-18T09:10:04Z</time>
      </trkpt>
      <trkpt lat="42.568644000" lon="-2.418927000">
        <ele>663.40</ele>
        <time>2017-02-18T09:10:05Z</time>
      </trkpt>
      <trkpt lat="42.568637000" lon="-2.418912000">
        <ele>663.70</ele>
        <time>2017-02-18T09:10:06Z</time>
      </trkpt>
      <trkpt lat="42.568633000" lon="-2.418897000">
        <ele>663.90</ele>
        <time>2017-02-18T09:10:07Z</time>
      </trkpt>
      <trkpt lat="42.568627000" lon="-2.418881000">
        <ele>664.20</ele>
        <time>2017-02-18T09:10:08Z</time>
      </trkpt>
      <trkpt lat="42.568621000" lon="-2.418865000">
        <ele>664.40</ele>
        <time>2017-02-18T09:10:09Z</time>
      </trkpt>
      <trkpt lat="42.568618000" lon="-2.418850000">
        <ele>664.60</ele>
        <time>2017-02-18T09:10:10Z</time>
      </trkpt>
      <trkpt lat="42.568615000" lon="-2.418836000">
        <ele>664.70</ele>
        <time>2017-02-18T09:10:11Z</time>
      </trkpt>
      <trkpt lat="42.568608000" lon="-2.418825000">
        <ele>664.90</ele>
        <time>2017-02-18T09:10:12Z</time>
      </trkpt>
      <trkpt lat="42.568604000" lon="-2.418810000">
        <ele>665.00</ele>
        <time>2017-02-18T09:10:13Z</time>
      </trkpt>
      <trkpt lat="42.568598000" lon="-2.418797000">
        <ele>665.20</ele>
        <time>2017-02-18T09:10:14Z</time>
      </trkpt>
      <trkpt lat="42.568593000" lon="-2.418781000">
        <ele>665.30</ele>
        <time>2017-02-18T09:10:15Z</time>
      </trkpt>
      <trkpt lat="42.568587000" lon="-2.418766000">
        <ele>665.60</ele>
        <time>2017-02-18T09:10:16Z</time>
      </trkpt>
      <trkpt lat="42.568582000" lon="-2.418750000">
        <ele>665.70</ele>
        <time>2017-02-18T09:10:17Z</time>
      </trkpt>
      <trkpt lat="42.568575000" lon="-2.418735000">
        <ele>665.90</ele>
        <time>2017-02-18T09:10:18Z</time>
      </trkpt>
      <trkpt lat="42.568570000" lon="-2.418721000">
        <ele>666.10</ele>
        <time>2017-02-18T09:10:19Z</time>
      </trkpt>
      <trkpt lat="42.568564000" lon="-2.418706000">
        <ele>666.30</ele>
        <time>2017-02-18T09:10:20Z</time>
      </trkpt>
      <trkpt lat="42.568555000" lon="-2.418692000">
        <ele>666.50</ele>
        <time>2017-02-18T09:10:21Z</time>
      </trkpt>
      <trkpt lat="42.568550000" lon="-2.418677000">
        <ele>666.60</ele>
        <time>2017-02-18T09:10:22Z</time>
      </trkpt>
      <trkpt lat="42.568545000" lon="-2.418660000">
        <ele>666.70</ele>
        <time>2017-02-18T09:10:23Z</time>
      </trkpt>
      <trkpt lat="42.568538000" lon="-2.418645000">
        <ele>667.10</ele>
        <time>2017-02-18T09:10:24Z</time>
      </trkpt>
      <trkpt lat="42.568534000" lon="-2.418630000">
        <ele>667.30</ele>
        <time>2017-02-18T09:10:25Z</time>
      </trkpt>
      <trkpt lat="42.568529000" lon="-2.418613000">
        <ele>667.50</ele>
        <time>2017-02-18T09:10:26Z</time>
      </trkpt>
      <trkpt lat="42.568526000" lon="-2.418596000">
        <ele>667.70</ele>
        <time>2017-02-18T09:10:27Z</time>
      </trkpt>
      <trkpt lat="42.568523000" lon="-2.418579000">
        <ele>667.80</ele>
        <time>2017-02-18T09:10:28Z</time>
      </trkpt>
      <trkpt lat="42.568518000" lon="-2.418563000">
        <ele>667.80</ele>
        <time>2017-02-18T09:10:29Z</time>
      </trkpt>
      <trkpt lat="42.568513000" lon="-2.418547000">
        <ele>667.90</ele>
        <time>2017-02-18T09:10:30Z</time>
      </trkpt>
      <trkpt lat="42.568508000" lon="-2.418528000">
        <ele>667.90</ele>
        <time>2017-02-18T09:10:31Z</time>
      </trkpt>
      <trkpt lat="42.568502000" lon="-2.418509000">
        <ele>668.10</ele>
        <time>2017-02-18T09:10:32Z</time>
      </trkpt>
      <trkpt lat="42.568499000" lon="-2.418492000">
        <ele>668.20</ele>
        <time>2017-02-18T09:10:33Z</time>
      </trkpt>
      <trkpt lat="42.568494000" lon="-2.418474000">
        <ele>668.30</ele>
        <time>2017-02-18T09:10:34Z</time>
      </trkpt>
      <trkpt lat="42.568491000" lon="-2.418454000">
        <ele>668.40</ele>
        <time>2017-02-18T09:10:35Z</time>
      </trkpt>
      <trkpt lat="42.568486000" lon="-2.418435000">
        <ele>668.70</ele>
        <time>2017-02-18T09:10:36Z</time>
      </trkpt>
      <trkpt lat="42.568485000" lon="-2.418416000">
        <ele>669.00</ele>
        <time>2017-02-18T09:10:37Z</time>
      </trkpt>
      <trkpt lat="42.568480000" lon="-2.418399000">
        <ele>669.10</ele>
        <time>2017-02-18T09:10:38Z</time>
      </trkpt>
      <trkpt lat="42.568475000" lon="-2.418381000">
        <ele>669.30</ele>
        <time>2017-02-18T09:10:39Z</time>
      </trkpt>
      <trkpt lat="42.568470000" lon="-2.418364000">
        <ele>669.40</ele>
        <time>2017-02-18T09:10:40Z</time>
      </trkpt>
      <trkpt lat="42.568467000" lon="-2.418347000">
        <ele>669.40</ele>
        <time>2017-02-18T09:10:41Z</time>
      </trkpt>
      <trkpt lat="42.568464000" lon="-2.418327000">
        <ele>669.70</ele>
        <time>2017-02-18T09:10:42Z</time>
      </trkpt>
      <trkpt lat="42.568460000" lon="-2.418311000">
        <ele>669.90</ele>
        <time>2017-02-18T09:10:43Z</time>
      </trkpt>
      <trkpt lat="42.568456000" lon="-2.418295000">
        <ele>670.00</ele>
        <time>2017-02-18T09:10:44Z</time>
      </trkpt>
      <trkpt lat="42.568454000" lon="-2.418275000">
        <ele>670.10</ele>
        <time>2017-02-18T09:10:45Z</time>
      </trkpt>
      <trkpt lat="42.568451000" lon="-2.418255000">
        <ele>670.20</ele>
        <time>2017-02-18T09:10:46Z</time>
      </trkpt>
      <trkpt lat="42.568447000" lon="-2.418236000">
        <ele>670.30</ele>
        <time>2017-02-18T09:10:47Z</time>
      </trkpt>
      <trkpt lat="42.568444000" lon="-2.418217000">
        <ele>670.40</ele>
        <time>2017-02-18T09:10:48Z</time>
      </trkpt>
      <trkpt lat="42.568442000" lon="-2.418199000">
        <ele>670.50</ele>
        <time>2017-02-18T09:10:49Z</time>
      </trkpt>
      <trkpt lat="42.568437000" lon="-2.418184000">
        <ele>670.60</ele>
        <time>2017-02-18T09:10:50Z</time>
      </trkpt>
      <trkpt lat="42.568433000" lon="-2.418167000">
        <ele>670.60</ele>
        <time>2017-02-18T09:10:51Z</time>
      </trkpt>
      <trkpt lat="42.568431000" lon="-2.418152000">
        <ele>670.70</ele>
        <time>2017-02-18T09:10:52Z</time>
      </trkpt>
      <trkpt lat="42.568429000" lon="-2.418136000">
        <ele>670.70</ele>
        <time>2017-02-18T09:10:53Z</time>
      </trkpt>
      <trkpt lat="42.568425000" lon="-2.418121000">
        <ele>671.00</ele>
        <time>2017-02-18T09:10:54Z</time>
      </trkpt>
      <trkpt lat="42.568423000" lon="-2.418106000">
        <ele>671.20</ele>
        <time>2017-02-18T09:10:55Z</time>
      </trkpt>
      <trkpt lat="42.568422000" lon="-2.418091000">
        <ele>671.40</ele>
        <time>2017-02-18T09:10:56Z</time>
      </trkpt>
      <trkpt lat="42.568421000" lon="-2.418076000">
        <ele>671.50</ele>
        <time>2017-02-18T09:10:57Z</time>
      </trkpt>
      <trkpt lat="42.568419000" lon="-2.418060000">
        <ele>671.70</ele>
        <time>2017-02-18T09:10:58Z</time>
      </trkpt>
      <trkpt lat="42.568417000" lon="-2.418044000">
        <ele>671.90</ele>
        <time>2017-02-18T09:10:59Z</time>
      </trkpt>
      <trkpt lat="42.568416000" lon="-2.418029000">
        <ele>672.10</ele>
        <time>2017-02-18T09:11:00Z</time>
      </trkpt>
      <trkpt lat="42.568416000" lon="-2.418013000">
        <ele>672.20</ele>
        <time>2017-02-18T09:11:01Z</time>
      </trkpt>
      <trkpt lat="42.568416000" lon="-2.417987000">
        <ele>672.40</ele>
        <time>2017-02-18T09:11:03Z</time>
      </trkpt>
      <trkpt lat="42.568413000" lon="-2.417975000">
        <ele>672.50</ele>
        <time>2017-02-18T09:11:04Z</time>
      </trkpt>
      <trkpt lat="42.568410000" lon="-2.417964000">
        <ele>672.50</ele>
        <time>2017-02-18T09:11:05Z</time>
      </trkpt>
      <trkpt lat="42.568407000" lon="-2.417949000">
        <ele>672.80</ele>
        <time>2017-02-18T09:11:06Z</time>
      </trkpt>
      <trkpt lat="42.568402000" lon="-2.417936000">
        <ele>672.90</ele>
        <time>2017-02-18T09:11:07Z</time>
      </trkpt>
      <trkpt lat="42.568398000" lon="-2.417920000">
        <ele>673.30</ele>
        <time>2017-02-18T09:11:08Z</time>
      </trkpt>
      <trkpt lat="42.568393000" lon="-2.417905000">
        <ele>673.50</ele>
        <time>2017-02-18T09:11:09Z</time>
      </trkpt>
      <trkpt lat="42.568390000" lon="-2.417890000">
        <ele>673.80</ele>
        <time>2017-02-18T09:11:10Z</time>
      </trkpt>
      <trkpt lat="42.568390000" lon="-2.417874000">
        <ele>674.10</ele>
        <time>2017-02-18T09:11:11Z</time>
      </trkpt>
      <trkpt lat="42.568390000" lon="-2.417860000">
        <ele>674.20</ele>
        <time>2017-02-18T09:11:12Z</time>
      </trkpt>
      <trkpt lat="42.568387000" lon="-2.417848000">
        <ele>674.40</ele>
        <time>2017-02-18T09:11:13Z</time>
      </trkpt>
      <trkpt lat="42.568383000" lon="-2.417837000">
        <ele>674.50</ele>
        <time>2017-02-18T09:11:14Z</time>
      </trkpt>
      <trkpt lat="42.568378000" lon="-2.417823000">
        <ele>674.60</ele>
        <time>2017-02-18T09:11:15Z</time>
      </trkpt>
      <trkpt lat="42.568377000" lon="-2.417808000">
        <ele>674.70</ele>
        <time>2017-02-18T09:11:16Z</time>
      </trkpt>
      <trkpt lat="42.568374000" lon="-2.417793000">
        <ele>674.80</ele>
        <time>2017-02-18T09:11:17Z</time>
      </trkpt>
      <trkpt lat="42.568371000" lon="-2.417777000">
        <ele>674.90</ele>
        <time>2017-02-18T09:11:18Z</time>
      </trkpt>
      <trkpt lat="42.568368000" lon="-2.417763000">
        <ele>674.90</ele>
        <time>2017-02-18T09:11:19Z</time>
      </trkpt>
      <trkpt lat="42.568364000" lon="-2.417747000">
        <ele>675.10</ele>
        <time>2017-02-18T09:11:20Z</time>
      </trkpt>
      <trkpt lat="42.568362000" lon="-2.417734000">
        <ele>675.20</ele>
        <time>2017-02-18T09:11:21Z</time>
      </trkpt>
      <trkpt lat="42.568360000" lon="-2.417718000">
        <ele>675.30</ele>
        <time>2017-02-18T09:11:22Z</time>
      </trkpt>
      <trkpt lat="42.568354000" lon="-2.417704000">
        <ele>675.40</ele>
        <time>2017-02-18T09:11:23Z</time>
      </trkpt>
      <trkpt lat="42.568353000" lon="-2.417689000">
        <ele>675.70</ele>
        <time>2017-02-18T09:11:24Z</time>
      </trkpt>
      <trkpt lat="42.568351000" lon="-2.417673000">
        <ele>676.00</ele>
        <time>2017-02-18T09:11:25Z</time>
      </trkpt>
      <trkpt lat="42.568345000" lon="-2.417662000">
        <ele>676.20</ele>
        <time>2017-02-18T09:11:26Z</time>
      </trkpt>
      <trkpt lat="42.568340000" lon="-2.417652000">
        <ele>676.30</ele>
        <time>2017-02-18T09:11:27Z</time>
      </trkpt>
      <trkpt lat="42.568338000" lon="-2.417637000">
        <ele>676.40</ele>
        <time>2017-02-18T09:11:28Z</time>
      </trkpt>
      <trkpt lat="42.568333000" lon="-2.417623000">
        <ele>676.40</ele>
        <time>2017-02-18T09:11:29Z</time>
      </trkpt>
      <trkpt lat="42.568332000" lon="-2.417608000">
        <ele>676.40</ele>
        <time>2017-02-18T09:11:30Z</time>
      </trkpt>
      <trkpt lat="42.568329000" lon="-2.417596000">
        <ele>676.50</ele>
        <time>2017-02-18T09:11:31Z</time>
      </trkpt>
      <trkpt lat="42.568329000" lon="-2.417579000">
        <ele>676.60</ele>
        <time>2017-02-18T09:11:32Z</time>
      </trkpt>
      <trkpt lat="42.568330000" lon="-2.417563000">
        <ele>676.70</ele>
        <time>2017-02-18T09:11:33Z</time>
      </trkpt>
      <trkpt lat="42.568332000" lon="-2.417545000">
        <ele>676.90</ele>
        <time>2017-02-18T09:11:34Z</time>
      </trkpt>
      <trkpt lat="42.568333000" lon="-2.417529000">
        <ele>677.10</ele>
        <time>2017-02-18T09:11:35Z</time>
      </trkpt>
      <trkpt lat="42.568336000" lon="-2.417505000">
        <ele>677.10</ele>
        <time>2017-02-18T09:11:36Z</time>
      </trkpt>
      <trkpt lat="42.568334000" lon="-2.417491000">
        <ele>677.10</ele>
        <time>2017-02-18T09:11:37Z</time>
      </trkpt>
      <trkpt lat="42.568333000" lon="-2.417478000">
        <ele>677.10</ele>
        <time>2017-02-18T09:11:38Z</time>
      </trkpt>
      <trkpt lat="42.568334000" lon="-2.417461000">
        <ele>677.10</ele>
        <time>2017-02-18T09:11:39Z</time>
      </trkpt>
      <trkpt lat="42.568336000" lon="-2.417449000">
        <ele>677.10</ele>
        <time>2017-02-18T09:11:40Z</time>
      </trkpt>
      <trkpt lat="42.568336000" lon="-2.417439000">
        <ele>677.10</ele>
        <time>2017-02-18T09:11:41Z</time>
      </trkpt>
      <trkpt lat="42.568330000" lon="-2.417429000">
        <ele>677.10</ele>
        <time>2017-02-18T09:11:42Z</time>
      </trkpt>
      <trkpt lat="42.568327000" lon="-2.417417000">
        <ele>677.10</ele>
        <time>2017-02-18T09:11:43Z</time>
      </trkpt>
      <trkpt lat="42.568321000" lon="-2.417410000">
        <ele>677.20</ele>
        <time>2017-02-18T09:11:44Z</time>
      </trkpt>
      <trkpt lat="42.568314000" lon="-2.417410000">
        <ele>677.20</ele>
        <time>2017-02-18T09:11:45Z</time>
      </trkpt>
      <trkpt lat="42.568306000" lon="-2.417409000">
        <ele>677.20</ele>
        <time>2017-02-18T09:11:46Z</time>
      </trkpt>
      <trkpt lat="42.568295000" lon="-2.417409000">
        <ele>677.20</ele>
        <time>2017-02-18T09:11:47Z</time>
      </trkpt>
      <trkpt lat="42.568283000" lon="-2.417409000">
        <ele>677.40</ele>
        <time>2017-02-18T09:11:48Z</time>
      </trkpt>
      <trkpt lat="42.568271000" lon="-2.417407000">
        <ele>677.50</ele>
        <time>2017-02-18T09:11:49Z</time>
      </trkpt>
      <trkpt lat="42.568260000" lon="-2.417406000">
        <ele>677.60</ele>
        <time>2017-02-18T09:11:50Z</time>
      </trkpt>
      <trkpt lat="42.568248000" lon="-2.417402000">
        <ele>677.70</ele>
        <time>2017-02-18T09:11:51Z</time>
      </trkpt>
      <trkpt lat="42.568235000" lon="-2.417397000">
        <ele>677.70</ele>
        <time>2017-02-18T09:11:52Z</time>
      </trkpt>
      <trkpt lat="42.568219000" lon="-2.417392000">
        <ele>677.70</ele>
        <time>2017-02-18T09:11:53Z</time>
      </trkpt>
      <trkpt lat="42.568207000" lon="-2.417381000">
        <ele>677.60</ele>
        <time>2017-02-18T09:11:54Z</time>
      </trkpt>
      <trkpt lat="42.568197000" lon="-2.417376000">
        <ele>677.50</ele>
        <time>2017-02-18T09:11:55Z</time>
      </trkpt>
      <trkpt lat="42.568185000" lon="-2.417377000">
        <ele>677.30</ele>
        <time>2017-02-18T09:11:56Z</time>
      </trkpt>
      <trkpt lat="42.568168000" lon="-2.417388000">
        <ele>677.20</ele>
        <time>2017-02-18T09:11:57Z</time>
      </trkpt>
      <trkpt lat="42.568161000" lon="-2.417392000">
        <ele>677.10</ele>
        <time>2017-02-18T09:11:58Z</time>
      </trkpt>
      <trkpt lat="42.568152000" lon="-2.417392000">
        <ele>677.10</ele>
        <time>2017-02-18T09:11:59Z</time>
      </trkpt>
      <trkpt lat="42.568145000" lon="-2.417392000">
        <ele>677.00</ele>
        <time>2017-02-18T09:12:00Z</time>
      </trkpt>
      <trkpt lat="42.568136000" lon="-2.417400000">
        <ele>677.00</ele>
        <time>2017-02-18T09:12:01Z</time>
      </trkpt>
      <trkpt lat="42.568120000" lon="-2.417394000">
        <ele>677.20</ele>
        <time>2017-02-18T09:12:02Z</time>
      </trkpt>
      <trkpt lat="42.568090000" lon="-2.417390000">
        <ele>677.40</ele>
        <time>2017-02-18T09:12:04Z</time>
      </trkpt>
      <trkpt lat="42.568074000" lon="-2.417387000">
        <ele>677.50</ele>
        <time>2017-02-18T09:12:05Z</time>
      </trkpt>
      <trkpt lat="42.568057000" lon="-2.417384000">
        <ele>677.50</ele>
        <time>2017-02-18T09:12:06Z</time>
      </trkpt>
      <trkpt lat="42.568038000" lon="-2.417379000">
        <ele>677.40</ele>
        <time>2017-02-18T09:12:07Z</time>
      </trkpt>
      <trkpt lat="42.568020000" lon="-2.417379000">
        <ele>677.40</ele>
        <time>2017-02-18T09:12:08Z</time>
      </trkpt>
      <trkpt lat="42.568004000" lon="-2.417377000">
        <ele>677.30</ele>
        <time>2017-02-18T09:12:09Z</time>
      </trkpt>
      <trkpt lat="42.567989000" lon="-2.417374000">
        <ele>677.40</ele>
        <time>2017-02-18T09:12:10Z</time>
      </trkpt>
      <trkpt lat="42.567974000" lon="-2.417375000">
        <ele>677.40</ele>
        <time>2017-02-18T09:12:11Z</time>
      </trkpt>
      <trkpt lat="42.567959000" lon="-2.417377000">
        <ele>677.60</ele>
        <time>2017-02-18T09:12:12Z</time>
      </trkpt>
      <trkpt lat="42.567944000" lon="-2.417375000">
        <ele>677.60</ele>
        <time>2017-02-18T09:12:13Z</time>
      </trkpt>
      <trkpt lat="42.567932000" lon="-2.417378000">
        <ele>677.80</ele>
        <time>2017-02-18T09:12:14Z</time>
      </trkpt>
      <trkpt lat="42.567918000" lon="-2.417382000">
        <ele>677.80</ele>
        <time>2017-02-18T09:12:15Z</time>
      </trkpt>
      <trkpt lat="42.567903000" lon="-2.417389000">
        <ele>678.00</ele>
        <time>2017-02-18T09:12:16Z</time>
      </trkpt>
      <trkpt lat="42.567890000" lon="-2.417390000">
        <ele>678.10</ele>
        <time>2017-02-18T09:12:17Z</time>
      </trkpt>
      <trkpt lat="42.567876000" lon="-2.417389000">
        <ele>678.20</ele>
        <time>2017-02-18T09:12:18Z</time>
      </trkpt>
      <trkpt lat="42.567863000" lon="-2.417391000">
        <ele>678.30</ele>
        <time>2017-02-18T09:12:19Z</time>
      </trkpt>
      <trkpt lat="42.567851000" lon="-2.417390000">
        <ele>678.40</ele>
        <time>2017-02-18T09:12:20Z</time>
      </trkpt>
      <trkpt lat="42.567839000" lon="-2.417386000">
        <ele>678.50</ele>
        <time>2017-02-18T09:12:21Z</time>
      </trkpt>
      <trkpt lat="42.567827000" lon="-2.417380000">
        <ele>678.70</ele>
        <time>2017-02-18T09:12:22Z</time>
      </trkpt>
      <trkpt lat="42.567814000" lon="-2.417382000">
        <ele>678.80</ele>
        <time>2017-02-18T09:12:23Z</time>
      </trkpt>
      <trkpt lat="42.567801000" lon="-2.417379000">
        <ele>678.80</ele>
        <time>2017-02-18T09:12:24Z</time>
      </trkpt>
      <trkpt lat="42.567784000" lon="-2.417379000">
        <ele>678.70</ele>
        <time>2017-02-18T09:12:25Z</time>
      </trkpt>
      <trkpt lat="42.567773000" lon="-2.417379000">
        <ele>678.70</ele>
        <time>2017-02-18T09:12:26Z</time>
      </trkpt>
      <trkpt lat="42.567761000" lon="-2.417382000">
        <ele>678.70</ele>
        <time>2017-02-18T09:12:27Z</time>
      </trkpt>
      <trkpt lat="42.567750000" lon="-2.417380000">
        <ele>678.70</ele>
        <time>2017-02-18T09:12:28Z</time>
      </trkpt>
      <trkpt lat="42.567738000" lon="-2.417383000">
        <ele>678.70</ele>
        <time>2017-02-18T09:12:29Z</time>
      </trkpt>
      <trkpt lat="42.567726000" lon="-2.417388000">
        <ele>678.60</ele>
        <time>2017-02-18T09:12:30Z</time>
      </trkpt>
      <trkpt lat="42.567714000" lon="-2.417392000">
        <ele>678.60</ele>
        <time>2017-02-18T09:12:31Z</time>
      </trkpt>
      <trkpt lat="42.567701000" lon="-2.417398000">
        <ele>678.60</ele>
        <time>2017-02-18T09:12:32Z</time>
      </trkpt>
      <trkpt lat="42.567689000" lon="-2.417399000">
        <ele>678.70</ele>
        <time>2017-02-18T09:12:33Z</time>
      </trkpt>
      <trkpt lat="42.567685000" lon="-2.417399000">
        <ele>678.80</ele>
        <time>2017-02-18T09:12:34Z</time>
      </trkpt>
      <trkpt lat="42.567685000" lon="-2.417403000">
        <ele>678.80</ele>
        <time>2017-02-18T09:12:35Z</time>
      </trkpt>
      <trkpt lat="42.567683000" lon="-2.417406000">
        <ele>679.00</ele>
        <time>2017-02-18T09:12:36Z</time>
      </trkpt>
      <trkpt lat="42.567685000" lon="-2.417401000">
        <ele>679.10</ele>
        <time>2017-02-18T09:12:37Z</time>
      </trkpt>
      <trkpt lat="42.567686000" lon="-2.417398000">
        <ele>679.20</ele>
        <time>2017-02-18T09:12:38Z</time>
      </trkpt>
      <trkpt lat="42.567688000" lon="-2.417397000">
        <ele>679.20</ele>
        <time>2017-02-18T09:12:39Z</time>
      </trkpt>
      <trkpt lat="42.567690000" lon="-2.417402000">
        <ele>679.20</ele>
        <time>2017-02-18T09:12:40Z</time>
      </trkpt>
      <trkpt lat="42.567691000" lon="-2.417412000">
        <ele>679.20</ele>
        <time>2017-02-18T09:12:41Z</time>
      </trkpt>
      <trkpt lat="42.567692000" lon="-2.417419000">
        <ele>679.10</ele>
        <time>2017-02-18T09:12:42Z</time>
      </trkpt>
      <trkpt lat="42.567690000" lon="-2.417423000">
        <ele>679.00</ele>
        <time>2017-02-18T09:12:43Z</time>
      </trkpt>
      <trkpt lat="42.567687000" lon="-2.417415000">
        <ele>679.00</ele>
        <time>2017-02-18T09:12:44Z</time>
      </trkpt>
      <trkpt lat="42.567689000" lon="-2.417413000">
        <ele>679.10</ele>
        <time>2017-02-18T09:12:45Z</time>
      </trkpt>
      <trkpt lat="42.567689000" lon="-2.417410000">
        <ele>679.00</ele>
        <time>2017-02-18T09:12:46Z</time>
      </trkpt>
      <trkpt lat="42.567687000" lon="-2.417414000">
        <ele>679.00</ele>
        <time>2017-02-18T09:12:47Z</time>
      </trkpt>
      <trkpt lat="42.567688000" lon="-2.417419000">
        <ele>679.00</ele>
        <time>2017-02-18T09:12:48Z</time>
      </trkpt>
      <trkpt lat="42.567691000" lon="-2.417416000">
        <ele>679.00</ele>
        <time>2017-02-18T09:12:49Z</time>
      </trkpt>
      <trkpt lat="42.567695000" lon="-2.417412000">
        <ele>679.00</ele>
        <time>2017-02-18T09:12:50Z</time>
      </trkpt>
      <trkpt lat="42.567698000" lon="-2.417407000">
        <ele>678.90</ele>
        <time>2017-02-18T09:12:51Z</time>
      </trkpt>
      <trkpt lat="42.567694000" lon="-2.417405000">
        <ele>678.90</ele>
        <time>2017-02-18T09:12:52Z</time>
      </trkpt>
      <trkpt lat="42.567693000" lon="-2.417403000">
        <ele>678.90</ele>
        <time>2017-02-18T09:12:53Z</time>
      </trkpt>
      <trkpt lat="42.567694000" lon="-2.417403000">
        <ele>679.00</ele>
        <time>2017-02-18T09:12:54Z</time>
      </trkpt>
      <trkpt lat="42.567695000" lon="-2.417404000">
        <ele>679.00</ele>
        <time>2017-02-18T09:12:55Z</time>
      </trkpt>
      <trkpt lat="42.567693000" lon="-2.417405000">
        <ele>679.20</ele>
        <time>2017-02-18T09:12:56Z</time>
      </trkpt>
      <trkpt lat="42.567692000" lon="-2.417407000">
        <ele>679.30</ele>
        <time>2017-02-18T09:12:57Z</time>
      </trkpt>
      <trkpt lat="42.567692000" lon="-2.417410000">
        <ele>679.40</ele>
        <time>2017-02-18T09:12:58Z</time>
      </trkpt>
      <trkpt lat="42.567691000" lon="-2.417411000">
        <ele>679.50</ele>
        <time>2017-02-18T09:12:59Z</time>
      </trkpt>
      <trkpt lat="42.567692000" lon="-2.417413000">
        <ele>679.40</ele>
        <time>2017-02-18T09:13:00Z</time>
      </trkpt>
      <trkpt lat="42.567693000" lon="-2.417414000">
        <ele>679.40</ele>
        <time>2017-02-18T09:13:01Z</time>
      </trkpt>
      <trkpt lat="42.567693000" lon="-2.417415000">
        <ele>679.30</ele>
        <time>2017-02-18T09:13:02Z</time>
      </trkpt>
      <trkpt lat="42.567693000" lon="-2.417418000">
        <ele>679.30</ele>
        <time>2017-02-18T09:13:03Z</time>
      </trkpt>
      <trkpt lat="42.567692000" lon="-2.417423000">
        <ele>679.20</ele>
        <time>2017-02-18T09:13:05Z</time>
      </trkpt>
      <trkpt lat="42.567690000" lon="-2.417426000">
        <ele>679.20</ele>
        <time>2017-02-18T09:13:06Z</time>
      </trkpt>
      <trkpt lat="42.567689000" lon="-2.417424000">
        <ele>679.20</ele>
        <time>2017-02-18T09:13:07Z</time>
      </trkpt>
      <trkpt lat="42.567688000" lon="-2.417424000">
        <ele>679.10</ele>
        <time>2017-02-18T09:13:08Z</time>
      </trkpt>
      <trkpt lat="42.567687000" lon="-2.417426000">
        <ele>679.10</ele>
        <time>2017-02-18T09:13:09Z</time>
      </trkpt>
      <trkpt lat="42.567687000" lon="-2.417424000">
        <ele>679.00</ele>
        <time>2017-02-18T09:13:10Z</time>
      </trkpt>
      <trkpt lat="42.567684000" lon="-2.417424000">
        <ele>679.00</ele>
        <time>2017-02-18T09:13:11Z</time>
      </trkpt>
      <trkpt lat="42.567683000" lon="-2.417424000">
        <ele>679.00</ele>
        <time>2017-02-18T09:13:12Z</time>
      </trkpt>
      <trkpt lat="42.567681000" lon="-2.417425000">
        <ele>679.00</ele>
        <time>2017-02-18T09:13:13Z</time>
      </trkpt>
      <trkpt lat="42.567679000" lon="-2.417424000">
        <ele>679.00</ele>
        <time>2017-02-18T09:13:14Z</time>
      </trkpt>
      <trkpt lat="42.567676000" lon="-2.417420000">
        <ele>678.90</ele>
        <time>2017-02-18T09:13:15Z</time>
      </trkpt>
      <trkpt lat="42.567674000" lon="-2.417417000">
        <ele>678.90</ele>
        <time>2017-02-18T09:13:16Z</time>
      </trkpt>
      <trkpt lat="42.567673000" lon="-2.417418000">
        <ele>678.80</ele>
        <time>2017-02-18T09:13:17Z</time>
      </trkpt>
      <trkpt lat="42.567671000" lon="-2.417416000">
        <ele>678.90</ele>
        <time>2017-02-18T09:13:18Z</time>
      </trkpt>
      <trkpt lat="42.567669000" lon="-2.417412000">
        <ele>679.00</ele>
        <time>2017-02-18T09:13:19Z</time>
      </trkpt>
      <trkpt lat="42.567666000" lon="-2.417406000">
        <ele>679.30</ele>
        <time>2017-02-18T09:13:20Z</time>
      </trkpt>
      <trkpt lat="42.567662000" lon="-2.417405000">
        <ele>679.50</ele>
        <time>2017-02-18T09:13:21Z</time>
      </trkpt>
      <trkpt lat="42.567662000" lon="-2.417402000">
        <ele>679.70</ele>
        <time>2017-02-18T09:13:22Z</time>
      </trkpt>
      <trkpt lat="42.567662000" lon="-2.417398000">
        <ele>679.80</ele>
        <time>2017-02-18T09:13:23Z</time>
      </trkpt>
      <trkpt lat="42.567662000" lon="-2.417396000">
        <ele>679.60</ele>
        <time>2017-02-18T09:13:24Z</time>
      </trkpt>
      <trkpt lat="42.567664000" lon="-2.417393000">
        <ele>679.40</ele>
        <time>2017-02-18T09:13:25Z</time>
      </trkpt>
      <trkpt lat="42.567667000" lon="-2.417390000">
        <ele>679.30</ele>
        <time>2017-02-18T09:13:26Z</time>
      </trkpt>
      <trkpt lat="42.567667000" lon="-2.417388000">
        <ele>679.20</ele>
        <time>2017-02-18T09:13:27Z</time>
      </trkpt>
      <trkpt lat="42.567667000" lon="-2.417385000">
        <ele>679.10</ele>
        <time>2017-02-18T09:13:28Z</time>
      </trkpt>
      <trkpt lat="42.567666000" lon="-2.417385000">
        <ele>679.00</ele>
        <time>2017-02-18T09:13:29Z</time>
      </trkpt>
      <trkpt lat="42.567665000" lon="-2.417384000">
        <ele>679.00</ele>
        <time>2017-02-18T09:13:30Z</time>
      </trkpt>
      <trkpt lat="42.567666000" lon="-2.417381000">
        <ele>679.00</ele>
        <time>2017-02-18T09:13:31Z</time>
      </trkpt>
      <trkpt lat="42.567667000" lon="-2.417382000">
        <ele>679.10</ele>
        <time>2017-02-18T09:13:32Z</time>
      </trkpt>
      <trkpt lat="42.567667000" lon="-2.417382000">
        <ele>679.10</ele>
        <time>2017-02-18T09:13:33Z</time>
      </trkpt>
      <trkpt lat="42.567669000" lon="-2.417380000">
        <ele>679.00</ele>
        <time>2017-02-18T09:13:34Z</time>
      </trkpt>
      <trkpt lat="42.567668000" lon="-2.417382000">
        <ele>679.00</ele>
        <time>2017-02-18T09:13:35Z</time>
      </trkpt>
      <trkpt lat="42.567669000" lon="-2.417381000">
        <ele>678.90</ele>
        <time>2017-02-18T09:13:36Z</time>
      </trkpt>
      <trkpt lat="42.567669000" lon="-2.417381000">
        <ele>678.90</ele>
        <time>2017-02-18T09:13:37Z</time>
      </trkpt>
      <trkpt lat="42.567670000" lon="-2.417383000">
        <ele>679.00</ele>
        <time>2017-02-18T09:13:38Z</time>
      </trkpt>
      <trkpt lat="42.567673000" lon="-2.417384000">
        <ele>679.00</ele>
        <time>2017-02-18T09:13:39Z</time>
      </trkpt>
      <trkpt lat="42.567675000" lon="-2.417387000">
        <ele>679.10</ele>
        <time>2017-02-18T09:13:40Z</time>
      </trkpt>
      <trkpt lat="42.567677000" lon="-2.417389000">
        <ele>679.20</ele>
        <time>2017-02-18T09:13:41Z</time>
      </trkpt>
      <trkpt lat="42.567679000" lon="-2.417391000">
        <ele>679.20</ele>
        <time>2017-02-18T09:13:42Z</time>
      </trkpt>
      <trkpt lat="42.567680000" lon="-2.417391000">
        <ele>679.20</ele>
        <time>2017-02-18T09:13:43Z</time>
      </trkpt>
      <trkpt lat="42.567682000" lon="-2.417392000">
        <ele>679.30</ele>
        <time>2017-02-18T09:13:44Z</time>
      </trkpt>
      <trkpt lat="42.567681000" lon="-2.417395000">
        <ele>679.30</ele>
        <time>2017-02-18T09:13:45Z</time>
      </trkpt>
      <trkpt lat="42.567682000" lon="-2.417398000">
        <ele>679.30</ele>
        <time>2017-02-18T09:13:46Z</time>
      </trkpt>
      <trkpt lat="42.567684000" lon="-2.417400000">
        <ele>679.30</ele>
        <time>2017-02-18T09:13:47Z</time>
      </trkpt>
      <trkpt lat="42.567684000" lon="-2.417402000">
        <ele>679.40</ele>
        <time>2017-02-18T09:13:48Z</time>
      </trkpt>
      <trkpt lat="42.567684000" lon="-2.417404000">
        <ele>679.50</ele>
        <time>2017-02-18T09:13:49Z</time>
      </trkpt>
      <trkpt lat="42.567682000" lon="-2.417406000">
        <ele>679.50</ele>
        <time>2017-02-18T09:13:50Z</time>
      </trkpt>
      <trkpt lat="42.567683000" lon="-2.417407000">
        <ele>679.50</ele>
        <time>2017-02-18T09:13:51Z</time>
      </trkpt>
      <trkpt lat="42.567684000" lon="-2.417410000">
        <ele>679.60</ele>
        <time>2017-02-18T09:13:52Z</time>
      </trkpt>
      <trkpt lat="42.567685000" lon="-2.417413000">
        <ele>679.60</ele>
        <time>2017-02-18T09:13:53Z</time>
      </trkpt>
      <trkpt lat="42.567684000" lon="-2.417415000">
        <ele>679.50</ele>
        <time>2017-02-18T09:13:54Z</time>
      </trkpt>
      <trkpt lat="42.567686000" lon="-2.417415000">
        <ele>679.50</ele>
        <time>2017-02-18T09:13:55Z</time>
      </trkpt>
      <trkpt lat="42.567685000" lon="-2.417416000">
        <ele>679.60</ele>
        <time>2017-02-18T09:13:56Z</time>
      </trkpt>
      <trkpt lat="42.567684000" lon="-2.417416000">
        <ele>679.60</ele>
        <time>2017-02-18T09:13:57Z</time>
      </trkpt>
      <trkpt lat="42.567684000" lon="-2.417418000">
        <ele>679.60</ele>
        <time>2017-02-18T09:13:58Z</time>
      </trkpt>
      <trkpt lat="42.567683000" lon="-2.417419000">
        <ele>679.50</ele>
        <time>2017-02-18T09:13:59Z</time>
      </trkpt>
      <trkpt lat="42.567684000" lon="-2.417421000">
        <ele>679.60</ele>
        <time>2017-02-18T09:14:00Z</time>
      </trkpt>
      <trkpt lat="42.567683000" lon="-2.417422000">
        <ele>679.60</ele>
        <time>2017-02-18T09:14:01Z</time>
      </trkpt>
      <trkpt lat="42.567685000" lon="-2.417423000">
        <ele>679.60</ele>
        <time>2017-02-18T09:14:02Z</time>
      </trkpt>
      <trkpt lat="42.567685000" lon="-2.417424000">
        <ele>679.60</ele>
        <time>2017-02-18T09:14:03Z</time>
      </trkpt>
      <trkpt lat="42.567683000" lon="-2.417425000">
        <ele>679.60</ele>
        <time>2017-02-18T09:14:04Z</time>
      </trkpt>
      <trkpt lat="42.567679000" lon="-2.417425000">
        <ele>679.60</ele>
        <time>2017-02-18T09:14:06Z</time>
      </trkpt>
      <trkpt lat="42.567677000" lon="-2.417424000">
        <ele>679.60</ele>
        <time>2017-02-18T09:14:07Z</time>
      </trkpt>
      <trkpt lat="42.567674000" lon="-2.417427000">
        <ele>679.60</ele>
        <time>2017-02-18T09:14:08Z</time>
      </trkpt>
      <trkpt lat="42.567672000" lon="-2.417430000">
        <ele>679.50</ele>
        <time>2017-02-18T09:14:09Z</time>
      </trkpt>
      <trkpt lat="42.567671000" lon="-2.417434000">
        <ele>679.50</ele>
        <time>2017-02-18T09:14:10Z</time>
      </trkpt>
      <trkpt lat="42.567669000" lon="-2.417437000">
        <ele>679.50</ele>
        <time>2017-02-18T09:14:11Z</time>
      </trkpt>
      <trkpt lat="42.567669000" lon="-2.417440000">
        <ele>679.50</ele>
        <time>2017-02-18T09:14:12Z</time>
      </trkpt>
      <trkpt lat="42.567669000" lon="-2.417442000">
        <ele>679.50</ele>
        <time>2017-02-18T09:14:13Z</time>
      </trkpt>
      <trkpt lat="42.567670000" lon="-2.417445000">
        <ele>679.50</ele>
        <time>2017-02-18T09:14:14Z</time>
      </trkpt>
      <trkpt lat="42.567669000" lon="-2.417444000">
        <ele>679.50</ele>
        <time>2017-02-18T09:14:15Z</time>
      </trkpt>
      <trkpt lat="42.567669000" lon="-2.417444000">
        <ele>679.50</ele>
        <time>2017-02-18T09:14:16Z</time>
      </trkpt>
      <trkpt lat="42.567671000" lon="-2.417446000">
        <ele>679.50</ele>
        <time>2017-02-18T09:14:17Z</time>
      </trkpt>
      <trkpt lat="42.567683000" lon="-2.417445000">
        <ele>679.60</ele>
        <time>2017-02-18T09:14:18Z</time>
      </trkpt>
      <trkpt lat="42.567685000" lon="-2.417436000">
        <ele>679.70</ele>
        <time>2017-02-18T09:14:19Z</time>
      </trkpt>
      <trkpt lat="42.567687000" lon="-2.417429000">
        <ele>679.70</ele>
        <time>2017-02-18T09:14:20Z</time>
      </trkpt>
      <trkpt lat="42.567686000" lon="-2.417420000">
        <ele>679.70</ele>
        <time>2017-02-18T09:14:21Z</time>
      </trkpt>
      <trkpt lat="42.567687000" lon="-2.417413000">
        <ele>679.70</ele>
        <time>2017-02-18T09:14:22Z</time>
      </trkpt>
      <trkpt lat="42.567688000" lon="-2.417409000">
        <ele>679.80</ele>
        <time>2017-02-18T09:14:23Z</time>
      </trkpt>
      <trkpt lat="42.567683000" lon="-2.417408000">
        <ele>679.80</ele>
        <time>2017-02-18T09:14:24Z</time>
      </trkpt>
      <trkpt lat="42.567672000" lon="-2.417410000">
        <ele>679.80</ele>
        <time>2017-02-18T09:14:25Z</time>
      </trkpt>
      <trkpt lat="42.567660000" lon="-2.417410000">
        <ele>679.80</ele>
        <time>2017-02-18T09:14:26Z</time>
      </trkpt>
      <trkpt lat="42.567638000" lon="-2.417404000">
        <ele>679.90</ele>
        <time>2017-02-18T09:14:27Z</time>
      </trkpt>
      <trkpt lat="42.567612000" lon="-2.417403000">
        <ele>680.10</ele>
        <time>2017-02-18T09:14:28Z</time>
      </trkpt>
      <trkpt lat="42.567585000" lon="-2.417412000">
        <ele>680.20</ele>
        <time>2017-02-18T09:14:29Z</time>
      </trkpt>
      <trkpt lat="42.567560000" lon="-2.417424000">
        <ele>680.40</ele>
        <time>2017-02-18T09:14:30Z</time>
      </trkpt>
      <trkpt lat="42.567537000" lon="-2.417437000">
        <ele>680.50</ele>
        <time>2017-02-18T09:14:31Z</time>
      </trkpt>
      <trkpt lat="42.567512000" lon="-2.417444000">
        <ele>680.80</ele>
        <time>2017-02-18T09:14:32Z</time>
      </trkpt>
      <trkpt lat="42.567487000" lon="-2.417452000">
        <ele>681.10</ele>
        <time>2017-02-18T09:14:33Z</time>
      </trkpt>
      <trkpt lat="42.567463000" lon="-2.417465000">
        <ele>681.30</ele>
        <time>2017-02-18T09:14:34Z</time>
      </trkpt>
      <trkpt lat="42.567439000" lon="-2.417475000">
        <ele>681.40</ele>
        <time>2017-02-18T09:14:35Z</time>
      </trkpt>
      <trkpt lat="42.567415000" lon="-2.417486000">
        <ele>681.50</ele>
        <time>2017-02-18T09:14:36Z</time>
      </trkpt>
      <trkpt lat="42.567395000" lon="-2.417493000">
        <ele>681.60</ele>
        <time>2017-02-18T09:14:37Z</time>
      </trkpt>
      <trkpt lat="42.567373000" lon="-2.417498000">
        <ele>681.90</ele>
        <time>2017-02-18T09:14:38Z</time>
      </trkpt>
      <trkpt lat="42.567350000" lon="-2.417501000">
        <ele>682.20</ele>
        <time>2017-02-18T09:14:39Z</time>
      </trkpt>
      <trkpt lat="42.567328000" lon="-2.417503000">
        <ele>682.70</ele>
        <time>2017-02-18T09:14:40Z</time>
      </trkpt>
      <trkpt lat="42.567309000" lon="-2.417504000">
        <ele>683.10</ele>
        <time>2017-02-18T09:14:41Z</time>
      </trkpt>
      <trkpt lat="42.567292000" lon="-2.417495000">
        <ele>683.50</ele>
        <time>2017-02-18T09:14:42Z</time>
      </trkpt>
      <trkpt lat="42.567276000" lon="-2.417479000">
        <ele>683.80</ele>
        <time>2017-02-18T09:14:43Z</time>
      </trkpt>
      <trkpt lat="42.567265000" lon="-2.417459000">
        <ele>684.00</ele>
        <time>2017-02-18T09:14:44Z</time>
      </trkpt>
      <trkpt lat="42.567256000" lon="-2.417438000">
        <ele>684.30</ele>
        <time>2017-02-18T09:14:45Z</time>
      </trkpt>
      <trkpt lat="42.567246000" lon="-2.417418000">
        <ele>684.50</ele>
        <time>2017-02-18T09:14:46Z</time>
      </trkpt>
      <trkpt lat="42.567237000" lon="-2.417395000">
        <ele>684.70</ele>
        <time>2017-02-18T09:14:47Z</time>
      </trkpt>
      <trkpt lat="42.567227000" lon="-2.417378000">
        <ele>685.20</ele>
        <time>2017-02-18T09:14:48Z</time>
      </trkpt>
      <trkpt lat="42.567217000" lon="-2.417370000">
        <ele>685.60</ele>
        <time>2017-02-18T09:14:49Z</time>
      </trkpt>
      <trkpt lat="42.567210000" lon="-2.417361000">
        <ele>685.90</ele>
        <time>2017-02-18T09:14:50Z</time>
      </trkpt>
      <trkpt lat="42.567208000" lon="-2.417359000">
        <ele>686.10</ele>
        <time>2017-02-18T09:14:51Z</time>
      </trkpt>
      <trkpt lat="42.567206000" lon="-2.417363000">
        <ele>686.30</ele>
        <time>2017-02-18T09:14:52Z</time>
      </trkpt>
      <trkpt lat="42.567204000" lon="-2.417365000">
        <ele>686.40</ele>
        <time>2017-02-18T09:14:53Z</time>
      </trkpt>
      <trkpt lat="42.567205000" lon="-2.417370000">
        <ele>686.60</ele>
        <time>2017-02-18T09:14:54Z</time>
      </trkpt>
      <trkpt lat="42.567208000" lon="-2.417370000">
        <ele>686.80</ele>
        <time>2017-02-18T09:14:55Z</time>
      </trkpt>
      <trkpt lat="42.567214000" lon="-2.417369000">
        <ele>686.90</ele>
        <time>2017-02-18T09:14:56Z</time>
      </trkpt>
      <trkpt lat="42.567216000" lon="-2.417369000">
        <ele>687.00</ele>
        <time>2017-02-18T09:14:57Z</time>
      </trkpt>
      <trkpt lat="42.567218000" lon="-2.417369000">
        <ele>687.00</ele>
        <time>2017-02-18T09:14:58Z</time>
      </trkpt>
      <trkpt lat="42.567217000" lon="-2.417369000">
        <ele>687.00</ele>
        <time>2017-02-18T09:14:59Z</time>
      </trkpt>
      <trkpt lat="42.567217000" lon="-2.417368000">
        <ele>687.00</ele>
        <time>2017-02-18T09:15:00Z</time>
      </trkpt>
      <trkpt lat="42.567216000" lon="-2.417369000">
        <ele>687.00</ele>
        <time>2017-02-18T09:15:01Z</time>
      </trkpt>
      <trkpt lat="42.567217000" lon="-2.417370000">
        <ele>687.00</ele>
        <time>2017-02-18T09:15:02Z</time>
      </trkpt>
      <trkpt lat="42.567221000" lon="-2.417372000">
        <ele>686.90</ele>
        <time>2017-02-18T09:15:03Z</time>
      </trkpt>
      <trkpt lat="42.567219000" lon="-2.417369000">
        <ele>687.10</ele>
        <time>2017-02-18T09:15:04Z</time>
      </trkpt>
      <trkpt lat="42.567216000" lon="-2.417371000">
        <ele>687.20</ele>
        <time>2017-02-18T09:15:05Z</time>
      </trkpt>
      <trkpt lat="42.567212000" lon="-2.417374000">
        <ele>687.10</ele>
        <time>2017-02-18T09:15:07Z</time>
      </trkpt>
      <trkpt lat="42.567207000" lon="-2.417375000">
        <ele>687.20</ele>
        <time>2017-02-18T09:15:08Z</time>
      </trkpt>
      <trkpt lat="42.567209000" lon="-2.417373000">
        <ele>687.20</ele>
        <time>2017-02-18T09:15:09Z</time>
      </trkpt>
      <trkpt lat="42.567206000" lon="-2.417370000">
        <ele>687.20</ele>
        <time>2017-02-18T09:15:10Z</time>
      </trkpt>
      <trkpt lat="42.567204000" lon="-2.417368000">
        <ele>687.10</ele>
        <time>2017-02-18T09:15:11Z</time>
      </trkpt>
      <trkpt lat="42.567205000" lon="-2.417366000">
        <ele>687.20</ele>
        <time>2017-02-18T09:15:12Z</time>
      </trkpt>
      <trkpt lat="42.567200000" lon="-2.417361000">
        <ele>687.20</ele>
        <time>2017-02-18T09:15:13Z</time>
      </trkpt>
      <trkpt lat="42.567195000" lon="-2.417351000">
        <ele>687.30</ele>
        <time>2017-02-18T09:15:14Z</time>
      </trkpt>
      <trkpt lat="42.567190000" lon="-2.417345000">
        <ele>687.30</ele>
        <time>2017-02-18T09:15:15Z</time>
      </trkpt>
      <trkpt lat="42.567185000" lon="-2.417341000">
        <ele>687.40</ele>
        <time>2017-02-18T09:15:16Z</time>
      </trkpt>
      <trkpt lat="42.567181000" lon="-2.417342000">
        <ele>687.40</ele>
        <time>2017-02-18T09:15:17Z</time>
      </trkpt>
      <trkpt lat="42.567177000" lon="-2.417343000">
        <ele>687.30</ele>
        <time>2017-02-18T09:15:18Z</time>
      </trkpt>
      <trkpt lat="42.567175000" lon="-2.417345000">
        <ele>687.20</ele>
        <time>2017-02-18T09:15:19Z</time>
      </trkpt>
      <trkpt lat="42.567171000" lon="-2.417349000">
        <ele>687.10</ele>
        <time>2017-02-18T09:15:20Z</time>
      </trkpt>
      <trkpt lat="42.567170000" lon="-2.417352000">
        <ele>687.10</ele>
        <time>2017-02-18T09:15:21Z</time>
      </trkpt>
      <trkpt lat="42.567170000" lon="-2.417353000">
        <ele>687.00</ele>
        <time>2017-02-18T09:15:22Z</time>
      </trkpt>
      <trkpt lat="42.567174000" lon="-2.417353000">
        <ele>687.00</ele>
        <time>2017-02-18T09:15:23Z</time>
      </trkpt>
      <trkpt lat="42.567174000" lon="-2.417354000">
        <ele>686.80</ele>
        <time>2017-02-18T09:15:24Z</time>
      </trkpt>
      <trkpt lat="42.567172000" lon="-2.417353000">
        <ele>686.60</ele>
        <time>2017-02-18T09:15:25Z</time>
      </trkpt>
      <trkpt lat="42.567169000" lon="-2.417354000">
        <ele>686.50</ele>
        <time>2017-02-18T09:15:26Z</time>
      </trkpt>
      <trkpt lat="42.567167000" lon="-2.417352000">
        <ele>686.40</ele>
        <time>2017-02-18T09:15:27Z</time>
      </trkpt>
      <trkpt lat="42.567170000" lon="-2.417348000">
        <ele>686.50</ele>
        <time>2017-02-18T09:15:28Z</time>
      </trkpt>
      <trkpt lat="42.567169000" lon="-2.417348000">
        <ele>686.50</ele>
        <time>2017-02-18T09:15:29Z</time>
      </trkpt>
      <trkpt lat="42.567174000" lon="-2.417350000">
        <ele>686.60</ele>
        <time>2017-02-18T09:15:30Z</time>
      </trkpt>
      <trkpt lat="42.567171000" lon="-2.417350000">
        <ele>686.60</ele>
        <time>2017-02-18T09:15:31Z</time>
      </trkpt>
      <trkpt lat="42.567170000" lon="-2.417351000">
        <ele>686.70</ele>
        <time>2017-02-18T09:15:32Z</time>
      </trkpt>
      <trkpt lat="42.567168000" lon="-2.417352000">
        <ele>686.80</ele>
        <time>2017-02-18T09:15:33Z</time>
      </trkpt>
      <trkpt lat="42.567167000" lon="-2.417349000">
        <ele>686.80</ele>
        <time>2017-02-18T09:15:34Z</time>
      </trkpt>
      <trkpt lat="42.567166000" lon="-2.417346000">
        <ele>686.90</ele>
        <time>2017-02-18T09:15:35Z</time>
      </trkpt>
      <trkpt lat="42.567164000" lon="-2.417344000">
        <ele>687.00</ele>
        <time>2017-02-18T09:15:36Z</time>
      </trkpt>
      <trkpt lat="42.567164000" lon="-2.417343000">
        <ele>687.00</ele>
        <time>2017-02-18T09:15:37Z</time>
      </trkpt>
      <trkpt lat="42.567163000" lon="-2.417342000">
        <ele>686.90</ele>
        <time>2017-02-18T09:15:38Z</time>
      </trkpt>
      <trkpt lat="42.567160000" lon="-2.417338000">
        <ele>686.80</ele>
        <time>2017-02-18T09:15:39Z</time>
      </trkpt>
      <trkpt lat="42.567159000" lon="-2.417337000">
        <ele>686.80</ele>
        <time>2017-02-18T09:15:40Z</time>
      </trkpt>
      <trkpt lat="42.567157000" lon="-2.417338000">
        <ele>686.70</ele>
        <time>2017-02-18T09:15:41Z</time>
      </trkpt>
      <trkpt lat="42.567155000" lon="-2.417340000">
        <ele>686.80</ele>
        <time>2017-02-18T09:15:42Z</time>
      </trkpt>
      <trkpt lat="42.567154000" lon="-2.417340000">
        <ele>686.80</ele>
        <time>2017-02-18T09:15:43Z</time>
      </trkpt>
      <trkpt lat="42.567154000" lon="-2.417340000">
        <ele>686.80</ele>
        <time>2017-02-18T09:15:44Z</time>
      </trkpt>
      <trkpt lat="42.567155000" lon="-2.417340000">
        <ele>686.80</ele>
        <time>2017-02-18T09:15:45Z</time>
      </trkpt>
      <trkpt lat="42.567154000" lon="-2.417340000">
        <ele>686.80</ele>
        <time>2017-02-18T09:15:46Z</time>
      </trkpt>
      <trkpt lat="42.567156000" lon="-2.417347000">
        <ele>686.80</ele>
        <time>2017-02-18T09:15:47Z</time>
      </trkpt>
      <trkpt lat="42.567157000" lon="-2.417352000">
        <ele>686.80</ele>
        <time>2017-02-18T09:15:48Z</time>
      </trkpt>
      <trkpt lat="42.567158000" lon="-2.417355000">
        <ele>686.80</ele>
        <time>2017-02-18T09:15:49Z</time>
      </trkpt>
      <trkpt lat="42.567158000" lon="-2.417356000">
        <ele>686.80</ele>
        <time>2017-02-18T09:15:50Z</time>
      </trkpt>
      <trkpt lat="42.567160000" lon="-2.417359000">
        <ele>686.80</ele>
        <time>2017-02-18T09:15:51Z</time>
      </trkpt>
      <trkpt lat="42.567164000" lon="-2.417360000">
        <ele>686.90</ele>
        <time>2017-02-18T09:15:52Z</time>
      </trkpt>
      <trkpt lat="42.567165000" lon="-2.417360000">
        <ele>686.90</ele>
        <time>2017-02-18T09:15:53Z</time>
      </trkpt>
      <trkpt lat="42.567165000" lon="-2.417357000">
        <ele>686.90</ele>
        <time>2017-02-18T09:15:54Z</time>
      </trkpt>
      <trkpt lat="42.567168000" lon="-2.417357000">
        <ele>686.90</ele>
        <time>2017-02-18T09:15:55Z</time>
      </trkpt>
      <trkpt lat="42.567170000" lon="-2.417357000">
        <ele>686.90</ele>
        <time>2017-02-18T09:15:56Z</time>
      </trkpt>
      <trkpt lat="42.567171000" lon="-2.417357000">
        <ele>686.90</ele>
        <time>2017-02-18T09:15:57Z</time>
      </trkpt>
      <trkpt lat="42.567170000" lon="-2.417357000">
        <ele>686.90</ele>
        <time>2017-02-18T09:15:58Z</time>
      </trkpt>
      <trkpt lat="42.567173000" lon="-2.417357000">
        <ele>686.90</ele>
        <time>2017-02-18T09:15:59Z</time>
      </trkpt>
      <trkpt lat="42.567175000" lon="-2.417358000">
        <ele>686.90</ele>
        <time>2017-02-18T09:16:00Z</time>
      </trkpt>
      <trkpt lat="42.567177000" lon="-2.417359000">
        <ele>686.90</ele>
        <time>2017-02-18T09:16:01Z</time>
      </trkpt>
      <trkpt lat="42.567178000" lon="-2.417358000">
        <ele>686.90</ele>
        <time>2017-02-18T09:16:02Z</time>
      </trkpt>
      <trkpt lat="42.567177000" lon="-2.417355000">
        <ele>686.90</ele>
        <time>2017-02-18T09:16:03Z</time>
      </trkpt>
      <trkpt lat="42.567175000" lon="-2.417355000">
        <ele>686.90</ele>
        <time>2017-02-18T09:16:04Z</time>
      </trkpt>
      <trkpt lat="42.567175000" lon="-2.417353000">
        <ele>686.90</ele>
        <time>2017-02-18T09:16:05Z</time>
      </trkpt>
      <trkpt lat="42.567176000" lon="-2.417352000">
        <ele>687.00</ele>
        <time>2017-02-18T09:16:06Z</time>
      </trkpt>
      <trkpt lat="42.567175000" lon="-2.417344000">
        <ele>687.00</ele>
        <time>2017-02-18T09:16:08Z</time>
      </trkpt>
      <trkpt lat="42.567177000" lon="-2.417342000">
        <ele>686.90</ele>
        <time>2017-02-18T09:16:09Z</time>
      </trkpt>
      <trkpt lat="42.567182000" lon="-2.417344000">
        <ele>686.90</ele>
        <time>2017-02-18T09:16:10Z</time>
      </trkpt>
      <trkpt lat="42.567184000" lon="-2.417343000">
        <ele>686.90</ele>
        <time>2017-02-18T09:16:11Z</time>
      </trkpt>
      <trkpt lat="42.567184000" lon="-2.417341000">
        <ele>686.80</ele>
        <time>2017-02-18T09:16:12Z</time>
      </trkpt>
      <trkpt lat="42.567186000" lon="-2.417340000">
        <ele>686.80</ele>
        <time>2017-02-18T09:16:13Z</time>
      </trkpt>
      <trkpt lat="42.567186000" lon="-2.417343000">
        <ele>686.80</ele>
        <time>2017-02-18T09:16:14Z</time>
      </trkpt>
      <trkpt lat="42.567190000" lon="-2.417338000">
        <ele>686.80</ele>
        <time>2017-02-18T09:16:15Z</time>
      </trkpt>
      <trkpt lat="42.567191000" lon="-2.417335000">
        <ele>686.80</ele>
        <time>2017-02-18T09:16:16Z</time>
      </trkpt>
      <trkpt lat="42.567192000" lon="-2.417332000">
        <ele>686.80</ele>
        <time>2017-02-18T09:16:17Z</time>
      </trkpt>
      <trkpt lat="42.567195000" lon="-2.417331000">
        <ele>686.80</ele>
        <time>2017-02-18T09:16:18Z</time>
      </trkpt>
      <trkpt lat="42.567197000" lon="-2.417328000">
        <ele>686.80</ele>
        <time>2017-02-18T09:16:19Z</time>
      </trkpt>
      <trkpt lat="42.567199000" lon="-2.417325000">
        <ele>686.80</ele>
        <time>2017-02-18T09:16:20Z</time>
      </trkpt>
      <trkpt lat="42.567199000" lon="-2.417322000">
        <ele>686.80</ele>
        <time>2017-02-18T09:16:21Z</time>
      </trkpt>
      <trkpt lat="42.567197000" lon="-2.417314000">
        <ele>686.80</ele>
        <time>2017-02-18T09:16:22Z</time>
      </trkpt>
      <trkpt lat="42.567188000" lon="-2.417313000">
        <ele>686.80</ele>
        <time>2017-02-18T09:16:23Z</time>
      </trkpt>
      <trkpt lat="42.567190000" lon="-2.417318000">
        <ele>686.80</ele>
        <time>2017-02-18T09:16:24Z</time>
      </trkpt>
      <trkpt lat="42.567195000" lon="-2.417323000">
        <ele>686.90</ele>
        <time>2017-02-18T09:16:25Z</time>
      </trkpt>
      <trkpt lat="42.567199000" lon="-2.417322000">
        <ele>687.00</ele>
        <time>2017-02-18T09:16:26Z</time>
      </trkpt>
      <trkpt lat="42.567202000" lon="-2.417325000">
        <ele>687.00</ele>
        <time>2017-02-18T09:16:27Z</time>
      </trkpt>
      <trkpt lat="42.567202000" lon="-2.417327000">
        <ele>687.10</ele>
        <time>2017-02-18T09:16:28Z</time>
      </trkpt>
      <trkpt lat="42.567200000" lon="-2.417329000">
        <ele>687.10</ele>
        <time>2017-02-18T09:16:29Z</time>
      </trkpt>
      <trkpt lat="42.567203000" lon="-2.417325000">
        <ele>687.10</ele>
        <time>2017-02-18T09:16:30Z</time>
      </trkpt>
      <trkpt lat="42.567206000" lon="-2.417324000">
        <ele>687.00</ele>
        <time>2017-02-18T09:16:31Z</time>
      </trkpt>
      <trkpt lat="42.567208000" lon="-2.417324000">
        <ele>687.00</ele>
        <time>2017-02-18T09:16:32Z</time>
      </trkpt>
      <trkpt lat="42.567209000" lon="-2.417323000">
        <ele>687.00</ele>
        <time>2017-02-18T09:16:33Z</time>
      </trkpt>
      <trkpt lat="42.567211000" lon="-2.417323000">
        <ele>687.00</ele>
        <time>2017-02-18T09:16:34Z</time>
      </trkpt>
      <trkpt lat="42.567211000" lon="-2.417324000">
        <ele>687.00</ele>
        <time>2017-02-18T09:16:35Z</time>
      </trkpt>
      <trkpt lat="42.567211000" lon="-2.417324000">
        <ele>687.00</ele>
        <time>2017-02-18T09:16:36Z</time>
      </trkpt>
      <trkpt lat="42.567213000" lon="-2.417325000">
        <ele>687.00</ele>
        <time>2017-02-18T09:16:37Z</time>
      </trkpt>
      <trkpt lat="42.567213000" lon="-2.417326000">
        <ele>687.00</ele>
        <time>2017-02-18T09:16:38Z</time>
      </trkpt>
      <trkpt lat="42.567214000" lon="-2.417327000">
        <ele>687.00</ele>
        <time>2017-02-18T09:16:39Z</time>
      </trkpt>
      <trkpt lat="42.567214000" lon="-2.417327000">
        <ele>686.90</ele>
        <time>2017-02-18T09:16:40Z</time>
      </trkpt>
      <trkpt lat="42.567215000" lon="-2.417327000">
        <ele>686.80</ele>
        <time>2017-02-18T09:16:41Z</time>
      </trkpt>
      <trkpt lat="42.567216000" lon="-2.417325000">
        <ele>686.80</ele>
        <time>2017-02-18T09:16:42Z</time>
      </trkpt>
      <trkpt lat="42.567216000" lon="-2.417325000">
        <ele>686.80</ele>
        <time>2017-02-18T09:16:43Z</time>
      </trkpt>
      <trkpt lat="42.567216000" lon="-2.417324000">
        <ele>686.70</ele>
        <time>2017-02-18T09:16:44Z</time>
      </trkpt>
      <trkpt lat="42.567215000" lon="-2.417323000">
        <ele>686.60</ele>
        <time>2017-02-18T09:16:45Z</time>
      </trkpt>
      <trkpt lat="42.567216000" lon="-2.417324000">
        <ele>686.60</ele>
        <time>2017-02-18T09:16:46Z</time>
      </trkpt>
      <trkpt lat="42.567218000" lon="-2.417324000">
        <ele>686.50</ele>
        <time>2017-02-18T09:16:47Z</time>
      </trkpt>
      <trkpt lat="42.567220000" lon="-2.417324000">
        <ele>686.50</ele>
        <time>2017-02-18T09:16:48Z</time>
      </trkpt>
      <trkpt lat="42.567222000" lon="-2.417323000">
        <ele>686.50</ele>
        <time>2017-02-18T09:16:49Z</time>
      </trkpt>
      <trkpt lat="42.567225000" lon="-2.417323000">
        <ele>686.60</ele>
        <time>2017-02-18T09:16:50Z</time>
      </trkpt>
      <trkpt lat="42.567226000" lon="-2.417322000">
        <ele>686.70</ele>
        <time>2017-02-18T09:16:51Z</time>
      </trkpt>
      <trkpt lat="42.567227000" lon="-2.417323000">
        <ele>686.70</ele>
        <time>2017-02-18T09:16:52Z</time>
      </trkpt>
      <trkpt lat="42.567229000" lon="-2.417321000">
        <ele>686.80</ele>
        <time>2017-02-18T09:16:53Z</time>
      </trkpt>
      <trkpt lat="42.567225000" lon="-2.417321000">
        <ele>686.80</ele>
        <time>2017-02-18T09:16:54Z</time>
      </trkpt>
      <trkpt lat="42.567219000" lon="-2.417321000">
        <ele>686.80</ele>
        <time>2017-02-18T09:16:55Z</time>
      </trkpt>
      <trkpt lat="42.567215000" lon="-2.417320000">
        <ele>686.80</ele>
        <time>2017-02-18T09:16:56Z</time>
      </trkpt>
      <trkpt lat="42.567213000" lon="-2.417319000">
        <ele>686.80</ele>
        <time>2017-02-18T09:16:57Z</time>
      </trkpt>
      <trkpt lat="42.567213000" lon="-2.417324000">
        <ele>686.80</ele>
        <time>2017-02-18T09:16:58Z</time>
      </trkpt>
      <trkpt lat="42.567212000" lon="-2.417326000">
        <ele>686.80</ele>
        <time>2017-02-18T09:16:59Z</time>
      </trkpt>
      <trkpt lat="42.567214000" lon="-2.417327000">
        <ele>686.80</ele>
        <time>2017-02-18T09:17:00Z</time>
      </trkpt>
      <trkpt lat="42.567217000" lon="-2.417326000">
        <ele>686.90</ele>
        <time>2017-02-18T09:17:01Z</time>
      </trkpt>
      <trkpt lat="42.567218000" lon="-2.417324000">
        <ele>686.90</ele>
        <time>2017-02-18T09:17:02Z</time>
      </trkpt>
      <trkpt lat="42.567217000" lon="-2.417324000">
        <ele>686.90</ele>
        <time>2017-02-18T09:17:03Z</time>
      </trkpt>
      <trkpt lat="42.567218000" lon="-2.417326000">
        <ele>686.90</ele>
        <time>2017-02-18T09:17:04Z</time>
      </trkpt>
      <trkpt lat="42.567217000" lon="-2.417336000">
        <ele>687.00</ele>
        <time>2017-02-18T09:17:05Z</time>
      </trkpt>
      <trkpt lat="42.567224000" lon="-2.417348000">
        <ele>687.00</ele>
        <time>2017-02-18T09:17:06Z</time>
      </trkpt>
      <trkpt lat="42.567226000" lon="-2.417353000">
        <ele>687.00</ele>
        <time>2017-02-18T09:17:07Z</time>
      </trkpt>
      <trkpt lat="42.567233000" lon="-2.417381000">
        <ele>687.20</ele>
        <time>2017-02-18T09:17:09Z</time>
      </trkpt>
      <trkpt lat="42.567237000" lon="-2.417398000">
        <ele>687.10</ele>
        <time>2017-02-18T09:17:10Z</time>
      </trkpt>
      <trkpt lat="42.567248000" lon="-2.417419000">
        <ele>687.10</ele>
        <time>2017-02-18T09:17:11Z</time>
      </trkpt>
      <trkpt lat="42.567259000" lon="-2.417446000">
        <ele>686.90</ele>
        <time>2017-02-18T09:17:12Z</time>
      </trkpt>
      <trkpt lat="42.567274000" lon="-2.417475000">
        <ele>686.70</ele>
        <time>2017-02-18T09:17:13Z</time>
      </trkpt>
      <trkpt lat="42.567294000" lon="-2.417500000">
        <ele>686.50</ele>
        <time>2017-02-18T09:17:14Z</time>
      </trkpt>
      <trkpt lat="42.567311000" lon="-2.417521000">
        <ele>686.30</ele>
        <time>2017-02-18T09:17:15Z</time>
      </trkpt>
      <trkpt lat="42.567327000" lon="-2.417529000">
        <ele>686.10</ele>
        <time>2017-02-18T09:17:16Z</time>
      </trkpt>
      <trkpt lat="42.567349000" lon="-2.417530000">
        <ele>685.90</ele>
        <time>2017-02-18T09:17:17Z</time>
      </trkpt>
      <trkpt lat="42.567372000" lon="-2.417527000">
        <ele>685.70</ele>
        <time>2017-02-18T09:17:18Z</time>
      </trkpt>
      <trkpt lat="42.567395000" lon="-2.417519000">
        <ele>685.60</ele>
        <time>2017-02-18T09:17:19Z</time>
      </trkpt>
      <trkpt lat="42.567423000" lon="-2.417502000">
        <ele>685.10</ele>
        <time>2017-02-18T09:17:20Z</time>
      </trkpt>
      <trkpt lat="42.567457000" lon="-2.417485000">
        <ele>684.80</ele>
        <time>2017-02-18T09:17:21Z</time>
      </trkpt>
      <trkpt lat="42.567490000" lon="-2.417469000">
        <ele>684.40</ele>
        <time>2017-02-18T09:17:22Z</time>
      </trkpt>
      <trkpt lat="42.567520000" lon="-2.417448000">
        <ele>684.20</ele>
        <time>2017-02-18T09:17:23Z</time>
      </trkpt>
      <trkpt lat="42.567555000" lon="-2.417425000">
        <ele>683.60</ele>
        <time>2017-02-18T09:17:24Z</time>
      </trkpt>
      <trkpt lat="42.567593000" lon="-2.417403000">
        <ele>683.10</ele>
        <time>2017-02-18T09:17:25Z</time>
      </trkpt>
      <trkpt lat="42.567638000" lon="-2.417386000">
        <ele>682.60</ele>
        <time>2017-02-18T09:17:26Z</time>
      </trkpt>
      <trkpt lat="42.567687000" lon="-2.417382000">
        <ele>682.20</ele>
        <time>2017-02-18T09:17:27Z</time>
      </trkpt>
      <trkpt lat="42.567732000" lon="-2.417382000">
        <ele>681.70</ele>
        <time>2017-02-18T09:17:28Z</time>
      </trkpt>
      <trkpt lat="42.567772000" lon="-2.417388000">
        <ele>681.30</ele>
        <time>2017-02-18T09:17:29Z</time>
      </trkpt>
      <trkpt lat="42.567807000" lon="-2.417393000">
        <ele>681.00</ele>
        <time>2017-02-18T09:17:30Z</time>
      </trkpt>
      <trkpt lat="42.567840000" lon="-2.417395000">
        <ele>680.70</ele>
        <time>2017-02-18T09:17:31Z</time>
      </trkpt>
      <trkpt lat="42.567869000" lon="-2.417391000">
        <ele>680.40</ele>
        <time>2017-02-18T09:17:32Z</time>
      </trkpt>
      <trkpt lat="42.567897000" lon="-2.417386000">
        <ele>680.20</ele>
        <time>2017-02-18T09:17:33Z</time>
      </trkpt>
      <trkpt lat="42.567925000" lon="-2.417379000">
        <ele>680.20</ele>
        <time>2017-02-18T09:17:34Z</time>
      </trkpt>
      <trkpt lat="42.567951000" lon="-2.417378000">
        <ele>680.20</ele>
        <time>2017-02-18T09:17:35Z</time>
      </trkpt>
      <trkpt lat="42.567974000" lon="-2.417380000">
        <ele>679.90</ele>
        <time>2017-02-18T09:17:36Z</time>
      </trkpt>
      <trkpt lat="42.567995000" lon="-2.417385000">
        <ele>679.70</ele>
        <time>2017-02-18T09:17:37Z</time>
      </trkpt>
      <trkpt lat="42.568018000" lon="-2.417389000">
        <ele>679.50</ele>
        <time>2017-02-18T09:17:38Z</time>
      </trkpt>
      <trkpt lat="42.568044000" lon="-2.417392000">
        <ele>679.40</ele>
        <time>2017-02-18T09:17:39Z</time>
      </trkpt>
      <trkpt lat="42.568067000" lon="-2.417393000">
        <ele>679.10</ele>
        <time>2017-02-18T09:17:40Z</time>
      </trkpt>
      <trkpt lat="42.568086000" lon="-2.417394000">
        <ele>678.90</ele>
        <time>2017-02-18T09:17:41Z</time>
      </trkpt>
      <trkpt lat="42.568098000" lon="-2.417415000">
        <ele>678.70</ele>
        <time>2017-02-18T09:17:42Z</time>
      </trkpt>
      <trkpt lat="42.568098000" lon="-2.417440000">
        <ele>678.60</ele>
        <time>2017-02-18T09:17:43Z</time>
      </trkpt>
      <trkpt lat="42.568083000" lon="-2.417472000">
        <ele>678.20</ele>
        <time>2017-02-18T09:17:44Z</time>
      </trkpt>
      <trkpt lat="42.568059000" lon="-2.417487000">
        <ele>677.80</ele>
        <time>2017-02-18T09:17:45Z</time>
      </trkpt>
      <trkpt lat="42.568031000" lon="-2.417501000">
        <ele>677.50</ele>
        <time>2017-02-18T09:17:46Z</time>
      </trkpt>
      <trkpt lat="42.568001000" lon="-2.417509000">
        <ele>677.30</ele>
        <time>2017-02-18T09:17:47Z</time>
      </trkpt>
      <trkpt lat="42.567978000" lon="-2.417517000">
        <ele>677.10</ele>
        <time>2017-02-18T09:17:48Z</time>
      </trkpt>
      <trkpt lat="42.567953000" lon="-2.417521000">
        <ele>676.90</ele>
        <time>2017-02-18T09:17:49Z</time>
      </trkpt>
      <trkpt lat="42.567930000" lon="-2.417524000">
        <ele>676.80</ele>
        <time>2017-02-18T09:17:50Z</time>
      </trkpt>
      <trkpt lat="42.567907000" lon="-2.417526000">
        <ele>676.80</ele>
        <time>2017-02-18T09:17:51Z</time>
      </trkpt>
      <trkpt lat="42.567886000" lon="-2.417527000">
        <ele>676.70</ele>
        <time>2017-02-18T09:17:52Z</time>
      </trkpt>
      <trkpt lat="42.567868000" lon="-2.417532000">
        <ele>676.70</ele>
        <time>2017-02-18T09:17:53Z</time>
      </trkpt>
      <trkpt lat="42.567851000" lon="-2.417543000">
        <ele>676.80</ele>
        <time>2017-02-18T09:17:54Z</time>
      </trkpt>
      <trkpt lat="42.567830000" lon="-2.417555000">
        <ele>676.80</ele>
        <time>2017-02-18T09:17:55Z</time>
      </trkpt>
      <trkpt lat="42.567809000" lon="-2.417563000">
        <ele>676.80</ele>
        <time>2017-02-18T09:17:56Z</time>
      </trkpt>
      <trkpt lat="42.567786000" lon="-2.417568000">
        <ele>676.80</ele>
        <time>2017-02-18T09:17:57Z</time>
      </trkpt>
      <trkpt lat="42.567764000" lon="-2.417577000">
        <ele>676.90</ele>
        <time>2017-02-18T09:17:58Z</time>
      </trkpt>
      <trkpt lat="42.567739000" lon="-2.417585000">
        <ele>676.90</ele>
        <time>2017-02-18T09:17:59Z</time>
      </trkpt>
      <trkpt lat="42.567712000" lon="-2.417594000">
        <ele>676.90</ele>
        <time>2017-02-18T09:18:00Z</time>
      </trkpt>
      <trkpt lat="42.567685000" lon="-2.417602000">
        <ele>676.90</ele>
        <time>2017-02-18T09:18:01Z</time>
      </trkpt>
      <trkpt lat="42.567658000" lon="-2.417609000">
        <ele>676.90</ele>
        <time>2017-02-18T09:18:02Z</time>
      </trkpt>
      <trkpt lat="42.567633000" lon="-2.417620000">
        <ele>677.00</ele>
        <time>2017-02-18T09:18:03Z</time>
      </trkpt>
      <trkpt lat="42.567609000" lon="-2.417632000">
        <ele>676.90</ele>
        <time>2017-02-18T09:18:04Z</time>
      </trkpt>
      <trkpt lat="42.567586000" lon="-2.417644000">
        <ele>676.80</ele>
        <time>2017-02-18T09:18:05Z</time>
      </trkpt>
      <trkpt lat="42.567562000" lon="-2.417655000">
        <ele>676.70</ele>
        <time>2017-02-18T09:18:06Z</time>
      </trkpt>
      <trkpt lat="42.567540000" lon="-2.417669000">
        <ele>676.60</ele>
        <time>2017-02-18T09:18:07Z</time>
      </trkpt>
      <trkpt lat="42.567515000" lon="-2.417681000">
        <ele>676.50</ele>
        <time>2017-02-18T09:18:08Z</time>
      </trkpt>
      <trkpt lat="42.567463000" lon="-2.417707000">
        <ele>676.50</ele>
        <time>2017-02-18T09:18:10Z</time>
      </trkpt>
      <trkpt lat="42.567439000" lon="-2.417720000">
        <ele>676.60</ele>
        <time>2017-02-18T09:18:11Z</time>
      </trkpt>
      <trkpt lat="42.567414000" lon="-2.417730000">
        <ele>676.70</ele>
        <time>2017-02-18T09:18:12Z</time>
      </trkpt>
      <trkpt lat="42.567389000" lon="-2.417740000">
        <ele>676.80</ele>
        <time>2017-02-18T09:18:13Z</time>
      </trkpt>
      <trkpt lat="42.567365000" lon="-2.417748000">
        <ele>677.00</ele>
        <time>2017-02-18T09:18:14Z</time>
      </trkpt>
      <trkpt lat="42.567341000" lon="-2.417759000">
        <ele>677.10</ele>
        <time>2017-02-18T09:18:15Z</time>
      </trkpt>
      <trkpt lat="42.567319000" lon="-2.417771000">
        <ele>677.20</ele>
        <time>2017-02-18T09:18:16Z</time>
      </trkpt>
      <trkpt lat="42.567295000" lon="-2.417779000">
        <ele>677.30</ele>
        <time>2017-02-18T09:18:17Z</time>
      </trkpt>
      <trkpt lat="42.567273000" lon="-2.417790000">
        <ele>677.10</ele>
        <time>2017-02-18T09:18:18Z</time>
      </trkpt>
      <trkpt lat="42.567249000" lon="-2.417802000">
        <ele>677.00</ele>
        <time>2017-02-18T09:18:19Z</time>
      </trkpt>
      <trkpt lat="42.567226000" lon="-2.417810000">
        <ele>677.00</ele>
        <time>2017-02-18T09:18:20Z</time>
      </trkpt>
      <trkpt lat="42.567201000" lon="-2.417819000">
        <ele>676.90</ele>
        <time>2017-02-18T09:18:21Z</time>
      </trkpt>
      <trkpt lat="42.567176000" lon="-2.417826000">
        <ele>676.90</ele>
        <time>2017-02-18T09:18:22Z</time>
      </trkpt>
      <trkpt lat="42.567151000" lon="-2.417831000">
        <ele>676.90</ele>
        <time>2017-02-18T09:18:23Z</time>
      </trkpt>
      <trkpt lat="42.567126000" lon="-2.417840000">
        <ele>677.00</ele>
        <time>2017-02-18T09:18:24Z</time>
      </trkpt>
      <trkpt lat="42.567099000" lon="-2.417842000">
        <ele>677.10</ele>
        <time>2017-02-18T09:18:25Z</time>
      </trkpt>
      <trkpt lat="42.567073000" lon="-2.417841000">
        <ele>677.20</ele>
        <time>2017-02-18T09:18:26Z</time>
      </trkpt>
      <trkpt lat="42.567048000" lon="-2.417841000">
        <ele>677.30</ele>
        <time>2017-02-18T09:18:27Z</time>
      </trkpt>
      <trkpt lat="42.567025000" lon="-2.417838000">
        <ele>677.50</ele>
        <time>2017-02-18T09:18:28Z</time>
      </trkpt>
      <trkpt lat="42.567002000" lon="-2.417830000">
        <ele>677.70</ele>
        <time>2017-02-18T09:18:29Z</time>
      </trkpt>
      <trkpt lat="42.566978000" lon="-2.417824000">
        <ele>677.80</ele>
        <time>2017-02-18T09:18:30Z</time>
      </trkpt>
      <trkpt lat="42.566954000" lon="-2.417811000">
        <ele>677.90</ele>
        <time>2017-02-18T09:18:31Z</time>
      </trkpt>
      <trkpt lat="42.566933000" lon="-2.417796000">
        <ele>678.00</ele>
        <time>2017-02-18T09:18:32Z</time>
      </trkpt>
      <trkpt lat="42.566914000" lon="-2.417776000">
        <ele>678.00</ele>
        <time>2017-02-18T09:18:33Z</time>
      </trkpt>
      <trkpt lat="42.566895000" lon="-2.417753000">
        <ele>678.30</ele>
        <time>2017-02-18T09:18:34Z</time>
      </trkpt>
      <trkpt lat="42.566873000" lon="-2.417733000">
        <ele>678.50</ele>
        <time>2017-02-18T09:18:35Z</time>
      </trkpt>
      <trkpt lat="42.566854000" lon="-2.417711000">
        <ele>678.80</ele>
        <time>2017-02-18T09:18:36Z</time>
      </trkpt>
      <trkpt lat="42.566838000" lon="-2.417686000">
        <ele>679.10</ele>
        <time>2017-02-18T09:18:37Z</time>
      </trkpt>
      <trkpt lat="42.566823000" lon="-2.417660000">
        <ele>679.20</ele>
        <time>2017-02-18T09:18:38Z</time>
      </trkpt>
      <trkpt lat="42.566807000" lon="-2.417634000">
        <ele>679.40</ele>
        <time>2017-02-18T09:18:39Z</time>
      </trkpt>
      <trkpt lat="42.566789000" lon="-2.417603000">
        <ele>679.50</ele>
        <time>2017-02-18T09:18:40Z</time>
      </trkpt>
      <trkpt lat="42.566774000" lon="-2.417576000">
        <ele>679.60</ele>
        <time>2017-02-18T09:18:41Z</time>
      </trkpt>
      <trkpt lat="42.566760000" lon="-2.417552000">
        <ele>679.40</ele>
        <time>2017-02-18T09:18:42Z</time>
      </trkpt>
      <trkpt lat="42.566746000" lon="-2.417524000">
        <ele>679.30</ele>
        <time>2017-02-18T09:18:43Z</time>
      </trkpt>
      <trkpt lat="42.566734000" lon="-2.417496000">
        <ele>679.20</ele>
        <time>2017-02-18T09:18:44Z</time>
      </trkpt>
      <trkpt lat="42.566722000" lon="-2.417468000">
        <ele>679.20</ele>
        <time>2017-02-18T09:18:45Z</time>
      </trkpt>
      <trkpt lat="42.566706000" lon="-2.417440000">
        <ele>679.30</ele>
        <time>2017-02-18T09:18:46Z</time>
      </trkpt>
      <trkpt lat="42.566692000" lon="-2.417413000">
        <ele>679.40</ele>
        <time>2017-02-18T09:18:47Z</time>
      </trkpt>
      <trkpt lat="42.566679000" lon="-2.417387000">
        <ele>679.60</ele>
        <time>2017-02-18T09:18:48Z</time>
      </trkpt>
      <trkpt lat="42.566664000" lon="-2.417362000">
        <ele>679.70</ele>
        <time>2017-02-18T09:18:49Z</time>
      </trkpt>
      <trkpt lat="42.566651000" lon="-2.417339000">
        <ele>679.70</ele>
        <time>2017-02-18T09:18:50Z</time>
      </trkpt>
      <trkpt lat="42.566640000" lon="-2.417313000">
        <ele>679.80</ele>
        <time>2017-02-18T09:18:51Z</time>
      </trkpt>
      <trkpt lat="42.566636000" lon="-2.417287000">
        <ele>679.90</ele>
        <time>2017-02-18T09:18:52Z</time>
      </trkpt>
      <trkpt lat="42.566621000" lon="-2.417256000">
        <ele>680.00</ele>
        <time>2017-02-18T09:18:53Z</time>
      </trkpt>
      <trkpt lat="42.566600000" lon="-2.417225000">
        <ele>680.10</ele>
        <time>2017-02-18T09:18:54Z</time>
      </trkpt>
      <trkpt lat="42.566580000" lon="-2.417188000">
        <ele>680.10</ele>
        <time>2017-02-18T09:18:55Z</time>
      </trkpt>
      <trkpt lat="42.566561000" lon="-2.417140000">
        <ele>680.00</ele>
        <time>2017-02-18T09:18:56Z</time>
      </trkpt>
      <trkpt lat="42.566542000" lon="-2.417089000">
        <ele>679.90</ele>
        <time>2017-02-18T09:18:57Z</time>
      </trkpt>
      <trkpt lat="42.566520000" lon="-2.417038000">
        <ele>679.90</ele>
        <time>2017-02-18T09:18:58Z</time>
      </trkpt>
      <trkpt lat="42.566505000" lon="-2.416981000">
        <ele>679.80</ele>
        <time>2017-02-18T09:18:59Z</time>
      </trkpt>
      <trkpt lat="42.566493000" lon="-2.416920000">
        <ele>679.80</ele>
        <time>2017-02-18T09:19:00Z</time>
      </trkpt>
      <trkpt lat="42.566481000" lon="-2.416858000">
        <ele>679.80</ele>
        <time>2017-02-18T09:19:01Z</time>
      </trkpt>
      <trkpt lat="42.566470000" lon="-2.416800000">
        <ele>679.10</ele>
        <time>2017-02-18T09:19:02Z</time>
      </trkpt>
      <trkpt lat="42.566458000" lon="-2.416746000">
        <ele>678.60</ele>
        <time>2017-02-18T09:19:03Z</time>
      </trkpt>
      <trkpt lat="42.566440000" lon="-2.416698000">
        <ele>677.70</ele>
        <time>2017-02-18T09:19:04Z</time>
      </trkpt>
      <trkpt lat="42.566417000" lon="-2.416654000">
        <ele>677.00</ele>
        <time>2017-02-18T09:19:05Z</time>
      </trkpt>
      <trkpt lat="42.566389000" lon="-2.416622000">
        <ele>676.00</ele>
        <time>2017-02-18T09:19:06Z</time>
      </trkpt>
      <trkpt lat="42.566355000" lon="-2.416599000">
        <ele>675.30</ele>
        <time>2017-02-18T09:19:07Z</time>
      </trkpt>
      <trkpt lat="42.566317000" lon="-2.416592000">
        <ele>674.50</ele>
        <time>2017-02-18T09:19:08Z</time>
      </trkpt>
      <trkpt lat="42.566278000" lon="-2.416590000">
        <ele>673.90</ele>
        <time>2017-02-18T09:19:09Z</time>
      </trkpt>
      <trkpt lat="42.566240000" lon="-2.416600000">
        <ele>673.20</ele>
        <time>2017-02-18T09:19:10Z</time>
      </trkpt>
      <trkpt lat="42.566165000" lon="-2.416648000">
        <ele>671.70</ele>
        <time>2017-02-18T09:19:12Z</time>
      </trkpt>
      <trkpt lat="42.566129000" lon="-2.416680000">
        <ele>671.00</ele>
        <time>2017-02-18T09:19:13Z</time>
      </trkpt>
      <trkpt lat="42.566098000" lon="-2.416714000">
        <ele>670.10</ele>
        <time>2017-02-18T09:19:14Z</time>
      </trkpt>
      <trkpt lat="42.566078000" lon="-2.416756000">
        <ele>669.40</ele>
        <time>2017-02-18T09:19:15Z</time>
      </trkpt>
      <trkpt lat="42.566069000" lon="-2.416793000">
        <ele>668.60</ele>
        <time>2017-02-18T09:19:16Z</time>
      </trkpt>
      <trkpt lat="42.566065000" lon="-2.416830000">
        <ele>668.10</ele>
        <time>2017-02-18T09:19:17Z</time>
      </trkpt>
      <trkpt lat="42.566061000" lon="-2.416861000">
        <ele>667.30</ele>
        <time>2017-02-18T09:19:18Z</time>
      </trkpt>
      <trkpt lat="42.566064000" lon="-2.416893000">
        <ele>666.70</ele>
        <time>2017-02-18T09:19:19Z</time>
      </trkpt>
      <trkpt lat="42.566069000" lon="-2.416926000">
        <ele>666.20</ele>
        <time>2017-02-18T09:19:20Z</time>
      </trkpt>
      <trkpt lat="42.566073000" lon="-2.416962000">
        <ele>665.80</ele>
        <time>2017-02-18T09:19:21Z</time>
      </trkpt>
      <trkpt lat="42.566076000" lon="-2.416988000">
        <ele>665.40</ele>
        <time>2017-02-18T09:19:22Z</time>
      </trkpt>
      <trkpt lat="42.566079000" lon="-2.417013000">
        <ele>665.10</ele>
        <time>2017-02-18T09:19:23Z</time>
      </trkpt>
      <trkpt lat="42.566085000" lon="-2.417038000">
        <ele>664.60</ele>
        <time>2017-02-18T09:19:24Z</time>
      </trkpt>
      <trkpt lat="42.566091000" lon="-2.417062000">
        <ele>664.30</ele>
        <time>2017-02-18T09:19:25Z</time>
      </trkpt>
      <trkpt lat="42.566094000" lon="-2.417090000">
        <ele>663.90</ele>
        <time>2017-02-18T09:19:26Z</time>
      </trkpt>
      <trkpt lat="42.566092000" lon="-2.417122000">
        <ele>663.70</ele>
        <time>2017-02-18T09:19:27Z</time>
      </trkpt>
      <trkpt lat="42.566085000" lon="-2.417161000">
        <ele>663.20</ele>
        <time>2017-02-18T09:19:28Z</time>
      </trkpt>
      <trkpt lat="42.566064000" lon="-2.417188000">
        <ele>662.90</ele>
        <time>2017-02-18T09:19:29Z</time>
      </trkpt>
      <trkpt lat="42.566030000" lon="-2.417188000">
        <ele>662.70</ele>
        <time>2017-02-18T09:19:30Z</time>
      </trkpt>
      <trkpt lat="42.566001000" lon="-2.417166000">
        <ele>662.50</ele>
        <time>2017-02-18T09:19:31Z</time>
      </trkpt>
      <trkpt lat="42.565970000" lon="-2.417133000">
        <ele>662.10</ele>
        <time>2017-02-18T09:19:32Z</time>
      </trkpt>
      <trkpt lat="42.565939000" lon="-2.417091000">
        <ele>661.80</ele>
        <time>2017-02-18T09:19:33Z</time>
      </trkpt>
      <trkpt lat="42.565905000" lon="-2.417042000">
        <ele>661.10</ele>
        <time>2017-02-18T09:19:34Z</time>
      </trkpt>
      <trkpt lat="42.565886000" lon="-2.417002000">
        <ele>660.60</ele>
        <time>2017-02-18T09:19:35Z</time>
      </trkpt>
      <trkpt lat="42.565878000" lon="-2.416976000">
        <ele>660.20</ele>
        <time>2017-02-18T09:19:36Z</time>
      </trkpt>
      <trkpt lat="42.565864000" lon="-2.416956000">
        <ele>659.90</ele>
        <time>2017-02-18T09:19:37Z</time>
      </trkpt>
      <trkpt lat="42.565853000" lon="-2.416934000">
        <ele>659.30</ele>
        <time>2017-02-18T09:19:38Z</time>
      </trkpt>
      <trkpt lat="42.565842000" lon="-2.416915000">
        <ele>658.90</ele>
        <time>2017-02-18T09:19:39Z</time>
      </trkpt>
      <trkpt lat="42.565834000" lon="-2.416896000">
        <ele>658.50</ele>
        <time>2017-02-18T09:19:40Z</time>
      </trkpt>
      <trkpt lat="42.565820000" lon="-2.416884000">
        <ele>658.20</ele>
        <time>2017-02-18T09:19:41Z</time>
      </trkpt>
      <trkpt lat="42.565815000" lon="-2.416873000">
        <ele>658.00</ele>
        <time>2017-02-18T09:19:42Z</time>
      </trkpt>
      <trkpt lat="42.565812000" lon="-2.416870000">
        <ele>657.80</ele>
        <time>2017-02-18T09:19:43Z</time>
      </trkpt>
      <trkpt lat="42.565809000" lon="-2.416870000">
        <ele>657.60</ele>
        <time>2017-02-18T09:19:44Z</time>
      </trkpt>
      <trkpt lat="42.565808000" lon="-2.416869000">
        <ele>657.50</ele>
        <time>2017-02-18T09:19:45Z</time>
      </trkpt>
      <trkpt lat="42.565805000" lon="-2.416869000">
        <ele>657.40</ele>
        <time>2017-02-18T09:19:46Z</time>
      </trkpt>
      <trkpt lat="42.565806000" lon="-2.416871000">
        <ele>657.30</ele>
        <time>2017-02-18T09:19:47Z</time>
      </trkpt>
      <trkpt lat="42.565805000" lon="-2.416872000">
        <ele>657.30</ele>
        <time>2017-02-18T09:19:48Z</time>
      </trkpt>
      <trkpt lat="42.565802000" lon="-2.416874000">
        <ele>657.20</ele>
        <time>2017-02-18T09:19:49Z</time>
      </trkpt>
      <trkpt lat="42.565798000" lon="-2.416878000">
        <ele>657.20</ele>
        <time>2017-02-18T09:19:50Z</time>
      </trkpt>
      <trkpt lat="42.565797000" lon="-2.416880000">
        <ele>657.30</ele>
        <time>2017-02-18T09:19:51Z</time>
      </trkpt>
      <trkpt lat="42.565794000" lon="-2.416877000">
        <ele>657.30</ele>
        <time>2017-02-18T09:19:52Z</time>
      </trkpt>
      <trkpt lat="42.565791000" lon="-2.416866000">
        <ele>657.30</ele>
        <time>2017-02-18T09:19:53Z</time>
      </trkpt>
      <trkpt lat="42.565780000" lon="-2.416843000">
        <ele>657.20</ele>
        <time>2017-02-18T09:19:54Z</time>
      </trkpt>
      <trkpt lat="42.565763000" lon="-2.416816000">
        <ele>657.10</ele>
        <time>2017-02-18T09:19:55Z</time>
      </trkpt>
      <trkpt lat="42.565743000" lon="-2.416786000">
        <ele>657.00</ele>
        <time>2017-02-18T09:19:56Z</time>
      </trkpt>
      <trkpt lat="42.565718000" lon="-2.416763000">
        <ele>656.90</ele>
        <time>2017-02-18T09:19:57Z</time>
      </trkpt>
      <trkpt lat="42.565696000" lon="-2.416734000">
        <ele>656.70</ele>
        <time>2017-02-18T09:19:58Z</time>
      </trkpt>
      <trkpt lat="42.565673000" lon="-2.416705000">
        <ele>656.50</ele>
        <time>2017-02-18T09:19:59Z</time>
      </trkpt>
      <trkpt lat="42.565652000" lon="-2.416667000">
        <ele>656.20</ele>
        <time>2017-02-18T09:20:00Z</time>
      </trkpt>
      <trkpt lat="42.565629000" lon="-2.416626000">
        <ele>656.10</ele>
        <time>2017-02-18T09:20:01Z</time>
      </trkpt>
      <trkpt lat="42.565604000" lon="-2.416576000">
        <ele>655.70</ele>
        <time>2017-02-18T09:20:02Z</time>
      </trkpt>
      <trkpt lat="42.565576000" lon="-2.416522000">
        <ele>655.50</ele>
        <time>2017-02-18T09:20:03Z</time>
      </trkpt>
      <trkpt lat="42.565547000" lon="-2.416462000">
        <ele>654.90</ele>
        <time>2017-02-18T09:20:04Z</time>
      </trkpt>
      <trkpt lat="42.565522000" lon="-2.416394000">
        <ele>654.50</ele>
        <time>2017-02-18T09:20:05Z</time>
      </trkpt>
      <trkpt lat="42.565512000" lon="-2.416317000">
        <ele>654.20</ele>
        <time>2017-02-18T09:20:06Z</time>
      </trkpt>
      <trkpt lat="42.565518000" lon="-2.416235000">
        <ele>653.90</ele>
        <time>2017-02-18T09:20:07Z</time>
      </trkpt>
      <trkpt lat="42.565539000" lon="-2.416155000">
        <ele>653.50</ele>
        <time>2017-02-18T09:20:08Z</time>
      </trkpt>
      <trkpt lat="42.565575000" lon="-2.416083000">
        <ele>653.20</ele>
        <time>2017-02-18T09:20:09Z</time>
      </trkpt>
      <trkpt lat="42.565619000" lon="-2.416021000">
        <ele>652.80</ele>
        <time>2017-02-18T09:20:10Z</time>
      </trkpt>
      <trkpt lat="42.565668000" lon="-2.415971000">
        <ele>652.50</ele>
        <time>2017-02-18T09:20:11Z</time>
      </trkpt>
      <trkpt lat="42.565771000" lon="-2.415883000">
        <ele>651.80</ele>
        <time>2017-02-18T09:20:13Z</time>
      </trkpt>
      <trkpt lat="42.565823000" lon="-2.415844000">
        <ele>651.30</ele>
        <time>2017-02-18T09:20:14Z</time>
      </trkpt>
      <trkpt lat="42.565874000" lon="-2.415805000">
        <ele>650.90</ele>
        <time>2017-02-18T09:20:15Z</time>
      </trkpt>
      <trkpt lat="42.565924000" lon="-2.415770000">
        <ele>650.40</ele>
        <time>2017-02-18T09:20:16Z</time>
      </trkpt>
      <trkpt lat="42.565965000" lon="-2.415741000">
        <ele>650.10</ele>
        <time>2017-02-18T09:20:17Z</time>
      </trkpt>
      <trkpt lat="42.566000000" lon="-2.415715000">
        <ele>649.50</ele>
        <time>2017-02-18T09:20:18Z</time>
      </trkpt>
      <trkpt lat="42.566028000" lon="-2.415695000">
        <ele>649.10</ele>
        <time>2017-02-18T09:20:19Z</time>
      </trkpt>
      <trkpt lat="42.566060000" lon="-2.415673000">
        <ele>648.80</ele>
        <time>2017-02-18T09:20:20Z</time>
      </trkpt>
      <trkpt lat="42.566089000" lon="-2.415653000">
        <ele>648.60</ele>
        <time>2017-02-18T09:20:21Z</time>
      </trkpt>
      <trkpt lat="42.566113000" lon="-2.415638000">
        <ele>648.30</ele>
        <time>2017-02-18T09:20:22Z</time>
      </trkpt>
      <trkpt lat="42.566137000" lon="-2.415622000">
        <ele>648.10</ele>
        <time>2017-02-18T09:20:23Z</time>
      </trkpt>
      <trkpt lat="42.566155000" lon="-2.415606000">
        <ele>647.80</ele>
        <time>2017-02-18T09:20:24Z</time>
      </trkpt>
      <trkpt lat="42.566170000" lon="-2.415589000">
        <ele>647.60</ele>
        <time>2017-02-18T09:20:25Z</time>
      </trkpt>
      <trkpt lat="42.566177000" lon="-2.415568000">
        <ele>647.30</ele>
        <time>2017-02-18T09:20:26Z</time>
      </trkpt>
      <trkpt lat="42.566181000" lon="-2.415540000">
        <ele>647.00</ele>
        <time>2017-02-18T09:20:27Z</time>
      </trkpt>
      <trkpt lat="42.566167000" lon="-2.415512000">
        <ele>646.80</ele>
        <time>2017-02-18T09:20:28Z</time>
      </trkpt>
      <trkpt lat="42.566154000" lon="-2.415494000">
        <ele>646.60</ele>
        <time>2017-02-18T09:20:29Z</time>
      </trkpt>
      <trkpt lat="42.566137000" lon="-2.415481000">
        <ele>646.40</ele>
        <time>2017-02-18T09:20:30Z</time>
      </trkpt>
      <trkpt lat="42.566115000" lon="-2.415484000">
        <ele>646.30</ele>
        <time>2017-02-18T09:20:31Z</time>
      </trkpt>
      <trkpt lat="42.566092000" lon="-2.415495000">
        <ele>646.10</ele>
        <time>2017-02-18T09:20:32Z</time>
      </trkpt>
      <trkpt lat="42.566068000" lon="-2.415503000">
        <ele>646.00</ele>
        <time>2017-02-18T09:20:33Z</time>
      </trkpt>
      <trkpt lat="42.566045000" lon="-2.415513000">
        <ele>645.70</ele>
        <time>2017-02-18T09:20:34Z</time>
      </trkpt>
      <trkpt lat="42.566027000" lon="-2.415519000">
        <ele>645.60</ele>
        <time>2017-02-18T09:20:35Z</time>
      </trkpt>
      <trkpt lat="42.566009000" lon="-2.415527000">
        <ele>645.30</ele>
        <time>2017-02-18T09:20:36Z</time>
      </trkpt>
      <trkpt lat="42.565991000" lon="-2.415530000">
        <ele>645.10</ele>
        <time>2017-02-18T09:20:37Z</time>
      </trkpt>
      <trkpt lat="42.565979000" lon="-2.415522000">
        <ele>644.80</ele>
        <time>2017-02-18T09:20:38Z</time>
      </trkpt>
      <trkpt lat="42.565974000" lon="-2.415517000">
        <ele>644.60</ele>
        <time>2017-02-18T09:20:39Z</time>
      </trkpt>
      <trkpt lat="42.565973000" lon="-2.415516000">
        <ele>644.50</ele>
        <time>2017-02-18T09:20:40Z</time>
      </trkpt>
      <trkpt lat="42.565974000" lon="-2.415514000">
        <ele>644.30</ele>
        <time>2017-02-18T09:20:41Z</time>
      </trkpt>
      <trkpt lat="42.565973000" lon="-2.415516000">
        <ele>644.30</ele>
        <time>2017-02-18T09:20:42Z</time>
      </trkpt>
      <trkpt lat="42.565973000" lon="-2.415517000">
        <ele>644.20</ele>
        <time>2017-02-18T09:20:43Z</time>
      </trkpt>
      <trkpt lat="42.565973000" lon="-2.415519000">
        <ele>644.20</ele>
        <time>2017-02-18T09:20:44Z</time>
      </trkpt>
      <trkpt lat="42.565973000" lon="-2.415519000">
        <ele>644.20</ele>
        <time>2017-02-18T09:20:45Z</time>
      </trkpt>
      <trkpt lat="42.565974000" lon="-2.415519000">
        <ele>644.20</ele>
        <time>2017-02-18T09:20:46Z</time>
      </trkpt>
      <trkpt lat="42.565975000" lon="-2.415520000">
        <ele>644.10</ele>
        <time>2017-02-18T09:20:47Z</time>
      </trkpt>
      <trkpt lat="42.565978000" lon="-2.415521000">
        <ele>644.10</ele>
        <time>2017-02-18T09:20:48Z</time>
      </trkpt>
      <trkpt lat="42.565979000" lon="-2.415521000">
        <ele>644.10</ele>
        <time>2017-02-18T09:20:49Z</time>
      </trkpt>
      <trkpt lat="42.565981000" lon="-2.415521000">
        <ele>644.00</ele>
        <time>2017-02-18T09:20:50Z</time>
      </trkpt>
      <trkpt lat="42.565982000" lon="-2.415522000">
        <ele>643.90</ele>
        <time>2017-02-18T09:20:51Z</time>
      </trkpt>
      <trkpt lat="42.565982000" lon="-2.415523000">
        <ele>643.90</ele>
        <time>2017-02-18T09:20:52Z</time>
      </trkpt>
      <trkpt lat="42.565982000" lon="-2.415525000">
        <ele>643.90</ele>
        <time>2017-02-18T09:20:53Z</time>
      </trkpt>
      <trkpt lat="42.565983000" lon="-2.415525000">
        <ele>644.00</ele>
        <time>2017-02-18T09:20:54Z</time>
      </trkpt>
      <trkpt lat="42.565984000" lon="-2.415526000">
        <ele>644.00</ele>
        <time>2017-02-18T09:20:55Z</time>
      </trkpt>
      <trkpt lat="42.565985000" lon="-2.415527000">
        <ele>644.00</ele>
        <time>2017-02-18T09:20:56Z</time>
      </trkpt>
      <trkpt lat="42.565986000" lon="-2.415527000">
        <ele>644.00</ele>
        <time>2017-02-18T09:20:57Z</time>
      </trkpt>
      <trkpt lat="42.565984000" lon="-2.415529000">
        <ele>644.00</ele>
        <time>2017-02-18T09:20:58Z</time>
      </trkpt>
      <trkpt lat="42.565978000" lon="-2.415539000">
        <ele>644.00</ele>
        <time>2017-02-18T09:20:59Z</time>
      </trkpt>
      <trkpt lat="42.565963000" lon="-2.415556000">
        <ele>644.00</ele>
        <time>2017-02-18T09:21:00Z</time>
      </trkpt>
      <trkpt lat="42.565952000" lon="-2.415578000">
        <ele>644.00</ele>
        <time>2017-02-18T09:21:01Z</time>
      </trkpt>
      <trkpt lat="42.565937000" lon="-2.415591000">
        <ele>643.90</ele>
        <time>2017-02-18T09:21:02Z</time>
      </trkpt>
      <trkpt lat="42.565920000" lon="-2.415588000">
        <ele>643.80</ele>
        <time>2017-02-18T09:21:03Z</time>
      </trkpt>
      <trkpt lat="42.565907000" lon="-2.415571000">
        <ele>643.80</ele>
        <time>2017-02-18T09:21:04Z</time>
      </trkpt>
      <trkpt lat="42.565898000" lon="-2.415550000">
        <ele>643.70</ele>
        <time>2017-02-18T09:21:05Z</time>
      </trkpt>
      <trkpt lat="42.565896000" lon="-2.415532000">
        <ele>643.50</ele>
        <time>2017-02-18T09:21:06Z</time>
      </trkpt>
      <trkpt lat="42.565900000" lon="-2.415516000">
        <ele>643.30</ele>
        <time>2017-02-18T09:21:07Z</time>
      </trkpt>
      <trkpt lat="42.565912000" lon="-2.415508000">
        <ele>643.20</ele>
        <time>2017-02-18T09:21:08Z</time>
      </trkpt>
      <trkpt lat="42.565929000" lon="-2.415510000">
        <ele>643.10</ele>
        <time>2017-02-18T09:21:09Z</time>
      </trkpt>
      <trkpt lat="42.565951000" lon="-2.415517000">
        <ele>643.10</ele>
        <time>2017-02-18T09:21:10Z</time>
      </trkpt>
      <trkpt lat="42.565976000" lon="-2.415525000">
        <ele>643.00</ele>
        <time>2017-02-18T09:21:11Z</time>
      </trkpt>
      <trkpt lat="42.565994000" lon="-2.415530000">
        <ele>643.10</ele>
        <time>2017-02-18T09:21:12Z</time>
      </trkpt>
      <trkpt lat="42.566031000" lon="-2.415527000">
        <ele>643.30</ele>
        <time>2017-02-18T09:21:14Z</time>
      </trkpt>
      <trkpt lat="42.566049000" lon="-2.415522000">
        <ele>643.40</ele>
        <time>2017-02-18T09:21:15Z</time>
      </trkpt>
      <trkpt lat="42.566068000" lon="-2.415517000">
        <ele>643.60</ele>
        <time>2017-02-18T09:21:16Z</time>
      </trkpt>
      <trkpt lat="42.566090000" lon="-2.415508000">
        <ele>643.80</ele>
        <time>2017-02-18T09:21:17Z</time>
      </trkpt>
      <trkpt lat="42.566108000" lon="-2.415504000">
        <ele>644.00</ele>
        <time>2017-02-18T09:21:18Z</time>
      </trkpt>
      <trkpt lat="42.566128000" lon="-2.415502000">
        <ele>644.20</ele>
        <time>2017-02-18T09:21:19Z</time>
      </trkpt>
      <trkpt lat="42.566146000" lon="-2.415501000">
        <ele>644.40</ele>
        <time>2017-02-18T09:21:20Z</time>
      </trkpt>
      <trkpt lat="42.566159000" lon="-2.415509000">
        <ele>644.50</ele>
        <time>2017-02-18T09:21:21Z</time>
      </trkpt>
      <trkpt lat="42.566173000" lon="-2.415513000">
        <ele>644.50</ele>
        <time>2017-02-18T09:21:22Z</time>
      </trkpt>
      <trkpt lat="42.566187000" lon="-2.415524000">
        <ele>644.60</ele>
        <time>2017-02-18T09:21:23Z</time>
      </trkpt>
      <trkpt lat="42.566196000" lon="-2.415526000">
        <ele>644.60</ele>
        <time>2017-02-18T09:21:24Z</time>
      </trkpt>
      <trkpt lat="42.566208000" lon="-2.415526000">
        <ele>644.70</ele>
        <time>2017-02-18T09:21:25Z</time>
      </trkpt>
      <trkpt lat="42.566217000" lon="-2.415524000">
        <ele>644.80</ele>
        <time>2017-02-18T09:21:26Z</time>
      </trkpt>
      <trkpt lat="42.566225000" lon="-2.415519000">
        <ele>645.00</ele>
        <time>2017-02-18T09:21:27Z</time>
      </trkpt>
      <trkpt lat="42.566234000" lon="-2.415520000">
        <ele>645.00</ele>
        <time>2017-02-18T09:21:28Z</time>
      </trkpt>
      <trkpt lat="42.566246000" lon="-2.415519000">
        <ele>645.10</ele>
        <time>2017-02-18T09:21:29Z</time>
      </trkpt>
      <trkpt lat="42.566257000" lon="-2.415520000">
        <ele>645.20</ele>
        <time>2017-02-18T09:21:30Z</time>
      </trkpt>
      <trkpt lat="42.566266000" lon="-2.415514000">
        <ele>645.20</ele>
        <time>2017-02-18T09:21:31Z</time>
      </trkpt>
      <trkpt lat="42.566277000" lon="-2.415508000">
        <ele>645.20</ele>
        <time>2017-02-18T09:21:32Z</time>
      </trkpt>
      <trkpt lat="42.566290000" lon="-2.415499000">
        <ele>645.20</ele>
        <time>2017-02-18T09:21:33Z</time>
      </trkpt>
      <trkpt lat="42.566304000" lon="-2.415487000">
        <ele>645.30</ele>
        <time>2017-02-18T09:21:34Z</time>
      </trkpt>
      <trkpt lat="42.566316000" lon="-2.415471000">
        <ele>645.30</ele>
        <time>2017-02-18T09:21:35Z</time>
      </trkpt>
      <trkpt lat="42.566326000" lon="-2.415454000">
        <ele>645.30</ele>
        <time>2017-02-18T09:21:36Z</time>
      </trkpt>
      <trkpt lat="42.566336000" lon="-2.415427000">
        <ele>645.30</ele>
        <time>2017-02-18T09:21:37Z</time>
      </trkpt>
      <trkpt lat="42.566347000" lon="-2.415381000">
        <ele>645.00</ele>
        <time>2017-02-18T09:21:38Z</time>
      </trkpt>
      <trkpt lat="42.566357000" lon="-2.415329000">
        <ele>644.80</ele>
        <time>2017-02-18T09:21:39Z</time>
      </trkpt>
      <trkpt lat="42.566369000" lon="-2.415275000">
        <ele>644.60</ele>
        <time>2017-02-18T09:21:40Z</time>
      </trkpt>
      <trkpt lat="42.566385000" lon="-2.415218000">
        <ele>644.30</ele>
        <time>2017-02-18T09:21:41Z</time>
      </trkpt>
      <trkpt lat="42.566403000" lon="-2.415155000">
        <ele>643.70</ele>
        <time>2017-02-18T09:21:42Z</time>
      </trkpt>
      <trkpt lat="42.566418000" lon="-2.415095000">
        <ele>643.30</ele>
        <time>2017-02-18T09:21:43Z</time>
      </trkpt>
      <trkpt lat="42.566434000" lon="-2.415031000">
        <ele>642.20</ele>
        <time>2017-02-18T09:21:44Z</time>
      </trkpt>
      <trkpt lat="42.566451000" lon="-2.414968000">
        <ele>641.40</ele>
        <time>2017-02-18T09:21:45Z</time>
      </trkpt>
      <trkpt lat="42.566466000" lon="-2.414906000">
        <ele>640.30</ele>
        <time>2017-02-18T09:21:46Z</time>
      </trkpt>
      <trkpt lat="42.566482000" lon="-2.414841000">
        <ele>639.50</ele>
        <time>2017-02-18T09:21:47Z</time>
      </trkpt>
      <trkpt lat="42.566499000" lon="-2.414774000">
        <ele>638.30</ele>
        <time>2017-02-18T09:21:48Z</time>
      </trkpt>
      <trkpt lat="42.566518000" lon="-2.414710000">
        <ele>637.40</ele>
        <time>2017-02-18T09:21:49Z</time>
      </trkpt>
      <trkpt lat="42.566537000" lon="-2.414655000">
        <ele>635.30</ele>
        <time>2017-02-18T09:21:50Z</time>
      </trkpt>
      <trkpt lat="42.566546000" lon="-2.414609000">
        <ele>633.70</ele>
        <time>2017-02-18T09:21:51Z</time>
      </trkpt>
      <trkpt lat="42.566547000" lon="-2.414557000">
        <ele>632.50</ele>
        <time>2017-02-18T09:21:52Z</time>
      </trkpt>
      <trkpt lat="42.566557000" lon="-2.414508000">
        <ele>631.60</ele>
        <time>2017-02-18T09:21:53Z</time>
      </trkpt>
      <trkpt lat="42.566569000" lon="-2.414450000">
        <ele>630.80</ele>
        <time>2017-02-18T09:21:54Z</time>
      </trkpt>
      <trkpt lat="42.566581000" lon="-2.414394000">
        <ele>630.30</ele>
        <time>2017-02-18T09:21:55Z</time>
      </trkpt>
      <trkpt lat="42.566595000" lon="-2.414347000">
        <ele>629.30</ele>
        <time>2017-02-18T09:21:56Z</time>
      </trkpt>
      <trkpt lat="42.566602000" lon="-2.414302000">
        <ele>628.50</ele>
        <time>2017-02-18T09:21:57Z</time>
      </trkpt>
      <trkpt lat="42.566611000" lon="-2.414275000">
        <ele>627.70</ele>
        <time>2017-02-18T09:21:58Z</time>
      </trkpt>
      <trkpt lat="42.566622000" lon="-2.414242000">
        <ele>627.10</ele>
        <time>2017-02-18T09:21:59Z</time>
      </trkpt>
      <trkpt lat="42.566628000" lon="-2.414208000">
        <ele>626.50</ele>
        <time>2017-02-18T09:22:00Z</time>
      </trkpt>
      <trkpt lat="42.566624000" lon="-2.414178000">
        <ele>626.00</ele>
        <time>2017-02-18T09:22:01Z</time>
      </trkpt>
      <trkpt lat="42.566613000" lon="-2.414143000">
        <ele>625.50</ele>
        <time>2017-02-18T09:22:02Z</time>
      </trkpt>
      <trkpt lat="42.566601000" lon="-2.414104000">
        <ele>625.20</ele>
        <time>2017-02-18T09:22:03Z</time>
      </trkpt>
      <trkpt lat="42.566586000" lon="-2.414063000">
        <ele>624.90</ele>
        <time>2017-02-18T09:22:04Z</time>
      </trkpt>
      <trkpt lat="42.566572000" lon="-2.414017000">
        <ele>624.70</ele>
        <time>2017-02-18T09:22:05Z</time>
      </trkpt>
      <trkpt lat="42.566556000" lon="-2.413969000">
        <ele>624.50</ele>
        <time>2017-02-18T09:22:06Z</time>
      </trkpt>
      <trkpt lat="42.566541000" lon="-2.413919000">
        <ele>624.40</ele>
        <time>2017-02-18T09:22:07Z</time>
      </trkpt>
      <trkpt lat="42.566527000" lon="-2.413875000">
        <ele>624.40</ele>
        <time>2017-02-18T09:22:08Z</time>
      </trkpt>
      <trkpt lat="42.566513000" lon="-2.413838000">
        <ele>624.40</ele>
        <time>2017-02-18T09:22:09Z</time>
      </trkpt>
      <trkpt lat="42.566503000" lon="-2.413805000">
        <ele>624.40</ele>
        <time>2017-02-18T09:22:10Z</time>
      </trkpt>
      <trkpt lat="42.566495000" lon="-2.413777000">
        <ele>624.40</ele>
        <time>2017-02-18T09:22:11Z</time>
      </trkpt>
      <trkpt lat="42.566490000" lon="-2.413752000">
        <ele>624.20</ele>
        <time>2017-02-18T09:22:12Z</time>
      </trkpt>
      <trkpt lat="42.566483000" lon="-2.413725000">
        <ele>624.10</ele>
        <time>2017-02-18T09:22:13Z</time>
      </trkpt>
      <trkpt lat="42.566470000" lon="-2.413683000">
        <ele>623.70</ele>
        <time>2017-02-18T09:22:15Z</time>
      </trkpt>
      <trkpt lat="42.566470000" lon="-2.413667000">
        <ele>623.60</ele>
        <time>2017-02-18T09:22:16Z</time>
      </trkpt>
      <trkpt lat="42.566471000" lon="-2.413653000">
        <ele>623.50</ele>
        <time>2017-02-18T09:22:17Z</time>
      </trkpt>
      <trkpt lat="42.566477000" lon="-2.413639000">
        <ele>623.30</ele>
        <time>2017-02-18T09:22:18Z</time>
      </trkpt>
      <trkpt lat="42.566481000" lon="-2.413628000">
        <ele>623.20</ele>
        <time>2017-02-18T09:22:19Z</time>
      </trkpt>
      <trkpt lat="42.566487000" lon="-2.413615000">
        <ele>623.10</ele>
        <time>2017-02-18T09:22:20Z</time>
      </trkpt>
      <trkpt lat="42.566497000" lon="-2.413606000">
        <ele>623.00</ele>
        <time>2017-02-18T09:22:21Z</time>
      </trkpt>
      <trkpt lat="42.566505000" lon="-2.413595000">
        <ele>622.90</ele>
        <time>2017-02-18T09:22:22Z</time>
      </trkpt>
      <trkpt lat="42.566514000" lon="-2.413584000">
        <ele>622.90</ele>
        <time>2017-02-18T09:22:23Z</time>
      </trkpt>
      <trkpt lat="42.566519000" lon="-2.413567000">
        <ele>622.90</ele>
        <time>2017-02-18T09:22:24Z</time>
      </trkpt>
      <trkpt lat="42.566520000" lon="-2.413547000">
        <ele>622.80</ele>
        <time>2017-02-18T09:22:25Z</time>
      </trkpt>
      <trkpt lat="42.566521000" lon="-2.413532000">
        <ele>622.80</ele>
        <time>2017-02-18T09:22:26Z</time>
      </trkpt>
      <trkpt lat="42.566526000" lon="-2.413516000">
        <ele>622.80</ele>
        <time>2017-02-18T09:22:27Z</time>
      </trkpt>
      <trkpt lat="42.566531000" lon="-2.413502000">
        <ele>622.80</ele>
        <time>2017-02-18T09:22:28Z</time>
      </trkpt>
      <trkpt lat="42.566530000" lon="-2.413488000">
        <ele>622.80</ele>
        <time>2017-02-18T09:22:29Z</time>
      </trkpt>
      <trkpt lat="42.566532000" lon="-2.413469000">
        <ele>622.80</ele>
        <time>2017-02-18T09:22:30Z</time>
      </trkpt>
      <trkpt lat="42.566530000" lon="-2.413450000">
        <ele>622.80</ele>
        <time>2017-02-18T09:22:31Z</time>
      </trkpt>
      <trkpt lat="42.566529000" lon="-2.413433000">
        <ele>622.90</ele>
        <time>2017-02-18T09:22:32Z</time>
      </trkpt>
      <trkpt lat="42.566529000" lon="-2.413417000">
        <ele>623.00</ele>
        <time>2017-02-18T09:22:33Z</time>
      </trkpt>
      <trkpt lat="42.566530000" lon="-2.413403000">
        <ele>623.10</ele>
        <time>2017-02-18T09:22:34Z</time>
      </trkpt>
      <trkpt lat="42.566535000" lon="-2.413390000">
        <ele>623.20</ele>
        <time>2017-02-18T09:22:35Z</time>
      </trkpt>
      <trkpt lat="42.566536000" lon="-2.413371000">
        <ele>623.40</ele>
        <time>2017-02-18T09:22:36Z</time>
      </trkpt>
      <trkpt lat="42.566536000" lon="-2.413361000">
        <ele>623.50</ele>
        <time>2017-02-18T09:22:37Z</time>
      </trkpt>
      <trkpt lat="42.566536000" lon="-2.413352000">
        <ele>623.80</ele>
        <time>2017-02-18T09:22:38Z</time>
      </trkpt>
      <trkpt lat="42.566538000" lon="-2.413349000">
        <ele>624.00</ele>
        <time>2017-02-18T09:22:39Z</time>
      </trkpt>
      <trkpt lat="42.566538000" lon="-2.413351000">
        <ele>624.10</ele>
        <time>2017-02-18T09:22:40Z</time>
      </trkpt>
      <trkpt lat="42.566541000" lon="-2.413349000">
        <ele>624.30</ele>
        <time>2017-02-18T09:22:41Z</time>
      </trkpt>
      <trkpt lat="42.566540000" lon="-2.413349000">
        <ele>624.50</ele>
        <time>2017-02-18T09:22:42Z</time>
      </trkpt>
      <trkpt lat="42.566541000" lon="-2.413347000">
        <ele>624.60</ele>
        <time>2017-02-18T09:22:43Z</time>
      </trkpt>
      <trkpt lat="42.566542000" lon="-2.413347000">
        <ele>624.90</ele>
        <time>2017-02-18T09:22:44Z</time>
      </trkpt>
      <trkpt lat="42.566541000" lon="-2.413344000">
        <ele>625.10</ele>
        <time>2017-02-18T09:22:45Z</time>
      </trkpt>
      <trkpt lat="42.566541000" lon="-2.413342000">
        <ele>625.20</ele>
        <time>2017-02-18T09:22:46Z</time>
      </trkpt>
      <trkpt lat="42.566541000" lon="-2.413341000">
        <ele>625.30</ele>
        <time>2017-02-18T09:22:47Z</time>
      </trkpt>
      <trkpt lat="42.566539000" lon="-2.413340000">
        <ele>625.30</ele>
        <time>2017-02-18T09:22:48Z</time>
      </trkpt>
      <trkpt lat="42.566539000" lon="-2.413337000">
        <ele>625.30</ele>
        <time>2017-02-18T09:22:49Z</time>
      </trkpt>
      <trkpt lat="42.566538000" lon="-2.413338000">
        <ele>625.20</ele>
        <time>2017-02-18T09:22:50Z</time>
      </trkpt>
      <trkpt lat="42.566538000" lon="-2.413337000">
        <ele>625.10</ele>
        <time>2017-02-18T09:22:51Z</time>
      </trkpt>
      <trkpt lat="42.566538000" lon="-2.413336000">
        <ele>625.00</ele>
        <time>2017-02-18T09:22:52Z</time>
      </trkpt>
      <trkpt lat="42.566539000" lon="-2.413334000">
        <ele>624.90</ele>
        <time>2017-02-18T09:22:53Z</time>
      </trkpt>
      <trkpt lat="42.566540000" lon="-2.413334000">
        <ele>624.90</ele>
        <time>2017-02-18T09:22:54Z</time>
      </trkpt>
      <trkpt lat="42.566541000" lon="-2.413334000">
        <ele>624.90</ele>
        <time>2017-02-18T09:22:55Z</time>
      </trkpt>
      <trkpt lat="42.566541000" lon="-2.413334000">
        <ele>625.00</ele>
        <time>2017-02-18T09:22:56Z</time>
      </trkpt>
      <trkpt lat="42.566541000" lon="-2.413334000">
        <ele>625.00</ele>
        <time>2017-02-18T09:22:57Z</time>
      </trkpt>
      <trkpt lat="42.566541000" lon="-2.413334000">
        <ele>625.10</ele>
        <time>2017-02-18T09:22:58Z</time>
      </trkpt>
      <trkpt lat="42.566542000" lon="-2.413334000">
        <ele>625.20</ele>
        <time>2017-02-18T09:22:59Z</time>
      </trkpt>
      <trkpt lat="42.566542000" lon="-2.413336000">
        <ele>625.20</ele>
        <time>2017-02-18T09:23:00Z</time>
      </trkpt>
      <trkpt lat="42.566540000" lon="-2.413337000">
        <ele>625.30</ele>
        <time>2017-02-18T09:23:01Z</time>
      </trkpt>
      <trkpt lat="42.566539000" lon="-2.413336000">
        <ele>625.20</ele>
        <time>2017-02-18T09:23:02Z</time>
      </trkpt>
      <trkpt lat="42.566533000" lon="-2.413332000">
        <ele>625.20</ele>
        <time>2017-02-18T09:23:03Z</time>
      </trkpt>
      <trkpt lat="42.566525000" lon="-2.413339000">
        <ele>625.20</ele>
        <time>2017-02-18T09:23:04Z</time>
      </trkpt>
      <trkpt lat="42.566515000" lon="-2.413354000">
        <ele>625.20</ele>
        <time>2017-02-18T09:23:05Z</time>
      </trkpt>
      <trkpt lat="42.566511000" lon="-2.413367000">
        <ele>625.20</ele>
        <time>2017-02-18T09:23:06Z</time>
      </trkpt>
      <trkpt lat="42.566509000" lon="-2.413382000">
        <ele>625.30</ele>
        <time>2017-02-18T09:23:07Z</time>
      </trkpt>
      <trkpt lat="42.566511000" lon="-2.413410000">
        <ele>625.30</ele>
        <time>2017-02-18T09:23:08Z</time>
      </trkpt>
      <trkpt lat="42.566511000" lon="-2.413453000">
        <ele>625.30</ele>
        <time>2017-02-18T09:23:09Z</time>
      </trkpt>
      <trkpt lat="42.566513000" lon="-2.413493000">
        <ele>625.10</ele>
        <time>2017-02-18T09:23:10Z</time>
      </trkpt>
      <trkpt lat="42.566518000" lon="-2.413529000">
        <ele>625.00</ele>
        <time>2017-02-18T09:23:11Z</time>
      </trkpt>
      <trkpt lat="42.566523000" lon="-2.413552000">
        <ele>624.80</ele>
        <time>2017-02-18T09:23:12Z</time>
      </trkpt>
      <trkpt lat="42.566530000" lon="-2.413574000">
        <ele>624.60</ele>
        <time>2017-02-18T09:23:13Z</time>
      </trkpt>
      <trkpt lat="42.566535000" lon="-2.413596000">
        <ele>624.10</ele>
        <time>2017-02-18T09:23:14Z</time>
      </trkpt>
      <trkpt lat="42.566524000" lon="-2.413627000">
        <ele>623.60</ele>
        <time>2017-02-18T09:23:16Z</time>
      </trkpt>
      <trkpt lat="42.566514000" lon="-2.413632000">
        <ele>623.40</ele>
        <time>2017-02-18T09:23:17Z</time>
      </trkpt>
      <trkpt lat="42.566505000" lon="-2.413630000">
        <ele>623.30</ele>
        <time>2017-02-18T09:23:18Z</time>
      </trkpt>
      <trkpt lat="42.566503000" lon="-2.413628000">
        <ele>623.10</ele>
        <time>2017-02-18T09:23:19Z</time>
      </trkpt>
      <trkpt lat="42.566503000" lon="-2.413628000">
        <ele>623.00</ele>
        <time>2017-02-18T09:23:20Z</time>
      </trkpt>
      <trkpt lat="42.566502000" lon="-2.413626000">
        <ele>622.90</ele>
        <time>2017-02-18T09:23:21Z</time>
      </trkpt>
      <trkpt lat="42.566501000" lon="-2.413623000">
        <ele>622.80</ele>
        <time>2017-02-18T09:23:22Z</time>
      </trkpt>
      <trkpt lat="42.566498000" lon="-2.413621000">
        <ele>622.80</ele>
        <time>2017-02-18T09:23:23Z</time>
      </trkpt>
      <trkpt lat="42.566499000" lon="-2.413619000">
        <ele>622.90</ele>
        <time>2017-02-18T09:23:24Z</time>
      </trkpt>
      <trkpt lat="42.566494000" lon="-2.413613000">
        <ele>623.00</ele>
        <time>2017-02-18T09:23:25Z</time>
      </trkpt>
      <trkpt lat="42.566491000" lon="-2.413608000">
        <ele>623.10</ele>
        <time>2017-02-18T09:23:26Z</time>
      </trkpt>
      <trkpt lat="42.566494000" lon="-2.413604000">
        <ele>623.20</ele>
        <time>2017-02-18T09:23:27Z</time>
      </trkpt>
      <trkpt lat="42.566493000" lon="-2.413598000">
        <ele>623.20</ele>
        <time>2017-02-18T09:23:28Z</time>
      </trkpt>
      <trkpt lat="42.566494000" lon="-2.413601000">
        <ele>623.10</ele>
        <time>2017-02-18T09:23:29Z</time>
      </trkpt>
      <trkpt lat="42.566497000" lon="-2.413600000">
        <ele>623.10</ele>
        <time>2017-02-18T09:23:30Z</time>
      </trkpt>
      <trkpt lat="42.566500000" lon="-2.413601000">
        <ele>623.10</ele>
        <time>2017-02-18T09:23:31Z</time>
      </trkpt>
      <trkpt lat="42.566502000" lon="-2.413603000">
        <ele>623.10</ele>
        <time>2017-02-18T09:23:32Z</time>
      </trkpt>
      <trkpt lat="42.566504000" lon="-2.413604000">
        <ele>623.10</ele>
        <time>2017-02-18T09:23:33Z</time>
      </trkpt>
      <trkpt lat="42.566506000" lon="-2.413605000">
        <ele>623.10</ele>
        <time>2017-02-18T09:23:34Z</time>
      </trkpt>
      <trkpt lat="42.566507000" lon="-2.413609000">
        <ele>623.10</ele>
        <time>2017-02-18T09:23:35Z</time>
      </trkpt>
      <trkpt lat="42.566506000" lon="-2.413610000">
        <ele>623.10</ele>
        <time>2017-02-18T09:23:36Z</time>
      </trkpt>
      <trkpt lat="42.566506000" lon="-2.413612000">
        <ele>623.10</ele>
        <time>2017-02-18T09:23:37Z</time>
      </trkpt>
      <trkpt lat="42.566508000" lon="-2.413613000">
        <ele>623.10</ele>
        <time>2017-02-18T09:23:38Z</time>
      </trkpt>
      <trkpt lat="42.566507000" lon="-2.413613000">
        <ele>623.10</ele>
        <time>2017-02-18T09:23:39Z</time>
      </trkpt>
      <trkpt lat="42.566505000" lon="-2.413614000">
        <ele>623.10</ele>
        <time>2017-02-18T09:23:40Z</time>
      </trkpt>
      <trkpt lat="42.566505000" lon="-2.413614000">
        <ele>623.00</ele>
        <time>2017-02-18T09:23:41Z</time>
      </trkpt>
      <trkpt lat="42.566506000" lon="-2.413615000">
        <ele>623.00</ele>
        <time>2017-02-18T09:23:42Z</time>
      </trkpt>
      <trkpt lat="42.566505000" lon="-2.413612000">
        <ele>623.00</ele>
        <time>2017-02-18T09:23:43Z</time>
      </trkpt>
      <trkpt lat="42.566505000" lon="-2.413612000">
        <ele>623.00</ele>
        <time>2017-02-18T09:23:44Z</time>
      </trkpt>
      <trkpt lat="42.566502000" lon="-2.413608000">
        <ele>623.00</ele>
        <time>2017-02-18T09:23:45Z</time>
      </trkpt>
      <trkpt lat="42.566504000" lon="-2.413608000">
        <ele>623.00</ele>
        <time>2017-02-18T09:23:46Z</time>
      </trkpt>
      <trkpt lat="42.566504000" lon="-2.413607000">
        <ele>623.00</ele>
        <time>2017-02-18T09:23:47Z</time>
      </trkpt>
      <trkpt lat="42.566502000" lon="-2.413608000">
        <ele>623.00</ele>
        <time>2017-02-18T09:23:48Z</time>
      </trkpt>
      <trkpt lat="42.566503000" lon="-2.413606000">
        <ele>623.10</ele>
        <time>2017-02-18T09:23:49Z</time>
      </trkpt>
      <trkpt lat="42.566504000" lon="-2.413605000">
        <ele>623.10</ele>
        <time>2017-02-18T09:23:50Z</time>
      </trkpt>
      <trkpt lat="42.566503000" lon="-2.413607000">
        <ele>623.10</ele>
        <time>2017-02-18T09:23:51Z</time>
      </trkpt>
      <trkpt lat="42.566503000" lon="-2.413608000">
        <ele>623.00</ele>
        <time>2017-02-18T09:23:52Z</time>
      </trkpt>
      <trkpt lat="42.566503000" lon="-2.413608000">
        <ele>622.90</ele>
        <time>2017-02-18T09:23:53Z</time>
      </trkpt>
      <trkpt lat="42.566501000" lon="-2.413609000">
        <ele>622.90</ele>
        <time>2017-02-18T09:23:54Z</time>
      </trkpt>
      <trkpt lat="42.566500000" lon="-2.413608000">
        <ele>622.90</ele>
        <time>2017-02-18T09:23:55Z</time>
      </trkpt>
      <trkpt lat="42.566501000" lon="-2.413608000">
        <ele>622.90</ele>
        <time>2017-02-18T09:23:56Z</time>
      </trkpt>
      <trkpt lat="42.566501000" lon="-2.413606000">
        <ele>622.90</ele>
        <time>2017-02-18T09:23:57Z</time>
      </trkpt>
      <trkpt lat="42.566500000" lon="-2.413604000">
        <ele>622.90</ele>
        <time>2017-02-18T09:23:58Z</time>
      </trkpt>
      <trkpt lat="42.566501000" lon="-2.413601000">
        <ele>622.90</ele>
        <time>2017-02-18T09:23:59Z</time>
      </trkpt>
      <trkpt lat="42.566506000" lon="-2.413597000">
        <ele>623.10</ele>
        <time>2017-02-18T09:24:00Z</time>
      </trkpt>
      <trkpt lat="42.566507000" lon="-2.413594000">
        <ele>623.20</ele>
        <time>2017-02-18T09:24:01Z</time>
      </trkpt>
      <trkpt lat="42.566508000" lon="-2.413592000">
        <ele>623.30</ele>
        <time>2017-02-18T09:24:02Z</time>
      </trkpt>
      <trkpt lat="42.566510000" lon="-2.413589000">
        <ele>623.40</ele>
        <time>2017-02-18T09:24:03Z</time>
      </trkpt>
      <trkpt lat="42.566509000" lon="-2.413586000">
        <ele>623.40</ele>
        <time>2017-02-18T09:24:04Z</time>
      </trkpt>
      <trkpt lat="42.566510000" lon="-2.413583000">
        <ele>623.40</ele>
        <time>2017-02-18T09:24:05Z</time>
      </trkpt>
      <trkpt lat="42.566511000" lon="-2.413580000">
        <ele>623.40</ele>
        <time>2017-02-18T09:24:06Z</time>
      </trkpt>
      <trkpt lat="42.566513000" lon="-2.413579000">
        <ele>623.40</ele>
        <time>2017-02-18T09:24:07Z</time>
      </trkpt>
      <trkpt lat="42.566514000" lon="-2.413579000">
        <ele>623.40</ele>
        <time>2017-02-18T09:24:08Z</time>
      </trkpt>
      <trkpt lat="42.566511000" lon="-2.413580000">
        <ele>623.50</ele>
        <time>2017-02-18T09:24:09Z</time>
      </trkpt>
      <trkpt lat="42.566508000" lon="-2.413568000">
        <ele>623.50</ele>
        <time>2017-02-18T09:24:10Z</time>
      </trkpt>
      <trkpt lat="42.566506000" lon="-2.413553000">
        <ele>623.50</ele>
        <time>2017-02-18T09:24:11Z</time>
      </trkpt>
      <trkpt lat="42.566510000" lon="-2.413543000">
        <ele>623.60</ele>
        <time>2017-02-18T09:24:12Z</time>
      </trkpt>
      <trkpt lat="42.566516000" lon="-2.413533000">
        <ele>623.60</ele>
        <time>2017-02-18T09:24:13Z</time>
      </trkpt>
      <trkpt lat="42.566521000" lon="-2.413518000">
        <ele>623.60</ele>
        <time>2017-02-18T09:24:14Z</time>
      </trkpt>
      <trkpt lat="42.566526000" lon="-2.413500000">
        <ele>623.60</ele>
        <time>2017-02-18T09:24:15Z</time>
      </trkpt>
      <trkpt lat="42.566530000" lon="-2.413487000">
        <ele>623.70</ele>
        <time>2017-02-18T09:24:16Z</time>
      </trkpt>
      <trkpt lat="42.566534000" lon="-2.413450000">
        <ele>623.70</ele>
        <time>2017-02-18T09:24:18Z</time>
      </trkpt>
      <trkpt lat="42.566534000" lon="-2.413431000">
        <ele>623.70</ele>
        <time>2017-02-18T09:24:19Z</time>
      </trkpt>
      <trkpt lat="42.566533000" lon="-2.413413000">
        <ele>623.70</ele>
        <time>2017-02-18T09:24:20Z</time>
      </trkpt>
      <trkpt lat="42.566534000" lon="-2.413398000">
        <ele>623.70</ele>
        <time>2017-02-18T09:24:21Z</time>
      </trkpt>
      <trkpt lat="42.566534000" lon="-2.413382000">
        <ele>623.80</ele>
        <time>2017-02-18T09:24:22Z</time>
      </trkpt>
      <trkpt lat="42.566533000" lon="-2.413361000">
        <ele>623.80</ele>
        <time>2017-02-18T09:24:23Z</time>
      </trkpt>
      <trkpt lat="42.566532000" lon="-2.413341000">
        <ele>623.90</ele>
        <time>2017-02-18T09:24:24Z</time>
      </trkpt>
      <trkpt lat="42.566534000" lon="-2.413324000">
        <ele>623.90</ele>
        <time>2017-02-18T09:24:25Z</time>
      </trkpt>
      <trkpt lat="42.566534000" lon="-2.413305000">
        <ele>624.10</ele>
        <time>2017-02-18T09:24:26Z</time>
      </trkpt>
      <trkpt lat="42.566529000" lon="-2.413289000">
        <ele>624.30</ele>
        <time>2017-02-18T09:24:27Z</time>
      </trkpt>
      <trkpt lat="42.566523000" lon="-2.413269000">
        <ele>624.70</ele>
        <time>2017-02-18T09:24:28Z</time>
      </trkpt>
      <trkpt lat="42.566514000" lon="-2.413257000">
        <ele>624.90</ele>
        <time>2017-02-18T09:24:29Z</time>
      </trkpt>
      <trkpt lat="42.566496000" lon="-2.413244000">
        <ele>625.40</ele>
        <time>2017-02-18T09:24:30Z</time>
      </trkpt>
      <trkpt lat="42.566474000" lon="-2.413241000">
        <ele>625.70</ele>
        <time>2017-02-18T09:24:31Z</time>
      </trkpt>
      <trkpt lat="42.566453000" lon="-2.413241000">
        <ele>626.00</ele>
        <time>2017-02-18T09:24:32Z</time>
      </trkpt>
      <trkpt lat="42.566434000" lon="-2.413234000">
        <ele>626.30</ele>
        <time>2017-02-18T09:24:33Z</time>
      </trkpt>
      <trkpt lat="42.566422000" lon="-2.413224000">
        <ele>626.50</ele>
        <time>2017-02-18T09:24:34Z</time>
      </trkpt>
      <trkpt lat="42.566406000" lon="-2.413212000">
        <ele>626.60</ele>
        <time>2017-02-18T09:24:35Z</time>
      </trkpt>
      <trkpt lat="42.566395000" lon="-2.413200000">
        <ele>626.90</ele>
        <time>2017-02-18T09:24:36Z</time>
      </trkpt>
      <trkpt lat="42.566380000" lon="-2.413189000">
        <ele>627.10</ele>
        <time>2017-02-18T09:24:37Z</time>
      </trkpt>
      <trkpt lat="42.566363000" lon="-2.413179000">
        <ele>627.40</ele>
        <time>2017-02-18T09:24:38Z</time>
      </trkpt>
      <trkpt lat="42.566355000" lon="-2.413168000">
        <ele>627.70</ele>
        <time>2017-02-18T09:24:39Z</time>
      </trkpt>
      <trkpt lat="42.566344000" lon="-2.413159000">
        <ele>628.00</ele>
        <time>2017-02-18T09:24:40Z</time>
      </trkpt>
      <trkpt lat="42.566334000" lon="-2.413155000">
        <ele>628.30</ele>
        <time>2017-02-18T09:24:41Z</time>
      </trkpt>
      <trkpt lat="42.566322000" lon="-2.413148000">
        <ele>628.70</ele>
        <time>2017-02-18T09:24:42Z</time>
      </trkpt>
      <trkpt lat="42.566311000" lon="-2.413143000">
        <ele>629.00</ele>
        <time>2017-02-18T09:24:43Z</time>
      </trkpt>
      <trkpt lat="42.566299000" lon="-2.413136000">
        <ele>629.30</ele>
        <time>2017-02-18T09:24:44Z</time>
      </trkpt>
      <trkpt lat="42.566291000" lon="-2.413129000">
        <ele>629.40</ele>
        <time>2017-02-18T09:24:45Z</time>
      </trkpt>
      <trkpt lat="42.566286000" lon="-2.413119000">
        <ele>629.70</ele>
        <time>2017-02-18T09:24:46Z</time>
      </trkpt>
      <trkpt lat="42.566277000" lon="-2.413111000">
        <ele>629.90</ele>
        <time>2017-02-18T09:24:47Z</time>
      </trkpt>
      <trkpt lat="42.566271000" lon="-2.413099000">
        <ele>630.20</ele>
        <time>2017-02-18T09:24:48Z</time>
      </trkpt>
      <trkpt lat="42.566264000" lon="-2.413093000">
        <ele>630.40</ele>
        <time>2017-02-18T09:24:49Z</time>
      </trkpt>
      <trkpt lat="42.566256000" lon="-2.413085000">
        <ele>630.50</ele>
        <time>2017-02-18T09:24:50Z</time>
      </trkpt>
      <trkpt lat="42.566247000" lon="-2.413078000">
        <ele>630.60</ele>
        <time>2017-02-18T09:24:51Z</time>
      </trkpt>
      <trkpt lat="42.566237000" lon="-2.413071000">
        <ele>630.80</ele>
        <time>2017-02-18T09:24:52Z</time>
      </trkpt>
      <trkpt lat="42.566228000" lon="-2.413064000">
        <ele>630.80</ele>
        <time>2017-02-18T09:24:53Z</time>
      </trkpt>
      <trkpt lat="42.566220000" lon="-2.413058000">
        <ele>631.00</ele>
        <time>2017-02-18T09:24:54Z</time>
      </trkpt>
      <trkpt lat="42.566212000" lon="-2.413051000">
        <ele>631.10</ele>
        <time>2017-02-18T09:24:55Z</time>
      </trkpt>
      <trkpt lat="42.566203000" lon="-2.413045000">
        <ele>631.20</ele>
        <time>2017-02-18T09:24:56Z</time>
      </trkpt>
      <trkpt lat="42.566194000" lon="-2.413039000">
        <ele>631.30</ele>
        <time>2017-02-18T09:24:57Z</time>
      </trkpt>
      <trkpt lat="42.566184000" lon="-2.413035000">
        <ele>631.40</ele>
        <time>2017-02-18T09:24:58Z</time>
      </trkpt>
      <trkpt lat="42.566174000" lon="-2.413027000">
        <ele>631.40</ele>
        <time>2017-02-18T09:24:59Z</time>
      </trkpt>
      <trkpt lat="42.566165000" lon="-2.413020000">
        <ele>631.50</ele>
        <time>2017-02-18T09:25:00Z</time>
      </trkpt>
      <trkpt lat="42.566154000" lon="-2.413015000">
        <ele>631.50</ele>
        <time>2017-02-18T09:25:01Z</time>
      </trkpt>
      <trkpt lat="42.566142000" lon="-2.413010000">
        <ele>631.80</ele>
        <time>2017-02-18T09:25:02Z</time>
      </trkpt>
      <trkpt lat="42.566131000" lon="-2.413003000">
        <ele>632.00</ele>
        <time>2017-02-18T09:25:03Z</time>
      </trkpt>
      <trkpt lat="42.566120000" lon="-2.412996000">
        <ele>632.20</ele>
        <time>2017-02-18T09:25:04Z</time>
      </trkpt>
      <trkpt lat="42.566113000" lon="-2.412987000">
        <ele>632.30</ele>
        <time>2017-02-18T09:25:05Z</time>
      </trkpt>
      <trkpt lat="42.566101000" lon="-2.412981000">
        <ele>632.50</ele>
        <time>2017-02-18T09:25:06Z</time>
      </trkpt>
      <trkpt lat="42.566089000" lon="-2.412975000">
        <ele>632.60</ele>
        <time>2017-02-18T09:25:07Z</time>
      </trkpt>
      <trkpt lat="42.566078000" lon="-2.412970000">
        <ele>632.80</ele>
        <time>2017-02-18T09:25:08Z</time>
      </trkpt>
      <trkpt lat="42.566070000" lon="-2.412963000">
        <ele>633.00</ele>
        <time>2017-02-18T09:25:09Z</time>
      </trkpt>
      <trkpt lat="42.566062000" lon="-2.412956000">
        <ele>633.10</ele>
        <time>2017-02-18T09:25:10Z</time>
      </trkpt>
      <trkpt lat="42.566053000" lon="-2.412947000">
        <ele>633.30</ele>
        <time>2017-02-18T09:25:11Z</time>
      </trkpt>
      <trkpt lat="42.566044000" lon="-2.412938000">
        <ele>633.60</ele>
        <time>2017-02-18T09:25:12Z</time>
      </trkpt>
      <trkpt lat="42.566033000" lon="-2.412932000">
        <ele>633.80</ele>
        <time>2017-02-18T09:25:13Z</time>
      </trkpt>
      <trkpt lat="42.566024000" lon="-2.412924000">
        <ele>634.20</ele>
        <time>2017-02-18T09:25:14Z</time>
      </trkpt>
      <trkpt lat="42.566017000" lon="-2.412917000">
        <ele>634.50</ele>
        <time>2017-02-18T09:25:15Z</time>
      </trkpt>
      <trkpt lat="42.566010000" lon="-2.412907000">
        <ele>634.90</ele>
        <time>2017-02-18T09:25:16Z</time>
      </trkpt>
      <trkpt lat="42.566001000" lon="-2.412898000">
        <ele>635.20</ele>
        <time>2017-02-18T09:25:17Z</time>
      </trkpt>
      <trkpt lat="42.565992000" lon="-2.412892000">
        <ele>635.50</ele>
        <time>2017-02-18T09:25:18Z</time>
      </trkpt>
      <trkpt lat="42.565970000" lon="-2.412875000">
        <ele>635.90</ele>
        <time>2017-02-18T09:25:20Z</time>
      </trkpt>
      <trkpt lat="42.565961000" lon="-2.412868000">
        <ele>636.00</ele>
        <time>2017-02-18T09:25:21Z</time>
      </trkpt>
      <trkpt lat="42.565947000" lon="-2.412865000">
        <ele>636.10</ele>
        <time>2017-02-18T09:25:22Z</time>
      </trkpt>
      <trkpt lat="42.565934000" lon="-2.412861000">
        <ele>636.30</ele>
        <time>2017-02-18T09:25:23Z</time>
      </trkpt>
      <trkpt lat="42.565920000" lon="-2.412861000">
        <ele>636.40</ele>
        <time>2017-02-18T09:25:24Z</time>
      </trkpt>
      <trkpt lat="42.565907000" lon="-2.412854000">
        <ele>636.50</ele>
        <time>2017-02-18T09:25:25Z</time>
      </trkpt>
      <trkpt lat="42.565895000" lon="-2.412849000">
        <ele>636.80</ele>
        <time>2017-02-18T09:25:26Z</time>
      </trkpt>
      <trkpt lat="42.565883000" lon="-2.412844000">
        <ele>637.00</ele>
        <time>2017-02-18T09:25:27Z</time>
      </trkpt>
      <trkpt lat="42.565874000" lon="-2.412834000">
        <ele>637.20</ele>
        <time>2017-02-18T09:25:28Z</time>
      </trkpt>
      <trkpt lat="42.565865000" lon="-2.412828000">
        <ele>637.40</ele>
        <time>2017-02-18T09:25:29Z</time>
      </trkpt>
      <trkpt lat="42.565856000" lon="-2.412820000">
        <ele>637.50</ele>
        <time>2017-02-18T09:25:30Z</time>
      </trkpt>
      <trkpt lat="42.565848000" lon="-2.412811000">
        <ele>637.70</ele>
        <time>2017-02-18T09:25:31Z</time>
      </trkpt>
      <trkpt lat="42.565840000" lon="-2.412798000">
        <ele>637.90</ele>
        <time>2017-02-18T09:25:32Z</time>
      </trkpt>
      <trkpt lat="42.565832000" lon="-2.412789000">
        <ele>638.00</ele>
        <time>2017-02-18T09:25:33Z</time>
      </trkpt>
      <trkpt lat="42.565823000" lon="-2.412780000">
        <ele>638.10</ele>
        <time>2017-02-18T09:25:34Z</time>
      </trkpt>
      <trkpt lat="42.565816000" lon="-2.412769000">
        <ele>638.30</ele>
        <time>2017-02-18T09:25:35Z</time>
      </trkpt>
      <trkpt lat="42.565810000" lon="-2.412758000">
        <ele>638.60</ele>
        <time>2017-02-18T09:25:36Z</time>
      </trkpt>
      <trkpt lat="42.565801000" lon="-2.412748000">
        <ele>638.80</ele>
        <time>2017-02-18T09:25:37Z</time>
      </trkpt>
      <trkpt lat="42.565792000" lon="-2.412738000">
        <ele>639.10</ele>
        <time>2017-02-18T09:25:38Z</time>
      </trkpt>
      <trkpt lat="42.565786000" lon="-2.412728000">
        <ele>639.30</ele>
        <time>2017-02-18T09:25:39Z</time>
      </trkpt>
      <trkpt lat="42.565781000" lon="-2.412719000">
        <ele>639.50</ele>
        <time>2017-02-18T09:25:40Z</time>
      </trkpt>
      <trkpt lat="42.565777000" lon="-2.412707000">
        <ele>639.60</ele>
        <time>2017-02-18T09:25:41Z</time>
      </trkpt>
      <trkpt lat="42.565772000" lon="-2.412698000">
        <ele>639.90</ele>
        <time>2017-02-18T09:25:42Z</time>
      </trkpt>
      <trkpt lat="42.565766000" lon="-2.412685000">
        <ele>640.10</ele>
        <time>2017-02-18T09:25:43Z</time>
      </trkpt>
      <trkpt lat="42.565761000" lon="-2.412677000">
        <ele>640.20</ele>
        <time>2017-02-18T09:25:44Z</time>
      </trkpt>
      <trkpt lat="42.565756000" lon="-2.412663000">
        <ele>640.30</ele>
        <time>2017-02-18T09:25:45Z</time>
      </trkpt>
      <trkpt lat="42.565750000" lon="-2.412646000">
        <ele>640.40</ele>
        <time>2017-02-18T09:25:46Z</time>
      </trkpt>
      <trkpt lat="42.565748000" lon="-2.412633000">
        <ele>640.50</ele>
        <time>2017-02-18T09:25:47Z</time>
      </trkpt>
      <trkpt lat="42.565745000" lon="-2.412615000">
        <ele>640.70</ele>
        <time>2017-02-18T09:25:48Z</time>
      </trkpt>
      <trkpt lat="42.565736000" lon="-2.412601000">
        <ele>640.90</ele>
        <time>2017-02-18T09:25:49Z</time>
      </trkpt>
      <trkpt lat="42.565725000" lon="-2.412582000">
        <ele>641.20</ele>
        <time>2017-02-18T09:25:50Z</time>
      </trkpt>
      <trkpt lat="42.565713000" lon="-2.412571000">
        <ele>641.30</ele>
        <time>2017-02-18T09:25:51Z</time>
      </trkpt>
      <trkpt lat="42.565704000" lon="-2.412563000">
        <ele>641.50</ele>
        <time>2017-02-18T09:25:52Z</time>
      </trkpt>
      <trkpt lat="42.565697000" lon="-2.412558000">
        <ele>641.60</ele>
        <time>2017-02-18T09:25:53Z</time>
      </trkpt>
      <trkpt lat="42.565689000" lon="-2.412558000">
        <ele>641.90</ele>
        <time>2017-02-18T09:25:54Z</time>
      </trkpt>
      <trkpt lat="42.565678000" lon="-2.412558000">
        <ele>642.20</ele>
        <time>2017-02-18T09:25:55Z</time>
      </trkpt>
      <trkpt lat="42.565666000" lon="-2.412564000">
        <ele>642.40</ele>
        <time>2017-02-18T09:25:56Z</time>
      </trkpt>
      <trkpt lat="42.565657000" lon="-2.412575000">
        <ele>642.50</ele>
        <time>2017-02-18T09:25:57Z</time>
      </trkpt>
      <trkpt lat="42.565647000" lon="-2.412584000">
        <ele>642.60</ele>
        <time>2017-02-18T09:25:58Z</time>
      </trkpt>
      <trkpt lat="42.565641000" lon="-2.412598000">
        <ele>642.70</ele>
        <time>2017-02-18T09:25:59Z</time>
      </trkpt>
      <trkpt lat="42.565635000" lon="-2.412614000">
        <ele>642.80</ele>
        <time>2017-02-18T09:26:00Z</time>
      </trkpt>
      <trkpt lat="42.565629000" lon="-2.412624000">
        <ele>642.90</ele>
        <time>2017-02-18T09:26:01Z</time>
      </trkpt>
      <trkpt lat="42.565624000" lon="-2.412629000">
        <ele>643.10</ele>
        <time>2017-02-18T09:26:02Z</time>
      </trkpt>
      <trkpt lat="42.565618000" lon="-2.412639000">
        <ele>643.20</ele>
        <time>2017-02-18T09:26:03Z</time>
      </trkpt>
      <trkpt lat="42.565609000" lon="-2.412645000">
        <ele>643.40</ele>
        <time>2017-02-18T09:26:04Z</time>
      </trkpt>
      <trkpt lat="42.565599000" lon="-2.412649000">
        <ele>643.60</ele>
        <time>2017-02-18T09:26:05Z</time>
      </trkpt>
      <trkpt lat="42.565591000" lon="-2.412651000">
        <ele>643.70</ele>
        <time>2017-02-18T09:26:06Z</time>
      </trkpt>
      <trkpt lat="42.565581000" lon="-2.412659000">
        <ele>643.80</ele>
        <time>2017-02-18T09:26:07Z</time>
      </trkpt>
      <trkpt lat="42.565572000" lon="-2.412665000">
        <ele>643.90</ele>
        <time>2017-02-18T09:26:08Z</time>
      </trkpt>
      <trkpt lat="42.565560000" lon="-2.412672000">
        <ele>644.00</ele>
        <time>2017-02-18T09:26:09Z</time>
      </trkpt>
      <trkpt lat="42.565547000" lon="-2.412674000">
        <ele>644.00</ele>
        <time>2017-02-18T09:26:10Z</time>
      </trkpt>
      <trkpt lat="42.565535000" lon="-2.412673000">
        <ele>643.90</ele>
        <time>2017-02-18T09:26:11Z</time>
      </trkpt>
      <trkpt lat="42.565522000" lon="-2.412672000">
        <ele>644.00</ele>
        <time>2017-02-18T09:26:12Z</time>
      </trkpt>
      <trkpt lat="42.565509000" lon="-2.412672000">
        <ele>644.00</ele>
        <time>2017-02-18T09:26:13Z</time>
      </trkpt>
      <trkpt lat="42.565497000" lon="-2.412675000">
        <ele>644.00</ele>
        <time>2017-02-18T09:26:14Z</time>
      </trkpt>
      <trkpt lat="42.565487000" lon="-2.412680000">
        <ele>644.00</ele>
        <time>2017-02-18T09:26:15Z</time>
      </trkpt>
      <trkpt lat="42.565478000" lon="-2.412679000">
        <ele>644.30</ele>
        <time>2017-02-18T09:26:16Z</time>
      </trkpt>
      <trkpt lat="42.565467000" lon="-2.412682000">
        <ele>644.50</ele>
        <time>2017-02-18T09:26:17Z</time>
      </trkpt>
      <trkpt lat="42.565454000" lon="-2.412689000">
        <ele>644.70</ele>
        <time>2017-02-18T09:26:18Z</time>
      </trkpt>
      <trkpt lat="42.565444000" lon="-2.412694000">
        <ele>644.80</ele>
        <time>2017-02-18T09:26:19Z</time>
      </trkpt>
      <trkpt lat="42.565420000" lon="-2.412695000">
        <ele>645.00</ele>
        <time>2017-02-18T09:26:21Z</time>
      </trkpt>
      <trkpt lat="42.565408000" lon="-2.412695000">
        <ele>645.00</ele>
        <time>2017-02-18T09:26:22Z</time>
      </trkpt>
      <trkpt lat="42.565397000" lon="-2.412696000">
        <ele>645.00</ele>
        <time>2017-02-18T09:26:23Z</time>
      </trkpt>
      <trkpt lat="42.565388000" lon="-2.412696000">
        <ele>645.00</ele>
        <time>2017-02-18T09:26:24Z</time>
      </trkpt>
      <trkpt lat="42.565381000" lon="-2.412694000">
        <ele>645.10</ele>
        <time>2017-02-18T09:26:25Z</time>
      </trkpt>
      <trkpt lat="42.565372000" lon="-2.412692000">
        <ele>645.20</ele>
        <time>2017-02-18T09:26:26Z</time>
      </trkpt>
      <trkpt lat="42.565362000" lon="-2.412693000">
        <ele>645.40</ele>
        <time>2017-02-18T09:26:27Z</time>
      </trkpt>
      <trkpt lat="42.565350000" lon="-2.412690000">
        <ele>645.50</ele>
        <time>2017-02-18T09:26:28Z</time>
      </trkpt>
      <trkpt lat="42.565340000" lon="-2.412680000">
        <ele>645.50</ele>
        <time>2017-02-18T09:26:29Z</time>
      </trkpt>
      <trkpt lat="42.565331000" lon="-2.412675000">
        <ele>645.60</ele>
        <time>2017-02-18T09:26:30Z</time>
      </trkpt>
      <trkpt lat="42.565321000" lon="-2.412674000">
        <ele>645.60</ele>
        <time>2017-02-18T09:26:31Z</time>
      </trkpt>
      <trkpt lat="42.565311000" lon="-2.412673000">
        <ele>645.60</ele>
        <time>2017-02-18T09:26:32Z</time>
      </trkpt>
      <trkpt lat="42.565303000" lon="-2.412672000">
        <ele>645.60</ele>
        <time>2017-02-18T09:26:33Z</time>
      </trkpt>
      <trkpt lat="42.565293000" lon="-2.412670000">
        <ele>645.70</ele>
        <time>2017-02-18T09:26:34Z</time>
      </trkpt>
      <trkpt lat="42.565284000" lon="-2.412665000">
        <ele>645.90</ele>
        <time>2017-02-18T09:26:35Z</time>
      </trkpt>
      <trkpt lat="42.565276000" lon="-2.412666000">
        <ele>646.00</ele>
        <time>2017-02-18T09:26:36Z</time>
      </trkpt>
      <trkpt lat="42.565266000" lon="-2.412668000">
        <ele>646.20</ele>
        <time>2017-02-18T09:26:37Z</time>
      </trkpt>
      <trkpt lat="42.565254000" lon="-2.412664000">
        <ele>646.30</ele>
        <time>2017-02-18T09:26:38Z</time>
      </trkpt>
      <trkpt lat="42.565243000" lon="-2.412659000">
        <ele>646.30</ele>
        <time>2017-02-18T09:26:39Z</time>
      </trkpt>
      <trkpt lat="42.565234000" lon="-2.412654000">
        <ele>646.50</ele>
        <time>2017-02-18T09:26:40Z</time>
      </trkpt>
      <trkpt lat="42.565223000" lon="-2.412650000">
        <ele>646.60</ele>
        <time>2017-02-18T09:26:41Z</time>
      </trkpt>
      <trkpt lat="42.565214000" lon="-2.412645000">
        <ele>646.80</ele>
        <time>2017-02-18T09:26:42Z</time>
      </trkpt>
      <trkpt lat="42.565205000" lon="-2.412638000">
        <ele>646.90</ele>
        <time>2017-02-18T09:26:43Z</time>
      </trkpt>
      <trkpt lat="42.565192000" lon="-2.412632000">
        <ele>647.00</ele>
        <time>2017-02-18T09:26:44Z</time>
      </trkpt>
      <trkpt lat="42.565181000" lon="-2.412627000">
        <ele>647.10</ele>
        <time>2017-02-18T09:26:45Z</time>
      </trkpt>
      <trkpt lat="42.565169000" lon="-2.412624000">
        <ele>647.20</ele>
        <time>2017-02-18T09:26:46Z</time>
      </trkpt>
      <trkpt lat="42.565158000" lon="-2.412623000">
        <ele>647.20</ele>
        <time>2017-02-18T09:26:47Z</time>
      </trkpt>
      <trkpt lat="42.565148000" lon="-2.412620000">
        <ele>647.20</ele>
        <time>2017-02-18T09:26:48Z</time>
      </trkpt>
      <trkpt lat="42.565136000" lon="-2.412618000">
        <ele>647.30</ele>
        <time>2017-02-18T09:26:49Z</time>
      </trkpt>
      <trkpt lat="42.565125000" lon="-2.412619000">
        <ele>647.40</ele>
        <time>2017-02-18T09:26:50Z</time>
      </trkpt>
      <trkpt lat="42.565113000" lon="-2.412622000">
        <ele>647.50</ele>
        <time>2017-02-18T09:26:51Z</time>
      </trkpt>
      <trkpt lat="42.565104000" lon="-2.412623000">
        <ele>647.70</ele>
        <time>2017-02-18T09:26:52Z</time>
      </trkpt>
      <trkpt lat="42.565093000" lon="-2.412628000">
        <ele>647.80</ele>
        <time>2017-02-18T09:26:53Z</time>
      </trkpt>
      <trkpt lat="42.565082000" lon="-2.412627000">
        <ele>647.90</ele>
        <time>2017-02-18T09:26:54Z</time>
      </trkpt>
      <trkpt lat="42.565072000" lon="-2.412630000">
        <ele>647.90</ele>
        <time>2017-02-18T09:26:55Z</time>
      </trkpt>
      <trkpt lat="42.565059000" lon="-2.412631000">
        <ele>648.00</ele>
        <time>2017-02-18T09:26:56Z</time>
      </trkpt>
      <trkpt lat="42.565048000" lon="-2.412632000">
        <ele>648.10</ele>
        <time>2017-02-18T09:26:57Z</time>
      </trkpt>
      <trkpt lat="42.565033000" lon="-2.412632000">
        <ele>648.30</ele>
        <time>2017-02-18T09:26:58Z</time>
      </trkpt>
      <trkpt lat="42.565019000" lon="-2.412630000">
        <ele>648.50</ele>
        <time>2017-02-18T09:26:59Z</time>
      </trkpt>
      <trkpt lat="42.565004000" lon="-2.412627000">
        <ele>648.60</ele>
        <time>2017-02-18T09:27:00Z</time>
      </trkpt>
      <trkpt lat="42.564989000" lon="-2.412630000">
        <ele>648.70</ele>
        <time>2017-02-18T09:27:01Z</time>
      </trkpt>
      <trkpt lat="42.564971000" lon="-2.412630000">
        <ele>648.90</ele>
        <time>2017-02-18T09:27:02Z</time>
      </trkpt>
      <trkpt lat="42.564954000" lon="-2.412631000">
        <ele>649.00</ele>
        <time>2017-02-18T09:27:03Z</time>
      </trkpt>
      <trkpt lat="42.564934000" lon="-2.412630000">
        <ele>649.10</ele>
        <time>2017-02-18T09:27:04Z</time>
      </trkpt>
      <trkpt lat="42.564914000" lon="-2.412631000">
        <ele>649.20</ele>
        <time>2017-02-18T09:27:05Z</time>
      </trkpt>
      <trkpt lat="42.564894000" lon="-2.412630000">
        <ele>649.20</ele>
        <time>2017-02-18T09:27:06Z</time>
      </trkpt>
      <trkpt lat="42.564878000" lon="-2.412635000">
        <ele>649.30</ele>
        <time>2017-02-18T09:27:07Z</time>
      </trkpt>
      <trkpt lat="42.564859000" lon="-2.412636000">
        <ele>649.30</ele>
        <time>2017-02-18T09:27:08Z</time>
      </trkpt>
      <trkpt lat="42.564845000" lon="-2.412637000">
        <ele>649.40</ele>
        <time>2017-02-18T09:27:09Z</time>
      </trkpt>
      <trkpt lat="42.564831000" lon="-2.412634000">
        <ele>649.40</ele>
        <time>2017-02-18T09:27:10Z</time>
      </trkpt>
      <trkpt lat="42.564822000" lon="-2.412635000">
        <ele>649.40</ele>
        <time>2017-02-18T09:27:11Z</time>
      </trkpt>
      <trkpt lat="42.564808000" lon="-2.412632000">
        <ele>649.40</ele>
        <time>2017-02-18T09:27:12Z</time>
      </trkpt>
      <trkpt lat="42.564796000" lon="-2.412628000">
        <ele>649.50</ele>
        <time>2017-02-18T09:27:13Z</time>
      </trkpt>
      <trkpt lat="42.564784000" lon="-2.412633000">
        <ele>649.40</ele>
        <time>2017-02-18T09:27:14Z</time>
      </trkpt>
      <trkpt lat="42.564772000" lon="-2.412633000">
        <ele>649.40</ele>
        <time>2017-02-18T09:27:15Z</time>
      </trkpt>
      <trkpt lat="42.564758000" lon="-2.412633000">
        <ele>649.50</ele>
        <time>2017-02-18T09:27:16Z</time>
      </trkpt>
      <trkpt lat="42.564744000" lon="-2.412631000">
        <ele>649.50</ele>
        <time>2017-02-18T09:27:17Z</time>
      </trkpt>
      <trkpt lat="42.564729000" lon="-2.412627000">
        <ele>649.50</ele>
        <time>2017-02-18T09:27:18Z</time>
      </trkpt>
      <trkpt lat="42.564713000" lon="-2.412624000">
        <ele>649.40</ele>
        <time>2017-02-18T09:27:19Z</time>
      </trkpt>
      <trkpt lat="42.564698000" lon="-2.412619000">
        <ele>649.50</ele>
        <time>2017-02-18T09:27:20Z</time>
      </trkpt>
      <trkpt lat="42.564661000" lon="-2.412620000">
        <ele>649.50</ele>
        <time>2017-02-18T09:27:22Z</time>
      </trkpt>
      <trkpt lat="42.564642000" lon="-2.412616000">
        <ele>649.60</ele>
        <time>2017-02-18T09:27:23Z</time>
      </trkpt>
      <trkpt lat="42.564624000" lon="-2.412616000">
        <ele>649.60</ele>
        <time>2017-02-18T09:27:24Z</time>
      </trkpt>
      <trkpt lat="42.564604000" lon="-2.412614000">
        <ele>649.60</ele>
        <time>2017-02-18T09:27:25Z</time>
      </trkpt>
      <trkpt lat="42.564590000" lon="-2.412609000">
        <ele>649.60</ele>
        <time>2017-02-18T09:27:26Z</time>
      </trkpt>
      <trkpt lat="42.564572000" lon="-2.412601000">
        <ele>649.60</ele>
        <time>2017-02-18T09:27:27Z</time>
      </trkpt>
      <trkpt lat="42.564555000" lon="-2.412600000">
        <ele>649.70</ele>
        <time>2017-02-18T09:27:28Z</time>
      </trkpt>
      <trkpt lat="42.564538000" lon="-2.412596000">
        <ele>649.70</ele>
        <time>2017-02-18T09:27:29Z</time>
      </trkpt>
      <trkpt lat="42.564521000" lon="-2.412591000">
        <ele>649.80</ele>
        <time>2017-02-18T09:27:30Z</time>
      </trkpt>
      <trkpt lat="42.564503000" lon="-2.412587000">
        <ele>649.80</ele>
        <time>2017-02-18T09:27:31Z</time>
      </trkpt>
      <trkpt lat="42.564487000" lon="-2.412581000">
        <ele>649.70</ele>
        <time>2017-02-18T09:27:32Z</time>
      </trkpt>
      <trkpt lat="42.564469000" lon="-2.412577000">
        <ele>649.70</ele>
        <time>2017-02-18T09:27:33Z</time>
      </trkpt>
      <trkpt lat="42.564450000" lon="-2.412572000">
        <ele>649.70</ele>
        <time>2017-02-18T09:27:34Z</time>
      </trkpt>
      <trkpt lat="42.564434000" lon="-2.412567000">
        <ele>649.70</ele>
        <time>2017-02-18T09:27:35Z</time>
      </trkpt>
      <trkpt lat="42.564415000" lon="-2.412564000">
        <ele>649.70</ele>
        <time>2017-02-18T09:27:36Z</time>
      </trkpt>
      <trkpt lat="42.564395000" lon="-2.412563000">
        <ele>649.60</ele>
        <time>2017-02-18T09:27:37Z</time>
      </trkpt>
      <trkpt lat="42.564377000" lon="-2.412558000">
        <ele>649.50</ele>
        <time>2017-02-18T09:27:38Z</time>
      </trkpt>
      <trkpt lat="42.564358000" lon="-2.412556000">
        <ele>649.40</ele>
        <time>2017-02-18T09:27:39Z</time>
      </trkpt>
      <trkpt lat="42.564341000" lon="-2.412551000">
        <ele>649.40</ele>
        <time>2017-02-18T09:27:40Z</time>
      </trkpt>
      <trkpt lat="42.564320000" lon="-2.412547000">
        <ele>649.30</ele>
        <time>2017-02-18T09:27:41Z</time>
      </trkpt>
      <trkpt lat="42.564294000" lon="-2.412537000">
        <ele>649.50</ele>
        <time>2017-02-18T09:27:42Z</time>
      </trkpt>
      <trkpt lat="42.564260000" lon="-2.412530000">
        <ele>649.60</ele>
        <time>2017-02-18T09:27:43Z</time>
      </trkpt>
      <trkpt lat="42.564227000" lon="-2.412529000">
        <ele>649.60</ele>
        <time>2017-02-18T09:27:44Z</time>
      </trkpt>
      <trkpt lat="42.564195000" lon="-2.412530000">
        <ele>649.70</ele>
        <time>2017-02-18T09:27:45Z</time>
      </trkpt>
      <trkpt lat="42.564166000" lon="-2.412526000">
        <ele>649.70</ele>
        <time>2017-02-18T09:27:46Z</time>
      </trkpt>
      <trkpt lat="42.564137000" lon="-2.412521000">
        <ele>649.80</ele>
        <time>2017-02-18T09:27:47Z</time>
      </trkpt>
      <trkpt lat="42.564108000" lon="-2.412515000">
        <ele>649.70</ele>
        <time>2017-02-18T09:27:48Z</time>
      </trkpt>
      <trkpt lat="42.564081000" lon="-2.412512000">
        <ele>649.70</ele>
        <time>2017-02-18T09:27:49Z</time>
      </trkpt>
      <trkpt lat="42.564058000" lon="-2.412505000">
        <ele>649.70</ele>
        <time>2017-02-18T09:27:50Z</time>
      </trkpt>
      <trkpt lat="42.564036000" lon="-2.412496000">
        <ele>649.70</ele>
        <time>2017-02-18T09:27:51Z</time>
      </trkpt>
      <trkpt lat="42.564016000" lon="-2.412485000">
        <ele>649.60</ele>
        <time>2017-02-18T09:27:52Z</time>
      </trkpt>
      <trkpt lat="42.563997000" lon="-2.412476000">
        <ele>649.60</ele>
        <time>2017-02-18T09:27:53Z</time>
      </trkpt>
      <trkpt lat="42.563978000" lon="-2.412470000">
        <ele>649.80</ele>
        <time>2017-02-18T09:27:54Z</time>
      </trkpt>
      <trkpt lat="42.563957000" lon="-2.412463000">
        <ele>650.00</ele>
        <time>2017-02-18T09:27:55Z</time>
      </trkpt>
      <trkpt lat="42.563933000" lon="-2.412456000">
        <ele>650.20</ele>
        <time>2017-02-18T09:27:56Z</time>
      </trkpt>
      <trkpt lat="42.563909000" lon="-2.412449000">
        <ele>650.40</ele>
        <time>2017-02-18T09:27:57Z</time>
      </trkpt>
      <trkpt lat="42.563885000" lon="-2.412439000">
        <ele>650.50</ele>
        <time>2017-02-18T09:27:58Z</time>
      </trkpt>
      <trkpt lat="42.563862000" lon="-2.412436000">
        <ele>650.60</ele>
        <time>2017-02-18T09:27:59Z</time>
      </trkpt>
      <trkpt lat="42.563840000" lon="-2.412429000">
        <ele>650.70</ele>
        <time>2017-02-18T09:28:00Z</time>
      </trkpt>
      <trkpt lat="42.563817000" lon="-2.412420000">
        <ele>650.80</ele>
        <time>2017-02-18T09:28:01Z</time>
      </trkpt>
      <trkpt lat="42.563794000" lon="-2.412409000">
        <ele>650.80</ele>
        <time>2017-02-18T09:28:02Z</time>
      </trkpt>
      <trkpt lat="42.563770000" lon="-2.412400000">
        <ele>650.80</ele>
        <time>2017-02-18T09:28:03Z</time>
      </trkpt>
      <trkpt lat="42.563745000" lon="-2.412391000">
        <ele>650.70</ele>
        <time>2017-02-18T09:28:04Z</time>
      </trkpt>
      <trkpt lat="42.563722000" lon="-2.412382000">
        <ele>650.60</ele>
        <time>2017-02-18T09:28:05Z</time>
      </trkpt>
      <trkpt lat="42.563699000" lon="-2.412371000">
        <ele>650.60</ele>
        <time>2017-02-18T09:28:06Z</time>
      </trkpt>
      <trkpt lat="42.563674000" lon="-2.412364000">
        <ele>650.50</ele>
        <time>2017-02-18T09:28:07Z</time>
      </trkpt>
      <trkpt lat="42.563650000" lon="-2.412356000">
        <ele>650.60</ele>
        <time>2017-02-18T09:28:08Z</time>
      </trkpt>
      <trkpt lat="42.563625000" lon="-2.412343000">
        <ele>650.70</ele>
        <time>2017-02-18T09:28:09Z</time>
      </trkpt>
      <trkpt lat="42.563601000" lon="-2.412332000">
        <ele>650.80</ele>
        <time>2017-02-18T09:28:10Z</time>
      </trkpt>
      <trkpt lat="42.563578000" lon="-2.412322000">
        <ele>650.80</ele>
        <time>2017-02-18T09:28:11Z</time>
      </trkpt>
      <trkpt lat="42.563554000" lon="-2.412311000">
        <ele>650.80</ele>
        <time>2017-02-18T09:28:12Z</time>
      </trkpt>
      <trkpt lat="42.563533000" lon="-2.412301000">
        <ele>650.90</ele>
        <time>2017-02-18T09:28:13Z</time>
      </trkpt>
      <trkpt lat="42.563511000" lon="-2.412292000">
        <ele>650.90</ele>
        <time>2017-02-18T09:28:14Z</time>
      </trkpt>
      <trkpt lat="42.563488000" lon="-2.412279000">
        <ele>650.90</ele>
        <time>2017-02-18T09:28:15Z</time>
      </trkpt>
      <trkpt lat="42.563463000" lon="-2.412269000">
        <ele>650.90</ele>
        <time>2017-02-18T09:28:16Z</time>
      </trkpt>
      <trkpt lat="42.563436000" lon="-2.412257000">
        <ele>650.90</ele>
        <time>2017-02-18T09:28:17Z</time>
      </trkpt>
      <trkpt lat="42.563408000" lon="-2.412247000">
        <ele>650.90</ele>
        <time>2017-02-18T09:28:18Z</time>
      </trkpt>
      <trkpt lat="42.563383000" lon="-2.412240000">
        <ele>650.90</ele>
        <time>2017-02-18T09:28:19Z</time>
      </trkpt>
      <trkpt lat="42.563358000" lon="-2.412227000">
        <ele>650.90</ele>
        <time>2017-02-18T09:28:20Z</time>
      </trkpt>
      <trkpt lat="42.563330000" lon="-2.412212000">
        <ele>650.90</ele>
        <time>2017-02-18T09:28:21Z</time>
      </trkpt>
      <trkpt lat="42.563304000" lon="-2.412197000">
        <ele>651.00</ele>
        <time>2017-02-18T09:28:22Z</time>
      </trkpt>
      <trkpt lat="42.563255000" lon="-2.412171000">
        <ele>651.30</ele>
        <time>2017-02-18T09:28:24Z</time>
      </trkpt>
      <trkpt lat="42.563231000" lon="-2.412163000">
        <ele>651.50</ele>
        <time>2017-02-18T09:28:25Z</time>
      </trkpt>
      <trkpt lat="42.563207000" lon="-2.412154000">
        <ele>651.50</ele>
        <time>2017-02-18T09:28:26Z</time>
      </trkpt>
      <trkpt lat="42.563182000" lon="-2.412145000">
        <ele>651.50</ele>
        <time>2017-02-18T09:28:27Z</time>
      </trkpt>
      <trkpt lat="42.563159000" lon="-2.412131000">
        <ele>651.60</ele>
        <time>2017-02-18T09:28:28Z</time>
      </trkpt>
      <trkpt lat="42.563138000" lon="-2.412115000">
        <ele>651.70</ele>
        <time>2017-02-18T09:28:29Z</time>
      </trkpt>
      <trkpt lat="42.563117000" lon="-2.412100000">
        <ele>651.80</ele>
        <time>2017-02-18T09:28:30Z</time>
      </trkpt>
      <trkpt lat="42.563092000" lon="-2.412090000">
        <ele>651.80</ele>
        <time>2017-02-18T09:28:31Z</time>
      </trkpt>
      <trkpt lat="42.563069000" lon="-2.412082000">
        <ele>652.00</ele>
        <time>2017-02-18T09:28:32Z</time>
      </trkpt>
      <trkpt lat="42.563045000" lon="-2.412077000">
        <ele>652.10</ele>
        <time>2017-02-18T09:28:33Z</time>
      </trkpt>
      <trkpt lat="42.563022000" lon="-2.412068000">
        <ele>652.20</ele>
        <time>2017-02-18T09:28:34Z</time>
      </trkpt>
      <trkpt lat="42.562996000" lon="-2.412056000">
        <ele>652.30</ele>
        <time>2017-02-18T09:28:35Z</time>
      </trkpt>
      <trkpt lat="42.562969000" lon="-2.412044000">
        <ele>652.40</ele>
        <time>2017-02-18T09:28:36Z</time>
      </trkpt>
      <trkpt lat="42.562944000" lon="-2.412034000">
        <ele>652.50</ele>
        <time>2017-02-18T09:28:37Z</time>
      </trkpt>
      <trkpt lat="42.562918000" lon="-2.412026000">
        <ele>652.50</ele>
        <time>2017-02-18T09:28:38Z</time>
      </trkpt>
      <trkpt lat="42.562891000" lon="-2.412018000">
        <ele>652.50</ele>
        <time>2017-02-18T09:28:39Z</time>
      </trkpt>
      <trkpt lat="42.562868000" lon="-2.412010000">
        <ele>652.60</ele>
        <time>2017-02-18T09:28:40Z</time>
      </trkpt>
      <trkpt lat="42.562841000" lon="-2.412001000">
        <ele>652.60</ele>
        <time>2017-02-18T09:28:41Z</time>
      </trkpt>
      <trkpt lat="42.562812000" lon="-2.411991000">
        <ele>652.60</ele>
        <time>2017-02-18T09:28:42Z</time>
      </trkpt>
      <trkpt lat="42.562785000" lon="-2.411987000">
        <ele>652.60</ele>
        <time>2017-02-18T09:28:43Z</time>
      </trkpt>
      <trkpt lat="42.562759000" lon="-2.411979000">
        <ele>652.70</ele>
        <time>2017-02-18T09:28:44Z</time>
      </trkpt>
      <trkpt lat="42.562735000" lon="-2.411972000">
        <ele>652.80</ele>
        <time>2017-02-18T09:28:45Z</time>
      </trkpt>
      <trkpt lat="42.562711000" lon="-2.411962000">
        <ele>652.80</ele>
        <time>2017-02-18T09:28:46Z</time>
      </trkpt>
      <trkpt lat="42.562684000" lon="-2.411946000">
        <ele>652.90</ele>
        <time>2017-02-18T09:28:47Z</time>
      </trkpt>
      <trkpt lat="42.562657000" lon="-2.411936000">
        <ele>653.10</ele>
        <time>2017-02-18T09:28:48Z</time>
      </trkpt>
      <trkpt lat="42.562630000" lon="-2.411921000">
        <ele>653.20</ele>
        <time>2017-02-18T09:28:49Z</time>
      </trkpt>
      <trkpt lat="42.562603000" lon="-2.411906000">
        <ele>653.30</ele>
        <time>2017-02-18T09:28:50Z</time>
      </trkpt>
      <trkpt lat="42.562576000" lon="-2.411891000">
        <ele>653.40</ele>
        <time>2017-02-18T09:28:51Z</time>
      </trkpt>
      <trkpt lat="42.562549000" lon="-2.411878000">
        <ele>653.40</ele>
        <time>2017-02-18T09:28:52Z</time>
      </trkpt>
      <trkpt lat="42.562519000" lon="-2.411864000">
        <ele>653.40</ele>
        <time>2017-02-18T09:28:53Z</time>
      </trkpt>
      <trkpt lat="42.562491000" lon="-2.411847000">
        <ele>653.50</ele>
        <time>2017-02-18T09:28:54Z</time>
      </trkpt>
      <trkpt lat="42.562466000" lon="-2.411828000">
        <ele>653.50</ele>
        <time>2017-02-18T09:28:55Z</time>
      </trkpt>
      <trkpt lat="42.562439000" lon="-2.411806000">
        <ele>653.50</ele>
        <time>2017-02-18T09:28:56Z</time>
      </trkpt>
      <trkpt lat="42.562414000" lon="-2.411785000">
        <ele>653.50</ele>
        <time>2017-02-18T09:28:57Z</time>
      </trkpt>
      <trkpt lat="42.562386000" lon="-2.411767000">
        <ele>653.50</ele>
        <time>2017-02-18T09:28:58Z</time>
      </trkpt>
      <trkpt lat="42.562357000" lon="-2.411749000">
        <ele>653.50</ele>
        <time>2017-02-18T09:28:59Z</time>
      </trkpt>
      <trkpt lat="42.562330000" lon="-2.411725000">
        <ele>653.50</ele>
        <time>2017-02-18T09:29:00Z</time>
      </trkpt>
      <trkpt lat="42.562302000" lon="-2.411699000">
        <ele>653.60</ele>
        <time>2017-02-18T09:29:01Z</time>
      </trkpt>
      <trkpt lat="42.562277000" lon="-2.411675000">
        <ele>653.60</ele>
        <time>2017-02-18T09:29:02Z</time>
      </trkpt>
      <trkpt lat="42.562252000" lon="-2.411653000">
        <ele>653.70</ele>
        <time>2017-02-18T09:29:03Z</time>
      </trkpt>
      <trkpt lat="42.562227000" lon="-2.411630000">
        <ele>653.60</ele>
        <time>2017-02-18T09:29:04Z</time>
      </trkpt>
      <trkpt lat="42.562202000" lon="-2.411610000">
        <ele>653.60</ele>
        <time>2017-02-18T09:29:05Z</time>
      </trkpt>
      <trkpt lat="42.562179000" lon="-2.411587000">
        <ele>653.60</ele>
        <time>2017-02-18T09:29:06Z</time>
      </trkpt>
      <trkpt lat="42.562155000" lon="-2.411567000">
        <ele>653.60</ele>
        <time>2017-02-18T09:29:07Z</time>
      </trkpt>
      <trkpt lat="42.562133000" lon="-2.411545000">
        <ele>653.60</ele>
        <time>2017-02-18T09:29:08Z</time>
      </trkpt>
      <trkpt lat="42.562110000" lon="-2.411523000">
        <ele>653.60</ele>
        <time>2017-02-18T09:29:09Z</time>
      </trkpt>
      <trkpt lat="42.562087000" lon="-2.411500000">
        <ele>653.50</ele>
        <time>2017-02-18T09:29:10Z</time>
      </trkpt>
      <trkpt lat="42.562060000" lon="-2.411479000">
        <ele>653.50</ele>
        <time>2017-02-18T09:29:11Z</time>
      </trkpt>
      <trkpt lat="42.562033000" lon="-2.411456000">
        <ele>653.40</ele>
        <time>2017-02-18T09:29:12Z</time>
      </trkpt>
      <trkpt lat="42.562009000" lon="-2.411433000">
        <ele>653.40</ele>
        <time>2017-02-18T09:29:13Z</time>
      </trkpt>
      <trkpt lat="42.561985000" lon="-2.411414000">
        <ele>653.40</ele>
        <time>2017-02-18T09:29:14Z</time>
      </trkpt>
      <trkpt lat="42.561960000" lon="-2.411396000">
        <ele>653.40</ele>
        <time>2017-02-18T09:29:15Z</time>
      </trkpt>
      <trkpt lat="42.561934000" lon="-2.411371000">
        <ele>653.40</ele>
        <time>2017-02-18T09:29:16Z</time>
      </trkpt>
      <trkpt lat="42.561913000" lon="-2.411347000">
        <ele>653.40</ele>
        <time>2017-02-18T09:29:17Z</time>
      </trkpt>
      <trkpt lat="42.561893000" lon="-2.411326000">
        <ele>653.50</ele>
        <time>2017-02-18T09:29:18Z</time>
      </trkpt>
      <trkpt lat="42.561871000" lon="-2.411304000">
        <ele>653.60</ele>
        <time>2017-02-18T09:29:19Z</time>
      </trkpt>
      <trkpt lat="42.561847000" lon="-2.411284000">
        <ele>653.70</ele>
        <time>2017-02-18T09:29:20Z</time>
      </trkpt>
      <trkpt lat="42.561824000" lon="-2.411262000">
        <ele>653.70</ele>
        <time>2017-02-18T09:29:21Z</time>
      </trkpt>
      <trkpt lat="42.561800000" lon="-2.411242000">
        <ele>653.70</ele>
        <time>2017-02-18T09:29:22Z</time>
      </trkpt>
      <trkpt lat="42.561775000" lon="-2.411220000">
        <ele>653.80</ele>
        <time>2017-02-18T09:29:23Z</time>
      </trkpt>
      <trkpt lat="42.561751000" lon="-2.411193000">
        <ele>653.70</ele>
        <time>2017-02-18T09:29:24Z</time>
      </trkpt>
      <trkpt lat="42.561705000" lon="-2.411138000">
        <ele>653.60</ele>
        <time>2017-02-18T09:29:26Z</time>
      </trkpt>
      <trkpt lat="42.561681000" lon="-2.411107000">
        <ele>653.60</ele>
        <time>2017-02-18T09:29:27Z</time>
      </trkpt>
      <trkpt lat="42.561655000" lon="-2.411073000">
        <ele>653.70</ele>
        <time>2017-02-18T09:29:28Z</time>
      </trkpt>
      <trkpt lat="42.561629000" lon="-2.411039000">
        <ele>653.80</ele>
        <time>2017-02-18T09:29:29Z</time>
      </trkpt>
      <trkpt lat="42.561599000" lon="-2.411006000">
        <ele>653.90</ele>
        <time>2017-02-18T09:29:30Z</time>
      </trkpt>
      <trkpt lat="42.561568000" lon="-2.410968000">
        <ele>653.90</ele>
        <time>2017-02-18T09:29:31Z</time>
      </trkpt>
      <trkpt lat="42.561536000" lon="-2.410926000">
        <ele>654.00</ele>
        <time>2017-02-18T09:29:32Z</time>
      </trkpt>
      <trkpt lat="42.561502000" lon="-2.410886000">
        <ele>654.00</ele>
        <time>2017-02-18T09:29:33Z</time>
      </trkpt>
      <trkpt lat="42.561467000" lon="-2.410844000">
        <ele>653.90</ele>
        <time>2017-02-18T09:29:34Z</time>
      </trkpt>
      <trkpt lat="42.561432000" lon="-2.410797000">
        <ele>653.90</ele>
        <time>2017-02-18T09:29:35Z</time>
      </trkpt>
      <trkpt lat="42.561396000" lon="-2.410748000">
        <ele>653.40</ele>
        <time>2017-02-18T09:29:36Z</time>
      </trkpt>
      <trkpt lat="42.561359000" lon="-2.410699000">
        <ele>653.10</ele>
        <time>2017-02-18T09:29:37Z</time>
      </trkpt>
      <trkpt lat="42.561321000" lon="-2.410652000">
        <ele>652.90</ele>
        <time>2017-02-18T09:29:38Z</time>
      </trkpt>
      <trkpt lat="42.561285000" lon="-2.410600000">
        <ele>652.70</ele>
        <time>2017-02-18T09:29:39Z</time>
      </trkpt>
      <trkpt lat="42.561246000" lon="-2.410550000">
        <ele>652.50</ele>
        <time>2017-02-18T09:29:40Z</time>
      </trkpt>
      <trkpt lat="42.561207000" lon="-2.410499000">
        <ele>652.30</ele>
        <time>2017-02-18T09:29:41Z</time>
      </trkpt>
      <trkpt lat="42.561167000" lon="-2.410452000">
        <ele>652.20</ele>
        <time>2017-02-18T09:29:42Z</time>
      </trkpt>
      <trkpt lat="42.561126000" lon="-2.410404000">
        <ele>652.10</ele>
        <time>2017-02-18T09:29:43Z</time>
      </trkpt>
      <trkpt lat="42.561084000" lon="-2.410355000">
        <ele>652.10</ele>
        <time>2017-02-18T09:29:44Z</time>
      </trkpt>
      <trkpt lat="42.561039000" lon="-2.410307000">
        <ele>652.00</ele>
        <time>2017-02-18T09:29:45Z</time>
      </trkpt>
      <trkpt lat="42.560992000" lon="-2.410262000">
        <ele>652.00</ele>
        <time>2017-02-18T09:29:46Z</time>
      </trkpt>
      <trkpt lat="42.560945000" lon="-2.410216000">
        <ele>652.00</ele>
        <time>2017-02-18T09:29:47Z</time>
      </trkpt>
      <trkpt lat="42.560899000" lon="-2.410168000">
        <ele>651.90</ele>
        <time>2017-02-18T09:29:48Z</time>
      </trkpt>
      <trkpt lat="42.560851000" lon="-2.410123000">
        <ele>651.80</ele>
        <time>2017-02-18T09:29:49Z</time>
      </trkpt>
      <trkpt lat="42.560808000" lon="-2.410078000">
        <ele>651.50</ele>
        <time>2017-02-18T09:29:50Z</time>
      </trkpt>
      <trkpt lat="42.560763000" lon="-2.410032000">
        <ele>651.30</ele>
        <time>2017-02-18T09:29:51Z</time>
      </trkpt>
      <trkpt lat="42.560717000" lon="-2.409988000">
        <ele>651.00</ele>
        <time>2017-02-18T09:29:52Z</time>
      </trkpt>
      <trkpt lat="42.560673000" lon="-2.409945000">
        <ele>650.70</ele>
        <time>2017-02-18T09:29:53Z</time>
      </trkpt>
      <trkpt lat="42.560627000" lon="-2.409905000">
        <ele>650.60</ele>
        <time>2017-02-18T09:29:54Z</time>
      </trkpt>
      <trkpt lat="42.560581000" lon="-2.409868000">
        <ele>650.40</ele>
        <time>2017-02-18T09:29:55Z</time>
      </trkpt>
      <trkpt lat="42.560535000" lon="-2.409831000">
        <ele>650.30</ele>
        <time>2017-02-18T09:29:56Z</time>
      </trkpt>
      <trkpt lat="42.560488000" lon="-2.409797000">
        <ele>650.30</ele>
        <time>2017-02-18T09:29:57Z</time>
      </trkpt>
      <trkpt lat="42.560439000" lon="-2.409767000">
        <ele>650.20</ele>
        <time>2017-02-18T09:29:58Z</time>
      </trkpt>
      <trkpt lat="42.560388000" lon="-2.409736000">
        <ele>650.20</ele>
        <time>2017-02-18T09:29:59Z</time>
      </trkpt>
      <trkpt lat="42.560337000" lon="-2.409701000">
        <ele>650.10</ele>
        <time>2017-02-18T09:30:00Z</time>
      </trkpt>
      <trkpt lat="42.560286000" lon="-2.409667000">
        <ele>650.10</ele>
        <time>2017-02-18T09:30:01Z</time>
      </trkpt>
      <trkpt lat="42.560235000" lon="-2.409633000">
        <ele>650.00</ele>
        <time>2017-02-18T09:30:02Z</time>
      </trkpt>
      <trkpt lat="42.560182000" lon="-2.409599000">
        <ele>650.00</ele>
        <time>2017-02-18T09:30:03Z</time>
      </trkpt>
      <trkpt lat="42.560129000" lon="-2.409557000">
        <ele>649.60</ele>
        <time>2017-02-18T09:30:04Z</time>
      </trkpt>
      <trkpt lat="42.560078000" lon="-2.409503000">
        <ele>649.30</ele>
        <time>2017-02-18T09:30:05Z</time>
      </trkpt>
      <trkpt lat="42.560028000" lon="-2.409436000">
        <ele>649.10</ele>
        <time>2017-02-18T09:30:06Z</time>
      </trkpt>
      <trkpt lat="42.559972000" lon="-2.409365000">
        <ele>648.90</ele>
        <time>2017-02-18T09:30:07Z</time>
      </trkpt>
      <trkpt lat="42.559911000" lon="-2.409299000">
        <ele>648.70</ele>
        <time>2017-02-18T09:30:08Z</time>
      </trkpt>
      <trkpt lat="42.559846000" lon="-2.409238000">
        <ele>648.50</ele>
        <time>2017-02-18T09:30:09Z</time>
      </trkpt>
      <trkpt lat="42.559780000" lon="-2.409187000">
        <ele>648.10</ele>
        <time>2017-02-18T09:30:10Z</time>
      </trkpt>
      <trkpt lat="42.559711000" lon="-2.409140000">
        <ele>647.80</ele>
        <time>2017-02-18T09:30:11Z</time>
      </trkpt>
      <trkpt lat="42.559641000" lon="-2.409106000">
        <ele>647.20</ele>
        <time>2017-02-18T09:30:12Z</time>
      </trkpt>
      <trkpt lat="42.559571000" lon="-2.409077000">
        <ele>646.80</ele>
        <time>2017-02-18T09:30:13Z</time>
      </trkpt>
      <trkpt lat="42.559501000" lon="-2.409044000">
        <ele>646.50</ele>
        <time>2017-02-18T09:30:14Z</time>
      </trkpt>
      <trkpt lat="42.559427000" lon="-2.409013000">
        <ele>646.30</ele>
        <time>2017-02-18T09:30:15Z</time>
      </trkpt>
      <trkpt lat="42.559358000" lon="-2.408979000">
        <ele>646.10</ele>
        <time>2017-02-18T09:30:16Z</time>
      </trkpt>
      <trkpt lat="42.559292000" lon="-2.408939000">
        <ele>646.00</ele>
        <time>2017-02-18T09:30:17Z</time>
      </trkpt>
      <trkpt lat="42.559225000" lon="-2.408905000">
        <ele>645.80</ele>
        <time>2017-02-18T09:30:18Z</time>
      </trkpt>
      <trkpt lat="42.559157000" lon="-2.408877000">
        <ele>645.70</ele>
        <time>2017-02-18T09:30:19Z</time>
      </trkpt>
      <trkpt lat="42.559085000" lon="-2.408859000">
        <ele>645.40</ele>
        <time>2017-02-18T09:30:20Z</time>
      </trkpt>
      <trkpt lat="42.559013000" lon="-2.408852000">
        <ele>645.30</ele>
        <time>2017-02-18T09:30:21Z</time>
      </trkpt>
      <trkpt lat="42.558945000" lon="-2.408863000">
        <ele>645.00</ele>
        <time>2017-02-18T09:30:22Z</time>
      </trkpt>
      <trkpt lat="42.558879000" lon="-2.408886000">
        <ele>644.80</ele>
        <time>2017-02-18T09:30:23Z</time>
      </trkpt>
      <trkpt lat="42.558813000" lon="-2.408903000">
        <ele>644.60</ele>
        <time>2017-02-18T09:30:24Z</time>
      </trkpt>
      <trkpt lat="42.558751000" lon="-2.408915000">
        <ele>644.30</ele>
        <time>2017-02-18T09:30:25Z</time>
      </trkpt>
      <trkpt lat="42.558689000" lon="-2.408904000">
        <ele>644.20</ele>
        <time>2017-02-18T09:30:26Z</time>
      </trkpt>
      <trkpt lat="42.558583000" lon="-2.408823000">
        <ele>643.90</ele>
        <time>2017-02-18T09:30:28Z</time>
      </trkpt>
      <trkpt lat="42.558541000" lon="-2.408762000">
        <ele>643.70</ele>
        <time>2017-02-18T09:30:29Z</time>
      </trkpt>
      <trkpt lat="42.558505000" lon="-2.408690000">
        <ele>643.20</ele>
        <time>2017-02-18T09:30:30Z</time>
      </trkpt>
      <trkpt lat="42.558474000" lon="-2.408617000">
        <ele>642.90</ele>
        <time>2017-02-18T09:30:31Z</time>
      </trkpt>
      <trkpt lat="42.558443000" lon="-2.408543000">
        <ele>642.60</ele>
        <time>2017-02-18T09:30:32Z</time>
      </trkpt>
      <trkpt lat="42.558406000" lon="-2.408474000">
        <ele>642.50</ele>
        <time>2017-02-18T09:30:33Z</time>
      </trkpt>
      <trkpt lat="42.558363000" lon="-2.408409000">
        <ele>642.30</ele>
        <time>2017-02-18T09:30:34Z</time>
      </trkpt>
      <trkpt lat="42.558319000" lon="-2.408351000">
        <ele>642.20</ele>
        <time>2017-02-18T09:30:35Z</time>
      </trkpt>
      <trkpt lat="42.558270000" lon="-2.408293000">
        <ele>642.10</ele>
        <time>2017-02-18T09:30:36Z</time>
      </trkpt>
      <trkpt lat="42.558217000" lon="-2.408240000">
        <ele>642.10</ele>
        <time>2017-02-18T09:30:37Z</time>
      </trkpt>
      <trkpt lat="42.558164000" lon="-2.408190000">
        <ele>641.70</ele>
        <time>2017-02-18T09:30:38Z</time>
      </trkpt>
      <trkpt lat="42.558109000" lon="-2.408149000">
        <ele>641.40</ele>
        <time>2017-02-18T09:30:39Z</time>
      </trkpt>
      <trkpt lat="42.558051000" lon="-2.408107000">
        <ele>641.20</ele>
        <time>2017-02-18T09:30:40Z</time>
      </trkpt>
      <trkpt lat="42.557992000" lon="-2.408066000">
        <ele>641.00</ele>
        <time>2017-02-18T09:30:41Z</time>
      </trkpt>
      <trkpt lat="42.557926000" lon="-2.408029000">
        <ele>640.80</ele>
        <time>2017-02-18T09:30:42Z</time>
      </trkpt>
      <trkpt lat="42.557861000" lon="-2.407995000">
        <ele>640.70</ele>
        <time>2017-02-18T09:30:43Z</time>
      </trkpt>
      <trkpt lat="42.557794000" lon="-2.407960000">
        <ele>640.90</ele>
        <time>2017-02-18T09:30:44Z</time>
      </trkpt>
      <trkpt lat="42.557729000" lon="-2.407929000">
        <ele>641.00</ele>
        <time>2017-02-18T09:30:45Z</time>
      </trkpt>
      <trkpt lat="42.557662000" lon="-2.407899000">
        <ele>641.10</ele>
        <time>2017-02-18T09:30:46Z</time>
      </trkpt>
      <trkpt lat="42.557597000" lon="-2.407871000">
        <ele>641.20</ele>
        <time>2017-02-18T09:30:47Z</time>
      </trkpt>
      <trkpt lat="42.557531000" lon="-2.407853000">
        <ele>640.90</ele>
        <time>2017-02-18T09:30:48Z</time>
      </trkpt>
      <trkpt lat="42.557465000" lon="-2.407845000">
        <ele>640.80</ele>
        <time>2017-02-18T09:30:49Z</time>
      </trkpt>
      <trkpt lat="42.557401000" lon="-2.407843000">
        <ele>640.60</ele>
        <time>2017-02-18T09:30:50Z</time>
      </trkpt>
      <trkpt lat="42.557336000" lon="-2.407847000">
        <ele>640.50</ele>
        <time>2017-02-18T09:30:51Z</time>
      </trkpt>
      <trkpt lat="42.557272000" lon="-2.407853000">
        <ele>640.30</ele>
        <time>2017-02-18T09:30:52Z</time>
      </trkpt>
      <trkpt lat="42.557208000" lon="-2.407864000">
        <ele>640.30</ele>
        <time>2017-02-18T09:30:53Z</time>
      </trkpt>
      <trkpt lat="42.557148000" lon="-2.407876000">
        <ele>640.00</ele>
        <time>2017-02-18T09:30:54Z</time>
      </trkpt>
      <trkpt lat="42.557088000" lon="-2.407882000">
        <ele>639.70</ele>
        <time>2017-02-18T09:30:55Z</time>
      </trkpt>
      <trkpt lat="42.557026000" lon="-2.407886000">
        <ele>639.60</ele>
        <time>2017-02-18T09:30:56Z</time>
      </trkpt>
      <trkpt lat="42.556964000" lon="-2.407886000">
        <ele>639.40</ele>
        <time>2017-02-18T09:30:57Z</time>
      </trkpt>
      <trkpt lat="42.556901000" lon="-2.407882000">
        <ele>639.40</ele>
        <time>2017-02-18T09:30:58Z</time>
      </trkpt>
      <trkpt lat="42.556841000" lon="-2.407881000">
        <ele>639.30</ele>
        <time>2017-02-18T09:30:59Z</time>
      </trkpt>
      <trkpt lat="42.556780000" lon="-2.407889000">
        <ele>639.20</ele>
        <time>2017-02-18T09:31:00Z</time>
      </trkpt>
      <trkpt lat="42.556722000" lon="-2.407906000">
        <ele>639.20</ele>
        <time>2017-02-18T09:31:01Z</time>
      </trkpt>
      <trkpt lat="42.556665000" lon="-2.407931000">
        <ele>639.00</ele>
        <time>2017-02-18T09:31:02Z</time>
      </trkpt>
      <trkpt lat="42.556607000" lon="-2.407957000">
        <ele>638.80</ele>
        <time>2017-02-18T09:31:03Z</time>
      </trkpt>
      <trkpt lat="42.556547000" lon="-2.407973000">
        <ele>638.30</ele>
        <time>2017-02-18T09:31:04Z</time>
      </trkpt>
      <trkpt lat="42.556485000" lon="-2.407991000">
        <ele>638.00</ele>
        <time>2017-02-18T09:31:05Z</time>
      </trkpt>
      <trkpt lat="42.556422000" lon="-2.408007000">
        <ele>637.70</ele>
        <time>2017-02-18T09:31:06Z</time>
      </trkpt>
      <trkpt lat="42.556358000" lon="-2.408023000">
        <ele>637.50</ele>
        <time>2017-02-18T09:31:07Z</time>
      </trkpt>
      <trkpt lat="42.556294000" lon="-2.408039000">
        <ele>637.40</ele>
        <time>2017-02-18T09:31:08Z</time>
      </trkpt>
      <trkpt lat="42.556226000" lon="-2.408054000">
        <ele>637.30</ele>
        <time>2017-02-18T09:31:09Z</time>
      </trkpt>
      <trkpt lat="42.556163000" lon="-2.408071000">
        <ele>636.90</ele>
        <time>2017-02-18T09:31:10Z</time>
      </trkpt>
      <trkpt lat="42.556110000" lon="-2.408088000">
        <ele>636.60</ele>
        <time>2017-02-18T09:31:11Z</time>
      </trkpt>
      <trkpt lat="42.556071000" lon="-2.408097000">
        <ele>636.10</ele>
        <time>2017-02-18T09:31:12Z</time>
      </trkpt>
      <trkpt lat="42.556045000" lon="-2.408102000">
        <ele>635.80</ele>
        <time>2017-02-18T09:31:13Z</time>
      </trkpt>
      <trkpt lat="42.556029000" lon="-2.408106000">
        <ele>635.50</ele>
        <time>2017-02-18T09:31:14Z</time>
      </trkpt>
      <trkpt lat="42.556015000" lon="-2.408109000">
        <ele>635.20</ele>
        <time>2017-02-18T09:31:15Z</time>
      </trkpt>
      <trkpt lat="42.555998000" lon="-2.408111000">
        <ele>635.00</ele>
        <time>2017-02-18T09:31:16Z</time>
      </trkpt>
      <trkpt lat="42.555983000" lon="-2.408117000">
        <ele>634.90</ele>
        <time>2017-02-18T09:31:17Z</time>
      </trkpt>
      <trkpt lat="42.555973000" lon="-2.408113000">
        <ele>634.80</ele>
        <time>2017-02-18T09:31:18Z</time>
      </trkpt>
      <trkpt lat="42.555957000" lon="-2.408118000">
        <ele>634.70</ele>
        <time>2017-02-18T09:31:19Z</time>
      </trkpt>
      <trkpt lat="42.555940000" lon="-2.408124000">
        <ele>634.60</ele>
        <time>2017-02-18T09:31:20Z</time>
      </trkpt>
      <trkpt lat="42.555920000" lon="-2.408130000">
        <ele>634.50</ele>
        <time>2017-02-18T09:31:21Z</time>
      </trkpt>
      <trkpt lat="42.555900000" lon="-2.408134000">
        <ele>634.40</ele>
        <time>2017-02-18T09:31:22Z</time>
      </trkpt>
      <trkpt lat="42.555879000" lon="-2.408141000">
        <ele>634.40</ele>
        <time>2017-02-18T09:31:23Z</time>
      </trkpt>
      <trkpt lat="42.555857000" lon="-2.408151000">
        <ele>634.20</ele>
        <time>2017-02-18T09:31:24Z</time>
      </trkpt>
      <trkpt lat="42.555834000" lon="-2.408158000">
        <ele>634.10</ele>
        <time>2017-02-18T09:31:25Z</time>
      </trkpt>
      <trkpt lat="42.555811000" lon="-2.408170000">
        <ele>633.90</ele>
        <time>2017-02-18T09:31:26Z</time>
      </trkpt>
      <trkpt lat="42.555786000" lon="-2.408180000">
        <ele>633.80</ele>
        <time>2017-02-18T09:31:27Z</time>
      </trkpt>
      <trkpt lat="42.555760000" lon="-2.408194000">
        <ele>633.80</ele>
        <time>2017-02-18T09:31:28Z</time>
      </trkpt>
      <trkpt lat="42.555703000" lon="-2.408225000">
        <ele>633.80</ele>
        <time>2017-02-18T09:31:30Z</time>
      </trkpt>
      <trkpt lat="42.555674000" lon="-2.408242000">
        <ele>633.90</ele>
        <time>2017-02-18T09:31:31Z</time>
      </trkpt>
      <trkpt lat="42.555645000" lon="-2.408258000">
        <ele>633.90</ele>
        <time>2017-02-18T09:31:32Z</time>
      </trkpt>
      <trkpt lat="42.555611000" lon="-2.408281000">
        <ele>633.90</ele>
        <time>2017-02-18T09:31:33Z</time>
      </trkpt>
      <trkpt lat="42.555572000" lon="-2.408310000">
        <ele>633.70</ele>
        <time>2017-02-18T09:31:34Z</time>
      </trkpt>
      <trkpt lat="42.555527000" lon="-2.408345000">
        <ele>633.50</ele>
        <time>2017-02-18T09:31:35Z</time>
      </trkpt>
      <trkpt lat="42.555473000" lon="-2.408381000">
        <ele>633.10</ele>
        <time>2017-02-18T09:31:36Z</time>
      </trkpt>
      <trkpt lat="42.555413000" lon="-2.408417000">
        <ele>632.80</ele>
        <time>2017-02-18T09:31:37Z</time>
      </trkpt>
      <trkpt lat="42.555348000" lon="-2.408448000">
        <ele>632.50</ele>
        <time>2017-02-18T09:31:38Z</time>
      </trkpt>
      <trkpt lat="42.555278000" lon="-2.408474000">
        <ele>632.40</ele>
        <time>2017-02-18T09:31:39Z</time>
      </trkpt>
      <trkpt lat="42.555208000" lon="-2.408504000">
        <ele>631.70</ele>
        <time>2017-02-18T09:31:40Z</time>
      </trkpt>
      <trkpt lat="42.555140000" lon="-2.408532000">
        <ele>631.10</ele>
        <time>2017-02-18T09:31:41Z</time>
      </trkpt>
      <trkpt lat="42.555069000" lon="-2.408556000">
        <ele>630.60</ele>
        <time>2017-02-18T09:31:42Z</time>
      </trkpt>
      <trkpt lat="42.555000000" lon="-2.408603000">
        <ele>630.20</ele>
        <time>2017-02-18T09:31:43Z</time>
      </trkpt>
      <trkpt lat="42.554933000" lon="-2.408663000">
        <ele>629.50</ele>
        <time>2017-02-18T09:31:44Z</time>
      </trkpt>
      <trkpt lat="42.554865000" lon="-2.408739000">
        <ele>629.00</ele>
        <time>2017-02-18T09:31:45Z</time>
      </trkpt>
      <trkpt lat="42.554793000" lon="-2.408812000">
        <ele>628.30</ele>
        <time>2017-02-18T09:31:46Z</time>
      </trkpt>
      <trkpt lat="42.554712000" lon="-2.408879000">
        <ele>627.70</ele>
        <time>2017-02-18T09:31:47Z</time>
      </trkpt>
      <trkpt lat="42.554640000" lon="-2.408936000">
        <ele>627.20</ele>
        <time>2017-02-18T09:31:48Z</time>
      </trkpt>
      <trkpt lat="42.554566000" lon="-2.408990000">
        <ele>626.80</ele>
        <time>2017-02-18T09:31:49Z</time>
      </trkpt>
      <trkpt lat="42.554487000" lon="-2.409047000">
        <ele>625.30</ele>
        <time>2017-02-18T09:31:50Z</time>
      </trkpt>
      <trkpt lat="42.554407000" lon="-2.409114000">
        <ele>624.20</ele>
        <time>2017-02-18T09:31:51Z</time>
      </trkpt>
      <trkpt lat="42.554332000" lon="-2.409197000">
        <ele>623.10</ele>
        <time>2017-02-18T09:31:52Z</time>
      </trkpt>
      <trkpt lat="42.554254000" lon="-2.409286000">
        <ele>622.20</ele>
        <time>2017-02-18T09:31:53Z</time>
      </trkpt>
      <trkpt lat="42.554172000" lon="-2.409372000">
        <ele>620.70</ele>
        <time>2017-02-18T09:31:54Z</time>
      </trkpt>
      <trkpt lat="42.554085000" lon="-2.409455000">
        <ele>619.60</ele>
        <time>2017-02-18T09:31:55Z</time>
      </trkpt>
      <trkpt lat="42.553993000" lon="-2.409522000">
        <ele>618.20</ele>
        <time>2017-02-18T09:31:56Z</time>
      </trkpt>
      <trkpt lat="42.553897000" lon="-2.409585000">
        <ele>617.20</ele>
        <time>2017-02-18T09:31:57Z</time>
      </trkpt>
      <trkpt lat="42.553799000" lon="-2.409634000">
        <ele>616.40</ele>
        <time>2017-02-18T09:31:58Z</time>
      </trkpt>
      <trkpt lat="42.553699000" lon="-2.409669000">
        <ele>615.80</ele>
        <time>2017-02-18T09:31:59Z</time>
      </trkpt>
      <trkpt lat="42.553598000" lon="-2.409704000">
        <ele>614.90</ele>
        <time>2017-02-18T09:32:00Z</time>
      </trkpt>
      <trkpt lat="42.553494000" lon="-2.409716000">
        <ele>614.20</ele>
        <time>2017-02-18T09:32:01Z</time>
      </trkpt>
      <trkpt lat="42.553390000" lon="-2.409722000">
        <ele>613.50</ele>
        <time>2017-02-18T09:32:02Z</time>
      </trkpt>
      <trkpt lat="42.553288000" lon="-2.409735000">
        <ele>613.10</ele>
        <time>2017-02-18T09:32:03Z</time>
      </trkpt>
      <trkpt lat="42.553187000" lon="-2.409753000">
        <ele>612.70</ele>
        <time>2017-02-18T09:32:04Z</time>
      </trkpt>
      <trkpt lat="42.553081000" lon="-2.409776000">
        <ele>612.40</ele>
        <time>2017-02-18T09:32:05Z</time>
      </trkpt>
      <trkpt lat="42.552990000" lon="-2.409803000">
        <ele>612.00</ele>
        <time>2017-02-18T09:32:06Z</time>
      </trkpt>
      <trkpt lat="42.552916000" lon="-2.409815000">
        <ele>611.70</ele>
        <time>2017-02-18T09:32:07Z</time>
      </trkpt>
      <trkpt lat="42.552850000" lon="-2.409831000">
        <ele>611.40</ele>
        <time>2017-02-18T09:32:08Z</time>
      </trkpt>
      <trkpt lat="42.552790000" lon="-2.409862000">
        <ele>611.20</ele>
        <time>2017-02-18T09:32:09Z</time>
      </trkpt>
      <trkpt lat="42.552752000" lon="-2.409922000">
        <ele>610.20</ele>
        <time>2017-02-18T09:32:10Z</time>
      </trkpt>
      <trkpt lat="42.552735000" lon="-2.409991000">
        <ele>609.50</ele>
        <time>2017-02-18T09:32:11Z</time>
      </trkpt>
      <trkpt lat="42.552740000" lon="-2.410063000">
        <ele>608.60</ele>
        <time>2017-02-18T09:32:12Z</time>
      </trkpt>
      <trkpt lat="42.552758000" lon="-2.410134000">
        <ele>607.90</ele>
        <time>2017-02-18T09:32:13Z</time>
      </trkpt>
      <trkpt lat="42.552786000" lon="-2.410208000">
        <ele>607.10</ele>
        <time>2017-02-18T09:32:14Z</time>
      </trkpt>
      <trkpt lat="42.552809000" lon="-2.410286000">
        <ele>606.50</ele>
        <time>2017-02-18T09:32:15Z</time>
      </trkpt>
      <trkpt lat="42.552837000" lon="-2.410360000">
        <ele>606.00</ele>
        <time>2017-02-18T09:32:16Z</time>
      </trkpt>
      <trkpt lat="42.552865000" lon="-2.410431000">
        <ele>605.70</ele>
        <time>2017-02-18T09:32:17Z</time>
      </trkpt>
      <trkpt lat="42.552886000" lon="-2.410498000">
        <ele>605.40</ele>
        <time>2017-02-18T09:32:18Z</time>
      </trkpt>
      <trkpt lat="42.552904000" lon="-2.410551000">
        <ele>605.20</ele>
        <time>2017-02-18T09:32:19Z</time>
      </trkpt>
      <trkpt lat="42.552923000" lon="-2.410601000">
        <ele>605.10</ele>
        <time>2017-02-18T09:32:20Z</time>
      </trkpt>
      <trkpt lat="42.552940000" lon="-2.410651000">
        <ele>604.90</ele>
        <time>2017-02-18T09:32:21Z</time>
      </trkpt>
      <trkpt lat="42.552957000" lon="-2.410702000">
        <ele>604.80</ele>
        <time>2017-02-18T09:32:22Z</time>
      </trkpt>
      <trkpt lat="42.552974000" lon="-2.410753000">
        <ele>604.70</ele>
        <time>2017-02-18T09:32:23Z</time>
      </trkpt>
      <trkpt lat="42.552989000" lon="-2.410802000">
        <ele>604.70</ele>
        <time>2017-02-18T09:32:24Z</time>
      </trkpt>
      <trkpt lat="42.553005000" lon="-2.410853000">
        <ele>604.70</ele>
        <time>2017-02-18T09:32:25Z</time>
      </trkpt>
      <trkpt lat="42.553027000" lon="-2.410906000">
        <ele>604.60</ele>
        <time>2017-02-18T09:32:26Z</time>
      </trkpt>
      <trkpt lat="42.553049000" lon="-2.410963000">
        <ele>604.50</ele>
        <time>2017-02-18T09:32:27Z</time>
      </trkpt>
      <trkpt lat="42.553071000" lon="-2.411024000">
        <ele>604.40</ele>
        <time>2017-02-18T09:32:28Z</time>
      </trkpt>
      <trkpt lat="42.553092000" lon="-2.411085000">
        <ele>604.20</ele>
        <time>2017-02-18T09:32:29Z</time>
      </trkpt>
      <trkpt lat="42.553101000" lon="-2.411153000">
        <ele>604.00</ele>
        <time>2017-02-18T09:32:30Z</time>
      </trkpt>
      <trkpt lat="42.553087000" lon="-2.411286000">
        <ele>603.60</ele>
        <time>2017-02-18T09:32:32Z</time>
      </trkpt>
      <trkpt lat="42.553072000" lon="-2.411352000">
        <ele>603.40</ele>
        <time>2017-02-18T09:32:33Z</time>
      </trkpt>
      <trkpt lat="42.553064000" lon="-2.411426000">
        <ele>603.40</ele>
        <time>2017-02-18T09:32:34Z</time>
      </trkpt>
      <trkpt lat="42.553053000" lon="-2.411503000">
        <ele>603.30</ele>
        <time>2017-02-18T09:32:35Z</time>
      </trkpt>
      <trkpt lat="42.553043000" lon="-2.411584000">
        <ele>603.10</ele>
        <time>2017-02-18T09:32:36Z</time>
      </trkpt>
      <trkpt lat="42.553032000" lon="-2.411666000">
        <ele>602.90</ele>
        <time>2017-02-18T09:32:37Z</time>
      </trkpt>
      <trkpt lat="42.553031000" lon="-2.411748000">
        <ele>602.40</ele>
        <time>2017-02-18T09:32:38Z</time>
      </trkpt>
      <trkpt lat="42.553047000" lon="-2.411819000">
        <ele>602.00</ele>
        <time>2017-02-18T09:32:39Z</time>
      </trkpt>
      <trkpt lat="42.553075000" lon="-2.411884000">
        <ele>601.60</ele>
        <time>2017-02-18T09:32:40Z</time>
      </trkpt>
      <trkpt lat="42.553119000" lon="-2.411949000">
        <ele>601.30</ele>
        <time>2017-02-18T09:32:41Z</time>
      </trkpt>
      <trkpt lat="42.553175000" lon="-2.412002000">
        <ele>600.70</ele>
        <time>2017-02-18T09:32:42Z</time>
      </trkpt>
      <trkpt lat="42.553237000" lon="-2.412046000">
        <ele>600.20</ele>
        <time>2017-02-18T09:32:43Z</time>
      </trkpt>
      <trkpt lat="42.553304000" lon="-2.412081000">
        <ele>599.50</ele>
        <time>2017-02-18T09:32:44Z</time>
      </trkpt>
      <trkpt lat="42.553376000" lon="-2.412114000">
        <ele>598.90</ele>
        <time>2017-02-18T09:32:45Z</time>
      </trkpt>
      <trkpt lat="42.553453000" lon="-2.412145000">
        <ele>598.00</ele>
        <time>2017-02-18T09:32:46Z</time>
      </trkpt>
      <trkpt lat="42.553540000" lon="-2.412170000">
        <ele>597.30</ele>
        <time>2017-02-18T09:32:47Z</time>
      </trkpt>
      <trkpt lat="42.553621000" lon="-2.412187000">
        <ele>596.20</ele>
        <time>2017-02-18T09:32:48Z</time>
      </trkpt>
      <trkpt lat="42.553710000" lon="-2.412186000">
        <ele>595.40</ele>
        <time>2017-02-18T09:32:49Z</time>
      </trkpt>
      <trkpt lat="42.553805000" lon="-2.412186000">
        <ele>593.90</ele>
        <time>2017-02-18T09:32:50Z</time>
      </trkpt>
      <trkpt lat="42.553907000" lon="-2.412194000">
        <ele>592.70</ele>
        <time>2017-02-18T09:32:51Z</time>
      </trkpt>
      <trkpt lat="42.554000000" lon="-2.412215000">
        <ele>591.20</ele>
        <time>2017-02-18T09:32:52Z</time>
      </trkpt>
      <trkpt lat="42.554091000" lon="-2.412261000">
        <ele>590.00</ele>
        <time>2017-02-18T09:32:53Z</time>
      </trkpt>
      <trkpt lat="42.554178000" lon="-2.412313000">
        <ele>588.70</ele>
        <time>2017-02-18T09:32:54Z</time>
      </trkpt>
      <trkpt lat="42.554255000" lon="-2.412357000">
        <ele>587.70</ele>
        <time>2017-02-18T09:32:55Z</time>
      </trkpt>
      <trkpt lat="42.554331000" lon="-2.412388000">
        <ele>586.70</ele>
        <time>2017-02-18T09:32:56Z</time>
      </trkpt>
      <trkpt lat="42.554410000" lon="-2.412405000">
        <ele>586.00</ele>
        <time>2017-02-18T09:32:57Z</time>
      </trkpt>
      <trkpt lat="42.554488000" lon="-2.412415000">
        <ele>584.60</ele>
        <time>2017-02-18T09:32:58Z</time>
      </trkpt>
      <trkpt lat="42.554572000" lon="-2.412423000">
        <ele>583.60</ele>
        <time>2017-02-18T09:32:59Z</time>
      </trkpt>
      <trkpt lat="42.554664000" lon="-2.412431000">
        <ele>582.00</ele>
        <time>2017-02-18T09:33:00Z</time>
      </trkpt>
      <trkpt lat="42.554763000" lon="-2.412442000">
        <ele>580.90</ele>
        <time>2017-02-18T09:33:01Z</time>
      </trkpt>
      <trkpt lat="42.554866000" lon="-2.412457000">
        <ele>579.80</ele>
        <time>2017-02-18T09:33:02Z</time>
      </trkpt>
      <trkpt lat="42.554973000" lon="-2.412476000">
        <ele>579.00</ele>
        <time>2017-02-18T09:33:03Z</time>
      </trkpt>
      <trkpt lat="42.555086000" lon="-2.412502000">
        <ele>577.80</ele>
        <time>2017-02-18T09:33:04Z</time>
      </trkpt>
      <trkpt lat="42.555205000" lon="-2.412540000">
        <ele>576.80</ele>
        <time>2017-02-18T09:33:05Z</time>
      </trkpt>
      <trkpt lat="42.555325000" lon="-2.412586000">
        <ele>575.80</ele>
        <time>2017-02-18T09:33:06Z</time>
      </trkpt>
      <trkpt lat="42.555446000" lon="-2.412642000">
        <ele>575.00</ele>
        <time>2017-02-18T09:33:07Z</time>
      </trkpt>
      <trkpt lat="42.555560000" lon="-2.412700000">
        <ele>573.40</ele>
        <time>2017-02-18T09:33:08Z</time>
      </trkpt>
      <trkpt lat="42.555669000" lon="-2.412754000">
        <ele>572.20</ele>
        <time>2017-02-18T09:33:09Z</time>
      </trkpt>
      <trkpt lat="42.555776000" lon="-2.412798000">
        <ele>571.00</ele>
        <time>2017-02-18T09:33:10Z</time>
      </trkpt>
      <trkpt lat="42.555885000" lon="-2.412832000">
        <ele>570.00</ele>
        <time>2017-02-18T09:33:11Z</time>
      </trkpt>
      <trkpt lat="42.555985000" lon="-2.412859000">
        <ele>568.60</ele>
        <time>2017-02-18T09:33:12Z</time>
      </trkpt>
      <trkpt lat="42.556077000" lon="-2.412888000">
        <ele>567.50</ele>
        <time>2017-02-18T09:33:13Z</time>
      </trkpt>
      <trkpt lat="42.556158000" lon="-2.412928000">
        <ele>566.10</ele>
        <time>2017-02-18T09:33:14Z</time>
      </trkpt>
      <trkpt lat="42.556232000" lon="-2.412980000">
        <ele>565.10</ele>
        <time>2017-02-18T09:33:15Z</time>
      </trkpt>
      <trkpt lat="42.556299000" lon="-2.413040000">
        <ele>564.30</ele>
        <time>2017-02-18T09:33:16Z</time>
      </trkpt>
      <trkpt lat="42.556364000" lon="-2.413105000">
        <ele>563.60</ele>
        <time>2017-02-18T09:33:17Z</time>
      </trkpt>
      <trkpt lat="42.556425000" lon="-2.413169000">
        <ele>562.90</ele>
        <time>2017-02-18T09:33:18Z</time>
      </trkpt>
      <trkpt lat="42.556482000" lon="-2.413223000">
        <ele>562.30</ele>
        <time>2017-02-18T09:33:19Z</time>
      </trkpt>
      <trkpt lat="42.556531000" lon="-2.413271000">
        <ele>561.30</ele>
        <time>2017-02-18T09:33:20Z</time>
      </trkpt>
      <trkpt lat="42.556570000" lon="-2.413311000">
        <ele>560.50</ele>
        <time>2017-02-18T09:33:21Z</time>
      </trkpt>
      <trkpt lat="42.556602000" lon="-2.413352000">
        <ele>559.50</ele>
        <time>2017-02-18T09:33:22Z</time>
      </trkpt>
      <trkpt lat="42.556623000" lon="-2.413399000">
        <ele>558.80</ele>
        <time>2017-02-18T09:33:23Z</time>
      </trkpt>
      <trkpt lat="42.556636000" lon="-2.413432000">
        <ele>558.20</ele>
        <time>2017-02-18T09:33:24Z</time>
      </trkpt>
      <trkpt lat="42.556631000" lon="-2.413462000">
        <ele>557.70</ele>
        <time>2017-02-18T09:33:25Z</time>
      </trkpt>
      <trkpt lat="42.556621000" lon="-2.413472000">
        <ele>557.20</ele>
        <time>2017-02-18T09:33:26Z</time>
      </trkpt>
      <trkpt lat="42.556615000" lon="-2.413472000">
        <ele>556.80</ele>
        <time>2017-02-18T09:33:27Z</time>
      </trkpt>
      <trkpt lat="42.556612000" lon="-2.413469000">
        <ele>556.30</ele>
        <time>2017-02-18T09:33:28Z</time>
      </trkpt>
      <trkpt lat="42.556614000" lon="-2.413472000">
        <ele>555.90</ele>
        <time>2017-02-18T09:33:29Z</time>
      </trkpt>
      <trkpt lat="42.556616000" lon="-2.413469000">
        <ele>555.60</ele>
        <time>2017-02-18T09:33:30Z</time>
      </trkpt>
      <trkpt lat="42.556621000" lon="-2.413461000">
        <ele>555.40</ele>
        <time>2017-02-18T09:33:31Z</time>
      </trkpt>
      <trkpt lat="42.556621000" lon="-2.413463000">
        <ele>555.20</ele>
        <time>2017-02-18T09:33:32Z</time>
      </trkpt>
      <trkpt lat="42.556620000" lon="-2.413456000">
        <ele>555.00</ele>
        <time>2017-02-18T09:33:34Z</time>
      </trkpt>
      <trkpt lat="42.556622000" lon="-2.413453000">
        <ele>554.90</ele>
        <time>2017-02-18T09:33:35Z</time>
      </trkpt>
      <trkpt lat="42.556626000" lon="-2.413450000">
        <ele>554.80</ele>
        <time>2017-02-18T09:33:36Z</time>
      </trkpt>
      <trkpt lat="42.556630000" lon="-2.413445000">
        <ele>554.70</ele>
        <time>2017-02-18T09:33:37Z</time>
      </trkpt>
      <trkpt lat="42.556631000" lon="-2.413444000">
        <ele>554.70</ele>
        <time>2017-02-18T09:33:38Z</time>
      </trkpt>
      <trkpt lat="42.556631000" lon="-2.413442000">
        <ele>554.70</ele>
        <time>2017-02-18T09:33:39Z</time>
      </trkpt>
      <trkpt lat="42.556631000" lon="-2.413442000">
        <ele>554.70</ele>
        <time>2017-02-18T09:33:40Z</time>
      </trkpt>
      <trkpt lat="42.556630000" lon="-2.413442000">
        <ele>554.70</ele>
        <time>2017-02-18T09:33:41Z</time>
      </trkpt>
      <trkpt lat="42.556629000" lon="-2.413442000">
        <ele>554.80</ele>
        <time>2017-02-18T09:33:42Z</time>
      </trkpt>
      <trkpt lat="42.556628000" lon="-2.413442000">
        <ele>554.80</ele>
        <time>2017-02-18T09:33:43Z</time>
      </trkpt>
      <trkpt lat="42.556626000" lon="-2.413442000">
        <ele>554.70</ele>
        <time>2017-02-18T09:33:44Z</time>
      </trkpt>
      <trkpt lat="42.556626000" lon="-2.413443000">
        <ele>554.70</ele>
        <time>2017-02-18T09:33:45Z</time>
      </trkpt>
      <trkpt lat="42.556625000" lon="-2.413444000">
        <ele>554.80</ele>
        <time>2017-02-18T09:33:46Z</time>
      </trkpt>
      <trkpt lat="42.556625000" lon="-2.413443000">
        <ele>554.80</ele>
        <time>2017-02-18T09:33:47Z</time>
      </trkpt>
      <trkpt lat="42.556625000" lon="-2.413442000">
        <ele>554.90</ele>
        <time>2017-02-18T09:33:48Z</time>
      </trkpt>
      <trkpt lat="42.556624000" lon="-2.413442000">
        <ele>554.90</ele>
        <time>2017-02-18T09:33:49Z</time>
      </trkpt>
      <trkpt lat="42.556624000" lon="-2.413443000">
        <ele>554.90</ele>
        <time>2017-02-18T09:33:50Z</time>
      </trkpt>
      <trkpt lat="42.556624000" lon="-2.413443000">
        <ele>554.90</ele>
        <time>2017-02-18T09:33:51Z</time>
      </trkpt>
      <trkpt lat="42.556624000" lon="-2.413444000">
        <ele>554.90</ele>
        <time>2017-02-18T09:33:52Z</time>
      </trkpt>
      <trkpt lat="42.556621000" lon="-2.413444000">
        <ele>554.90</ele>
        <time>2017-02-18T09:33:53Z</time>
      </trkpt>
      <trkpt lat="42.556603000" lon="-2.413437000">
        <ele>554.80</ele>
        <time>2017-02-18T09:33:54Z</time>
      </trkpt>
      <trkpt lat="42.556589000" lon="-2.413422000">
        <ele>554.80</ele>
        <time>2017-02-18T09:33:55Z</time>
      </trkpt>
      <trkpt lat="42.556574000" lon="-2.413412000">
        <ele>554.70</ele>
        <time>2017-02-18T09:33:56Z</time>
      </trkpt>
      <trkpt lat="42.556555000" lon="-2.413396000">
        <ele>554.70</ele>
        <time>2017-02-18T09:33:57Z</time>
      </trkpt>
      <trkpt lat="42.556528000" lon="-2.413368000">
        <ele>554.60</ele>
        <time>2017-02-18T09:33:58Z</time>
      </trkpt>
      <trkpt lat="42.556494000" lon="-2.413336000">
        <ele>554.50</ele>
        <time>2017-02-18T09:33:59Z</time>
      </trkpt>
      <trkpt lat="42.556455000" lon="-2.413301000">
        <ele>554.50</ele>
        <time>2017-02-18T09:34:00Z</time>
      </trkpt>
      <trkpt lat="42.556410000" lon="-2.413268000">
        <ele>554.50</ele>
        <time>2017-02-18T09:34:01Z</time>
      </trkpt>
      <trkpt lat="42.556361000" lon="-2.413242000">
        <ele>554.30</ele>
        <time>2017-02-18T09:34:02Z</time>
      </trkpt>
      <trkpt lat="42.556308000" lon="-2.413212000">
        <ele>554.20</ele>
        <time>2017-02-18T09:34:03Z</time>
      </trkpt>
      <trkpt lat="42.556249000" lon="-2.413188000">
        <ele>554.10</ele>
        <time>2017-02-18T09:34:04Z</time>
      </trkpt>
      <trkpt lat="42.556192000" lon="-2.413166000">
        <ele>554.00</ele>
        <time>2017-02-18T09:34:05Z</time>
      </trkpt>
      <trkpt lat="42.556134000" lon="-2.413148000">
        <ele>554.00</ele>
        <time>2017-02-18T09:34:06Z</time>
      </trkpt>
      <trkpt lat="42.556073000" lon="-2.413131000">
        <ele>553.90</ele>
        <time>2017-02-18T09:34:07Z</time>
      </trkpt>
      <trkpt lat="42.556011000" lon="-2.413118000">
        <ele>553.70</ele>
        <time>2017-02-18T09:34:08Z</time>
      </trkpt>
      <trkpt lat="42.555946000" lon="-2.413106000">
        <ele>553.50</ele>
        <time>2017-02-18T09:34:09Z</time>
      </trkpt>
      <trkpt lat="42.555884000" lon="-2.413095000">
        <ele>553.40</ele>
        <time>2017-02-18T09:34:10Z</time>
      </trkpt>
      <trkpt lat="42.555820000" lon="-2.413089000">
        <ele>553.30</ele>
        <time>2017-02-18T09:34:11Z</time>
      </trkpt>
      <trkpt lat="42.555756000" lon="-2.413086000">
        <ele>553.20</ele>
        <time>2017-02-18T09:34:12Z</time>
      </trkpt>
      <trkpt lat="42.555695000" lon="-2.413083000">
        <ele>553.20</ele>
        <time>2017-02-18T09:34:13Z</time>
      </trkpt>
      <trkpt lat="42.555639000" lon="-2.413073000">
        <ele>553.10</ele>
        <time>2017-02-18T09:34:14Z</time>
      </trkpt>
      <trkpt lat="42.555585000" lon="-2.413064000">
        <ele>553.00</ele>
        <time>2017-02-18T09:34:15Z</time>
      </trkpt>
      <trkpt lat="42.555530000" lon="-2.413058000">
        <ele>552.80</ele>
        <time>2017-02-18T09:34:16Z</time>
      </trkpt>
      <trkpt lat="42.555477000" lon="-2.413048000">
        <ele>552.70</ele>
        <time>2017-02-18T09:34:17Z</time>
      </trkpt>
      <trkpt lat="42.555421000" lon="-2.413043000">
        <ele>552.10</ele>
        <time>2017-02-18T09:34:18Z</time>
      </trkpt>
      <trkpt lat="42.555367000" lon="-2.413042000">
        <ele>551.70</ele>
        <time>2017-02-18T09:34:19Z</time>
      </trkpt>
      <trkpt lat="42.555315000" lon="-2.413034000">
        <ele>551.40</ele>
        <time>2017-02-18T09:34:20Z</time>
      </trkpt>
      <trkpt lat="42.555261000" lon="-2.413028000">
        <ele>551.10</ele>
        <time>2017-02-18T09:34:21Z</time>
      </trkpt>
      <trkpt lat="42.555205000" lon="-2.413024000">
        <ele>551.00</ele>
        <time>2017-02-18T09:34:22Z</time>
      </trkpt>
      <trkpt lat="42.555148000" lon="-2.413022000">
        <ele>550.80</ele>
        <time>2017-02-18T09:34:23Z</time>
      </trkpt>
      <trkpt lat="42.555094000" lon="-2.413019000">
        <ele>550.80</ele>
        <time>2017-02-18T09:34:24Z</time>
      </trkpt>
      <trkpt lat="42.555039000" lon="-2.413020000">
        <ele>550.90</ele>
        <time>2017-02-18T09:34:25Z</time>
      </trkpt>
      <trkpt lat="42.554981000" lon="-2.413024000">
        <ele>551.00</ele>
        <time>2017-02-18T09:34:26Z</time>
      </trkpt>
      <trkpt lat="42.554924000" lon="-2.413029000">
        <ele>551.00</ele>
        <time>2017-02-18T09:34:27Z</time>
      </trkpt>
      <trkpt lat="42.554866000" lon="-2.413034000">
        <ele>551.10</ele>
        <time>2017-02-18T09:34:28Z</time>
      </trkpt>
      <trkpt lat="42.554810000" lon="-2.413043000">
        <ele>551.10</ele>
        <time>2017-02-18T09:34:29Z</time>
      </trkpt>
      <trkpt lat="42.554754000" lon="-2.413049000">
        <ele>550.80</ele>
        <time>2017-02-18T09:34:30Z</time>
      </trkpt>
      <trkpt lat="42.554700000" lon="-2.413058000">
        <ele>550.60</ele>
        <time>2017-02-18T09:34:31Z</time>
      </trkpt>
      <trkpt lat="42.554647000" lon="-2.413066000">
        <ele>550.30</ele>
        <time>2017-02-18T09:34:32Z</time>
      </trkpt>
      <trkpt lat="42.554593000" lon="-2.413077000">
        <ele>550.10</ele>
        <time>2017-02-18T09:34:33Z</time>
      </trkpt>
      <trkpt lat="42.554540000" lon="-2.413087000">
        <ele>549.90</ele>
        <time>2017-02-18T09:34:34Z</time>
      </trkpt>
      <trkpt lat="42.554431000" lon="-2.413108000">
        <ele>549.30</ele>
        <time>2017-02-18T09:34:36Z</time>
      </trkpt>
      <trkpt lat="42.554374000" lon="-2.413118000">
        <ele>549.00</ele>
        <time>2017-02-18T09:34:37Z</time>
      </trkpt>
      <trkpt lat="42.554317000" lon="-2.413127000">
        <ele>548.80</ele>
        <time>2017-02-18T09:34:38Z</time>
      </trkpt>
      <trkpt lat="42.554259000" lon="-2.413128000">
        <ele>548.60</ele>
        <time>2017-02-18T09:34:39Z</time>
      </trkpt>
      <trkpt lat="42.554204000" lon="-2.413132000">
        <ele>548.40</ele>
        <time>2017-02-18T09:34:40Z</time>
      </trkpt>
      <trkpt lat="42.554150000" lon="-2.413131000">
        <ele>548.30</ele>
        <time>2017-02-18T09:34:41Z</time>
      </trkpt>
      <trkpt lat="42.554092000" lon="-2.413130000">
        <ele>548.20</ele>
        <time>2017-02-18T09:34:42Z</time>
      </trkpt>
      <trkpt lat="42.554036000" lon="-2.413133000">
        <ele>548.10</ele>
        <time>2017-02-18T09:34:43Z</time>
      </trkpt>
      <trkpt lat="42.553980000" lon="-2.413138000">
        <ele>548.00</ele>
        <time>2017-02-18T09:34:44Z</time>
      </trkpt>
      <trkpt lat="42.553924000" lon="-2.413148000">
        <ele>547.90</ele>
        <time>2017-02-18T09:34:45Z</time>
      </trkpt>
      <trkpt lat="42.553869000" lon="-2.413162000">
        <ele>547.90</ele>
        <time>2017-02-18T09:34:46Z</time>
      </trkpt>
      <trkpt lat="42.553813000" lon="-2.413180000">
        <ele>547.90</ele>
        <time>2017-02-18T09:34:47Z</time>
      </trkpt>
      <trkpt lat="42.553758000" lon="-2.413202000">
        <ele>547.80</ele>
        <time>2017-02-18T09:34:48Z</time>
      </trkpt>
      <trkpt lat="42.553704000" lon="-2.413230000">
        <ele>547.80</ele>
        <time>2017-02-18T09:34:49Z</time>
      </trkpt>
      <trkpt lat="42.553649000" lon="-2.413264000">
        <ele>547.70</ele>
        <time>2017-02-18T09:34:50Z</time>
      </trkpt>
      <trkpt lat="42.553589000" lon="-2.413293000">
        <ele>547.70</ele>
        <time>2017-02-18T09:34:51Z</time>
      </trkpt>
      <trkpt lat="42.553528000" lon="-2.413316000">
        <ele>547.60</ele>
        <time>2017-02-18T09:34:52Z</time>
      </trkpt>
      <trkpt lat="42.553467000" lon="-2.413341000">
        <ele>547.50</ele>
        <time>2017-02-18T09:34:53Z</time>
      </trkpt>
      <trkpt lat="42.553406000" lon="-2.413361000">
        <ele>547.30</ele>
        <time>2017-02-18T09:34:54Z</time>
      </trkpt>
      <trkpt lat="42.553346000" lon="-2.413377000">
        <ele>547.20</ele>
        <time>2017-02-18T09:34:55Z</time>
      </trkpt>
      <trkpt lat="42.553287000" lon="-2.413392000">
        <ele>547.10</ele>
        <time>2017-02-18T09:34:56Z</time>
      </trkpt>
      <trkpt lat="42.553230000" lon="-2.413405000">
        <ele>547.00</ele>
        <time>2017-02-18T09:34:57Z</time>
      </trkpt>
      <trkpt lat="42.553174000" lon="-2.413414000">
        <ele>546.70</ele>
        <time>2017-02-18T09:34:58Z</time>
      </trkpt>
      <trkpt lat="42.553122000" lon="-2.413422000">
        <ele>546.40</ele>
        <time>2017-02-18T09:34:59Z</time>
      </trkpt>
      <trkpt lat="42.553074000" lon="-2.413429000">
        <ele>546.20</ele>
        <time>2017-02-18T09:35:00Z</time>
      </trkpt>
      <trkpt lat="42.553025000" lon="-2.413434000">
        <ele>546.00</ele>
        <time>2017-02-18T09:35:01Z</time>
      </trkpt>
      <trkpt lat="42.552976000" lon="-2.413437000">
        <ele>545.90</ele>
        <time>2017-02-18T09:35:02Z</time>
      </trkpt>
      <trkpt lat="42.552927000" lon="-2.413444000">
        <ele>545.80</ele>
        <time>2017-02-18T09:35:03Z</time>
      </trkpt>
      <trkpt lat="42.552880000" lon="-2.413453000">
        <ele>545.70</ele>
        <time>2017-02-18T09:35:04Z</time>
      </trkpt>
      <trkpt lat="42.552830000" lon="-2.413467000">
        <ele>545.60</ele>
        <time>2017-02-18T09:35:05Z</time>
      </trkpt>
      <trkpt lat="42.552775000" lon="-2.413479000">
        <ele>545.50</ele>
        <time>2017-02-18T09:35:06Z</time>
      </trkpt>
      <trkpt lat="42.552718000" lon="-2.413479000">
        <ele>545.40</ele>
        <time>2017-02-18T09:35:07Z</time>
      </trkpt>
      <trkpt lat="42.552659000" lon="-2.413477000">
        <ele>545.40</ele>
        <time>2017-02-18T09:35:08Z</time>
      </trkpt>
      <trkpt lat="42.552599000" lon="-2.413470000">
        <ele>545.30</ele>
        <time>2017-02-18T09:35:09Z</time>
      </trkpt>
      <trkpt lat="42.552540000" lon="-2.413464000">
        <ele>545.20</ele>
        <time>2017-02-18T09:35:10Z</time>
      </trkpt>
      <trkpt lat="42.552483000" lon="-2.413457000">
        <ele>545.20</ele>
        <time>2017-02-18T09:35:11Z</time>
      </trkpt>
      <trkpt lat="42.552427000" lon="-2.413445000">
        <ele>545.20</ele>
        <time>2017-02-18T09:35:12Z</time>
      </trkpt>
      <trkpt lat="42.552369000" lon="-2.413437000">
        <ele>545.20</ele>
        <time>2017-02-18T09:35:13Z</time>
      </trkpt>
      <trkpt lat="42.552313000" lon="-2.413435000">
        <ele>545.20</ele>
        <time>2017-02-18T09:35:14Z</time>
      </trkpt>
      <trkpt lat="42.552258000" lon="-2.413432000">
        <ele>545.20</ele>
        <time>2017-02-18T09:35:15Z</time>
      </trkpt>
      <trkpt lat="42.552203000" lon="-2.413421000">
        <ele>545.20</ele>
        <time>2017-02-18T09:35:16Z</time>
      </trkpt>
      <trkpt lat="42.552145000" lon="-2.413407000">
        <ele>545.20</ele>
        <time>2017-02-18T09:35:17Z</time>
      </trkpt>
      <trkpt lat="42.552090000" lon="-2.413391000">
        <ele>545.20</ele>
        <time>2017-02-18T09:35:18Z</time>
      </trkpt>
      <trkpt lat="42.552039000" lon="-2.413370000">
        <ele>545.20</ele>
        <time>2017-02-18T09:35:19Z</time>
      </trkpt>
      <trkpt lat="42.551985000" lon="-2.413350000">
        <ele>545.10</ele>
        <time>2017-02-18T09:35:20Z</time>
      </trkpt>
      <trkpt lat="42.551931000" lon="-2.413325000">
        <ele>545.10</ele>
        <time>2017-02-18T09:35:21Z</time>
      </trkpt>
      <trkpt lat="42.551878000" lon="-2.413298000">
        <ele>545.00</ele>
        <time>2017-02-18T09:35:22Z</time>
      </trkpt>
      <trkpt lat="42.551826000" lon="-2.413270000">
        <ele>545.00</ele>
        <time>2017-02-18T09:35:23Z</time>
      </trkpt>
      <trkpt lat="42.551775000" lon="-2.413237000">
        <ele>545.00</ele>
        <time>2017-02-18T09:35:24Z</time>
      </trkpt>
      <trkpt lat="42.551724000" lon="-2.413202000">
        <ele>545.00</ele>
        <time>2017-02-18T09:35:25Z</time>
      </trkpt>
      <trkpt lat="42.551675000" lon="-2.413162000">
        <ele>544.80</ele>
        <time>2017-02-18T09:35:26Z</time>
      </trkpt>
      <trkpt lat="42.551626000" lon="-2.413122000">
        <ele>544.70</ele>
        <time>2017-02-18T09:35:27Z</time>
      </trkpt>
      <trkpt lat="42.551577000" lon="-2.413082000">
        <ele>544.50</ele>
        <time>2017-02-18T09:35:28Z</time>
      </trkpt>
      <trkpt lat="42.551529000" lon="-2.413040000">
        <ele>544.40</ele>
        <time>2017-02-18T09:35:29Z</time>
      </trkpt>
      <trkpt lat="42.551482000" lon="-2.412996000">
        <ele>544.40</ele>
        <time>2017-02-18T09:35:30Z</time>
      </trkpt>
      <trkpt lat="42.551434000" lon="-2.412958000">
        <ele>544.40</ele>
        <time>2017-02-18T09:35:31Z</time>
      </trkpt>
      <trkpt lat="42.551395000" lon="-2.412922000">
        <ele>544.50</ele>
        <time>2017-02-18T09:35:32Z</time>
      </trkpt>
      <trkpt lat="42.551355000" lon="-2.412886000">
        <ele>544.50</ele>
        <time>2017-02-18T09:35:33Z</time>
      </trkpt>
      <trkpt lat="42.551309000" lon="-2.412854000">
        <ele>544.50</ele>
        <time>2017-02-18T09:35:34Z</time>
      </trkpt>
      <trkpt lat="42.551262000" lon="-2.412823000">
        <ele>544.50</ele>
        <time>2017-02-18T09:35:35Z</time>
      </trkpt>
      <trkpt lat="42.551211000" lon="-2.412791000">
        <ele>544.50</ele>
        <time>2017-02-18T09:35:36Z</time>
      </trkpt>
      <trkpt lat="42.551112000" lon="-2.412723000">
        <ele>544.30</ele>
        <time>2017-02-18T09:35:38Z</time>
      </trkpt>
      <trkpt lat="42.551069000" lon="-2.412678000">
        <ele>544.20</ele>
        <time>2017-02-18T09:35:39Z</time>
      </trkpt>
      <trkpt lat="42.551031000" lon="-2.412625000">
        <ele>544.10</ele>
        <time>2017-02-18T09:35:40Z</time>
      </trkpt>
      <trkpt lat="42.550994000" lon="-2.412569000">
        <ele>544.10</ele>
        <time>2017-02-18T09:35:41Z</time>
      </trkpt>
      <trkpt lat="42.550962000" lon="-2.412512000">
        <ele>544.00</ele>
        <time>2017-02-18T09:35:42Z</time>
      </trkpt>
      <trkpt lat="42.550930000" lon="-2.412452000">
        <ele>544.00</ele>
        <time>2017-02-18T09:35:43Z</time>
      </trkpt>
      <trkpt lat="42.550898000" lon="-2.412393000">
        <ele>544.10</ele>
        <time>2017-02-18T09:35:44Z</time>
      </trkpt>
      <trkpt lat="42.550864000" lon="-2.412336000">
        <ele>544.20</ele>
        <time>2017-02-18T09:35:45Z</time>
      </trkpt>
      <trkpt lat="42.550832000" lon="-2.412277000">
        <ele>544.30</ele>
        <time>2017-02-18T09:35:46Z</time>
      </trkpt>
      <trkpt lat="42.550802000" lon="-2.412217000">
        <ele>544.40</ele>
        <time>2017-02-18T09:35:47Z</time>
      </trkpt>
      <trkpt lat="42.550771000" lon="-2.412163000">
        <ele>544.30</ele>
        <time>2017-02-18T09:35:48Z</time>
      </trkpt>
      <trkpt lat="42.550737000" lon="-2.412104000">
        <ele>544.30</ele>
        <time>2017-02-18T09:35:49Z</time>
      </trkpt>
      <trkpt lat="42.550703000" lon="-2.412046000">
        <ele>543.80</ele>
        <time>2017-02-18T09:35:50Z</time>
      </trkpt>
      <trkpt lat="42.550668000" lon="-2.411992000">
        <ele>543.40</ele>
        <time>2017-02-18T09:35:51Z</time>
      </trkpt>
      <trkpt lat="42.550631000" lon="-2.411942000">
        <ele>543.20</ele>
        <time>2017-02-18T09:35:52Z</time>
      </trkpt>
      <trkpt lat="42.550592000" lon="-2.411890000">
        <ele>542.90</ele>
        <time>2017-02-18T09:35:53Z</time>
      </trkpt>
      <trkpt lat="42.550552000" lon="-2.411841000">
        <ele>543.20</ele>
        <time>2017-02-18T09:35:54Z</time>
      </trkpt>
      <trkpt lat="42.550509000" lon="-2.411793000">
        <ele>543.40</ele>
        <time>2017-02-18T09:35:55Z</time>
      </trkpt>
      <trkpt lat="42.550466000" lon="-2.411749000">
        <ele>543.70</ele>
        <time>2017-02-18T09:35:56Z</time>
      </trkpt>
      <trkpt lat="42.550420000" lon="-2.411706000">
        <ele>543.90</ele>
        <time>2017-02-18T09:35:57Z</time>
      </trkpt>
      <trkpt lat="42.550374000" lon="-2.411664000">
        <ele>543.90</ele>
        <time>2017-02-18T09:35:58Z</time>
      </trkpt>
      <trkpt lat="42.550326000" lon="-2.411622000">
        <ele>543.90</ele>
        <time>2017-02-18T09:35:59Z</time>
      </trkpt>
      <trkpt lat="42.550277000" lon="-2.411580000">
        <ele>543.90</ele>
        <time>2017-02-18T09:36:00Z</time>
      </trkpt>
      <trkpt lat="42.550225000" lon="-2.411537000">
        <ele>543.90</ele>
        <time>2017-02-18T09:36:01Z</time>
      </trkpt>
      <trkpt lat="42.550176000" lon="-2.411492000">
        <ele>543.90</ele>
        <time>2017-02-18T09:36:02Z</time>
      </trkpt>
      <trkpt lat="42.550127000" lon="-2.411450000">
        <ele>543.90</ele>
        <time>2017-02-18T09:36:03Z</time>
      </trkpt>
      <trkpt lat="42.550080000" lon="-2.411405000">
        <ele>543.90</ele>
        <time>2017-02-18T09:36:04Z</time>
      </trkpt>
      <trkpt lat="42.550034000" lon="-2.411357000">
        <ele>543.90</ele>
        <time>2017-02-18T09:36:05Z</time>
      </trkpt>
      <trkpt lat="42.549987000" lon="-2.411314000">
        <ele>543.80</ele>
        <time>2017-02-18T09:36:06Z</time>
      </trkpt>
      <trkpt lat="42.549940000" lon="-2.411272000">
        <ele>543.80</ele>
        <time>2017-02-18T09:36:07Z</time>
      </trkpt>
      <trkpt lat="42.549893000" lon="-2.411231000">
        <ele>543.80</ele>
        <time>2017-02-18T09:36:08Z</time>
      </trkpt>
      <trkpt lat="42.549844000" lon="-2.411197000">
        <ele>543.80</ele>
        <time>2017-02-18T09:36:09Z</time>
      </trkpt>
      <trkpt lat="42.549797000" lon="-2.411160000">
        <ele>543.60</ele>
        <time>2017-02-18T09:36:10Z</time>
      </trkpt>
      <trkpt lat="42.549748000" lon="-2.411125000">
        <ele>543.50</ele>
        <time>2017-02-18T09:36:11Z</time>
      </trkpt>
      <trkpt lat="42.549699000" lon="-2.411093000">
        <ele>543.60</ele>
        <time>2017-02-18T09:36:12Z</time>
      </trkpt>
      <trkpt lat="42.549651000" lon="-2.411059000">
        <ele>543.70</ele>
        <time>2017-02-18T09:36:13Z</time>
      </trkpt>
      <trkpt lat="42.549603000" lon="-2.411021000">
        <ele>543.60</ele>
        <time>2017-02-18T09:36:14Z</time>
      </trkpt>
      <trkpt lat="42.549554000" lon="-2.410983000">
        <ele>543.40</ele>
        <time>2017-02-18T09:36:15Z</time>
      </trkpt>
      <trkpt lat="42.549505000" lon="-2.410948000">
        <ele>543.40</ele>
        <time>2017-02-18T09:36:16Z</time>
      </trkpt>
      <trkpt lat="42.549451000" lon="-2.410919000">
        <ele>543.50</ele>
        <time>2017-02-18T09:36:17Z</time>
      </trkpt>
      <trkpt lat="42.549396000" lon="-2.410894000">
        <ele>543.50</ele>
        <time>2017-02-18T09:36:18Z</time>
      </trkpt>
      <trkpt lat="42.549338000" lon="-2.410880000">
        <ele>543.50</ele>
        <time>2017-02-18T09:36:19Z</time>
      </trkpt>
      <trkpt lat="42.549281000" lon="-2.410867000">
        <ele>543.50</ele>
        <time>2017-02-18T09:36:20Z</time>
      </trkpt>
      <trkpt lat="42.549222000" lon="-2.410857000">
        <ele>543.50</ele>
        <time>2017-02-18T09:36:21Z</time>
      </trkpt>
      <trkpt lat="42.549158000" lon="-2.410858000">
        <ele>543.50</ele>
        <time>2017-02-18T09:36:22Z</time>
      </trkpt>
      <trkpt lat="42.549096000" lon="-2.410859000">
        <ele>543.50</ele>
        <time>2017-02-18T09:36:23Z</time>
      </trkpt>
      <trkpt lat="42.549034000" lon="-2.410861000">
        <ele>543.50</ele>
        <time>2017-02-18T09:36:24Z</time>
      </trkpt>
      <trkpt lat="42.548972000" lon="-2.410864000">
        <ele>543.40</ele>
        <time>2017-02-18T09:36:25Z</time>
      </trkpt>
      <trkpt lat="42.548909000" lon="-2.410861000">
        <ele>543.40</ele>
        <time>2017-02-18T09:36:26Z</time>
      </trkpt>
      <trkpt lat="42.548844000" lon="-2.410853000">
        <ele>543.40</ele>
        <time>2017-02-18T09:36:27Z</time>
      </trkpt>
      <trkpt lat="42.548782000" lon="-2.410836000">
        <ele>543.30</ele>
        <time>2017-02-18T09:36:28Z</time>
      </trkpt>
      <trkpt lat="42.548721000" lon="-2.410812000">
        <ele>543.30</ele>
        <time>2017-02-18T09:36:29Z</time>
      </trkpt>
      <trkpt lat="42.548656000" lon="-2.410791000">
        <ele>543.20</ele>
        <time>2017-02-18T09:36:30Z</time>
      </trkpt>
      <trkpt lat="42.548590000" lon="-2.410767000">
        <ele>543.10</ele>
        <time>2017-02-18T09:36:31Z</time>
      </trkpt>
      <trkpt lat="42.548521000" lon="-2.410741000">
        <ele>542.60</ele>
        <time>2017-02-18T09:36:32Z</time>
      </trkpt>
      <trkpt lat="42.548450000" lon="-2.410714000">
        <ele>542.30</ele>
        <time>2017-02-18T09:36:33Z</time>
      </trkpt>
      <trkpt lat="42.548378000" lon="-2.410686000">
        <ele>542.00</ele>
        <time>2017-02-18T09:36:34Z</time>
      </trkpt>
      <trkpt lat="42.548307000" lon="-2.410654000">
        <ele>541.80</ele>
        <time>2017-02-18T09:36:35Z</time>
      </trkpt>
      <trkpt lat="42.548234000" lon="-2.410617000">
        <ele>541.60</ele>
        <time>2017-02-18T09:36:36Z</time>
      </trkpt>
      <trkpt lat="42.548161000" lon="-2.410575000">
        <ele>541.50</ele>
        <time>2017-02-18T09:36:37Z</time>
      </trkpt>
      <trkpt lat="42.548003000" lon="-2.410472000">
        <ele>539.80</ele>
        <time>2017-02-18T09:36:39Z</time>
      </trkpt>
      <trkpt lat="42.547920000" lon="-2.410416000">
        <ele>539.20</ele>
        <time>2017-02-18T09:36:40Z</time>
      </trkpt>
      <trkpt lat="42.547837000" lon="-2.410353000">
        <ele>538.70</ele>
        <time>2017-02-18T09:36:41Z</time>
      </trkpt>
      <trkpt lat="42.547754000" lon="-2.410277000">
        <ele>537.90</ele>
        <time>2017-02-18T09:36:42Z</time>
      </trkpt>
      <trkpt lat="42.547679000" lon="-2.410205000">
        <ele>537.30</ele>
        <time>2017-02-18T09:36:43Z</time>
      </trkpt>
      <trkpt lat="42.547605000" lon="-2.410141000">
        <ele>535.80</ele>
        <time>2017-02-18T09:36:44Z</time>
      </trkpt>
      <trkpt lat="42.547534000" lon="-2.410073000">
        <ele>534.70</ele>
        <time>2017-02-18T09:36:45Z</time>
      </trkpt>
      <trkpt lat="42.547457000" lon="-2.410009000">
        <ele>533.50</ele>
        <time>2017-02-18T09:36:46Z</time>
      </trkpt>
      <trkpt lat="42.547385000" lon="-2.409931000">
        <ele>532.70</ele>
        <time>2017-02-18T09:36:47Z</time>
      </trkpt>
      <trkpt lat="42.547313000" lon="-2.409847000">
        <ele>531.30</ele>
        <time>2017-02-18T09:36:48Z</time>
      </trkpt>
      <trkpt lat="42.547239000" lon="-2.409770000">
        <ele>530.20</ele>
        <time>2017-02-18T09:36:49Z</time>
      </trkpt>
      <trkpt lat="42.547167000" lon="-2.409694000">
        <ele>529.00</ele>
        <time>2017-02-18T09:36:50Z</time>
      </trkpt>
      <trkpt lat="42.547117000" lon="-2.409640000">
        <ele>528.00</ele>
        <time>2017-02-18T09:36:51Z</time>
      </trkpt>
      <trkpt lat="42.547085000" lon="-2.409606000">
        <ele>527.30</ele>
        <time>2017-02-18T09:36:52Z</time>
      </trkpt>
      <trkpt lat="42.547064000" lon="-2.409586000">
        <ele>526.80</ele>
        <time>2017-02-18T09:36:53Z</time>
      </trkpt>
      <trkpt lat="42.547044000" lon="-2.409564000">
        <ele>526.10</ele>
        <time>2017-02-18T09:36:54Z</time>
      </trkpt>
      <trkpt lat="42.547030000" lon="-2.409542000">
        <ele>525.60</ele>
        <time>2017-02-18T09:36:55Z</time>
      </trkpt>
      <trkpt lat="42.547019000" lon="-2.409530000">
        <ele>525.10</ele>
        <time>2017-02-18T09:36:56Z</time>
      </trkpt>
      <trkpt lat="42.547007000" lon="-2.409512000">
        <ele>524.80</ele>
        <time>2017-02-18T09:36:57Z</time>
      </trkpt>
      <trkpt lat="42.546994000" lon="-2.409491000">
        <ele>524.50</ele>
        <time>2017-02-18T09:36:58Z</time>
      </trkpt>
      <trkpt lat="42.546981000" lon="-2.409467000">
        <ele>524.30</ele>
        <time>2017-02-18T09:36:59Z</time>
      </trkpt>
      <trkpt lat="42.546966000" lon="-2.409442000">
        <ele>524.20</ele>
        <time>2017-02-18T09:37:00Z</time>
      </trkpt>
      <trkpt lat="42.546953000" lon="-2.409412000">
        <ele>524.10</ele>
        <time>2017-02-18T09:37:01Z</time>
      </trkpt>
      <trkpt lat="42.546936000" lon="-2.409381000">
        <ele>524.00</ele>
        <time>2017-02-18T09:37:02Z</time>
      </trkpt>
      <trkpt lat="42.546919000" lon="-2.409353000">
        <ele>524.00</ele>
        <time>2017-02-18T09:37:03Z</time>
      </trkpt>
      <trkpt lat="42.546902000" lon="-2.409321000">
        <ele>523.90</ele>
        <time>2017-02-18T09:37:04Z</time>
      </trkpt>
      <trkpt lat="42.546887000" lon="-2.409288000">
        <ele>523.90</ele>
        <time>2017-02-18T09:37:05Z</time>
      </trkpt>
      <trkpt lat="42.546872000" lon="-2.409258000">
        <ele>523.90</ele>
        <time>2017-02-18T09:37:06Z</time>
      </trkpt>
      <trkpt lat="42.546858000" lon="-2.409233000">
        <ele>523.80</ele>
        <time>2017-02-18T09:37:07Z</time>
      </trkpt>
      <trkpt lat="42.546846000" lon="-2.409199000">
        <ele>523.80</ele>
        <time>2017-02-18T09:37:08Z</time>
      </trkpt>
      <trkpt lat="42.546834000" lon="-2.409165000">
        <ele>523.80</ele>
        <time>2017-02-18T09:37:09Z</time>
      </trkpt>
      <trkpt lat="42.546817000" lon="-2.409130000">
        <ele>523.70</ele>
        <time>2017-02-18T09:37:10Z</time>
      </trkpt>
      <trkpt lat="42.546797000" lon="-2.409095000">
        <ele>523.60</ele>
        <time>2017-02-18T09:37:11Z</time>
      </trkpt>
      <trkpt lat="42.546777000" lon="-2.409053000">
        <ele>523.70</ele>
        <time>2017-02-18T09:37:12Z</time>
      </trkpt>
      <trkpt lat="42.546757000" lon="-2.409005000">
        <ele>523.80</ele>
        <time>2017-02-18T09:37:13Z</time>
      </trkpt>
      <trkpt lat="42.546735000" lon="-2.408955000">
        <ele>523.50</ele>
        <time>2017-02-18T09:37:14Z</time>
      </trkpt>
      <trkpt lat="42.546715000" lon="-2.408902000">
        <ele>523.30</ele>
        <time>2017-02-18T09:37:15Z</time>
      </trkpt>
      <trkpt lat="42.546693000" lon="-2.408847000">
        <ele>523.60</ele>
        <time>2017-02-18T09:37:16Z</time>
      </trkpt>
      <trkpt lat="42.546672000" lon="-2.408789000">
        <ele>523.80</ele>
        <time>2017-02-18T09:37:17Z</time>
      </trkpt>
      <trkpt lat="42.546649000" lon="-2.408733000">
        <ele>523.70</ele>
        <time>2017-02-18T09:37:18Z</time>
      </trkpt>
      <trkpt lat="42.546626000" lon="-2.408675000">
        <ele>523.70</ele>
        <time>2017-02-18T09:37:19Z</time>
      </trkpt>
      <trkpt lat="42.546604000" lon="-2.408617000">
        <ele>524.00</ele>
        <time>2017-02-18T09:37:20Z</time>
      </trkpt>
      <trkpt lat="42.546579000" lon="-2.408557000">
        <ele>524.30</ele>
        <time>2017-02-18T09:37:21Z</time>
      </trkpt>
      <trkpt lat="42.546551000" lon="-2.408500000">
        <ele>524.10</ele>
        <time>2017-02-18T09:37:22Z</time>
      </trkpt>
      <trkpt lat="42.546520000" lon="-2.408446000">
        <ele>524.00</ele>
        <time>2017-02-18T09:37:23Z</time>
      </trkpt>
      <trkpt lat="42.546486000" lon="-2.408392000">
        <ele>524.30</ele>
        <time>2017-02-18T09:37:24Z</time>
      </trkpt>
      <trkpt lat="42.546448000" lon="-2.408340000">
        <ele>524.50</ele>
        <time>2017-02-18T09:37:25Z</time>
      </trkpt>
      <trkpt lat="42.546407000" lon="-2.408291000">
        <ele>524.60</ele>
        <time>2017-02-18T09:37:26Z</time>
      </trkpt>
      <trkpt lat="42.546367000" lon="-2.408242000">
        <ele>524.70</ele>
        <time>2017-02-18T09:37:27Z</time>
      </trkpt>
      <trkpt lat="42.546324000" lon="-2.408196000">
        <ele>524.80</ele>
        <time>2017-02-18T09:37:28Z</time>
      </trkpt>
      <trkpt lat="42.546280000" lon="-2.408151000">
        <ele>524.90</ele>
        <time>2017-02-18T09:37:29Z</time>
      </trkpt>
      <trkpt lat="42.546237000" lon="-2.408109000">
        <ele>524.90</ele>
        <time>2017-02-18T09:37:30Z</time>
      </trkpt>
      <trkpt lat="42.546191000" lon="-2.408071000">
        <ele>524.90</ele>
        <time>2017-02-18T09:37:31Z</time>
      </trkpt>
      <trkpt lat="42.546144000" lon="-2.408036000">
        <ele>525.00</ele>
        <time>2017-02-18T09:37:32Z</time>
      </trkpt>
      <trkpt lat="42.546098000" lon="-2.408002000">
        <ele>525.00</ele>
        <time>2017-02-18T09:37:33Z</time>
      </trkpt>
      <trkpt lat="42.546050000" lon="-2.407974000">
        <ele>525.40</ele>
        <time>2017-02-18T09:37:34Z</time>
      </trkpt>
      <trkpt lat="42.546005000" lon="-2.407944000">
        <ele>525.60</ele>
        <time>2017-02-18T09:37:35Z</time>
      </trkpt>
      <trkpt lat="42.545958000" lon="-2.407913000">
        <ele>525.90</ele>
        <time>2017-02-18T09:37:36Z</time>
      </trkpt>
      <trkpt lat="42.545914000" lon="-2.407879000">
        <ele>526.00</ele>
        <time>2017-02-18T09:37:37Z</time>
      </trkpt>
      <trkpt lat="42.545872000" lon="-2.407846000">
        <ele>526.10</ele>
        <time>2017-02-18T09:37:38Z</time>
      </trkpt>
      <trkpt lat="42.545832000" lon="-2.407813000">
        <ele>526.20</ele>
        <time>2017-02-18T09:37:39Z</time>
      </trkpt>
      <trkpt lat="42.545760000" lon="-2.407751000">
        <ele>526.90</ele>
        <time>2017-02-18T09:37:41Z</time>
      </trkpt>
      <trkpt lat="42.545723000" lon="-2.407724000">
        <ele>527.10</ele>
        <time>2017-02-18T09:37:42Z</time>
      </trkpt>
      <trkpt lat="42.545685000" lon="-2.407697000">
        <ele>527.30</ele>
        <time>2017-02-18T09:37:43Z</time>
      </trkpt>
      <trkpt lat="42.545650000" lon="-2.407671000">
        <ele>527.40</ele>
        <time>2017-02-18T09:37:44Z</time>
      </trkpt>
      <trkpt lat="42.545616000" lon="-2.407647000">
        <ele>527.50</ele>
        <time>2017-02-18T09:37:45Z</time>
      </trkpt>
      <trkpt lat="42.545582000" lon="-2.407622000">
        <ele>527.70</ele>
        <time>2017-02-18T09:37:46Z</time>
      </trkpt>
      <trkpt lat="42.545547000" lon="-2.407598000">
        <ele>527.80</ele>
        <time>2017-02-18T09:37:47Z</time>
      </trkpt>
      <trkpt lat="42.545511000" lon="-2.407577000">
        <ele>528.00</ele>
        <time>2017-02-18T09:37:48Z</time>
      </trkpt>
      <trkpt lat="42.545474000" lon="-2.407555000">
        <ele>528.10</ele>
        <time>2017-02-18T09:37:49Z</time>
      </trkpt>
      <trkpt lat="42.545437000" lon="-2.407533000">
        <ele>528.30</ele>
        <time>2017-02-18T09:37:50Z</time>
      </trkpt>
      <trkpt lat="42.545398000" lon="-2.407513000">
        <ele>528.40</ele>
        <time>2017-02-18T09:37:51Z</time>
      </trkpt>
      <trkpt lat="42.545358000" lon="-2.407493000">
        <ele>528.50</ele>
        <time>2017-02-18T09:37:52Z</time>
      </trkpt>
      <trkpt lat="42.545316000" lon="-2.407473000">
        <ele>528.60</ele>
        <time>2017-02-18T09:37:53Z</time>
      </trkpt>
      <trkpt lat="42.545271000" lon="-2.407460000">
        <ele>528.50</ele>
        <time>2017-02-18T09:37:54Z</time>
      </trkpt>
      <trkpt lat="42.545225000" lon="-2.407443000">
        <ele>528.40</ele>
        <time>2017-02-18T09:37:55Z</time>
      </trkpt>
      <trkpt lat="42.545174000" lon="-2.407430000">
        <ele>528.30</ele>
        <time>2017-02-18T09:37:56Z</time>
      </trkpt>
      <trkpt lat="42.545123000" lon="-2.407414000">
        <ele>528.20</ele>
        <time>2017-02-18T09:37:57Z</time>
      </trkpt>
      <trkpt lat="42.545070000" lon="-2.407400000">
        <ele>528.10</ele>
        <time>2017-02-18T09:37:58Z</time>
      </trkpt>
      <trkpt lat="42.545017000" lon="-2.407385000">
        <ele>528.00</ele>
        <time>2017-02-18T09:37:59Z</time>
      </trkpt>
      <trkpt lat="42.544965000" lon="-2.407370000">
        <ele>527.60</ele>
        <time>2017-02-18T09:38:00Z</time>
      </trkpt>
      <trkpt lat="42.544910000" lon="-2.407355000">
        <ele>527.30</ele>
        <time>2017-02-18T09:38:01Z</time>
      </trkpt>
      <trkpt lat="42.544854000" lon="-2.407336000">
        <ele>527.00</ele>
        <time>2017-02-18T09:38:02Z</time>
      </trkpt>
      <trkpt lat="42.544796000" lon="-2.407312000">
        <ele>526.80</ele>
        <time>2017-02-18T09:38:03Z</time>
      </trkpt>
      <trkpt lat="42.544737000" lon="-2.407294000">
        <ele>526.70</ele>
        <time>2017-02-18T09:38:04Z</time>
      </trkpt>
      <trkpt lat="42.544674000" lon="-2.407274000">
        <ele>526.50</ele>
        <time>2017-02-18T09:38:05Z</time>
      </trkpt>
      <trkpt lat="42.544613000" lon="-2.407252000">
        <ele>526.50</ele>
        <time>2017-02-18T09:38:06Z</time>
      </trkpt>
      <trkpt lat="42.544552000" lon="-2.407234000">
        <ele>526.50</ele>
        <time>2017-02-18T09:38:07Z</time>
      </trkpt>
      <trkpt lat="42.544492000" lon="-2.407214000">
        <ele>526.50</ele>
        <time>2017-02-18T09:38:08Z</time>
      </trkpt>
      <trkpt lat="42.544433000" lon="-2.407200000">
        <ele>526.50</ele>
        <time>2017-02-18T09:38:09Z</time>
      </trkpt>
      <trkpt lat="42.544372000" lon="-2.407183000">
        <ele>526.20</ele>
        <time>2017-02-18T09:38:10Z</time>
      </trkpt>
      <trkpt lat="42.544313000" lon="-2.407164000">
        <ele>526.00</ele>
        <time>2017-02-18T09:38:11Z</time>
      </trkpt>
      <trkpt lat="42.544253000" lon="-2.407143000">
        <ele>525.80</ele>
        <time>2017-02-18T09:38:12Z</time>
      </trkpt>
      <trkpt lat="42.544194000" lon="-2.407122000">
        <ele>525.70</ele>
        <time>2017-02-18T09:38:13Z</time>
      </trkpt>
      <trkpt lat="42.544136000" lon="-2.407099000">
        <ele>525.60</ele>
        <time>2017-02-18T09:38:14Z</time>
      </trkpt>
      <trkpt lat="42.544080000" lon="-2.407066000">
        <ele>525.60</ele>
        <time>2017-02-18T09:38:15Z</time>
      </trkpt>
      <trkpt lat="42.544027000" lon="-2.407025000">
        <ele>525.10</ele>
        <time>2017-02-18T09:38:16Z</time>
      </trkpt>
      <trkpt lat="42.543973000" lon="-2.406981000">
        <ele>524.80</ele>
        <time>2017-02-18T09:38:17Z</time>
      </trkpt>
      <trkpt lat="42.543921000" lon="-2.406934000">
        <ele>524.30</ele>
        <time>2017-02-18T09:38:18Z</time>
      </trkpt>
      <trkpt lat="42.543867000" lon="-2.406885000">
        <ele>523.90</ele>
        <time>2017-02-18T09:38:19Z</time>
      </trkpt>
      <trkpt lat="42.543815000" lon="-2.406838000">
        <ele>523.60</ele>
        <time>2017-02-18T09:38:20Z</time>
      </trkpt>
      <trkpt lat="42.543767000" lon="-2.406786000">
        <ele>523.40</ele>
        <time>2017-02-18T09:38:21Z</time>
      </trkpt>
      <trkpt lat="42.543720000" lon="-2.406735000">
        <ele>523.30</ele>
        <time>2017-02-18T09:38:22Z</time>
      </trkpt>
      <trkpt lat="42.543672000" lon="-2.406686000">
        <ele>523.10</ele>
        <time>2017-02-18T09:38:23Z</time>
      </trkpt>
      <trkpt lat="42.543627000" lon="-2.406637000">
        <ele>523.00</ele>
        <time>2017-02-18T09:38:24Z</time>
      </trkpt>
      <trkpt lat="42.543588000" lon="-2.406583000">
        <ele>522.90</ele>
        <time>2017-02-18T09:38:25Z</time>
      </trkpt>
      <trkpt lat="42.543550000" lon="-2.406531000">
        <ele>522.70</ele>
        <time>2017-02-18T09:38:26Z</time>
      </trkpt>
      <trkpt lat="42.543514000" lon="-2.406479000">
        <ele>522.60</ele>
        <time>2017-02-18T09:38:27Z</time>
      </trkpt>
      <trkpt lat="42.543480000" lon="-2.406427000">
        <ele>522.60</ele>
        <time>2017-02-18T09:38:28Z</time>
      </trkpt>
      <trkpt lat="42.543443000" lon="-2.406377000">
        <ele>522.60</ele>
        <time>2017-02-18T09:38:29Z</time>
      </trkpt>
      <trkpt lat="42.543407000" lon="-2.406321000">
        <ele>522.50</ele>
        <time>2017-02-18T09:38:30Z</time>
      </trkpt>
      <trkpt lat="42.543371000" lon="-2.406266000">
        <ele>522.50</ele>
        <time>2017-02-18T09:38:31Z</time>
      </trkpt>
      <trkpt lat="42.543338000" lon="-2.406208000">
        <ele>522.50</ele>
        <time>2017-02-18T09:38:32Z</time>
      </trkpt>
      <trkpt lat="42.543302000" lon="-2.406157000">
        <ele>522.50</ele>
        <time>2017-02-18T09:38:33Z</time>
      </trkpt>
      <trkpt lat="42.543265000" lon="-2.406117000">
        <ele>522.50</ele>
        <time>2017-02-18T09:38:34Z</time>
      </trkpt>
      <trkpt lat="42.543221000" lon="-2.406087000">
        <ele>522.40</ele>
        <time>2017-02-18T09:38:35Z</time>
      </trkpt>
      <trkpt lat="42.543172000" lon="-2.406074000">
        <ele>522.10</ele>
        <time>2017-02-18T09:38:36Z</time>
      </trkpt>
      <trkpt lat="42.543115000" lon="-2.406089000">
        <ele>521.90</ele>
        <time>2017-02-18T09:38:37Z</time>
      </trkpt>
      <trkpt lat="42.543053000" lon="-2.406118000">
        <ele>521.40</ele>
        <time>2017-02-18T09:38:38Z</time>
      </trkpt>
      <trkpt lat="42.542990000" lon="-2.406145000">
        <ele>521.00</ele>
        <time>2017-02-18T09:38:39Z</time>
      </trkpt>
      <trkpt lat="42.542924000" lon="-2.406169000">
        <ele>519.50</ele>
        <time>2017-02-18T09:38:40Z</time>
      </trkpt>
      <trkpt lat="42.542775000" lon="-2.406167000">
        <ele>517.40</ele>
        <time>2017-02-18T09:38:42Z</time>
      </trkpt>
      <trkpt lat="42.542693000" lon="-2.406147000">
        <ele>516.80</ele>
        <time>2017-02-18T09:38:43Z</time>
      </trkpt>
      <trkpt lat="42.542610000" lon="-2.406119000">
        <ele>516.30</ele>
        <time>2017-02-18T09:38:44Z</time>
      </trkpt>
      <trkpt lat="42.542527000" lon="-2.406084000">
        <ele>515.90</ele>
        <time>2017-02-18T09:38:45Z</time>
      </trkpt>
      <trkpt lat="42.542442000" lon="-2.406046000">
        <ele>515.10</ele>
        <time>2017-02-18T09:38:46Z</time>
      </trkpt>
      <trkpt lat="42.542358000" lon="-2.406008000">
        <ele>514.50</ele>
        <time>2017-02-18T09:38:47Z</time>
      </trkpt>
      <trkpt lat="42.542276000" lon="-2.405976000">
        <ele>513.80</ele>
        <time>2017-02-18T09:38:48Z</time>
      </trkpt>
      <trkpt lat="42.542194000" lon="-2.405949000">
        <ele>513.30</ele>
        <time>2017-02-18T09:38:49Z</time>
      </trkpt>
      <trkpt lat="42.542115000" lon="-2.405921000">
        <ele>512.70</ele>
        <time>2017-02-18T09:38:50Z</time>
      </trkpt>
      <trkpt lat="42.542038000" lon="-2.405892000">
        <ele>512.20</ele>
        <time>2017-02-18T09:38:51Z</time>
      </trkpt>
      <trkpt lat="42.541959000" lon="-2.405865000">
        <ele>511.90</ele>
        <time>2017-02-18T09:38:52Z</time>
      </trkpt>
      <trkpt lat="42.541882000" lon="-2.405846000">
        <ele>511.60</ele>
        <time>2017-02-18T09:38:53Z</time>
      </trkpt>
      <trkpt lat="42.541806000" lon="-2.405832000">
        <ele>511.60</ele>
        <time>2017-02-18T09:38:54Z</time>
      </trkpt>
      <trkpt lat="42.541725000" lon="-2.405819000">
        <ele>511.50</ele>
        <time>2017-02-18T09:38:55Z</time>
      </trkpt>
      <trkpt lat="42.541645000" lon="-2.405807000">
        <ele>511.60</ele>
        <time>2017-02-18T09:38:56Z</time>
      </trkpt>
      <trkpt lat="42.541566000" lon="-2.405797000">
        <ele>511.70</ele>
        <time>2017-02-18T09:38:57Z</time>
      </trkpt>
      <trkpt lat="42.541489000" lon="-2.405790000">
        <ele>511.60</ele>
        <time>2017-02-18T09:38:58Z</time>
      </trkpt>
      <trkpt lat="42.541413000" lon="-2.405778000">
        <ele>511.60</ele>
        <time>2017-02-18T09:38:59Z</time>
      </trkpt>
      <trkpt lat="42.541339000" lon="-2.405766000">
        <ele>511.40</ele>
        <time>2017-02-18T09:39:00Z</time>
      </trkpt>
      <trkpt lat="42.541269000" lon="-2.405750000">
        <ele>511.30</ele>
        <time>2017-02-18T09:39:01Z</time>
      </trkpt>
      <trkpt lat="42.541199000" lon="-2.405733000">
        <ele>511.00</ele>
        <time>2017-02-18T09:39:02Z</time>
      </trkpt>
      <trkpt lat="42.541130000" lon="-2.405713000">
        <ele>510.90</ele>
        <time>2017-02-18T09:39:03Z</time>
      </trkpt>
      <trkpt lat="42.541065000" lon="-2.405679000">
        <ele>510.70</ele>
        <time>2017-02-18T09:39:04Z</time>
      </trkpt>
      <trkpt lat="42.541000000" lon="-2.405645000">
        <ele>510.70</ele>
        <time>2017-02-18T09:39:05Z</time>
      </trkpt>
      <trkpt lat="42.540934000" lon="-2.405609000">
        <ele>510.50</ele>
        <time>2017-02-18T09:39:06Z</time>
      </trkpt>
      <trkpt lat="42.540868000" lon="-2.405578000">
        <ele>510.40</ele>
        <time>2017-02-18T09:39:07Z</time>
      </trkpt>
      <trkpt lat="42.540800000" lon="-2.405558000">
        <ele>509.80</ele>
        <time>2017-02-18T09:39:08Z</time>
      </trkpt>
      <trkpt lat="42.540730000" lon="-2.405549000">
        <ele>509.30</ele>
        <time>2017-02-18T09:39:09Z</time>
      </trkpt>
      <trkpt lat="42.540659000" lon="-2.405547000">
        <ele>509.00</ele>
        <time>2017-02-18T09:39:10Z</time>
      </trkpt>
      <trkpt lat="42.540583000" lon="-2.405550000">
        <ele>508.70</ele>
        <time>2017-02-18T09:39:11Z</time>
      </trkpt>
      <trkpt lat="42.540509000" lon="-2.405542000">
        <ele>508.40</ele>
        <time>2017-02-18T09:39:12Z</time>
      </trkpt>
      <trkpt lat="42.540444000" lon="-2.405520000">
        <ele>508.10</ele>
        <time>2017-02-18T09:39:13Z</time>
      </trkpt>
      <trkpt lat="42.540384000" lon="-2.405478000">
        <ele>507.70</ele>
        <time>2017-02-18T09:39:14Z</time>
      </trkpt>
      <trkpt lat="42.540333000" lon="-2.405430000">
        <ele>507.30</ele>
        <time>2017-02-18T09:39:15Z</time>
      </trkpt>
      <trkpt lat="42.540282000" lon="-2.405385000">
        <ele>507.00</ele>
        <time>2017-02-18T09:39:16Z</time>
      </trkpt>
      <trkpt lat="42.540232000" lon="-2.405343000">
        <ele>506.80</ele>
        <time>2017-02-18T09:39:17Z</time>
      </trkpt>
      <trkpt lat="42.540183000" lon="-2.405304000">
        <ele>506.70</ele>
        <time>2017-02-18T09:39:18Z</time>
      </trkpt>
      <trkpt lat="42.540132000" lon="-2.405269000">
        <ele>506.60</ele>
        <time>2017-02-18T09:39:19Z</time>
      </trkpt>
      <trkpt lat="42.540083000" lon="-2.405238000">
        <ele>506.50</ele>
        <time>2017-02-18T09:39:20Z</time>
      </trkpt>
      <trkpt lat="42.540035000" lon="-2.405210000">
        <ele>506.40</ele>
        <time>2017-02-18T09:39:21Z</time>
      </trkpt>
      <trkpt lat="42.539989000" lon="-2.405185000">
        <ele>506.30</ele>
        <time>2017-02-18T09:39:22Z</time>
      </trkpt>
      <trkpt lat="42.539945000" lon="-2.405167000">
        <ele>506.30</ele>
        <time>2017-02-18T09:39:23Z</time>
      </trkpt>
      <trkpt lat="42.539901000" lon="-2.405151000">
        <ele>506.20</ele>
        <time>2017-02-18T09:39:24Z</time>
      </trkpt>
      <trkpt lat="42.539863000" lon="-2.405128000">
        <ele>506.10</ele>
        <time>2017-02-18T09:39:25Z</time>
      </trkpt>
      <trkpt lat="42.539824000" lon="-2.405106000">
        <ele>505.90</ele>
        <time>2017-02-18T09:39:26Z</time>
      </trkpt>
      <trkpt lat="42.539785000" lon="-2.405088000">
        <ele>505.80</ele>
        <time>2017-02-18T09:39:27Z</time>
      </trkpt>
      <trkpt lat="42.539746000" lon="-2.405070000">
        <ele>505.80</ele>
        <time>2017-02-18T09:39:28Z</time>
      </trkpt>
      <trkpt lat="42.539707000" lon="-2.405047000">
        <ele>505.70</ele>
        <time>2017-02-18T09:39:29Z</time>
      </trkpt>
      <trkpt lat="42.539665000" lon="-2.405027000">
        <ele>505.80</ele>
        <time>2017-02-18T09:39:30Z</time>
      </trkpt>
      <trkpt lat="42.539625000" lon="-2.405007000">
        <ele>505.80</ele>
        <time>2017-02-18T09:39:31Z</time>
      </trkpt>
      <trkpt lat="42.539583000" lon="-2.404985000">
        <ele>505.90</ele>
        <time>2017-02-18T09:39:32Z</time>
      </trkpt>
      <trkpt lat="42.539541000" lon="-2.404964000">
        <ele>506.00</ele>
        <time>2017-02-18T09:39:33Z</time>
      </trkpt>
      <trkpt lat="42.539502000" lon="-2.404941000">
        <ele>506.00</ele>
        <time>2017-02-18T09:39:34Z</time>
      </trkpt>
      <trkpt lat="42.539459000" lon="-2.404926000">
        <ele>506.10</ele>
        <time>2017-02-18T09:39:35Z</time>
      </trkpt>
      <trkpt lat="42.539421000" lon="-2.404917000">
        <ele>506.10</ele>
        <time>2017-02-18T09:39:36Z</time>
      </trkpt>
      <trkpt lat="42.539386000" lon="-2.404900000">
        <ele>506.10</ele>
        <time>2017-02-18T09:39:37Z</time>
      </trkpt>
      <trkpt lat="42.539350000" lon="-2.404881000">
        <ele>506.10</ele>
        <time>2017-02-18T09:39:38Z</time>
      </trkpt>
      <trkpt lat="42.539314000" lon="-2.404866000">
        <ele>506.00</ele>
        <time>2017-02-18T09:39:39Z</time>
      </trkpt>
      <trkpt lat="42.539278000" lon="-2.404851000">
        <ele>506.00</ele>
        <time>2017-02-18T09:39:40Z</time>
      </trkpt>
      <trkpt lat="42.539245000" lon="-2.404838000">
        <ele>506.00</ele>
        <time>2017-02-18T09:39:41Z</time>
      </trkpt>
      <trkpt lat="42.539213000" lon="-2.404824000">
        <ele>506.10</ele>
        <time>2017-02-18T09:39:42Z</time>
      </trkpt>
      <trkpt lat="42.539151000" lon="-2.404799000">
        <ele>506.20</ele>
        <time>2017-02-18T09:39:44Z</time>
      </trkpt>
      <trkpt lat="42.539123000" lon="-2.404784000">
        <ele>506.30</ele>
        <time>2017-02-18T09:39:45Z</time>
      </trkpt>
      <trkpt lat="42.539091000" lon="-2.404767000">
        <ele>506.40</ele>
        <time>2017-02-18T09:39:46Z</time>
      </trkpt>
      <trkpt lat="42.539059000" lon="-2.404754000">
        <ele>506.60</ele>
        <time>2017-02-18T09:39:47Z</time>
      </trkpt>
      <trkpt lat="42.539029000" lon="-2.404732000">
        <ele>506.80</ele>
        <time>2017-02-18T09:39:48Z</time>
      </trkpt>
      <trkpt lat="42.538997000" lon="-2.404702000">
        <ele>507.00</ele>
        <time>2017-02-18T09:39:49Z</time>
      </trkpt>
      <trkpt lat="42.538966000" lon="-2.404666000">
        <ele>507.20</ele>
        <time>2017-02-18T09:39:50Z</time>
      </trkpt>
      <trkpt lat="42.538933000" lon="-2.404624000">
        <ele>507.40</ele>
        <time>2017-02-18T09:39:51Z</time>
      </trkpt>
      <trkpt lat="42.538901000" lon="-2.404580000">
        <ele>507.70</ele>
        <time>2017-02-18T09:39:52Z</time>
      </trkpt>
      <trkpt lat="42.538869000" lon="-2.404535000">
        <ele>507.90</ele>
        <time>2017-02-18T09:39:53Z</time>
      </trkpt>
      <trkpt lat="42.538834000" lon="-2.404496000">
        <ele>508.40</ele>
        <time>2017-02-18T09:39:54Z</time>
      </trkpt>
      <trkpt lat="42.538790000" lon="-2.404473000">
        <ele>508.70</ele>
        <time>2017-02-18T09:39:55Z</time>
      </trkpt>
      <trkpt lat="42.538742000" lon="-2.404468000">
        <ele>509.20</ele>
        <time>2017-02-18T09:39:56Z</time>
      </trkpt>
      <trkpt lat="42.538692000" lon="-2.404483000">
        <ele>509.50</ele>
        <time>2017-02-18T09:39:57Z</time>
      </trkpt>
      <trkpt lat="42.538652000" lon="-2.404516000">
        <ele>509.60</ele>
        <time>2017-02-18T09:39:58Z</time>
      </trkpt>
      <trkpt lat="42.538614000" lon="-2.404556000">
        <ele>509.60</ele>
        <time>2017-02-18T09:39:59Z</time>
      </trkpt>
      <trkpt lat="42.538578000" lon="-2.404598000">
        <ele>509.70</ele>
        <time>2017-02-18T09:40:00Z</time>
      </trkpt>
      <trkpt lat="42.538542000" lon="-2.404636000">
        <ele>509.70</ele>
        <time>2017-02-18T09:40:01Z</time>
      </trkpt>
      <trkpt lat="42.538506000" lon="-2.404675000">
        <ele>509.60</ele>
        <time>2017-02-18T09:40:02Z</time>
      </trkpt>
      <trkpt lat="42.538468000" lon="-2.404713000">
        <ele>509.50</ele>
        <time>2017-02-18T09:40:03Z</time>
      </trkpt>
      <trkpt lat="42.538425000" lon="-2.404744000">
        <ele>509.40</ele>
        <time>2017-02-18T09:40:04Z</time>
      </trkpt>
      <trkpt lat="42.538379000" lon="-2.404774000">
        <ele>509.40</ele>
        <time>2017-02-18T09:40:05Z</time>
      </trkpt>
      <trkpt lat="42.538332000" lon="-2.404798000">
        <ele>509.30</ele>
        <time>2017-02-18T09:40:06Z</time>
      </trkpt>
      <trkpt lat="42.538285000" lon="-2.404816000">
        <ele>509.20</ele>
        <time>2017-02-18T09:40:07Z</time>
      </trkpt>
      <trkpt lat="42.538236000" lon="-2.404833000">
        <ele>509.00</ele>
        <time>2017-02-18T09:40:08Z</time>
      </trkpt>
      <trkpt lat="42.538185000" lon="-2.404849000">
        <ele>508.90</ele>
        <time>2017-02-18T09:40:09Z</time>
      </trkpt>
      <trkpt lat="42.538134000" lon="-2.404869000">
        <ele>508.80</ele>
        <time>2017-02-18T09:40:10Z</time>
      </trkpt>
      <trkpt lat="42.538082000" lon="-2.404888000">
        <ele>508.70</ele>
        <time>2017-02-18T09:40:11Z</time>
      </trkpt>
      <trkpt lat="42.538026000" lon="-2.404906000">
        <ele>508.60</ele>
        <time>2017-02-18T09:40:12Z</time>
      </trkpt>
      <trkpt lat="42.537967000" lon="-2.404927000">
        <ele>508.60</ele>
        <time>2017-02-18T09:40:13Z</time>
      </trkpt>
      <trkpt lat="42.537905000" lon="-2.404950000">
        <ele>508.30</ele>
        <time>2017-02-18T09:40:14Z</time>
      </trkpt>
      <trkpt lat="42.537843000" lon="-2.404973000">
        <ele>508.10</ele>
        <time>2017-02-18T09:40:15Z</time>
      </trkpt>
      <trkpt lat="42.537779000" lon="-2.404999000">
        <ele>507.70</ele>
        <time>2017-02-18T09:40:16Z</time>
      </trkpt>
      <trkpt lat="42.537715000" lon="-2.405027000">
        <ele>507.40</ele>
        <time>2017-02-18T09:40:17Z</time>
      </trkpt>
      <trkpt lat="42.537652000" lon="-2.405062000">
        <ele>507.00</ele>
        <time>2017-02-18T09:40:18Z</time>
      </trkpt>
      <trkpt lat="42.537589000" lon="-2.405097000">
        <ele>506.80</ele>
        <time>2017-02-18T09:40:19Z</time>
      </trkpt>
      <trkpt lat="42.537525000" lon="-2.405135000">
        <ele>506.50</ele>
        <time>2017-02-18T09:40:20Z</time>
      </trkpt>
      <trkpt lat="42.537466000" lon="-2.405176000">
        <ele>506.40</ele>
        <time>2017-02-18T09:40:21Z</time>
      </trkpt>
      <trkpt lat="42.537404000" lon="-2.405219000">
        <ele>506.10</ele>
        <time>2017-02-18T09:40:22Z</time>
      </trkpt>
      <trkpt lat="42.537343000" lon="-2.405256000">
        <ele>505.90</ele>
        <time>2017-02-18T09:40:23Z</time>
      </trkpt>
      <trkpt lat="42.537284000" lon="-2.405297000">
        <ele>505.50</ele>
        <time>2017-02-18T09:40:24Z</time>
      </trkpt>
      <trkpt lat="42.537228000" lon="-2.405342000">
        <ele>505.10</ele>
        <time>2017-02-18T09:40:25Z</time>
      </trkpt>
      <trkpt lat="42.537175000" lon="-2.405384000">
        <ele>504.80</ele>
        <time>2017-02-18T09:40:26Z</time>
      </trkpt>
      <trkpt lat="42.537120000" lon="-2.405424000">
        <ele>504.60</ele>
        <time>2017-02-18T09:40:27Z</time>
      </trkpt>
      <trkpt lat="42.537072000" lon="-2.405466000">
        <ele>504.40</ele>
        <time>2017-02-18T09:40:28Z</time>
      </trkpt>
      <trkpt lat="42.537023000" lon="-2.405508000">
        <ele>504.30</ele>
        <time>2017-02-18T09:40:29Z</time>
      </trkpt>
      <trkpt lat="42.536976000" lon="-2.405547000">
        <ele>504.10</ele>
        <time>2017-02-18T09:40:30Z</time>
      </trkpt>
      <trkpt lat="42.536930000" lon="-2.405588000">
        <ele>504.00</ele>
        <time>2017-02-18T09:40:31Z</time>
      </trkpt>
      <trkpt lat="42.536884000" lon="-2.405629000">
        <ele>504.00</ele>
        <time>2017-02-18T09:40:32Z</time>
      </trkpt>
      <trkpt lat="42.536838000" lon="-2.405670000">
        <ele>504.00</ele>
        <time>2017-02-18T09:40:33Z</time>
      </trkpt>
      <trkpt lat="42.536794000" lon="-2.405711000">
        <ele>504.10</ele>
        <time>2017-02-18T09:40:34Z</time>
      </trkpt>
      <trkpt lat="42.536750000" lon="-2.405746000">
        <ele>504.10</ele>
        <time>2017-02-18T09:40:35Z</time>
      </trkpt>
      <trkpt lat="42.536704000" lon="-2.405782000">
        <ele>504.30</ele>
        <time>2017-02-18T09:40:36Z</time>
      </trkpt>
      <trkpt lat="42.536658000" lon="-2.405814000">
        <ele>504.40</ele>
        <time>2017-02-18T09:40:37Z</time>
      </trkpt>
      <trkpt lat="42.536614000" lon="-2.405850000">
        <ele>504.40</ele>
        <time>2017-02-18T09:40:38Z</time>
      </trkpt>
      <trkpt lat="42.536567000" lon="-2.405885000">
        <ele>504.30</ele>
        <time>2017-02-18T09:40:39Z</time>
      </trkpt>
      <trkpt lat="42.536523000" lon="-2.405913000">
        <ele>504.50</ele>
        <time>2017-02-18T09:40:40Z</time>
      </trkpt>
      <trkpt lat="42.536482000" lon="-2.405943000">
        <ele>504.60</ele>
        <time>2017-02-18T09:40:41Z</time>
      </trkpt>
      <trkpt lat="42.536444000" lon="-2.405979000">
        <ele>504.50</ele>
        <time>2017-02-18T09:40:42Z</time>
      </trkpt>
      <trkpt lat="42.536401000" lon="-2.406013000">
        <ele>504.40</ele>
        <time>2017-02-18T09:40:43Z</time>
      </trkpt>
      <trkpt lat="42.536355000" lon="-2.406048000">
        <ele>504.30</ele>
        <time>2017-02-18T09:40:44Z</time>
      </trkpt>
      <trkpt lat="42.536242000" lon="-2.406107000">
        <ele>504.20</ele>
        <time>2017-02-18T09:40:46Z</time>
      </trkpt>
      <trkpt lat="42.536183000" lon="-2.406116000">
        <ele>504.20</ele>
        <time>2017-02-18T09:40:47Z</time>
      </trkpt>
      <trkpt lat="42.536120000" lon="-2.406109000">
        <ele>504.10</ele>
        <time>2017-02-18T09:40:48Z</time>
      </trkpt>
      <trkpt lat="42.536060000" lon="-2.406081000">
        <ele>503.90</ele>
        <time>2017-02-18T09:40:49Z</time>
      </trkpt>
      <trkpt lat="42.536009000" lon="-2.406034000">
        <ele>503.60</ele>
        <time>2017-02-18T09:40:50Z</time>
      </trkpt>
      <trkpt lat="42.535967000" lon="-2.405982000">
        <ele>503.30</ele>
        <time>2017-02-18T09:40:51Z</time>
      </trkpt>
      <trkpt lat="42.535926000" lon="-2.405934000">
        <ele>503.00</ele>
        <time>2017-02-18T09:40:52Z</time>
      </trkpt>
      <trkpt lat="42.535885000" lon="-2.405892000">
        <ele>502.90</ele>
        <time>2017-02-18T09:40:53Z</time>
      </trkpt>
      <trkpt lat="42.535843000" lon="-2.405853000">
        <ele>502.80</ele>
        <time>2017-02-18T09:40:54Z</time>
      </trkpt>
      <trkpt lat="42.535796000" lon="-2.405824000">
        <ele>502.80</ele>
        <time>2017-02-18T09:40:55Z</time>
      </trkpt>
      <trkpt lat="42.535748000" lon="-2.405808000">
        <ele>502.70</ele>
        <time>2017-02-18T09:40:56Z</time>
      </trkpt>
      <trkpt lat="42.535697000" lon="-2.405799000">
        <ele>502.70</ele>
        <time>2017-02-18T09:40:57Z</time>
      </trkpt>
      <trkpt lat="42.535649000" lon="-2.405793000">
        <ele>502.80</ele>
        <time>2017-02-18T09:40:58Z</time>
      </trkpt>
      <trkpt lat="42.535598000" lon="-2.405792000">
        <ele>502.90</ele>
        <time>2017-02-18T09:40:59Z</time>
      </trkpt>
      <trkpt lat="42.535541000" lon="-2.405799000">
        <ele>502.80</ele>
        <time>2017-02-18T09:41:00Z</time>
      </trkpt>
      <trkpt lat="42.535484000" lon="-2.405814000">
        <ele>502.80</ele>
        <time>2017-02-18T09:41:01Z</time>
      </trkpt>
      <trkpt lat="42.535429000" lon="-2.405837000">
        <ele>502.70</ele>
        <time>2017-02-18T09:41:02Z</time>
      </trkpt>
      <trkpt lat="42.535381000" lon="-2.405872000">
        <ele>502.70</ele>
        <time>2017-02-18T09:41:03Z</time>
      </trkpt>
      <trkpt lat="42.535338000" lon="-2.405923000">
        <ele>501.90</ele>
        <time>2017-02-18T09:41:04Z</time>
      </trkpt>
      <trkpt lat="42.535313000" lon="-2.405988000">
        <ele>501.20</ele>
        <time>2017-02-18T09:41:05Z</time>
      </trkpt>
      <trkpt lat="42.535306000" lon="-2.406056000">
        <ele>500.30</ele>
        <time>2017-02-18T09:41:06Z</time>
      </trkpt>
      <trkpt lat="42.535312000" lon="-2.406129000">
        <ele>499.60</ele>
        <time>2017-02-18T09:41:07Z</time>
      </trkpt>
      <trkpt lat="42.535328000" lon="-2.406206000">
        <ele>499.00</ele>
        <time>2017-02-18T09:41:08Z</time>
      </trkpt>
      <trkpt lat="42.535344000" lon="-2.406283000">
        <ele>498.50</ele>
        <time>2017-02-18T09:41:09Z</time>
      </trkpt>
      <trkpt lat="42.535360000" lon="-2.406349000">
        <ele>497.70</ele>
        <time>2017-02-18T09:41:10Z</time>
      </trkpt>
      <trkpt lat="42.535370000" lon="-2.406405000">
        <ele>497.10</ele>
        <time>2017-02-18T09:41:11Z</time>
      </trkpt>
      <trkpt lat="42.535366000" lon="-2.406449000">
        <ele>496.10</ele>
        <time>2017-02-18T09:41:12Z</time>
      </trkpt>
      <trkpt lat="42.535342000" lon="-2.406480000">
        <ele>495.30</ele>
        <time>2017-02-18T09:41:13Z</time>
      </trkpt>
      <trkpt lat="42.535301000" lon="-2.406491000">
        <ele>494.50</ele>
        <time>2017-02-18T09:41:14Z</time>
      </trkpt>
      <trkpt lat="42.535259000" lon="-2.406476000">
        <ele>493.90</ele>
        <time>2017-02-18T09:41:15Z</time>
      </trkpt>
      <trkpt lat="42.535220000" lon="-2.406450000">
        <ele>493.20</ele>
        <time>2017-02-18T09:41:16Z</time>
      </trkpt>
      <trkpt lat="42.535179000" lon="-2.406412000">
        <ele>492.70</ele>
        <time>2017-02-18T09:41:17Z</time>
      </trkpt>
      <trkpt lat="42.535138000" lon="-2.406367000">
        <ele>492.20</ele>
        <time>2017-02-18T09:41:18Z</time>
      </trkpt>
      <trkpt lat="42.535099000" lon="-2.406318000">
        <ele>491.90</ele>
        <time>2017-02-18T09:41:19Z</time>
      </trkpt>
      <trkpt lat="42.535061000" lon="-2.406268000">
        <ele>491.60</ele>
        <time>2017-02-18T09:41:20Z</time>
      </trkpt>
      <trkpt lat="42.535022000" lon="-2.406221000">
        <ele>491.40</ele>
        <time>2017-02-18T09:41:21Z</time>
      </trkpt>
      <trkpt lat="42.534980000" lon="-2.406177000">
        <ele>491.20</ele>
        <time>2017-02-18T09:41:22Z</time>
      </trkpt>
      <trkpt lat="42.534938000" lon="-2.406135000">
        <ele>491.10</ele>
        <time>2017-02-18T09:41:23Z</time>
      </trkpt>
      <trkpt lat="42.534894000" lon="-2.406101000">
        <ele>491.20</ele>
        <time>2017-02-18T09:41:24Z</time>
      </trkpt>
      <trkpt lat="42.534846000" lon="-2.406075000">
        <ele>491.20</ele>
        <time>2017-02-18T09:41:25Z</time>
      </trkpt>
      <trkpt lat="42.534796000" lon="-2.406050000">
        <ele>491.60</ele>
        <time>2017-02-18T09:41:26Z</time>
      </trkpt>
      <trkpt lat="42.534741000" lon="-2.406025000">
        <ele>491.90</ele>
        <time>2017-02-18T09:41:27Z</time>
      </trkpt>
      <trkpt lat="42.534684000" lon="-2.406006000">
        <ele>491.70</ele>
        <time>2017-02-18T09:41:28Z</time>
      </trkpt>
      <trkpt lat="42.534627000" lon="-2.405988000">
        <ele>491.60</ele>
        <time>2017-02-18T09:41:29Z</time>
      </trkpt>
      <trkpt lat="42.534573000" lon="-2.405960000">
        <ele>491.40</ele>
        <time>2017-02-18T09:41:30Z</time>
      </trkpt>
      <trkpt lat="42.534522000" lon="-2.405929000">
        <ele>491.30</ele>
        <time>2017-02-18T09:41:31Z</time>
      </trkpt>
      <trkpt lat="42.534474000" lon="-2.405897000">
        <ele>491.20</ele>
        <time>2017-02-18T09:41:32Z</time>
      </trkpt>
      <trkpt lat="42.534428000" lon="-2.405866000">
        <ele>491.10</ele>
        <time>2017-02-18T09:41:33Z</time>
      </trkpt>
      <trkpt lat="42.534383000" lon="-2.405834000">
        <ele>491.00</ele>
        <time>2017-02-18T09:41:34Z</time>
      </trkpt>
      <trkpt lat="42.534339000" lon="-2.405799000">
        <ele>491.00</ele>
        <time>2017-02-18T09:41:35Z</time>
      </trkpt>
      <trkpt lat="42.534295000" lon="-2.405764000">
        <ele>491.00</ele>
        <time>2017-02-18T09:41:36Z</time>
      </trkpt>
      <trkpt lat="42.534249000" lon="-2.405733000">
        <ele>491.00</ele>
        <time>2017-02-18T09:41:37Z</time>
      </trkpt>
      <trkpt lat="42.534201000" lon="-2.405702000">
        <ele>491.00</ele>
        <time>2017-02-18T09:41:38Z</time>
      </trkpt>
      <trkpt lat="42.534154000" lon="-2.405671000">
        <ele>491.10</ele>
        <time>2017-02-18T09:41:39Z</time>
      </trkpt>
      <trkpt lat="42.534108000" lon="-2.405640000">
        <ele>491.10</ele>
        <time>2017-02-18T09:41:40Z</time>
      </trkpt>
      <trkpt lat="42.534058000" lon="-2.405611000">
        <ele>491.10</ele>
        <time>2017-02-18T09:41:41Z</time>
      </trkpt>
      <trkpt lat="42.534004000" lon="-2.405586000">
        <ele>490.80</ele>
        <time>2017-02-18T09:41:42Z</time>
      </trkpt>
      <trkpt lat="42.533950000" lon="-2.405560000">
        <ele>490.50</ele>
        <time>2017-02-18T09:41:43Z</time>
      </trkpt>
      <trkpt lat="42.533896000" lon="-2.405537000">
        <ele>490.30</ele>
        <time>2017-02-18T09:41:44Z</time>
      </trkpt>
      <trkpt lat="42.533843000" lon="-2.405513000">
        <ele>490.20</ele>
        <time>2017-02-18T09:41:45Z</time>
      </trkpt>
      <trkpt lat="42.533793000" lon="-2.405490000">
        <ele>490.20</ele>
        <time>2017-02-18T09:41:46Z</time>
      </trkpt>
      <trkpt lat="42.533687000" lon="-2.405444000">
        <ele>490.20</ele>
        <time>2017-02-18T09:41:48Z</time>
      </trkpt>
      <trkpt lat="42.533634000" lon="-2.405418000">
        <ele>490.20</ele>
        <time>2017-02-18T09:41:49Z</time>
      </trkpt>
      <trkpt lat="42.533581000" lon="-2.405393000">
        <ele>490.20</ele>
        <time>2017-02-18T09:41:50Z</time>
      </trkpt>
      <trkpt lat="42.533527000" lon="-2.405371000">
        <ele>490.30</ele>
        <time>2017-02-18T09:41:51Z</time>
      </trkpt>
      <trkpt lat="42.533472000" lon="-2.405353000">
        <ele>490.30</ele>
        <time>2017-02-18T09:41:52Z</time>
      </trkpt>
      <trkpt lat="42.533417000" lon="-2.405338000">
        <ele>490.30</ele>
        <time>2017-02-18T09:41:53Z</time>
      </trkpt>
      <trkpt lat="42.533359000" lon="-2.405334000">
        <ele>490.30</ele>
        <time>2017-02-18T09:41:54Z</time>
      </trkpt>
      <trkpt lat="42.533302000" lon="-2.405333000">
        <ele>490.30</ele>
        <time>2017-02-18T09:41:55Z</time>
      </trkpt>
      <trkpt lat="42.533245000" lon="-2.405333000">
        <ele>490.30</ele>
        <time>2017-02-18T09:41:56Z</time>
      </trkpt>
      <trkpt lat="42.533189000" lon="-2.405338000">
        <ele>490.30</ele>
        <time>2017-02-18T09:41:57Z</time>
      </trkpt>
      <trkpt lat="42.533135000" lon="-2.405343000">
        <ele>490.00</ele>
        <time>2017-02-18T09:41:58Z</time>
      </trkpt>
      <trkpt lat="42.533085000" lon="-2.405356000">
        <ele>489.80</ele>
        <time>2017-02-18T09:41:59Z</time>
      </trkpt>
      <trkpt lat="42.533035000" lon="-2.405378000">
        <ele>489.70</ele>
        <time>2017-02-18T09:42:00Z</time>
      </trkpt>
      <trkpt lat="42.532988000" lon="-2.405401000">
        <ele>489.60</ele>
        <time>2017-02-18T09:42:01Z</time>
      </trkpt>
      <trkpt lat="42.532941000" lon="-2.405423000">
        <ele>489.60</ele>
        <time>2017-02-18T09:42:02Z</time>
      </trkpt>
      <trkpt lat="42.532900000" lon="-2.405448000">
        <ele>489.60</ele>
        <time>2017-02-18T09:42:03Z</time>
      </trkpt>
      <trkpt lat="42.532860000" lon="-2.405476000">
        <ele>489.90</ele>
        <time>2017-02-18T09:42:04Z</time>
      </trkpt>
      <trkpt lat="42.532822000" lon="-2.405504000">
        <ele>490.10</ele>
        <time>2017-02-18T09:42:05Z</time>
      </trkpt>
      <trkpt lat="42.532785000" lon="-2.405535000">
        <ele>490.00</ele>
        <time>2017-02-18T09:42:06Z</time>
      </trkpt>
      <trkpt lat="42.532749000" lon="-2.405567000">
        <ele>490.00</ele>
        <time>2017-02-18T09:42:07Z</time>
      </trkpt>
      <trkpt lat="42.532713000" lon="-2.405600000">
        <ele>490.20</ele>
        <time>2017-02-18T09:42:08Z</time>
      </trkpt>
      <trkpt lat="42.532678000" lon="-2.405631000">
        <ele>490.30</ele>
        <time>2017-02-18T09:42:09Z</time>
      </trkpt>
      <trkpt lat="42.532644000" lon="-2.405666000">
        <ele>490.60</ele>
        <time>2017-02-18T09:42:10Z</time>
      </trkpt>
      <trkpt lat="42.532611000" lon="-2.405700000">
        <ele>490.80</ele>
        <time>2017-02-18T09:42:11Z</time>
      </trkpt>
      <trkpt lat="42.532576000" lon="-2.405737000">
        <ele>491.00</ele>
        <time>2017-02-18T09:42:12Z</time>
      </trkpt>
      <trkpt lat="42.532541000" lon="-2.405775000">
        <ele>491.10</ele>
        <time>2017-02-18T09:42:13Z</time>
      </trkpt>
      <trkpt lat="42.532508000" lon="-2.405811000">
        <ele>491.10</ele>
        <time>2017-02-18T09:42:14Z</time>
      </trkpt>
      <trkpt lat="42.532471000" lon="-2.405851000">
        <ele>491.20</ele>
        <time>2017-02-18T09:42:15Z</time>
      </trkpt>
      <trkpt lat="42.532435000" lon="-2.405887000">
        <ele>491.20</ele>
        <time>2017-02-18T09:42:16Z</time>
      </trkpt>
      <trkpt lat="42.532398000" lon="-2.405925000">
        <ele>491.20</ele>
        <time>2017-02-18T09:42:17Z</time>
      </trkpt>
      <trkpt lat="42.532362000" lon="-2.405965000">
        <ele>491.10</ele>
        <time>2017-02-18T09:42:18Z</time>
      </trkpt>
      <trkpt lat="42.532323000" lon="-2.406003000">
        <ele>491.10</ele>
        <time>2017-02-18T09:42:19Z</time>
      </trkpt>
      <trkpt lat="42.532287000" lon="-2.406041000">
        <ele>491.10</ele>
        <time>2017-02-18T09:42:20Z</time>
      </trkpt>
      <trkpt lat="42.532250000" lon="-2.406076000">
        <ele>491.00</ele>
        <time>2017-02-18T09:42:21Z</time>
      </trkpt>
      <trkpt lat="42.532208000" lon="-2.406109000">
        <ele>491.00</ele>
        <time>2017-02-18T09:42:22Z</time>
      </trkpt>
      <trkpt lat="42.532161000" lon="-2.406140000">
        <ele>491.00</ele>
        <time>2017-02-18T09:42:23Z</time>
      </trkpt>
      <trkpt lat="42.532112000" lon="-2.406170000">
        <ele>491.00</ele>
        <time>2017-02-18T09:42:24Z</time>
      </trkpt>
      <trkpt lat="42.532057000" lon="-2.406188000">
        <ele>491.00</ele>
        <time>2017-02-18T09:42:25Z</time>
      </trkpt>
      <trkpt lat="42.531998000" lon="-2.406204000">
        <ele>490.80</ele>
        <time>2017-02-18T09:42:26Z</time>
      </trkpt>
      <trkpt lat="42.531935000" lon="-2.406211000">
        <ele>490.70</ele>
        <time>2017-02-18T09:42:27Z</time>
      </trkpt>
      <trkpt lat="42.531867000" lon="-2.406218000">
        <ele>490.60</ele>
        <time>2017-02-18T09:42:28Z</time>
      </trkpt>
      <trkpt lat="42.531799000" lon="-2.406218000">
        <ele>490.50</ele>
        <time>2017-02-18T09:42:29Z</time>
      </trkpt>
      <trkpt lat="42.531727000" lon="-2.406209000">
        <ele>490.50</ele>
        <time>2017-02-18T09:42:30Z</time>
      </trkpt>
      <trkpt lat="42.531652000" lon="-2.406195000">
        <ele>490.50</ele>
        <time>2017-02-18T09:42:31Z</time>
      </trkpt>
      <trkpt lat="42.531575000" lon="-2.406181000">
        <ele>489.90</ele>
        <time>2017-02-18T09:42:32Z</time>
      </trkpt>
      <trkpt lat="42.531498000" lon="-2.406162000">
        <ele>489.40</ele>
        <time>2017-02-18T09:42:33Z</time>
      </trkpt>
      <trkpt lat="42.531421000" lon="-2.406139000">
        <ele>488.70</ele>
        <time>2017-02-18T09:42:34Z</time>
      </trkpt>
      <trkpt lat="42.531345000" lon="-2.406114000">
        <ele>488.20</ele>
        <time>2017-02-18T09:42:35Z</time>
      </trkpt>
      <trkpt lat="42.531269000" lon="-2.406090000">
        <ele>487.80</ele>
        <time>2017-02-18T09:42:36Z</time>
      </trkpt>
      <trkpt lat="42.531193000" lon="-2.406065000">
        <ele>487.50</ele>
        <time>2017-02-18T09:42:37Z</time>
      </trkpt>
      <trkpt lat="42.531117000" lon="-2.406044000">
        <ele>487.20</ele>
        <time>2017-02-18T09:42:38Z</time>
      </trkpt>
      <trkpt lat="42.531040000" lon="-2.406029000">
        <ele>487.00</ele>
        <time>2017-02-18T09:42:39Z</time>
      </trkpt>
      <trkpt lat="42.530964000" lon="-2.406012000">
        <ele>486.20</ele>
        <time>2017-02-18T09:42:40Z</time>
      </trkpt>
      <trkpt lat="42.530890000" lon="-2.405991000">
        <ele>485.70</ele>
        <time>2017-02-18T09:42:41Z</time>
      </trkpt>
      <trkpt lat="42.530816000" lon="-2.405967000">
        <ele>485.20</ele>
        <time>2017-02-18T09:42:42Z</time>
      </trkpt>
      <trkpt lat="42.530744000" lon="-2.405935000">
        <ele>484.90</ele>
        <time>2017-02-18T09:42:43Z</time>
      </trkpt>
      <trkpt lat="42.530675000" lon="-2.405900000">
        <ele>484.70</ele>
        <time>2017-02-18T09:42:44Z</time>
      </trkpt>
      <trkpt lat="42.530605000" lon="-2.405874000">
        <ele>484.50</ele>
        <time>2017-02-18T09:42:45Z</time>
      </trkpt>
      <trkpt lat="42.530529000" lon="-2.405865000">
        <ele>484.20</ele>
        <time>2017-02-18T09:42:46Z</time>
      </trkpt>
      <trkpt lat="42.530448000" lon="-2.405880000">
        <ele>483.90</ele>
        <time>2017-02-18T09:42:47Z</time>
      </trkpt>
      <trkpt lat="42.530365000" lon="-2.405896000">
        <ele>483.30</ele>
        <time>2017-02-18T09:42:48Z</time>
      </trkpt>
      <trkpt lat="42.530203000" lon="-2.405936000">
        <ele>482.40</ele>
        <time>2017-02-18T09:42:50Z</time>
      </trkpt>
      <trkpt lat="42.530125000" lon="-2.405963000">
        <ele>482.00</ele>
        <time>2017-02-18T09:42:51Z</time>
      </trkpt>
      <trkpt lat="42.530046000" lon="-2.405992000">
        <ele>481.50</ele>
        <time>2017-02-18T09:42:52Z</time>
      </trkpt>
      <trkpt lat="42.529969000" lon="-2.406027000">
        <ele>481.10</ele>
        <time>2017-02-18T09:42:53Z</time>
      </trkpt>
      <trkpt lat="42.529891000" lon="-2.406054000">
        <ele>480.60</ele>
        <time>2017-02-18T09:42:54Z</time>
      </trkpt>
      <trkpt lat="42.529817000" lon="-2.406076000">
        <ele>480.30</ele>
        <time>2017-02-18T09:42:55Z</time>
      </trkpt>
      <trkpt lat="42.529746000" lon="-2.406098000">
        <ele>479.90</ele>
        <time>2017-02-18T09:42:56Z</time>
      </trkpt>
      <trkpt lat="42.529672000" lon="-2.406121000">
        <ele>479.60</ele>
        <time>2017-02-18T09:42:57Z</time>
      </trkpt>
      <trkpt lat="42.529592000" lon="-2.406143000">
        <ele>479.00</ele>
        <time>2017-02-18T09:42:58Z</time>
      </trkpt>
      <trkpt lat="42.529505000" lon="-2.406162000">
        <ele>478.50</ele>
        <time>2017-02-18T09:42:59Z</time>
      </trkpt>
      <trkpt lat="42.529413000" lon="-2.406184000">
        <ele>477.80</ele>
        <time>2017-02-18T09:43:00Z</time>
      </trkpt>
      <trkpt lat="42.529317000" lon="-2.406213000">
        <ele>477.30</ele>
        <time>2017-02-18T09:43:01Z</time>
      </trkpt>
      <trkpt lat="42.529218000" lon="-2.406243000">
        <ele>476.60</ele>
        <time>2017-02-18T09:43:02Z</time>
      </trkpt>
      <trkpt lat="42.529118000" lon="-2.406278000">
        <ele>476.10</ele>
        <time>2017-02-18T09:43:03Z</time>
      </trkpt>
      <trkpt lat="42.529025000" lon="-2.406324000">
        <ele>475.10</ele>
        <time>2017-02-18T09:43:04Z</time>
      </trkpt>
      <trkpt lat="42.528937000" lon="-2.406379000">
        <ele>474.30</ele>
        <time>2017-02-18T09:43:05Z</time>
      </trkpt>
      <trkpt lat="42.528850000" lon="-2.406435000">
        <ele>473.50</ele>
        <time>2017-02-18T09:43:06Z</time>
      </trkpt>
      <trkpt lat="42.528759000" lon="-2.406485000">
        <ele>472.90</ele>
        <time>2017-02-18T09:43:07Z</time>
      </trkpt>
      <trkpt lat="42.528663000" lon="-2.406524000">
        <ele>471.90</ele>
        <time>2017-02-18T09:43:08Z</time>
      </trkpt>
      <trkpt lat="42.528564000" lon="-2.406556000">
        <ele>471.10</ele>
        <time>2017-02-18T09:43:09Z</time>
      </trkpt>
      <trkpt lat="42.528462000" lon="-2.406594000">
        <ele>469.80</ele>
        <time>2017-02-18T09:43:10Z</time>
      </trkpt>
      <trkpt lat="42.528366000" lon="-2.406645000">
        <ele>468.80</ele>
        <time>2017-02-18T09:43:11Z</time>
      </trkpt>
      <trkpt lat="42.528278000" lon="-2.406703000">
        <ele>467.90</ele>
        <time>2017-02-18T09:43:12Z</time>
      </trkpt>
      <trkpt lat="42.528207000" lon="-2.406773000">
        <ele>467.10</ele>
        <time>2017-02-18T09:43:13Z</time>
      </trkpt>
      <trkpt lat="42.528161000" lon="-2.406846000">
        <ele>466.60</ele>
        <time>2017-02-18T09:43:14Z</time>
      </trkpt>
      <trkpt lat="42.528149000" lon="-2.406925000">
        <ele>466.20</ele>
        <time>2017-02-18T09:43:15Z</time>
      </trkpt>
      <trkpt lat="42.528150000" lon="-2.407004000">
        <ele>466.40</ele>
        <time>2017-02-18T09:43:16Z</time>
      </trkpt>
      <trkpt lat="42.528162000" lon="-2.407077000">
        <ele>466.60</ele>
        <time>2017-02-18T09:43:17Z</time>
      </trkpt>
      <trkpt lat="42.528172000" lon="-2.407151000">
        <ele>466.80</ele>
        <time>2017-02-18T09:43:18Z</time>
      </trkpt>
      <trkpt lat="42.528172000" lon="-2.407227000">
        <ele>466.90</ele>
        <time>2017-02-18T09:43:19Z</time>
      </trkpt>
      <trkpt lat="42.528152000" lon="-2.407293000">
        <ele>467.10</ele>
        <time>2017-02-18T09:43:20Z</time>
      </trkpt>
      <trkpt lat="42.528129000" lon="-2.407346000">
        <ele>467.20</ele>
        <time>2017-02-18T09:43:21Z</time>
      </trkpt>
      <trkpt lat="42.528089000" lon="-2.407383000">
        <ele>468.20</ele>
        <time>2017-02-18T09:43:22Z</time>
      </trkpt>
      <trkpt lat="42.528046000" lon="-2.407416000">
        <ele>468.90</ele>
        <time>2017-02-18T09:43:23Z</time>
      </trkpt>
      <trkpt lat="42.528000000" lon="-2.407452000">
        <ele>469.40</ele>
        <time>2017-02-18T09:43:24Z</time>
      </trkpt>
      <trkpt lat="42.527955000" lon="-2.407491000">
        <ele>469.80</ele>
        <time>2017-02-18T09:43:25Z</time>
      </trkpt>
      <trkpt lat="42.527911000" lon="-2.407532000">
        <ele>470.10</ele>
        <time>2017-02-18T09:43:26Z</time>
      </trkpt>
      <trkpt lat="42.527864000" lon="-2.407574000">
        <ele>470.30</ele>
        <time>2017-02-18T09:43:27Z</time>
      </trkpt>
      <trkpt lat="42.527818000" lon="-2.407615000">
        <ele>470.50</ele>
        <time>2017-02-18T09:43:28Z</time>
      </trkpt>
      <trkpt lat="42.527773000" lon="-2.407654000">
        <ele>470.60</ele>
        <time>2017-02-18T09:43:29Z</time>
      </trkpt>
      <trkpt lat="42.527727000" lon="-2.407694000">
        <ele>470.60</ele>
        <time>2017-02-18T09:43:30Z</time>
      </trkpt>
      <trkpt lat="42.527678000" lon="-2.407727000">
        <ele>470.50</ele>
        <time>2017-02-18T09:43:31Z</time>
      </trkpt>
      <trkpt lat="42.527630000" lon="-2.407758000">
        <ele>470.70</ele>
        <time>2017-02-18T09:43:32Z</time>
      </trkpt>
      <trkpt lat="42.527582000" lon="-2.407787000">
        <ele>470.70</ele>
        <time>2017-02-18T09:43:33Z</time>
      </trkpt>
      <trkpt lat="42.527533000" lon="-2.407810000">
        <ele>470.80</ele>
        <time>2017-02-18T09:43:34Z</time>
      </trkpt>
      <trkpt lat="42.527486000" lon="-2.407830000">
        <ele>470.80</ele>
        <time>2017-02-18T09:43:35Z</time>
      </trkpt>
      <trkpt lat="42.527442000" lon="-2.407848000">
        <ele>471.00</ele>
        <time>2017-02-18T09:43:36Z</time>
      </trkpt>
      <trkpt lat="42.527400000" lon="-2.407862000">
        <ele>471.10</ele>
        <time>2017-02-18T09:43:37Z</time>
      </trkpt>
      <trkpt lat="42.527356000" lon="-2.407873000">
        <ele>471.50</ele>
        <time>2017-02-18T09:43:38Z</time>
      </trkpt>
      <trkpt lat="42.527314000" lon="-2.407879000">
        <ele>471.70</ele>
        <time>2017-02-18T09:43:39Z</time>
      </trkpt>
      <trkpt lat="42.527272000" lon="-2.407881000">
        <ele>472.10</ele>
        <time>2017-02-18T09:43:40Z</time>
      </trkpt>
      <trkpt lat="42.527229000" lon="-2.407880000">
        <ele>472.30</ele>
        <time>2017-02-18T09:43:41Z</time>
      </trkpt>
      <trkpt lat="42.527187000" lon="-2.407876000">
        <ele>472.80</ele>
        <time>2017-02-18T09:43:42Z</time>
      </trkpt>
      <trkpt lat="42.527146000" lon="-2.407871000">
        <ele>473.10</ele>
        <time>2017-02-18T09:43:43Z</time>
      </trkpt>
      <trkpt lat="42.527108000" lon="-2.407868000">
        <ele>473.50</ele>
        <time>2017-02-18T09:43:44Z</time>
      </trkpt>
      <trkpt lat="42.527070000" lon="-2.407869000">
        <ele>473.90</ele>
        <time>2017-02-18T09:43:45Z</time>
      </trkpt>
      <trkpt lat="42.527032000" lon="-2.407873000">
        <ele>474.30</ele>
        <time>2017-02-18T09:43:46Z</time>
      </trkpt>
      <trkpt lat="42.526997000" lon="-2.407878000">
        <ele>474.50</ele>
        <time>2017-02-18T09:43:47Z</time>
      </trkpt>
      <trkpt lat="42.526963000" lon="-2.407883000">
        <ele>474.90</ele>
        <time>2017-02-18T09:43:48Z</time>
      </trkpt>
      <trkpt lat="42.526931000" lon="-2.407893000">
        <ele>475.10</ele>
        <time>2017-02-18T09:43:49Z</time>
      </trkpt>
      <trkpt lat="42.526899000" lon="-2.407903000">
        <ele>475.30</ele>
        <time>2017-02-18T09:43:50Z</time>
      </trkpt>
      <trkpt lat="42.526843000" lon="-2.407920000">
        <ele>475.80</ele>
        <time>2017-02-18T09:43:52Z</time>
      </trkpt>
      <trkpt lat="42.526817000" lon="-2.407927000">
        <ele>476.00</ele>
        <time>2017-02-18T09:43:53Z</time>
      </trkpt>
      <trkpt lat="42.526795000" lon="-2.407932000">
        <ele>476.30</ele>
        <time>2017-02-18T09:43:54Z</time>
      </trkpt>
      <trkpt lat="42.526775000" lon="-2.407939000">
        <ele>476.50</ele>
        <time>2017-02-18T09:43:55Z</time>
      </trkpt>
      <trkpt lat="42.526758000" lon="-2.407945000">
        <ele>476.70</ele>
        <time>2017-02-18T09:43:56Z</time>
      </trkpt>
      <trkpt lat="42.526742000" lon="-2.407949000">
        <ele>476.90</ele>
        <time>2017-02-18T09:43:57Z</time>
      </trkpt>
      <trkpt lat="42.526726000" lon="-2.407952000">
        <ele>477.00</ele>
        <time>2017-02-18T09:43:58Z</time>
      </trkpt>
      <trkpt lat="42.526711000" lon="-2.407952000">
        <ele>477.10</ele>
        <time>2017-02-18T09:43:59Z</time>
      </trkpt>
      <trkpt lat="42.526691000" lon="-2.407961000">
        <ele>477.10</ele>
        <time>2017-02-18T09:44:00Z</time>
      </trkpt>
      <trkpt lat="42.526675000" lon="-2.407963000">
        <ele>477.20</ele>
        <time>2017-02-18T09:44:01Z</time>
      </trkpt>
      <trkpt lat="42.526663000" lon="-2.407968000">
        <ele>477.20</ele>
        <time>2017-02-18T09:44:02Z</time>
      </trkpt>
      <trkpt lat="42.526647000" lon="-2.407976000">
        <ele>477.20</ele>
        <time>2017-02-18T09:44:03Z</time>
      </trkpt>
      <trkpt lat="42.526635000" lon="-2.407985000">
        <ele>477.30</ele>
        <time>2017-02-18T09:44:04Z</time>
      </trkpt>
      <trkpt lat="42.526622000" lon="-2.407990000">
        <ele>477.40</ele>
        <time>2017-02-18T09:44:05Z</time>
      </trkpt>
      <trkpt lat="42.526615000" lon="-2.407985000">
        <ele>477.40</ele>
        <time>2017-02-18T09:44:06Z</time>
      </trkpt>
      <trkpt lat="42.526611000" lon="-2.407990000">
        <ele>477.40</ele>
        <time>2017-02-18T09:44:07Z</time>
      </trkpt>
      <trkpt lat="42.526607000" lon="-2.407995000">
        <ele>477.50</ele>
        <time>2017-02-18T09:44:08Z</time>
      </trkpt>
      <trkpt lat="42.526600000" lon="-2.407997000">
        <ele>477.50</ele>
        <time>2017-02-18T09:44:09Z</time>
      </trkpt>
      <trkpt lat="42.526600000" lon="-2.407993000">
        <ele>477.50</ele>
        <time>2017-02-18T09:44:10Z</time>
      </trkpt>
      <trkpt lat="42.526598000" lon="-2.407991000">
        <ele>477.50</ele>
        <time>2017-02-18T09:44:11Z</time>
      </trkpt>
      <trkpt lat="42.526597000" lon="-2.407993000">
        <ele>477.60</ele>
        <time>2017-02-18T09:44:12Z</time>
      </trkpt>
      <trkpt lat="42.526596000" lon="-2.407994000">
        <ele>477.60</ele>
        <time>2017-02-18T09:44:13Z</time>
      </trkpt>
      <trkpt lat="42.526596000" lon="-2.407994000">
        <ele>477.70</ele>
        <time>2017-02-18T09:44:14Z</time>
      </trkpt>
      <trkpt lat="42.526596000" lon="-2.407994000">
        <ele>477.70</ele>
        <time>2017-02-18T09:44:15Z</time>
      </trkpt>
      <trkpt lat="42.526595000" lon="-2.407994000">
        <ele>477.70</ele>
        <time>2017-02-18T09:44:16Z</time>
      </trkpt>
      <trkpt lat="42.526595000" lon="-2.407994000">
        <ele>477.80</ele>
        <time>2017-02-18T09:44:17Z</time>
      </trkpt>
      <trkpt lat="42.526594000" lon="-2.407995000">
        <ele>477.70</ele>
        <time>2017-02-18T09:44:18Z</time>
      </trkpt>
      <trkpt lat="42.526595000" lon="-2.407994000">
        <ele>477.70</ele>
        <time>2017-02-18T09:44:19Z</time>
      </trkpt>
      <trkpt lat="42.526596000" lon="-2.407994000">
        <ele>477.70</ele>
        <time>2017-02-18T09:44:20Z</time>
      </trkpt>
      <trkpt lat="42.526596000" lon="-2.407995000">
        <ele>477.70</ele>
        <time>2017-02-18T09:44:21Z</time>
      </trkpt>
      <trkpt lat="42.526596000" lon="-2.407995000">
        <ele>477.70</ele>
        <time>2017-02-18T09:44:22Z</time>
      </trkpt>
      <trkpt lat="42.526596000" lon="-2.407997000">
        <ele>477.70</ele>
        <time>2017-02-18T09:44:23Z</time>
      </trkpt>
      <trkpt lat="42.526596000" lon="-2.407997000">
        <ele>477.60</ele>
        <time>2017-02-18T09:44:24Z</time>
      </trkpt>
      <trkpt lat="42.526596000" lon="-2.407997000">
        <ele>477.60</ele>
        <time>2017-02-18T09:44:25Z</time>
      </trkpt>
      <trkpt lat="42.526597000" lon="-2.407997000">
        <ele>477.60</ele>
        <time>2017-02-18T09:44:26Z</time>
      </trkpt>
      <trkpt lat="42.526597000" lon="-2.407998000">
        <ele>477.60</ele>
        <time>2017-02-18T09:44:27Z</time>
      </trkpt>
      <trkpt lat="42.526597000" lon="-2.407998000">
        <ele>477.60</ele>
        <time>2017-02-18T09:44:28Z</time>
      </trkpt>
      <trkpt lat="42.526597000" lon="-2.407999000">
        <ele>477.60</ele>
        <time>2017-02-18T09:44:29Z</time>
      </trkpt>
      <trkpt lat="42.526597000" lon="-2.408000000">
        <ele>477.60</ele>
        <time>2017-02-18T09:44:30Z</time>
      </trkpt>
      <trkpt lat="42.526596000" lon="-2.408001000">
        <ele>477.60</ele>
        <time>2017-02-18T09:44:31Z</time>
      </trkpt>
      <trkpt lat="42.526596000" lon="-2.408001000">
        <ele>477.50</ele>
        <time>2017-02-18T09:44:32Z</time>
      </trkpt>
      <trkpt lat="42.526596000" lon="-2.408001000">
        <ele>477.40</ele>
        <time>2017-02-18T09:44:33Z</time>
      </trkpt>
      <trkpt lat="42.526596000" lon="-2.408000000">
        <ele>477.40</ele>
        <time>2017-02-18T09:44:34Z</time>
      </trkpt>
      <trkpt lat="42.526594000" lon="-2.408001000">
        <ele>477.40</ele>
        <time>2017-02-18T09:44:35Z</time>
      </trkpt>
      <trkpt lat="42.526594000" lon="-2.408000000">
        <ele>477.40</ele>
        <time>2017-02-18T09:44:36Z</time>
      </trkpt>
      <trkpt lat="42.526594000" lon="-2.408000000">
        <ele>477.30</ele>
        <time>2017-02-18T09:44:37Z</time>
      </trkpt>
      <trkpt lat="42.526595000" lon="-2.408000000">
        <ele>477.30</ele>
        <time>2017-02-18T09:44:38Z</time>
      </trkpt>
      <trkpt lat="42.526595000" lon="-2.407999000">
        <ele>477.30</ele>
        <time>2017-02-18T09:44:39Z</time>
      </trkpt>
      <trkpt lat="42.526595000" lon="-2.407998000">
        <ele>477.30</ele>
        <time>2017-02-18T09:44:40Z</time>
      </trkpt>
      <trkpt lat="42.526594000" lon="-2.407998000">
        <ele>477.30</ele>
        <time>2017-02-18T09:44:41Z</time>
      </trkpt>
      <trkpt lat="42.526593000" lon="-2.408002000">
        <ele>477.30</ele>
        <time>2017-02-18T09:44:42Z</time>
      </trkpt>
      <trkpt lat="42.526587000" lon="-2.408010000">
        <ele>477.30</ele>
        <time>2017-02-18T09:44:43Z</time>
      </trkpt>
      <trkpt lat="42.526580000" lon="-2.408019000">
        <ele>477.20</ele>
        <time>2017-02-18T09:44:44Z</time>
      </trkpt>
      <trkpt lat="42.526570000" lon="-2.408021000">
        <ele>477.20</ele>
        <time>2017-02-18T09:44:45Z</time>
      </trkpt>
      <trkpt lat="42.526557000" lon="-2.408029000">
        <ele>477.10</ele>
        <time>2017-02-18T09:44:46Z</time>
      </trkpt>
      <trkpt lat="42.526551000" lon="-2.408035000">
        <ele>477.10</ele>
        <time>2017-02-18T09:44:47Z</time>
      </trkpt>
      <trkpt lat="42.526537000" lon="-2.408042000">
        <ele>477.40</ele>
        <time>2017-02-18T09:44:48Z</time>
      </trkpt>
      <trkpt lat="42.526520000" lon="-2.408048000">
        <ele>477.50</ele>
        <time>2017-02-18T09:44:49Z</time>
      </trkpt>
      <trkpt lat="42.526506000" lon="-2.408059000">
        <ele>477.70</ele>
        <time>2017-02-18T09:44:50Z</time>
      </trkpt>
      <trkpt lat="42.526489000" lon="-2.408073000">
        <ele>477.80</ele>
        <time>2017-02-18T09:44:51Z</time>
      </trkpt>
      <trkpt lat="42.526471000" lon="-2.408083000">
        <ele>477.70</ele>
        <time>2017-02-18T09:44:52Z</time>
      </trkpt>
      <trkpt lat="42.526431000" lon="-2.408097000">
        <ele>477.60</ele>
        <time>2017-02-18T09:44:54Z</time>
      </trkpt>
      <trkpt lat="42.526411000" lon="-2.408112000">
        <ele>477.60</ele>
        <time>2017-02-18T09:44:55Z</time>
      </trkpt>
      <trkpt lat="42.526396000" lon="-2.408124000">
        <ele>477.60</ele>
        <time>2017-02-18T09:44:56Z</time>
      </trkpt>
      <trkpt lat="42.526375000" lon="-2.408138000">
        <ele>477.60</ele>
        <time>2017-02-18T09:44:57Z</time>
      </trkpt>
      <trkpt lat="42.526354000" lon="-2.408148000">
        <ele>477.60</ele>
        <time>2017-02-18T09:44:58Z</time>
      </trkpt>
      <trkpt lat="42.526331000" lon="-2.408156000">
        <ele>477.60</ele>
        <time>2017-02-18T09:44:59Z</time>
      </trkpt>
      <trkpt lat="42.526308000" lon="-2.408166000">
        <ele>477.60</ele>
        <time>2017-02-18T09:45:00Z</time>
      </trkpt>
      <trkpt lat="42.526290000" lon="-2.408174000">
        <ele>477.60</ele>
        <time>2017-02-18T09:45:01Z</time>
      </trkpt>
      <trkpt lat="42.526274000" lon="-2.408181000">
        <ele>477.40</ele>
        <time>2017-02-18T09:45:02Z</time>
      </trkpt>
      <trkpt lat="42.526256000" lon="-2.408189000">
        <ele>477.20</ele>
        <time>2017-02-18T09:45:03Z</time>
      </trkpt>
      <trkpt lat="42.526241000" lon="-2.408194000">
        <ele>477.10</ele>
        <time>2017-02-18T09:45:04Z</time>
      </trkpt>
      <trkpt lat="42.526231000" lon="-2.408197000">
        <ele>477.00</ele>
        <time>2017-02-18T09:45:05Z</time>
      </trkpt>
      <trkpt lat="42.526218000" lon="-2.408202000">
        <ele>477.00</ele>
        <time>2017-02-18T09:45:06Z</time>
      </trkpt>
      <trkpt lat="42.526207000" lon="-2.408203000">
        <ele>476.90</ele>
        <time>2017-02-18T09:45:07Z</time>
      </trkpt>
      <trkpt lat="42.526198000" lon="-2.408205000">
        <ele>476.90</ele>
        <time>2017-02-18T09:45:08Z</time>
      </trkpt>
      <trkpt lat="42.526189000" lon="-2.408203000">
        <ele>477.00</ele>
        <time>2017-02-18T09:45:09Z</time>
      </trkpt>
      <trkpt lat="42.526173000" lon="-2.408206000">
        <ele>477.00</ele>
        <time>2017-02-18T09:45:10Z</time>
      </trkpt>
      <trkpt lat="42.526162000" lon="-2.408213000">
        <ele>477.00</ele>
        <time>2017-02-18T09:45:11Z</time>
      </trkpt>
      <trkpt lat="42.526149000" lon="-2.408219000">
        <ele>477.00</ele>
        <time>2017-02-18T09:45:12Z</time>
      </trkpt>
      <trkpt lat="42.526133000" lon="-2.408229000">
        <ele>477.00</ele>
        <time>2017-02-18T09:45:13Z</time>
      </trkpt>
      <trkpt lat="42.526118000" lon="-2.408241000">
        <ele>476.80</ele>
        <time>2017-02-18T09:45:14Z</time>
      </trkpt>
      <trkpt lat="42.526098000" lon="-2.408248000">
        <ele>476.60</ele>
        <time>2017-02-18T09:45:15Z</time>
      </trkpt>
      <trkpt lat="42.526079000" lon="-2.408260000">
        <ele>476.50</ele>
        <time>2017-02-18T09:45:16Z</time>
      </trkpt>
      <trkpt lat="42.526058000" lon="-2.408265000">
        <ele>476.40</ele>
        <time>2017-02-18T09:45:17Z</time>
      </trkpt>
      <trkpt lat="42.526036000" lon="-2.408272000">
        <ele>476.30</ele>
        <time>2017-02-18T09:45:18Z</time>
      </trkpt>
      <trkpt lat="42.526010000" lon="-2.408273000">
        <ele>476.20</ele>
        <time>2017-02-18T09:45:19Z</time>
      </trkpt>
      <trkpt lat="42.525984000" lon="-2.408275000">
        <ele>476.20</ele>
        <time>2017-02-18T09:45:20Z</time>
      </trkpt>
      <trkpt lat="42.525956000" lon="-2.408281000">
        <ele>476.20</ele>
        <time>2017-02-18T09:45:21Z</time>
      </trkpt>
      <trkpt lat="42.525923000" lon="-2.408292000">
        <ele>476.20</ele>
        <time>2017-02-18T09:45:22Z</time>
      </trkpt>
      <trkpt lat="42.525886000" lon="-2.408299000">
        <ele>476.10</ele>
        <time>2017-02-18T09:45:23Z</time>
      </trkpt>
      <trkpt lat="42.525848000" lon="-2.408304000">
        <ele>476.10</ele>
        <time>2017-02-18T09:45:24Z</time>
      </trkpt>
      <trkpt lat="42.525809000" lon="-2.408310000">
        <ele>476.10</ele>
        <time>2017-02-18T09:45:25Z</time>
      </trkpt>
      <trkpt lat="42.525769000" lon="-2.408317000">
        <ele>476.10</ele>
        <time>2017-02-18T09:45:26Z</time>
      </trkpt>
      <trkpt lat="42.525726000" lon="-2.408323000">
        <ele>476.00</ele>
        <time>2017-02-18T09:45:27Z</time>
      </trkpt>
      <trkpt lat="42.525683000" lon="-2.408331000">
        <ele>476.00</ele>
        <time>2017-02-18T09:45:28Z</time>
      </trkpt>
      <trkpt lat="42.525634000" lon="-2.408332000">
        <ele>476.00</ele>
        <time>2017-02-18T09:45:29Z</time>
      </trkpt>
      <trkpt lat="42.525587000" lon="-2.408336000">
        <ele>475.20</ele>
        <time>2017-02-18T09:45:30Z</time>
      </trkpt>
      <trkpt lat="42.525539000" lon="-2.408339000">
        <ele>474.70</ele>
        <time>2017-02-18T09:45:31Z</time>
      </trkpt>
      <trkpt lat="42.525491000" lon="-2.408337000">
        <ele>474.30</ele>
        <time>2017-02-18T09:45:32Z</time>
      </trkpt>
      <trkpt lat="42.525439000" lon="-2.408329000">
        <ele>474.00</ele>
        <time>2017-02-18T09:45:33Z</time>
      </trkpt>
      <trkpt lat="42.525389000" lon="-2.408331000">
        <ele>473.80</ele>
        <time>2017-02-18T09:45:34Z</time>
      </trkpt>
      <trkpt lat="42.525339000" lon="-2.408337000">
        <ele>473.60</ele>
        <time>2017-02-18T09:45:35Z</time>
      </trkpt>
      <trkpt lat="42.525291000" lon="-2.408348000">
        <ele>473.40</ele>
        <time>2017-02-18T09:45:36Z</time>
      </trkpt>
      <trkpt lat="42.525242000" lon="-2.408364000">
        <ele>473.40</ele>
        <time>2017-02-18T09:45:37Z</time>
      </trkpt>
      <trkpt lat="42.525194000" lon="-2.408393000">
        <ele>472.90</ele>
        <time>2017-02-18T09:45:38Z</time>
      </trkpt>
      <trkpt lat="42.525148000" lon="-2.408423000">
        <ele>472.50</ele>
        <time>2017-02-18T09:45:39Z</time>
      </trkpt>
      <trkpt lat="42.525100000" lon="-2.408452000">
        <ele>472.30</ele>
        <time>2017-02-18T09:45:40Z</time>
      </trkpt>
      <trkpt lat="42.525049000" lon="-2.408476000">
        <ele>472.10</ele>
        <time>2017-02-18T09:45:41Z</time>
      </trkpt>
      <trkpt lat="42.525001000" lon="-2.408497000">
        <ele>471.90</ele>
        <time>2017-02-18T09:45:42Z</time>
      </trkpt>
      <trkpt lat="42.524958000" lon="-2.408524000">
        <ele>471.80</ele>
        <time>2017-02-18T09:45:43Z</time>
      </trkpt>
      <trkpt lat="42.524916000" lon="-2.408565000">
        <ele>471.50</ele>
        <time>2017-02-18T09:45:44Z</time>
      </trkpt>
      <trkpt lat="42.524878000" lon="-2.408619000">
        <ele>471.20</ele>
        <time>2017-02-18T09:45:45Z</time>
      </trkpt>
      <trkpt lat="42.524843000" lon="-2.408684000">
        <ele>470.90</ele>
        <time>2017-02-18T09:45:46Z</time>
      </trkpt>
      <trkpt lat="42.524800000" lon="-2.408757000">
        <ele>470.70</ele>
        <time>2017-02-18T09:45:47Z</time>
      </trkpt>
      <trkpt lat="42.524754000" lon="-2.408834000">
        <ele>469.70</ele>
        <time>2017-02-18T09:45:48Z</time>
      </trkpt>
      <trkpt lat="42.524707000" lon="-2.408910000">
        <ele>468.90</ele>
        <time>2017-02-18T09:45:49Z</time>
      </trkpt>
      <trkpt lat="42.524649000" lon="-2.408971000">
        <ele>468.30</ele>
        <time>2017-02-18T09:45:50Z</time>
      </trkpt>
      <trkpt lat="42.524584000" lon="-2.409024000">
        <ele>467.80</ele>
        <time>2017-02-18T09:45:51Z</time>
      </trkpt>
      <trkpt lat="42.524517000" lon="-2.409076000">
        <ele>467.10</ele>
        <time>2017-02-18T09:45:52Z</time>
      </trkpt>
      <trkpt lat="42.524457000" lon="-2.409125000">
        <ele>466.60</ele>
        <time>2017-02-18T09:45:53Z</time>
      </trkpt>
      <trkpt lat="42.524411000" lon="-2.409178000">
        <ele>465.50</ele>
        <time>2017-02-18T09:45:54Z</time>
      </trkpt>
      <trkpt lat="42.524341000" lon="-2.409263000">
        <ele>463.30</ele>
        <time>2017-02-18T09:45:56Z</time>
      </trkpt>
      <trkpt lat="42.524313000" lon="-2.409297000">
        <ele>462.30</ele>
        <time>2017-02-18T09:45:57Z</time>
      </trkpt>
      <trkpt lat="42.524296000" lon="-2.409325000">
        <ele>461.30</ele>
        <time>2017-02-18T09:45:58Z</time>
      </trkpt>
      <trkpt lat="42.524287000" lon="-2.409356000">
        <ele>460.60</ele>
        <time>2017-02-18T09:45:59Z</time>
      </trkpt>
      <trkpt lat="42.524275000" lon="-2.409390000">
        <ele>460.00</ele>
        <time>2017-02-18T09:46:00Z</time>
      </trkpt>
      <trkpt lat="42.524263000" lon="-2.409425000">
        <ele>459.50</ele>
        <time>2017-02-18T09:46:01Z</time>
      </trkpt>
      <trkpt lat="42.524251000" lon="-2.409462000">
        <ele>459.20</ele>
        <time>2017-02-18T09:46:02Z</time>
      </trkpt>
      <trkpt lat="42.524238000" lon="-2.409500000">
        <ele>458.90</ele>
        <time>2017-02-18T09:46:03Z</time>
      </trkpt>
      <trkpt lat="42.524221000" lon="-2.409541000">
        <ele>458.60</ele>
        <time>2017-02-18T09:46:04Z</time>
      </trkpt>
      <trkpt lat="42.524200000" lon="-2.409578000">
        <ele>458.40</ele>
        <time>2017-02-18T09:46:05Z</time>
      </trkpt>
      <trkpt lat="42.524181000" lon="-2.409620000">
        <ele>458.30</ele>
        <time>2017-02-18T09:46:06Z</time>
      </trkpt>
      <trkpt lat="42.524164000" lon="-2.409655000">
        <ele>458.20</ele>
        <time>2017-02-18T09:46:07Z</time>
      </trkpt>
      <trkpt lat="42.524146000" lon="-2.409684000">
        <ele>458.00</ele>
        <time>2017-02-18T09:46:08Z</time>
      </trkpt>
      <trkpt lat="42.524129000" lon="-2.409711000">
        <ele>457.80</ele>
        <time>2017-02-18T09:46:09Z</time>
      </trkpt>
      <trkpt lat="42.524116000" lon="-2.409743000">
        <ele>457.60</ele>
        <time>2017-02-18T09:46:10Z</time>
      </trkpt>
      <trkpt lat="42.524101000" lon="-2.409778000">
        <ele>457.40</ele>
        <time>2017-02-18T09:46:11Z</time>
      </trkpt>
      <trkpt lat="42.524083000" lon="-2.409812000">
        <ele>457.20</ele>
        <time>2017-02-18T09:46:12Z</time>
      </trkpt>
      <trkpt lat="42.524062000" lon="-2.409841000">
        <ele>457.10</ele>
        <time>2017-02-18T09:46:13Z</time>
      </trkpt>
      <trkpt lat="42.524041000" lon="-2.409870000">
        <ele>457.10</ele>
        <time>2017-02-18T09:46:14Z</time>
      </trkpt>
      <trkpt lat="42.524022000" lon="-2.409903000">
        <ele>457.00</ele>
        <time>2017-02-18T09:46:15Z</time>
      </trkpt>
      <trkpt lat="42.524005000" lon="-2.409937000">
        <ele>457.10</ele>
        <time>2017-02-18T09:46:16Z</time>
      </trkpt>
      <trkpt lat="42.523987000" lon="-2.409974000">
        <ele>457.20</ele>
        <time>2017-02-18T09:46:17Z</time>
      </trkpt>
      <trkpt lat="42.523962000" lon="-2.410002000">
        <ele>457.40</ele>
        <time>2017-02-18T09:46:18Z</time>
      </trkpt>
      <trkpt lat="42.523928000" lon="-2.410030000">
        <ele>457.50</ele>
        <time>2017-02-18T09:46:19Z</time>
      </trkpt>
      <trkpt lat="42.523894000" lon="-2.410057000">
        <ele>457.50</ele>
        <time>2017-02-18T09:46:20Z</time>
      </trkpt>
      <trkpt lat="42.523860000" lon="-2.410080000">
        <ele>457.50</ele>
        <time>2017-02-18T09:46:21Z</time>
      </trkpt>
      <trkpt lat="42.523825000" lon="-2.410096000">
        <ele>457.60</ele>
        <time>2017-02-18T09:46:22Z</time>
      </trkpt>
      <trkpt lat="42.523790000" lon="-2.410107000">
        <ele>457.70</ele>
        <time>2017-02-18T09:46:23Z</time>
      </trkpt>
      <trkpt lat="42.523754000" lon="-2.410114000">
        <ele>457.80</ele>
        <time>2017-02-18T09:46:24Z</time>
      </trkpt>
      <trkpt lat="42.523718000" lon="-2.410116000">
        <ele>457.80</ele>
        <time>2017-02-18T09:46:25Z</time>
      </trkpt>
      <trkpt lat="42.523684000" lon="-2.410115000">
        <ele>457.90</ele>
        <time>2017-02-18T09:46:26Z</time>
      </trkpt>
      <trkpt lat="42.523649000" lon="-2.410114000">
        <ele>458.00</ele>
        <time>2017-02-18T09:46:27Z</time>
      </trkpt>
      <trkpt lat="42.523611000" lon="-2.410111000">
        <ele>458.60</ele>
        <time>2017-02-18T09:46:28Z</time>
      </trkpt>
      <trkpt lat="42.523570000" lon="-2.410115000">
        <ele>459.10</ele>
        <time>2017-02-18T09:46:29Z</time>
      </trkpt>
      <trkpt lat="42.523526000" lon="-2.410119000">
        <ele>459.50</ele>
        <time>2017-02-18T09:46:30Z</time>
      </trkpt>
      <trkpt lat="42.523480000" lon="-2.410125000">
        <ele>459.70</ele>
        <time>2017-02-18T09:46:31Z</time>
      </trkpt>
      <trkpt lat="42.523433000" lon="-2.410126000">
        <ele>460.10</ele>
        <time>2017-02-18T09:46:32Z</time>
      </trkpt>
      <trkpt lat="42.523384000" lon="-2.410123000">
        <ele>460.40</ele>
        <time>2017-02-18T09:46:33Z</time>
      </trkpt>
      <trkpt lat="42.523337000" lon="-2.410124000">
        <ele>461.00</ele>
        <time>2017-02-18T09:46:34Z</time>
      </trkpt>
      <trkpt lat="42.523291000" lon="-2.410121000">
        <ele>461.40</ele>
        <time>2017-02-18T09:46:35Z</time>
      </trkpt>
      <trkpt lat="42.523246000" lon="-2.410120000">
        <ele>461.80</ele>
        <time>2017-02-18T09:46:36Z</time>
      </trkpt>
      <trkpt lat="42.523204000" lon="-2.410118000">
        <ele>462.00</ele>
        <time>2017-02-18T09:46:37Z</time>
      </trkpt>
      <trkpt lat="42.523160000" lon="-2.410120000">
        <ele>462.80</ele>
        <time>2017-02-18T09:46:38Z</time>
      </trkpt>
      <trkpt lat="42.523120000" lon="-2.410120000">
        <ele>463.50</ele>
        <time>2017-02-18T09:46:39Z</time>
      </trkpt>
      <trkpt lat="42.523079000" lon="-2.410116000">
        <ele>464.00</ele>
        <time>2017-02-18T09:46:40Z</time>
      </trkpt>
      <trkpt lat="42.523037000" lon="-2.410116000">
        <ele>464.40</ele>
        <time>2017-02-18T09:46:41Z</time>
      </trkpt>
      <trkpt lat="42.522994000" lon="-2.410116000">
        <ele>464.70</ele>
        <time>2017-02-18T09:46:42Z</time>
      </trkpt>
      <trkpt lat="42.522953000" lon="-2.410115000">
        <ele>465.00</ele>
        <time>2017-02-18T09:46:43Z</time>
      </trkpt>
      <trkpt lat="42.522912000" lon="-2.410121000">
        <ele>465.40</ele>
        <time>2017-02-18T09:46:44Z</time>
      </trkpt>
      <trkpt lat="42.522873000" lon="-2.410129000">
        <ele>465.70</ele>
        <time>2017-02-18T09:46:45Z</time>
      </trkpt>
      <trkpt lat="42.522838000" lon="-2.410142000">
        <ele>466.30</ele>
        <time>2017-02-18T09:46:46Z</time>
      </trkpt>
      <trkpt lat="42.522802000" lon="-2.410154000">
        <ele>466.80</ele>
        <time>2017-02-18T09:46:47Z</time>
      </trkpt>
      <trkpt lat="42.522765000" lon="-2.410168000">
        <ele>467.30</ele>
        <time>2017-02-18T09:46:48Z</time>
      </trkpt>
      <trkpt lat="42.522730000" lon="-2.410186000">
        <ele>467.70</ele>
        <time>2017-02-18T09:46:49Z</time>
      </trkpt>
      <trkpt lat="42.522691000" lon="-2.410209000">
        <ele>468.20</ele>
        <time>2017-02-18T09:46:50Z</time>
      </trkpt>
      <trkpt lat="42.522658000" lon="-2.410230000">
        <ele>468.60</ele>
        <time>2017-02-18T09:46:51Z</time>
      </trkpt>
      <trkpt lat="42.522630000" lon="-2.410256000">
        <ele>469.00</ele>
        <time>2017-02-18T09:46:52Z</time>
      </trkpt>
      <trkpt lat="42.522601000" lon="-2.410280000">
        <ele>469.30</ele>
        <time>2017-02-18T09:46:53Z</time>
      </trkpt>
      <trkpt lat="42.522574000" lon="-2.410304000">
        <ele>469.50</ele>
        <time>2017-02-18T09:46:54Z</time>
      </trkpt>
      <trkpt lat="42.522550000" lon="-2.410324000">
        <ele>469.70</ele>
        <time>2017-02-18T09:46:55Z</time>
      </trkpt>
      <trkpt lat="42.522526000" lon="-2.410351000">
        <ele>469.90</ele>
        <time>2017-02-18T09:46:56Z</time>
      </trkpt>
      <trkpt lat="42.522477000" lon="-2.410404000">
        <ele>470.50</ele>
        <time>2017-02-18T09:46:58Z</time>
      </trkpt>
      <trkpt lat="42.522451000" lon="-2.410425000">
        <ele>470.80</ele>
        <time>2017-02-18T09:46:59Z</time>
      </trkpt>
      <trkpt lat="42.522427000" lon="-2.410449000">
        <ele>471.10</ele>
        <time>2017-02-18T09:47:00Z</time>
      </trkpt>
      <trkpt lat="42.522402000" lon="-2.410470000">
        <ele>471.30</ele>
        <time>2017-02-18T09:47:01Z</time>
      </trkpt>
      <trkpt lat="42.522380000" lon="-2.410493000">
        <ele>471.60</ele>
        <time>2017-02-18T09:47:02Z</time>
      </trkpt>
      <trkpt lat="42.522359000" lon="-2.410515000">
        <ele>471.90</ele>
        <time>2017-02-18T09:47:03Z</time>
      </trkpt>
      <trkpt lat="42.522338000" lon="-2.410540000">
        <ele>472.20</ele>
        <time>2017-02-18T09:47:04Z</time>
      </trkpt>
      <trkpt lat="42.522318000" lon="-2.410562000">
        <ele>472.50</ele>
        <time>2017-02-18T09:47:05Z</time>
      </trkpt>
      <trkpt lat="42.522297000" lon="-2.410585000">
        <ele>472.80</ele>
        <time>2017-02-18T09:47:06Z</time>
      </trkpt>
      <trkpt lat="42.522277000" lon="-2.410605000">
        <ele>473.00</ele>
        <time>2017-02-18T09:47:07Z</time>
      </trkpt>
      <trkpt lat="42.522258000" lon="-2.410627000">
        <ele>473.20</ele>
        <time>2017-02-18T09:47:08Z</time>
      </trkpt>
      <trkpt lat="42.522243000" lon="-2.410653000">
        <ele>473.30</ele>
        <time>2017-02-18T09:47:09Z</time>
      </trkpt>
      <trkpt lat="42.522223000" lon="-2.410675000">
        <ele>473.50</ele>
        <time>2017-02-18T09:47:10Z</time>
      </trkpt>
      <trkpt lat="42.522206000" lon="-2.410697000">
        <ele>473.60</ele>
        <time>2017-02-18T09:47:11Z</time>
      </trkpt>
      <trkpt lat="42.522185000" lon="-2.410720000">
        <ele>473.90</ele>
        <time>2017-02-18T09:47:12Z</time>
      </trkpt>
      <trkpt lat="42.522167000" lon="-2.410743000">
        <ele>474.10</ele>
        <time>2017-02-18T09:47:13Z</time>
      </trkpt>
      <trkpt lat="42.522151000" lon="-2.410764000">
        <ele>474.50</ele>
        <time>2017-02-18T09:47:14Z</time>
      </trkpt>
      <trkpt lat="42.522133000" lon="-2.410785000">
        <ele>474.80</ele>
        <time>2017-02-18T09:47:15Z</time>
      </trkpt>
      <trkpt lat="42.522116000" lon="-2.410805000">
        <ele>475.10</ele>
        <time>2017-02-18T09:47:16Z</time>
      </trkpt>
      <trkpt lat="42.522098000" lon="-2.410825000">
        <ele>475.30</ele>
        <time>2017-02-18T09:47:17Z</time>
      </trkpt>
      <trkpt lat="42.522076000" lon="-2.410843000">
        <ele>475.50</ele>
        <time>2017-02-18T09:47:18Z</time>
      </trkpt>
      <trkpt lat="42.522057000" lon="-2.410865000">
        <ele>475.70</ele>
        <time>2017-02-18T09:47:19Z</time>
      </trkpt>
      <trkpt lat="42.522038000" lon="-2.410888000">
        <ele>475.90</ele>
        <time>2017-02-18T09:47:20Z</time>
      </trkpt>
      <trkpt lat="42.522020000" lon="-2.410909000">
        <ele>476.00</ele>
        <time>2017-02-18T09:47:21Z</time>
      </trkpt>
      <trkpt lat="42.521996000" lon="-2.410929000">
        <ele>476.30</ele>
        <time>2017-02-18T09:47:22Z</time>
      </trkpt>
      <trkpt lat="42.521980000" lon="-2.410952000">
        <ele>476.50</ele>
        <time>2017-02-18T09:47:23Z</time>
      </trkpt>
      <trkpt lat="42.521961000" lon="-2.410976000">
        <ele>476.70</ele>
        <time>2017-02-18T09:47:24Z</time>
      </trkpt>
      <trkpt lat="42.521946000" lon="-2.411000000">
        <ele>476.90</ele>
        <time>2017-02-18T09:47:25Z</time>
      </trkpt>
      <trkpt lat="42.521930000" lon="-2.411026000">
        <ele>477.10</ele>
        <time>2017-02-18T09:47:26Z</time>
      </trkpt>
      <trkpt lat="42.521921000" lon="-2.411054000">
        <ele>477.30</ele>
        <time>2017-02-18T09:47:27Z</time>
      </trkpt>
      <trkpt lat="42.521915000" lon="-2.411084000">
        <ele>477.50</ele>
        <time>2017-02-18T09:47:28Z</time>
      </trkpt>
      <trkpt lat="42.521912000" lon="-2.411116000">
        <ele>477.70</ele>
        <time>2017-02-18T09:47:29Z</time>
      </trkpt>
      <trkpt lat="42.521909000" lon="-2.411151000">
        <ele>477.80</ele>
        <time>2017-02-18T09:47:30Z</time>
      </trkpt>
      <trkpt lat="42.521916000" lon="-2.411180000">
        <ele>478.00</ele>
        <time>2017-02-18T09:47:31Z</time>
      </trkpt>
      <trkpt lat="42.521921000" lon="-2.411205000">
        <ele>478.10</ele>
        <time>2017-02-18T09:47:32Z</time>
      </trkpt>
      <trkpt lat="42.521924000" lon="-2.411227000">
        <ele>478.20</ele>
        <time>2017-02-18T09:47:33Z</time>
      </trkpt>
      <trkpt lat="42.521927000" lon="-2.411250000">
        <ele>478.40</ele>
        <time>2017-02-18T09:47:34Z</time>
      </trkpt>
      <trkpt lat="42.521929000" lon="-2.411273000">
        <ele>478.50</ele>
        <time>2017-02-18T09:47:35Z</time>
      </trkpt>
      <trkpt lat="42.521935000" lon="-2.411294000">
        <ele>478.70</ele>
        <time>2017-02-18T09:47:36Z</time>
      </trkpt>
      <trkpt lat="42.521942000" lon="-2.411315000">
        <ele>478.80</ele>
        <time>2017-02-18T09:47:37Z</time>
      </trkpt>
      <trkpt lat="42.521946000" lon="-2.411332000">
        <ele>479.00</ele>
        <time>2017-02-18T09:47:38Z</time>
      </trkpt>
      <trkpt lat="42.521949000" lon="-2.411352000">
        <ele>479.10</ele>
        <time>2017-02-18T09:47:39Z</time>
      </trkpt>
      <trkpt lat="42.521956000" lon="-2.411376000">
        <ele>479.20</ele>
        <time>2017-02-18T09:47:40Z</time>
      </trkpt>
      <trkpt lat="42.521962000" lon="-2.411393000">
        <ele>479.40</ele>
        <time>2017-02-18T09:47:41Z</time>
      </trkpt>
      <trkpt lat="42.521965000" lon="-2.411414000">
        <ele>479.50</ele>
        <time>2017-02-18T09:47:42Z</time>
      </trkpt>
      <trkpt lat="42.521967000" lon="-2.411435000">
        <ele>479.50</ele>
        <time>2017-02-18T09:47:43Z</time>
      </trkpt>
      <trkpt lat="42.521966000" lon="-2.411456000">
        <ele>479.60</ele>
        <time>2017-02-18T09:47:44Z</time>
      </trkpt>
      <trkpt lat="42.521972000" lon="-2.411470000">
        <ele>479.60</ele>
        <time>2017-02-18T09:47:45Z</time>
      </trkpt>
      <trkpt lat="42.521981000" lon="-2.411491000">
        <ele>479.60</ele>
        <time>2017-02-18T09:47:46Z</time>
      </trkpt>
      <trkpt lat="42.521986000" lon="-2.411509000">
        <ele>479.70</ele>
        <time>2017-02-18T09:47:47Z</time>
      </trkpt>
      <trkpt lat="42.521995000" lon="-2.411530000">
        <ele>479.80</ele>
        <time>2017-02-18T09:47:48Z</time>
      </trkpt>
      <trkpt lat="42.521998000" lon="-2.411547000">
        <ele>479.90</ele>
        <time>2017-02-18T09:47:49Z</time>
      </trkpt>
      <trkpt lat="42.522001000" lon="-2.411567000">
        <ele>480.10</ele>
        <time>2017-02-18T09:47:50Z</time>
      </trkpt>
      <trkpt lat="42.522000000" lon="-2.411590000">
        <ele>480.30</ele>
        <time>2017-02-18T09:47:51Z</time>
      </trkpt>
      <trkpt lat="42.521999000" lon="-2.411610000">
        <ele>480.50</ele>
        <time>2017-02-18T09:47:52Z</time>
      </trkpt>
      <trkpt lat="42.522001000" lon="-2.411625000">
        <ele>480.60</ele>
        <time>2017-02-18T09:47:53Z</time>
      </trkpt>
      <trkpt lat="42.522009000" lon="-2.411636000">
        <ele>480.70</ele>
        <time>2017-02-18T09:47:54Z</time>
      </trkpt>
      <trkpt lat="42.522014000" lon="-2.411649000">
        <ele>480.70</ele>
        <time>2017-02-18T09:47:55Z</time>
      </trkpt>
      <trkpt lat="42.522024000" lon="-2.411662000">
        <ele>480.90</ele>
        <time>2017-02-18T09:47:56Z</time>
      </trkpt>
      <trkpt lat="42.522033000" lon="-2.411671000">
        <ele>481.00</ele>
        <time>2017-02-18T09:47:57Z</time>
      </trkpt>
      <trkpt lat="42.522042000" lon="-2.411683000">
        <ele>481.20</ele>
        <time>2017-02-18T09:47:58Z</time>
      </trkpt>
      <trkpt lat="42.522057000" lon="-2.411712000">
        <ele>481.50</ele>
        <time>2017-02-18T09:48:00Z</time>
      </trkpt>
      <trkpt lat="42.522057000" lon="-2.411729000">
        <ele>481.60</ele>
        <time>2017-02-18T09:48:01Z</time>
      </trkpt>
      <trkpt lat="42.522064000" lon="-2.411743000">
        <ele>481.70</ele>
        <time>2017-02-18T09:48:02Z</time>
      </trkpt>
      <trkpt lat="42.522071000" lon="-2.411754000">
        <ele>481.70</ele>
        <time>2017-02-18T09:48:03Z</time>
      </trkpt>
      <trkpt lat="42.522077000" lon="-2.411761000">
        <ele>481.90</ele>
        <time>2017-02-18T09:48:04Z</time>
      </trkpt>
      <trkpt lat="42.522087000" lon="-2.411769000">
        <ele>482.10</ele>
        <time>2017-02-18T09:48:05Z</time>
      </trkpt>
      <trkpt lat="42.522097000" lon="-2.411771000">
        <ele>482.20</ele>
        <time>2017-02-18T09:48:06Z</time>
      </trkpt>
      <trkpt lat="42.522103000" lon="-2.411781000">
        <ele>482.20</ele>
        <time>2017-02-18T09:48:07Z</time>
      </trkpt>
      <trkpt lat="42.522111000" lon="-2.411795000">
        <ele>482.30</ele>
        <time>2017-02-18T09:48:08Z</time>
      </trkpt>
      <trkpt lat="42.522115000" lon="-2.411816000">
        <ele>482.40</ele>
        <time>2017-02-18T09:48:09Z</time>
      </trkpt>
      <trkpt lat="42.522118000" lon="-2.411830000">
        <ele>482.50</ele>
        <time>2017-02-18T09:48:10Z</time>
      </trkpt>
      <trkpt lat="42.522122000" lon="-2.411847000">
        <ele>482.70</ele>
        <time>2017-02-18T09:48:11Z</time>
      </trkpt>
      <trkpt lat="42.522129000" lon="-2.411863000">
        <ele>482.90</ele>
        <time>2017-02-18T09:48:12Z</time>
      </trkpt>
      <trkpt lat="42.522137000" lon="-2.411877000">
        <ele>483.10</ele>
        <time>2017-02-18T09:48:13Z</time>
      </trkpt>
      <trkpt lat="42.522140000" lon="-2.411898000">
        <ele>483.20</ele>
        <time>2017-02-18T09:48:14Z</time>
      </trkpt>
      <trkpt lat="42.522143000" lon="-2.411917000">
        <ele>483.40</ele>
        <time>2017-02-18T09:48:15Z</time>
      </trkpt>
      <trkpt lat="42.522148000" lon="-2.411936000">
        <ele>483.60</ele>
        <time>2017-02-18T09:48:16Z</time>
      </trkpt>
      <trkpt lat="42.522153000" lon="-2.411953000">
        <ele>483.70</ele>
        <time>2017-02-18T09:48:17Z</time>
      </trkpt>
      <trkpt lat="42.522161000" lon="-2.411973000">
        <ele>483.80</ele>
        <time>2017-02-18T09:48:18Z</time>
      </trkpt>
      <trkpt lat="42.522171000" lon="-2.411992000">
        <ele>483.90</ele>
        <time>2017-02-18T09:48:19Z</time>
      </trkpt>
      <trkpt lat="42.522175000" lon="-2.412014000">
        <ele>484.00</ele>
        <time>2017-02-18T09:48:20Z</time>
      </trkpt>
      <trkpt lat="42.522175000" lon="-2.412041000">
        <ele>484.10</ele>
        <time>2017-02-18T09:48:21Z</time>
      </trkpt>
      <trkpt lat="42.522177000" lon="-2.412069000">
        <ele>484.20</ele>
        <time>2017-02-18T09:48:22Z</time>
      </trkpt>
      <trkpt lat="42.522181000" lon="-2.412096000">
        <ele>484.50</ele>
        <time>2017-02-18T09:48:23Z</time>
      </trkpt>
      <trkpt lat="42.522183000" lon="-2.412121000">
        <ele>484.60</ele>
        <time>2017-02-18T09:48:24Z</time>
      </trkpt>
      <trkpt lat="42.522188000" lon="-2.412141000">
        <ele>484.70</ele>
        <time>2017-02-18T09:48:25Z</time>
      </trkpt>
      <trkpt lat="42.522190000" lon="-2.412162000">
        <ele>484.80</ele>
        <time>2017-02-18T09:48:26Z</time>
      </trkpt>
      <trkpt lat="42.522196000" lon="-2.412183000">
        <ele>485.00</ele>
        <time>2017-02-18T09:48:27Z</time>
      </trkpt>
      <trkpt lat="42.522198000" lon="-2.412207000">
        <ele>485.20</ele>
        <time>2017-02-18T09:48:28Z</time>
      </trkpt>
      <trkpt lat="42.522203000" lon="-2.412231000">
        <ele>485.40</ele>
        <time>2017-02-18T09:48:29Z</time>
      </trkpt>
      <trkpt lat="42.522209000" lon="-2.412254000">
        <ele>485.50</ele>
        <time>2017-02-18T09:48:30Z</time>
      </trkpt>
      <trkpt lat="42.522212000" lon="-2.412280000">
        <ele>485.70</ele>
        <time>2017-02-18T09:48:31Z</time>
      </trkpt>
      <trkpt lat="42.522217000" lon="-2.412308000">
        <ele>485.90</ele>
        <time>2017-02-18T09:48:32Z</time>
      </trkpt>
      <trkpt lat="42.522222000" lon="-2.412333000">
        <ele>486.10</ele>
        <time>2017-02-18T09:48:33Z</time>
      </trkpt>
      <trkpt lat="42.522227000" lon="-2.412359000">
        <ele>486.30</ele>
        <time>2017-02-18T09:48:34Z</time>
      </trkpt>
      <trkpt lat="42.522228000" lon="-2.412388000">
        <ele>486.50</ele>
        <time>2017-02-18T09:48:35Z</time>
      </trkpt>
      <trkpt lat="42.522235000" lon="-2.412413000">
        <ele>486.70</ele>
        <time>2017-02-18T09:48:36Z</time>
      </trkpt>
      <trkpt lat="42.522240000" lon="-2.412441000">
        <ele>486.90</ele>
        <time>2017-02-18T09:48:37Z</time>
      </trkpt>
      <trkpt lat="42.522244000" lon="-2.412468000">
        <ele>487.10</ele>
        <time>2017-02-18T09:48:38Z</time>
      </trkpt>
      <trkpt lat="42.522245000" lon="-2.412496000">
        <ele>487.30</ele>
        <time>2017-02-18T09:48:39Z</time>
      </trkpt>
      <trkpt lat="42.522244000" lon="-2.412523000">
        <ele>487.40</ele>
        <time>2017-02-18T09:48:40Z</time>
      </trkpt>
      <trkpt lat="42.522242000" lon="-2.412552000">
        <ele>487.70</ele>
        <time>2017-02-18T09:48:41Z</time>
      </trkpt>
      <trkpt lat="42.522238000" lon="-2.412579000">
        <ele>487.90</ele>
        <time>2017-02-18T09:48:42Z</time>
      </trkpt>
      <trkpt lat="42.522238000" lon="-2.412611000">
        <ele>488.20</ele>
        <time>2017-02-18T09:48:43Z</time>
      </trkpt>
      <trkpt lat="42.522240000" lon="-2.412639000">
        <ele>488.50</ele>
        <time>2017-02-18T09:48:44Z</time>
      </trkpt>
      <trkpt lat="42.522244000" lon="-2.412671000">
        <ele>488.60</ele>
        <time>2017-02-18T09:48:45Z</time>
      </trkpt>
      <trkpt lat="42.522245000" lon="-2.412697000">
        <ele>488.80</ele>
        <time>2017-02-18T09:48:46Z</time>
      </trkpt>
      <trkpt lat="42.522250000" lon="-2.412727000">
        <ele>489.10</ele>
        <time>2017-02-18T09:48:47Z</time>
      </trkpt>
      <trkpt lat="42.522254000" lon="-2.412754000">
        <ele>489.40</ele>
        <time>2017-02-18T09:48:48Z</time>
      </trkpt>
      <trkpt lat="42.522256000" lon="-2.412789000">
        <ele>489.50</ele>
        <time>2017-02-18T09:48:49Z</time>
      </trkpt>
      <trkpt lat="42.522259000" lon="-2.412818000">
        <ele>489.70</ele>
        <time>2017-02-18T09:48:50Z</time>
      </trkpt>
      <trkpt lat="42.522261000" lon="-2.412855000">
        <ele>489.80</ele>
        <time>2017-02-18T09:48:51Z</time>
      </trkpt>
      <trkpt lat="42.522263000" lon="-2.412889000">
        <ele>489.90</ele>
        <time>2017-02-18T09:48:52Z</time>
      </trkpt>
      <trkpt lat="42.522268000" lon="-2.412924000">
        <ele>490.00</ele>
        <time>2017-02-18T09:48:53Z</time>
      </trkpt>
      <trkpt lat="42.522269000" lon="-2.412957000">
        <ele>490.10</ele>
        <time>2017-02-18T09:48:54Z</time>
      </trkpt>
      <trkpt lat="42.522274000" lon="-2.412991000">
        <ele>490.40</ele>
        <time>2017-02-18T09:48:55Z</time>
      </trkpt>
      <trkpt lat="42.522275000" lon="-2.413027000">
        <ele>490.70</ele>
        <time>2017-02-18T09:48:56Z</time>
      </trkpt>
      <trkpt lat="42.522279000" lon="-2.413060000">
        <ele>491.00</ele>
        <time>2017-02-18T09:48:57Z</time>
      </trkpt>
      <trkpt lat="42.522277000" lon="-2.413095000">
        <ele>491.30</ele>
        <time>2017-02-18T09:48:58Z</time>
      </trkpt>
      <trkpt lat="42.522279000" lon="-2.413129000">
        <ele>491.70</ele>
        <time>2017-02-18T09:48:59Z</time>
      </trkpt>
      <trkpt lat="42.522285000" lon="-2.413164000">
        <ele>492.10</ele>
        <time>2017-02-18T09:49:00Z</time>
      </trkpt>
      <trkpt lat="42.522296000" lon="-2.413231000">
        <ele>492.90</ele>
        <time>2017-02-18T09:49:02Z</time>
      </trkpt>
      <trkpt lat="42.522304000" lon="-2.413265000">
        <ele>493.30</ele>
        <time>2017-02-18T09:49:03Z</time>
      </trkpt>
      <trkpt lat="42.522317000" lon="-2.413294000">
        <ele>493.60</ele>
        <time>2017-02-18T09:49:04Z</time>
      </trkpt>
      <trkpt lat="42.522325000" lon="-2.413326000">
        <ele>494.20</ele>
        <time>2017-02-18T09:49:05Z</time>
      </trkpt>
      <trkpt lat="42.522334000" lon="-2.413357000">
        <ele>494.70</ele>
        <time>2017-02-18T09:49:06Z</time>
      </trkpt>
      <trkpt lat="42.522345000" lon="-2.413388000">
        <ele>495.10</ele>
        <time>2017-02-18T09:49:07Z</time>
      </trkpt>
      <trkpt lat="42.522355000" lon="-2.413418000">
        <ele>495.40</ele>
        <time>2017-02-18T09:49:08Z</time>
      </trkpt>
      <trkpt lat="42.522365000" lon="-2.413452000">
        <ele>495.90</ele>
        <time>2017-02-18T09:49:09Z</time>
      </trkpt>
      <trkpt lat="42.522374000" lon="-2.413484000">
        <ele>496.30</ele>
        <time>2017-02-18T09:49:10Z</time>
      </trkpt>
      <trkpt lat="42.522381000" lon="-2.413515000">
        <ele>496.60</ele>
        <time>2017-02-18T09:49:11Z</time>
      </trkpt>
      <trkpt lat="42.522391000" lon="-2.413548000">
        <ele>496.90</ele>
        <time>2017-02-18T09:49:12Z</time>
      </trkpt>
      <trkpt lat="42.522401000" lon="-2.413581000">
        <ele>497.20</ele>
        <time>2017-02-18T09:49:13Z</time>
      </trkpt>
      <trkpt lat="42.522411000" lon="-2.413610000">
        <ele>497.50</ele>
        <time>2017-02-18T09:49:14Z</time>
      </trkpt>
      <trkpt lat="42.522419000" lon="-2.413644000">
        <ele>497.90</ele>
        <time>2017-02-18T09:49:15Z</time>
      </trkpt>
      <trkpt lat="42.522426000" lon="-2.413678000">
        <ele>498.30</ele>
        <time>2017-02-18T09:49:16Z</time>
      </trkpt>
      <trkpt lat="42.522433000" lon="-2.413715000">
        <ele>498.50</ele>
        <time>2017-02-18T09:49:17Z</time>
      </trkpt>
      <trkpt lat="42.522437000" lon="-2.413749000">
        <ele>498.70</ele>
        <time>2017-02-18T09:49:18Z</time>
      </trkpt>
      <trkpt lat="42.522443000" lon="-2.413784000">
        <ele>498.90</ele>
        <time>2017-02-18T09:49:19Z</time>
      </trkpt>
      <trkpt lat="42.522447000" lon="-2.413812000">
        <ele>499.20</ele>
        <time>2017-02-18T09:49:20Z</time>
      </trkpt>
      <trkpt lat="42.522451000" lon="-2.413842000">
        <ele>499.40</ele>
        <time>2017-02-18T09:49:21Z</time>
      </trkpt>
      <trkpt lat="42.522454000" lon="-2.413872000">
        <ele>499.70</ele>
        <time>2017-02-18T09:49:22Z</time>
      </trkpt>
      <trkpt lat="42.522454000" lon="-2.413903000">
        <ele>499.90</ele>
        <time>2017-02-18T09:49:23Z</time>
      </trkpt>
      <trkpt lat="42.522453000" lon="-2.413936000">
        <ele>500.10</ele>
        <time>2017-02-18T09:49:24Z</time>
      </trkpt>
      <trkpt lat="42.522453000" lon="-2.413964000">
        <ele>500.60</ele>
        <time>2017-02-18T09:49:25Z</time>
      </trkpt>
      <trkpt lat="42.522455000" lon="-2.413991000">
        <ele>500.90</ele>
        <time>2017-02-18T09:49:26Z</time>
      </trkpt>
      <trkpt lat="42.522455000" lon="-2.414021000">
        <ele>501.40</ele>
        <time>2017-02-18T09:49:27Z</time>
      </trkpt>
      <trkpt lat="42.522456000" lon="-2.414049000">
        <ele>501.70</ele>
        <time>2017-02-18T09:49:28Z</time>
      </trkpt>
      <trkpt lat="42.522462000" lon="-2.414073000">
        <ele>502.10</ele>
        <time>2017-02-18T09:49:29Z</time>
      </trkpt>
      <trkpt lat="42.522472000" lon="-2.414095000">
        <ele>502.50</ele>
        <time>2017-02-18T09:49:30Z</time>
      </trkpt>
      <trkpt lat="42.522478000" lon="-2.414122000">
        <ele>502.80</ele>
        <time>2017-02-18T09:49:31Z</time>
      </trkpt>
      <trkpt lat="42.522482000" lon="-2.414148000">
        <ele>503.10</ele>
        <time>2017-02-18T09:49:32Z</time>
      </trkpt>
      <trkpt lat="42.522483000" lon="-2.414175000">
        <ele>503.40</ele>
        <time>2017-02-18T09:49:33Z</time>
      </trkpt>
      <trkpt lat="42.522482000" lon="-2.414200000">
        <ele>503.60</ele>
        <time>2017-02-18T09:49:34Z</time>
      </trkpt>
      <trkpt lat="42.522485000" lon="-2.414224000">
        <ele>503.90</ele>
        <time>2017-02-18T09:49:35Z</time>
      </trkpt>
      <trkpt lat="42.522488000" lon="-2.414245000">
        <ele>504.00</ele>
        <time>2017-02-18T09:49:36Z</time>
      </trkpt>
      <trkpt lat="42.522492000" lon="-2.414271000">
        <ele>504.20</ele>
        <time>2017-02-18T09:49:37Z</time>
      </trkpt>
      <trkpt lat="42.522497000" lon="-2.414287000">
        <ele>504.40</ele>
        <time>2017-02-18T09:49:38Z</time>
      </trkpt>
      <trkpt lat="42.522502000" lon="-2.414303000">
        <ele>504.70</ele>
        <time>2017-02-18T09:49:39Z</time>
      </trkpt>
      <trkpt lat="42.522509000" lon="-2.414317000">
        <ele>504.90</ele>
        <time>2017-02-18T09:49:40Z</time>
      </trkpt>
      <trkpt lat="42.522505000" lon="-2.414334000">
        <ele>505.30</ele>
        <time>2017-02-18T09:49:41Z</time>
      </trkpt>
      <trkpt lat="42.522509000" lon="-2.414354000">
        <ele>505.60</ele>
        <time>2017-02-18T09:49:42Z</time>
      </trkpt>
      <trkpt lat="42.522507000" lon="-2.414371000">
        <ele>505.80</ele>
        <time>2017-02-18T09:49:43Z</time>
      </trkpt>
      <trkpt lat="42.522503000" lon="-2.414390000">
        <ele>506.00</ele>
        <time>2017-02-18T09:49:44Z</time>
      </trkpt>
      <trkpt lat="42.522499000" lon="-2.414411000">
        <ele>506.20</ele>
        <time>2017-02-18T09:49:45Z</time>
      </trkpt>
      <trkpt lat="42.522498000" lon="-2.414432000">
        <ele>506.30</ele>
        <time>2017-02-18T09:49:46Z</time>
      </trkpt>
      <trkpt lat="42.522497000" lon="-2.414454000">
        <ele>506.30</ele>
        <time>2017-02-18T09:49:47Z</time>
      </trkpt>
      <trkpt lat="42.522496000" lon="-2.414468000">
        <ele>506.30</ele>
        <time>2017-02-18T09:49:48Z</time>
      </trkpt>
      <trkpt lat="42.522495000" lon="-2.414484000">
        <ele>506.20</ele>
        <time>2017-02-18T09:49:49Z</time>
      </trkpt>
      <trkpt lat="42.522497000" lon="-2.414494000">
        <ele>506.20</ele>
        <time>2017-02-18T09:49:50Z</time>
      </trkpt>
      <trkpt lat="42.522496000" lon="-2.414503000">
        <ele>506.20</ele>
        <time>2017-02-18T09:49:51Z</time>
      </trkpt>
      <trkpt lat="42.522498000" lon="-2.414519000">
        <ele>506.20</ele>
        <time>2017-02-18T09:49:52Z</time>
      </trkpt>
      <trkpt lat="42.522495000" lon="-2.414528000">
        <ele>506.20</ele>
        <time>2017-02-18T09:49:53Z</time>
      </trkpt>
      <trkpt lat="42.522495000" lon="-2.414538000">
        <ele>506.20</ele>
        <time>2017-02-18T09:49:54Z</time>
      </trkpt>
      <trkpt lat="42.522496000" lon="-2.414544000">
        <ele>506.20</ele>
        <time>2017-02-18T09:49:55Z</time>
      </trkpt>
      <trkpt lat="42.522495000" lon="-2.414557000">
        <ele>506.10</ele>
        <time>2017-02-18T09:49:56Z</time>
      </trkpt>
      <trkpt lat="42.522491000" lon="-2.414573000">
        <ele>506.00</ele>
        <time>2017-02-18T09:49:57Z</time>
      </trkpt>
      <trkpt lat="42.522488000" lon="-2.414590000">
        <ele>505.90</ele>
        <time>2017-02-18T09:49:58Z</time>
      </trkpt>
      <trkpt lat="42.522490000" lon="-2.414609000">
        <ele>505.80</ele>
        <time>2017-02-18T09:49:59Z</time>
      </trkpt>
      <trkpt lat="42.522490000" lon="-2.414623000">
        <ele>505.80</ele>
        <time>2017-02-18T09:50:00Z</time>
      </trkpt>
      <trkpt lat="42.522491000" lon="-2.414638000">
        <ele>505.70</ele>
        <time>2017-02-18T09:50:01Z</time>
      </trkpt>
      <trkpt lat="42.522490000" lon="-2.414682000">
        <ele>505.70</ele>
        <time>2017-02-18T09:50:03Z</time>
      </trkpt>
      <trkpt lat="42.522490000" lon="-2.414699000">
        <ele>505.80</ele>
        <time>2017-02-18T09:50:04Z</time>
      </trkpt>
      <trkpt lat="42.522492000" lon="-2.414715000">
        <ele>505.90</ele>
        <time>2017-02-18T09:50:05Z</time>
      </trkpt>
      <trkpt lat="42.522491000" lon="-2.414731000">
        <ele>505.90</ele>
        <time>2017-02-18T09:50:06Z</time>
      </trkpt>
      <trkpt lat="42.522489000" lon="-2.414752000">
        <ele>505.90</ele>
        <time>2017-02-18T09:50:07Z</time>
      </trkpt>
      <trkpt lat="42.522490000" lon="-2.414768000">
        <ele>505.90</ele>
        <time>2017-02-18T09:50:08Z</time>
      </trkpt>
      <trkpt lat="42.522489000" lon="-2.414786000">
        <ele>505.80</ele>
        <time>2017-02-18T09:50:09Z</time>
      </trkpt>
      <trkpt lat="42.522490000" lon="-2.414805000">
        <ele>505.70</ele>
        <time>2017-02-18T09:50:10Z</time>
      </trkpt>
      <trkpt lat="42.522491000" lon="-2.414824000">
        <ele>505.70</ele>
        <time>2017-02-18T09:50:11Z</time>
      </trkpt>
      <trkpt lat="42.522488000" lon="-2.414844000">
        <ele>505.60</ele>
        <time>2017-02-18T09:50:12Z</time>
      </trkpt>
      <trkpt lat="42.522488000" lon="-2.414867000">
        <ele>505.60</ele>
        <time>2017-02-18T09:50:13Z</time>
      </trkpt>
      <trkpt lat="42.522488000" lon="-2.414894000">
        <ele>505.60</ele>
        <time>2017-02-18T09:50:14Z</time>
      </trkpt>
      <trkpt lat="42.522488000" lon="-2.414919000">
        <ele>505.60</ele>
        <time>2017-02-18T09:50:15Z</time>
      </trkpt>
      <trkpt lat="42.522488000" lon="-2.414945000">
        <ele>505.70</ele>
        <time>2017-02-18T09:50:16Z</time>
      </trkpt>
      <trkpt lat="42.522487000" lon="-2.414973000">
        <ele>505.60</ele>
        <time>2017-02-18T09:50:17Z</time>
      </trkpt>
      <trkpt lat="42.522490000" lon="-2.415001000">
        <ele>505.50</ele>
        <time>2017-02-18T09:50:18Z</time>
      </trkpt>
      <trkpt lat="42.522491000" lon="-2.415034000">
        <ele>505.50</ele>
        <time>2017-02-18T09:50:19Z</time>
      </trkpt>
      <trkpt lat="42.522493000" lon="-2.415067000">
        <ele>505.60</ele>
        <time>2017-02-18T09:50:20Z</time>
      </trkpt>
      <trkpt lat="42.522496000" lon="-2.415104000">
        <ele>505.50</ele>
        <time>2017-02-18T09:50:21Z</time>
      </trkpt>
      <trkpt lat="42.522498000" lon="-2.415142000">
        <ele>505.50</ele>
        <time>2017-02-18T09:50:22Z</time>
      </trkpt>
      <trkpt lat="42.522500000" lon="-2.415185000">
        <ele>505.50</ele>
        <time>2017-02-18T09:50:23Z</time>
      </trkpt>
      <trkpt lat="42.522503000" lon="-2.415234000">
        <ele>505.50</ele>
        <time>2017-02-18T09:50:24Z</time>
      </trkpt>
      <trkpt lat="42.522503000" lon="-2.415285000">
        <ele>505.30</ele>
        <time>2017-02-18T09:50:25Z</time>
      </trkpt>
      <trkpt lat="42.522503000" lon="-2.415343000">
        <ele>505.20</ele>
        <time>2017-02-18T09:50:26Z</time>
      </trkpt>
      <trkpt lat="42.522504000" lon="-2.415405000">
        <ele>505.10</ele>
        <time>2017-02-18T09:50:27Z</time>
      </trkpt>
      <trkpt lat="42.522509000" lon="-2.415471000">
        <ele>505.00</ele>
        <time>2017-02-18T09:50:28Z</time>
      </trkpt>
      <trkpt lat="42.522515000" lon="-2.415544000">
        <ele>504.70</ele>
        <time>2017-02-18T09:50:29Z</time>
      </trkpt>
      <trkpt lat="42.522524000" lon="-2.415612000">
        <ele>504.50</ele>
        <time>2017-02-18T09:50:30Z</time>
      </trkpt>
      <trkpt lat="42.522527000" lon="-2.415664000">
        <ele>504.30</ele>
        <time>2017-02-18T09:50:31Z</time>
      </trkpt>
      <trkpt lat="42.522531000" lon="-2.415718000">
        <ele>504.10</ele>
        <time>2017-02-18T09:50:32Z</time>
      </trkpt>
      <trkpt lat="42.522537000" lon="-2.415777000">
        <ele>503.80</ele>
        <time>2017-02-18T09:50:33Z</time>
      </trkpt>
      <trkpt lat="42.522539000" lon="-2.415835000">
        <ele>503.60</ele>
        <time>2017-02-18T09:50:34Z</time>
      </trkpt>
      <trkpt lat="42.522541000" lon="-2.415896000">
        <ele>503.10</ele>
        <time>2017-02-18T09:50:35Z</time>
      </trkpt>
      <trkpt lat="42.522543000" lon="-2.415957000">
        <ele>502.80</ele>
        <time>2017-02-18T09:50:36Z</time>
      </trkpt>
      <trkpt lat="42.522545000" lon="-2.416021000">
        <ele>502.10</ele>
        <time>2017-02-18T09:50:37Z</time>
      </trkpt>
      <trkpt lat="42.522547000" lon="-2.416092000">
        <ele>501.60</ele>
        <time>2017-02-18T09:50:38Z</time>
      </trkpt>
      <trkpt lat="42.522546000" lon="-2.416171000">
        <ele>501.10</ele>
        <time>2017-02-18T09:50:39Z</time>
      </trkpt>
      <trkpt lat="42.522551000" lon="-2.416258000">
        <ele>500.70</ele>
        <time>2017-02-18T09:50:40Z</time>
      </trkpt>
      <trkpt lat="42.522557000" lon="-2.416349000">
        <ele>500.30</ele>
        <time>2017-02-18T09:50:41Z</time>
      </trkpt>
      <trkpt lat="42.522563000" lon="-2.416444000">
        <ele>499.90</ele>
        <time>2017-02-18T09:50:42Z</time>
      </trkpt>
      <trkpt lat="42.522568000" lon="-2.416540000">
        <ele>499.40</ele>
        <time>2017-02-18T09:50:43Z</time>
      </trkpt>
      <trkpt lat="42.522570000" lon="-2.416643000">
        <ele>499.00</ele>
        <time>2017-02-18T09:50:44Z</time>
      </trkpt>
      <trkpt lat="42.522573000" lon="-2.416751000">
        <ele>498.50</ele>
        <time>2017-02-18T09:50:45Z</time>
      </trkpt>
      <trkpt lat="42.522571000" lon="-2.416859000">
        <ele>498.10</ele>
        <time>2017-02-18T09:50:46Z</time>
      </trkpt>
      <trkpt lat="42.522572000" lon="-2.416975000">
        <ele>497.30</ele>
        <time>2017-02-18T09:50:47Z</time>
      </trkpt>
      <trkpt lat="42.522575000" lon="-2.417093000">
        <ele>496.60</ele>
        <time>2017-02-18T09:50:48Z</time>
      </trkpt>
      <trkpt lat="42.522578000" lon="-2.417213000">
        <ele>496.00</ele>
        <time>2017-02-18T09:50:49Z</time>
      </trkpt>
      <trkpt lat="42.522581000" lon="-2.417335000">
        <ele>495.50</ele>
        <time>2017-02-18T09:50:50Z</time>
      </trkpt>
      <trkpt lat="42.522588000" lon="-2.417458000">
        <ele>494.80</ele>
        <time>2017-02-18T09:50:51Z</time>
      </trkpt>
      <trkpt lat="42.522595000" lon="-2.417584000">
        <ele>494.30</ele>
        <time>2017-02-18T09:50:52Z</time>
      </trkpt>
      <trkpt lat="42.522600000" lon="-2.417706000">
        <ele>493.50</ele>
        <time>2017-02-18T09:50:53Z</time>
      </trkpt>
      <trkpt lat="42.522606000" lon="-2.417826000">
        <ele>492.80</ele>
        <time>2017-02-18T09:50:54Z</time>
      </trkpt>
      <trkpt lat="42.522614000" lon="-2.417948000">
        <ele>492.30</ele>
        <time>2017-02-18T09:50:55Z</time>
      </trkpt>
      <trkpt lat="42.522627000" lon="-2.418071000">
        <ele>491.80</ele>
        <time>2017-02-18T09:50:56Z</time>
      </trkpt>
      <trkpt lat="42.522643000" lon="-2.418196000">
        <ele>491.50</ele>
        <time>2017-02-18T09:50:57Z</time>
      </trkpt>
      <trkpt lat="42.522660000" lon="-2.418323000">
        <ele>491.30</ele>
        <time>2017-02-18T09:50:58Z</time>
      </trkpt>
      <trkpt lat="42.522683000" lon="-2.418450000">
        <ele>490.90</ele>
        <time>2017-02-18T09:50:59Z</time>
      </trkpt>
      <trkpt lat="42.522708000" lon="-2.418576000">
        <ele>490.60</ele>
        <time>2017-02-18T09:51:00Z</time>
      </trkpt>
      <trkpt lat="42.522735000" lon="-2.418705000">
        <ele>490.30</ele>
        <time>2017-02-18T09:51:01Z</time>
      </trkpt>
      <trkpt lat="42.522764000" lon="-2.418833000">
        <ele>490.10</ele>
        <time>2017-02-18T09:51:02Z</time>
      </trkpt>
      <trkpt lat="42.522793000" lon="-2.418960000">
        <ele>489.30</ele>
        <time>2017-02-18T09:51:03Z</time>
      </trkpt>
      <trkpt lat="42.522852000" lon="-2.419200000">
        <ele>488.20</ele>
        <time>2017-02-18T09:51:05Z</time>
      </trkpt>
      <trkpt lat="42.522883000" lon="-2.419316000">
        <ele>487.80</ele>
        <time>2017-02-18T09:51:06Z</time>
      </trkpt>
      <trkpt lat="42.522913000" lon="-2.419430000">
        <ele>487.50</ele>
        <time>2017-02-18T09:51:07Z</time>
      </trkpt>
      <trkpt lat="42.522940000" lon="-2.419536000">
        <ele>487.30</ele>
        <time>2017-02-18T09:51:08Z</time>
      </trkpt>
      <trkpt lat="42.522961000" lon="-2.419638000">
        <ele>487.00</ele>
        <time>2017-02-18T09:51:09Z</time>
      </trkpt>
      <trkpt lat="42.522976000" lon="-2.419739000">
        <ele>486.80</ele>
        <time>2017-02-18T09:51:10Z</time>
      </trkpt>
      <trkpt lat="42.522988000" lon="-2.419842000">
        <ele>486.60</ele>
        <time>2017-02-18T09:51:11Z</time>
      </trkpt>
      <trkpt lat="42.522988000" lon="-2.419941000">
        <ele>486.40</ele>
        <time>2017-02-18T09:51:12Z</time>
      </trkpt>
      <trkpt lat="42.522983000" lon="-2.420040000">
        <ele>486.20</ele>
        <time>2017-02-18T09:51:13Z</time>
      </trkpt>
      <trkpt lat="42.522971000" lon="-2.420131000">
        <ele>486.00</ele>
        <time>2017-02-18T09:51:14Z</time>
      </trkpt>
      <trkpt lat="42.522957000" lon="-2.420216000">
        <ele>485.90</ele>
        <time>2017-02-18T09:51:15Z</time>
      </trkpt>
      <trkpt lat="42.522937000" lon="-2.420299000">
        <ele>485.80</ele>
        <time>2017-02-18T09:51:16Z</time>
      </trkpt>
      <trkpt lat="42.522921000" lon="-2.420382000">
        <ele>485.70</ele>
        <time>2017-02-18T09:51:17Z</time>
      </trkpt>
      <trkpt lat="42.522901000" lon="-2.420462000">
        <ele>485.70</ele>
        <time>2017-02-18T09:51:18Z</time>
      </trkpt>
      <trkpt lat="42.522884000" lon="-2.420540000">
        <ele>485.80</ele>
        <time>2017-02-18T09:51:19Z</time>
      </trkpt>
      <trkpt lat="42.522866000" lon="-2.420620000">
        <ele>485.90</ele>
        <time>2017-02-18T09:51:20Z</time>
      </trkpt>
      <trkpt lat="42.522850000" lon="-2.420694000">
        <ele>485.80</ele>
        <time>2017-02-18T09:51:21Z</time>
      </trkpt>
      <trkpt lat="42.522837000" lon="-2.420767000">
        <ele>485.80</ele>
        <time>2017-02-18T09:51:22Z</time>
      </trkpt>
      <trkpt lat="42.522827000" lon="-2.420837000">
        <ele>485.90</ele>
        <time>2017-02-18T09:51:23Z</time>
      </trkpt>
      <trkpt lat="42.522818000" lon="-2.420904000">
        <ele>486.00</ele>
        <time>2017-02-18T09:51:24Z</time>
      </trkpt>
      <trkpt lat="42.522809000" lon="-2.420976000">
        <ele>486.20</ele>
        <time>2017-02-18T09:51:25Z</time>
      </trkpt>
      <trkpt lat="42.522800000" lon="-2.421047000">
        <ele>486.40</ele>
        <time>2017-02-18T09:51:26Z</time>
      </trkpt>
      <trkpt lat="42.522793000" lon="-2.421117000">
        <ele>486.70</ele>
        <time>2017-02-18T09:51:27Z</time>
      </trkpt>
      <trkpt lat="42.522784000" lon="-2.421185000">
        <ele>486.90</ele>
        <time>2017-02-18T09:51:28Z</time>
      </trkpt>
      <trkpt lat="42.522778000" lon="-2.421254000">
        <ele>487.10</ele>
        <time>2017-02-18T09:51:29Z</time>
      </trkpt>
      <trkpt lat="42.522772000" lon="-2.421322000">
        <ele>487.20</ele>
        <time>2017-02-18T09:51:30Z</time>
      </trkpt>
      <trkpt lat="42.522767000" lon="-2.421390000">
        <ele>487.30</ele>
        <time>2017-02-18T09:51:31Z</time>
      </trkpt>
      <trkpt lat="42.522759000" lon="-2.421455000">
        <ele>487.40</ele>
        <time>2017-02-18T09:51:32Z</time>
      </trkpt>
      <trkpt lat="42.522749000" lon="-2.421521000">
        <ele>487.50</ele>
        <time>2017-02-18T09:51:33Z</time>
      </trkpt>
      <trkpt lat="42.522742000" lon="-2.421586000">
        <ele>487.60</ele>
        <time>2017-02-18T09:51:34Z</time>
      </trkpt>
      <trkpt lat="42.522741000" lon="-2.421653000">
        <ele>487.70</ele>
        <time>2017-02-18T09:51:35Z</time>
      </trkpt>
      <trkpt lat="42.522739000" lon="-2.421724000">
        <ele>487.80</ele>
        <time>2017-02-18T09:51:36Z</time>
      </trkpt>
      <trkpt lat="42.522740000" lon="-2.421794000">
        <ele>487.90</ele>
        <time>2017-02-18T09:51:37Z</time>
      </trkpt>
      <trkpt lat="42.522742000" lon="-2.421864000">
        <ele>488.10</ele>
        <time>2017-02-18T09:51:38Z</time>
      </trkpt>
      <trkpt lat="42.522749000" lon="-2.421935000">
        <ele>488.20</ele>
        <time>2017-02-18T09:51:39Z</time>
      </trkpt>
      <trkpt lat="42.522754000" lon="-2.422005000">
        <ele>488.30</ele>
        <time>2017-02-18T09:51:40Z</time>
      </trkpt>
      <trkpt lat="42.522762000" lon="-2.422079000">
        <ele>488.30</ele>
        <time>2017-02-18T09:51:41Z</time>
      </trkpt>
      <trkpt lat="42.522773000" lon="-2.422153000">
        <ele>488.30</ele>
        <time>2017-02-18T09:51:42Z</time>
      </trkpt>
      <trkpt lat="42.522786000" lon="-2.422225000">
        <ele>488.10</ele>
        <time>2017-02-18T09:51:43Z</time>
      </trkpt>
      <trkpt lat="42.522800000" lon="-2.422299000">
        <ele>488.00</ele>
        <time>2017-02-18T09:51:44Z</time>
      </trkpt>
      <trkpt lat="42.522816000" lon="-2.422372000">
        <ele>487.90</ele>
        <time>2017-02-18T09:51:45Z</time>
      </trkpt>
      <trkpt lat="42.522829000" lon="-2.422443000">
        <ele>487.80</ele>
        <time>2017-02-18T09:51:46Z</time>
      </trkpt>
      <trkpt lat="42.522839000" lon="-2.422514000">
        <ele>487.70</ele>
        <time>2017-02-18T09:51:47Z</time>
      </trkpt>
      <trkpt lat="42.522850000" lon="-2.422588000">
        <ele>487.60</ele>
        <time>2017-02-18T09:51:48Z</time>
      </trkpt>
      <trkpt lat="42.522864000" lon="-2.422663000">
        <ele>487.30</ele>
        <time>2017-02-18T09:51:49Z</time>
      </trkpt>
      <trkpt lat="42.522876000" lon="-2.422739000">
        <ele>487.10</ele>
        <time>2017-02-18T09:51:50Z</time>
      </trkpt>
      <trkpt lat="42.522887000" lon="-2.422818000">
        <ele>486.90</ele>
        <time>2017-02-18T09:51:51Z</time>
      </trkpt>
      <trkpt lat="42.522900000" lon="-2.422897000">
        <ele>486.80</ele>
        <time>2017-02-18T09:51:52Z</time>
      </trkpt>
      <trkpt lat="42.522911000" lon="-2.422979000">
        <ele>486.70</ele>
        <time>2017-02-18T09:51:53Z</time>
      </trkpt>
      <trkpt lat="42.522918000" lon="-2.423060000">
        <ele>486.60</ele>
        <time>2017-02-18T09:51:54Z</time>
      </trkpt>
      <trkpt lat="42.522924000" lon="-2.423144000">
        <ele>486.50</ele>
        <time>2017-02-18T09:51:55Z</time>
      </trkpt>
      <trkpt lat="42.522928000" lon="-2.423226000">
        <ele>486.50</ele>
        <time>2017-02-18T09:51:56Z</time>
      </trkpt>
      <trkpt lat="42.522931000" lon="-2.423306000">
        <ele>486.50</ele>
        <time>2017-02-18T09:51:57Z</time>
      </trkpt>
      <trkpt lat="42.522933000" lon="-2.423391000">
        <ele>486.40</ele>
        <time>2017-02-18T09:51:58Z</time>
      </trkpt>
      <trkpt lat="42.522930000" lon="-2.423471000">
        <ele>486.40</ele>
        <time>2017-02-18T09:51:59Z</time>
      </trkpt>
      <trkpt lat="42.522925000" lon="-2.423549000">
        <ele>486.40</ele>
        <time>2017-02-18T09:52:00Z</time>
      </trkpt>
      <trkpt lat="42.522921000" lon="-2.423626000">
        <ele>486.50</ele>
        <time>2017-02-18T09:52:01Z</time>
      </trkpt>
      <trkpt lat="42.522915000" lon="-2.423701000">
        <ele>486.50</ele>
        <time>2017-02-18T09:52:02Z</time>
      </trkpt>
      <trkpt lat="42.522911000" lon="-2.423779000">
        <ele>486.30</ele>
        <time>2017-02-18T09:52:03Z</time>
      </trkpt>
      <trkpt lat="42.522909000" lon="-2.423855000">
        <ele>486.20</ele>
        <time>2017-02-18T09:52:04Z</time>
      </trkpt>
      <trkpt lat="42.522905000" lon="-2.423929000">
        <ele>486.20</ele>
        <time>2017-02-18T09:52:05Z</time>
      </trkpt>
      <trkpt lat="42.522900000" lon="-2.424075000">
        <ele>486.10</ele>
        <time>2017-02-18T09:52:07Z</time>
      </trkpt>
      <trkpt lat="42.522905000" lon="-2.424147000">
        <ele>486.00</ele>
        <time>2017-02-18T09:52:08Z</time>
      </trkpt>
      <trkpt lat="42.522914000" lon="-2.424220000">
        <ele>486.00</ele>
        <time>2017-02-18T09:52:09Z</time>
      </trkpt>
      <trkpt lat="42.522929000" lon="-2.424291000">
        <ele>486.00</ele>
        <time>2017-02-18T09:52:10Z</time>
      </trkpt>
      <trkpt lat="42.522944000" lon="-2.424365000">
        <ele>486.00</ele>
        <time>2017-02-18T09:52:11Z</time>
      </trkpt>
      <trkpt lat="42.522964000" lon="-2.424435000">
        <ele>486.00</ele>
        <time>2017-02-18T09:52:12Z</time>
      </trkpt>
      <trkpt lat="42.522989000" lon="-2.424503000">
        <ele>486.00</ele>
        <time>2017-02-18T09:52:13Z</time>
      </trkpt>
      <trkpt lat="42.523016000" lon="-2.424568000">
        <ele>486.00</ele>
        <time>2017-02-18T09:52:14Z</time>
      </trkpt>
      <trkpt lat="42.523045000" lon="-2.424628000">
        <ele>486.00</ele>
        <time>2017-02-18T09:52:15Z</time>
      </trkpt>
      <trkpt lat="42.523076000" lon="-2.424687000">
        <ele>486.00</ele>
        <time>2017-02-18T09:52:16Z</time>
      </trkpt>
      <trkpt lat="42.523111000" lon="-2.424743000">
        <ele>486.00</ele>
        <time>2017-02-18T09:52:17Z</time>
      </trkpt>
      <trkpt lat="42.523150000" lon="-2.424797000">
        <ele>486.00</ele>
        <time>2017-02-18T09:52:18Z</time>
      </trkpt>
      <trkpt lat="42.523194000" lon="-2.424844000">
        <ele>486.10</ele>
        <time>2017-02-18T09:52:19Z</time>
      </trkpt>
      <trkpt lat="42.523240000" lon="-2.424891000">
        <ele>486.20</ele>
        <time>2017-02-18T09:52:20Z</time>
      </trkpt>
      <trkpt lat="42.523291000" lon="-2.424939000">
        <ele>486.30</ele>
        <time>2017-02-18T09:52:21Z</time>
      </trkpt>
      <trkpt lat="42.523340000" lon="-2.424989000">
        <ele>486.40</ele>
        <time>2017-02-18T09:52:22Z</time>
      </trkpt>
      <trkpt lat="42.523389000" lon="-2.425047000">
        <ele>486.30</ele>
        <time>2017-02-18T09:52:23Z</time>
      </trkpt>
      <trkpt lat="42.523436000" lon="-2.425113000">
        <ele>486.20</ele>
        <time>2017-02-18T09:52:24Z</time>
      </trkpt>
      <trkpt lat="42.523482000" lon="-2.425188000">
        <ele>486.10</ele>
        <time>2017-02-18T09:52:25Z</time>
      </trkpt>
      <trkpt lat="42.523525000" lon="-2.425274000">
        <ele>486.00</ele>
        <time>2017-02-18T09:52:26Z</time>
      </trkpt>
      <trkpt lat="42.523569000" lon="-2.425364000">
        <ele>486.00</ele>
        <time>2017-02-18T09:52:27Z</time>
      </trkpt>
      <trkpt lat="42.523608000" lon="-2.425460000">
        <ele>485.90</ele>
        <time>2017-02-18T09:52:28Z</time>
      </trkpt>
      <trkpt lat="42.523648000" lon="-2.425558000">
        <ele>484.90</ele>
        <time>2017-02-18T09:52:29Z</time>
      </trkpt>
      <trkpt lat="42.523690000" lon="-2.425659000">
        <ele>484.20</ele>
        <time>2017-02-18T09:52:30Z</time>
      </trkpt>
      <trkpt lat="42.523732000" lon="-2.425757000">
        <ele>483.60</ele>
        <time>2017-02-18T09:52:31Z</time>
      </trkpt>
      <trkpt lat="42.523773000" lon="-2.425856000">
        <ele>483.20</ele>
        <time>2017-02-18T09:52:32Z</time>
      </trkpt>
      <trkpt lat="42.523805000" lon="-2.425962000">
        <ele>482.40</ele>
        <time>2017-02-18T09:52:33Z</time>
      </trkpt>
      <trkpt lat="42.523825000" lon="-2.426070000">
        <ele>481.90</ele>
        <time>2017-02-18T09:52:34Z</time>
      </trkpt>
      <trkpt lat="42.523830000" lon="-2.426180000">
        <ele>481.40</ele>
        <time>2017-02-18T09:52:35Z</time>
      </trkpt>
      <trkpt lat="42.523831000" lon="-2.426289000">
        <ele>481.00</ele>
        <time>2017-02-18T09:52:36Z</time>
      </trkpt>
      <trkpt lat="42.523838000" lon="-2.426392000">
        <ele>480.70</ele>
        <time>2017-02-18T09:52:37Z</time>
      </trkpt>
      <trkpt lat="42.523866000" lon="-2.426491000">
        <ele>480.50</ele>
        <time>2017-02-18T09:52:38Z</time>
      </trkpt>
      <trkpt lat="42.523913000" lon="-2.426578000">
        <ele>480.10</ele>
        <time>2017-02-18T09:52:39Z</time>
      </trkpt>
      <trkpt lat="42.523965000" lon="-2.426652000">
        <ele>479.80</ele>
        <time>2017-02-18T09:52:40Z</time>
      </trkpt>
      <trkpt lat="42.524023000" lon="-2.426723000">
        <ele>479.60</ele>
        <time>2017-02-18T09:52:41Z</time>
      </trkpt>
      <trkpt lat="42.524080000" lon="-2.426799000">
        <ele>479.40</ele>
        <time>2017-02-18T09:52:42Z</time>
      </trkpt>
      <trkpt lat="42.524130000" lon="-2.426882000">
        <ele>479.10</ele>
        <time>2017-02-18T09:52:43Z</time>
      </trkpt>
      <trkpt lat="42.524174000" lon="-2.426966000">
        <ele>478.90</ele>
        <time>2017-02-18T09:52:44Z</time>
      </trkpt>
      <trkpt lat="42.524218000" lon="-2.427054000">
        <ele>478.80</ele>
        <time>2017-02-18T09:52:45Z</time>
      </trkpt>
      <trkpt lat="42.524262000" lon="-2.427142000">
        <ele>478.80</ele>
        <time>2017-02-18T09:52:46Z</time>
      </trkpt>
      <trkpt lat="42.524307000" lon="-2.427231000">
        <ele>478.50</ele>
        <time>2017-02-18T09:52:47Z</time>
      </trkpt>
      <trkpt lat="42.524352000" lon="-2.427319000">
        <ele>478.40</ele>
        <time>2017-02-18T09:52:48Z</time>
      </trkpt>
      <trkpt lat="42.524399000" lon="-2.427404000">
        <ele>478.20</ele>
        <time>2017-02-18T09:52:49Z</time>
      </trkpt>
      <trkpt lat="42.524444000" lon="-2.427485000">
        <ele>478.10</ele>
        <time>2017-02-18T09:52:50Z</time>
      </trkpt>
      <trkpt lat="42.524486000" lon="-2.427564000">
        <ele>477.90</ele>
        <time>2017-02-18T09:52:51Z</time>
      </trkpt>
      <trkpt lat="42.524527000" lon="-2.427644000">
        <ele>477.80</ele>
        <time>2017-02-18T09:52:52Z</time>
      </trkpt>
      <trkpt lat="42.524563000" lon="-2.427726000">
        <ele>477.60</ele>
        <time>2017-02-18T09:52:53Z</time>
      </trkpt>
      <trkpt lat="42.524590000" lon="-2.427810000">
        <ele>477.40</ele>
        <time>2017-02-18T09:52:54Z</time>
      </trkpt>
      <trkpt lat="42.524602000" lon="-2.427893000">
        <ele>477.40</ele>
        <time>2017-02-18T09:52:55Z</time>
      </trkpt>
      <trkpt lat="42.524598000" lon="-2.427969000">
        <ele>477.40</ele>
        <time>2017-02-18T09:52:56Z</time>
      </trkpt>
      <trkpt lat="42.524591000" lon="-2.428044000">
        <ele>477.40</ele>
        <time>2017-02-18T09:52:57Z</time>
      </trkpt>
      <trkpt lat="42.524584000" lon="-2.428116000">
        <ele>477.50</ele>
        <time>2017-02-18T09:52:58Z</time>
      </trkpt>
      <trkpt lat="42.524576000" lon="-2.428185000">
        <ele>477.70</ele>
        <time>2017-02-18T09:52:59Z</time>
      </trkpt>
      <trkpt lat="42.524567000" lon="-2.428255000">
        <ele>477.80</ele>
        <time>2017-02-18T09:53:00Z</time>
      </trkpt>
      <trkpt lat="42.524559000" lon="-2.428324000">
        <ele>478.10</ele>
        <time>2017-02-18T09:53:01Z</time>
      </trkpt>
      <trkpt lat="42.524554000" lon="-2.428392000">
        <ele>478.30</ele>
        <time>2017-02-18T09:53:02Z</time>
      </trkpt>
      <trkpt lat="42.524545000" lon="-2.428460000">
        <ele>478.70</ele>
        <time>2017-02-18T09:53:03Z</time>
      </trkpt>
      <trkpt lat="42.524536000" lon="-2.428524000">
        <ele>479.10</ele>
        <time>2017-02-18T09:53:04Z</time>
      </trkpt>
      <trkpt lat="42.524528000" lon="-2.428586000">
        <ele>479.70</ele>
        <time>2017-02-18T09:53:05Z</time>
      </trkpt>
      <trkpt lat="42.524527000" lon="-2.428649000">
        <ele>480.20</ele>
        <time>2017-02-18T09:53:06Z</time>
      </trkpt>
      <trkpt lat="42.524532000" lon="-2.428704000">
        <ele>481.00</ele>
        <time>2017-02-18T09:53:07Z</time>
      </trkpt>
      <trkpt lat="42.524554000" lon="-2.428808000">
        <ele>482.50</ele>
        <time>2017-02-18T09:53:09Z</time>
      </trkpt>
      <trkpt lat="42.524574000" lon="-2.428851000">
        <ele>483.10</ele>
        <time>2017-02-18T09:53:10Z</time>
      </trkpt>
      <trkpt lat="42.524597000" lon="-2.428886000">
        <ele>483.60</ele>
        <time>2017-02-18T09:53:11Z</time>
      </trkpt>
      <trkpt lat="42.524622000" lon="-2.428918000">
        <ele>484.00</ele>
        <time>2017-02-18T09:53:12Z</time>
      </trkpt>
      <trkpt lat="42.524647000" lon="-2.428948000">
        <ele>484.70</ele>
        <time>2017-02-18T09:53:13Z</time>
      </trkpt>
      <trkpt lat="42.524670000" lon="-2.428980000">
        <ele>485.20</ele>
        <time>2017-02-18T09:53:14Z</time>
      </trkpt>
      <trkpt lat="42.524690000" lon="-2.429008000">
        <ele>485.80</ele>
        <time>2017-02-18T09:53:15Z</time>
      </trkpt>
      <trkpt lat="42.524714000" lon="-2.429036000">
        <ele>486.30</ele>
        <time>2017-02-18T09:53:16Z</time>
      </trkpt>
      <trkpt lat="42.524732000" lon="-2.429064000">
        <ele>486.70</ele>
        <time>2017-02-18T09:53:17Z</time>
      </trkpt>
      <trkpt lat="42.524749000" lon="-2.429094000">
        <ele>487.10</ele>
        <time>2017-02-18T09:53:18Z</time>
      </trkpt>
      <trkpt lat="42.524767000" lon="-2.429120000">
        <ele>487.40</ele>
        <time>2017-02-18T09:53:19Z</time>
      </trkpt>
      <trkpt lat="42.524784000" lon="-2.429145000">
        <ele>487.60</ele>
        <time>2017-02-18T09:53:20Z</time>
      </trkpt>
      <trkpt lat="42.524804000" lon="-2.429169000">
        <ele>487.90</ele>
        <time>2017-02-18T09:53:21Z</time>
      </trkpt>
      <trkpt lat="42.524822000" lon="-2.429194000">
        <ele>488.10</ele>
        <time>2017-02-18T09:53:22Z</time>
      </trkpt>
      <trkpt lat="42.524838000" lon="-2.429220000">
        <ele>488.50</ele>
        <time>2017-02-18T09:53:23Z</time>
      </trkpt>
      <trkpt lat="42.524854000" lon="-2.429242000">
        <ele>488.80</ele>
        <time>2017-02-18T09:53:24Z</time>
      </trkpt>
      <trkpt lat="42.524871000" lon="-2.429265000">
        <ele>489.10</ele>
        <time>2017-02-18T09:53:25Z</time>
      </trkpt>
      <trkpt lat="42.524884000" lon="-2.429290000">
        <ele>489.30</ele>
        <time>2017-02-18T09:53:26Z</time>
      </trkpt>
      <trkpt lat="42.524901000" lon="-2.429312000">
        <ele>489.70</ele>
        <time>2017-02-18T09:53:27Z</time>
      </trkpt>
      <trkpt lat="42.524917000" lon="-2.429330000">
        <ele>490.00</ele>
        <time>2017-02-18T09:53:28Z</time>
      </trkpt>
      <trkpt lat="42.524931000" lon="-2.429351000">
        <ele>490.40</ele>
        <time>2017-02-18T09:53:29Z</time>
      </trkpt>
      <trkpt lat="42.524948000" lon="-2.429369000">
        <ele>490.70</ele>
        <time>2017-02-18T09:53:30Z</time>
      </trkpt>
      <trkpt lat="42.524966000" lon="-2.429387000">
        <ele>491.10</ele>
        <time>2017-02-18T09:53:31Z</time>
      </trkpt>
      <trkpt lat="42.524984000" lon="-2.429399000">
        <ele>491.30</ele>
        <time>2017-02-18T09:53:32Z</time>
      </trkpt>
      <trkpt lat="42.524995000" lon="-2.429419000">
        <ele>491.60</ele>
        <time>2017-02-18T09:53:33Z</time>
      </trkpt>
      <trkpt lat="42.525013000" lon="-2.429439000">
        <ele>491.80</ele>
        <time>2017-02-18T09:53:34Z</time>
      </trkpt>
      <trkpt lat="42.525029000" lon="-2.429456000">
        <ele>491.90</ele>
        <time>2017-02-18T09:53:35Z</time>
      </trkpt>
      <trkpt lat="42.525048000" lon="-2.429475000">
        <ele>492.00</ele>
        <time>2017-02-18T09:53:36Z</time>
      </trkpt>
      <trkpt lat="42.525065000" lon="-2.429495000">
        <ele>492.20</ele>
        <time>2017-02-18T09:53:37Z</time>
      </trkpt>
      <trkpt lat="42.525082000" lon="-2.429512000">
        <ele>492.40</ele>
        <time>2017-02-18T09:53:38Z</time>
      </trkpt>
      <trkpt lat="42.525098000" lon="-2.429530000">
        <ele>492.60</ele>
        <time>2017-02-18T09:53:39Z</time>
      </trkpt>
      <trkpt lat="42.525118000" lon="-2.429540000">
        <ele>492.80</ele>
        <time>2017-02-18T09:53:40Z</time>
      </trkpt>
      <trkpt lat="42.525135000" lon="-2.429552000">
        <ele>493.10</ele>
        <time>2017-02-18T09:53:41Z</time>
      </trkpt>
      <trkpt lat="42.525149000" lon="-2.429564000">
        <ele>493.30</ele>
        <time>2017-02-18T09:53:42Z</time>
      </trkpt>
      <trkpt lat="42.525162000" lon="-2.429579000">
        <ele>493.50</ele>
        <time>2017-02-18T09:53:43Z</time>
      </trkpt>
      <trkpt lat="42.525176000" lon="-2.429592000">
        <ele>493.70</ele>
        <time>2017-02-18T09:53:44Z</time>
      </trkpt>
      <trkpt lat="42.525190000" lon="-2.429607000">
        <ele>494.10</ele>
        <time>2017-02-18T09:53:45Z</time>
      </trkpt>
      <trkpt lat="42.525204000" lon="-2.429626000">
        <ele>494.30</ele>
        <time>2017-02-18T09:53:46Z</time>
      </trkpt>
      <trkpt lat="42.525219000" lon="-2.429639000">
        <ele>494.60</ele>
        <time>2017-02-18T09:53:47Z</time>
      </trkpt>
      <trkpt lat="42.525235000" lon="-2.429654000">
        <ele>494.70</ele>
        <time>2017-02-18T09:53:48Z</time>
      </trkpt>
      <trkpt lat="42.525252000" lon="-2.429670000">
        <ele>494.80</ele>
        <time>2017-02-18T09:53:49Z</time>
      </trkpt>
      <trkpt lat="42.525270000" lon="-2.429685000">
        <ele>494.90</ele>
        <time>2017-02-18T09:53:50Z</time>
      </trkpt>
      <trkpt lat="42.525281000" lon="-2.429701000">
        <ele>495.40</ele>
        <time>2017-02-18T09:53:51Z</time>
      </trkpt>
      <trkpt lat="42.525295000" lon="-2.429722000">
        <ele>495.70</ele>
        <time>2017-02-18T09:53:52Z</time>
      </trkpt>
      <trkpt lat="42.525308000" lon="-2.429738000">
        <ele>495.90</ele>
        <time>2017-02-18T09:53:53Z</time>
      </trkpt>
      <trkpt lat="42.525323000" lon="-2.429754000">
        <ele>496.10</ele>
        <time>2017-02-18T09:53:54Z</time>
      </trkpt>
      <trkpt lat="42.525342000" lon="-2.429767000">
        <ele>496.30</ele>
        <time>2017-02-18T09:53:55Z</time>
      </trkpt>
      <trkpt lat="42.525361000" lon="-2.429776000">
        <ele>496.50</ele>
        <time>2017-02-18T09:53:56Z</time>
      </trkpt>
      <trkpt lat="42.525377000" lon="-2.429786000">
        <ele>496.70</ele>
        <time>2017-02-18T09:53:57Z</time>
      </trkpt>
      <trkpt lat="42.525392000" lon="-2.429802000">
        <ele>496.80</ele>
        <time>2017-02-18T09:53:58Z</time>
      </trkpt>
      <trkpt lat="42.525408000" lon="-2.429814000">
        <ele>497.20</ele>
        <time>2017-02-18T09:53:59Z</time>
      </trkpt>
      <trkpt lat="42.525425000" lon="-2.429828000">
        <ele>497.50</ele>
        <time>2017-02-18T09:54:00Z</time>
      </trkpt>
      <trkpt lat="42.525438000" lon="-2.429845000">
        <ele>497.90</ele>
        <time>2017-02-18T09:54:01Z</time>
      </trkpt>
      <trkpt lat="42.525455000" lon="-2.429864000">
        <ele>498.10</ele>
        <time>2017-02-18T09:54:02Z</time>
      </trkpt>
      <trkpt lat="42.525469000" lon="-2.429884000">
        <ele>498.50</ele>
        <time>2017-02-18T09:54:03Z</time>
      </trkpt>
      <trkpt lat="42.525487000" lon="-2.429899000">
        <ele>498.70</ele>
        <time>2017-02-18T09:54:04Z</time>
      </trkpt>
      <trkpt lat="42.525509000" lon="-2.429919000">
        <ele>499.00</ele>
        <time>2017-02-18T09:54:05Z</time>
      </trkpt>
      <trkpt lat="42.525523000" lon="-2.429937000">
        <ele>499.10</ele>
        <time>2017-02-18T09:54:06Z</time>
      </trkpt>
      <trkpt lat="42.525538000" lon="-2.429956000">
        <ele>499.40</ele>
        <time>2017-02-18T09:54:07Z</time>
      </trkpt>
      <trkpt lat="42.525550000" lon="-2.429976000">
        <ele>499.50</ele>
        <time>2017-02-18T09:54:08Z</time>
      </trkpt>
      <trkpt lat="42.525565000" lon="-2.429994000">
        <ele>499.90</ele>
        <time>2017-02-18T09:54:09Z</time>
      </trkpt>
      <trkpt lat="42.525596000" lon="-2.430023000">
        <ele>500.40</ele>
        <time>2017-02-18T09:54:11Z</time>
      </trkpt>
      <trkpt lat="42.525612000" lon="-2.430042000">
        <ele>500.50</ele>
        <time>2017-02-18T09:54:12Z</time>
      </trkpt>
      <trkpt lat="42.525623000" lon="-2.430068000">
        <ele>500.60</ele>
        <time>2017-02-18T09:54:13Z</time>
      </trkpt>
      <trkpt lat="42.525635000" lon="-2.430094000">
        <ele>500.70</ele>
        <time>2017-02-18T09:54:14Z</time>
      </trkpt>
      <trkpt lat="42.525645000" lon="-2.430119000">
        <ele>501.10</ele>
        <time>2017-02-18T09:54:15Z</time>
      </trkpt>
      <trkpt lat="42.525657000" lon="-2.430143000">
        <ele>501.40</ele>
        <time>2017-02-18T09:54:16Z</time>
      </trkpt>
      <trkpt lat="42.525672000" lon="-2.430164000">
        <ele>501.60</ele>
        <time>2017-02-18T09:54:17Z</time>
      </trkpt>
      <trkpt lat="42.525685000" lon="-2.430183000">
        <ele>501.70</ele>
        <time>2017-02-18T09:54:18Z</time>
      </trkpt>
      <trkpt lat="42.525700000" lon="-2.430204000">
        <ele>501.70</ele>
        <time>2017-02-18T09:54:19Z</time>
      </trkpt>
      <trkpt lat="42.525711000" lon="-2.430228000">
        <ele>501.70</ele>
        <time>2017-02-18T09:54:20Z</time>
      </trkpt>
      <trkpt lat="42.525724000" lon="-2.430250000">
        <ele>501.70</ele>
        <time>2017-02-18T09:54:21Z</time>
      </trkpt>
      <trkpt lat="42.525742000" lon="-2.430270000">
        <ele>501.70</ele>
        <time>2017-02-18T09:54:22Z</time>
      </trkpt>
      <trkpt lat="42.525759000" lon="-2.430290000">
        <ele>502.00</ele>
        <time>2017-02-18T09:54:23Z</time>
      </trkpt>
      <trkpt lat="42.525774000" lon="-2.430310000">
        <ele>502.30</ele>
        <time>2017-02-18T09:54:24Z</time>
      </trkpt>
      <trkpt lat="42.525784000" lon="-2.430329000">
        <ele>502.50</ele>
        <time>2017-02-18T09:54:25Z</time>
      </trkpt>
      <trkpt lat="42.525796000" lon="-2.430352000">
        <ele>502.60</ele>
        <time>2017-02-18T09:54:26Z</time>
      </trkpt>
      <trkpt lat="42.525807000" lon="-2.430375000">
        <ele>502.80</ele>
        <time>2017-02-18T09:54:27Z</time>
      </trkpt>
      <trkpt lat="42.525819000" lon="-2.430400000">
        <ele>503.00</ele>
        <time>2017-02-18T09:54:28Z</time>
      </trkpt>
      <trkpt lat="42.525831000" lon="-2.430425000">
        <ele>503.20</ele>
        <time>2017-02-18T09:54:29Z</time>
      </trkpt>
      <trkpt lat="42.525844000" lon="-2.430452000">
        <ele>503.30</ele>
        <time>2017-02-18T09:54:30Z</time>
      </trkpt>
      <trkpt lat="42.525856000" lon="-2.430478000">
        <ele>503.50</ele>
        <time>2017-02-18T09:54:31Z</time>
      </trkpt>
      <trkpt lat="42.525866000" lon="-2.430504000">
        <ele>503.60</ele>
        <time>2017-02-18T09:54:32Z</time>
      </trkpt>
      <trkpt lat="42.525877000" lon="-2.430529000">
        <ele>504.10</ele>
        <time>2017-02-18T09:54:33Z</time>
      </trkpt>
      <trkpt lat="42.525890000" lon="-2.430552000">
        <ele>504.40</ele>
        <time>2017-02-18T09:54:34Z</time>
      </trkpt>
      <trkpt lat="42.525901000" lon="-2.430579000">
        <ele>504.70</ele>
        <time>2017-02-18T09:54:35Z</time>
      </trkpt>
      <trkpt lat="42.525916000" lon="-2.430606000">
        <ele>504.90</ele>
        <time>2017-02-18T09:54:36Z</time>
      </trkpt>
      <trkpt lat="42.525926000" lon="-2.430634000">
        <ele>505.00</ele>
        <time>2017-02-18T09:54:37Z</time>
      </trkpt>
      <trkpt lat="42.525936000" lon="-2.430662000">
        <ele>505.20</ele>
        <time>2017-02-18T09:54:38Z</time>
      </trkpt>
      <trkpt lat="42.525945000" lon="-2.430687000">
        <ele>505.30</ele>
        <time>2017-02-18T09:54:39Z</time>
      </trkpt>
      <trkpt lat="42.525955000" lon="-2.430710000">
        <ele>505.40</ele>
        <time>2017-02-18T09:54:40Z</time>
      </trkpt>
      <trkpt lat="42.525967000" lon="-2.430736000">
        <ele>505.60</ele>
        <time>2017-02-18T09:54:41Z</time>
      </trkpt>
      <trkpt lat="42.525976000" lon="-2.430762000">
        <ele>505.80</ele>
        <time>2017-02-18T09:54:42Z</time>
      </trkpt>
      <trkpt lat="42.525985000" lon="-2.430787000">
        <ele>505.90</ele>
        <time>2017-02-18T09:54:43Z</time>
      </trkpt>
      <trkpt lat="42.525993000" lon="-2.430814000">
        <ele>506.00</ele>
        <time>2017-02-18T09:54:44Z</time>
      </trkpt>
      <trkpt lat="42.526006000" lon="-2.430837000">
        <ele>506.30</ele>
        <time>2017-02-18T09:54:45Z</time>
      </trkpt>
      <trkpt lat="42.526019000" lon="-2.430862000">
        <ele>506.50</ele>
        <time>2017-02-18T09:54:46Z</time>
      </trkpt>
      <trkpt lat="42.526032000" lon="-2.430887000">
        <ele>506.60</ele>
        <time>2017-02-18T09:54:47Z</time>
      </trkpt>
      <trkpt lat="42.526043000" lon="-2.430909000">
        <ele>506.70</ele>
        <time>2017-02-18T09:54:48Z</time>
      </trkpt>
      <trkpt lat="42.526052000" lon="-2.430934000">
        <ele>506.90</ele>
        <time>2017-02-18T09:54:49Z</time>
      </trkpt>
      <trkpt lat="42.526068000" lon="-2.430955000">
        <ele>507.00</ele>
        <time>2017-02-18T09:54:50Z</time>
      </trkpt>
      <trkpt lat="42.526081000" lon="-2.430982000">
        <ele>507.30</ele>
        <time>2017-02-18T09:54:51Z</time>
      </trkpt>
      <trkpt lat="42.526092000" lon="-2.431008000">
        <ele>507.60</ele>
        <time>2017-02-18T09:54:52Z</time>
      </trkpt>
      <trkpt lat="42.526105000" lon="-2.431032000">
        <ele>507.80</ele>
        <time>2017-02-18T09:54:53Z</time>
      </trkpt>
      <trkpt lat="42.526116000" lon="-2.431057000">
        <ele>508.00</ele>
        <time>2017-02-18T09:54:54Z</time>
      </trkpt>
      <trkpt lat="42.526129000" lon="-2.431086000">
        <ele>508.20</ele>
        <time>2017-02-18T09:54:55Z</time>
      </trkpt>
      <trkpt lat="42.526138000" lon="-2.431112000">
        <ele>508.30</ele>
        <time>2017-02-18T09:54:56Z</time>
      </trkpt>
      <trkpt lat="42.526149000" lon="-2.431138000">
        <ele>508.60</ele>
        <time>2017-02-18T09:54:57Z</time>
      </trkpt>
      <trkpt lat="42.526161000" lon="-2.431161000">
        <ele>508.80</ele>
        <time>2017-02-18T09:54:58Z</time>
      </trkpt>
      <trkpt lat="42.526176000" lon="-2.431187000">
        <ele>509.00</ele>
        <time>2017-02-18T09:54:59Z</time>
      </trkpt>
      <trkpt lat="42.526188000" lon="-2.431212000">
        <ele>509.20</ele>
        <time>2017-02-18T09:55:00Z</time>
      </trkpt>
      <trkpt lat="42.526204000" lon="-2.431232000">
        <ele>509.50</ele>
        <time>2017-02-18T09:55:01Z</time>
      </trkpt>
      <trkpt lat="42.526219000" lon="-2.431252000">
        <ele>509.60</ele>
        <time>2017-02-18T09:55:02Z</time>
      </trkpt>
      <trkpt lat="42.526235000" lon="-2.431274000">
        <ele>509.80</ele>
        <time>2017-02-18T09:55:03Z</time>
      </trkpt>
      <trkpt lat="42.526247000" lon="-2.431301000">
        <ele>510.00</ele>
        <time>2017-02-18T09:55:04Z</time>
      </trkpt>
      <trkpt lat="42.526260000" lon="-2.431328000">
        <ele>510.30</ele>
        <time>2017-02-18T09:55:05Z</time>
      </trkpt>
      <trkpt lat="42.526276000" lon="-2.431352000">
        <ele>510.50</ele>
        <time>2017-02-18T09:55:06Z</time>
      </trkpt>
      <trkpt lat="42.526290000" lon="-2.431379000">
        <ele>510.60</ele>
        <time>2017-02-18T09:55:07Z</time>
      </trkpt>
      <trkpt lat="42.526305000" lon="-2.431403000">
        <ele>510.60</ele>
        <time>2017-02-18T09:55:08Z</time>
      </trkpt>
      <trkpt lat="42.526320000" lon="-2.431425000">
        <ele>510.70</ele>
        <time>2017-02-18T09:55:09Z</time>
      </trkpt>
      <trkpt lat="42.526336000" lon="-2.431446000">
        <ele>510.70</ele>
        <time>2017-02-18T09:55:10Z</time>
      </trkpt>
      <trkpt lat="42.526352000" lon="-2.431468000">
        <ele>510.70</ele>
        <time>2017-02-18T09:55:11Z</time>
      </trkpt>
      <trkpt lat="42.526389000" lon="-2.431513000">
        <ele>510.90</ele>
        <time>2017-02-18T09:55:13Z</time>
      </trkpt>
      <trkpt lat="42.526402000" lon="-2.431541000">
        <ele>511.00</ele>
        <time>2017-02-18T09:55:14Z</time>
      </trkpt>
      <trkpt lat="42.526412000" lon="-2.431569000">
        <ele>511.10</ele>
        <time>2017-02-18T09:55:15Z</time>
      </trkpt>
      <trkpt lat="42.526426000" lon="-2.431590000">
        <ele>511.20</ele>
        <time>2017-02-18T09:55:16Z</time>
      </trkpt>
      <trkpt lat="42.526438000" lon="-2.431615000">
        <ele>511.50</ele>
        <time>2017-02-18T09:55:17Z</time>
      </trkpt>
      <trkpt lat="42.526452000" lon="-2.431641000">
        <ele>511.70</ele>
        <time>2017-02-18T09:55:18Z</time>
      </trkpt>
      <trkpt lat="42.526470000" lon="-2.431662000">
        <ele>511.90</ele>
        <time>2017-02-18T09:55:19Z</time>
      </trkpt>
      <trkpt lat="42.526487000" lon="-2.431685000">
        <ele>512.10</ele>
        <time>2017-02-18T09:55:20Z</time>
      </trkpt>
      <trkpt lat="42.526507000" lon="-2.431709000">
        <ele>512.20</ele>
        <time>2017-02-18T09:55:21Z</time>
      </trkpt>
      <trkpt lat="42.526525000" lon="-2.431734000">
        <ele>512.30</ele>
        <time>2017-02-18T09:55:22Z</time>
      </trkpt>
      <trkpt lat="42.526545000" lon="-2.431757000">
        <ele>512.30</ele>
        <time>2017-02-18T09:55:23Z</time>
      </trkpt>
      <trkpt lat="42.526567000" lon="-2.431781000">
        <ele>512.40</ele>
        <time>2017-02-18T09:55:24Z</time>
      </trkpt>
      <trkpt lat="42.526587000" lon="-2.431803000">
        <ele>512.40</ele>
        <time>2017-02-18T09:55:25Z</time>
      </trkpt>
      <trkpt lat="42.526609000" lon="-2.431831000">
        <ele>512.50</ele>
        <time>2017-02-18T09:55:26Z</time>
      </trkpt>
      <trkpt lat="42.526628000" lon="-2.431856000">
        <ele>512.50</ele>
        <time>2017-02-18T09:55:27Z</time>
      </trkpt>
      <trkpt lat="42.526646000" lon="-2.431877000">
        <ele>512.50</ele>
        <time>2017-02-18T09:55:28Z</time>
      </trkpt>
      <trkpt lat="42.526667000" lon="-2.431905000">
        <ele>512.50</ele>
        <time>2017-02-18T09:55:29Z</time>
      </trkpt>
      <trkpt lat="42.526687000" lon="-2.431931000">
        <ele>512.50</ele>
        <time>2017-02-18T09:55:30Z</time>
      </trkpt>
      <trkpt lat="42.526709000" lon="-2.431950000">
        <ele>512.80</ele>
        <time>2017-02-18T09:55:31Z</time>
      </trkpt>
      <trkpt lat="42.526732000" lon="-2.431971000">
        <ele>513.00</ele>
        <time>2017-02-18T09:55:32Z</time>
      </trkpt>
      <trkpt lat="42.526749000" lon="-2.431998000">
        <ele>513.10</ele>
        <time>2017-02-18T09:55:33Z</time>
      </trkpt>
      <trkpt lat="42.526771000" lon="-2.432019000">
        <ele>513.20</ele>
        <time>2017-02-18T09:55:34Z</time>
      </trkpt>
      <trkpt lat="42.526792000" lon="-2.432045000">
        <ele>513.30</ele>
        <time>2017-02-18T09:55:35Z</time>
      </trkpt>
      <trkpt lat="42.526812000" lon="-2.432071000">
        <ele>513.30</ele>
        <time>2017-02-18T09:55:36Z</time>
      </trkpt>
      <trkpt lat="42.526834000" lon="-2.432096000">
        <ele>513.40</ele>
        <time>2017-02-18T09:55:37Z</time>
      </trkpt>
      <trkpt lat="42.526860000" lon="-2.432118000">
        <ele>513.40</ele>
        <time>2017-02-18T09:55:38Z</time>
      </trkpt>
      <trkpt lat="42.526880000" lon="-2.432144000">
        <ele>513.50</ele>
        <time>2017-02-18T09:55:39Z</time>
      </trkpt>
      <trkpt lat="42.526897000" lon="-2.432171000">
        <ele>513.60</ele>
        <time>2017-02-18T09:55:40Z</time>
      </trkpt>
      <trkpt lat="42.526916000" lon="-2.432199000">
        <ele>513.60</ele>
        <time>2017-02-18T09:55:41Z</time>
      </trkpt>
      <trkpt lat="42.526935000" lon="-2.432223000">
        <ele>513.60</ele>
        <time>2017-02-18T09:55:42Z</time>
      </trkpt>
      <trkpt lat="42.526954000" lon="-2.432250000">
        <ele>513.70</ele>
        <time>2017-02-18T09:55:43Z</time>
      </trkpt>
      <trkpt lat="42.526970000" lon="-2.432278000">
        <ele>513.80</ele>
        <time>2017-02-18T09:55:44Z</time>
      </trkpt>
      <trkpt lat="42.526989000" lon="-2.432300000">
        <ele>514.00</ele>
        <time>2017-02-18T09:55:45Z</time>
      </trkpt>
      <trkpt lat="42.527006000" lon="-2.432329000">
        <ele>514.20</ele>
        <time>2017-02-18T09:55:46Z</time>
      </trkpt>
      <trkpt lat="42.527022000" lon="-2.432351000">
        <ele>514.60</ele>
        <time>2017-02-18T09:55:47Z</time>
      </trkpt>
      <trkpt lat="42.527042000" lon="-2.432374000">
        <ele>514.80</ele>
        <time>2017-02-18T09:55:48Z</time>
      </trkpt>
      <trkpt lat="42.527063000" lon="-2.432397000">
        <ele>515.00</ele>
        <time>2017-02-18T09:55:49Z</time>
      </trkpt>
      <trkpt lat="42.527081000" lon="-2.432419000">
        <ele>515.10</ele>
        <time>2017-02-18T09:55:50Z</time>
      </trkpt>
      <trkpt lat="42.527100000" lon="-2.432443000">
        <ele>515.30</ele>
        <time>2017-02-18T09:55:51Z</time>
      </trkpt>
      <trkpt lat="42.527119000" lon="-2.432467000">
        <ele>515.40</ele>
        <time>2017-02-18T09:55:52Z</time>
      </trkpt>
      <trkpt lat="42.527135000" lon="-2.432489000">
        <ele>515.70</ele>
        <time>2017-02-18T09:55:53Z</time>
      </trkpt>
      <trkpt lat="42.527151000" lon="-2.432512000">
        <ele>515.80</ele>
        <time>2017-02-18T09:55:54Z</time>
      </trkpt>
      <trkpt lat="42.527168000" lon="-2.432535000">
        <ele>516.00</ele>
        <time>2017-02-18T09:55:55Z</time>
      </trkpt>
      <trkpt lat="42.527186000" lon="-2.432558000">
        <ele>516.20</ele>
        <time>2017-02-18T09:55:56Z</time>
      </trkpt>
      <trkpt lat="42.527201000" lon="-2.432582000">
        <ele>516.30</ele>
        <time>2017-02-18T09:55:57Z</time>
      </trkpt>
      <trkpt lat="42.527217000" lon="-2.432609000">
        <ele>516.40</ele>
        <time>2017-02-18T09:55:58Z</time>
      </trkpt>
      <trkpt lat="42.527237000" lon="-2.432637000">
        <ele>516.60</ele>
        <time>2017-02-18T09:55:59Z</time>
      </trkpt>
      <trkpt lat="42.527254000" lon="-2.432664000">
        <ele>516.70</ele>
        <time>2017-02-18T09:56:00Z</time>
      </trkpt>
      <trkpt lat="42.527267000" lon="-2.432697000">
        <ele>516.90</ele>
        <time>2017-02-18T09:56:01Z</time>
      </trkpt>
      <trkpt lat="42.527281000" lon="-2.432731000">
        <ele>517.10</ele>
        <time>2017-02-18T09:56:02Z</time>
      </trkpt>
      <trkpt lat="42.527298000" lon="-2.432759000">
        <ele>517.30</ele>
        <time>2017-02-18T09:56:03Z</time>
      </trkpt>
      <trkpt lat="42.527315000" lon="-2.432790000">
        <ele>517.40</ele>
        <time>2017-02-18T09:56:04Z</time>
      </trkpt>
      <trkpt lat="42.527335000" lon="-2.432823000">
        <ele>517.70</ele>
        <time>2017-02-18T09:56:05Z</time>
      </trkpt>
      <trkpt lat="42.527350000" lon="-2.432854000">
        <ele>517.90</ele>
        <time>2017-02-18T09:56:06Z</time>
      </trkpt>
      <trkpt lat="42.527364000" lon="-2.432885000">
        <ele>518.20</ele>
        <time>2017-02-18T09:56:07Z</time>
      </trkpt>
      <trkpt lat="42.527378000" lon="-2.432913000">
        <ele>518.40</ele>
        <time>2017-02-18T09:56:08Z</time>
      </trkpt>
      <trkpt lat="42.527392000" lon="-2.432943000">
        <ele>518.60</ele>
        <time>2017-02-18T09:56:09Z</time>
      </trkpt>
      <trkpt lat="42.527401000" lon="-2.432979000">
        <ele>518.80</ele>
        <time>2017-02-18T09:56:10Z</time>
      </trkpt>
      <trkpt lat="42.527411000" lon="-2.433010000">
        <ele>518.90</ele>
        <time>2017-02-18T09:56:11Z</time>
      </trkpt>
      <trkpt lat="42.527423000" lon="-2.433041000">
        <ele>519.00</ele>
        <time>2017-02-18T09:56:12Z</time>
      </trkpt>
      <trkpt lat="42.527428000" lon="-2.433079000">
        <ele>519.10</ele>
        <time>2017-02-18T09:56:13Z</time>
      </trkpt>
      <trkpt lat="42.527447000" lon="-2.433136000">
        <ele>519.40</ele>
        <time>2017-02-18T09:56:15Z</time>
      </trkpt>
      <trkpt lat="42.527456000" lon="-2.433159000">
        <ele>519.50</ele>
        <time>2017-02-18T09:56:16Z</time>
      </trkpt>
      <trkpt lat="42.527461000" lon="-2.433180000">
        <ele>519.70</ele>
        <time>2017-02-18T09:56:17Z</time>
      </trkpt>
      <trkpt lat="42.527471000" lon="-2.433202000">
        <ele>519.80</ele>
        <time>2017-02-18T09:56:18Z</time>
      </trkpt>
      <trkpt lat="42.527477000" lon="-2.433232000">
        <ele>520.10</ele>
        <time>2017-02-18T09:56:19Z</time>
      </trkpt>
      <trkpt lat="42.527480000" lon="-2.433260000">
        <ele>520.20</ele>
        <time>2017-02-18T09:56:20Z</time>
      </trkpt>
      <trkpt lat="42.527484000" lon="-2.433290000">
        <ele>520.50</ele>
        <time>2017-02-18T09:56:21Z</time>
      </trkpt>
      <trkpt lat="42.527485000" lon="-2.433319000">
        <ele>520.70</ele>
        <time>2017-02-18T09:56:22Z</time>
      </trkpt>
      <trkpt lat="42.527492000" lon="-2.433346000">
        <ele>521.10</ele>
        <time>2017-02-18T09:56:23Z</time>
      </trkpt>
      <trkpt lat="42.527496000" lon="-2.433368000">
        <ele>521.40</ele>
        <time>2017-02-18T09:56:24Z</time>
      </trkpt>
      <trkpt lat="42.527502000" lon="-2.433395000">
        <ele>521.60</ele>
        <time>2017-02-18T09:56:25Z</time>
      </trkpt>
      <trkpt lat="42.527504000" lon="-2.433423000">
        <ele>521.80</ele>
        <time>2017-02-18T09:56:26Z</time>
      </trkpt>
      <trkpt lat="42.527508000" lon="-2.433449000">
        <ele>521.90</ele>
        <time>2017-02-18T09:56:27Z</time>
      </trkpt>
      <trkpt lat="42.527510000" lon="-2.433478000">
        <ele>522.00</ele>
        <time>2017-02-18T09:56:28Z</time>
      </trkpt>
      <trkpt lat="42.527509000" lon="-2.433507000">
        <ele>522.40</ele>
        <time>2017-02-18T09:56:29Z</time>
      </trkpt>
      <trkpt lat="42.527515000" lon="-2.433532000">
        <ele>522.70</ele>
        <time>2017-02-18T09:56:30Z</time>
      </trkpt>
      <trkpt lat="42.527518000" lon="-2.433555000">
        <ele>522.90</ele>
        <time>2017-02-18T09:56:31Z</time>
      </trkpt>
      <trkpt lat="42.527523000" lon="-2.433575000">
        <ele>523.10</ele>
        <time>2017-02-18T09:56:32Z</time>
      </trkpt>
      <trkpt lat="42.527529000" lon="-2.433604000">
        <ele>523.40</ele>
        <time>2017-02-18T09:56:33Z</time>
      </trkpt>
      <trkpt lat="42.527532000" lon="-2.433635000">
        <ele>523.70</ele>
        <time>2017-02-18T09:56:34Z</time>
      </trkpt>
      <trkpt lat="42.527538000" lon="-2.433659000">
        <ele>524.10</ele>
        <time>2017-02-18T09:56:35Z</time>
      </trkpt>
      <trkpt lat="42.527539000" lon="-2.433686000">
        <ele>524.40</ele>
        <time>2017-02-18T09:56:36Z</time>
      </trkpt>
      <trkpt lat="42.527539000" lon="-2.433713000">
        <ele>524.70</ele>
        <time>2017-02-18T09:56:37Z</time>
      </trkpt>
      <trkpt lat="42.527542000" lon="-2.433735000">
        <ele>524.80</ele>
        <time>2017-02-18T09:56:38Z</time>
      </trkpt>
      <trkpt lat="42.527548000" lon="-2.433755000">
        <ele>525.20</ele>
        <time>2017-02-18T09:56:39Z</time>
      </trkpt>
      <trkpt lat="42.527552000" lon="-2.433772000">
        <ele>525.40</ele>
        <time>2017-02-18T09:56:40Z</time>
      </trkpt>
      <trkpt lat="42.527553000" lon="-2.433791000">
        <ele>525.70</ele>
        <time>2017-02-18T09:56:41Z</time>
      </trkpt>
      <trkpt lat="42.527557000" lon="-2.433806000">
        <ele>526.00</ele>
        <time>2017-02-18T09:56:42Z</time>
      </trkpt>
      <trkpt lat="42.527565000" lon="-2.433828000">
        <ele>526.30</ele>
        <time>2017-02-18T09:56:43Z</time>
      </trkpt>
      <trkpt lat="42.527571000" lon="-2.433843000">
        <ele>526.50</ele>
        <time>2017-02-18T09:56:44Z</time>
      </trkpt>
      <trkpt lat="42.527579000" lon="-2.433860000">
        <ele>526.70</ele>
        <time>2017-02-18T09:56:45Z</time>
      </trkpt>
      <trkpt lat="42.527589000" lon="-2.433883000">
        <ele>526.80</ele>
        <time>2017-02-18T09:56:46Z</time>
      </trkpt>
      <trkpt lat="42.527592000" lon="-2.433904000">
        <ele>527.10</ele>
        <time>2017-02-18T09:56:47Z</time>
      </trkpt>
      <trkpt lat="42.527600000" lon="-2.433918000">
        <ele>527.30</ele>
        <time>2017-02-18T09:56:48Z</time>
      </trkpt>
      <trkpt lat="42.527608000" lon="-2.433942000">
        <ele>527.50</ele>
        <time>2017-02-18T09:56:49Z</time>
      </trkpt>
      <trkpt lat="42.527613000" lon="-2.433965000">
        <ele>527.70</ele>
        <time>2017-02-18T09:56:50Z</time>
      </trkpt>
      <trkpt lat="42.527617000" lon="-2.433991000">
        <ele>528.00</ele>
        <time>2017-02-18T09:56:51Z</time>
      </trkpt>
      <trkpt lat="42.527627000" lon="-2.434017000">
        <ele>528.20</ele>
        <time>2017-02-18T09:56:52Z</time>
      </trkpt>
      <trkpt lat="42.527633000" lon="-2.434043000">
        <ele>528.50</ele>
        <time>2017-02-18T09:56:53Z</time>
      </trkpt>
      <trkpt lat="42.527642000" lon="-2.434063000">
        <ele>528.60</ele>
        <time>2017-02-18T09:56:54Z</time>
      </trkpt>
      <trkpt lat="42.527650000" lon="-2.434083000">
        <ele>528.70</ele>
        <time>2017-02-18T09:56:55Z</time>
      </trkpt>
      <trkpt lat="42.527657000" lon="-2.434098000">
        <ele>528.80</ele>
        <time>2017-02-18T09:56:56Z</time>
      </trkpt>
      <trkpt lat="42.527661000" lon="-2.434113000">
        <ele>528.90</ele>
        <time>2017-02-18T09:56:57Z</time>
      </trkpt>
      <trkpt lat="42.527666000" lon="-2.434134000">
        <ele>529.10</ele>
        <time>2017-02-18T09:56:58Z</time>
      </trkpt>
      <trkpt lat="42.527671000" lon="-2.434157000">
        <ele>529.30</ele>
        <time>2017-02-18T09:56:59Z</time>
      </trkpt>
      <trkpt lat="42.527678000" lon="-2.434175000">
        <ele>529.50</ele>
        <time>2017-02-18T09:57:00Z</time>
      </trkpt>
      <trkpt lat="42.527685000" lon="-2.434194000">
        <ele>529.60</ele>
        <time>2017-02-18T09:57:01Z</time>
      </trkpt>
      <trkpt lat="42.527689000" lon="-2.434213000">
        <ele>529.70</ele>
        <time>2017-02-18T09:57:02Z</time>
      </trkpt>
      <trkpt lat="42.527691000" lon="-2.434234000">
        <ele>529.80</ele>
        <time>2017-02-18T09:57:03Z</time>
      </trkpt>
      <trkpt lat="42.527693000" lon="-2.434256000">
        <ele>529.90</ele>
        <time>2017-02-18T09:57:04Z</time>
      </trkpt>
      <trkpt lat="42.527698000" lon="-2.434275000">
        <ele>530.20</ele>
        <time>2017-02-18T09:57:05Z</time>
      </trkpt>
      <trkpt lat="42.527702000" lon="-2.434294000">
        <ele>530.40</ele>
        <time>2017-02-18T09:57:06Z</time>
      </trkpt>
      <trkpt lat="42.527711000" lon="-2.434310000">
        <ele>530.60</ele>
        <time>2017-02-18T09:57:07Z</time>
      </trkpt>
      <trkpt lat="42.527719000" lon="-2.434329000">
        <ele>530.70</ele>
        <time>2017-02-18T09:57:08Z</time>
      </trkpt>
      <trkpt lat="42.527730000" lon="-2.434344000">
        <ele>530.90</ele>
        <time>2017-02-18T09:57:09Z</time>
      </trkpt>
      <trkpt lat="42.527736000" lon="-2.434360000">
        <ele>531.10</ele>
        <time>2017-02-18T09:57:10Z</time>
      </trkpt>
      <trkpt lat="42.527735000" lon="-2.434380000">
        <ele>531.20</ele>
        <time>2017-02-18T09:57:11Z</time>
      </trkpt>
      <trkpt lat="42.527741000" lon="-2.434399000">
        <ele>531.30</ele>
        <time>2017-02-18T09:57:12Z</time>
      </trkpt>
      <trkpt lat="42.527746000" lon="-2.434419000">
        <ele>531.60</ele>
        <time>2017-02-18T09:57:13Z</time>
      </trkpt>
      <trkpt lat="42.527748000" lon="-2.434432000">
        <ele>531.80</ele>
        <time>2017-02-18T09:57:14Z</time>
      </trkpt>
      <trkpt lat="42.527751000" lon="-2.434447000">
        <ele>532.00</ele>
        <time>2017-02-18T09:57:15Z</time>
      </trkpt>
      <trkpt lat="42.527764000" lon="-2.434480000">
        <ele>532.30</ele>
        <time>2017-02-18T09:57:17Z</time>
      </trkpt>
      <trkpt lat="42.527770000" lon="-2.434502000">
        <ele>532.50</ele>
        <time>2017-02-18T09:57:18Z</time>
      </trkpt>
      <trkpt lat="42.527777000" lon="-2.434518000">
        <ele>532.70</ele>
        <time>2017-02-18T09:57:19Z</time>
      </trkpt>
      <trkpt lat="42.527785000" lon="-2.434533000">
        <ele>532.90</ele>
        <time>2017-02-18T09:57:20Z</time>
      </trkpt>
      <trkpt lat="42.527793000" lon="-2.434551000">
        <ele>533.20</ele>
        <time>2017-02-18T09:57:21Z</time>
      </trkpt>
      <trkpt lat="42.527799000" lon="-2.434569000">
        <ele>533.50</ele>
        <time>2017-02-18T09:57:22Z</time>
      </trkpt>
      <trkpt lat="42.527804000" lon="-2.434584000">
        <ele>533.80</ele>
        <time>2017-02-18T09:57:23Z</time>
      </trkpt>
      <trkpt lat="42.527808000" lon="-2.434603000">
        <ele>534.00</ele>
        <time>2017-02-18T09:57:24Z</time>
      </trkpt>
      <trkpt lat="42.527809000" lon="-2.434629000">
        <ele>534.20</ele>
        <time>2017-02-18T09:57:25Z</time>
      </trkpt>
      <trkpt lat="42.527815000" lon="-2.434653000">
        <ele>534.30</ele>
        <time>2017-02-18T09:57:26Z</time>
      </trkpt>
      <trkpt lat="42.527821000" lon="-2.434675000">
        <ele>534.40</ele>
        <time>2017-02-18T09:57:27Z</time>
      </trkpt>
      <trkpt lat="42.527826000" lon="-2.434697000">
        <ele>534.50</ele>
        <time>2017-02-18T09:57:28Z</time>
      </trkpt>
      <trkpt lat="42.527831000" lon="-2.434717000">
        <ele>534.70</ele>
        <time>2017-02-18T09:57:29Z</time>
      </trkpt>
      <trkpt lat="42.527837000" lon="-2.434738000">
        <ele>534.80</ele>
        <time>2017-02-18T09:57:30Z</time>
      </trkpt>
      <trkpt lat="42.527847000" lon="-2.434755000">
        <ele>535.00</ele>
        <time>2017-02-18T09:57:31Z</time>
      </trkpt>
      <trkpt lat="42.527854000" lon="-2.434768000">
        <ele>535.20</ele>
        <time>2017-02-18T09:57:32Z</time>
      </trkpt>
      <trkpt lat="42.527863000" lon="-2.434781000">
        <ele>535.50</ele>
        <time>2017-02-18T09:57:33Z</time>
      </trkpt>
      <trkpt lat="42.527871000" lon="-2.434795000">
        <ele>535.70</ele>
        <time>2017-02-18T09:57:34Z</time>
      </trkpt>
      <trkpt lat="42.527876000" lon="-2.434808000">
        <ele>535.80</ele>
        <time>2017-02-18T09:57:35Z</time>
      </trkpt>
      <trkpt lat="42.527879000" lon="-2.434828000">
        <ele>536.00</ele>
        <time>2017-02-18T09:57:36Z</time>
      </trkpt>
      <trkpt lat="42.527881000" lon="-2.434848000">
        <ele>536.00</ele>
        <time>2017-02-18T09:57:37Z</time>
      </trkpt>
      <trkpt lat="42.527883000" lon="-2.434872000">
        <ele>536.10</ele>
        <time>2017-02-18T09:57:38Z</time>
      </trkpt>
      <trkpt lat="42.527886000" lon="-2.434893000">
        <ele>536.20</ele>
        <time>2017-02-18T09:57:39Z</time>
      </trkpt>
      <trkpt lat="42.527893000" lon="-2.434909000">
        <ele>536.20</ele>
        <time>2017-02-18T09:57:40Z</time>
      </trkpt>
      <trkpt lat="42.527896000" lon="-2.434932000">
        <ele>536.40</ele>
        <time>2017-02-18T09:57:41Z</time>
      </trkpt>
      <trkpt lat="42.527899000" lon="-2.434953000">
        <ele>536.60</ele>
        <time>2017-02-18T09:57:42Z</time>
      </trkpt>
      <trkpt lat="42.527905000" lon="-2.434971000">
        <ele>536.70</ele>
        <time>2017-02-18T09:57:43Z</time>
      </trkpt>
      <trkpt lat="42.527908000" lon="-2.434993000">
        <ele>536.80</ele>
        <time>2017-02-18T09:57:44Z</time>
      </trkpt>
      <trkpt lat="42.527911000" lon="-2.435014000">
        <ele>537.00</ele>
        <time>2017-02-18T09:57:45Z</time>
      </trkpt>
      <trkpt lat="42.527913000" lon="-2.435033000">
        <ele>537.10</ele>
        <time>2017-02-18T09:57:46Z</time>
      </trkpt>
      <trkpt lat="42.527921000" lon="-2.435050000">
        <ele>537.10</ele>
        <time>2017-02-18T09:57:47Z</time>
      </trkpt>
      <trkpt lat="42.527928000" lon="-2.435065000">
        <ele>537.00</ele>
        <time>2017-02-18T09:57:48Z</time>
      </trkpt>
      <trkpt lat="42.527934000" lon="-2.435084000">
        <ele>537.10</ele>
        <time>2017-02-18T09:57:49Z</time>
      </trkpt>
      <trkpt lat="42.527941000" lon="-2.435099000">
        <ele>537.10</ele>
        <time>2017-02-18T09:57:50Z</time>
      </trkpt>
      <trkpt lat="42.527947000" lon="-2.435116000">
        <ele>537.10</ele>
        <time>2017-02-18T09:57:51Z</time>
      </trkpt>
      <trkpt lat="42.527948000" lon="-2.435141000">
        <ele>537.10</ele>
        <time>2017-02-18T09:57:52Z</time>
      </trkpt>
      <trkpt lat="42.527948000" lon="-2.435168000">
        <ele>537.10</ele>
        <time>2017-02-18T09:57:53Z</time>
      </trkpt>
      <trkpt lat="42.527949000" lon="-2.435188000">
        <ele>537.10</ele>
        <time>2017-02-18T09:57:54Z</time>
      </trkpt>
      <trkpt lat="42.527950000" lon="-2.435215000">
        <ele>537.00</ele>
        <time>2017-02-18T09:57:55Z</time>
      </trkpt>
      <trkpt lat="42.527953000" lon="-2.435241000">
        <ele>537.00</ele>
        <time>2017-02-18T09:57:56Z</time>
      </trkpt>
      <trkpt lat="42.527952000" lon="-2.435266000">
        <ele>537.00</ele>
        <time>2017-02-18T09:57:57Z</time>
      </trkpt>
      <trkpt lat="42.527951000" lon="-2.435293000">
        <ele>537.00</ele>
        <time>2017-02-18T09:57:58Z</time>
      </trkpt>
      <trkpt lat="42.527947000" lon="-2.435321000">
        <ele>537.00</ele>
        <time>2017-02-18T09:57:59Z</time>
      </trkpt>
      <trkpt lat="42.527950000" lon="-2.435346000">
        <ele>537.00</ele>
        <time>2017-02-18T09:58:00Z</time>
      </trkpt>
      <trkpt lat="42.527945000" lon="-2.435381000">
        <ele>537.00</ele>
        <time>2017-02-18T09:58:01Z</time>
      </trkpt>
      <trkpt lat="42.527944000" lon="-2.435414000">
        <ele>537.00</ele>
        <time>2017-02-18T09:58:02Z</time>
      </trkpt>
      <trkpt lat="42.527948000" lon="-2.435438000">
        <ele>537.00</ele>
        <time>2017-02-18T09:58:03Z</time>
      </trkpt>
      <trkpt lat="42.527953000" lon="-2.435468000">
        <ele>537.00</ele>
        <time>2017-02-18T09:58:04Z</time>
      </trkpt>
      <trkpt lat="42.527952000" lon="-2.435497000">
        <ele>537.00</ele>
        <time>2017-02-18T09:58:05Z</time>
      </trkpt>
      <trkpt lat="42.527945000" lon="-2.435526000">
        <ele>537.00</ele>
        <time>2017-02-18T09:58:06Z</time>
      </trkpt>
      <trkpt lat="42.527949000" lon="-2.435553000">
        <ele>537.00</ele>
        <time>2017-02-18T09:58:07Z</time>
      </trkpt>
      <trkpt lat="42.527947000" lon="-2.435585000">
        <ele>537.00</ele>
        <time>2017-02-18T09:58:08Z</time>
      </trkpt>
      <trkpt lat="42.527947000" lon="-2.435610000">
        <ele>537.00</ele>
        <time>2017-02-18T09:58:09Z</time>
      </trkpt>
      <trkpt lat="42.527945000" lon="-2.435642000">
        <ele>537.00</ele>
        <time>2017-02-18T09:58:10Z</time>
      </trkpt>
      <trkpt lat="42.527945000" lon="-2.435674000">
        <ele>537.00</ele>
        <time>2017-02-18T09:58:11Z</time>
      </trkpt>
      <trkpt lat="42.527949000" lon="-2.435698000">
        <ele>537.10</ele>
        <time>2017-02-18T09:58:12Z</time>
      </trkpt>
      <trkpt lat="42.527956000" lon="-2.435722000">
        <ele>537.10</ele>
        <time>2017-02-18T09:58:13Z</time>
      </trkpt>
      <trkpt lat="42.527963000" lon="-2.435750000">
        <ele>537.10</ele>
        <time>2017-02-18T09:58:14Z</time>
      </trkpt>
      <trkpt lat="42.527975000" lon="-2.435773000">
        <ele>537.10</ele>
        <time>2017-02-18T09:58:15Z</time>
      </trkpt>
      <trkpt lat="42.527983000" lon="-2.435801000">
        <ele>537.10</ele>
        <time>2017-02-18T09:58:16Z</time>
      </trkpt>
      <trkpt lat="42.527995000" lon="-2.435829000">
        <ele>537.00</ele>
        <time>2017-02-18T09:58:17Z</time>
      </trkpt>
      <trkpt lat="42.528023000" lon="-2.435892000">
        <ele>536.90</ele>
        <time>2017-02-18T09:58:19Z</time>
      </trkpt>
      <trkpt lat="42.528035000" lon="-2.435930000">
        <ele>536.90</ele>
        <time>2017-02-18T09:58:20Z</time>
      </trkpt>
      <trkpt lat="42.528054000" lon="-2.435969000">
        <ele>536.90</ele>
        <time>2017-02-18T09:58:21Z</time>
      </trkpt>
      <trkpt lat="42.528072000" lon="-2.436007000">
        <ele>536.90</ele>
        <time>2017-02-18T09:58:22Z</time>
      </trkpt>
      <trkpt lat="42.528095000" lon="-2.436044000">
        <ele>536.90</ele>
        <time>2017-02-18T09:58:23Z</time>
      </trkpt>
      <trkpt lat="42.528124000" lon="-2.436074000">
        <ele>536.90</ele>
        <time>2017-02-18T09:58:24Z</time>
      </trkpt>
      <trkpt lat="42.528149000" lon="-2.436109000">
        <ele>536.80</ele>
        <time>2017-02-18T09:58:25Z</time>
      </trkpt>
      <trkpt lat="42.528177000" lon="-2.436146000">
        <ele>536.70</ele>
        <time>2017-02-18T09:58:26Z</time>
      </trkpt>
      <trkpt lat="42.528202000" lon="-2.436182000">
        <ele>536.60</ele>
        <time>2017-02-18T09:58:27Z</time>
      </trkpt>
      <trkpt lat="42.528221000" lon="-2.436223000">
        <ele>536.60</ele>
        <time>2017-02-18T09:58:28Z</time>
      </trkpt>
      <trkpt lat="42.528241000" lon="-2.436265000">
        <ele>536.50</ele>
        <time>2017-02-18T09:58:29Z</time>
      </trkpt>
      <trkpt lat="42.528260000" lon="-2.436303000">
        <ele>536.50</ele>
        <time>2017-02-18T09:58:30Z</time>
      </trkpt>
      <trkpt lat="42.528278000" lon="-2.436338000">
        <ele>536.50</ele>
        <time>2017-02-18T09:58:31Z</time>
      </trkpt>
      <trkpt lat="42.528297000" lon="-2.436370000">
        <ele>536.50</ele>
        <time>2017-02-18T09:58:32Z</time>
      </trkpt>
      <trkpt lat="42.528308000" lon="-2.436407000">
        <ele>536.40</ele>
        <time>2017-02-18T09:58:33Z</time>
      </trkpt>
      <trkpt lat="42.528323000" lon="-2.436440000">
        <ele>536.40</ele>
        <time>2017-02-18T09:58:34Z</time>
      </trkpt>
      <trkpt lat="42.528338000" lon="-2.436469000">
        <ele>536.50</ele>
        <time>2017-02-18T09:58:35Z</time>
      </trkpt>
      <trkpt lat="42.528352000" lon="-2.436497000">
        <ele>536.50</ele>
        <time>2017-02-18T09:58:36Z</time>
      </trkpt>
      <trkpt lat="42.528365000" lon="-2.436526000">
        <ele>536.60</ele>
        <time>2017-02-18T09:58:37Z</time>
      </trkpt>
      <trkpt lat="42.528380000" lon="-2.436552000">
        <ele>536.70</ele>
        <time>2017-02-18T09:58:38Z</time>
      </trkpt>
      <trkpt lat="42.528396000" lon="-2.436580000">
        <ele>536.80</ele>
        <time>2017-02-18T09:58:39Z</time>
      </trkpt>
      <trkpt lat="42.528413000" lon="-2.436609000">
        <ele>536.80</ele>
        <time>2017-02-18T09:58:40Z</time>
      </trkpt>
      <trkpt lat="42.528426000" lon="-2.436645000">
        <ele>536.90</ele>
        <time>2017-02-18T09:58:41Z</time>
      </trkpt>
      <trkpt lat="42.528442000" lon="-2.436672000">
        <ele>537.00</ele>
        <time>2017-02-18T09:58:42Z</time>
      </trkpt>
      <trkpt lat="42.528454000" lon="-2.436697000">
        <ele>537.20</ele>
        <time>2017-02-18T09:58:43Z</time>
      </trkpt>
      <trkpt lat="42.528467000" lon="-2.436720000">
        <ele>537.40</ele>
        <time>2017-02-18T09:58:44Z</time>
      </trkpt>
      <trkpt lat="42.528472000" lon="-2.436740000">
        <ele>537.60</ele>
        <time>2017-02-18T09:58:45Z</time>
      </trkpt>
      <trkpt lat="42.528478000" lon="-2.436768000">
        <ele>537.80</ele>
        <time>2017-02-18T09:58:46Z</time>
      </trkpt>
      <trkpt lat="42.528481000" lon="-2.436790000">
        <ele>538.00</ele>
        <time>2017-02-18T09:58:47Z</time>
      </trkpt>
      <trkpt lat="42.528486000" lon="-2.436808000">
        <ele>538.10</ele>
        <time>2017-02-18T09:58:48Z</time>
      </trkpt>
      <trkpt lat="42.528488000" lon="-2.436824000">
        <ele>538.30</ele>
        <time>2017-02-18T09:58:49Z</time>
      </trkpt>
      <trkpt lat="42.528485000" lon="-2.436836000">
        <ele>538.30</ele>
        <time>2017-02-18T09:58:50Z</time>
      </trkpt>
      <trkpt lat="42.528481000" lon="-2.436841000">
        <ele>538.40</ele>
        <time>2017-02-18T09:58:51Z</time>
      </trkpt>
      <trkpt lat="42.528484000" lon="-2.436843000">
        <ele>538.40</ele>
        <time>2017-02-18T09:58:52Z</time>
      </trkpt>
      <trkpt lat="42.528485000" lon="-2.436842000">
        <ele>538.50</ele>
        <time>2017-02-18T09:58:53Z</time>
      </trkpt>
      <trkpt lat="42.528486000" lon="-2.436838000">
        <ele>538.50</ele>
        <time>2017-02-18T09:58:54Z</time>
      </trkpt>
      <trkpt lat="42.528489000" lon="-2.436838000">
        <ele>538.60</ele>
        <time>2017-02-18T09:58:55Z</time>
      </trkpt>
      <trkpt lat="42.528487000" lon="-2.436843000">
        <ele>538.70</ele>
        <time>2017-02-18T09:58:56Z</time>
      </trkpt>
      <trkpt lat="42.528482000" lon="-2.436849000">
        <ele>538.70</ele>
        <time>2017-02-18T09:58:57Z</time>
      </trkpt>
      <trkpt lat="42.528480000" lon="-2.436855000">
        <ele>538.70</ele>
        <time>2017-02-18T09:58:58Z</time>
      </trkpt>
      <trkpt lat="42.528481000" lon="-2.436854000">
        <ele>538.80</ele>
        <time>2017-02-18T09:58:59Z</time>
      </trkpt>
      <trkpt lat="42.528482000" lon="-2.436854000">
        <ele>538.80</ele>
        <time>2017-02-18T09:59:00Z</time>
      </trkpt>
      <trkpt lat="42.528478000" lon="-2.436854000">
        <ele>538.80</ele>
        <time>2017-02-18T09:59:01Z</time>
      </trkpt>
      <trkpt lat="42.528475000" lon="-2.436853000">
        <ele>538.80</ele>
        <time>2017-02-18T09:59:02Z</time>
      </trkpt>
      <trkpt lat="42.528475000" lon="-2.436852000">
        <ele>538.80</ele>
        <time>2017-02-18T09:59:03Z</time>
      </trkpt>
      <trkpt lat="42.528477000" lon="-2.436851000">
        <ele>538.80</ele>
        <time>2017-02-18T09:59:04Z</time>
      </trkpt>
      <trkpt lat="42.528476000" lon="-2.436851000">
        <ele>538.80</ele>
        <time>2017-02-18T09:59:05Z</time>
      </trkpt>
      <trkpt lat="42.528474000" lon="-2.436850000">
        <ele>538.70</ele>
        <time>2017-02-18T09:59:06Z</time>
      </trkpt>
      <trkpt lat="42.528474000" lon="-2.436848000">
        <ele>538.70</ele>
        <time>2017-02-18T09:59:07Z</time>
      </trkpt>
      <trkpt lat="42.528472000" lon="-2.436852000">
        <ele>538.70</ele>
        <time>2017-02-18T09:59:08Z</time>
      </trkpt>
      <trkpt lat="42.528470000" lon="-2.436853000">
        <ele>538.70</ele>
        <time>2017-02-18T09:59:09Z</time>
      </trkpt>
      <trkpt lat="42.528469000" lon="-2.436853000">
        <ele>538.70</ele>
        <time>2017-02-18T09:59:10Z</time>
      </trkpt>
      <trkpt lat="42.528469000" lon="-2.436855000">
        <ele>538.70</ele>
        <time>2017-02-18T09:59:11Z</time>
      </trkpt>
      <trkpt lat="42.528469000" lon="-2.436855000">
        <ele>538.70</ele>
        <time>2017-02-18T09:59:12Z</time>
      </trkpt>
      <trkpt lat="42.528470000" lon="-2.436855000">
        <ele>538.70</ele>
        <time>2017-02-18T09:59:13Z</time>
      </trkpt>
      <trkpt lat="42.528471000" lon="-2.436853000">
        <ele>538.70</ele>
        <time>2017-02-18T09:59:14Z</time>
      </trkpt>
      <trkpt lat="42.528475000" lon="-2.436855000">
        <ele>538.80</ele>
        <time>2017-02-18T09:59:15Z</time>
      </trkpt>
      <trkpt lat="42.528471000" lon="-2.436854000">
        <ele>538.90</ele>
        <time>2017-02-18T09:59:16Z</time>
      </trkpt>
      <trkpt lat="42.528471000" lon="-2.436852000">
        <ele>538.90</ele>
        <time>2017-02-18T09:59:17Z</time>
      </trkpt>
      <trkpt lat="42.528471000" lon="-2.436851000">
        <ele>538.90</ele>
        <time>2017-02-18T09:59:18Z</time>
      </trkpt>
      <trkpt lat="42.528468000" lon="-2.436851000">
        <ele>538.90</ele>
        <time>2017-02-18T09:59:19Z</time>
      </trkpt>
      <trkpt lat="42.528456000" lon="-2.436849000">
        <ele>538.90</ele>
        <time>2017-02-18T09:59:21Z</time>
      </trkpt>
      <trkpt lat="42.528453000" lon="-2.436847000">
        <ele>538.90</ele>
        <time>2017-02-18T09:59:22Z</time>
      </trkpt>
      <trkpt lat="42.528450000" lon="-2.436853000">
        <ele>538.90</ele>
        <time>2017-02-18T09:59:23Z</time>
      </trkpt>
      <trkpt lat="42.528448000" lon="-2.436858000">
        <ele>538.90</ele>
        <time>2017-02-18T09:59:24Z</time>
      </trkpt>
      <trkpt lat="42.528444000" lon="-2.436859000">
        <ele>538.90</ele>
        <time>2017-02-18T09:59:25Z</time>
      </trkpt>
      <trkpt lat="42.528442000" lon="-2.436856000">
        <ele>538.90</ele>
        <time>2017-02-18T09:59:26Z</time>
      </trkpt>
      <trkpt lat="42.528445000" lon="-2.436850000">
        <ele>538.90</ele>
        <time>2017-02-18T09:59:27Z</time>
      </trkpt>
      <trkpt lat="42.528444000" lon="-2.436849000">
        <ele>538.90</ele>
        <time>2017-02-18T09:59:28Z</time>
      </trkpt>
      <trkpt lat="42.528444000" lon="-2.436846000">
        <ele>538.90</ele>
        <time>2017-02-18T09:59:29Z</time>
      </trkpt>
      <trkpt lat="42.528443000" lon="-2.436851000">
        <ele>538.90</ele>
        <time>2017-02-18T09:59:30Z</time>
      </trkpt>
      <trkpt lat="42.528444000" lon="-2.436853000">
        <ele>538.90</ele>
        <time>2017-02-18T09:59:31Z</time>
      </trkpt>
      <trkpt lat="42.528446000" lon="-2.436852000">
        <ele>538.90</ele>
        <time>2017-02-18T09:59:32Z</time>
      </trkpt>
      <trkpt lat="42.528448000" lon="-2.436851000">
        <ele>538.90</ele>
        <time>2017-02-18T09:59:33Z</time>
      </trkpt>
      <trkpt lat="42.528451000" lon="-2.436851000">
        <ele>538.90</ele>
        <time>2017-02-18T09:59:34Z</time>
      </trkpt>
      <trkpt lat="42.528451000" lon="-2.436853000">
        <ele>539.00</ele>
        <time>2017-02-18T09:59:35Z</time>
      </trkpt>
      <trkpt lat="42.528448000" lon="-2.436858000">
        <ele>539.00</ele>
        <time>2017-02-18T09:59:36Z</time>
      </trkpt>
      <trkpt lat="42.528429000" lon="-2.436864000">
        <ele>539.10</ele>
        <time>2017-02-18T09:59:37Z</time>
      </trkpt>
      <trkpt lat="42.528416000" lon="-2.436857000">
        <ele>539.10</ele>
        <time>2017-02-18T09:59:38Z</time>
      </trkpt>
      <trkpt lat="42.528409000" lon="-2.436845000">
        <ele>539.20</ele>
        <time>2017-02-18T09:59:39Z</time>
      </trkpt>
      <trkpt lat="42.528407000" lon="-2.436844000">
        <ele>539.30</ele>
        <time>2017-02-18T09:59:40Z</time>
      </trkpt>
      <trkpt lat="42.528405000" lon="-2.436842000">
        <ele>539.30</ele>
        <time>2017-02-18T09:59:41Z</time>
      </trkpt>
      <trkpt lat="42.528404000" lon="-2.436842000">
        <ele>539.30</ele>
        <time>2017-02-18T09:59:42Z</time>
      </trkpt>
      <trkpt lat="42.528404000" lon="-2.436841000">
        <ele>539.40</ele>
        <time>2017-02-18T09:59:43Z</time>
      </trkpt>
      <trkpt lat="42.528404000" lon="-2.436840000">
        <ele>539.40</ele>
        <time>2017-02-18T09:59:44Z</time>
      </trkpt>
      <trkpt lat="42.528403000" lon="-2.436841000">
        <ele>539.40</ele>
        <time>2017-02-18T09:59:45Z</time>
      </trkpt>
      <trkpt lat="42.528401000" lon="-2.436842000">
        <ele>539.50</ele>
        <time>2017-02-18T09:59:46Z</time>
      </trkpt>
      <trkpt lat="42.528401000" lon="-2.436841000">
        <ele>539.50</ele>
        <time>2017-02-18T09:59:47Z</time>
      </trkpt>
      <trkpt lat="42.528402000" lon="-2.436838000">
        <ele>539.50</ele>
        <time>2017-02-18T09:59:48Z</time>
      </trkpt>
      <trkpt lat="42.528400000" lon="-2.436834000">
        <ele>539.50</ele>
        <time>2017-02-18T09:59:49Z</time>
      </trkpt>
      <trkpt lat="42.528398000" lon="-2.436831000">
        <ele>539.50</ele>
        <time>2017-02-18T09:59:50Z</time>
      </trkpt>
      <trkpt lat="42.528399000" lon="-2.436827000">
        <ele>539.50</ele>
        <time>2017-02-18T09:59:51Z</time>
      </trkpt>
      <trkpt lat="42.528398000" lon="-2.436827000">
        <ele>539.40</ele>
        <time>2017-02-18T09:59:52Z</time>
      </trkpt>
      <trkpt lat="42.528400000" lon="-2.436830000">
        <ele>539.40</ele>
        <time>2017-02-18T09:59:53Z</time>
      </trkpt>
      <trkpt lat="42.528402000" lon="-2.436830000">
        <ele>539.40</ele>
        <time>2017-02-18T09:59:54Z</time>
      </trkpt>
      <trkpt lat="42.528405000" lon="-2.436829000">
        <ele>539.40</ele>
        <time>2017-02-18T09:59:55Z</time>
      </trkpt>
      <trkpt lat="42.528408000" lon="-2.436830000">
        <ele>539.40</ele>
        <time>2017-02-18T09:59:56Z</time>
      </trkpt>
      <trkpt lat="42.528409000" lon="-2.436829000">
        <ele>539.50</ele>
        <time>2017-02-18T09:59:57Z</time>
      </trkpt>
      <trkpt lat="42.528409000" lon="-2.436829000">
        <ele>539.50</ele>
        <time>2017-02-18T09:59:58Z</time>
      </trkpt>
      <trkpt lat="42.528410000" lon="-2.436830000">
        <ele>539.50</ele>
        <time>2017-02-18T09:59:59Z</time>
      </trkpt>
      <trkpt lat="42.528411000" lon="-2.436832000">
        <ele>539.50</ele>
        <time>2017-02-18T10:00:00Z</time>
      </trkpt>
      <trkpt lat="42.528408000" lon="-2.436837000">
        <ele>539.40</ele>
        <time>2017-02-18T10:00:01Z</time>
      </trkpt>
      <trkpt lat="42.528409000" lon="-2.436840000">
        <ele>539.30</ele>
        <time>2017-02-18T10:00:02Z</time>
      </trkpt>
      <trkpt lat="42.528406000" lon="-2.436841000">
        <ele>539.30</ele>
        <time>2017-02-18T10:00:03Z</time>
      </trkpt>
      <trkpt lat="42.528404000" lon="-2.436842000">
        <ele>539.30</ele>
        <time>2017-02-18T10:00:04Z</time>
      </trkpt>
      <trkpt lat="42.528403000" lon="-2.436842000">
        <ele>539.20</ele>
        <time>2017-02-18T10:00:05Z</time>
      </trkpt>
      <trkpt lat="42.528401000" lon="-2.436844000">
        <ele>539.20</ele>
        <time>2017-02-18T10:00:06Z</time>
      </trkpt>
      <trkpt lat="42.528401000" lon="-2.436844000">
        <ele>539.20</ele>
        <time>2017-02-18T10:00:07Z</time>
      </trkpt>
      <trkpt lat="42.528401000" lon="-2.436847000">
        <ele>539.20</ele>
        <time>2017-02-18T10:00:08Z</time>
      </trkpt>
      <trkpt lat="42.528401000" lon="-2.436847000">
        <ele>539.20</ele>
        <time>2017-02-18T10:00:09Z</time>
      </trkpt>
      <trkpt lat="42.528398000" lon="-2.436848000">
        <ele>539.20</ele>
        <time>2017-02-18T10:00:10Z</time>
      </trkpt>
      <trkpt lat="42.528398000" lon="-2.436849000">
        <ele>539.30</ele>
        <time>2017-02-18T10:00:11Z</time>
      </trkpt>
      <trkpt lat="42.528400000" lon="-2.436847000">
        <ele>539.30</ele>
        <time>2017-02-18T10:00:12Z</time>
      </trkpt>
      <trkpt lat="42.528402000" lon="-2.436847000">
        <ele>539.30</ele>
        <time>2017-02-18T10:00:13Z</time>
      </trkpt>
      <trkpt lat="42.528403000" lon="-2.436845000">
        <ele>539.30</ele>
        <time>2017-02-18T10:00:14Z</time>
      </trkpt>
      <trkpt lat="42.528403000" lon="-2.436844000">
        <ele>539.30</ele>
        <time>2017-02-18T10:00:15Z</time>
      </trkpt>
      <trkpt lat="42.528403000" lon="-2.436844000">
        <ele>539.30</ele>
        <time>2017-02-18T10:00:16Z</time>
      </trkpt>
      <trkpt lat="42.528402000" lon="-2.436843000">
        <ele>539.30</ele>
        <time>2017-02-18T10:00:17Z</time>
      </trkpt>
      <trkpt lat="42.528404000" lon="-2.436847000">
        <ele>539.30</ele>
        <time>2017-02-18T10:00:18Z</time>
      </trkpt>
      <trkpt lat="42.528407000" lon="-2.436845000">
        <ele>539.20</ele>
        <time>2017-02-18T10:00:19Z</time>
      </trkpt>
      <trkpt lat="42.528408000" lon="-2.436844000">
        <ele>539.20</ele>
        <time>2017-02-18T10:00:20Z</time>
      </trkpt>
      <trkpt lat="42.528405000" lon="-2.436845000">
        <ele>539.10</ele>
        <time>2017-02-18T10:00:21Z</time>
      </trkpt>
      <trkpt lat="42.528402000" lon="-2.436838000">
        <ele>539.10</ele>
        <time>2017-02-18T10:00:23Z</time>
      </trkpt>
      <trkpt lat="42.528406000" lon="-2.436842000">
        <ele>539.10</ele>
        <time>2017-02-18T10:00:24Z</time>
      </trkpt>
      <trkpt lat="42.528407000" lon="-2.436845000">
        <ele>539.10</ele>
        <time>2017-02-18T10:00:25Z</time>
      </trkpt>
      <trkpt lat="42.528407000" lon="-2.436846000">
        <ele>539.20</ele>
        <time>2017-02-18T10:00:26Z</time>
      </trkpt>
      <trkpt lat="42.528409000" lon="-2.436846000">
        <ele>539.10</ele>
        <time>2017-02-18T10:00:27Z</time>
      </trkpt>
      <trkpt lat="42.528412000" lon="-2.436843000">
        <ele>539.10</ele>
        <time>2017-02-18T10:00:28Z</time>
      </trkpt>
      <trkpt lat="42.528413000" lon="-2.436837000">
        <ele>539.10</ele>
        <time>2017-02-18T10:00:29Z</time>
      </trkpt>
      <trkpt lat="42.528412000" lon="-2.436832000">
        <ele>539.10</ele>
        <time>2017-02-18T10:00:30Z</time>
      </trkpt>
      <trkpt lat="42.528413000" lon="-2.436830000">
        <ele>539.00</ele>
        <time>2017-02-18T10:00:31Z</time>
      </trkpt>
      <trkpt lat="42.528413000" lon="-2.436830000">
        <ele>538.90</ele>
        <time>2017-02-18T10:00:32Z</time>
      </trkpt>
      <trkpt lat="42.528411000" lon="-2.436824000">
        <ele>538.90</ele>
        <time>2017-02-18T10:00:33Z</time>
      </trkpt>
      <trkpt lat="42.528409000" lon="-2.436820000">
        <ele>538.90</ele>
        <time>2017-02-18T10:00:34Z</time>
      </trkpt>
      <trkpt lat="42.528408000" lon="-2.436819000">
        <ele>538.80</ele>
        <time>2017-02-18T10:00:35Z</time>
      </trkpt>
      <trkpt lat="42.528404000" lon="-2.436817000">
        <ele>538.80</ele>
        <time>2017-02-18T10:00:36Z</time>
      </trkpt>
      <trkpt lat="42.528405000" lon="-2.436819000">
        <ele>538.90</ele>
        <time>2017-02-18T10:00:37Z</time>
      </trkpt>
      <trkpt lat="42.528407000" lon="-2.436824000">
        <ele>538.90</ele>
        <time>2017-02-18T10:00:38Z</time>
      </trkpt>
      <trkpt lat="42.528406000" lon="-2.436826000">
        <ele>539.00</ele>
        <time>2017-02-18T10:00:39Z</time>
      </trkpt>
      <trkpt lat="42.528404000" lon="-2.436828000">
        <ele>539.10</ele>
        <time>2017-02-18T10:00:40Z</time>
      </trkpt>
      <trkpt lat="42.528403000" lon="-2.436831000">
        <ele>539.10</ele>
        <time>2017-02-18T10:00:41Z</time>
      </trkpt>
      <trkpt lat="42.528398000" lon="-2.436834000">
        <ele>539.20</ele>
        <time>2017-02-18T10:00:42Z</time>
      </trkpt>
      <trkpt lat="42.528396000" lon="-2.436835000">
        <ele>539.20</ele>
        <time>2017-02-18T10:00:43Z</time>
      </trkpt>
      <trkpt lat="42.528392000" lon="-2.436839000">
        <ele>539.20</ele>
        <time>2017-02-18T10:00:44Z</time>
      </trkpt>
      <trkpt lat="42.528388000" lon="-2.436840000">
        <ele>539.20</ele>
        <time>2017-02-18T10:00:45Z</time>
      </trkpt>
      <trkpt lat="42.528386000" lon="-2.436843000">
        <ele>539.20</ele>
        <time>2017-02-18T10:00:46Z</time>
      </trkpt>
      <trkpt lat="42.528385000" lon="-2.436844000">
        <ele>539.40</ele>
        <time>2017-02-18T10:00:47Z</time>
      </trkpt>
      <trkpt lat="42.528386000" lon="-2.436844000">
        <ele>539.50</ele>
        <time>2017-02-18T10:00:48Z</time>
      </trkpt>
      <trkpt lat="42.528389000" lon="-2.436846000">
        <ele>539.40</ele>
        <time>2017-02-18T10:00:49Z</time>
      </trkpt>
      <trkpt lat="42.528393000" lon="-2.436847000">
        <ele>539.30</ele>
        <time>2017-02-18T10:00:50Z</time>
      </trkpt>
      <trkpt lat="42.528396000" lon="-2.436851000">
        <ele>539.40</ele>
        <time>2017-02-18T10:00:51Z</time>
      </trkpt>
      <trkpt lat="42.528398000" lon="-2.436849000">
        <ele>539.50</ele>
        <time>2017-02-18T10:00:52Z</time>
      </trkpt>
      <trkpt lat="42.528397000" lon="-2.436851000">
        <ele>539.40</ele>
        <time>2017-02-18T10:00:53Z</time>
      </trkpt>
      <trkpt lat="42.528396000" lon="-2.436853000">
        <ele>539.30</ele>
        <time>2017-02-18T10:00:54Z</time>
      </trkpt>
      <trkpt lat="42.528392000" lon="-2.436852000">
        <ele>539.30</ele>
        <time>2017-02-18T10:00:55Z</time>
      </trkpt>
      <trkpt lat="42.528395000" lon="-2.436846000">
        <ele>539.20</ele>
        <time>2017-02-18T10:00:56Z</time>
      </trkpt>
      <trkpt lat="42.528397000" lon="-2.436843000">
        <ele>539.20</ele>
        <time>2017-02-18T10:00:57Z</time>
      </trkpt>
      <trkpt lat="42.528397000" lon="-2.436841000">
        <ele>539.20</ele>
        <time>2017-02-18T10:00:58Z</time>
      </trkpt>
      <trkpt lat="42.528397000" lon="-2.436842000">
        <ele>539.20</ele>
        <time>2017-02-18T10:00:59Z</time>
      </trkpt>
      <trkpt lat="42.528397000" lon="-2.436840000">
        <ele>539.10</ele>
        <time>2017-02-18T10:01:00Z</time>
      </trkpt>
      <trkpt lat="42.528392000" lon="-2.436843000">
        <ele>539.10</ele>
        <time>2017-02-18T10:01:01Z</time>
      </trkpt>
      <trkpt lat="42.528390000" lon="-2.436847000">
        <ele>539.10</ele>
        <time>2017-02-18T10:01:02Z</time>
      </trkpt>
      <trkpt lat="42.528388000" lon="-2.436851000">
        <ele>539.30</ele>
        <time>2017-02-18T10:01:03Z</time>
      </trkpt>
      <trkpt lat="42.528385000" lon="-2.436853000">
        <ele>539.30</ele>
        <time>2017-02-18T10:01:04Z</time>
      </trkpt>
      <trkpt lat="42.528382000" lon="-2.436853000">
        <ele>539.30</ele>
        <time>2017-02-18T10:01:05Z</time>
      </trkpt>
      <trkpt lat="42.528383000" lon="-2.436851000">
        <ele>539.20</ele>
        <time>2017-02-18T10:01:06Z</time>
      </trkpt>
      <trkpt lat="42.528382000" lon="-2.436849000">
        <ele>539.20</ele>
        <time>2017-02-18T10:01:07Z</time>
      </trkpt>
      <trkpt lat="42.528387000" lon="-2.436850000">
        <ele>539.20</ele>
        <time>2017-02-18T10:01:08Z</time>
      </trkpt>
      <trkpt lat="42.528386000" lon="-2.436857000">
        <ele>539.20</ele>
        <time>2017-02-18T10:01:09Z</time>
      </trkpt>
      <trkpt lat="42.528382000" lon="-2.436860000">
        <ele>539.10</ele>
        <time>2017-02-18T10:01:10Z</time>
      </trkpt>
      <trkpt lat="42.528385000" lon="-2.436859000">
        <ele>539.10</ele>
        <time>2017-02-18T10:01:11Z</time>
      </trkpt>
      <trkpt lat="42.528389000" lon="-2.436852000">
        <ele>539.10</ele>
        <time>2017-02-18T10:01:12Z</time>
      </trkpt>
      <trkpt lat="42.528390000" lon="-2.436850000">
        <ele>539.30</ele>
        <time>2017-02-18T10:01:13Z</time>
      </trkpt>
      <trkpt lat="42.528391000" lon="-2.436850000">
        <ele>539.30</ele>
        <time>2017-02-18T10:01:14Z</time>
      </trkpt>
      <trkpt lat="42.528392000" lon="-2.436852000">
        <ele>539.40</ele>
        <time>2017-02-18T10:01:15Z</time>
      </trkpt>
      <trkpt lat="42.528393000" lon="-2.436853000">
        <ele>539.50</ele>
        <time>2017-02-18T10:01:16Z</time>
      </trkpt>
      <trkpt lat="42.528397000" lon="-2.436854000">
        <ele>539.50</ele>
        <time>2017-02-18T10:01:17Z</time>
      </trkpt>
      <trkpt lat="42.528400000" lon="-2.436853000">
        <ele>539.50</ele>
        <time>2017-02-18T10:01:18Z</time>
      </trkpt>
      <trkpt lat="42.528397000" lon="-2.436856000">
        <ele>539.60</ele>
        <time>2017-02-18T10:01:19Z</time>
      </trkpt>
      <trkpt lat="42.528400000" lon="-2.436863000">
        <ele>539.60</ele>
        <time>2017-02-18T10:01:20Z</time>
      </trkpt>
      <trkpt lat="42.528396000" lon="-2.436862000">
        <ele>539.50</ele>
        <time>2017-02-18T10:01:21Z</time>
      </trkpt>
      <trkpt lat="42.528397000" lon="-2.436861000">
        <ele>539.40</ele>
        <time>2017-02-18T10:01:22Z</time>
      </trkpt>
      <trkpt lat="42.528395000" lon="-2.436862000">
        <ele>539.40</ele>
        <time>2017-02-18T10:01:23Z</time>
      </trkpt>
      <trkpt lat="42.528395000" lon="-2.436867000">
        <ele>539.60</ele>
        <time>2017-02-18T10:01:25Z</time>
      </trkpt>
      <trkpt lat="42.528398000" lon="-2.436865000">
        <ele>539.70</ele>
        <time>2017-02-18T10:01:26Z</time>
      </trkpt>
      <trkpt lat="42.528398000" lon="-2.436866000">
        <ele>539.70</ele>
        <time>2017-02-18T10:01:27Z</time>
      </trkpt>
      <trkpt lat="42.528400000" lon="-2.436866000">
        <ele>539.80</ele>
        <time>2017-02-18T10:01:28Z</time>
      </trkpt>
      <trkpt lat="42.528401000" lon="-2.436865000">
        <ele>539.70</ele>
        <time>2017-02-18T10:01:29Z</time>
      </trkpt>
      <trkpt lat="42.528400000" lon="-2.436862000">
        <ele>539.70</ele>
        <time>2017-02-18T10:01:30Z</time>
      </trkpt>
      <trkpt lat="42.528402000" lon="-2.436862000">
        <ele>539.70</ele>
        <time>2017-02-18T10:01:31Z</time>
      </trkpt>
      <trkpt lat="42.528403000" lon="-2.436860000">
        <ele>539.70</ele>
        <time>2017-02-18T10:01:32Z</time>
      </trkpt>
      <trkpt lat="42.528402000" lon="-2.436861000">
        <ele>539.50</ele>
        <time>2017-02-18T10:01:33Z</time>
      </trkpt>
      <trkpt lat="42.528402000" lon="-2.436861000">
        <ele>539.40</ele>
        <time>2017-02-18T10:01:34Z</time>
      </trkpt>
      <trkpt lat="42.528401000" lon="-2.436859000">
        <ele>539.50</ele>
        <time>2017-02-18T10:01:35Z</time>
      </trkpt>
      <trkpt lat="42.528402000" lon="-2.436857000">
        <ele>539.60</ele>
        <time>2017-02-18T10:01:36Z</time>
      </trkpt>
      <trkpt lat="42.528402000" lon="-2.436856000">
        <ele>539.60</ele>
        <time>2017-02-18T10:01:37Z</time>
      </trkpt>
      <trkpt lat="42.528401000" lon="-2.436853000">
        <ele>539.60</ele>
        <time>2017-02-18T10:01:38Z</time>
      </trkpt>
      <trkpt lat="42.528403000" lon="-2.436852000">
        <ele>539.60</ele>
        <time>2017-02-18T10:01:39Z</time>
      </trkpt>
      <trkpt lat="42.528401000" lon="-2.436852000">
        <ele>539.70</ele>
        <time>2017-02-18T10:01:40Z</time>
      </trkpt>
      <trkpt lat="42.528402000" lon="-2.436851000">
        <ele>539.50</ele>
        <time>2017-02-18T10:01:41Z</time>
      </trkpt>
      <trkpt lat="42.528403000" lon="-2.436849000">
        <ele>539.50</ele>
        <time>2017-02-18T10:01:42Z</time>
      </trkpt>
      <trkpt lat="42.528403000" lon="-2.436847000">
        <ele>539.40</ele>
        <time>2017-02-18T10:01:43Z</time>
      </trkpt>
      <trkpt lat="42.528404000" lon="-2.436842000">
        <ele>539.30</ele>
        <time>2017-02-18T10:01:44Z</time>
      </trkpt>
      <trkpt lat="42.528409000" lon="-2.436841000">
        <ele>539.40</ele>
        <time>2017-02-18T10:01:45Z</time>
      </trkpt>
      <trkpt lat="42.528410000" lon="-2.436838000">
        <ele>539.40</ele>
        <time>2017-02-18T10:01:46Z</time>
      </trkpt>
      <trkpt lat="42.528413000" lon="-2.436836000">
        <ele>539.50</ele>
        <time>2017-02-18T10:01:47Z</time>
      </trkpt>
      <trkpt lat="42.528418000" lon="-2.436836000">
        <ele>539.50</ele>
        <time>2017-02-18T10:01:48Z</time>
      </trkpt>
      <trkpt lat="42.528415000" lon="-2.436833000">
        <ele>539.60</ele>
        <time>2017-02-18T10:01:49Z</time>
      </trkpt>
      <trkpt lat="42.528415000" lon="-2.436834000">
        <ele>539.60</ele>
        <time>2017-02-18T10:01:50Z</time>
      </trkpt>
      <trkpt lat="42.528413000" lon="-2.436834000">
        <ele>539.50</ele>
        <time>2017-02-18T10:01:51Z</time>
      </trkpt>
      <trkpt lat="42.528412000" lon="-2.436830000">
        <ele>539.40</ele>
        <time>2017-02-18T10:01:52Z</time>
      </trkpt>
      <trkpt lat="42.528409000" lon="-2.436835000">
        <ele>539.40</ele>
        <time>2017-02-18T10:01:53Z</time>
      </trkpt>
      <trkpt lat="42.528405000" lon="-2.436837000">
        <ele>539.30</ele>
        <time>2017-02-18T10:01:54Z</time>
      </trkpt>
      <trkpt lat="42.528403000" lon="-2.436837000">
        <ele>539.30</ele>
        <time>2017-02-18T10:01:55Z</time>
      </trkpt>
      <trkpt lat="42.528402000" lon="-2.436835000">
        <ele>539.30</ele>
        <time>2017-02-18T10:01:56Z</time>
      </trkpt>
      <trkpt lat="42.528400000" lon="-2.436833000">
        <ele>539.40</ele>
        <time>2017-02-18T10:01:57Z</time>
      </trkpt>
      <trkpt lat="42.528400000" lon="-2.436835000">
        <ele>539.50</ele>
        <time>2017-02-18T10:01:58Z</time>
      </trkpt>
      <trkpt lat="42.528402000" lon="-2.436834000">
        <ele>539.60</ele>
        <time>2017-02-18T10:01:59Z</time>
      </trkpt>
      <trkpt lat="42.528401000" lon="-2.436833000">
        <ele>539.70</ele>
        <time>2017-02-18T10:02:00Z</time>
      </trkpt>
      <trkpt lat="42.528401000" lon="-2.436834000">
        <ele>539.80</ele>
        <time>2017-02-18T10:02:01Z</time>
      </trkpt>
      <trkpt lat="42.528401000" lon="-2.436836000">
        <ele>539.80</ele>
        <time>2017-02-18T10:02:02Z</time>
      </trkpt>
      <trkpt lat="42.528399000" lon="-2.436837000">
        <ele>539.80</ele>
        <time>2017-02-18T10:02:03Z</time>
      </trkpt>
      <trkpt lat="42.528398000" lon="-2.436843000">
        <ele>539.70</ele>
        <time>2017-02-18T10:02:04Z</time>
      </trkpt>
      <trkpt lat="42.528396000" lon="-2.436846000">
        <ele>539.70</ele>
        <time>2017-02-18T10:02:05Z</time>
      </trkpt>
      <trkpt lat="42.528396000" lon="-2.436846000">
        <ele>539.70</ele>
        <time>2017-02-18T10:02:06Z</time>
      </trkpt>
      <trkpt lat="42.528398000" lon="-2.436847000">
        <ele>539.70</ele>
        <time>2017-02-18T10:02:07Z</time>
      </trkpt>
      <trkpt lat="42.528400000" lon="-2.436844000">
        <ele>539.70</ele>
        <time>2017-02-18T10:02:08Z</time>
      </trkpt>
      <trkpt lat="42.528403000" lon="-2.436843000">
        <ele>539.50</ele>
        <time>2017-02-18T10:02:09Z</time>
      </trkpt>
      <trkpt lat="42.528400000" lon="-2.436843000">
        <ele>539.40</ele>
        <time>2017-02-18T10:02:10Z</time>
      </trkpt>
      <trkpt lat="42.528398000" lon="-2.436843000">
        <ele>539.20</ele>
        <time>2017-02-18T10:02:11Z</time>
      </trkpt>
      <trkpt lat="42.528394000" lon="-2.436844000">
        <ele>539.20</ele>
        <time>2017-02-18T10:02:12Z</time>
      </trkpt>
      <trkpt lat="42.528392000" lon="-2.436843000">
        <ele>539.10</ele>
        <time>2017-02-18T10:02:13Z</time>
      </trkpt>
      <trkpt lat="42.528392000" lon="-2.436843000">
        <ele>539.00</ele>
        <time>2017-02-18T10:02:14Z</time>
      </trkpt>
      <trkpt lat="42.528392000" lon="-2.436846000">
        <ele>539.00</ele>
        <time>2017-02-18T10:02:15Z</time>
      </trkpt>
      <trkpt lat="42.528393000" lon="-2.436842000">
        <ele>539.00</ele>
        <time>2017-02-18T10:02:16Z</time>
      </trkpt>
      <trkpt lat="42.528395000" lon="-2.436838000">
        <ele>538.90</ele>
        <time>2017-02-18T10:02:17Z</time>
      </trkpt>
      <trkpt lat="42.528398000" lon="-2.436840000">
        <ele>538.90</ele>
        <time>2017-02-18T10:02:18Z</time>
      </trkpt>
      <trkpt lat="42.528400000" lon="-2.436840000">
        <ele>538.90</ele>
        <time>2017-02-18T10:02:19Z</time>
      </trkpt>
      <trkpt lat="42.528403000" lon="-2.436843000">
        <ele>538.90</ele>
        <time>2017-02-18T10:02:20Z</time>
      </trkpt>
      <trkpt lat="42.528408000" lon="-2.436845000">
        <ele>539.00</ele>
        <time>2017-02-18T10:02:21Z</time>
      </trkpt>
      <trkpt lat="42.528412000" lon="-2.436840000">
        <ele>539.10</ele>
        <time>2017-02-18T10:02:22Z</time>
      </trkpt>
      <trkpt lat="42.528415000" lon="-2.436835000">
        <ele>539.20</ele>
        <time>2017-02-18T10:02:23Z</time>
      </trkpt>
      <trkpt lat="42.528416000" lon="-2.436836000">
        <ele>539.20</ele>
        <time>2017-02-18T10:02:24Z</time>
      </trkpt>
      <trkpt lat="42.528412000" lon="-2.436836000">
        <ele>539.20</ele>
        <time>2017-02-18T10:02:25Z</time>
      </trkpt>
      <trkpt lat="42.528410000" lon="-2.436841000">
        <ele>539.10</ele>
        <time>2017-02-18T10:02:27Z</time>
      </trkpt>
      <trkpt lat="42.528409000" lon="-2.436838000">
        <ele>539.10</ele>
        <time>2017-02-18T10:02:28Z</time>
      </trkpt>
      <trkpt lat="42.528409000" lon="-2.436839000">
        <ele>539.20</ele>
        <time>2017-02-18T10:02:29Z</time>
      </trkpt>
      <trkpt lat="42.528408000" lon="-2.436840000">
        <ele>539.30</ele>
        <time>2017-02-18T10:02:30Z</time>
      </trkpt>
      <trkpt lat="42.528408000" lon="-2.436844000">
        <ele>539.30</ele>
        <time>2017-02-18T10:02:31Z</time>
      </trkpt>
      <trkpt lat="42.528408000" lon="-2.436847000">
        <ele>539.40</ele>
        <time>2017-02-18T10:02:32Z</time>
      </trkpt>
      <trkpt lat="42.528409000" lon="-2.436847000">
        <ele>539.20</ele>
        <time>2017-02-18T10:02:33Z</time>
      </trkpt>
      <trkpt lat="42.528407000" lon="-2.436847000">
        <ele>539.10</ele>
        <time>2017-02-18T10:02:34Z</time>
      </trkpt>
      <trkpt lat="42.528408000" lon="-2.436849000">
        <ele>538.90</ele>
        <time>2017-02-18T10:02:35Z</time>
      </trkpt>
      <trkpt lat="42.528408000" lon="-2.436852000">
        <ele>538.80</ele>
        <time>2017-02-18T10:02:36Z</time>
      </trkpt>
      <trkpt lat="42.528407000" lon="-2.436855000">
        <ele>538.70</ele>
        <time>2017-02-18T10:02:37Z</time>
      </trkpt>
      <trkpt lat="42.528408000" lon="-2.436854000">
        <ele>538.60</ele>
        <time>2017-02-18T10:02:38Z</time>
      </trkpt>
      <trkpt lat="42.528409000" lon="-2.436854000">
        <ele>538.60</ele>
        <time>2017-02-18T10:02:39Z</time>
      </trkpt>
      <trkpt lat="42.528409000" lon="-2.436855000">
        <ele>538.60</ele>
        <time>2017-02-18T10:02:40Z</time>
      </trkpt>
      <trkpt lat="42.528411000" lon="-2.436855000">
        <ele>538.70</ele>
        <time>2017-02-18T10:02:41Z</time>
      </trkpt>
      <trkpt lat="42.528412000" lon="-2.436854000">
        <ele>538.70</ele>
        <time>2017-02-18T10:02:42Z</time>
      </trkpt>
      <trkpt lat="42.528412000" lon="-2.436852000">
        <ele>538.70</ele>
        <time>2017-02-18T10:02:43Z</time>
      </trkpt>
      <trkpt lat="42.528413000" lon="-2.436850000">
        <ele>538.60</ele>
        <time>2017-02-18T10:02:44Z</time>
      </trkpt>
      <trkpt lat="42.528414000" lon="-2.436848000">
        <ele>538.60</ele>
        <time>2017-02-18T10:02:45Z</time>
      </trkpt>
      <trkpt lat="42.528415000" lon="-2.436844000">
        <ele>538.70</ele>
        <time>2017-02-18T10:02:46Z</time>
      </trkpt>
      <trkpt lat="42.528417000" lon="-2.436843000">
        <ele>538.60</ele>
        <time>2017-02-18T10:02:47Z</time>
      </trkpt>
      <trkpt lat="42.528418000" lon="-2.436842000">
        <ele>538.60</ele>
        <time>2017-02-18T10:02:48Z</time>
      </trkpt>
      <trkpt lat="42.528419000" lon="-2.436843000">
        <ele>538.60</ele>
        <time>2017-02-18T10:02:49Z</time>
      </trkpt>
      <trkpt lat="42.528419000" lon="-2.436845000">
        <ele>538.60</ele>
        <time>2017-02-18T10:02:50Z</time>
      </trkpt>
      <trkpt lat="42.528414000" lon="-2.436843000">
        <ele>538.70</ele>
        <time>2017-02-18T10:02:51Z</time>
      </trkpt>
      <trkpt lat="42.528415000" lon="-2.436845000">
        <ele>538.70</ele>
        <time>2017-02-18T10:02:52Z</time>
      </trkpt>
      <trkpt lat="42.528413000" lon="-2.436846000">
        <ele>538.80</ele>
        <time>2017-02-18T10:02:53Z</time>
      </trkpt>
      <trkpt lat="42.528410000" lon="-2.436843000">
        <ele>538.80</ele>
        <time>2017-02-18T10:02:54Z</time>
      </trkpt>
      <trkpt lat="42.528407000" lon="-2.436846000">
        <ele>538.90</ele>
        <time>2017-02-18T10:02:55Z</time>
      </trkpt>
      <trkpt lat="42.528404000" lon="-2.436847000">
        <ele>539.00</ele>
        <time>2017-02-18T10:02:56Z</time>
      </trkpt>
      <trkpt lat="42.528405000" lon="-2.436843000">
        <ele>538.90</ele>
        <time>2017-02-18T10:02:57Z</time>
      </trkpt>
      <trkpt lat="42.528405000" lon="-2.436844000">
        <ele>538.80</ele>
        <time>2017-02-18T10:02:58Z</time>
      </trkpt>
      <trkpt lat="42.528405000" lon="-2.436845000">
        <ele>538.70</ele>
        <time>2017-02-18T10:02:59Z</time>
      </trkpt>
      <trkpt lat="42.528406000" lon="-2.436841000">
        <ele>538.70</ele>
        <time>2017-02-18T10:03:00Z</time>
      </trkpt>
      <trkpt lat="42.528406000" lon="-2.436842000">
        <ele>538.70</ele>
        <time>2017-02-18T10:03:01Z</time>
      </trkpt>
      <trkpt lat="42.528403000" lon="-2.436835000">
        <ele>538.60</ele>
        <time>2017-02-18T10:03:02Z</time>
      </trkpt>
      <trkpt lat="42.528404000" lon="-2.436835000">
        <ele>538.60</ele>
        <time>2017-02-18T10:03:03Z</time>
      </trkpt>
      <trkpt lat="42.528403000" lon="-2.436836000">
        <ele>538.60</ele>
        <time>2017-02-18T10:03:04Z</time>
      </trkpt>
      <trkpt lat="42.528406000" lon="-2.436836000">
        <ele>538.50</ele>
        <time>2017-02-18T10:03:05Z</time>
      </trkpt>
      <trkpt lat="42.528406000" lon="-2.436836000">
        <ele>538.50</ele>
        <time>2017-02-18T10:03:06Z</time>
      </trkpt>
      <trkpt lat="42.528403000" lon="-2.436835000">
        <ele>538.40</ele>
        <time>2017-02-18T10:03:07Z</time>
      </trkpt>
      <trkpt lat="42.528401000" lon="-2.436836000">
        <ele>538.40</ele>
        <time>2017-02-18T10:03:08Z</time>
      </trkpt>
      <trkpt lat="42.528404000" lon="-2.436839000">
        <ele>538.30</ele>
        <time>2017-02-18T10:03:09Z</time>
      </trkpt>
      <trkpt lat="42.528404000" lon="-2.436838000">
        <ele>538.30</ele>
        <time>2017-02-18T10:03:10Z</time>
      </trkpt>
      <trkpt lat="42.528403000" lon="-2.436841000">
        <ele>538.30</ele>
        <time>2017-02-18T10:03:11Z</time>
      </trkpt>
      <trkpt lat="42.528402000" lon="-2.436844000">
        <ele>538.30</ele>
        <time>2017-02-18T10:03:12Z</time>
      </trkpt>
      <trkpt lat="42.528399000" lon="-2.436844000">
        <ele>538.30</ele>
        <time>2017-02-18T10:03:13Z</time>
      </trkpt>
      <trkpt lat="42.528400000" lon="-2.436843000">
        <ele>538.40</ele>
        <time>2017-02-18T10:03:14Z</time>
      </trkpt>
      <trkpt lat="42.528399000" lon="-2.436843000">
        <ele>538.40</ele>
        <time>2017-02-18T10:03:15Z</time>
      </trkpt>
      <trkpt lat="42.528392000" lon="-2.436843000">
        <ele>538.40</ele>
        <time>2017-02-18T10:03:16Z</time>
      </trkpt>
      <trkpt lat="42.528395000" lon="-2.436839000">
        <ele>538.40</ele>
        <time>2017-02-18T10:03:17Z</time>
      </trkpt>
      <trkpt lat="42.528395000" lon="-2.436838000">
        <ele>538.40</ele>
        <time>2017-02-18T10:03:18Z</time>
      </trkpt>
      <trkpt lat="42.528393000" lon="-2.436837000">
        <ele>538.40</ele>
        <time>2017-02-18T10:03:19Z</time>
      </trkpt>
      <trkpt lat="42.528391000" lon="-2.436835000">
        <ele>538.40</ele>
        <time>2017-02-18T10:03:20Z</time>
      </trkpt>
      <trkpt lat="42.528385000" lon="-2.436829000">
        <ele>538.40</ele>
        <time>2017-02-18T10:03:21Z</time>
      </trkpt>
      <trkpt lat="42.528369000" lon="-2.436822000">
        <ele>538.40</ele>
        <time>2017-02-18T10:03:22Z</time>
      </trkpt>
      <trkpt lat="42.528354000" lon="-2.436820000">
        <ele>538.40</ele>
        <time>2017-02-18T10:03:23Z</time>
      </trkpt>
      <trkpt lat="42.528339000" lon="-2.436816000">
        <ele>538.40</ele>
        <time>2017-02-18T10:03:24Z</time>
      </trkpt>
      <trkpt lat="42.528320000" lon="-2.436816000">
        <ele>538.40</ele>
        <time>2017-02-18T10:03:25Z</time>
      </trkpt>
      <trkpt lat="42.528303000" lon="-2.436815000">
        <ele>538.40</ele>
        <time>2017-02-18T10:03:26Z</time>
      </trkpt>
      <trkpt lat="42.528288000" lon="-2.436815000">
        <ele>538.40</ele>
        <time>2017-02-18T10:03:27Z</time>
      </trkpt>
      <trkpt lat="42.528249000" lon="-2.436811000">
        <ele>538.50</ele>
        <time>2017-02-18T10:03:29Z</time>
      </trkpt>
      <trkpt lat="42.528227000" lon="-2.436812000">
        <ele>538.50</ele>
        <time>2017-02-18T10:03:30Z</time>
      </trkpt>
      <trkpt lat="42.528203000" lon="-2.436816000">
        <ele>538.60</ele>
        <time>2017-02-18T10:03:31Z</time>
      </trkpt>
      <trkpt lat="42.528178000" lon="-2.436817000">
        <ele>538.70</ele>
        <time>2017-02-18T10:03:32Z</time>
      </trkpt>
      <trkpt lat="42.528149000" lon="-2.436814000">
        <ele>538.70</ele>
        <time>2017-02-18T10:03:33Z</time>
      </trkpt>
      <trkpt lat="42.528121000" lon="-2.436813000">
        <ele>538.70</ele>
        <time>2017-02-18T10:03:34Z</time>
      </trkpt>
      <trkpt lat="42.528092000" lon="-2.436812000">
        <ele>538.80</ele>
        <time>2017-02-18T10:03:35Z</time>
      </trkpt>
      <trkpt lat="42.528064000" lon="-2.436814000">
        <ele>538.80</ele>
        <time>2017-02-18T10:03:36Z</time>
      </trkpt>
      <trkpt lat="42.528035000" lon="-2.436811000">
        <ele>538.80</ele>
        <time>2017-02-18T10:03:37Z</time>
      </trkpt>
      <trkpt lat="42.528001000" lon="-2.436809000">
        <ele>538.80</ele>
        <time>2017-02-18T10:03:38Z</time>
      </trkpt>
      <trkpt lat="42.527968000" lon="-2.436812000">
        <ele>538.80</ele>
        <time>2017-02-18T10:03:39Z</time>
      </trkpt>
      <trkpt lat="42.527936000" lon="-2.436818000">
        <ele>538.80</ele>
        <time>2017-02-18T10:03:40Z</time>
      </trkpt>
      <trkpt lat="42.527900000" lon="-2.436823000">
        <ele>538.80</ele>
        <time>2017-02-18T10:03:41Z</time>
      </trkpt>
      <trkpt lat="42.527862000" lon="-2.436821000">
        <ele>538.80</ele>
        <time>2017-02-18T10:03:42Z</time>
      </trkpt>
      <trkpt lat="42.527827000" lon="-2.436826000">
        <ele>538.80</ele>
        <time>2017-02-18T10:03:43Z</time>
      </trkpt>
      <trkpt lat="42.527790000" lon="-2.436825000">
        <ele>538.80</ele>
        <time>2017-02-18T10:03:44Z</time>
      </trkpt>
      <trkpt lat="42.527758000" lon="-2.436830000">
        <ele>538.80</ele>
        <time>2017-02-18T10:03:45Z</time>
      </trkpt>
      <trkpt lat="42.527723000" lon="-2.436828000">
        <ele>538.80</ele>
        <time>2017-02-18T10:03:46Z</time>
      </trkpt>
      <trkpt lat="42.527686000" lon="-2.436827000">
        <ele>538.90</ele>
        <time>2017-02-18T10:03:47Z</time>
      </trkpt>
      <trkpt lat="42.527652000" lon="-2.436827000">
        <ele>538.90</ele>
        <time>2017-02-18T10:03:48Z</time>
      </trkpt>
      <trkpt lat="42.527619000" lon="-2.436829000">
        <ele>539.00</ele>
        <time>2017-02-18T10:03:49Z</time>
      </trkpt>
      <trkpt lat="42.527587000" lon="-2.436827000">
        <ele>539.00</ele>
        <time>2017-02-18T10:03:50Z</time>
      </trkpt>
      <trkpt lat="42.527556000" lon="-2.436829000">
        <ele>539.00</ele>
        <time>2017-02-18T10:03:51Z</time>
      </trkpt>
      <trkpt lat="42.527524000" lon="-2.436833000">
        <ele>539.00</ele>
        <time>2017-02-18T10:03:52Z</time>
      </trkpt>
      <trkpt lat="42.527494000" lon="-2.436833000">
        <ele>539.10</ele>
        <time>2017-02-18T10:03:53Z</time>
      </trkpt>
      <trkpt lat="42.527468000" lon="-2.436836000">
        <ele>539.20</ele>
        <time>2017-02-18T10:03:54Z</time>
      </trkpt>
      <trkpt lat="42.527439000" lon="-2.436842000">
        <ele>539.30</ele>
        <time>2017-02-18T10:03:55Z</time>
      </trkpt>
      <trkpt lat="42.527406000" lon="-2.436846000">
        <ele>539.30</ele>
        <time>2017-02-18T10:03:56Z</time>
      </trkpt>
      <trkpt lat="42.527378000" lon="-2.436851000">
        <ele>539.40</ele>
        <time>2017-02-18T10:03:57Z</time>
      </trkpt>
      <trkpt lat="42.527349000" lon="-2.436859000">
        <ele>539.40</ele>
        <time>2017-02-18T10:03:58Z</time>
      </trkpt>
      <trkpt lat="42.527316000" lon="-2.436860000">
        <ele>539.40</ele>
        <time>2017-02-18T10:03:59Z</time>
      </trkpt>
      <trkpt lat="42.527281000" lon="-2.436865000">
        <ele>539.40</ele>
        <time>2017-02-18T10:04:00Z</time>
      </trkpt>
      <trkpt lat="42.527244000" lon="-2.436866000">
        <ele>539.40</ele>
        <time>2017-02-18T10:04:01Z</time>
      </trkpt>
      <trkpt lat="42.527205000" lon="-2.436867000">
        <ele>539.40</ele>
        <time>2017-02-18T10:04:02Z</time>
      </trkpt>
      <trkpt lat="42.527159000" lon="-2.436869000">
        <ele>538.70</ele>
        <time>2017-02-18T10:04:03Z</time>
      </trkpt>
      <trkpt lat="42.527113000" lon="-2.436855000">
        <ele>538.20</ele>
        <time>2017-02-18T10:04:04Z</time>
      </trkpt>
      <trkpt lat="42.527063000" lon="-2.436823000">
        <ele>537.60</ele>
        <time>2017-02-18T10:04:05Z</time>
      </trkpt>
      <trkpt lat="42.527014000" lon="-2.436774000">
        <ele>537.20</ele>
        <time>2017-02-18T10:04:06Z</time>
      </trkpt>
      <trkpt lat="42.526974000" lon="-2.436697000">
        <ele>536.90</ele>
        <time>2017-02-18T10:04:07Z</time>
      </trkpt>
      <trkpt lat="42.526942000" lon="-2.436614000">
        <ele>536.70</ele>
        <time>2017-02-18T10:04:08Z</time>
      </trkpt>
      <trkpt lat="42.526912000" lon="-2.436529000">
        <ele>536.50</ele>
        <time>2017-02-18T10:04:09Z</time>
      </trkpt>
      <trkpt lat="42.526875000" lon="-2.436457000">
        <ele>536.30</ele>
        <time>2017-02-18T10:04:10Z</time>
      </trkpt>
      <trkpt lat="42.526824000" lon="-2.436404000">
        <ele>535.90</ele>
        <time>2017-02-18T10:04:11Z</time>
      </trkpt>
      <trkpt lat="42.526766000" lon="-2.436368000">
        <ele>535.50</ele>
        <time>2017-02-18T10:04:12Z</time>
      </trkpt>
      <trkpt lat="42.526707000" lon="-2.436350000">
        <ele>535.20</ele>
        <time>2017-02-18T10:04:13Z</time>
      </trkpt>
      <trkpt lat="42.526644000" lon="-2.436337000">
        <ele>534.90</ele>
        <time>2017-02-18T10:04:14Z</time>
      </trkpt>
      <trkpt lat="42.526579000" lon="-2.436323000">
        <ele>534.20</ele>
        <time>2017-02-18T10:04:15Z</time>
      </trkpt>
      <trkpt lat="42.526514000" lon="-2.436311000">
        <ele>533.60</ele>
        <time>2017-02-18T10:04:16Z</time>
      </trkpt>
      <trkpt lat="42.526447000" lon="-2.436308000">
        <ele>532.90</ele>
        <time>2017-02-18T10:04:17Z</time>
      </trkpt>
      <trkpt lat="42.526382000" lon="-2.436311000">
        <ele>532.30</ele>
        <time>2017-02-18T10:04:18Z</time>
      </trkpt>
      <trkpt lat="42.526312000" lon="-2.436314000">
        <ele>531.70</ele>
        <time>2017-02-18T10:04:19Z</time>
      </trkpt>
      <trkpt lat="42.526246000" lon="-2.436326000">
        <ele>531.20</ele>
        <time>2017-02-18T10:04:20Z</time>
      </trkpt>
      <trkpt lat="42.526181000" lon="-2.436332000">
        <ele>530.70</ele>
        <time>2017-02-18T10:04:21Z</time>
      </trkpt>
      <trkpt lat="42.526117000" lon="-2.436330000">
        <ele>530.30</ele>
        <time>2017-02-18T10:04:22Z</time>
      </trkpt>
      <trkpt lat="42.526057000" lon="-2.436321000">
        <ele>530.00</ele>
        <time>2017-02-18T10:04:23Z</time>
      </trkpt>
      <trkpt lat="42.526003000" lon="-2.436298000">
        <ele>529.80</ele>
        <time>2017-02-18T10:04:24Z</time>
      </trkpt>
      <trkpt lat="42.525954000" lon="-2.436264000">
        <ele>529.60</ele>
        <time>2017-02-18T10:04:25Z</time>
      </trkpt>
      <trkpt lat="42.525909000" lon="-2.436227000">
        <ele>529.40</ele>
        <time>2017-02-18T10:04:26Z</time>
      </trkpt>
      <trkpt lat="42.525863000" lon="-2.436192000">
        <ele>529.40</ele>
        <time>2017-02-18T10:04:27Z</time>
      </trkpt>
      <trkpt lat="42.525819000" lon="-2.436161000">
        <ele>529.40</ele>
        <time>2017-02-18T10:04:28Z</time>
      </trkpt>
      <trkpt lat="42.525776000" lon="-2.436137000">
        <ele>529.30</ele>
        <time>2017-02-18T10:04:29Z</time>
      </trkpt>
      <trkpt lat="42.525688000" lon="-2.436097000">
        <ele>529.80</ele>
        <time>2017-02-18T10:04:31Z</time>
      </trkpt>
      <trkpt lat="42.525645000" lon="-2.436077000">
        <ele>530.10</ele>
        <time>2017-02-18T10:04:32Z</time>
      </trkpt>
      <trkpt lat="42.525600000" lon="-2.436054000">
        <ele>530.30</ele>
        <time>2017-02-18T10:04:33Z</time>
      </trkpt>
      <trkpt lat="42.525554000" lon="-2.436042000">
        <ele>530.50</ele>
        <time>2017-02-18T10:04:34Z</time>
      </trkpt>
      <trkpt lat="42.525507000" lon="-2.436031000">
        <ele>530.20</ele>
        <time>2017-02-18T10:04:35Z</time>
      </trkpt>
      <trkpt lat="42.525458000" lon="-2.436028000">
        <ele>529.90</ele>
        <time>2017-02-18T10:04:36Z</time>
      </trkpt>
      <trkpt lat="42.525407000" lon="-2.436024000">
        <ele>529.80</ele>
        <time>2017-02-18T10:04:37Z</time>
      </trkpt>
      <trkpt lat="42.525355000" lon="-2.436032000">
        <ele>529.60</ele>
        <time>2017-02-18T10:04:38Z</time>
      </trkpt>
      <trkpt lat="42.525304000" lon="-2.436039000">
        <ele>529.70</ele>
        <time>2017-02-18T10:04:39Z</time>
      </trkpt>
      <trkpt lat="42.525252000" lon="-2.436050000">
        <ele>529.80</ele>
        <time>2017-02-18T10:04:40Z</time>
      </trkpt>
      <trkpt lat="42.525197000" lon="-2.436061000">
        <ele>529.80</ele>
        <time>2017-02-18T10:04:41Z</time>
      </trkpt>
      <trkpt lat="42.525138000" lon="-2.436067000">
        <ele>529.90</ele>
        <time>2017-02-18T10:04:42Z</time>
      </trkpt>
      <trkpt lat="42.525078000" lon="-2.436068000">
        <ele>530.00</ele>
        <time>2017-02-18T10:04:43Z</time>
      </trkpt>
      <trkpt lat="42.525018000" lon="-2.436063000">
        <ele>530.00</ele>
        <time>2017-02-18T10:04:44Z</time>
      </trkpt>
      <trkpt lat="42.524960000" lon="-2.436053000">
        <ele>528.90</ele>
        <time>2017-02-18T10:04:45Z</time>
      </trkpt>
      <trkpt lat="42.524902000" lon="-2.436050000">
        <ele>528.10</ele>
        <time>2017-02-18T10:04:46Z</time>
      </trkpt>
      <trkpt lat="42.524842000" lon="-2.436050000">
        <ele>528.20</ele>
        <time>2017-02-18T10:04:47Z</time>
      </trkpt>
      <trkpt lat="42.524785000" lon="-2.436051000">
        <ele>528.30</ele>
        <time>2017-02-18T10:04:48Z</time>
      </trkpt>
      <trkpt lat="42.524725000" lon="-2.436042000">
        <ele>527.80</ele>
        <time>2017-02-18T10:04:49Z</time>
      </trkpt>
      <trkpt lat="42.524672000" lon="-2.436016000">
        <ele>527.40</ele>
        <time>2017-02-18T10:04:50Z</time>
      </trkpt>
      <trkpt lat="42.524626000" lon="-2.435984000">
        <ele>527.30</ele>
        <time>2017-02-18T10:04:51Z</time>
      </trkpt>
      <trkpt lat="42.524578000" lon="-2.435945000">
        <ele>527.20</ele>
        <time>2017-02-18T10:04:52Z</time>
      </trkpt>
      <trkpt lat="42.524533000" lon="-2.435904000">
        <ele>527.10</ele>
        <time>2017-02-18T10:04:53Z</time>
      </trkpt>
      <trkpt lat="42.524491000" lon="-2.435861000">
        <ele>527.00</ele>
        <time>2017-02-18T10:04:54Z</time>
      </trkpt>
      <trkpt lat="42.524448000" lon="-2.435822000">
        <ele>527.00</ele>
        <time>2017-02-18T10:04:55Z</time>
      </trkpt>
      <trkpt lat="42.524406000" lon="-2.435777000">
        <ele>527.00</ele>
        <time>2017-02-18T10:04:56Z</time>
      </trkpt>
      <trkpt lat="42.524368000" lon="-2.435737000">
        <ele>527.10</ele>
        <time>2017-02-18T10:04:57Z</time>
      </trkpt>
      <trkpt lat="42.524333000" lon="-2.435696000">
        <ele>527.20</ele>
        <time>2017-02-18T10:04:58Z</time>
      </trkpt>
      <trkpt lat="42.524301000" lon="-2.435654000">
        <ele>527.50</ele>
        <time>2017-02-18T10:04:59Z</time>
      </trkpt>
      <trkpt lat="42.524268000" lon="-2.435615000">
        <ele>527.70</ele>
        <time>2017-02-18T10:05:00Z</time>
      </trkpt>
      <trkpt lat="42.524235000" lon="-2.435580000">
        <ele>527.90</ele>
        <time>2017-02-18T10:05:01Z</time>
      </trkpt>
      <trkpt lat="42.524206000" lon="-2.435543000">
        <ele>528.00</ele>
        <time>2017-02-18T10:05:02Z</time>
      </trkpt>
      <trkpt lat="42.524173000" lon="-2.435510000">
        <ele>528.40</ele>
        <time>2017-02-18T10:05:03Z</time>
      </trkpt>
      <trkpt lat="42.524139000" lon="-2.435475000">
        <ele>528.70</ele>
        <time>2017-02-18T10:05:04Z</time>
      </trkpt>
      <trkpt lat="42.524104000" lon="-2.435442000">
        <ele>528.90</ele>
        <time>2017-02-18T10:05:05Z</time>
      </trkpt>
      <trkpt lat="42.524068000" lon="-2.435416000">
        <ele>529.10</ele>
        <time>2017-02-18T10:05:06Z</time>
      </trkpt>
      <trkpt lat="42.524032000" lon="-2.435393000">
        <ele>529.40</ele>
        <time>2017-02-18T10:05:07Z</time>
      </trkpt>
      <trkpt lat="42.523994000" lon="-2.435372000">
        <ele>529.60</ele>
        <time>2017-02-18T10:05:08Z</time>
      </trkpt>
      <trkpt lat="42.523956000" lon="-2.435354000">
        <ele>529.90</ele>
        <time>2017-02-18T10:05:09Z</time>
      </trkpt>
      <trkpt lat="42.523918000" lon="-2.435334000">
        <ele>530.10</ele>
        <time>2017-02-18T10:05:10Z</time>
      </trkpt>
      <trkpt lat="42.523882000" lon="-2.435314000">
        <ele>530.10</ele>
        <time>2017-02-18T10:05:11Z</time>
      </trkpt>
      <trkpt lat="42.523841000" lon="-2.435294000">
        <ele>530.20</ele>
        <time>2017-02-18T10:05:12Z</time>
      </trkpt>
      <trkpt lat="42.523801000" lon="-2.435277000">
        <ele>530.30</ele>
        <time>2017-02-18T10:05:13Z</time>
      </trkpt>
      <trkpt lat="42.523760000" lon="-2.435264000">
        <ele>530.50</ele>
        <time>2017-02-18T10:05:14Z</time>
      </trkpt>
      <trkpt lat="42.523716000" lon="-2.435257000">
        <ele>530.70</ele>
        <time>2017-02-18T10:05:15Z</time>
      </trkpt>
      <trkpt lat="42.523677000" lon="-2.435251000">
        <ele>530.80</ele>
        <time>2017-02-18T10:05:16Z</time>
      </trkpt>
      <trkpt lat="42.523645000" lon="-2.435247000">
        <ele>530.90</ele>
        <time>2017-02-18T10:05:17Z</time>
      </trkpt>
      <trkpt lat="42.523617000" lon="-2.435248000">
        <ele>530.90</ele>
        <time>2017-02-18T10:05:18Z</time>
      </trkpt>
      <trkpt lat="42.523592000" lon="-2.435248000">
        <ele>531.00</ele>
        <time>2017-02-18T10:05:19Z</time>
      </trkpt>
      <trkpt lat="42.523568000" lon="-2.435246000">
        <ele>531.00</ele>
        <time>2017-02-18T10:05:20Z</time>
      </trkpt>
      <trkpt lat="42.523547000" lon="-2.435247000">
        <ele>531.00</ele>
        <time>2017-02-18T10:05:21Z</time>
      </trkpt>
      <trkpt lat="42.523525000" lon="-2.435249000">
        <ele>530.90</ele>
        <time>2017-02-18T10:05:22Z</time>
      </trkpt>
      <trkpt lat="42.523503000" lon="-2.435249000">
        <ele>530.90</ele>
        <time>2017-02-18T10:05:23Z</time>
      </trkpt>
      <trkpt lat="42.523483000" lon="-2.435243000">
        <ele>530.80</ele>
        <time>2017-02-18T10:05:24Z</time>
      </trkpt>
      <trkpt lat="42.523462000" lon="-2.435235000">
        <ele>530.80</ele>
        <time>2017-02-18T10:05:25Z</time>
      </trkpt>
      <trkpt lat="42.523437000" lon="-2.435224000">
        <ele>530.80</ele>
        <time>2017-02-18T10:05:26Z</time>
      </trkpt>
      <trkpt lat="42.523417000" lon="-2.435214000">
        <ele>530.90</ele>
        <time>2017-02-18T10:05:27Z</time>
      </trkpt>
      <trkpt lat="42.523394000" lon="-2.435201000">
        <ele>531.00</ele>
        <time>2017-02-18T10:05:28Z</time>
      </trkpt>
      <trkpt lat="42.523373000" lon="-2.435184000">
        <ele>531.10</ele>
        <time>2017-02-18T10:05:29Z</time>
      </trkpt>
      <trkpt lat="42.523350000" lon="-2.435168000">
        <ele>531.10</ele>
        <time>2017-02-18T10:05:30Z</time>
      </trkpt>
      <trkpt lat="42.523322000" lon="-2.435155000">
        <ele>530.90</ele>
        <time>2017-02-18T10:05:31Z</time>
      </trkpt>
      <trkpt lat="42.523257000" lon="-2.435116000">
        <ele>530.60</ele>
        <time>2017-02-18T10:05:33Z</time>
      </trkpt>
      <trkpt lat="42.523225000" lon="-2.435088000">
        <ele>530.50</ele>
        <time>2017-02-18T10:05:34Z</time>
      </trkpt>
      <trkpt lat="42.523191000" lon="-2.435055000">
        <ele>530.60</ele>
        <time>2017-02-18T10:05:35Z</time>
      </trkpt>
      <trkpt lat="42.523159000" lon="-2.435015000">
        <ele>530.70</ele>
        <time>2017-02-18T10:05:36Z</time>
      </trkpt>
      <trkpt lat="42.523128000" lon="-2.434974000">
        <ele>530.80</ele>
        <time>2017-02-18T10:05:37Z</time>
      </trkpt>
      <trkpt lat="42.523099000" lon="-2.434935000">
        <ele>531.00</ele>
        <time>2017-02-18T10:05:38Z</time>
      </trkpt>
      <trkpt lat="42.523067000" lon="-2.434897000">
        <ele>531.10</ele>
        <time>2017-02-18T10:05:39Z</time>
      </trkpt>
      <trkpt lat="42.523032000" lon="-2.434863000">
        <ele>531.20</ele>
        <time>2017-02-18T10:05:40Z</time>
      </trkpt>
      <trkpt lat="42.523000000" lon="-2.434822000">
        <ele>531.00</ele>
        <time>2017-02-18T10:05:41Z</time>
      </trkpt>
      <trkpt lat="42.522964000" lon="-2.434789000">
        <ele>530.90</ele>
        <time>2017-02-18T10:05:42Z</time>
      </trkpt>
      <trkpt lat="42.522933000" lon="-2.434753000">
        <ele>530.80</ele>
        <time>2017-02-18T10:05:43Z</time>
      </trkpt>
      <trkpt lat="42.522904000" lon="-2.434719000">
        <ele>530.70</ele>
        <time>2017-02-18T10:05:44Z</time>
      </trkpt>
      <trkpt lat="42.522876000" lon="-2.434680000">
        <ele>530.70</ele>
        <time>2017-02-18T10:05:45Z</time>
      </trkpt>
      <trkpt lat="42.522850000" lon="-2.434644000">
        <ele>530.60</ele>
        <time>2017-02-18T10:05:46Z</time>
      </trkpt>
      <trkpt lat="42.522816000" lon="-2.434620000">
        <ele>530.70</ele>
        <time>2017-02-18T10:05:47Z</time>
      </trkpt>
      <trkpt lat="42.522779000" lon="-2.434597000">
        <ele>530.80</ele>
        <time>2017-02-18T10:05:48Z</time>
      </trkpt>
      <trkpt lat="42.522744000" lon="-2.434569000">
        <ele>530.80</ele>
        <time>2017-02-18T10:05:49Z</time>
      </trkpt>
      <trkpt lat="42.522709000" lon="-2.434541000">
        <ele>530.90</ele>
        <time>2017-02-18T10:05:50Z</time>
      </trkpt>
      <trkpt lat="42.522681000" lon="-2.434503000">
        <ele>530.90</ele>
        <time>2017-02-18T10:05:51Z</time>
      </trkpt>
      <trkpt lat="42.522649000" lon="-2.434466000">
        <ele>530.90</ele>
        <time>2017-02-18T10:05:52Z</time>
      </trkpt>
      <trkpt lat="42.522620000" lon="-2.434425000">
        <ele>530.90</ele>
        <time>2017-02-18T10:05:53Z</time>
      </trkpt>
      <trkpt lat="42.522597000" lon="-2.434384000">
        <ele>530.90</ele>
        <time>2017-02-18T10:05:54Z</time>
      </trkpt>
      <trkpt lat="42.522573000" lon="-2.434342000">
        <ele>531.00</ele>
        <time>2017-02-18T10:05:55Z</time>
      </trkpt>
      <trkpt lat="42.522553000" lon="-2.434299000">
        <ele>531.10</ele>
        <time>2017-02-18T10:05:56Z</time>
      </trkpt>
      <trkpt lat="42.522536000" lon="-2.434256000">
        <ele>531.40</ele>
        <time>2017-02-18T10:05:57Z</time>
      </trkpt>
      <trkpt lat="42.522518000" lon="-2.434217000">
        <ele>531.60</ele>
        <time>2017-02-18T10:05:58Z</time>
      </trkpt>
      <trkpt lat="42.522502000" lon="-2.434173000">
        <ele>531.80</ele>
        <time>2017-02-18T10:05:59Z</time>
      </trkpt>
      <trkpt lat="42.522490000" lon="-2.434133000">
        <ele>531.90</ele>
        <time>2017-02-18T10:06:00Z</time>
      </trkpt>
      <trkpt lat="42.522472000" lon="-2.434097000">
        <ele>532.40</ele>
        <time>2017-02-18T10:06:01Z</time>
      </trkpt>
      <trkpt lat="42.522452000" lon="-2.434057000">
        <ele>532.80</ele>
        <time>2017-02-18T10:06:02Z</time>
      </trkpt>
      <trkpt lat="42.522434000" lon="-2.434016000">
        <ele>533.10</ele>
        <time>2017-02-18T10:06:03Z</time>
      </trkpt>
      <trkpt lat="42.522415000" lon="-2.433976000">
        <ele>533.30</ele>
        <time>2017-02-18T10:06:04Z</time>
      </trkpt>
      <trkpt lat="42.522391000" lon="-2.433940000">
        <ele>533.60</ele>
        <time>2017-02-18T10:06:05Z</time>
      </trkpt>
      <trkpt lat="42.522366000" lon="-2.433906000">
        <ele>533.80</ele>
        <time>2017-02-18T10:06:06Z</time>
      </trkpt>
      <trkpt lat="42.522339000" lon="-2.433872000">
        <ele>533.90</ele>
        <time>2017-02-18T10:06:07Z</time>
      </trkpt>
      <trkpt lat="42.522311000" lon="-2.433833000">
        <ele>533.90</ele>
        <time>2017-02-18T10:06:08Z</time>
      </trkpt>
      <trkpt lat="42.522287000" lon="-2.433796000">
        <ele>534.10</ele>
        <time>2017-02-18T10:06:09Z</time>
      </trkpt>
      <trkpt lat="42.522263000" lon="-2.433758000">
        <ele>534.20</ele>
        <time>2017-02-18T10:06:10Z</time>
      </trkpt>
      <trkpt lat="42.522239000" lon="-2.433720000">
        <ele>534.30</ele>
        <time>2017-02-18T10:06:11Z</time>
      </trkpt>
      <trkpt lat="42.522213000" lon="-2.433678000">
        <ele>534.40</ele>
        <time>2017-02-18T10:06:12Z</time>
      </trkpt>
      <trkpt lat="42.522183000" lon="-2.433640000">
        <ele>534.40</ele>
        <time>2017-02-18T10:06:13Z</time>
      </trkpt>
      <trkpt lat="42.522156000" lon="-2.433602000">
        <ele>534.50</ele>
        <time>2017-02-18T10:06:14Z</time>
      </trkpt>
      <trkpt lat="42.522130000" lon="-2.433561000">
        <ele>534.50</ele>
        <time>2017-02-18T10:06:15Z</time>
      </trkpt>
      <trkpt lat="42.522103000" lon="-2.433522000">
        <ele>534.50</ele>
        <time>2017-02-18T10:06:16Z</time>
      </trkpt>
      <trkpt lat="42.522075000" lon="-2.433480000">
        <ele>534.40</ele>
        <time>2017-02-18T10:06:17Z</time>
      </trkpt>
      <trkpt lat="42.522045000" lon="-2.433440000">
        <ele>534.30</ele>
        <time>2017-02-18T10:06:18Z</time>
      </trkpt>
      <trkpt lat="42.522013000" lon="-2.433400000">
        <ele>534.20</ele>
        <time>2017-02-18T10:06:19Z</time>
      </trkpt>
      <trkpt lat="42.521985000" lon="-2.433358000">
        <ele>534.10</ele>
        <time>2017-02-18T10:06:20Z</time>
      </trkpt>
      <trkpt lat="42.521957000" lon="-2.433312000">
        <ele>534.10</ele>
        <time>2017-02-18T10:06:21Z</time>
      </trkpt>
      <trkpt lat="42.521927000" lon="-2.433269000">
        <ele>534.00</ele>
        <time>2017-02-18T10:06:22Z</time>
      </trkpt>
      <trkpt lat="42.521897000" lon="-2.433222000">
        <ele>534.00</ele>
        <time>2017-02-18T10:06:23Z</time>
      </trkpt>
      <trkpt lat="42.521862000" lon="-2.433179000">
        <ele>534.00</ele>
        <time>2017-02-18T10:06:24Z</time>
      </trkpt>
      <trkpt lat="42.521829000" lon="-2.433128000">
        <ele>533.90</ele>
        <time>2017-02-18T10:06:25Z</time>
      </trkpt>
      <trkpt lat="42.521795000" lon="-2.433075000">
        <ele>533.90</ele>
        <time>2017-02-18T10:06:26Z</time>
      </trkpt>
      <trkpt lat="42.521760000" lon="-2.433021000">
        <ele>533.80</ele>
        <time>2017-02-18T10:06:27Z</time>
      </trkpt>
      <trkpt lat="42.521723000" lon="-2.432969000">
        <ele>533.80</ele>
        <time>2017-02-18T10:06:28Z</time>
      </trkpt>
      <trkpt lat="42.521687000" lon="-2.432913000">
        <ele>533.70</ele>
        <time>2017-02-18T10:06:29Z</time>
      </trkpt>
      <trkpt lat="42.521655000" lon="-2.432849000">
        <ele>533.60</ele>
        <time>2017-02-18T10:06:30Z</time>
      </trkpt>
      <trkpt lat="42.521622000" lon="-2.432779000">
        <ele>532.50</ele>
        <time>2017-02-18T10:06:31Z</time>
      </trkpt>
      <trkpt lat="42.521590000" lon="-2.432705000">
        <ele>531.70</ele>
        <time>2017-02-18T10:06:32Z</time>
      </trkpt>
      <trkpt lat="42.521556000" lon="-2.432627000">
        <ele>530.90</ele>
        <time>2017-02-18T10:06:33Z</time>
      </trkpt>
      <trkpt lat="42.521484000" lon="-2.432456000">
        <ele>530.10</ele>
        <time>2017-02-18T10:06:35Z</time>
      </trkpt>
      <trkpt lat="42.521441000" lon="-2.432361000">
        <ele>529.80</ele>
        <time>2017-02-18T10:06:36Z</time>
      </trkpt>
      <trkpt lat="42.521397000" lon="-2.432262000">
        <ele>529.60</ele>
        <time>2017-02-18T10:06:37Z</time>
      </trkpt>
      <trkpt lat="42.521339000" lon="-2.432167000">
        <ele>529.50</ele>
        <time>2017-02-18T10:06:38Z</time>
      </trkpt>
      <trkpt lat="42.521273000" lon="-2.432085000">
        <ele>529.40</ele>
        <time>2017-02-18T10:06:39Z</time>
      </trkpt>
      <trkpt lat="42.521197000" lon="-2.432020000">
        <ele>529.30</ele>
        <time>2017-02-18T10:06:40Z</time>
      </trkpt>
      <trkpt lat="42.521118000" lon="-2.431969000">
        <ele>528.60</ele>
        <time>2017-02-18T10:06:41Z</time>
      </trkpt>
      <trkpt lat="42.521040000" lon="-2.431917000">
        <ele>528.10</ele>
        <time>2017-02-18T10:06:42Z</time>
      </trkpt>
      <trkpt lat="42.520966000" lon="-2.431861000">
        <ele>527.60</ele>
        <time>2017-02-18T10:06:43Z</time>
      </trkpt>
      <trkpt lat="42.520893000" lon="-2.431800000">
        <ele>527.30</ele>
        <time>2017-02-18T10:06:44Z</time>
      </trkpt>
      <trkpt lat="42.520818000" lon="-2.431742000">
        <ele>526.90</ele>
        <time>2017-02-18T10:06:45Z</time>
      </trkpt>
      <trkpt lat="42.520742000" lon="-2.431690000">
        <ele>526.60</ele>
        <time>2017-02-18T10:06:46Z</time>
      </trkpt>
      <trkpt lat="42.520657000" lon="-2.431649000">
        <ele>526.30</ele>
        <time>2017-02-18T10:06:47Z</time>
      </trkpt>
      <trkpt lat="42.520569000" lon="-2.431616000">
        <ele>526.20</ele>
        <time>2017-02-18T10:06:48Z</time>
      </trkpt>
      <trkpt lat="42.520474000" lon="-2.431590000">
        <ele>525.50</ele>
        <time>2017-02-18T10:06:49Z</time>
      </trkpt>
      <trkpt lat="42.520381000" lon="-2.431570000">
        <ele>524.90</ele>
        <time>2017-02-18T10:06:50Z</time>
      </trkpt>
      <trkpt lat="42.520283000" lon="-2.431559000">
        <ele>524.30</ele>
        <time>2017-02-18T10:06:51Z</time>
      </trkpt>
      <trkpt lat="42.520189000" lon="-2.431553000">
        <ele>523.80</ele>
        <time>2017-02-18T10:06:52Z</time>
      </trkpt>
      <trkpt lat="42.520095000" lon="-2.431551000">
        <ele>523.40</ele>
        <time>2017-02-18T10:06:53Z</time>
      </trkpt>
      <trkpt lat="42.520003000" lon="-2.431555000">
        <ele>523.00</ele>
        <time>2017-02-18T10:06:54Z</time>
      </trkpt>
      <trkpt lat="42.519913000" lon="-2.431556000">
        <ele>522.50</ele>
        <time>2017-02-18T10:06:55Z</time>
      </trkpt>
      <trkpt lat="42.519817000" lon="-2.431563000">
        <ele>522.10</ele>
        <time>2017-02-18T10:06:56Z</time>
      </trkpt>
      <trkpt lat="42.519714000" lon="-2.431571000">
        <ele>521.40</ele>
        <time>2017-02-18T10:06:57Z</time>
      </trkpt>
      <trkpt lat="42.519600000" lon="-2.431586000">
        <ele>521.00</ele>
        <time>2017-02-18T10:06:58Z</time>
      </trkpt>
      <trkpt lat="42.519481000" lon="-2.431608000">
        <ele>519.70</ele>
        <time>2017-02-18T10:06:59Z</time>
      </trkpt>
      <trkpt lat="42.519357000" lon="-2.431629000">
        <ele>518.70</ele>
        <time>2017-02-18T10:07:00Z</time>
      </trkpt>
      <trkpt lat="42.519232000" lon="-2.431650000">
        <ele>517.40</ele>
        <time>2017-02-18T10:07:01Z</time>
      </trkpt>
      <trkpt lat="42.519103000" lon="-2.431665000">
        <ele>516.40</ele>
        <time>2017-02-18T10:07:02Z</time>
      </trkpt>
      <trkpt lat="42.518977000" lon="-2.431681000">
        <ele>515.40</ele>
        <time>2017-02-18T10:07:03Z</time>
      </trkpt>
      <trkpt lat="42.518853000" lon="-2.431693000">
        <ele>514.70</ele>
        <time>2017-02-18T10:07:04Z</time>
      </trkpt>
      <trkpt lat="42.518732000" lon="-2.431703000">
        <ele>513.40</ele>
        <time>2017-02-18T10:07:05Z</time>
      </trkpt>
      <trkpt lat="42.518615000" lon="-2.431723000">
        <ele>512.50</ele>
        <time>2017-02-18T10:07:06Z</time>
      </trkpt>
      <trkpt lat="42.518501000" lon="-2.431755000">
        <ele>511.40</ele>
        <time>2017-02-18T10:07:07Z</time>
      </trkpt>
      <trkpt lat="42.518392000" lon="-2.431800000">
        <ele>510.70</ele>
        <time>2017-02-18T10:07:08Z</time>
      </trkpt>
      <trkpt lat="42.518289000" lon="-2.431855000">
        <ele>510.10</ele>
        <time>2017-02-18T10:07:09Z</time>
      </trkpt>
      <trkpt lat="42.518191000" lon="-2.431912000">
        <ele>509.60</ele>
        <time>2017-02-18T10:07:10Z</time>
      </trkpt>
      <trkpt lat="42.518097000" lon="-2.431974000">
        <ele>508.90</ele>
        <time>2017-02-18T10:07:11Z</time>
      </trkpt>
      <trkpt lat="42.518009000" lon="-2.432037000">
        <ele>508.40</ele>
        <time>2017-02-18T10:07:12Z</time>
      </trkpt>
      <trkpt lat="42.517921000" lon="-2.432097000">
        <ele>507.80</ele>
        <time>2017-02-18T10:07:13Z</time>
      </trkpt>
      <trkpt lat="42.517835000" lon="-2.432152000">
        <ele>507.30</ele>
        <time>2017-02-18T10:07:14Z</time>
      </trkpt>
      <trkpt lat="42.517750000" lon="-2.432203000">
        <ele>506.70</ele>
        <time>2017-02-18T10:07:15Z</time>
      </trkpt>
      <trkpt lat="42.517670000" lon="-2.432258000">
        <ele>506.20</ele>
        <time>2017-02-18T10:07:16Z</time>
      </trkpt>
      <trkpt lat="42.517589000" lon="-2.432309000">
        <ele>505.90</ele>
        <time>2017-02-18T10:07:17Z</time>
      </trkpt>
      <trkpt lat="42.517506000" lon="-2.432345000">
        <ele>505.60</ele>
        <time>2017-02-18T10:07:18Z</time>
      </trkpt>
      <trkpt lat="42.517425000" lon="-2.432372000">
        <ele>505.30</ele>
        <time>2017-02-18T10:07:19Z</time>
      </trkpt>
      <trkpt lat="42.517342000" lon="-2.432392000">
        <ele>505.10</ele>
        <time>2017-02-18T10:07:20Z</time>
      </trkpt>
      <trkpt lat="42.517259000" lon="-2.432401000">
        <ele>504.90</ele>
        <time>2017-02-18T10:07:21Z</time>
      </trkpt>
      <trkpt lat="42.517181000" lon="-2.432406000">
        <ele>504.70</ele>
        <time>2017-02-18T10:07:22Z</time>
      </trkpt>
      <trkpt lat="42.517100000" lon="-2.432412000">
        <ele>504.30</ele>
        <time>2017-02-18T10:07:23Z</time>
      </trkpt>
      <trkpt lat="42.517022000" lon="-2.432419000">
        <ele>503.90</ele>
        <time>2017-02-18T10:07:24Z</time>
      </trkpt>
      <trkpt lat="42.516944000" lon="-2.432425000">
        <ele>503.40</ele>
        <time>2017-02-18T10:07:25Z</time>
      </trkpt>
      <trkpt lat="42.516868000" lon="-2.432422000">
        <ele>503.00</ele>
        <time>2017-02-18T10:07:26Z</time>
      </trkpt>
      <trkpt lat="42.516789000" lon="-2.432416000">
        <ele>502.60</ele>
        <time>2017-02-18T10:07:27Z</time>
      </trkpt>
      <trkpt lat="42.516714000" lon="-2.432389000">
        <ele>502.20</ele>
        <time>2017-02-18T10:07:28Z</time>
      </trkpt>
      <trkpt lat="42.516648000" lon="-2.432339000">
        <ele>501.90</ele>
        <time>2017-02-18T10:07:29Z</time>
      </trkpt>
      <trkpt lat="42.516588000" lon="-2.432279000">
        <ele>501.70</ele>
        <time>2017-02-18T10:07:30Z</time>
      </trkpt>
      <trkpt lat="42.516533000" lon="-2.432216000">
        <ele>501.60</ele>
        <time>2017-02-18T10:07:31Z</time>
      </trkpt>
      <trkpt lat="42.516479000" lon="-2.432152000">
        <ele>501.50</ele>
        <time>2017-02-18T10:07:32Z</time>
      </trkpt>
      <trkpt lat="42.516427000" lon="-2.432089000">
        <ele>501.40</ele>
        <time>2017-02-18T10:07:33Z</time>
      </trkpt>
      <trkpt lat="42.516365000" lon="-2.432034000">
        <ele>501.30</ele>
        <time>2017-02-18T10:07:34Z</time>
      </trkpt>
      <trkpt lat="42.516295000" lon="-2.431989000">
        <ele>501.20</ele>
        <time>2017-02-18T10:07:35Z</time>
      </trkpt>
      <trkpt lat="42.516138000" lon="-2.431959000">
        <ele>501.10</ele>
        <time>2017-02-18T10:07:37Z</time>
      </trkpt>
      <trkpt lat="42.516055000" lon="-2.431964000">
        <ele>501.00</ele>
        <time>2017-02-18T10:07:38Z</time>
      </trkpt>
      <trkpt lat="42.515968000" lon="-2.431983000">
        <ele>500.40</ele>
        <time>2017-02-18T10:07:39Z</time>
      </trkpt>
      <trkpt lat="42.515877000" lon="-2.432013000">
        <ele>499.90</ele>
        <time>2017-02-18T10:07:40Z</time>
      </trkpt>
      <trkpt lat="42.515782000" lon="-2.432038000">
        <ele>499.20</ele>
        <time>2017-02-18T10:07:41Z</time>
      </trkpt>
      <trkpt lat="42.515686000" lon="-2.432063000">
        <ele>498.70</ele>
        <time>2017-02-18T10:07:42Z</time>
      </trkpt>
      <trkpt lat="42.515592000" lon="-2.432098000">
        <ele>498.10</ele>
        <time>2017-02-18T10:07:43Z</time>
      </trkpt>
      <trkpt lat="42.515498000" lon="-2.432132000">
        <ele>497.70</ele>
        <time>2017-02-18T10:07:44Z</time>
      </trkpt>
      <trkpt lat="42.515404000" lon="-2.432171000">
        <ele>497.10</ele>
        <time>2017-02-18T10:07:45Z</time>
      </trkpt>
      <trkpt lat="42.515316000" lon="-2.432214000">
        <ele>496.60</ele>
        <time>2017-02-18T10:07:46Z</time>
      </trkpt>
      <trkpt lat="42.515231000" lon="-2.432262000">
        <ele>496.00</ele>
        <time>2017-02-18T10:07:47Z</time>
      </trkpt>
      <trkpt lat="42.515150000" lon="-2.432312000">
        <ele>495.60</ele>
        <time>2017-02-18T10:07:48Z</time>
      </trkpt>
      <trkpt lat="42.515070000" lon="-2.432357000">
        <ele>495.20</ele>
        <time>2017-02-18T10:07:49Z</time>
      </trkpt>
      <trkpt lat="42.514987000" lon="-2.432396000">
        <ele>495.00</ele>
        <time>2017-02-18T10:07:50Z</time>
      </trkpt>
      <trkpt lat="42.514907000" lon="-2.432434000">
        <ele>494.70</ele>
        <time>2017-02-18T10:07:51Z</time>
      </trkpt>
      <trkpt lat="42.514827000" lon="-2.432476000">
        <ele>494.50</ele>
        <time>2017-02-18T10:07:52Z</time>
      </trkpt>
      <trkpt lat="42.514750000" lon="-2.432530000">
        <ele>494.20</ele>
        <time>2017-02-18T10:07:53Z</time>
      </trkpt>
      <trkpt lat="42.514678000" lon="-2.432594000">
        <ele>494.00</ele>
        <time>2017-02-18T10:07:54Z</time>
      </trkpt>
      <trkpt lat="42.514607000" lon="-2.432667000">
        <ele>493.70</ele>
        <time>2017-02-18T10:07:55Z</time>
      </trkpt>
      <trkpt lat="42.514532000" lon="-2.432739000">
        <ele>493.40</ele>
        <time>2017-02-18T10:07:56Z</time>
      </trkpt>
      <trkpt lat="42.514454000" lon="-2.432810000">
        <ele>492.70</ele>
        <time>2017-02-18T10:07:57Z</time>
      </trkpt>
      <trkpt lat="42.514374000" lon="-2.432885000">
        <ele>492.10</ele>
        <time>2017-02-18T10:07:58Z</time>
      </trkpt>
      <trkpt lat="42.514295000" lon="-2.432963000">
        <ele>491.60</ele>
        <time>2017-02-18T10:07:59Z</time>
      </trkpt>
      <trkpt lat="42.514213000" lon="-2.433039000">
        <ele>491.20</ele>
        <time>2017-02-18T10:08:00Z</time>
      </trkpt>
      <trkpt lat="42.514124000" lon="-2.433096000">
        <ele>491.00</ele>
        <time>2017-02-18T10:08:01Z</time>
      </trkpt>
      <trkpt lat="42.514026000" lon="-2.433132000">
        <ele>490.90</ele>
        <time>2017-02-18T10:08:02Z</time>
      </trkpt>
      <trkpt lat="42.513920000" lon="-2.433146000">
        <ele>490.70</ele>
        <time>2017-02-18T10:08:03Z</time>
      </trkpt>
      <trkpt lat="42.513810000" lon="-2.433156000">
        <ele>490.50</ele>
        <time>2017-02-18T10:08:04Z</time>
      </trkpt>
      <trkpt lat="42.513696000" lon="-2.433165000">
        <ele>489.40</ele>
        <time>2017-02-18T10:08:05Z</time>
      </trkpt>
      <trkpt lat="42.513582000" lon="-2.433177000">
        <ele>488.60</ele>
        <time>2017-02-18T10:08:06Z</time>
      </trkpt>
      <trkpt lat="42.513464000" lon="-2.433201000">
        <ele>487.20</ele>
        <time>2017-02-18T10:08:07Z</time>
      </trkpt>
      <trkpt lat="42.513347000" lon="-2.433240000">
        <ele>486.20</ele>
        <time>2017-02-18T10:08:08Z</time>
      </trkpt>
      <trkpt lat="42.513234000" lon="-2.433289000">
        <ele>485.10</ele>
        <time>2017-02-18T10:08:09Z</time>
      </trkpt>
      <trkpt lat="42.513123000" lon="-2.433339000">
        <ele>484.20</ele>
        <time>2017-02-18T10:08:10Z</time>
      </trkpt>
      <trkpt lat="42.513017000" lon="-2.433381000">
        <ele>483.10</ele>
        <time>2017-02-18T10:08:11Z</time>
      </trkpt>
      <trkpt lat="42.512908000" lon="-2.433413000">
        <ele>482.30</ele>
        <time>2017-02-18T10:08:12Z</time>
      </trkpt>
      <trkpt lat="42.512798000" lon="-2.433424000">
        <ele>481.10</ele>
        <time>2017-02-18T10:08:13Z</time>
      </trkpt>
      <trkpt lat="42.512687000" lon="-2.433402000">
        <ele>480.20</ele>
        <time>2017-02-18T10:08:14Z</time>
      </trkpt>
      <trkpt lat="42.512578000" lon="-2.433359000">
        <ele>478.60</ele>
        <time>2017-02-18T10:08:15Z</time>
      </trkpt>
      <trkpt lat="42.512469000" lon="-2.433303000">
        <ele>477.50</ele>
        <time>2017-02-18T10:08:16Z</time>
      </trkpt>
      <trkpt lat="42.512364000" lon="-2.433238000">
        <ele>476.10</ele>
        <time>2017-02-18T10:08:17Z</time>
      </trkpt>
      <trkpt lat="42.512259000" lon="-2.433173000">
        <ele>475.10</ele>
        <time>2017-02-18T10:08:18Z</time>
      </trkpt>
      <trkpt lat="42.512156000" lon="-2.433103000">
        <ele>474.30</ele>
        <time>2017-02-18T10:08:19Z</time>
      </trkpt>
      <trkpt lat="42.512057000" lon="-2.433026000">
        <ele>473.70</ele>
        <time>2017-02-18T10:08:20Z</time>
      </trkpt>
      <trkpt lat="42.511959000" lon="-2.432945000">
        <ele>473.10</ele>
        <time>2017-02-18T10:08:21Z</time>
      </trkpt>
      <trkpt lat="42.511863000" lon="-2.432862000">
        <ele>472.70</ele>
        <time>2017-02-18T10:08:22Z</time>
      </trkpt>
      <trkpt lat="42.511765000" lon="-2.432786000">
        <ele>471.80</ele>
        <time>2017-02-18T10:08:23Z</time>
      </trkpt>
      <trkpt lat="42.511668000" lon="-2.432713000">
        <ele>471.10</ele>
        <time>2017-02-18T10:08:24Z</time>
      </trkpt>
      <trkpt lat="42.511570000" lon="-2.432644000">
        <ele>470.10</ele>
        <time>2017-02-18T10:08:25Z</time>
      </trkpt>
      <trkpt lat="42.511471000" lon="-2.432581000">
        <ele>469.40</ele>
        <time>2017-02-18T10:08:26Z</time>
      </trkpt>
      <trkpt lat="42.511375000" lon="-2.432523000">
        <ele>468.80</ele>
        <time>2017-02-18T10:08:27Z</time>
      </trkpt>
      <trkpt lat="42.511278000" lon="-2.432482000">
        <ele>468.30</ele>
        <time>2017-02-18T10:08:28Z</time>
      </trkpt>
      <trkpt lat="42.511178000" lon="-2.432463000">
        <ele>467.80</ele>
        <time>2017-02-18T10:08:29Z</time>
      </trkpt>
      <trkpt lat="42.511082000" lon="-2.432471000">
        <ele>467.40</ele>
        <time>2017-02-18T10:08:30Z</time>
      </trkpt>
      <trkpt lat="42.510989000" lon="-2.432503000">
        <ele>466.90</ele>
        <time>2017-02-18T10:08:31Z</time>
      </trkpt>
      <trkpt lat="42.510897000" lon="-2.432543000">
        <ele>466.50</ele>
        <time>2017-02-18T10:08:32Z</time>
      </trkpt>
      <trkpt lat="42.510809000" lon="-2.432586000">
        <ele>466.10</ele>
        <time>2017-02-18T10:08:33Z</time>
      </trkpt>
      <trkpt lat="42.510724000" lon="-2.432632000">
        <ele>465.80</ele>
        <time>2017-02-18T10:08:34Z</time>
      </trkpt>
      <trkpt lat="42.510643000" lon="-2.432679000">
        <ele>465.60</ele>
        <time>2017-02-18T10:08:35Z</time>
      </trkpt>
      <trkpt lat="42.510564000" lon="-2.432723000">
        <ele>465.50</ele>
        <time>2017-02-18T10:08:36Z</time>
      </trkpt>
      <trkpt lat="42.510485000" lon="-2.432768000">
        <ele>465.00</ele>
        <time>2017-02-18T10:08:37Z</time>
      </trkpt>
      <trkpt lat="42.510337000" lon="-2.432863000">
        <ele>464.00</ele>
        <time>2017-02-18T10:08:39Z</time>
      </trkpt>
      <trkpt lat="42.510266000" lon="-2.432902000">
        <ele>463.60</ele>
        <time>2017-02-18T10:08:40Z</time>
      </trkpt>
      <trkpt lat="42.510196000" lon="-2.432940000">
        <ele>463.10</ele>
        <time>2017-02-18T10:08:41Z</time>
      </trkpt>
      <trkpt lat="42.510130000" lon="-2.432980000">
        <ele>462.70</ele>
        <time>2017-02-18T10:08:42Z</time>
      </trkpt>
      <trkpt lat="42.510065000" lon="-2.433024000">
        <ele>462.40</ele>
        <time>2017-02-18T10:08:43Z</time>
      </trkpt>
      <trkpt lat="42.510001000" lon="-2.433069000">
        <ele>462.20</ele>
        <time>2017-02-18T10:08:44Z</time>
      </trkpt>
      <trkpt lat="42.509939000" lon="-2.433116000">
        <ele>462.00</ele>
        <time>2017-02-18T10:08:45Z</time>
      </trkpt>
      <trkpt lat="42.509879000" lon="-2.433164000">
        <ele>461.90</ele>
        <time>2017-02-18T10:08:46Z</time>
      </trkpt>
      <trkpt lat="42.509821000" lon="-2.433219000">
        <ele>462.10</ele>
        <time>2017-02-18T10:08:47Z</time>
      </trkpt>
      <trkpt lat="42.509765000" lon="-2.433276000">
        <ele>462.30</ele>
        <time>2017-02-18T10:08:48Z</time>
      </trkpt>
      <trkpt lat="42.509710000" lon="-2.433333000">
        <ele>462.10</ele>
        <time>2017-02-18T10:08:49Z</time>
      </trkpt>
      <trkpt lat="42.509655000" lon="-2.433391000">
        <ele>461.90</ele>
        <time>2017-02-18T10:08:50Z</time>
      </trkpt>
      <trkpt lat="42.509600000" lon="-2.433454000">
        <ele>461.90</ele>
        <time>2017-02-18T10:08:51Z</time>
      </trkpt>
      <trkpt lat="42.509545000" lon="-2.433516000">
        <ele>461.90</ele>
        <time>2017-02-18T10:08:52Z</time>
      </trkpt>
      <trkpt lat="42.509495000" lon="-2.433576000">
        <ele>461.70</ele>
        <time>2017-02-18T10:08:53Z</time>
      </trkpt>
      <trkpt lat="42.509445000" lon="-2.433637000">
        <ele>461.70</ele>
        <time>2017-02-18T10:08:54Z</time>
      </trkpt>
      <trkpt lat="42.509388000" lon="-2.433699000">
        <ele>461.70</ele>
        <time>2017-02-18T10:08:55Z</time>
      </trkpt>
      <trkpt lat="42.509323000" lon="-2.433753000">
        <ele>461.70</ele>
        <time>2017-02-18T10:08:56Z</time>
      </trkpt>
      <trkpt lat="42.509251000" lon="-2.433800000">
        <ele>461.50</ele>
        <time>2017-02-18T10:08:57Z</time>
      </trkpt>
      <trkpt lat="42.509168000" lon="-2.433830000">
        <ele>461.40</ele>
        <time>2017-02-18T10:08:58Z</time>
      </trkpt>
      <trkpt lat="42.509078000" lon="-2.433853000">
        <ele>460.70</ele>
        <time>2017-02-18T10:08:59Z</time>
      </trkpt>
      <trkpt lat="42.508985000" lon="-2.433874000">
        <ele>460.10</ele>
        <time>2017-02-18T10:09:00Z</time>
      </trkpt>
      <trkpt lat="42.508891000" lon="-2.433902000">
        <ele>459.60</ele>
        <time>2017-02-18T10:09:01Z</time>
      </trkpt>
      <trkpt lat="42.508797000" lon="-2.433933000">
        <ele>459.30</ele>
        <time>2017-02-18T10:09:02Z</time>
      </trkpt>
      <trkpt lat="42.508703000" lon="-2.433965000">
        <ele>458.40</ele>
        <time>2017-02-18T10:09:03Z</time>
      </trkpt>
      <trkpt lat="42.508614000" lon="-2.433996000">
        <ele>457.70</ele>
        <time>2017-02-18T10:09:04Z</time>
      </trkpt>
      <trkpt lat="42.508526000" lon="-2.434026000">
        <ele>457.20</ele>
        <time>2017-02-18T10:09:05Z</time>
      </trkpt>
      <trkpt lat="42.508440000" lon="-2.434060000">
        <ele>456.80</ele>
        <time>2017-02-18T10:09:06Z</time>
      </trkpt>
      <trkpt lat="42.508359000" lon="-2.434101000">
        <ele>456.50</ele>
        <time>2017-02-18T10:09:07Z</time>
      </trkpt>
      <trkpt lat="42.508285000" lon="-2.434149000">
        <ele>456.20</ele>
        <time>2017-02-18T10:09:08Z</time>
      </trkpt>
      <trkpt lat="42.508214000" lon="-2.434201000">
        <ele>455.90</ele>
        <time>2017-02-18T10:09:09Z</time>
      </trkpt>
      <trkpt lat="42.508151000" lon="-2.434259000">
        <ele>455.70</ele>
        <time>2017-02-18T10:09:10Z</time>
      </trkpt>
      <trkpt lat="42.508091000" lon="-2.434321000">
        <ele>455.40</ele>
        <time>2017-02-18T10:09:11Z</time>
      </trkpt>
      <trkpt lat="42.508035000" lon="-2.434384000">
        <ele>455.20</ele>
        <time>2017-02-18T10:09:12Z</time>
      </trkpt>
      <trkpt lat="42.507984000" lon="-2.434451000">
        <ele>455.00</ele>
        <time>2017-02-18T10:09:13Z</time>
      </trkpt>
      <trkpt lat="42.507940000" lon="-2.434516000">
        <ele>454.90</ele>
        <time>2017-02-18T10:09:14Z</time>
      </trkpt>
      <trkpt lat="42.507893000" lon="-2.434579000">
        <ele>454.80</ele>
        <time>2017-02-18T10:09:15Z</time>
      </trkpt>
      <trkpt lat="42.507850000" lon="-2.434638000">
        <ele>454.70</ele>
        <time>2017-02-18T10:09:16Z</time>
      </trkpt>
      <trkpt lat="42.507809000" lon="-2.434693000">
        <ele>454.70</ele>
        <time>2017-02-18T10:09:17Z</time>
      </trkpt>
      <trkpt lat="42.507771000" lon="-2.434745000">
        <ele>454.70</ele>
        <time>2017-02-18T10:09:18Z</time>
      </trkpt>
      <trkpt lat="42.507736000" lon="-2.434789000">
        <ele>454.80</ele>
        <time>2017-02-18T10:09:19Z</time>
      </trkpt>
      <trkpt lat="42.507701000" lon="-2.434829000">
        <ele>454.80</ele>
        <time>2017-02-18T10:09:20Z</time>
      </trkpt>
      <trkpt lat="42.507667000" lon="-2.434866000">
        <ele>455.00</ele>
        <time>2017-02-18T10:09:21Z</time>
      </trkpt>
      <trkpt lat="42.507637000" lon="-2.434900000">
        <ele>455.10</ele>
        <time>2017-02-18T10:09:22Z</time>
      </trkpt>
      <trkpt lat="42.507602000" lon="-2.434931000">
        <ele>455.20</ele>
        <time>2017-02-18T10:09:23Z</time>
      </trkpt>
      <trkpt lat="42.507568000" lon="-2.434960000">
        <ele>455.20</ele>
        <time>2017-02-18T10:09:24Z</time>
      </trkpt>
      <trkpt lat="42.507532000" lon="-2.434984000">
        <ele>455.40</ele>
        <time>2017-02-18T10:09:25Z</time>
      </trkpt>
      <trkpt lat="42.507496000" lon="-2.435007000">
        <ele>455.50</ele>
        <time>2017-02-18T10:09:26Z</time>
      </trkpt>
      <trkpt lat="42.507463000" lon="-2.435031000">
        <ele>455.70</ele>
        <time>2017-02-18T10:09:27Z</time>
      </trkpt>
      <trkpt lat="42.507430000" lon="-2.435053000">
        <ele>455.80</ele>
        <time>2017-02-18T10:09:28Z</time>
      </trkpt>
      <trkpt lat="42.507391000" lon="-2.435072000">
        <ele>455.90</ele>
        <time>2017-02-18T10:09:29Z</time>
      </trkpt>
      <trkpt lat="42.507348000" lon="-2.435093000">
        <ele>455.90</ele>
        <time>2017-02-18T10:09:30Z</time>
      </trkpt>
      <trkpt lat="42.507302000" lon="-2.435114000">
        <ele>455.90</ele>
        <time>2017-02-18T10:09:31Z</time>
      </trkpt>
      <trkpt lat="42.507260000" lon="-2.435127000">
        <ele>456.00</ele>
        <time>2017-02-18T10:09:32Z</time>
      </trkpt>
      <trkpt lat="42.507218000" lon="-2.435141000">
        <ele>456.00</ele>
        <time>2017-02-18T10:09:33Z</time>
      </trkpt>
      <trkpt lat="42.507180000" lon="-2.435157000">
        <ele>456.00</ele>
        <time>2017-02-18T10:09:34Z</time>
      </trkpt>
      <trkpt lat="42.507143000" lon="-2.435172000">
        <ele>456.00</ele>
        <time>2017-02-18T10:09:35Z</time>
      </trkpt>
      <trkpt lat="42.507108000" lon="-2.435181000">
        <ele>456.00</ele>
        <time>2017-02-18T10:09:36Z</time>
      </trkpt>
      <trkpt lat="42.507076000" lon="-2.435189000">
        <ele>456.10</ele>
        <time>2017-02-18T10:09:37Z</time>
      </trkpt>
      <trkpt lat="42.507045000" lon="-2.435195000">
        <ele>456.20</ele>
        <time>2017-02-18T10:09:38Z</time>
      </trkpt>
      <trkpt lat="42.507015000" lon="-2.435201000">
        <ele>456.30</ele>
        <time>2017-02-18T10:09:39Z</time>
      </trkpt>
      <trkpt lat="42.506958000" lon="-2.435206000">
        <ele>456.40</ele>
        <time>2017-02-18T10:09:41Z</time>
      </trkpt>
      <trkpt lat="42.506928000" lon="-2.435209000">
        <ele>456.40</ele>
        <time>2017-02-18T10:09:42Z</time>
      </trkpt>
      <trkpt lat="42.506897000" lon="-2.435208000">
        <ele>456.60</ele>
        <time>2017-02-18T10:09:43Z</time>
      </trkpt>
      <trkpt lat="42.506866000" lon="-2.435209000">
        <ele>456.80</ele>
        <time>2017-02-18T10:09:44Z</time>
      </trkpt>
      <trkpt lat="42.506838000" lon="-2.435206000">
        <ele>456.90</ele>
        <time>2017-02-18T10:09:45Z</time>
      </trkpt>
      <trkpt lat="42.506812000" lon="-2.435204000">
        <ele>457.00</ele>
        <time>2017-02-18T10:09:46Z</time>
      </trkpt>
      <trkpt lat="42.506790000" lon="-2.435203000">
        <ele>457.20</ele>
        <time>2017-02-18T10:09:47Z</time>
      </trkpt>
      <trkpt lat="42.506773000" lon="-2.435199000">
        <ele>457.30</ele>
        <time>2017-02-18T10:09:48Z</time>
      </trkpt>
      <trkpt lat="42.506754000" lon="-2.435199000">
        <ele>457.50</ele>
        <time>2017-02-18T10:09:49Z</time>
      </trkpt>
      <trkpt lat="42.506740000" lon="-2.435205000">
        <ele>457.70</ele>
        <time>2017-02-18T10:09:50Z</time>
      </trkpt>
      <trkpt lat="42.506728000" lon="-2.435215000">
        <ele>457.90</ele>
        <time>2017-02-18T10:09:51Z</time>
      </trkpt>
      <trkpt lat="42.506717000" lon="-2.435219000">
        <ele>458.10</ele>
        <time>2017-02-18T10:09:52Z</time>
      </trkpt>
      <trkpt lat="42.506713000" lon="-2.435220000">
        <ele>458.20</ele>
        <time>2017-02-18T10:09:53Z</time>
      </trkpt>
      <trkpt lat="42.506710000" lon="-2.435225000">
        <ele>458.30</ele>
        <time>2017-02-18T10:09:54Z</time>
      </trkpt>
      <trkpt lat="42.506706000" lon="-2.435227000">
        <ele>458.30</ele>
        <time>2017-02-18T10:09:55Z</time>
      </trkpt>
      <trkpt lat="42.506704000" lon="-2.435227000">
        <ele>458.40</ele>
        <time>2017-02-18T10:09:56Z</time>
      </trkpt>
      <trkpt lat="42.506703000" lon="-2.435228000">
        <ele>458.50</ele>
        <time>2017-02-18T10:09:57Z</time>
      </trkpt>
      <trkpt lat="42.506703000" lon="-2.435227000">
        <ele>458.60</ele>
        <time>2017-02-18T10:09:58Z</time>
      </trkpt>
      <trkpt lat="42.506703000" lon="-2.435225000">
        <ele>458.70</ele>
        <time>2017-02-18T10:09:59Z</time>
      </trkpt>
      <trkpt lat="42.506704000" lon="-2.435224000">
        <ele>458.90</ele>
        <time>2017-02-18T10:10:00Z</time>
      </trkpt>
      <trkpt lat="42.506704000" lon="-2.435223000">
        <ele>459.00</ele>
        <time>2017-02-18T10:10:01Z</time>
      </trkpt>
      <trkpt lat="42.506702000" lon="-2.435223000">
        <ele>459.00</ele>
        <time>2017-02-18T10:10:02Z</time>
      </trkpt>
      <trkpt lat="42.506701000" lon="-2.435224000">
        <ele>459.10</ele>
        <time>2017-02-18T10:10:03Z</time>
      </trkpt>
      <trkpt lat="42.506700000" lon="-2.435224000">
        <ele>459.10</ele>
        <time>2017-02-18T10:10:04Z</time>
      </trkpt>
      <trkpt lat="42.506699000" lon="-2.435223000">
        <ele>458.90</ele>
        <time>2017-02-18T10:10:05Z</time>
      </trkpt>
      <trkpt lat="42.506699000" lon="-2.435222000">
        <ele>458.80</ele>
        <time>2017-02-18T10:10:06Z</time>
      </trkpt>
      <trkpt lat="42.506699000" lon="-2.435221000">
        <ele>458.70</ele>
        <time>2017-02-18T10:10:07Z</time>
      </trkpt>
      <trkpt lat="42.506699000" lon="-2.435223000">
        <ele>458.60</ele>
        <time>2017-02-18T10:10:08Z</time>
      </trkpt>
      <trkpt lat="42.506699000" lon="-2.435223000">
        <ele>458.50</ele>
        <time>2017-02-18T10:10:09Z</time>
      </trkpt>
      <trkpt lat="42.506699000" lon="-2.435225000">
        <ele>458.50</ele>
        <time>2017-02-18T10:10:10Z</time>
      </trkpt>
      <trkpt lat="42.506699000" lon="-2.435225000">
        <ele>458.40</ele>
        <time>2017-02-18T10:10:11Z</time>
      </trkpt>
      <trkpt lat="42.506699000" lon="-2.435226000">
        <ele>458.40</ele>
        <time>2017-02-18T10:10:12Z</time>
      </trkpt>
      <trkpt lat="42.506699000" lon="-2.435227000">
        <ele>458.40</ele>
        <time>2017-02-18T10:10:13Z</time>
      </trkpt>
      <trkpt lat="42.506698000" lon="-2.435228000">
        <ele>458.50</ele>
        <time>2017-02-18T10:10:14Z</time>
      </trkpt>
      <trkpt lat="42.506698000" lon="-2.435227000">
        <ele>458.50</ele>
        <time>2017-02-18T10:10:15Z</time>
      </trkpt>
      <trkpt lat="42.506698000" lon="-2.435225000">
        <ele>458.50</ele>
        <time>2017-02-18T10:10:16Z</time>
      </trkpt>
      <trkpt lat="42.506697000" lon="-2.435223000">
        <ele>458.50</ele>
        <time>2017-02-18T10:10:17Z</time>
      </trkpt>
      <trkpt lat="42.506696000" lon="-2.435221000">
        <ele>458.50</ele>
        <time>2017-02-18T10:10:18Z</time>
      </trkpt>
      <trkpt lat="42.506696000" lon="-2.435220000">
        <ele>458.60</ele>
        <time>2017-02-18T10:10:19Z</time>
      </trkpt>
      <trkpt lat="42.506695000" lon="-2.435218000">
        <ele>458.70</ele>
        <time>2017-02-18T10:10:20Z</time>
      </trkpt>
      <trkpt lat="42.506694000" lon="-2.435217000">
        <ele>458.70</ele>
        <time>2017-02-18T10:10:21Z</time>
      </trkpt>
      <trkpt lat="42.506694000" lon="-2.435216000">
        <ele>458.80</ele>
        <time>2017-02-18T10:10:22Z</time>
      </trkpt>
      <trkpt lat="42.506694000" lon="-2.435215000">
        <ele>458.70</ele>
        <time>2017-02-18T10:10:23Z</time>
      </trkpt>
      <trkpt lat="42.506693000" lon="-2.435214000">
        <ele>458.60</ele>
        <time>2017-02-18T10:10:24Z</time>
      </trkpt>
      <trkpt lat="42.506693000" lon="-2.435212000">
        <ele>458.50</ele>
        <time>2017-02-18T10:10:25Z</time>
      </trkpt>
      <trkpt lat="42.506694000" lon="-2.435210000">
        <ele>458.50</ele>
        <time>2017-02-18T10:10:26Z</time>
      </trkpt>
      <trkpt lat="42.506694000" lon="-2.435209000">
        <ele>458.50</ele>
        <time>2017-02-18T10:10:27Z</time>
      </trkpt>
      <trkpt lat="42.506694000" lon="-2.435207000">
        <ele>458.40</ele>
        <time>2017-02-18T10:10:28Z</time>
      </trkpt>
      <trkpt lat="42.506695000" lon="-2.435206000">
        <ele>458.40</ele>
        <time>2017-02-18T10:10:29Z</time>
      </trkpt>
      <trkpt lat="42.506695000" lon="-2.435205000">
        <ele>458.40</ele>
        <time>2017-02-18T10:10:30Z</time>
      </trkpt>
      <trkpt lat="42.506696000" lon="-2.435206000">
        <ele>458.40</ele>
        <time>2017-02-18T10:10:31Z</time>
      </trkpt>
      <trkpt lat="42.506697000" lon="-2.435205000">
        <ele>458.30</ele>
        <time>2017-02-18T10:10:32Z</time>
      </trkpt>
      <trkpt lat="42.506696000" lon="-2.435205000">
        <ele>458.20</ele>
        <time>2017-02-18T10:10:33Z</time>
      </trkpt>
      <trkpt lat="42.506697000" lon="-2.435205000">
        <ele>458.10</ele>
        <time>2017-02-18T10:10:34Z</time>
      </trkpt>
      <trkpt lat="42.506698000" lon="-2.435205000">
        <ele>458.30</ele>
        <time>2017-02-18T10:10:35Z</time>
      </trkpt>
      <trkpt lat="42.506699000" lon="-2.435205000">
        <ele>458.40</ele>
        <time>2017-02-18T10:10:36Z</time>
      </trkpt>
      <trkpt lat="42.506700000" lon="-2.435207000">
        <ele>458.40</ele>
        <time>2017-02-18T10:10:37Z</time>
      </trkpt>
      <trkpt lat="42.506701000" lon="-2.435207000">
        <ele>458.40</ele>
        <time>2017-02-18T10:10:38Z</time>
      </trkpt>
      <trkpt lat="42.506701000" lon="-2.435210000">
        <ele>458.50</ele>
        <time>2017-02-18T10:10:39Z</time>
      </trkpt>
      <trkpt lat="42.506696000" lon="-2.435220000">
        <ele>458.50</ele>
        <time>2017-02-18T10:10:40Z</time>
      </trkpt>
      <trkpt lat="42.506688000" lon="-2.435238000">
        <ele>458.50</ele>
        <time>2017-02-18T10:10:41Z</time>
      </trkpt>
      <trkpt lat="42.506681000" lon="-2.435278000">
        <ele>458.40</ele>
        <time>2017-02-18T10:10:43Z</time>
      </trkpt>
      <trkpt lat="42.506685000" lon="-2.435297000">
        <ele>458.40</ele>
        <time>2017-02-18T10:10:44Z</time>
      </trkpt>
      <trkpt lat="42.506685000" lon="-2.435321000">
        <ele>458.30</ele>
        <time>2017-02-18T10:10:45Z</time>
      </trkpt>
      <trkpt lat="42.506684000" lon="-2.435343000">
        <ele>458.30</ele>
        <time>2017-02-18T10:10:46Z</time>
      </trkpt>
      <trkpt lat="42.506681000" lon="-2.435368000">
        <ele>458.20</ele>
        <time>2017-02-18T10:10:47Z</time>
      </trkpt>
      <trkpt lat="42.506682000" lon="-2.435398000">
        <ele>458.20</ele>
        <time>2017-02-18T10:10:48Z</time>
      </trkpt>
      <trkpt lat="42.506691000" lon="-2.435430000">
        <ele>458.20</ele>
        <time>2017-02-18T10:10:49Z</time>
      </trkpt>
      <trkpt lat="42.506710000" lon="-2.435457000">
        <ele>458.10</ele>
        <time>2017-02-18T10:10:50Z</time>
      </trkpt>
      <trkpt lat="42.506730000" lon="-2.435484000">
        <ele>458.20</ele>
        <time>2017-02-18T10:10:51Z</time>
      </trkpt>
      <trkpt lat="42.506745000" lon="-2.435515000">
        <ele>458.20</ele>
        <time>2017-02-18T10:10:52Z</time>
      </trkpt>
      <trkpt lat="42.506756000" lon="-2.435550000">
        <ele>458.30</ele>
        <time>2017-02-18T10:10:53Z</time>
      </trkpt>
      <trkpt lat="42.506765000" lon="-2.435586000">
        <ele>458.40</ele>
        <time>2017-02-18T10:10:54Z</time>
      </trkpt>
      <trkpt lat="42.506773000" lon="-2.435621000">
        <ele>458.40</ele>
        <time>2017-02-18T10:10:55Z</time>
      </trkpt>
      <trkpt lat="42.506781000" lon="-2.435652000">
        <ele>458.40</ele>
        <time>2017-02-18T10:10:56Z</time>
      </trkpt>
      <trkpt lat="42.506787000" lon="-2.435686000">
        <ele>458.50</ele>
        <time>2017-02-18T10:10:57Z</time>
      </trkpt>
      <trkpt lat="42.506790000" lon="-2.435716000">
        <ele>458.50</ele>
        <time>2017-02-18T10:10:58Z</time>
      </trkpt>
      <trkpt lat="42.506800000" lon="-2.435745000">
        <ele>458.50</ele>
        <time>2017-02-18T10:10:59Z</time>
      </trkpt>
      <trkpt lat="42.506794000" lon="-2.435777000">
        <ele>458.50</ele>
        <time>2017-02-18T10:11:00Z</time>
      </trkpt>
      <trkpt lat="42.506789000" lon="-2.435809000">
        <ele>458.50</ele>
        <time>2017-02-18T10:11:01Z</time>
      </trkpt>
      <trkpt lat="42.506786000" lon="-2.435846000">
        <ele>458.50</ele>
        <time>2017-02-18T10:11:02Z</time>
      </trkpt>
      <trkpt lat="42.506780000" lon="-2.435880000">
        <ele>458.40</ele>
        <time>2017-02-18T10:11:03Z</time>
      </trkpt>
      <trkpt lat="42.506774000" lon="-2.435923000">
        <ele>458.40</ele>
        <time>2017-02-18T10:11:04Z</time>
      </trkpt>
      <trkpt lat="42.506770000" lon="-2.435968000">
        <ele>458.30</ele>
        <time>2017-02-18T10:11:05Z</time>
      </trkpt>
      <trkpt lat="42.506764000" lon="-2.436013000">
        <ele>458.20</ele>
        <time>2017-02-18T10:11:06Z</time>
      </trkpt>
      <trkpt lat="42.506762000" lon="-2.436059000">
        <ele>458.10</ele>
        <time>2017-02-18T10:11:07Z</time>
      </trkpt>
      <trkpt lat="42.506761000" lon="-2.436107000">
        <ele>458.10</ele>
        <time>2017-02-18T10:11:08Z</time>
      </trkpt>
      <trkpt lat="42.506764000" lon="-2.436151000">
        <ele>458.00</ele>
        <time>2017-02-18T10:11:09Z</time>
      </trkpt>
      <trkpt lat="42.506768000" lon="-2.436195000">
        <ele>458.00</ele>
        <time>2017-02-18T10:11:10Z</time>
      </trkpt>
      <trkpt lat="42.506773000" lon="-2.436239000">
        <ele>458.00</ele>
        <time>2017-02-18T10:11:11Z</time>
      </trkpt>
      <trkpt lat="42.506780000" lon="-2.436284000">
        <ele>457.90</ele>
        <time>2017-02-18T10:11:12Z</time>
      </trkpt>
      <trkpt lat="42.506791000" lon="-2.436329000">
        <ele>457.90</ele>
        <time>2017-02-18T10:11:13Z</time>
      </trkpt>
      <trkpt lat="42.506803000" lon="-2.436372000">
        <ele>457.90</ele>
        <time>2017-02-18T10:11:14Z</time>
      </trkpt>
      <trkpt lat="42.506814000" lon="-2.436414000">
        <ele>457.90</ele>
        <time>2017-02-18T10:11:15Z</time>
      </trkpt>
      <trkpt lat="42.506823000" lon="-2.436458000">
        <ele>457.90</ele>
        <time>2017-02-18T10:11:16Z</time>
      </trkpt>
      <trkpt lat="42.506835000" lon="-2.436502000">
        <ele>457.70</ele>
        <time>2017-02-18T10:11:17Z</time>
      </trkpt>
      <trkpt lat="42.506849000" lon="-2.436543000">
        <ele>457.60</ele>
        <time>2017-02-18T10:11:18Z</time>
      </trkpt>
      <trkpt lat="42.506864000" lon="-2.436587000">
        <ele>457.40</ele>
        <time>2017-02-18T10:11:19Z</time>
      </trkpt>
      <trkpt lat="42.506880000" lon="-2.436632000">
        <ele>457.30</ele>
        <time>2017-02-18T10:11:20Z</time>
      </trkpt>
      <trkpt lat="42.506893000" lon="-2.436684000">
        <ele>457.10</ele>
        <time>2017-02-18T10:11:21Z</time>
      </trkpt>
      <trkpt lat="42.506910000" lon="-2.436737000">
        <ele>457.00</ele>
        <time>2017-02-18T10:11:22Z</time>
      </trkpt>
      <trkpt lat="42.506930000" lon="-2.436788000">
        <ele>457.00</ele>
        <time>2017-02-18T10:11:23Z</time>
      </trkpt>
      <trkpt lat="42.506948000" lon="-2.436843000">
        <ele>456.90</ele>
        <time>2017-02-18T10:11:24Z</time>
      </trkpt>
      <trkpt lat="42.506963000" lon="-2.436903000">
        <ele>456.80</ele>
        <time>2017-02-18T10:11:25Z</time>
      </trkpt>
      <trkpt lat="42.506981000" lon="-2.436970000">
        <ele>456.70</ele>
        <time>2017-02-18T10:11:26Z</time>
      </trkpt>
      <trkpt lat="42.506998000" lon="-2.437042000">
        <ele>456.30</ele>
        <time>2017-02-18T10:11:27Z</time>
      </trkpt>
      <trkpt lat="42.507019000" lon="-2.437107000">
        <ele>456.10</ele>
        <time>2017-02-18T10:11:28Z</time>
      </trkpt>
      <trkpt lat="42.507033000" lon="-2.437174000">
        <ele>455.80</ele>
        <time>2017-02-18T10:11:29Z</time>
      </trkpt>
      <trkpt lat="42.507036000" lon="-2.437233000">
        <ele>455.60</ele>
        <time>2017-02-18T10:11:30Z</time>
      </trkpt>
      <trkpt lat="42.507034000" lon="-2.437273000">
        <ele>455.10</ele>
        <time>2017-02-18T10:11:31Z</time>
      </trkpt>
      <trkpt lat="42.507022000" lon="-2.437318000">
        <ele>454.70</ele>
        <time>2017-02-18T10:11:32Z</time>
      </trkpt>
      <trkpt lat="42.507008000" lon="-2.437356000">
        <ele>454.20</ele>
        <time>2017-02-18T10:11:33Z</time>
      </trkpt>
      <trkpt lat="42.506995000" lon="-2.437391000">
        <ele>453.80</ele>
        <time>2017-02-18T10:11:34Z</time>
      </trkpt>
      <trkpt lat="42.506979000" lon="-2.437420000">
        <ele>453.10</ele>
        <time>2017-02-18T10:11:35Z</time>
      </trkpt>
      <trkpt lat="42.506950000" lon="-2.437466000">
        <ele>452.60</ele>
        <time>2017-02-18T10:11:36Z</time>
      </trkpt>
      <trkpt lat="42.506916000" lon="-2.437510000">
        <ele>452.10</ele>
        <time>2017-02-18T10:11:37Z</time>
      </trkpt>
      <trkpt lat="42.506878000" lon="-2.437565000">
        <ele>451.80</ele>
        <time>2017-02-18T10:11:38Z</time>
      </trkpt>
      <trkpt lat="42.506833000" lon="-2.437635000">
        <ele>451.00</ele>
        <time>2017-02-18T10:11:39Z</time>
      </trkpt>
      <trkpt lat="42.506791000" lon="-2.437701000">
        <ele>450.40</ele>
        <time>2017-02-18T10:11:40Z</time>
      </trkpt>
      <trkpt lat="42.506757000" lon="-2.437753000">
        <ele>449.70</ele>
        <time>2017-02-18T10:11:41Z</time>
      </trkpt>
      <trkpt lat="42.506731000" lon="-2.437791000">
        <ele>449.10</ele>
        <time>2017-02-18T10:11:42Z</time>
      </trkpt>
      <trkpt lat="42.506712000" lon="-2.437816000">
        <ele>448.30</ele>
        <time>2017-02-18T10:11:43Z</time>
      </trkpt>
      <trkpt lat="42.506667000" lon="-2.437862000">
        <ele>447.20</ele>
        <time>2017-02-18T10:11:45Z</time>
      </trkpt>
      <trkpt lat="42.506651000" lon="-2.437881000">
        <ele>446.90</ele>
        <time>2017-02-18T10:11:46Z</time>
      </trkpt>
      <trkpt lat="42.506633000" lon="-2.437904000">
        <ele>446.50</ele>
        <time>2017-02-18T10:11:47Z</time>
      </trkpt>
      <trkpt lat="42.506613000" lon="-2.437927000">
        <ele>446.20</ele>
        <time>2017-02-18T10:11:48Z</time>
      </trkpt>
      <trkpt lat="42.506597000" lon="-2.437945000">
        <ele>445.80</ele>
        <time>2017-02-18T10:11:49Z</time>
      </trkpt>
      <trkpt lat="42.506586000" lon="-2.437962000">
        <ele>445.40</ele>
        <time>2017-02-18T10:11:50Z</time>
      </trkpt>
      <trkpt lat="42.506576000" lon="-2.437974000">
        <ele>445.00</ele>
        <time>2017-02-18T10:11:51Z</time>
      </trkpt>
      <trkpt lat="42.506568000" lon="-2.437992000">
        <ele>444.60</ele>
        <time>2017-02-18T10:11:52Z</time>
      </trkpt>
      <trkpt lat="42.506548000" lon="-2.438011000">
        <ele>444.40</ele>
        <time>2017-02-18T10:11:53Z</time>
      </trkpt>
      <trkpt lat="42.506522000" lon="-2.438039000">
        <ele>444.20</ele>
        <time>2017-02-18T10:11:54Z</time>
      </trkpt>
      <trkpt lat="42.506498000" lon="-2.438072000">
        <ele>444.10</ele>
        <time>2017-02-18T10:11:55Z</time>
      </trkpt>
      <trkpt lat="42.506473000" lon="-2.438110000">
        <ele>443.90</ele>
        <time>2017-02-18T10:11:56Z</time>
      </trkpt>
      <trkpt lat="42.506442000" lon="-2.438158000">
        <ele>443.70</ele>
        <time>2017-02-18T10:11:57Z</time>
      </trkpt>
      <trkpt lat="42.506408000" lon="-2.438211000">
        <ele>443.60</ele>
        <time>2017-02-18T10:11:58Z</time>
      </trkpt>
      <trkpt lat="42.506371000" lon="-2.438272000">
        <ele>443.40</ele>
        <time>2017-02-18T10:11:59Z</time>
      </trkpt>
      <trkpt lat="42.506337000" lon="-2.438338000">
        <ele>443.20</ele>
        <time>2017-02-18T10:12:00Z</time>
      </trkpt>
      <trkpt lat="42.506280000" lon="-2.438348000">
        <ele>443.10</ele>
        <time>2017-02-18T10:12:01Z</time>
      </trkpt>
      <trkpt lat="42.506216000" lon="-2.438337000">
        <ele>443.00</ele>
        <time>2017-02-18T10:12:02Z</time>
      </trkpt>
      <trkpt lat="42.506155000" lon="-2.438305000">
        <ele>442.60</ele>
        <time>2017-02-18T10:12:03Z</time>
      </trkpt>
      <trkpt lat="42.506098000" lon="-2.438265000">
        <ele>442.20</ele>
        <time>2017-02-18T10:12:04Z</time>
      </trkpt>
      <trkpt lat="42.506039000" lon="-2.438226000">
        <ele>441.70</ele>
        <time>2017-02-18T10:12:05Z</time>
      </trkpt>
      <trkpt lat="42.505983000" lon="-2.438188000">
        <ele>441.30</ele>
        <time>2017-02-18T10:12:06Z</time>
      </trkpt>
      <trkpt lat="42.505928000" lon="-2.438150000">
        <ele>441.00</ele>
        <time>2017-02-18T10:12:07Z</time>
      </trkpt>
      <trkpt lat="42.505873000" lon="-2.438116000">
        <ele>440.80</ele>
        <time>2017-02-18T10:12:08Z</time>
      </trkpt>
      <trkpt lat="42.505820000" lon="-2.438084000">
        <ele>440.60</ele>
        <time>2017-02-18T10:12:09Z</time>
      </trkpt>
      <trkpt lat="42.505769000" lon="-2.438050000">
        <ele>440.40</ele>
        <time>2017-02-18T10:12:10Z</time>
      </trkpt>
      <trkpt lat="42.505721000" lon="-2.438016000">
        <ele>440.30</ele>
        <time>2017-02-18T10:12:11Z</time>
      </trkpt>
      <trkpt lat="42.505671000" lon="-2.437982000">
        <ele>440.20</ele>
        <time>2017-02-18T10:12:12Z</time>
      </trkpt>
      <trkpt lat="42.505620000" lon="-2.437951000">
        <ele>439.80</ele>
        <time>2017-02-18T10:12:13Z</time>
      </trkpt>
      <trkpt lat="42.505571000" lon="-2.437918000">
        <ele>439.50</ele>
        <time>2017-02-18T10:12:14Z</time>
      </trkpt>
      <trkpt lat="42.505521000" lon="-2.437895000">
        <ele>439.20</ele>
        <time>2017-02-18T10:12:15Z</time>
      </trkpt>
      <trkpt lat="42.505474000" lon="-2.437875000">
        <ele>439.00</ele>
        <time>2017-02-18T10:12:16Z</time>
      </trkpt>
      <trkpt lat="42.505439000" lon="-2.437858000">
        <ele>438.90</ele>
        <time>2017-02-18T10:12:17Z</time>
      </trkpt>
      <trkpt lat="42.505408000" lon="-2.437844000">
        <ele>438.80</ele>
        <time>2017-02-18T10:12:18Z</time>
      </trkpt>
      <trkpt lat="42.505386000" lon="-2.437824000">
        <ele>438.70</ele>
        <time>2017-02-18T10:12:19Z</time>
      </trkpt>
      <trkpt lat="42.505366000" lon="-2.437812000">
        <ele>438.60</ele>
        <time>2017-02-18T10:12:20Z</time>
      </trkpt>
      <trkpt lat="42.505352000" lon="-2.437808000">
        <ele>438.50</ele>
        <time>2017-02-18T10:12:21Z</time>
      </trkpt>
      <trkpt lat="42.505326000" lon="-2.437811000">
        <ele>438.50</ele>
        <time>2017-02-18T10:12:22Z</time>
      </trkpt>
      <trkpt lat="42.505298000" lon="-2.437817000">
        <ele>438.50</ele>
        <time>2017-02-18T10:12:23Z</time>
      </trkpt>
      <trkpt lat="42.505267000" lon="-2.437830000">
        <ele>438.40</ele>
        <time>2017-02-18T10:12:24Z</time>
      </trkpt>
      <trkpt lat="42.505237000" lon="-2.437852000">
        <ele>438.50</ele>
        <time>2017-02-18T10:12:25Z</time>
      </trkpt>
      <trkpt lat="42.505209000" lon="-2.437885000">
        <ele>438.50</ele>
        <time>2017-02-18T10:12:26Z</time>
      </trkpt>
      <trkpt lat="42.505176000" lon="-2.437922000">
        <ele>438.50</ele>
        <time>2017-02-18T10:12:27Z</time>
      </trkpt>
      <trkpt lat="42.505145000" lon="-2.437961000">
        <ele>438.60</ele>
        <time>2017-02-18T10:12:28Z</time>
      </trkpt>
      <trkpt lat="42.505114000" lon="-2.438000000">
        <ele>438.40</ele>
        <time>2017-02-18T10:12:29Z</time>
      </trkpt>
      <trkpt lat="42.505079000" lon="-2.438040000">
        <ele>438.20</ele>
        <time>2017-02-18T10:12:30Z</time>
      </trkpt>
      <trkpt lat="42.505045000" lon="-2.438082000">
        <ele>438.10</ele>
        <time>2017-02-18T10:12:31Z</time>
      </trkpt>
      <trkpt lat="42.505015000" lon="-2.438124000">
        <ele>438.00</ele>
        <time>2017-02-18T10:12:32Z</time>
      </trkpt>
      <trkpt lat="42.504983000" lon="-2.438165000">
        <ele>438.00</ele>
        <time>2017-02-18T10:12:33Z</time>
      </trkpt>
      <trkpt lat="42.504950000" lon="-2.438211000">
        <ele>437.90</ele>
        <time>2017-02-18T10:12:34Z</time>
      </trkpt>
      <trkpt lat="42.504911000" lon="-2.438256000">
        <ele>437.70</ele>
        <time>2017-02-18T10:12:35Z</time>
      </trkpt>
      <trkpt lat="42.504873000" lon="-2.438300000">
        <ele>437.60</ele>
        <time>2017-02-18T10:12:36Z</time>
      </trkpt>
      <trkpt lat="42.504834000" lon="-2.438346000">
        <ele>437.50</ele>
        <time>2017-02-18T10:12:37Z</time>
      </trkpt>
      <trkpt lat="42.504795000" lon="-2.438394000">
        <ele>437.40</ele>
        <time>2017-02-18T10:12:38Z</time>
      </trkpt>
      <trkpt lat="42.504755000" lon="-2.438446000">
        <ele>437.40</ele>
        <time>2017-02-18T10:12:39Z</time>
      </trkpt>
      <trkpt lat="42.504719000" lon="-2.438501000">
        <ele>437.30</ele>
        <time>2017-02-18T10:12:40Z</time>
      </trkpt>
      <trkpt lat="42.504684000" lon="-2.438559000">
        <ele>437.30</ele>
        <time>2017-02-18T10:12:41Z</time>
      </trkpt>
      <trkpt lat="42.504649000" lon="-2.438613000">
        <ele>437.30</ele>
        <time>2017-02-18T10:12:42Z</time>
      </trkpt>
      <trkpt lat="42.504609000" lon="-2.438657000">
        <ele>437.20</ele>
        <time>2017-02-18T10:12:43Z</time>
      </trkpt>
      <trkpt lat="42.504567000" lon="-2.438685000">
        <ele>437.20</ele>
        <time>2017-02-18T10:12:44Z</time>
      </trkpt>
      <trkpt lat="42.504519000" lon="-2.438698000">
        <ele>437.30</ele>
        <time>2017-02-18T10:12:45Z</time>
      </trkpt>
      <trkpt lat="42.504419000" lon="-2.438696000">
        <ele>437.40</ele>
        <time>2017-02-18T10:12:47Z</time>
      </trkpt>
      <trkpt lat="42.504370000" lon="-2.438695000">
        <ele>437.50</ele>
        <time>2017-02-18T10:12:48Z</time>
      </trkpt>
      <trkpt lat="42.504322000" lon="-2.438697000">
        <ele>437.50</ele>
        <time>2017-02-18T10:12:49Z</time>
      </trkpt>
      <trkpt lat="42.504270000" lon="-2.438697000">
        <ele>437.50</ele>
        <time>2017-02-18T10:12:50Z</time>
      </trkpt>
      <trkpt lat="42.504216000" lon="-2.438695000">
        <ele>437.30</ele>
        <time>2017-02-18T10:12:51Z</time>
      </trkpt>
      <trkpt lat="42.504161000" lon="-2.438690000">
        <ele>437.20</ele>
        <time>2017-02-18T10:12:52Z</time>
      </trkpt>
      <trkpt lat="42.504105000" lon="-2.438692000">
        <ele>437.10</ele>
        <time>2017-02-18T10:12:53Z</time>
      </trkpt>
      <trkpt lat="42.504045000" lon="-2.438694000">
        <ele>437.00</ele>
        <time>2017-02-18T10:12:54Z</time>
      </trkpt>
      <trkpt lat="42.503985000" lon="-2.438695000">
        <ele>437.00</ele>
        <time>2017-02-18T10:12:55Z</time>
      </trkpt>
      <trkpt lat="42.503927000" lon="-2.438700000">
        <ele>437.00</ele>
        <time>2017-02-18T10:12:56Z</time>
      </trkpt>
      <trkpt lat="42.503868000" lon="-2.438702000">
        <ele>437.00</ele>
        <time>2017-02-18T10:12:57Z</time>
      </trkpt>
      <trkpt lat="42.503808000" lon="-2.438709000">
        <ele>437.00</ele>
        <time>2017-02-18T10:12:58Z</time>
      </trkpt>
      <trkpt lat="42.503742000" lon="-2.438714000">
        <ele>436.90</ele>
        <time>2017-02-18T10:12:59Z</time>
      </trkpt>
      <trkpt lat="42.503680000" lon="-2.438724000">
        <ele>436.90</ele>
        <time>2017-02-18T10:13:00Z</time>
      </trkpt>
      <trkpt lat="42.503615000" lon="-2.438728000">
        <ele>436.80</ele>
        <time>2017-02-18T10:13:01Z</time>
      </trkpt>
      <trkpt lat="42.503549000" lon="-2.438732000">
        <ele>436.80</ele>
        <time>2017-02-18T10:13:02Z</time>
      </trkpt>
      <trkpt lat="42.503482000" lon="-2.438739000">
        <ele>436.60</ele>
        <time>2017-02-18T10:13:03Z</time>
      </trkpt>
      <trkpt lat="42.503415000" lon="-2.438750000">
        <ele>436.50</ele>
        <time>2017-02-18T10:13:04Z</time>
      </trkpt>
      <trkpt lat="42.503345000" lon="-2.438765000">
        <ele>436.50</ele>
        <time>2017-02-18T10:13:05Z</time>
      </trkpt>
      <trkpt lat="42.503277000" lon="-2.438776000">
        <ele>436.40</ele>
        <time>2017-02-18T10:13:06Z</time>
      </trkpt>
      <trkpt lat="42.503210000" lon="-2.438778000">
        <ele>436.20</ele>
        <time>2017-02-18T10:13:07Z</time>
      </trkpt>
      <trkpt lat="42.503146000" lon="-2.438783000">
        <ele>436.10</ele>
        <time>2017-02-18T10:13:08Z</time>
      </trkpt>
      <trkpt lat="42.503083000" lon="-2.438787000">
        <ele>436.10</ele>
        <time>2017-02-18T10:13:09Z</time>
      </trkpt>
      <trkpt lat="42.503020000" lon="-2.438788000">
        <ele>436.20</ele>
        <time>2017-02-18T10:13:10Z</time>
      </trkpt>
      <trkpt lat="42.502961000" lon="-2.438790000">
        <ele>436.00</ele>
        <time>2017-02-18T10:13:11Z</time>
      </trkpt>
      <trkpt lat="42.502902000" lon="-2.438793000">
        <ele>435.90</ele>
        <time>2017-02-18T10:13:12Z</time>
      </trkpt>
      <trkpt lat="42.502845000" lon="-2.438796000">
        <ele>435.80</ele>
        <time>2017-02-18T10:13:13Z</time>
      </trkpt>
      <trkpt lat="42.502785000" lon="-2.438804000">
        <ele>435.70</ele>
        <time>2017-02-18T10:13:14Z</time>
      </trkpt>
      <trkpt lat="42.502729000" lon="-2.438804000">
        <ele>435.70</ele>
        <time>2017-02-18T10:13:15Z</time>
      </trkpt>
      <trkpt lat="42.502673000" lon="-2.438799000">
        <ele>435.60</ele>
        <time>2017-02-18T10:13:16Z</time>
      </trkpt>
      <trkpt lat="42.502620000" lon="-2.438796000">
        <ele>435.60</ele>
        <time>2017-02-18T10:13:17Z</time>
      </trkpt>
      <trkpt lat="42.502571000" lon="-2.438793000">
        <ele>435.60</ele>
        <time>2017-02-18T10:13:18Z</time>
      </trkpt>
      <trkpt lat="42.502523000" lon="-2.438790000">
        <ele>435.60</ele>
        <time>2017-02-18T10:13:19Z</time>
      </trkpt>
      <trkpt lat="42.502475000" lon="-2.438787000">
        <ele>435.50</ele>
        <time>2017-02-18T10:13:20Z</time>
      </trkpt>
      <trkpt lat="42.502426000" lon="-2.438785000">
        <ele>435.60</ele>
        <time>2017-02-18T10:13:21Z</time>
      </trkpt>
      <trkpt lat="42.502375000" lon="-2.438782000">
        <ele>435.60</ele>
        <time>2017-02-18T10:13:22Z</time>
      </trkpt>
      <trkpt lat="42.502328000" lon="-2.438775000">
        <ele>435.80</ele>
        <time>2017-02-18T10:13:23Z</time>
      </trkpt>
      <trkpt lat="42.502281000" lon="-2.438772000">
        <ele>435.90</ele>
        <time>2017-02-18T10:13:24Z</time>
      </trkpt>
      <trkpt lat="42.502232000" lon="-2.438764000">
        <ele>436.00</ele>
        <time>2017-02-18T10:13:25Z</time>
      </trkpt>
      <trkpt lat="42.502186000" lon="-2.438759000">
        <ele>436.00</ele>
        <time>2017-02-18T10:13:26Z</time>
      </trkpt>
      <trkpt lat="42.502137000" lon="-2.438761000">
        <ele>435.90</ele>
        <time>2017-02-18T10:13:27Z</time>
      </trkpt>
      <trkpt lat="42.502086000" lon="-2.438761000">
        <ele>435.80</ele>
        <time>2017-02-18T10:13:28Z</time>
      </trkpt>
      <trkpt lat="42.502034000" lon="-2.438761000">
        <ele>435.80</ele>
        <time>2017-02-18T10:13:29Z</time>
      </trkpt>
      <trkpt lat="42.501985000" lon="-2.438764000">
        <ele>435.70</ele>
        <time>2017-02-18T10:13:30Z</time>
      </trkpt>
      <trkpt lat="42.501936000" lon="-2.438760000">
        <ele>435.70</ele>
        <time>2017-02-18T10:13:31Z</time>
      </trkpt>
      <trkpt lat="42.501888000" lon="-2.438755000">
        <ele>435.60</ele>
        <time>2017-02-18T10:13:32Z</time>
      </trkpt>
      <trkpt lat="42.501842000" lon="-2.438757000">
        <ele>435.60</ele>
        <time>2017-02-18T10:13:33Z</time>
      </trkpt>
      <trkpt lat="42.501796000" lon="-2.438755000">
        <ele>435.60</ele>
        <time>2017-02-18T10:13:34Z</time>
      </trkpt>
      <trkpt lat="42.501752000" lon="-2.438756000">
        <ele>435.50</ele>
        <time>2017-02-18T10:13:35Z</time>
      </trkpt>
      <trkpt lat="42.501705000" lon="-2.438757000">
        <ele>435.50</ele>
        <time>2017-02-18T10:13:36Z</time>
      </trkpt>
      <trkpt lat="42.501657000" lon="-2.438762000">
        <ele>435.40</ele>
        <time>2017-02-18T10:13:37Z</time>
      </trkpt>
      <trkpt lat="42.501605000" lon="-2.438774000">
        <ele>435.40</ele>
        <time>2017-02-18T10:13:38Z</time>
      </trkpt>
      <trkpt lat="42.501554000" lon="-2.438776000">
        <ele>435.30</ele>
        <time>2017-02-18T10:13:39Z</time>
      </trkpt>
      <trkpt lat="42.501499000" lon="-2.438777000">
        <ele>435.30</ele>
        <time>2017-02-18T10:13:40Z</time>
      </trkpt>
      <trkpt lat="42.501441000" lon="-2.438781000">
        <ele>435.30</ele>
        <time>2017-02-18T10:13:41Z</time>
      </trkpt>
      <trkpt lat="42.501385000" lon="-2.438783000">
        <ele>435.40</ele>
        <time>2017-02-18T10:13:42Z</time>
      </trkpt>
      <trkpt lat="42.501332000" lon="-2.438783000">
        <ele>435.40</ele>
        <time>2017-02-18T10:13:43Z</time>
      </trkpt>
      <trkpt lat="42.501279000" lon="-2.438782000">
        <ele>435.40</ele>
        <time>2017-02-18T10:13:44Z</time>
      </trkpt>
      <trkpt lat="42.501227000" lon="-2.438784000">
        <ele>435.20</ele>
        <time>2017-02-18T10:13:45Z</time>
      </trkpt>
      <trkpt lat="42.501178000" lon="-2.438786000">
        <ele>435.00</ele>
        <time>2017-02-18T10:13:46Z</time>
      </trkpt>
      <trkpt lat="42.501125000" lon="-2.438787000">
        <ele>434.80</ele>
        <time>2017-02-18T10:13:47Z</time>
      </trkpt>
      <trkpt lat="42.501021000" lon="-2.438790000">
        <ele>434.50</ele>
        <time>2017-02-18T10:13:49Z</time>
      </trkpt>
      <trkpt lat="42.500967000" lon="-2.438790000">
        <ele>434.40</ele>
        <time>2017-02-18T10:13:50Z</time>
      </trkpt>
      <trkpt lat="42.500914000" lon="-2.438790000">
        <ele>434.40</ele>
        <time>2017-02-18T10:13:51Z</time>
      </trkpt>
      <trkpt lat="42.500862000" lon="-2.438792000">
        <ele>434.40</ele>
        <time>2017-02-18T10:13:52Z</time>
      </trkpt>
      <trkpt lat="42.500811000" lon="-2.438796000">
        <ele>434.40</ele>
        <time>2017-02-18T10:13:53Z</time>
      </trkpt>
      <trkpt lat="42.500758000" lon="-2.438798000">
        <ele>434.40</ele>
        <time>2017-02-18T10:13:54Z</time>
      </trkpt>
      <trkpt lat="42.500703000" lon="-2.438801000">
        <ele>434.30</ele>
        <time>2017-02-18T10:13:55Z</time>
      </trkpt>
      <trkpt lat="42.500650000" lon="-2.438802000">
        <ele>434.30</ele>
        <time>2017-02-18T10:13:56Z</time>
      </trkpt>
      <trkpt lat="42.500594000" lon="-2.438808000">
        <ele>434.10</ele>
        <time>2017-02-18T10:13:57Z</time>
      </trkpt>
      <trkpt lat="42.500537000" lon="-2.438815000">
        <ele>434.00</ele>
        <time>2017-02-18T10:13:58Z</time>
      </trkpt>
      <trkpt lat="42.500478000" lon="-2.438820000">
        <ele>433.80</ele>
        <time>2017-02-18T10:13:59Z</time>
      </trkpt>
      <trkpt lat="42.500419000" lon="-2.438823000">
        <ele>433.70</ele>
        <time>2017-02-18T10:14:00Z</time>
      </trkpt>
      <trkpt lat="42.500363000" lon="-2.438825000">
        <ele>433.60</ele>
        <time>2017-02-18T10:14:01Z</time>
      </trkpt>
      <trkpt lat="42.500296000" lon="-2.438845000">
        <ele>433.50</ele>
        <time>2017-02-18T10:14:02Z</time>
      </trkpt>
      <trkpt lat="42.500231000" lon="-2.438859000">
        <ele>433.10</ele>
        <time>2017-02-18T10:14:03Z</time>
      </trkpt>
      <trkpt lat="42.500172000" lon="-2.438863000">
        <ele>432.80</ele>
        <time>2017-02-18T10:14:04Z</time>
      </trkpt>
      <trkpt lat="42.500115000" lon="-2.438870000">
        <ele>432.90</ele>
        <time>2017-02-18T10:14:05Z</time>
      </trkpt>
      <trkpt lat="42.500057000" lon="-2.438879000">
        <ele>433.00</ele>
        <time>2017-02-18T10:14:06Z</time>
      </trkpt>
      <trkpt lat="42.500000000" lon="-2.438894000">
        <ele>432.90</ele>
        <time>2017-02-18T10:14:07Z</time>
      </trkpt>
      <trkpt lat="42.499943000" lon="-2.438906000">
        <ele>432.80</ele>
        <time>2017-02-18T10:14:08Z</time>
      </trkpt>
      <trkpt lat="42.499888000" lon="-2.438921000">
        <ele>432.70</ele>
        <time>2017-02-18T10:14:09Z</time>
      </trkpt>
      <trkpt lat="42.499835000" lon="-2.438938000">
        <ele>432.70</ele>
        <time>2017-02-18T10:14:10Z</time>
      </trkpt>
      <trkpt lat="42.499781000" lon="-2.438959000">
        <ele>432.50</ele>
        <time>2017-02-18T10:14:11Z</time>
      </trkpt>
      <trkpt lat="42.499726000" lon="-2.438981000">
        <ele>432.40</ele>
        <time>2017-02-18T10:14:12Z</time>
      </trkpt>
      <trkpt lat="42.499673000" lon="-2.439001000">
        <ele>432.30</ele>
        <time>2017-02-18T10:14:13Z</time>
      </trkpt>
      <trkpt lat="42.499620000" lon="-2.439021000">
        <ele>432.20</ele>
        <time>2017-02-18T10:14:14Z</time>
      </trkpt>
      <trkpt lat="42.499568000" lon="-2.439039000">
        <ele>432.00</ele>
        <time>2017-02-18T10:14:15Z</time>
      </trkpt>
      <trkpt lat="42.499521000" lon="-2.439052000">
        <ele>431.90</ele>
        <time>2017-02-18T10:14:16Z</time>
      </trkpt>
      <trkpt lat="42.499465000" lon="-2.439065000">
        <ele>431.90</ele>
        <time>2017-02-18T10:14:17Z</time>
      </trkpt>
      <trkpt lat="42.499409000" lon="-2.439078000">
        <ele>431.80</ele>
        <time>2017-02-18T10:14:18Z</time>
      </trkpt>
      <trkpt lat="42.499351000" lon="-2.439094000">
        <ele>431.80</ele>
        <time>2017-02-18T10:14:19Z</time>
      </trkpt>
      <trkpt lat="42.499297000" lon="-2.439110000">
        <ele>431.70</ele>
        <time>2017-02-18T10:14:20Z</time>
      </trkpt>
      <trkpt lat="42.499245000" lon="-2.439130000">
        <ele>431.70</ele>
        <time>2017-02-18T10:14:21Z</time>
      </trkpt>
      <trkpt lat="42.499193000" lon="-2.439151000">
        <ele>431.70</ele>
        <time>2017-02-18T10:14:22Z</time>
      </trkpt>
      <trkpt lat="42.499139000" lon="-2.439170000">
        <ele>431.60</ele>
        <time>2017-02-18T10:14:23Z</time>
      </trkpt>
      <trkpt lat="42.499081000" lon="-2.439192000">
        <ele>431.50</ele>
        <time>2017-02-18T10:14:24Z</time>
      </trkpt>
      <trkpt lat="42.499024000" lon="-2.439208000">
        <ele>431.40</ele>
        <time>2017-02-18T10:14:25Z</time>
      </trkpt>
      <trkpt lat="42.498969000" lon="-2.439229000">
        <ele>431.40</ele>
        <time>2017-02-18T10:14:26Z</time>
      </trkpt>
      <trkpt lat="42.498911000" lon="-2.439248000">
        <ele>431.30</ele>
        <time>2017-02-18T10:14:27Z</time>
      </trkpt>
      <trkpt lat="42.498855000" lon="-2.439270000">
        <ele>431.20</ele>
        <time>2017-02-18T10:14:28Z</time>
      </trkpt>
      <trkpt lat="42.498801000" lon="-2.439295000">
        <ele>431.00</ele>
        <time>2017-02-18T10:14:29Z</time>
      </trkpt>
      <trkpt lat="42.498745000" lon="-2.439325000">
        <ele>430.80</ele>
        <time>2017-02-18T10:14:30Z</time>
      </trkpt>
      <trkpt lat="42.498690000" lon="-2.439353000">
        <ele>430.70</ele>
        <time>2017-02-18T10:14:31Z</time>
      </trkpt>
      <trkpt lat="42.498633000" lon="-2.439384000">
        <ele>430.60</ele>
        <time>2017-02-18T10:14:32Z</time>
      </trkpt>
      <trkpt lat="42.498575000" lon="-2.439411000">
        <ele>430.60</ele>
        <time>2017-02-18T10:14:33Z</time>
      </trkpt>
      <trkpt lat="42.498515000" lon="-2.439438000">
        <ele>430.50</ele>
        <time>2017-02-18T10:14:34Z</time>
      </trkpt>
      <trkpt lat="42.498455000" lon="-2.439463000">
        <ele>430.30</ele>
        <time>2017-02-18T10:14:35Z</time>
      </trkpt>
      <trkpt lat="42.498396000" lon="-2.439491000">
        <ele>430.10</ele>
        <time>2017-02-18T10:14:36Z</time>
      </trkpt>
      <trkpt lat="42.498338000" lon="-2.439521000">
        <ele>429.90</ele>
        <time>2017-02-18T10:14:37Z</time>
      </trkpt>
      <trkpt lat="42.498281000" lon="-2.439550000">
        <ele>429.80</ele>
        <time>2017-02-18T10:14:38Z</time>
      </trkpt>
      <trkpt lat="42.498224000" lon="-2.439580000">
        <ele>429.50</ele>
        <time>2017-02-18T10:14:39Z</time>
      </trkpt>
      <trkpt lat="42.498166000" lon="-2.439607000">
        <ele>429.30</ele>
        <time>2017-02-18T10:14:40Z</time>
      </trkpt>
      <trkpt lat="42.498107000" lon="-2.439631000">
        <ele>429.10</ele>
        <time>2017-02-18T10:14:41Z</time>
      </trkpt>
      <trkpt lat="42.498048000" lon="-2.439655000">
        <ele>429.00</ele>
        <time>2017-02-18T10:14:42Z</time>
      </trkpt>
      <trkpt lat="42.497990000" lon="-2.439676000">
        <ele>428.80</ele>
        <time>2017-02-18T10:14:43Z</time>
      </trkpt>
      <trkpt lat="42.497929000" lon="-2.439700000">
        <ele>428.80</ele>
        <time>2017-02-18T10:14:44Z</time>
      </trkpt>
      <trkpt lat="42.497866000" lon="-2.439725000">
        <ele>428.60</ele>
        <time>2017-02-18T10:14:45Z</time>
      </trkpt>
      <trkpt lat="42.497809000" lon="-2.439745000">
        <ele>428.40</ele>
        <time>2017-02-18T10:14:46Z</time>
      </trkpt>
      <trkpt lat="42.497748000" lon="-2.439763000">
        <ele>428.20</ele>
        <time>2017-02-18T10:14:47Z</time>
      </trkpt>
      <trkpt lat="42.497688000" lon="-2.439780000">
        <ele>428.10</ele>
        <time>2017-02-18T10:14:48Z</time>
      </trkpt>
      <trkpt lat="42.497629000" lon="-2.439795000">
        <ele>428.00</ele>
        <time>2017-02-18T10:14:49Z</time>
      </trkpt>
      <trkpt lat="42.497512000" lon="-2.439822000">
        <ele>427.90</ele>
        <time>2017-02-18T10:14:51Z</time>
      </trkpt>
      <trkpt lat="42.497454000" lon="-2.439831000">
        <ele>427.90</ele>
        <time>2017-02-18T10:14:52Z</time>
      </trkpt>
      <trkpt lat="42.497390000" lon="-2.439837000">
        <ele>427.90</ele>
        <time>2017-02-18T10:14:53Z</time>
      </trkpt>
      <trkpt lat="42.497327000" lon="-2.439839000">
        <ele>427.90</ele>
        <time>2017-02-18T10:14:54Z</time>
      </trkpt>
      <trkpt lat="42.497266000" lon="-2.439838000">
        <ele>428.00</ele>
        <time>2017-02-18T10:14:55Z</time>
      </trkpt>
      <trkpt lat="42.497205000" lon="-2.439846000">
        <ele>428.00</ele>
        <time>2017-02-18T10:14:56Z</time>
      </trkpt>
      <trkpt lat="42.497145000" lon="-2.439852000">
        <ele>427.70</ele>
        <time>2017-02-18T10:14:57Z</time>
      </trkpt>
      <trkpt lat="42.497087000" lon="-2.439859000">
        <ele>427.50</ele>
        <time>2017-02-18T10:14:58Z</time>
      </trkpt>
      <trkpt lat="42.497027000" lon="-2.439867000">
        <ele>427.60</ele>
        <time>2017-02-18T10:14:59Z</time>
      </trkpt>
      <trkpt lat="42.496963000" lon="-2.439877000">
        <ele>427.60</ele>
        <time>2017-02-18T10:15:00Z</time>
      </trkpt>
      <trkpt lat="42.496903000" lon="-2.439887000">
        <ele>427.40</ele>
        <time>2017-02-18T10:15:01Z</time>
      </trkpt>
      <trkpt lat="42.496845000" lon="-2.439895000">
        <ele>427.30</ele>
        <time>2017-02-18T10:15:02Z</time>
      </trkpt>
      <trkpt lat="42.496789000" lon="-2.439905000">
        <ele>426.90</ele>
        <time>2017-02-18T10:15:03Z</time>
      </trkpt>
      <trkpt lat="42.496731000" lon="-2.439915000">
        <ele>426.60</ele>
        <time>2017-02-18T10:15:04Z</time>
      </trkpt>
      <trkpt lat="42.496674000" lon="-2.439923000">
        <ele>426.40</ele>
        <time>2017-02-18T10:15:05Z</time>
      </trkpt>
      <trkpt lat="42.496615000" lon="-2.439931000">
        <ele>426.20</ele>
        <time>2017-02-18T10:15:06Z</time>
      </trkpt>
      <trkpt lat="42.496558000" lon="-2.439944000">
        <ele>425.90</ele>
        <time>2017-02-18T10:15:07Z</time>
      </trkpt>
      <trkpt lat="42.496503000" lon="-2.439958000">
        <ele>425.80</ele>
        <time>2017-02-18T10:15:08Z</time>
      </trkpt>
      <trkpt lat="42.496451000" lon="-2.439970000">
        <ele>425.70</ele>
        <time>2017-02-18T10:15:09Z</time>
      </trkpt>
      <trkpt lat="42.496394000" lon="-2.439978000">
        <ele>425.60</ele>
        <time>2017-02-18T10:15:10Z</time>
      </trkpt>
      <trkpt lat="42.496341000" lon="-2.439985000">
        <ele>425.70</ele>
        <time>2017-02-18T10:15:11Z</time>
      </trkpt>
      <trkpt lat="42.496288000" lon="-2.439995000">
        <ele>425.70</ele>
        <time>2017-02-18T10:15:12Z</time>
      </trkpt>
      <trkpt lat="42.496235000" lon="-2.440005000">
        <ele>425.70</ele>
        <time>2017-02-18T10:15:13Z</time>
      </trkpt>
      <trkpt lat="42.496178000" lon="-2.440014000">
        <ele>425.70</ele>
        <time>2017-02-18T10:15:14Z</time>
      </trkpt>
      <trkpt lat="42.496120000" lon="-2.440031000">
        <ele>425.60</ele>
        <time>2017-02-18T10:15:15Z</time>
      </trkpt>
      <trkpt lat="42.496064000" lon="-2.440054000">
        <ele>425.50</ele>
        <time>2017-02-18T10:15:16Z</time>
      </trkpt>
      <trkpt lat="42.496006000" lon="-2.440083000">
        <ele>425.40</ele>
        <time>2017-02-18T10:15:17Z</time>
      </trkpt>
      <trkpt lat="42.495947000" lon="-2.440108000">
        <ele>425.30</ele>
        <time>2017-02-18T10:15:18Z</time>
      </trkpt>
      <trkpt lat="42.495887000" lon="-2.440126000">
        <ele>425.30</ele>
        <time>2017-02-18T10:15:19Z</time>
      </trkpt>
      <trkpt lat="42.495825000" lon="-2.440144000">
        <ele>425.30</ele>
        <time>2017-02-18T10:15:20Z</time>
      </trkpt>
      <trkpt lat="42.495759000" lon="-2.440164000">
        <ele>425.20</ele>
        <time>2017-02-18T10:15:21Z</time>
      </trkpt>
      <trkpt lat="42.495694000" lon="-2.440177000">
        <ele>425.10</ele>
        <time>2017-02-18T10:15:22Z</time>
      </trkpt>
      <trkpt lat="42.495628000" lon="-2.440181000">
        <ele>425.00</ele>
        <time>2017-02-18T10:15:23Z</time>
      </trkpt>
      <trkpt lat="42.495566000" lon="-2.440182000">
        <ele>424.90</ele>
        <time>2017-02-18T10:15:24Z</time>
      </trkpt>
      <trkpt lat="42.495506000" lon="-2.440179000">
        <ele>424.80</ele>
        <time>2017-02-18T10:15:25Z</time>
      </trkpt>
      <trkpt lat="42.495446000" lon="-2.440174000">
        <ele>424.80</ele>
        <time>2017-02-18T10:15:26Z</time>
      </trkpt>
      <trkpt lat="42.495387000" lon="-2.440166000">
        <ele>424.70</ele>
        <time>2017-02-18T10:15:27Z</time>
      </trkpt>
      <trkpt lat="42.495327000" lon="-2.440160000">
        <ele>424.70</ele>
        <time>2017-02-18T10:15:28Z</time>
      </trkpt>
      <trkpt lat="42.495269000" lon="-2.440158000">
        <ele>424.60</ele>
        <time>2017-02-18T10:15:29Z</time>
      </trkpt>
      <trkpt lat="42.495209000" lon="-2.440174000">
        <ele>424.60</ele>
        <time>2017-02-18T10:15:30Z</time>
      </trkpt>
      <trkpt lat="42.495149000" lon="-2.440188000">
        <ele>424.60</ele>
        <time>2017-02-18T10:15:31Z</time>
      </trkpt>
      <trkpt lat="42.495087000" lon="-2.440209000">
        <ele>424.60</ele>
        <time>2017-02-18T10:15:32Z</time>
      </trkpt>
      <trkpt lat="42.495029000" lon="-2.440233000">
        <ele>424.30</ele>
        <time>2017-02-18T10:15:33Z</time>
      </trkpt>
      <trkpt lat="42.494970000" lon="-2.440261000">
        <ele>424.10</ele>
        <time>2017-02-18T10:15:34Z</time>
      </trkpt>
      <trkpt lat="42.494907000" lon="-2.440286000">
        <ele>423.80</ele>
        <time>2017-02-18T10:15:35Z</time>
      </trkpt>
      <trkpt lat="42.494842000" lon="-2.440312000">
        <ele>423.50</ele>
        <time>2017-02-18T10:15:36Z</time>
      </trkpt>
      <trkpt lat="42.494776000" lon="-2.440338000">
        <ele>423.10</ele>
        <time>2017-02-18T10:15:37Z</time>
      </trkpt>
      <trkpt lat="42.494711000" lon="-2.440364000">
        <ele>422.80</ele>
        <time>2017-02-18T10:15:38Z</time>
      </trkpt>
      <trkpt lat="42.494645000" lon="-2.440391000">
        <ele>422.60</ele>
        <time>2017-02-18T10:15:39Z</time>
      </trkpt>
      <trkpt lat="42.494583000" lon="-2.440421000">
        <ele>422.40</ele>
        <time>2017-02-18T10:15:40Z</time>
      </trkpt>
      <trkpt lat="42.494517000" lon="-2.440451000">
        <ele>422.30</ele>
        <time>2017-02-18T10:15:41Z</time>
      </trkpt>
      <trkpt lat="42.494453000" lon="-2.440481000">
        <ele>422.20</ele>
        <time>2017-02-18T10:15:42Z</time>
      </trkpt>
      <trkpt lat="42.494390000" lon="-2.440511000">
        <ele>422.00</ele>
        <time>2017-02-18T10:15:43Z</time>
      </trkpt>
      <trkpt lat="42.494327000" lon="-2.440542000">
        <ele>421.80</ele>
        <time>2017-02-18T10:15:44Z</time>
      </trkpt>
      <trkpt lat="42.494263000" lon="-2.440575000">
        <ele>421.60</ele>
        <time>2017-02-18T10:15:45Z</time>
      </trkpt>
      <trkpt lat="42.494197000" lon="-2.440601000">
        <ele>421.40</ele>
        <time>2017-02-18T10:15:46Z</time>
      </trkpt>
      <trkpt lat="42.494131000" lon="-2.440627000">
        <ele>421.40</ele>
        <time>2017-02-18T10:15:47Z</time>
      </trkpt>
      <trkpt lat="42.494070000" lon="-2.440654000">
        <ele>421.30</ele>
        <time>2017-02-18T10:15:48Z</time>
      </trkpt>
      <trkpt lat="42.494009000" lon="-2.440681000">
        <ele>421.20</ele>
        <time>2017-02-18T10:15:49Z</time>
      </trkpt>
      <trkpt lat="42.493951000" lon="-2.440711000">
        <ele>421.10</ele>
        <time>2017-02-18T10:15:50Z</time>
      </trkpt>
      <trkpt lat="42.493894000" lon="-2.440741000">
        <ele>420.90</ele>
        <time>2017-02-18T10:15:51Z</time>
      </trkpt>
      <trkpt lat="42.493776000" lon="-2.440795000">
        <ele>420.40</ele>
        <time>2017-02-18T10:15:53Z</time>
      </trkpt>
      <trkpt lat="42.493717000" lon="-2.440818000">
        <ele>420.20</ele>
        <time>2017-02-18T10:15:54Z</time>
      </trkpt>
      <trkpt lat="42.493661000" lon="-2.440844000">
        <ele>419.90</ele>
        <time>2017-02-18T10:15:55Z</time>
      </trkpt>
      <trkpt lat="42.493599000" lon="-2.440877000">
        <ele>419.70</ele>
        <time>2017-02-18T10:15:56Z</time>
      </trkpt>
      <trkpt lat="42.493539000" lon="-2.440909000">
        <ele>419.60</ele>
        <time>2017-02-18T10:15:57Z</time>
      </trkpt>
      <trkpt lat="42.493479000" lon="-2.440940000">
        <ele>419.50</ele>
        <time>2017-02-18T10:15:58Z</time>
      </trkpt>
      <trkpt lat="42.493419000" lon="-2.440969000">
        <ele>419.50</ele>
        <time>2017-02-18T10:15:59Z</time>
      </trkpt>
      <trkpt lat="42.493357000" lon="-2.441001000">
        <ele>419.60</ele>
        <time>2017-02-18T10:16:00Z</time>
      </trkpt>
      <trkpt lat="42.493294000" lon="-2.441032000">
        <ele>419.60</ele>
        <time>2017-02-18T10:16:01Z</time>
      </trkpt>
      <trkpt lat="42.493231000" lon="-2.441065000">
        <ele>419.60</ele>
        <time>2017-02-18T10:16:02Z</time>
      </trkpt>
      <trkpt lat="42.493168000" lon="-2.441098000">
        <ele>419.50</ele>
        <time>2017-02-18T10:16:03Z</time>
      </trkpt>
      <trkpt lat="42.493104000" lon="-2.441128000">
        <ele>419.40</ele>
        <time>2017-02-18T10:16:04Z</time>
      </trkpt>
      <trkpt lat="42.493040000" lon="-2.441160000">
        <ele>419.20</ele>
        <time>2017-02-18T10:16:05Z</time>
      </trkpt>
      <trkpt lat="42.492979000" lon="-2.441188000">
        <ele>419.00</ele>
        <time>2017-02-18T10:16:06Z</time>
      </trkpt>
      <trkpt lat="42.492915000" lon="-2.441213000">
        <ele>418.90</ele>
        <time>2017-02-18T10:16:07Z</time>
      </trkpt>
      <trkpt lat="42.492853000" lon="-2.441238000">
        <ele>418.80</ele>
        <time>2017-02-18T10:16:08Z</time>
      </trkpt>
      <trkpt lat="42.492792000" lon="-2.441262000">
        <ele>418.80</ele>
        <time>2017-02-18T10:16:09Z</time>
      </trkpt>
      <trkpt lat="42.492732000" lon="-2.441289000">
        <ele>418.70</ele>
        <time>2017-02-18T10:16:10Z</time>
      </trkpt>
      <trkpt lat="42.492671000" lon="-2.441319000">
        <ele>418.70</ele>
        <time>2017-02-18T10:16:11Z</time>
      </trkpt>
      <trkpt lat="42.492608000" lon="-2.441345000">
        <ele>418.60</ele>
        <time>2017-02-18T10:16:12Z</time>
      </trkpt>
      <trkpt lat="42.492548000" lon="-2.441372000">
        <ele>418.50</ele>
        <time>2017-02-18T10:16:13Z</time>
      </trkpt>
      <trkpt lat="42.492489000" lon="-2.441401000">
        <ele>418.30</ele>
        <time>2017-02-18T10:16:14Z</time>
      </trkpt>
      <trkpt lat="42.492427000" lon="-2.441428000">
        <ele>418.20</ele>
        <time>2017-02-18T10:16:15Z</time>
      </trkpt>
      <trkpt lat="42.492366000" lon="-2.441450000">
        <ele>418.10</ele>
        <time>2017-02-18T10:16:16Z</time>
      </trkpt>
      <trkpt lat="42.492307000" lon="-2.441471000">
        <ele>418.00</ele>
        <time>2017-02-18T10:16:17Z</time>
      </trkpt>
      <trkpt lat="42.492246000" lon="-2.441495000">
        <ele>417.90</ele>
        <time>2017-02-18T10:16:18Z</time>
      </trkpt>
      <trkpt lat="42.492186000" lon="-2.441520000">
        <ele>417.90</ele>
        <time>2017-02-18T10:16:19Z</time>
      </trkpt>
      <trkpt lat="42.492126000" lon="-2.441548000">
        <ele>417.90</ele>
        <time>2017-02-18T10:16:20Z</time>
      </trkpt>
      <trkpt lat="42.492065000" lon="-2.441576000">
        <ele>417.90</ele>
        <time>2017-02-18T10:16:21Z</time>
      </trkpt>
      <trkpt lat="42.492003000" lon="-2.441602000">
        <ele>417.90</ele>
        <time>2017-02-18T10:16:22Z</time>
      </trkpt>
      <trkpt lat="42.491942000" lon="-2.441632000">
        <ele>417.50</ele>
        <time>2017-02-18T10:16:23Z</time>
      </trkpt>
      <trkpt lat="42.491882000" lon="-2.441668000">
        <ele>417.20</ele>
        <time>2017-02-18T10:16:24Z</time>
      </trkpt>
      <trkpt lat="42.491823000" lon="-2.441703000">
        <ele>417.00</ele>
        <time>2017-02-18T10:16:25Z</time>
      </trkpt>
      <trkpt lat="42.491765000" lon="-2.441740000">
        <ele>416.80</ele>
        <time>2017-02-18T10:16:26Z</time>
      </trkpt>
      <trkpt lat="42.491706000" lon="-2.441780000">
        <ele>416.60</ele>
        <time>2017-02-18T10:16:27Z</time>
      </trkpt>
      <trkpt lat="42.491645000" lon="-2.441816000">
        <ele>416.50</ele>
        <time>2017-02-18T10:16:28Z</time>
      </trkpt>
      <trkpt lat="42.491586000" lon="-2.441847000">
        <ele>416.40</ele>
        <time>2017-02-18T10:16:29Z</time>
      </trkpt>
      <trkpt lat="42.491525000" lon="-2.441874000">
        <ele>416.30</ele>
        <time>2017-02-18T10:16:30Z</time>
      </trkpt>
      <trkpt lat="42.491463000" lon="-2.441897000">
        <ele>416.20</ele>
        <time>2017-02-18T10:16:31Z</time>
      </trkpt>
      <trkpt lat="42.491402000" lon="-2.441918000">
        <ele>416.20</ele>
        <time>2017-02-18T10:16:32Z</time>
      </trkpt>
      <trkpt lat="42.491340000" lon="-2.441934000">
        <ele>416.10</ele>
        <time>2017-02-18T10:16:33Z</time>
      </trkpt>
      <trkpt lat="42.491280000" lon="-2.441943000">
        <ele>416.10</ele>
        <time>2017-02-18T10:16:34Z</time>
      </trkpt>
      <trkpt lat="42.491218000" lon="-2.441951000">
        <ele>416.30</ele>
        <time>2017-02-18T10:16:35Z</time>
      </trkpt>
      <trkpt lat="42.491157000" lon="-2.441960000">
        <ele>416.40</ele>
        <time>2017-02-18T10:16:36Z</time>
      </trkpt>
      <trkpt lat="42.491099000" lon="-2.441966000">
        <ele>416.50</ele>
        <time>2017-02-18T10:16:37Z</time>
      </trkpt>
      <trkpt lat="42.491040000" lon="-2.441970000">
        <ele>416.60</ele>
        <time>2017-02-18T10:16:38Z</time>
      </trkpt>
      <trkpt lat="42.490982000" lon="-2.441974000">
        <ele>416.60</ele>
        <time>2017-02-18T10:16:39Z</time>
      </trkpt>
      <trkpt lat="42.490922000" lon="-2.441979000">
        <ele>416.60</ele>
        <time>2017-02-18T10:16:40Z</time>
      </trkpt>
      <trkpt lat="42.490863000" lon="-2.441985000">
        <ele>416.30</ele>
        <time>2017-02-18T10:16:41Z</time>
      </trkpt>
      <trkpt lat="42.490802000" lon="-2.441991000">
        <ele>416.00</ele>
        <time>2017-02-18T10:16:42Z</time>
      </trkpt>
      <trkpt lat="42.490743000" lon="-2.441997000">
        <ele>415.80</ele>
        <time>2017-02-18T10:16:43Z</time>
      </trkpt>
      <trkpt lat="42.490684000" lon="-2.442006000">
        <ele>415.60</ele>
        <time>2017-02-18T10:16:44Z</time>
      </trkpt>
      <trkpt lat="42.490625000" lon="-2.442017000">
        <ele>415.40</ele>
        <time>2017-02-18T10:16:45Z</time>
      </trkpt>
      <trkpt lat="42.490567000" lon="-2.442025000">
        <ele>415.30</ele>
        <time>2017-02-18T10:16:46Z</time>
      </trkpt>
      <trkpt lat="42.490510000" lon="-2.442034000">
        <ele>415.20</ele>
        <time>2017-02-18T10:16:47Z</time>
      </trkpt>
      <trkpt lat="42.490454000" lon="-2.442046000">
        <ele>415.10</ele>
        <time>2017-02-18T10:16:48Z</time>
      </trkpt>
      <trkpt lat="42.490398000" lon="-2.442058000">
        <ele>415.00</ele>
        <time>2017-02-18T10:16:49Z</time>
      </trkpt>
      <trkpt lat="42.490340000" lon="-2.442072000">
        <ele>415.00</ele>
        <time>2017-02-18T10:16:50Z</time>
      </trkpt>
      <trkpt lat="42.490284000" lon="-2.442086000">
        <ele>415.00</ele>
        <time>2017-02-18T10:16:51Z</time>
      </trkpt>
      <trkpt lat="42.490230000" lon="-2.442101000">
        <ele>415.00</ele>
        <time>2017-02-18T10:16:52Z</time>
      </trkpt>
      <trkpt lat="42.490174000" lon="-2.442116000">
        <ele>415.10</ele>
        <time>2017-02-18T10:16:53Z</time>
      </trkpt>
      <trkpt lat="42.490063000" lon="-2.442150000">
        <ele>415.30</ele>
        <time>2017-02-18T10:16:55Z</time>
      </trkpt>
      <trkpt lat="42.490009000" lon="-2.442167000">
        <ele>415.30</ele>
        <time>2017-02-18T10:16:56Z</time>
      </trkpt>
      <trkpt lat="42.489955000" lon="-2.442192000">
        <ele>415.50</ele>
        <time>2017-02-18T10:16:57Z</time>
      </trkpt>
      <trkpt lat="42.489903000" lon="-2.442223000">
        <ele>415.50</ele>
        <time>2017-02-18T10:16:58Z</time>
      </trkpt>
      <trkpt lat="42.489855000" lon="-2.442260000">
        <ele>415.60</ele>
        <time>2017-02-18T10:16:59Z</time>
      </trkpt>
      <trkpt lat="42.489809000" lon="-2.442305000">
        <ele>415.70</ele>
        <time>2017-02-18T10:17:00Z</time>
      </trkpt>
      <trkpt lat="42.489766000" lon="-2.442357000">
        <ele>415.70</ele>
        <time>2017-02-18T10:17:01Z</time>
      </trkpt>
      <trkpt lat="42.489729000" lon="-2.442415000">
        <ele>415.70</ele>
        <time>2017-02-18T10:17:02Z</time>
      </trkpt>
      <trkpt lat="42.489693000" lon="-2.442478000">
        <ele>415.60</ele>
        <time>2017-02-18T10:17:03Z</time>
      </trkpt>
      <trkpt lat="42.489656000" lon="-2.442540000">
        <ele>415.50</ele>
        <time>2017-02-18T10:17:04Z</time>
      </trkpt>
      <trkpt lat="42.489620000" lon="-2.442604000">
        <ele>415.50</ele>
        <time>2017-02-18T10:17:05Z</time>
      </trkpt>
      <trkpt lat="42.489584000" lon="-2.442667000">
        <ele>415.50</ele>
        <time>2017-02-18T10:17:06Z</time>
      </trkpt>
      <trkpt lat="42.489547000" lon="-2.442730000">
        <ele>415.40</ele>
        <time>2017-02-18T10:17:07Z</time>
      </trkpt>
      <trkpt lat="42.489506000" lon="-2.442786000">
        <ele>415.40</ele>
        <time>2017-02-18T10:17:08Z</time>
      </trkpt>
      <trkpt lat="42.489464000" lon="-2.442842000">
        <ele>415.30</ele>
        <time>2017-02-18T10:17:09Z</time>
      </trkpt>
      <trkpt lat="42.489421000" lon="-2.442898000">
        <ele>415.30</ele>
        <time>2017-02-18T10:17:10Z</time>
      </trkpt>
      <trkpt lat="42.489380000" lon="-2.442950000">
        <ele>415.30</ele>
        <time>2017-02-18T10:17:11Z</time>
      </trkpt>
      <trkpt lat="42.489337000" lon="-2.443004000">
        <ele>415.20</ele>
        <time>2017-02-18T10:17:12Z</time>
      </trkpt>
      <trkpt lat="42.489294000" lon="-2.443058000">
        <ele>415.20</ele>
        <time>2017-02-18T10:17:13Z</time>
      </trkpt>
      <trkpt lat="42.489250000" lon="-2.443107000">
        <ele>415.20</ele>
        <time>2017-02-18T10:17:14Z</time>
      </trkpt>
      <trkpt lat="42.489205000" lon="-2.443161000">
        <ele>415.20</ele>
        <time>2017-02-18T10:17:15Z</time>
      </trkpt>
      <trkpt lat="42.489163000" lon="-2.443215000">
        <ele>415.20</ele>
        <time>2017-02-18T10:17:16Z</time>
      </trkpt>
      <trkpt lat="42.489119000" lon="-2.443273000">
        <ele>415.00</ele>
        <time>2017-02-18T10:17:17Z</time>
      </trkpt>
      <trkpt lat="42.489079000" lon="-2.443333000">
        <ele>414.80</ele>
        <time>2017-02-18T10:17:18Z</time>
      </trkpt>
      <trkpt lat="42.489039000" lon="-2.443394000">
        <ele>414.70</ele>
        <time>2017-02-18T10:17:19Z</time>
      </trkpt>
      <trkpt lat="42.488999000" lon="-2.443457000">
        <ele>414.50</ele>
        <time>2017-02-18T10:17:20Z</time>
      </trkpt>
      <trkpt lat="42.488959000" lon="-2.443518000">
        <ele>414.40</ele>
        <time>2017-02-18T10:17:21Z</time>
      </trkpt>
      <trkpt lat="42.488918000" lon="-2.443580000">
        <ele>414.30</ele>
        <time>2017-02-18T10:17:22Z</time>
      </trkpt>
      <trkpt lat="42.488879000" lon="-2.443642000">
        <ele>414.10</ele>
        <time>2017-02-18T10:17:23Z</time>
      </trkpt>
      <trkpt lat="42.488840000" lon="-2.443702000">
        <ele>414.00</ele>
        <time>2017-02-18T10:17:24Z</time>
      </trkpt>
      <trkpt lat="42.488799000" lon="-2.443763000">
        <ele>413.90</ele>
        <time>2017-02-18T10:17:25Z</time>
      </trkpt>
      <trkpt lat="42.488757000" lon="-2.443824000">
        <ele>413.80</ele>
        <time>2017-02-18T10:17:26Z</time>
      </trkpt>
      <trkpt lat="42.488718000" lon="-2.443884000">
        <ele>413.70</ele>
        <time>2017-02-18T10:17:27Z</time>
      </trkpt>
      <trkpt lat="42.488674000" lon="-2.443944000">
        <ele>413.70</ele>
        <time>2017-02-18T10:17:28Z</time>
      </trkpt>
      <trkpt lat="42.488631000" lon="-2.444005000">
        <ele>413.60</ele>
        <time>2017-02-18T10:17:29Z</time>
      </trkpt>
      <trkpt lat="42.488589000" lon="-2.444066000">
        <ele>413.50</ele>
        <time>2017-02-18T10:17:30Z</time>
      </trkpt>
      <trkpt lat="42.488546000" lon="-2.444127000">
        <ele>413.50</ele>
        <time>2017-02-18T10:17:31Z</time>
      </trkpt>
      <trkpt lat="42.488501000" lon="-2.444183000">
        <ele>413.40</ele>
        <time>2017-02-18T10:17:32Z</time>
      </trkpt>
      <trkpt lat="42.488457000" lon="-2.444238000">
        <ele>413.50</ele>
        <time>2017-02-18T10:17:33Z</time>
      </trkpt>
      <trkpt lat="42.488412000" lon="-2.444294000">
        <ele>413.50</ele>
        <time>2017-02-18T10:17:34Z</time>
      </trkpt>
      <trkpt lat="42.488367000" lon="-2.444344000">
        <ele>413.50</ele>
        <time>2017-02-18T10:17:35Z</time>
      </trkpt>
      <trkpt lat="42.488321000" lon="-2.444397000">
        <ele>413.50</ele>
        <time>2017-02-18T10:17:36Z</time>
      </trkpt>
      <trkpt lat="42.488277000" lon="-2.444449000">
        <ele>413.30</ele>
        <time>2017-02-18T10:17:37Z</time>
      </trkpt>
      <trkpt lat="42.488230000" lon="-2.444499000">
        <ele>413.10</ele>
        <time>2017-02-18T10:17:38Z</time>
      </trkpt>
      <trkpt lat="42.488184000" lon="-2.444553000">
        <ele>413.00</ele>
        <time>2017-02-18T10:17:39Z</time>
      </trkpt>
      <trkpt lat="42.488138000" lon="-2.444602000">
        <ele>412.90</ele>
        <time>2017-02-18T10:17:40Z</time>
      </trkpt>
      <trkpt lat="42.488088000" lon="-2.444651000">
        <ele>412.80</ele>
        <time>2017-02-18T10:17:41Z</time>
      </trkpt>
      <trkpt lat="42.488035000" lon="-2.444698000">
        <ele>412.70</ele>
        <time>2017-02-18T10:17:42Z</time>
      </trkpt>
      <trkpt lat="42.487982000" lon="-2.444749000">
        <ele>412.60</ele>
        <time>2017-02-18T10:17:43Z</time>
      </trkpt>
      <trkpt lat="42.487928000" lon="-2.444794000">
        <ele>412.60</ele>
        <time>2017-02-18T10:17:44Z</time>
      </trkpt>
      <trkpt lat="42.487875000" lon="-2.444842000">
        <ele>412.50</ele>
        <time>2017-02-18T10:17:45Z</time>
      </trkpt>
      <trkpt lat="42.487819000" lon="-2.444886000">
        <ele>412.40</ele>
        <time>2017-02-18T10:17:46Z</time>
      </trkpt>
      <trkpt lat="42.487763000" lon="-2.444929000">
        <ele>412.40</ele>
        <time>2017-02-18T10:17:47Z</time>
      </trkpt>
      <trkpt lat="42.487704000" lon="-2.444972000">
        <ele>412.30</ele>
        <time>2017-02-18T10:17:48Z</time>
      </trkpt>
      <trkpt lat="42.487643000" lon="-2.445013000">
        <ele>412.20</ele>
        <time>2017-02-18T10:17:49Z</time>
      </trkpt>
      <trkpt lat="42.487579000" lon="-2.445056000">
        <ele>412.00</ele>
        <time>2017-02-18T10:17:50Z</time>
      </trkpt>
      <trkpt lat="42.487514000" lon="-2.445096000">
        <ele>411.80</ele>
        <time>2017-02-18T10:17:51Z</time>
      </trkpt>
      <trkpt lat="42.487448000" lon="-2.445135000">
        <ele>411.60</ele>
        <time>2017-02-18T10:17:52Z</time>
      </trkpt>
      <trkpt lat="42.487379000" lon="-2.445169000">
        <ele>411.40</ele>
        <time>2017-02-18T10:17:53Z</time>
      </trkpt>
      <trkpt lat="42.487308000" lon="-2.445204000">
        <ele>411.30</ele>
        <time>2017-02-18T10:17:54Z</time>
      </trkpt>
      <trkpt lat="42.487235000" lon="-2.445237000">
        <ele>411.10</ele>
        <time>2017-02-18T10:17:55Z</time>
      </trkpt>
      <trkpt lat="42.487083000" lon="-2.445291000">
        <ele>410.20</ele>
        <time>2017-02-18T10:17:57Z</time>
      </trkpt>
      <trkpt lat="42.487009000" lon="-2.445312000">
        <ele>409.60</ele>
        <time>2017-02-18T10:17:58Z</time>
      </trkpt>
      <trkpt lat="42.486930000" lon="-2.445332000">
        <ele>409.20</ele>
        <time>2017-02-18T10:17:59Z</time>
      </trkpt>
      <trkpt lat="42.486854000" lon="-2.445348000">
        <ele>408.80</ele>
        <time>2017-02-18T10:18:00Z</time>
      </trkpt>
      <trkpt lat="42.486775000" lon="-2.445366000">
        <ele>408.40</ele>
        <time>2017-02-18T10:18:01Z</time>
      </trkpt>
      <trkpt lat="42.486700000" lon="-2.445383000">
        <ele>408.20</ele>
        <time>2017-02-18T10:18:02Z</time>
      </trkpt>
      <trkpt lat="42.486624000" lon="-2.445403000">
        <ele>407.80</ele>
        <time>2017-02-18T10:18:03Z</time>
      </trkpt>
      <trkpt lat="42.486546000" lon="-2.445422000">
        <ele>407.50</ele>
        <time>2017-02-18T10:18:04Z</time>
      </trkpt>
      <trkpt lat="42.486468000" lon="-2.445448000">
        <ele>407.30</ele>
        <time>2017-02-18T10:18:05Z</time>
      </trkpt>
      <trkpt lat="42.486394000" lon="-2.445479000">
        <ele>407.20</ele>
        <time>2017-02-18T10:18:06Z</time>
      </trkpt>
      <trkpt lat="42.486322000" lon="-2.445516000">
        <ele>406.90</ele>
        <time>2017-02-18T10:18:07Z</time>
      </trkpt>
      <trkpt lat="42.486253000" lon="-2.445556000">
        <ele>406.70</ele>
        <time>2017-02-18T10:18:08Z</time>
      </trkpt>
      <trkpt lat="42.486189000" lon="-2.445601000">
        <ele>406.60</ele>
        <time>2017-02-18T10:18:09Z</time>
      </trkpt>
      <trkpt lat="42.486125000" lon="-2.445650000">
        <ele>406.40</ele>
        <time>2017-02-18T10:18:10Z</time>
      </trkpt>
      <trkpt lat="42.486062000" lon="-2.445698000">
        <ele>406.30</ele>
        <time>2017-02-18T10:18:11Z</time>
      </trkpt>
      <trkpt lat="42.485998000" lon="-2.445745000">
        <ele>406.20</ele>
        <time>2017-02-18T10:18:12Z</time>
      </trkpt>
      <trkpt lat="42.485935000" lon="-2.445788000">
        <ele>406.20</ele>
        <time>2017-02-18T10:18:13Z</time>
      </trkpt>
      <trkpt lat="42.485873000" lon="-2.445827000">
        <ele>406.10</ele>
        <time>2017-02-18T10:18:14Z</time>
      </trkpt>
      <trkpt lat="42.485810000" lon="-2.445862000">
        <ele>406.00</ele>
        <time>2017-02-18T10:18:15Z</time>
      </trkpt>
      <trkpt lat="42.485747000" lon="-2.445896000">
        <ele>405.90</ele>
        <time>2017-02-18T10:18:16Z</time>
      </trkpt>
      <trkpt lat="42.485683000" lon="-2.445922000">
        <ele>405.90</ele>
        <time>2017-02-18T10:18:17Z</time>
      </trkpt>
      <trkpt lat="42.485620000" lon="-2.445943000">
        <ele>405.80</ele>
        <time>2017-02-18T10:18:18Z</time>
      </trkpt>
      <trkpt lat="42.485556000" lon="-2.445958000">
        <ele>406.00</ele>
        <time>2017-02-18T10:18:19Z</time>
      </trkpt>
      <trkpt lat="42.485493000" lon="-2.445974000">
        <ele>406.10</ele>
        <time>2017-02-18T10:18:20Z</time>
      </trkpt>
      <trkpt lat="42.485431000" lon="-2.445997000">
        <ele>406.20</ele>
        <time>2017-02-18T10:18:21Z</time>
      </trkpt>
      <trkpt lat="42.485369000" lon="-2.446018000">
        <ele>406.20</ele>
        <time>2017-02-18T10:18:22Z</time>
      </trkpt>
      <trkpt lat="42.485310000" lon="-2.446039000">
        <ele>406.20</ele>
        <time>2017-02-18T10:18:23Z</time>
      </trkpt>
      <trkpt lat="42.485249000" lon="-2.446058000">
        <ele>406.20</ele>
        <time>2017-02-18T10:18:24Z</time>
      </trkpt>
      <trkpt lat="42.485188000" lon="-2.446072000">
        <ele>406.20</ele>
        <time>2017-02-18T10:18:25Z</time>
      </trkpt>
      <trkpt lat="42.485127000" lon="-2.446083000">
        <ele>406.20</ele>
        <time>2017-02-18T10:18:26Z</time>
      </trkpt>
      <trkpt lat="42.485065000" lon="-2.446089000">
        <ele>406.20</ele>
        <time>2017-02-18T10:18:27Z</time>
      </trkpt>
      <trkpt lat="42.485003000" lon="-2.446091000">
        <ele>406.20</ele>
        <time>2017-02-18T10:18:28Z</time>
      </trkpt>
      <trkpt lat="42.484941000" lon="-2.446093000">
        <ele>406.30</ele>
        <time>2017-02-18T10:18:29Z</time>
      </trkpt>
      <trkpt lat="42.484881000" lon="-2.446095000">
        <ele>406.40</ele>
        <time>2017-02-18T10:18:30Z</time>
      </trkpt>
      <trkpt lat="42.484821000" lon="-2.446095000">
        <ele>406.50</ele>
        <time>2017-02-18T10:18:31Z</time>
      </trkpt>
      <trkpt lat="42.484761000" lon="-2.446093000">
        <ele>406.50</ele>
        <time>2017-02-18T10:18:32Z</time>
      </trkpt>
      <trkpt lat="42.484701000" lon="-2.446090000">
        <ele>406.60</ele>
        <time>2017-02-18T10:18:33Z</time>
      </trkpt>
      <trkpt lat="42.484646000" lon="-2.446083000">
        <ele>406.60</ele>
        <time>2017-02-18T10:18:34Z</time>
      </trkpt>
      <trkpt lat="42.484591000" lon="-2.446077000">
        <ele>406.80</ele>
        <time>2017-02-18T10:18:35Z</time>
      </trkpt>
      <trkpt lat="42.484537000" lon="-2.446075000">
        <ele>406.90</ele>
        <time>2017-02-18T10:18:36Z</time>
      </trkpt>
      <trkpt lat="42.484483000" lon="-2.446077000">
        <ele>406.90</ele>
        <time>2017-02-18T10:18:37Z</time>
      </trkpt>
      <trkpt lat="42.484429000" lon="-2.446084000">
        <ele>406.80</ele>
        <time>2017-02-18T10:18:38Z</time>
      </trkpt>
      <trkpt lat="42.484377000" lon="-2.446092000">
        <ele>407.20</ele>
        <time>2017-02-18T10:18:39Z</time>
      </trkpt>
      <trkpt lat="42.484327000" lon="-2.446101000">
        <ele>407.50</ele>
        <time>2017-02-18T10:18:40Z</time>
      </trkpt>
      <trkpt lat="42.484277000" lon="-2.446116000">
        <ele>407.70</ele>
        <time>2017-02-18T10:18:41Z</time>
      </trkpt>
      <trkpt lat="42.484223000" lon="-2.446133000">
        <ele>407.80</ele>
        <time>2017-02-18T10:18:42Z</time>
      </trkpt>
      <trkpt lat="42.484167000" lon="-2.446150000">
        <ele>407.90</ele>
        <time>2017-02-18T10:18:43Z</time>
      </trkpt>
      <trkpt lat="42.484111000" lon="-2.446171000">
        <ele>408.00</ele>
        <time>2017-02-18T10:18:44Z</time>
      </trkpt>
      <trkpt lat="42.484052000" lon="-2.446191000">
        <ele>408.00</ele>
        <time>2017-02-18T10:18:45Z</time>
      </trkpt>
      <trkpt lat="42.483994000" lon="-2.446211000">
        <ele>407.90</ele>
        <time>2017-02-18T10:18:46Z</time>
      </trkpt>
      <trkpt lat="42.483932000" lon="-2.446229000">
        <ele>407.90</ele>
        <time>2017-02-18T10:18:47Z</time>
      </trkpt>
      <trkpt lat="42.483871000" lon="-2.446247000">
        <ele>407.90</ele>
        <time>2017-02-18T10:18:48Z</time>
      </trkpt>
      <trkpt lat="42.483810000" lon="-2.446263000">
        <ele>407.70</ele>
        <time>2017-02-18T10:18:49Z</time>
      </trkpt>
      <trkpt lat="42.483749000" lon="-2.446273000">
        <ele>407.50</ele>
        <time>2017-02-18T10:18:50Z</time>
      </trkpt>
      <trkpt lat="42.483689000" lon="-2.446282000">
        <ele>407.40</ele>
        <time>2017-02-18T10:18:51Z</time>
      </trkpt>
      <trkpt lat="42.483629000" lon="-2.446290000">
        <ele>407.30</ele>
        <time>2017-02-18T10:18:52Z</time>
      </trkpt>
      <trkpt lat="42.483569000" lon="-2.446295000">
        <ele>407.20</ele>
        <time>2017-02-18T10:18:53Z</time>
      </trkpt>
      <trkpt lat="42.483509000" lon="-2.446299000">
        <ele>407.20</ele>
        <time>2017-02-18T10:18:54Z</time>
      </trkpt>
      <trkpt lat="42.483451000" lon="-2.446301000">
        <ele>407.10</ele>
        <time>2017-02-18T10:18:55Z</time>
      </trkpt>
      <trkpt lat="42.483392000" lon="-2.446296000">
        <ele>407.00</ele>
        <time>2017-02-18T10:18:56Z</time>
      </trkpt>
      <trkpt lat="42.483335000" lon="-2.446288000">
        <ele>406.80</ele>
        <time>2017-02-18T10:18:57Z</time>
      </trkpt>
      <trkpt lat="42.483219000" lon="-2.446263000">
        <ele>406.70</ele>
        <time>2017-02-18T10:18:59Z</time>
      </trkpt>
      <trkpt lat="42.483163000" lon="-2.446249000">
        <ele>406.60</ele>
        <time>2017-02-18T10:19:00Z</time>
      </trkpt>
      <trkpt lat="42.483105000" lon="-2.446235000">
        <ele>406.60</ele>
        <time>2017-02-18T10:19:01Z</time>
      </trkpt>
      <trkpt lat="42.483049000" lon="-2.446215000">
        <ele>406.50</ele>
        <time>2017-02-18T10:19:02Z</time>
      </trkpt>
      <trkpt lat="42.482996000" lon="-2.446190000">
        <ele>406.50</ele>
        <time>2017-02-18T10:19:03Z</time>
      </trkpt>
      <trkpt lat="42.482943000" lon="-2.446158000">
        <ele>406.50</ele>
        <time>2017-02-18T10:19:04Z</time>
      </trkpt>
      <trkpt lat="42.482892000" lon="-2.446121000">
        <ele>406.40</ele>
        <time>2017-02-18T10:19:05Z</time>
      </trkpt>
      <trkpt lat="42.482839000" lon="-2.446084000">
        <ele>406.40</ele>
        <time>2017-02-18T10:19:06Z</time>
      </trkpt>
      <trkpt lat="42.482788000" lon="-2.446045000">
        <ele>406.30</ele>
        <time>2017-02-18T10:19:07Z</time>
      </trkpt>
      <trkpt lat="42.482737000" lon="-2.446004000">
        <ele>406.30</ele>
        <time>2017-02-18T10:19:08Z</time>
      </trkpt>
      <trkpt lat="42.482686000" lon="-2.445964000">
        <ele>406.20</ele>
        <time>2017-02-18T10:19:09Z</time>
      </trkpt>
      <trkpt lat="42.482634000" lon="-2.445924000">
        <ele>406.20</ele>
        <time>2017-02-18T10:19:10Z</time>
      </trkpt>
      <trkpt lat="42.482583000" lon="-2.445882000">
        <ele>406.20</ele>
        <time>2017-02-18T10:19:11Z</time>
      </trkpt>
      <trkpt lat="42.482532000" lon="-2.445845000">
        <ele>406.10</ele>
        <time>2017-02-18T10:19:12Z</time>
      </trkpt>
      <trkpt lat="42.482478000" lon="-2.445810000">
        <ele>406.20</ele>
        <time>2017-02-18T10:19:13Z</time>
      </trkpt>
      <trkpt lat="42.482423000" lon="-2.445774000">
        <ele>406.20</ele>
        <time>2017-02-18T10:19:14Z</time>
      </trkpt>
      <trkpt lat="42.482368000" lon="-2.445733000">
        <ele>406.20</ele>
        <time>2017-02-18T10:19:15Z</time>
      </trkpt>
      <trkpt lat="42.482313000" lon="-2.445695000">
        <ele>406.20</ele>
        <time>2017-02-18T10:19:16Z</time>
      </trkpt>
      <trkpt lat="42.482256000" lon="-2.445658000">
        <ele>406.10</ele>
        <time>2017-02-18T10:19:17Z</time>
      </trkpt>
      <trkpt lat="42.482199000" lon="-2.445621000">
        <ele>405.90</ele>
        <time>2017-02-18T10:19:18Z</time>
      </trkpt>
      <trkpt lat="42.482146000" lon="-2.445585000">
        <ele>405.70</ele>
        <time>2017-02-18T10:19:19Z</time>
      </trkpt>
      <trkpt lat="42.482090000" lon="-2.445553000">
        <ele>405.50</ele>
        <time>2017-02-18T10:19:20Z</time>
      </trkpt>
      <trkpt lat="42.482033000" lon="-2.445523000">
        <ele>405.50</ele>
        <time>2017-02-18T10:19:21Z</time>
      </trkpt>
      <trkpt lat="42.481975000" lon="-2.445494000">
        <ele>405.50</ele>
        <time>2017-02-18T10:19:22Z</time>
      </trkpt>
      <trkpt lat="42.481918000" lon="-2.445466000">
        <ele>405.50</ele>
        <time>2017-02-18T10:19:23Z</time>
      </trkpt>
      <trkpt lat="42.481860000" lon="-2.445442000">
        <ele>405.50</ele>
        <time>2017-02-18T10:19:24Z</time>
      </trkpt>
      <trkpt lat="42.481803000" lon="-2.445420000">
        <ele>405.50</ele>
        <time>2017-02-18T10:19:25Z</time>
      </trkpt>
      <trkpt lat="42.481747000" lon="-2.445397000">
        <ele>405.50</ele>
        <time>2017-02-18T10:19:26Z</time>
      </trkpt>
      <trkpt lat="42.481688000" lon="-2.445372000">
        <ele>405.30</ele>
        <time>2017-02-18T10:19:27Z</time>
      </trkpt>
      <trkpt lat="42.481631000" lon="-2.445349000">
        <ele>405.20</ele>
        <time>2017-02-18T10:19:28Z</time>
      </trkpt>
      <trkpt lat="42.481575000" lon="-2.445327000">
        <ele>405.10</ele>
        <time>2017-02-18T10:19:29Z</time>
      </trkpt>
      <trkpt lat="42.481517000" lon="-2.445311000">
        <ele>405.10</ele>
        <time>2017-02-18T10:19:30Z</time>
      </trkpt>
      <trkpt lat="42.481460000" lon="-2.445292000">
        <ele>405.00</ele>
        <time>2017-02-18T10:19:31Z</time>
      </trkpt>
      <trkpt lat="42.481402000" lon="-2.445274000">
        <ele>405.00</ele>
        <time>2017-02-18T10:19:32Z</time>
      </trkpt>
      <trkpt lat="42.481342000" lon="-2.445254000">
        <ele>404.90</ele>
        <time>2017-02-18T10:19:33Z</time>
      </trkpt>
      <trkpt lat="42.481283000" lon="-2.445235000">
        <ele>404.90</ele>
        <time>2017-02-18T10:19:34Z</time>
      </trkpt>
      <trkpt lat="42.481225000" lon="-2.445220000">
        <ele>404.90</ele>
        <time>2017-02-18T10:19:35Z</time>
      </trkpt>
      <trkpt lat="42.481167000" lon="-2.445203000">
        <ele>404.90</ele>
        <time>2017-02-18T10:19:36Z</time>
      </trkpt>
      <trkpt lat="42.481109000" lon="-2.445185000">
        <ele>404.90</ele>
        <time>2017-02-18T10:19:37Z</time>
      </trkpt>
      <trkpt lat="42.481050000" lon="-2.445162000">
        <ele>404.90</ele>
        <time>2017-02-18T10:19:38Z</time>
      </trkpt>
      <trkpt lat="42.480990000" lon="-2.445139000">
        <ele>404.30</ele>
        <time>2017-02-18T10:19:39Z</time>
      </trkpt>
      <trkpt lat="42.480926000" lon="-2.445115000">
        <ele>403.80</ele>
        <time>2017-02-18T10:19:40Z</time>
      </trkpt>
      <trkpt lat="42.480859000" lon="-2.445095000">
        <ele>403.50</ele>
        <time>2017-02-18T10:19:41Z</time>
      </trkpt>
      <trkpt lat="42.480786000" lon="-2.445077000">
        <ele>403.20</ele>
        <time>2017-02-18T10:19:42Z</time>
      </trkpt>
      <trkpt lat="42.480707000" lon="-2.445060000">
        <ele>402.90</ele>
        <time>2017-02-18T10:19:43Z</time>
      </trkpt>
      <trkpt lat="42.480626000" lon="-2.445045000">
        <ele>402.70</ele>
        <time>2017-02-18T10:19:44Z</time>
      </trkpt>
      <trkpt lat="42.480541000" lon="-2.445030000">
        <ele>401.80</ele>
        <time>2017-02-18T10:19:45Z</time>
      </trkpt>
      <trkpt lat="42.480452000" lon="-2.445019000">
        <ele>401.20</ele>
        <time>2017-02-18T10:19:46Z</time>
      </trkpt>
      <trkpt lat="42.480357000" lon="-2.445011000">
        <ele>400.60</ele>
        <time>2017-02-18T10:19:47Z</time>
      </trkpt>
      <trkpt lat="42.480257000" lon="-2.445018000">
        <ele>400.20</ele>
        <time>2017-02-18T10:19:48Z</time>
      </trkpt>
      <trkpt lat="42.480158000" lon="-2.445043000">
        <ele>399.60</ele>
        <time>2017-02-18T10:19:49Z</time>
      </trkpt>
      <trkpt lat="42.480059000" lon="-2.445076000">
        <ele>399.30</ele>
        <time>2017-02-18T10:19:50Z</time>
      </trkpt>
      <trkpt lat="42.479960000" lon="-2.445117000">
        <ele>398.30</ele>
        <time>2017-02-18T10:19:51Z</time>
      </trkpt>
      <trkpt lat="42.479860000" lon="-2.445162000">
        <ele>397.60</ele>
        <time>2017-02-18T10:19:52Z</time>
      </trkpt>
      <trkpt lat="42.479764000" lon="-2.445208000">
        <ele>396.50</ele>
        <time>2017-02-18T10:19:53Z</time>
      </trkpt>
      <trkpt lat="42.479661000" lon="-2.445255000">
        <ele>395.70</ele>
        <time>2017-02-18T10:19:54Z</time>
      </trkpt>
      <trkpt lat="42.479561000" lon="-2.445300000">
        <ele>395.00</ele>
        <time>2017-02-18T10:19:55Z</time>
      </trkpt>
      <trkpt lat="42.479470000" lon="-2.445345000">
        <ele>394.50</ele>
        <time>2017-02-18T10:19:56Z</time>
      </trkpt>
      <trkpt lat="42.479387000" lon="-2.445393000">
        <ele>393.50</ele>
        <time>2017-02-18T10:19:57Z</time>
      </trkpt>
      <trkpt lat="42.479309000" lon="-2.445444000">
        <ele>392.90</ele>
        <time>2017-02-18T10:19:58Z</time>
      </trkpt>
      <trkpt lat="42.479232000" lon="-2.445496000">
        <ele>391.90</ele>
        <time>2017-02-18T10:19:59Z</time>
      </trkpt>
      <trkpt lat="42.479076000" lon="-2.445596000">
        <ele>390.60</ele>
        <time>2017-02-18T10:20:01Z</time>
      </trkpt>
      <trkpt lat="42.478991000" lon="-2.445619000">
        <ele>390.20</ele>
        <time>2017-02-18T10:20:02Z</time>
      </trkpt>
      <trkpt lat="42.478907000" lon="-2.445616000">
        <ele>390.00</ele>
        <time>2017-02-18T10:20:03Z</time>
      </trkpt>
      <trkpt lat="42.478821000" lon="-2.445608000">
        <ele>389.80</ele>
        <time>2017-02-18T10:20:04Z</time>
      </trkpt>
      <trkpt lat="42.478732000" lon="-2.445591000">
        <ele>389.70</ele>
        <time>2017-02-18T10:20:05Z</time>
      </trkpt>
      <trkpt lat="42.478645000" lon="-2.445570000">
        <ele>389.60</ele>
        <time>2017-02-18T10:20:06Z</time>
      </trkpt>
      <trkpt lat="42.478552000" lon="-2.445545000">
        <ele>389.10</ele>
        <time>2017-02-18T10:20:07Z</time>
      </trkpt>
      <trkpt lat="42.478459000" lon="-2.445522000">
        <ele>388.70</ele>
        <time>2017-02-18T10:20:08Z</time>
      </trkpt>
      <trkpt lat="42.478365000" lon="-2.445500000">
        <ele>388.40</ele>
        <time>2017-02-18T10:20:09Z</time>
      </trkpt>
      <trkpt lat="42.478272000" lon="-2.445481000">
        <ele>388.10</ele>
        <time>2017-02-18T10:20:10Z</time>
      </trkpt>
      <trkpt lat="42.478178000" lon="-2.445469000">
        <ele>388.00</ele>
        <time>2017-02-18T10:20:11Z</time>
      </trkpt>
      <trkpt lat="42.478087000" lon="-2.445466000">
        <ele>387.80</ele>
        <time>2017-02-18T10:20:12Z</time>
      </trkpt>
      <trkpt lat="42.478001000" lon="-2.445469000">
        <ele>387.70</ele>
        <time>2017-02-18T10:20:13Z</time>
      </trkpt>
      <trkpt lat="42.477917000" lon="-2.445470000">
        <ele>387.70</ele>
        <time>2017-02-18T10:20:14Z</time>
      </trkpt>
      <trkpt lat="42.477840000" lon="-2.445468000">
        <ele>387.50</ele>
        <time>2017-02-18T10:20:15Z</time>
      </trkpt>
      <trkpt lat="42.477769000" lon="-2.445468000">
        <ele>387.30</ele>
        <time>2017-02-18T10:20:16Z</time>
      </trkpt>
      <trkpt lat="42.477697000" lon="-2.445467000">
        <ele>387.20</ele>
        <time>2017-02-18T10:20:17Z</time>
      </trkpt>
      <trkpt lat="42.477627000" lon="-2.445465000">
        <ele>387.10</ele>
        <time>2017-02-18T10:20:18Z</time>
      </trkpt>
      <trkpt lat="42.477559000" lon="-2.445461000">
        <ele>387.10</ele>
        <time>2017-02-18T10:20:19Z</time>
      </trkpt>
      <trkpt lat="42.477492000" lon="-2.445456000">
        <ele>387.00</ele>
        <time>2017-02-18T10:20:20Z</time>
      </trkpt>
      <trkpt lat="42.477426000" lon="-2.445449000">
        <ele>387.00</ele>
        <time>2017-02-18T10:20:21Z</time>
      </trkpt>
      <trkpt lat="42.477359000" lon="-2.445445000">
        <ele>386.90</ele>
        <time>2017-02-18T10:20:22Z</time>
      </trkpt>
      <trkpt lat="42.477297000" lon="-2.445444000">
        <ele>386.80</ele>
        <time>2017-02-18T10:20:23Z</time>
      </trkpt>
      <trkpt lat="42.477235000" lon="-2.445440000">
        <ele>386.70</ele>
        <time>2017-02-18T10:20:24Z</time>
      </trkpt>
      <trkpt lat="42.477172000" lon="-2.445435000">
        <ele>386.60</ele>
        <time>2017-02-18T10:20:25Z</time>
      </trkpt>
      <trkpt lat="42.477111000" lon="-2.445433000">
        <ele>386.50</ele>
        <time>2017-02-18T10:20:26Z</time>
      </trkpt>
      <trkpt lat="42.477050000" lon="-2.445436000">
        <ele>386.40</ele>
        <time>2017-02-18T10:20:27Z</time>
      </trkpt>
      <trkpt lat="42.476987000" lon="-2.445441000">
        <ele>386.40</ele>
        <time>2017-02-18T10:20:28Z</time>
      </trkpt>
      <trkpt lat="42.476925000" lon="-2.445447000">
        <ele>386.30</ele>
        <time>2017-02-18T10:20:29Z</time>
      </trkpt>
      <trkpt lat="42.476862000" lon="-2.445457000">
        <ele>386.10</ele>
        <time>2017-02-18T10:20:30Z</time>
      </trkpt>
      <trkpt lat="42.476803000" lon="-2.445467000">
        <ele>385.80</ele>
        <time>2017-02-18T10:20:31Z</time>
      </trkpt>
      <trkpt lat="42.476744000" lon="-2.445478000">
        <ele>385.60</ele>
        <time>2017-02-18T10:20:32Z</time>
      </trkpt>
      <trkpt lat="42.476684000" lon="-2.445480000">
        <ele>385.30</ele>
        <time>2017-02-18T10:20:33Z</time>
      </trkpt>
      <trkpt lat="42.476626000" lon="-2.445480000">
        <ele>385.10</ele>
        <time>2017-02-18T10:20:34Z</time>
      </trkpt>
      <trkpt lat="42.476571000" lon="-2.445480000">
        <ele>384.90</ele>
        <time>2017-02-18T10:20:35Z</time>
      </trkpt>
      <trkpt lat="42.476524000" lon="-2.445481000">
        <ele>384.80</ele>
        <time>2017-02-18T10:20:36Z</time>
      </trkpt>
      <trkpt lat="42.476490000" lon="-2.445485000">
        <ele>384.70</ele>
        <time>2017-02-18T10:20:37Z</time>
      </trkpt>
      <trkpt lat="42.476464000" lon="-2.445492000">
        <ele>384.70</ele>
        <time>2017-02-18T10:20:38Z</time>
      </trkpt>
      <trkpt lat="42.476445000" lon="-2.445499000">
        <ele>384.60</ele>
        <time>2017-02-18T10:20:39Z</time>
      </trkpt>
      <trkpt lat="42.476426000" lon="-2.445497000">
        <ele>384.60</ele>
        <time>2017-02-18T10:20:40Z</time>
      </trkpt>
      <trkpt lat="42.476410000" lon="-2.445493000">
        <ele>384.40</ele>
        <time>2017-02-18T10:20:41Z</time>
      </trkpt>
      <trkpt lat="42.476396000" lon="-2.445488000">
        <ele>384.30</ele>
        <time>2017-02-18T10:20:42Z</time>
      </trkpt>
      <trkpt lat="42.476380000" lon="-2.445487000">
        <ele>384.20</ele>
        <time>2017-02-18T10:20:43Z</time>
      </trkpt>
      <trkpt lat="42.476368000" lon="-2.445498000">
        <ele>384.10</ele>
        <time>2017-02-18T10:20:44Z</time>
      </trkpt>
      <trkpt lat="42.476360000" lon="-2.445520000">
        <ele>384.10</ele>
        <time>2017-02-18T10:20:45Z</time>
      </trkpt>
      <trkpt lat="42.476361000" lon="-2.445546000">
        <ele>384.00</ele>
        <time>2017-02-18T10:20:46Z</time>
      </trkpt>
      <trkpt lat="42.476362000" lon="-2.445568000">
        <ele>384.00</ele>
        <time>2017-02-18T10:20:47Z</time>
      </trkpt>
      <trkpt lat="42.476361000" lon="-2.445592000">
        <ele>384.00</ele>
        <time>2017-02-18T10:20:48Z</time>
      </trkpt>
      <trkpt lat="42.476356000" lon="-2.445615000">
        <ele>383.90</ele>
        <time>2017-02-18T10:20:49Z</time>
      </trkpt>
      <trkpt lat="42.476350000" lon="-2.445621000">
        <ele>383.90</ele>
        <time>2017-02-18T10:20:50Z</time>
      </trkpt>
      <trkpt lat="42.476348000" lon="-2.445629000">
        <ele>383.80</ele>
        <time>2017-02-18T10:20:51Z</time>
      </trkpt>
      <trkpt lat="42.476350000" lon="-2.445631000">
        <ele>383.80</ele>
        <time>2017-02-18T10:20:52Z</time>
      </trkpt>
      <trkpt lat="42.476350000" lon="-2.445639000">
        <ele>383.70</ele>
        <time>2017-02-18T10:20:53Z</time>
      </trkpt>
      <trkpt lat="42.476347000" lon="-2.445648000">
        <ele>383.60</ele>
        <time>2017-02-18T10:20:54Z</time>
      </trkpt>
      <trkpt lat="42.476349000" lon="-2.445649000">
        <ele>383.50</ele>
        <time>2017-02-18T10:20:55Z</time>
      </trkpt>
      <trkpt lat="42.476355000" lon="-2.445656000">
        <ele>383.40</ele>
        <time>2017-02-18T10:20:56Z</time>
      </trkpt>
      <trkpt lat="42.476358000" lon="-2.445667000">
        <ele>383.50</ele>
        <time>2017-02-18T10:20:57Z</time>
      </trkpt>
      <trkpt lat="42.476357000" lon="-2.445681000">
        <ele>383.50</ele>
        <time>2017-02-18T10:20:58Z</time>
      </trkpt>
      <trkpt lat="42.476354000" lon="-2.445683000">
        <ele>383.60</ele>
        <time>2017-02-18T10:20:59Z</time>
      </trkpt>
      <trkpt lat="42.476350000" lon="-2.445686000">
        <ele>383.60</ele>
        <time>2017-02-18T10:21:00Z</time>
      </trkpt>
      <trkpt lat="42.476348000" lon="-2.445689000">
        <ele>383.60</ele>
        <time>2017-02-18T10:21:01Z</time>
      </trkpt>
      <trkpt lat="42.476346000" lon="-2.445690000">
        <ele>383.60</ele>
        <time>2017-02-18T10:21:03Z</time>
      </trkpt>
      <trkpt lat="42.476346000" lon="-2.445692000">
        <ele>383.60</ele>
        <time>2017-02-18T10:21:04Z</time>
      </trkpt>
      <trkpt lat="42.476347000" lon="-2.445694000">
        <ele>383.60</ele>
        <time>2017-02-18T10:21:05Z</time>
      </trkpt>
      <trkpt lat="42.476347000" lon="-2.445697000">
        <ele>383.50</ele>
        <time>2017-02-18T10:21:06Z</time>
      </trkpt>
      <trkpt lat="42.476347000" lon="-2.445698000">
        <ele>383.60</ele>
        <time>2017-02-18T10:21:07Z</time>
      </trkpt>
      <trkpt lat="42.476348000" lon="-2.445700000">
        <ele>383.60</ele>
        <time>2017-02-18T10:21:08Z</time>
      </trkpt>
      <trkpt lat="42.476347000" lon="-2.445699000">
        <ele>383.70</ele>
        <time>2017-02-18T10:21:09Z</time>
      </trkpt>
      <trkpt lat="42.476345000" lon="-2.445699000">
        <ele>383.70</ele>
        <time>2017-02-18T10:21:10Z</time>
      </trkpt>
      <trkpt lat="42.476343000" lon="-2.445698000">
        <ele>383.70</ele>
        <time>2017-02-18T10:21:11Z</time>
      </trkpt>
      <trkpt lat="42.476344000" lon="-2.445705000">
        <ele>383.60</ele>
        <time>2017-02-18T10:21:12Z</time>
      </trkpt>
      <trkpt lat="42.476342000" lon="-2.445726000">
        <ele>383.60</ele>
        <time>2017-02-18T10:21:13Z</time>
      </trkpt>
      <trkpt lat="42.476339000" lon="-2.445750000">
        <ele>383.60</ele>
        <time>2017-02-18T10:21:14Z</time>
      </trkpt>
      <trkpt lat="42.476335000" lon="-2.445777000">
        <ele>383.60</ele>
        <time>2017-02-18T10:21:15Z</time>
      </trkpt>
      <trkpt lat="42.476330000" lon="-2.445806000">
        <ele>383.60</ele>
        <time>2017-02-18T10:21:16Z</time>
      </trkpt>
      <trkpt lat="42.476327000" lon="-2.445840000">
        <ele>383.60</ele>
        <time>2017-02-18T10:21:17Z</time>
      </trkpt>
      <trkpt lat="42.476323000" lon="-2.445875000">
        <ele>383.70</ele>
        <time>2017-02-18T10:21:18Z</time>
      </trkpt>
      <trkpt lat="42.476320000" lon="-2.445912000">
        <ele>383.50</ele>
        <time>2017-02-18T10:21:19Z</time>
      </trkpt>
      <trkpt lat="42.476312000" lon="-2.445952000">
        <ele>383.30</ele>
        <time>2017-02-18T10:21:20Z</time>
      </trkpt>
      <trkpt lat="42.476305000" lon="-2.445996000">
        <ele>383.20</ele>
        <time>2017-02-18T10:21:21Z</time>
      </trkpt>
      <trkpt lat="42.476297000" lon="-2.446041000">
        <ele>383.10</ele>
        <time>2017-02-18T10:21:22Z</time>
      </trkpt>
      <trkpt lat="42.476291000" lon="-2.446089000">
        <ele>383.10</ele>
        <time>2017-02-18T10:21:23Z</time>
      </trkpt>
      <trkpt lat="42.476285000" lon="-2.446137000">
        <ele>383.00</ele>
        <time>2017-02-18T10:21:24Z</time>
      </trkpt>
      <trkpt lat="42.476276000" lon="-2.446186000">
        <ele>383.00</ele>
        <time>2017-02-18T10:21:25Z</time>
      </trkpt>
      <trkpt lat="42.476268000" lon="-2.446236000">
        <ele>383.00</ele>
        <time>2017-02-18T10:21:26Z</time>
      </trkpt>
      <trkpt lat="42.476258000" lon="-2.446285000">
        <ele>382.90</ele>
        <time>2017-02-18T10:21:27Z</time>
      </trkpt>
      <trkpt lat="42.476251000" lon="-2.446335000">
        <ele>382.90</ele>
        <time>2017-02-18T10:21:28Z</time>
      </trkpt>
      <trkpt lat="42.476244000" lon="-2.446385000">
        <ele>382.90</ele>
        <time>2017-02-18T10:21:29Z</time>
      </trkpt>
      <trkpt lat="42.476239000" lon="-2.446438000">
        <ele>382.90</ele>
        <time>2017-02-18T10:21:30Z</time>
      </trkpt>
      <trkpt lat="42.476234000" lon="-2.446487000">
        <ele>382.70</ele>
        <time>2017-02-18T10:21:31Z</time>
      </trkpt>
      <trkpt lat="42.476230000" lon="-2.446542000">
        <ele>382.60</ele>
        <time>2017-02-18T10:21:32Z</time>
      </trkpt>
      <trkpt lat="42.476224000" lon="-2.446594000">
        <ele>382.50</ele>
        <time>2017-02-18T10:21:33Z</time>
      </trkpt>
      <trkpt lat="42.476221000" lon="-2.446647000">
        <ele>382.40</ele>
        <time>2017-02-18T10:21:34Z</time>
      </trkpt>
      <trkpt lat="42.476216000" lon="-2.446699000">
        <ele>382.40</ele>
        <time>2017-02-18T10:21:35Z</time>
      </trkpt>
      <trkpt lat="42.476212000" lon="-2.446751000">
        <ele>382.30</ele>
        <time>2017-02-18T10:21:36Z</time>
      </trkpt>
      <trkpt lat="42.476211000" lon="-2.446803000">
        <ele>382.30</ele>
        <time>2017-02-18T10:21:37Z</time>
      </trkpt>
      <trkpt lat="42.476208000" lon="-2.446856000">
        <ele>382.30</ele>
        <time>2017-02-18T10:21:38Z</time>
      </trkpt>
      <trkpt lat="42.476205000" lon="-2.446911000">
        <ele>382.20</ele>
        <time>2017-02-18T10:21:39Z</time>
      </trkpt>
      <trkpt lat="42.476203000" lon="-2.446964000">
        <ele>382.20</ele>
        <time>2017-02-18T10:21:40Z</time>
      </trkpt>
      <trkpt lat="42.476202000" lon="-2.447019000">
        <ele>382.10</ele>
        <time>2017-02-18T10:21:41Z</time>
      </trkpt>
      <trkpt lat="42.476204000" lon="-2.447070000">
        <ele>381.90</ele>
        <time>2017-02-18T10:21:42Z</time>
      </trkpt>
      <trkpt lat="42.476202000" lon="-2.447121000">
        <ele>381.90</ele>
        <time>2017-02-18T10:21:43Z</time>
      </trkpt>
      <trkpt lat="42.476201000" lon="-2.447172000">
        <ele>381.80</ele>
        <time>2017-02-18T10:21:44Z</time>
      </trkpt>
      <trkpt lat="42.476199000" lon="-2.447224000">
        <ele>381.60</ele>
        <time>2017-02-18T10:21:45Z</time>
      </trkpt>
      <trkpt lat="42.476197000" lon="-2.447279000">
        <ele>381.50</ele>
        <time>2017-02-18T10:21:46Z</time>
      </trkpt>
      <trkpt lat="42.476197000" lon="-2.447332000">
        <ele>381.30</ele>
        <time>2017-02-18T10:21:47Z</time>
      </trkpt>
      <trkpt lat="42.476198000" lon="-2.447392000">
        <ele>381.20</ele>
        <time>2017-02-18T10:21:48Z</time>
      </trkpt>
      <trkpt lat="42.476199000" lon="-2.447455000">
        <ele>381.10</ele>
        <time>2017-02-18T10:21:49Z</time>
      </trkpt>
      <trkpt lat="42.476200000" lon="-2.447515000">
        <ele>381.00</ele>
        <time>2017-02-18T10:21:50Z</time>
      </trkpt>
      <trkpt lat="42.476204000" lon="-2.447575000">
        <ele>380.90</ele>
        <time>2017-02-18T10:21:51Z</time>
      </trkpt>
      <trkpt lat="42.476209000" lon="-2.447636000">
        <ele>380.90</ele>
        <time>2017-02-18T10:21:52Z</time>
      </trkpt>
      <trkpt lat="42.476213000" lon="-2.447695000">
        <ele>381.00</ele>
        <time>2017-02-18T10:21:53Z</time>
      </trkpt>
      <trkpt lat="42.476216000" lon="-2.447752000">
        <ele>381.10</ele>
        <time>2017-02-18T10:21:54Z</time>
      </trkpt>
      <trkpt lat="42.476220000" lon="-2.447806000">
        <ele>381.10</ele>
        <time>2017-02-18T10:21:55Z</time>
      </trkpt>
      <trkpt lat="42.476223000" lon="-2.447855000">
        <ele>381.20</ele>
        <time>2017-02-18T10:21:56Z</time>
      </trkpt>
      <trkpt lat="42.476226000" lon="-2.447904000">
        <ele>381.20</ele>
        <time>2017-02-18T10:21:57Z</time>
      </trkpt>
      <trkpt lat="42.476228000" lon="-2.447953000">
        <ele>381.20</ele>
        <time>2017-02-18T10:21:58Z</time>
      </trkpt>
      <trkpt lat="42.476228000" lon="-2.447999000">
        <ele>381.30</ele>
        <time>2017-02-18T10:21:59Z</time>
      </trkpt>
      <trkpt lat="42.476229000" lon="-2.448049000">
        <ele>381.30</ele>
        <time>2017-02-18T10:22:00Z</time>
      </trkpt>
      <trkpt lat="42.476233000" lon="-2.448099000">
        <ele>381.20</ele>
        <time>2017-02-18T10:22:01Z</time>
      </trkpt>
      <trkpt lat="42.476238000" lon="-2.448150000">
        <ele>381.20</ele>
        <time>2017-02-18T10:22:02Z</time>
      </trkpt>
      <trkpt lat="42.476245000" lon="-2.448199000">
        <ele>381.10</ele>
        <time>2017-02-18T10:22:03Z</time>
      </trkpt>
      <trkpt lat="42.476265000" lon="-2.448301000">
        <ele>381.10</ele>
        <time>2017-02-18T10:22:05Z</time>
      </trkpt>
      <trkpt lat="42.476275000" lon="-2.448353000">
        <ele>381.00</ele>
        <time>2017-02-18T10:22:06Z</time>
      </trkpt>
      <trkpt lat="42.476285000" lon="-2.448408000">
        <ele>381.00</ele>
        <time>2017-02-18T10:22:07Z</time>
      </trkpt>
      <trkpt lat="42.476301000" lon="-2.448454000">
        <ele>381.00</ele>
        <time>2017-02-18T10:22:08Z</time>
      </trkpt>
      <trkpt lat="42.476319000" lon="-2.448502000">
        <ele>380.90</ele>
        <time>2017-02-18T10:22:09Z</time>
      </trkpt>
      <trkpt lat="42.476336000" lon="-2.448555000">
        <ele>380.80</ele>
        <time>2017-02-18T10:22:10Z</time>
      </trkpt>
      <trkpt lat="42.476356000" lon="-2.448599000">
        <ele>380.70</ele>
        <time>2017-02-18T10:22:11Z</time>
      </trkpt>
      <trkpt lat="42.476378000" lon="-2.448642000">
        <ele>380.60</ele>
        <time>2017-02-18T10:22:12Z</time>
      </trkpt>
      <trkpt lat="42.476399000" lon="-2.448678000">
        <ele>380.60</ele>
        <time>2017-02-18T10:22:13Z</time>
      </trkpt>
      <trkpt lat="42.476424000" lon="-2.448713000">
        <ele>380.70</ele>
        <time>2017-02-18T10:22:14Z</time>
      </trkpt>
      <trkpt lat="42.476447000" lon="-2.448748000">
        <ele>380.70</ele>
        <time>2017-02-18T10:22:15Z</time>
      </trkpt>
      <trkpt lat="42.476467000" lon="-2.448786000">
        <ele>380.70</ele>
        <time>2017-02-18T10:22:16Z</time>
      </trkpt>
      <trkpt lat="42.476482000" lon="-2.448833000">
        <ele>380.70</ele>
        <time>2017-02-18T10:22:17Z</time>
      </trkpt>
      <trkpt lat="42.476494000" lon="-2.448882000">
        <ele>380.70</ele>
        <time>2017-02-18T10:22:18Z</time>
      </trkpt>
      <trkpt lat="42.476499000" lon="-2.448933000">
        <ele>380.60</ele>
        <time>2017-02-18T10:22:19Z</time>
      </trkpt>
      <trkpt lat="42.476498000" lon="-2.448987000">
        <ele>380.50</ele>
        <time>2017-02-18T10:22:20Z</time>
      </trkpt>
      <trkpt lat="42.476497000" lon="-2.449038000">
        <ele>380.50</ele>
        <time>2017-02-18T10:22:21Z</time>
      </trkpt>
      <trkpt lat="42.476491000" lon="-2.449089000">
        <ele>380.40</ele>
        <time>2017-02-18T10:22:22Z</time>
      </trkpt>
      <trkpt lat="42.476481000" lon="-2.449142000">
        <ele>380.40</ele>
        <time>2017-02-18T10:22:23Z</time>
      </trkpt>
      <trkpt lat="42.476465000" lon="-2.449195000">
        <ele>380.40</ele>
        <time>2017-02-18T10:22:24Z</time>
      </trkpt>
      <trkpt lat="42.476448000" lon="-2.449245000">
        <ele>380.40</ele>
        <time>2017-02-18T10:22:25Z</time>
      </trkpt>
      <trkpt lat="42.476430000" lon="-2.449294000">
        <ele>380.40</ele>
        <time>2017-02-18T10:22:26Z</time>
      </trkpt>
      <trkpt lat="42.476417000" lon="-2.449344000">
        <ele>380.40</ele>
        <time>2017-02-18T10:22:27Z</time>
      </trkpt>
      <trkpt lat="42.476409000" lon="-2.449396000">
        <ele>380.30</ele>
        <time>2017-02-18T10:22:28Z</time>
      </trkpt>
      <trkpt lat="42.476401000" lon="-2.449446000">
        <ele>380.30</ele>
        <time>2017-02-18T10:22:29Z</time>
      </trkpt>
      <trkpt lat="42.476396000" lon="-2.449500000">
        <ele>380.30</ele>
        <time>2017-02-18T10:22:30Z</time>
      </trkpt>
      <trkpt lat="42.476394000" lon="-2.449553000">
        <ele>380.30</ele>
        <time>2017-02-18T10:22:31Z</time>
      </trkpt>
      <trkpt lat="42.476391000" lon="-2.449608000">
        <ele>380.30</ele>
        <time>2017-02-18T10:22:32Z</time>
      </trkpt>
      <trkpt lat="42.476390000" lon="-2.449660000">
        <ele>380.30</ele>
        <time>2017-02-18T10:22:33Z</time>
      </trkpt>
      <trkpt lat="42.476393000" lon="-2.449716000">
        <ele>380.40</ele>
        <time>2017-02-18T10:22:34Z</time>
      </trkpt>
      <trkpt lat="42.476397000" lon="-2.449774000">
        <ele>380.40</ele>
        <time>2017-02-18T10:22:35Z</time>
      </trkpt>
      <trkpt lat="42.476398000" lon="-2.449825000">
        <ele>380.40</ele>
        <time>2017-02-18T10:22:36Z</time>
      </trkpt>
      <trkpt lat="42.476402000" lon="-2.449877000">
        <ele>380.50</ele>
        <time>2017-02-18T10:22:37Z</time>
      </trkpt>
      <trkpt lat="42.476405000" lon="-2.449932000">
        <ele>380.50</ele>
        <time>2017-02-18T10:22:38Z</time>
      </trkpt>
      <trkpt lat="42.476411000" lon="-2.449986000">
        <ele>380.60</ele>
        <time>2017-02-18T10:22:39Z</time>
      </trkpt>
      <trkpt lat="42.476416000" lon="-2.450037000">
        <ele>380.60</ele>
        <time>2017-02-18T10:22:40Z</time>
      </trkpt>
      <trkpt lat="42.476418000" lon="-2.450088000">
        <ele>380.60</ele>
        <time>2017-02-18T10:22:41Z</time>
      </trkpt>
      <trkpt lat="42.476421000" lon="-2.450144000">
        <ele>380.60</ele>
        <time>2017-02-18T10:22:42Z</time>
      </trkpt>
      <trkpt lat="42.476424000" lon="-2.450197000">
        <ele>380.50</ele>
        <time>2017-02-18T10:22:43Z</time>
      </trkpt>
      <trkpt lat="42.476429000" lon="-2.450252000">
        <ele>380.40</ele>
        <time>2017-02-18T10:22:44Z</time>
      </trkpt>
      <trkpt lat="42.476433000" lon="-2.450303000">
        <ele>380.50</ele>
        <time>2017-02-18T10:22:45Z</time>
      </trkpt>
      <trkpt lat="42.476433000" lon="-2.450353000">
        <ele>380.50</ele>
        <time>2017-02-18T10:22:46Z</time>
      </trkpt>
      <trkpt lat="42.476438000" lon="-2.450405000">
        <ele>380.50</ele>
        <time>2017-02-18T10:22:47Z</time>
      </trkpt>
      <trkpt lat="42.476441000" lon="-2.450458000">
        <ele>380.60</ele>
        <time>2017-02-18T10:22:48Z</time>
      </trkpt>
      <trkpt lat="42.476445000" lon="-2.450509000">
        <ele>380.60</ele>
        <time>2017-02-18T10:22:49Z</time>
      </trkpt>
      <trkpt lat="42.476447000" lon="-2.450561000">
        <ele>380.60</ele>
        <time>2017-02-18T10:22:50Z</time>
      </trkpt>
      <trkpt lat="42.476452000" lon="-2.450612000">
        <ele>380.70</ele>
        <time>2017-02-18T10:22:51Z</time>
      </trkpt>
      <trkpt lat="42.476457000" lon="-2.450665000">
        <ele>380.70</ele>
        <time>2017-02-18T10:22:52Z</time>
      </trkpt>
      <trkpt lat="42.476461000" lon="-2.450717000">
        <ele>380.80</ele>
        <time>2017-02-18T10:22:53Z</time>
      </trkpt>
      <trkpt lat="42.476465000" lon="-2.450772000">
        <ele>380.80</ele>
        <time>2017-02-18T10:22:54Z</time>
      </trkpt>
      <trkpt lat="42.476472000" lon="-2.450828000">
        <ele>380.80</ele>
        <time>2017-02-18T10:22:55Z</time>
      </trkpt>
      <trkpt lat="42.476479000" lon="-2.450884000">
        <ele>380.80</ele>
        <time>2017-02-18T10:22:56Z</time>
      </trkpt>
      <trkpt lat="42.476486000" lon="-2.450938000">
        <ele>380.90</ele>
        <time>2017-02-18T10:22:57Z</time>
      </trkpt>
      <trkpt lat="42.476492000" lon="-2.450992000">
        <ele>381.00</ele>
        <time>2017-02-18T10:22:58Z</time>
      </trkpt>
      <trkpt lat="42.476495000" lon="-2.451048000">
        <ele>380.80</ele>
        <time>2017-02-18T10:22:59Z</time>
      </trkpt>
      <trkpt lat="42.476498000" lon="-2.451105000">
        <ele>380.70</ele>
        <time>2017-02-18T10:23:00Z</time>
      </trkpt>
      <trkpt lat="42.476503000" lon="-2.451159000">
        <ele>380.80</ele>
        <time>2017-02-18T10:23:01Z</time>
      </trkpt>
      <trkpt lat="42.476510000" lon="-2.451213000">
        <ele>380.90</ele>
        <time>2017-02-18T10:23:02Z</time>
      </trkpt>
      <trkpt lat="42.476516000" lon="-2.451265000">
        <ele>380.60</ele>
        <time>2017-02-18T10:23:03Z</time>
      </trkpt>
      <trkpt lat="42.476526000" lon="-2.451316000">
        <ele>380.40</ele>
        <time>2017-02-18T10:23:04Z</time>
      </trkpt>
      <trkpt lat="42.476534000" lon="-2.451364000">
        <ele>380.50</ele>
        <time>2017-02-18T10:23:05Z</time>
      </trkpt>
      <trkpt lat="42.476554000" lon="-2.451457000">
        <ele>380.40</ele>
        <time>2017-02-18T10:23:07Z</time>
      </trkpt>
      <trkpt lat="42.476560000" lon="-2.451507000">
        <ele>380.30</ele>
        <time>2017-02-18T10:23:08Z</time>
      </trkpt>
      <trkpt lat="42.476569000" lon="-2.451549000">
        <ele>380.40</ele>
        <time>2017-02-18T10:23:09Z</time>
      </trkpt>
      <trkpt lat="42.476579000" lon="-2.451591000">
        <ele>380.50</ele>
        <time>2017-02-18T10:23:10Z</time>
      </trkpt>
      <trkpt lat="42.476586000" lon="-2.451636000">
        <ele>380.60</ele>
        <time>2017-02-18T10:23:11Z</time>
      </trkpt>
      <trkpt lat="42.476593000" lon="-2.451679000">
        <ele>380.70</ele>
        <time>2017-02-18T10:23:12Z</time>
      </trkpt>
      <trkpt lat="42.476601000" lon="-2.451718000">
        <ele>380.80</ele>
        <time>2017-02-18T10:23:13Z</time>
      </trkpt>
      <trkpt lat="42.476610000" lon="-2.451755000">
        <ele>380.90</ele>
        <time>2017-02-18T10:23:14Z</time>
      </trkpt>
      <trkpt lat="42.476622000" lon="-2.451795000">
        <ele>380.90</ele>
        <time>2017-02-18T10:23:15Z</time>
      </trkpt>
      <trkpt lat="42.476635000" lon="-2.451834000">
        <ele>381.00</ele>
        <time>2017-02-18T10:23:16Z</time>
      </trkpt>
      <trkpt lat="42.476648000" lon="-2.451869000">
        <ele>380.90</ele>
        <time>2017-02-18T10:23:17Z</time>
      </trkpt>
      <trkpt lat="42.476661000" lon="-2.451908000">
        <ele>380.80</ele>
        <time>2017-02-18T10:23:18Z</time>
      </trkpt>
      <trkpt lat="42.476678000" lon="-2.451949000">
        <ele>381.00</ele>
        <time>2017-02-18T10:23:19Z</time>
      </trkpt>
      <trkpt lat="42.476694000" lon="-2.451989000">
        <ele>381.10</ele>
        <time>2017-02-18T10:23:20Z</time>
      </trkpt>
      <trkpt lat="42.476709000" lon="-2.452033000">
        <ele>381.10</ele>
        <time>2017-02-18T10:23:21Z</time>
      </trkpt>
      <trkpt lat="42.476723000" lon="-2.452078000">
        <ele>381.20</ele>
        <time>2017-02-18T10:23:22Z</time>
      </trkpt>
      <trkpt lat="42.476740000" lon="-2.452117000">
        <ele>381.30</ele>
        <time>2017-02-18T10:23:23Z</time>
      </trkpt>
      <trkpt lat="42.476760000" lon="-2.452157000">
        <ele>381.30</ele>
        <time>2017-02-18T10:23:24Z</time>
      </trkpt>
      <trkpt lat="42.476777000" lon="-2.452196000">
        <ele>381.40</ele>
        <time>2017-02-18T10:23:25Z</time>
      </trkpt>
      <trkpt lat="42.476800000" lon="-2.452232000">
        <ele>381.40</ele>
        <time>2017-02-18T10:23:26Z</time>
      </trkpt>
      <trkpt lat="42.476824000" lon="-2.452272000">
        <ele>381.40</ele>
        <time>2017-02-18T10:23:27Z</time>
      </trkpt>
      <trkpt lat="42.476845000" lon="-2.452317000">
        <ele>381.50</ele>
        <time>2017-02-18T10:23:28Z</time>
      </trkpt>
      <trkpt lat="42.476869000" lon="-2.452355000">
        <ele>381.60</ele>
        <time>2017-02-18T10:23:29Z</time>
      </trkpt>
      <trkpt lat="42.476891000" lon="-2.452392000">
        <ele>381.60</ele>
        <time>2017-02-18T10:23:30Z</time>
      </trkpt>
      <trkpt lat="42.476913000" lon="-2.452428000">
        <ele>381.70</ele>
        <time>2017-02-18T10:23:31Z</time>
      </trkpt>
      <trkpt lat="42.476935000" lon="-2.452469000">
        <ele>381.70</ele>
        <time>2017-02-18T10:23:32Z</time>
      </trkpt>
      <trkpt lat="42.476956000" lon="-2.452508000">
        <ele>381.70</ele>
        <time>2017-02-18T10:23:33Z</time>
      </trkpt>
      <trkpt lat="42.476977000" lon="-2.452548000">
        <ele>381.70</ele>
        <time>2017-02-18T10:23:34Z</time>
      </trkpt>
      <trkpt lat="42.476999000" lon="-2.452590000">
        <ele>381.80</ele>
        <time>2017-02-18T10:23:35Z</time>
      </trkpt>
      <trkpt lat="42.477022000" lon="-2.452632000">
        <ele>381.90</ele>
        <time>2017-02-18T10:23:36Z</time>
      </trkpt>
      <trkpt lat="42.477047000" lon="-2.452675000">
        <ele>381.90</ele>
        <time>2017-02-18T10:23:37Z</time>
      </trkpt>
      <trkpt lat="42.477070000" lon="-2.452719000">
        <ele>381.90</ele>
        <time>2017-02-18T10:23:38Z</time>
      </trkpt>
      <trkpt lat="42.477088000" lon="-2.452760000">
        <ele>381.90</ele>
        <time>2017-02-18T10:23:39Z</time>
      </trkpt>
      <trkpt lat="42.477113000" lon="-2.452799000">
        <ele>381.90</ele>
        <time>2017-02-18T10:23:40Z</time>
      </trkpt>
      <trkpt lat="42.477135000" lon="-2.452838000">
        <ele>381.90</ele>
        <time>2017-02-18T10:23:41Z</time>
      </trkpt>
      <trkpt lat="42.477154000" lon="-2.452876000">
        <ele>381.90</ele>
        <time>2017-02-18T10:23:42Z</time>
      </trkpt>
      <trkpt lat="42.477172000" lon="-2.452915000">
        <ele>381.80</ele>
        <time>2017-02-18T10:23:43Z</time>
      </trkpt>
      <trkpt lat="42.477190000" lon="-2.452954000">
        <ele>381.70</ele>
        <time>2017-02-18T10:23:44Z</time>
      </trkpt>
      <trkpt lat="42.477207000" lon="-2.452991000">
        <ele>381.70</ele>
        <time>2017-02-18T10:23:45Z</time>
      </trkpt>
      <trkpt lat="42.477226000" lon="-2.453022000">
        <ele>381.60</ele>
        <time>2017-02-18T10:23:46Z</time>
      </trkpt>
      <trkpt lat="42.477244000" lon="-2.453056000">
        <ele>381.60</ele>
        <time>2017-02-18T10:23:47Z</time>
      </trkpt>
      <trkpt lat="42.477261000" lon="-2.453087000">
        <ele>381.60</ele>
        <time>2017-02-18T10:23:48Z</time>
      </trkpt>
      <trkpt lat="42.477282000" lon="-2.453118000">
        <ele>381.60</ele>
        <time>2017-02-18T10:23:49Z</time>
      </trkpt>
      <trkpt lat="42.477303000" lon="-2.453153000">
        <ele>381.60</ele>
        <time>2017-02-18T10:23:50Z</time>
      </trkpt>
      <trkpt lat="42.477321000" lon="-2.453191000">
        <ele>381.70</ele>
        <time>2017-02-18T10:23:51Z</time>
      </trkpt>
      <trkpt lat="42.477337000" lon="-2.453225000">
        <ele>381.70</ele>
        <time>2017-02-18T10:23:52Z</time>
      </trkpt>
      <trkpt lat="42.477358000" lon="-2.453259000">
        <ele>381.60</ele>
        <time>2017-02-18T10:23:53Z</time>
      </trkpt>
      <trkpt lat="42.477376000" lon="-2.453288000">
        <ele>381.50</ele>
        <time>2017-02-18T10:23:54Z</time>
      </trkpt>
      <trkpt lat="42.477391000" lon="-2.453324000">
        <ele>381.40</ele>
        <time>2017-02-18T10:23:55Z</time>
      </trkpt>
      <trkpt lat="42.477407000" lon="-2.453368000">
        <ele>381.40</ele>
        <time>2017-02-18T10:23:56Z</time>
      </trkpt>
      <trkpt lat="42.477425000" lon="-2.453409000">
        <ele>381.40</ele>
        <time>2017-02-18T10:23:57Z</time>
      </trkpt>
      <trkpt lat="42.477445000" lon="-2.453444000">
        <ele>381.40</ele>
        <time>2017-02-18T10:23:58Z</time>
      </trkpt>
      <trkpt lat="42.477464000" lon="-2.453483000">
        <ele>381.70</ele>
        <time>2017-02-18T10:23:59Z</time>
      </trkpt>
      <trkpt lat="42.477485000" lon="-2.453520000">
        <ele>381.90</ele>
        <time>2017-02-18T10:24:00Z</time>
      </trkpt>
      <trkpt lat="42.477504000" lon="-2.453555000">
        <ele>381.80</ele>
        <time>2017-02-18T10:24:01Z</time>
      </trkpt>
      <trkpt lat="42.477525000" lon="-2.453594000">
        <ele>381.80</ele>
        <time>2017-02-18T10:24:02Z</time>
      </trkpt>
      <trkpt lat="42.477549000" lon="-2.453636000">
        <ele>381.80</ele>
        <time>2017-02-18T10:24:03Z</time>
      </trkpt>
      <trkpt lat="42.477571000" lon="-2.453674000">
        <ele>381.90</ele>
        <time>2017-02-18T10:24:04Z</time>
      </trkpt>
      <trkpt lat="42.477596000" lon="-2.453714000">
        <ele>381.90</ele>
        <time>2017-02-18T10:24:05Z</time>
      </trkpt>
      <trkpt lat="42.477618000" lon="-2.453757000">
        <ele>381.90</ele>
        <time>2017-02-18T10:24:06Z</time>
      </trkpt>
      <trkpt lat="42.477661000" lon="-2.453835000">
        <ele>381.90</ele>
        <time>2017-02-18T10:24:08Z</time>
      </trkpt>
      <trkpt lat="42.477684000" lon="-2.453869000">
        <ele>381.90</ele>
        <time>2017-02-18T10:24:09Z</time>
      </trkpt>
      <trkpt lat="42.477706000" lon="-2.453904000">
        <ele>381.90</ele>
        <time>2017-02-18T10:24:10Z</time>
      </trkpt>
      <trkpt lat="42.477727000" lon="-2.453945000">
        <ele>381.90</ele>
        <time>2017-02-18T10:24:11Z</time>
      </trkpt>
      <trkpt lat="42.477748000" lon="-2.453987000">
        <ele>381.80</ele>
        <time>2017-02-18T10:24:12Z</time>
      </trkpt>
      <trkpt lat="42.477768000" lon="-2.454022000">
        <ele>381.70</ele>
        <time>2017-02-18T10:24:13Z</time>
      </trkpt>
      <trkpt lat="42.477792000" lon="-2.454053000">
        <ele>381.60</ele>
        <time>2017-02-18T10:24:14Z</time>
      </trkpt>
      <trkpt lat="42.477814000" lon="-2.454091000">
        <ele>381.60</ele>
        <time>2017-02-18T10:24:15Z</time>
      </trkpt>
      <trkpt lat="42.477835000" lon="-2.454130000">
        <ele>381.50</ele>
        <time>2017-02-18T10:24:16Z</time>
      </trkpt>
      <trkpt lat="42.477857000" lon="-2.454165000">
        <ele>381.50</ele>
        <time>2017-02-18T10:24:17Z</time>
      </trkpt>
      <trkpt lat="42.477879000" lon="-2.454205000">
        <ele>381.50</ele>
        <time>2017-02-18T10:24:18Z</time>
      </trkpt>
      <trkpt lat="42.477900000" lon="-2.454246000">
        <ele>381.50</ele>
        <time>2017-02-18T10:24:19Z</time>
      </trkpt>
      <trkpt lat="42.477924000" lon="-2.454282000">
        <ele>381.60</ele>
        <time>2017-02-18T10:24:20Z</time>
      </trkpt>
      <trkpt lat="42.477945000" lon="-2.454326000">
        <ele>381.70</ele>
        <time>2017-02-18T10:24:21Z</time>
      </trkpt>
      <trkpt lat="42.477969000" lon="-2.454366000">
        <ele>381.80</ele>
        <time>2017-02-18T10:24:22Z</time>
      </trkpt>
      <trkpt lat="42.477993000" lon="-2.454406000">
        <ele>381.90</ele>
        <time>2017-02-18T10:24:23Z</time>
      </trkpt>
      <trkpt lat="42.478014000" lon="-2.454449000">
        <ele>381.90</ele>
        <time>2017-02-18T10:24:24Z</time>
      </trkpt>
      <trkpt lat="42.478038000" lon="-2.454488000">
        <ele>381.80</ele>
        <time>2017-02-18T10:24:25Z</time>
      </trkpt>
      <trkpt lat="42.478058000" lon="-2.454528000">
        <ele>381.70</ele>
        <time>2017-02-18T10:24:26Z</time>
      </trkpt>
      <trkpt lat="42.478085000" lon="-2.454568000">
        <ele>381.60</ele>
        <time>2017-02-18T10:24:27Z</time>
      </trkpt>
      <trkpt lat="42.478110000" lon="-2.454611000">
        <ele>381.50</ele>
        <time>2017-02-18T10:24:28Z</time>
      </trkpt>
      <trkpt lat="42.478133000" lon="-2.454653000">
        <ele>381.50</ele>
        <time>2017-02-18T10:24:29Z</time>
      </trkpt>
      <trkpt lat="42.478158000" lon="-2.454694000">
        <ele>381.50</ele>
        <time>2017-02-18T10:24:30Z</time>
      </trkpt>
      <trkpt lat="42.478181000" lon="-2.454736000">
        <ele>381.70</ele>
        <time>2017-02-18T10:24:31Z</time>
      </trkpt>
      <trkpt lat="42.478206000" lon="-2.454777000">
        <ele>381.90</ele>
        <time>2017-02-18T10:24:32Z</time>
      </trkpt>
      <trkpt lat="42.478232000" lon="-2.454817000">
        <ele>382.00</ele>
        <time>2017-02-18T10:24:33Z</time>
      </trkpt>
      <trkpt lat="42.478259000" lon="-2.454860000">
        <ele>382.10</ele>
        <time>2017-02-18T10:24:34Z</time>
      </trkpt>
      <trkpt lat="42.478285000" lon="-2.454902000">
        <ele>381.90</ele>
        <time>2017-02-18T10:24:35Z</time>
      </trkpt>
      <trkpt lat="42.478312000" lon="-2.454942000">
        <ele>381.80</ele>
        <time>2017-02-18T10:24:36Z</time>
      </trkpt>
      <trkpt lat="42.478336000" lon="-2.454981000">
        <ele>381.70</ele>
        <time>2017-02-18T10:24:37Z</time>
      </trkpt>
      <trkpt lat="42.478356000" lon="-2.455022000">
        <ele>381.70</ele>
        <time>2017-02-18T10:24:38Z</time>
      </trkpt>
      <trkpt lat="42.478382000" lon="-2.455057000">
        <ele>381.80</ele>
        <time>2017-02-18T10:24:39Z</time>
      </trkpt>
      <trkpt lat="42.478408000" lon="-2.455096000">
        <ele>381.90</ele>
        <time>2017-02-18T10:24:40Z</time>
      </trkpt>
      <trkpt lat="42.478429000" lon="-2.455136000">
        <ele>382.10</ele>
        <time>2017-02-18T10:24:41Z</time>
      </trkpt>
      <trkpt lat="42.478452000" lon="-2.455177000">
        <ele>382.20</ele>
        <time>2017-02-18T10:24:42Z</time>
      </trkpt>
      <trkpt lat="42.478478000" lon="-2.455217000">
        <ele>382.20</ele>
        <time>2017-02-18T10:24:43Z</time>
      </trkpt>
      <trkpt lat="42.478501000" lon="-2.455255000">
        <ele>382.30</ele>
        <time>2017-02-18T10:24:44Z</time>
      </trkpt>
      <trkpt lat="42.478527000" lon="-2.455295000">
        <ele>382.30</ele>
        <time>2017-02-18T10:24:45Z</time>
      </trkpt>
      <trkpt lat="42.478553000" lon="-2.455335000">
        <ele>382.30</ele>
        <time>2017-02-18T10:24:46Z</time>
      </trkpt>
      <trkpt lat="42.478579000" lon="-2.455373000">
        <ele>382.30</ele>
        <time>2017-02-18T10:24:47Z</time>
      </trkpt>
      <trkpt lat="42.478605000" lon="-2.455414000">
        <ele>382.30</ele>
        <time>2017-02-18T10:24:48Z</time>
      </trkpt>
      <trkpt lat="42.478631000" lon="-2.455455000">
        <ele>382.30</ele>
        <time>2017-02-18T10:24:49Z</time>
      </trkpt>
      <trkpt lat="42.478655000" lon="-2.455496000">
        <ele>382.30</ele>
        <time>2017-02-18T10:24:50Z</time>
      </trkpt>
      <trkpt lat="42.478682000" lon="-2.455529000">
        <ele>382.30</ele>
        <time>2017-02-18T10:24:51Z</time>
      </trkpt>
      <trkpt lat="42.478707000" lon="-2.455574000">
        <ele>382.40</ele>
        <time>2017-02-18T10:24:52Z</time>
      </trkpt>
      <trkpt lat="42.478730000" lon="-2.455611000">
        <ele>382.40</ele>
        <time>2017-02-18T10:24:53Z</time>
      </trkpt>
      <trkpt lat="42.478755000" lon="-2.455650000">
        <ele>382.40</ele>
        <time>2017-02-18T10:24:54Z</time>
      </trkpt>
      <trkpt lat="42.478777000" lon="-2.455692000">
        <ele>382.40</ele>
        <time>2017-02-18T10:24:55Z</time>
      </trkpt>
      <trkpt lat="42.478803000" lon="-2.455732000">
        <ele>382.40</ele>
        <time>2017-02-18T10:24:56Z</time>
      </trkpt>
      <trkpt lat="42.478829000" lon="-2.455772000">
        <ele>382.20</ele>
        <time>2017-02-18T10:24:57Z</time>
      </trkpt>
      <trkpt lat="42.478853000" lon="-2.455810000">
        <ele>382.10</ele>
        <time>2017-02-18T10:24:58Z</time>
      </trkpt>
      <trkpt lat="42.478880000" lon="-2.455847000">
        <ele>382.00</ele>
        <time>2017-02-18T10:24:59Z</time>
      </trkpt>
      <trkpt lat="42.478905000" lon="-2.455891000">
        <ele>381.90</ele>
        <time>2017-02-18T10:25:00Z</time>
      </trkpt>
      <trkpt lat="42.478932000" lon="-2.455928000">
        <ele>382.00</ele>
        <time>2017-02-18T10:25:01Z</time>
      </trkpt>
      <trkpt lat="42.478961000" lon="-2.455960000">
        <ele>382.00</ele>
        <time>2017-02-18T10:25:02Z</time>
      </trkpt>
      <trkpt lat="42.478988000" lon="-2.455994000">
        <ele>382.10</ele>
        <time>2017-02-18T10:25:03Z</time>
      </trkpt>
      <trkpt lat="42.479012000" lon="-2.456033000">
        <ele>382.20</ele>
        <time>2017-02-18T10:25:04Z</time>
      </trkpt>
      <trkpt lat="42.479035000" lon="-2.456070000">
        <ele>382.30</ele>
        <time>2017-02-18T10:25:05Z</time>
      </trkpt>
      <trkpt lat="42.479057000" lon="-2.456109000">
        <ele>382.50</ele>
        <time>2017-02-18T10:25:06Z</time>
      </trkpt>
      <trkpt lat="42.479080000" lon="-2.456147000">
        <ele>382.60</ele>
        <time>2017-02-18T10:25:07Z</time>
      </trkpt>
      <trkpt lat="42.479126000" lon="-2.456222000">
        <ele>382.70</ele>
        <time>2017-02-18T10:25:09Z</time>
      </trkpt>
      <trkpt lat="42.479149000" lon="-2.456254000">
        <ele>382.70</ele>
        <time>2017-02-18T10:25:10Z</time>
      </trkpt>
      <trkpt lat="42.479169000" lon="-2.456292000">
        <ele>382.60</ele>
        <time>2017-02-18T10:25:11Z</time>
      </trkpt>
      <trkpt lat="42.479189000" lon="-2.456327000">
        <ele>382.50</ele>
        <time>2017-02-18T10:25:12Z</time>
      </trkpt>
      <trkpt lat="42.479206000" lon="-2.456365000">
        <ele>382.40</ele>
        <time>2017-02-18T10:25:13Z</time>
      </trkpt>
      <trkpt lat="42.479225000" lon="-2.456394000">
        <ele>382.40</ele>
        <time>2017-02-18T10:25:14Z</time>
      </trkpt>
      <trkpt lat="42.479242000" lon="-2.456422000">
        <ele>382.30</ele>
        <time>2017-02-18T10:25:15Z</time>
      </trkpt>
      <trkpt lat="42.479261000" lon="-2.456445000">
        <ele>382.30</ele>
        <time>2017-02-18T10:25:16Z</time>
      </trkpt>
      <trkpt lat="42.479274000" lon="-2.456469000">
        <ele>382.30</ele>
        <time>2017-02-18T10:25:17Z</time>
      </trkpt>
      <trkpt lat="42.479286000" lon="-2.456487000">
        <ele>382.40</ele>
        <time>2017-02-18T10:25:18Z</time>
      </trkpt>
      <trkpt lat="42.479296000" lon="-2.456500000">
        <ele>382.40</ele>
        <time>2017-02-18T10:25:19Z</time>
      </trkpt>
      <trkpt lat="42.479303000" lon="-2.456515000">
        <ele>382.40</ele>
        <time>2017-02-18T10:25:20Z</time>
      </trkpt>
      <trkpt lat="42.479309000" lon="-2.456530000">
        <ele>382.40</ele>
        <time>2017-02-18T10:25:21Z</time>
      </trkpt>
      <trkpt lat="42.479319000" lon="-2.456540000">
        <ele>382.40</ele>
        <time>2017-02-18T10:25:22Z</time>
      </trkpt>
      <trkpt lat="42.479325000" lon="-2.456550000">
        <ele>382.30</ele>
        <time>2017-02-18T10:25:23Z</time>
      </trkpt>
      <trkpt lat="42.479329000" lon="-2.456572000">
        <ele>382.30</ele>
        <time>2017-02-18T10:25:24Z</time>
      </trkpt>
      <trkpt lat="42.479327000" lon="-2.456595000">
        <ele>382.20</ele>
        <time>2017-02-18T10:25:25Z</time>
      </trkpt>
      <trkpt lat="42.479323000" lon="-2.456617000">
        <ele>382.10</ele>
        <time>2017-02-18T10:25:26Z</time>
      </trkpt>
      <trkpt lat="42.479311000" lon="-2.456637000">
        <ele>382.00</ele>
        <time>2017-02-18T10:25:27Z</time>
      </trkpt>
      <trkpt lat="42.479297000" lon="-2.456652000">
        <ele>382.00</ele>
        <time>2017-02-18T10:25:28Z</time>
      </trkpt>
      <trkpt lat="42.479277000" lon="-2.456672000">
        <ele>381.70</ele>
        <time>2017-02-18T10:25:29Z</time>
      </trkpt>
      <trkpt lat="42.479255000" lon="-2.456698000">
        <ele>381.60</ele>
        <time>2017-02-18T10:25:30Z</time>
      </trkpt>
      <trkpt lat="42.479232000" lon="-2.456717000">
        <ele>381.40</ele>
        <time>2017-02-18T10:25:31Z</time>
      </trkpt>
      <trkpt lat="42.479213000" lon="-2.456739000">
        <ele>381.30</ele>
        <time>2017-02-18T10:25:32Z</time>
      </trkpt>
      <trkpt lat="42.479200000" lon="-2.456763000">
        <ele>381.30</ele>
        <time>2017-02-18T10:25:33Z</time>
      </trkpt>
      <trkpt lat="42.479193000" lon="-2.456795000">
        <ele>381.20</ele>
        <time>2017-02-18T10:25:34Z</time>
      </trkpt>
      <trkpt lat="42.479195000" lon="-2.456828000">
        <ele>381.10</ele>
        <time>2017-02-18T10:25:35Z</time>
      </trkpt>
      <trkpt lat="42.479200000" lon="-2.456865000">
        <ele>381.10</ele>
        <time>2017-02-18T10:25:36Z</time>
      </trkpt>
      <trkpt lat="42.479207000" lon="-2.456901000">
        <ele>381.30</ele>
        <time>2017-02-18T10:25:37Z</time>
      </trkpt>
      <trkpt lat="42.479209000" lon="-2.456928000">
        <ele>381.50</ele>
        <time>2017-02-18T10:25:38Z</time>
      </trkpt>
      <trkpt lat="42.479211000" lon="-2.456926000">
        <ele>381.60</ele>
        <time>2017-02-18T10:25:39Z</time>
      </trkpt>
      <trkpt lat="42.479213000" lon="-2.456925000">
        <ele>381.70</ele>
        <time>2017-02-18T10:25:40Z</time>
      </trkpt>
      <trkpt lat="42.479214000" lon="-2.456921000">
        <ele>381.50</ele>
        <time>2017-02-18T10:25:41Z</time>
      </trkpt>
      <trkpt lat="42.479218000" lon="-2.456921000">
        <ele>381.40</ele>
        <time>2017-02-18T10:25:42Z</time>
      </trkpt>
      <trkpt lat="42.479224000" lon="-2.456923000">
        <ele>381.30</ele>
        <time>2017-02-18T10:25:43Z</time>
      </trkpt>
      <trkpt lat="42.479229000" lon="-2.456927000">
        <ele>381.20</ele>
        <time>2017-02-18T10:25:44Z</time>
      </trkpt>
      <trkpt lat="42.479237000" lon="-2.456927000">
        <ele>381.10</ele>
        <time>2017-02-18T10:25:45Z</time>
      </trkpt>
      <trkpt lat="42.479240000" lon="-2.456929000">
        <ele>381.10</ele>
        <time>2017-02-18T10:25:46Z</time>
      </trkpt>
      <trkpt lat="42.479245000" lon="-2.456933000">
        <ele>381.00</ele>
        <time>2017-02-18T10:25:47Z</time>
      </trkpt>
      <trkpt lat="42.479249000" lon="-2.456936000">
        <ele>381.00</ele>
        <time>2017-02-18T10:25:48Z</time>
      </trkpt>
      <trkpt lat="42.479251000" lon="-2.456935000">
        <ele>381.00</ele>
        <time>2017-02-18T10:25:49Z</time>
      </trkpt>
      <trkpt lat="42.479252000" lon="-2.456938000">
        <ele>381.00</ele>
        <time>2017-02-18T10:25:50Z</time>
      </trkpt>
      <trkpt lat="42.479252000" lon="-2.456941000">
        <ele>381.10</ele>
        <time>2017-02-18T10:25:51Z</time>
      </trkpt>
      <trkpt lat="42.479254000" lon="-2.456944000">
        <ele>381.10</ele>
        <time>2017-02-18T10:25:52Z</time>
      </trkpt>
      <trkpt lat="42.479255000" lon="-2.456947000">
        <ele>381.10</ele>
        <time>2017-02-18T10:25:53Z</time>
      </trkpt>
      <trkpt lat="42.479255000" lon="-2.456948000">
        <ele>381.10</ele>
        <time>2017-02-18T10:25:54Z</time>
      </trkpt>
      <trkpt lat="42.479255000" lon="-2.456947000">
        <ele>381.10</ele>
        <time>2017-02-18T10:25:55Z</time>
      </trkpt>
      <trkpt lat="42.479256000" lon="-2.456946000">
        <ele>381.10</ele>
        <time>2017-02-18T10:25:56Z</time>
      </trkpt>
      <trkpt lat="42.479254000" lon="-2.456945000">
        <ele>381.00</ele>
        <time>2017-02-18T10:25:57Z</time>
      </trkpt>
      <trkpt lat="42.479252000" lon="-2.456944000">
        <ele>381.00</ele>
        <time>2017-02-18T10:25:58Z</time>
      </trkpt>
      <trkpt lat="42.479249000" lon="-2.456943000">
        <ele>380.80</ele>
        <time>2017-02-18T10:25:59Z</time>
      </trkpt>
      <trkpt lat="42.479250000" lon="-2.456939000">
        <ele>380.70</ele>
        <time>2017-02-18T10:26:00Z</time>
      </trkpt>
      <trkpt lat="42.479251000" lon="-2.456937000">
        <ele>380.60</ele>
        <time>2017-02-18T10:26:01Z</time>
      </trkpt>
      <trkpt lat="42.479245000" lon="-2.456939000">
        <ele>380.50</ele>
        <time>2017-02-18T10:26:02Z</time>
      </trkpt>
      <trkpt lat="42.479243000" lon="-2.456941000">
        <ele>380.60</ele>
        <time>2017-02-18T10:26:03Z</time>
      </trkpt>
      <trkpt lat="42.479245000" lon="-2.456943000">
        <ele>380.60</ele>
        <time>2017-02-18T10:26:04Z</time>
      </trkpt>
      <trkpt lat="42.479244000" lon="-2.456948000">
        <ele>380.70</ele>
        <time>2017-02-18T10:26:05Z</time>
      </trkpt>
      <trkpt lat="42.479244000" lon="-2.456953000">
        <ele>380.80</ele>
        <time>2017-02-18T10:26:06Z</time>
      </trkpt>
      <trkpt lat="42.479245000" lon="-2.456955000">
        <ele>380.80</ele>
        <time>2017-02-18T10:26:07Z</time>
      </trkpt>
      <trkpt lat="42.479247000" lon="-2.456959000">
        <ele>380.70</ele>
        <time>2017-02-18T10:26:08Z</time>
      </trkpt>
      <trkpt lat="42.479251000" lon="-2.456956000">
        <ele>380.80</ele>
        <time>2017-02-18T10:26:09Z</time>
      </trkpt>
      <trkpt lat="42.479260000" lon="-2.456957000">
        <ele>380.90</ele>
        <time>2017-02-18T10:26:11Z</time>
      </trkpt>
      <trkpt lat="42.479259000" lon="-2.456958000">
        <ele>381.00</ele>
        <time>2017-02-18T10:26:12Z</time>
      </trkpt>
      <trkpt lat="42.479260000" lon="-2.456958000">
        <ele>381.20</ele>
        <time>2017-02-18T10:26:13Z</time>
      </trkpt>
      <trkpt lat="42.479262000" lon="-2.456961000">
        <ele>381.30</ele>
        <time>2017-02-18T10:26:14Z</time>
      </trkpt>
      <trkpt lat="42.479264000" lon="-2.456961000">
        <ele>381.40</ele>
        <time>2017-02-18T10:26:15Z</time>
      </trkpt>
      <trkpt lat="42.479258000" lon="-2.456956000">
        <ele>381.50</ele>
        <time>2017-02-18T10:26:16Z</time>
      </trkpt>
      <trkpt lat="42.479250000" lon="-2.456949000">
        <ele>381.30</ele>
        <time>2017-02-18T10:26:17Z</time>
      </trkpt>
      <trkpt lat="42.479245000" lon="-2.456949000">
        <ele>381.20</ele>
        <time>2017-02-18T10:26:18Z</time>
      </trkpt>
      <trkpt lat="42.479241000" lon="-2.456952000">
        <ele>381.10</ele>
        <time>2017-02-18T10:26:19Z</time>
      </trkpt>
      <trkpt lat="42.479229000" lon="-2.456963000">
        <ele>381.10</ele>
        <time>2017-02-18T10:26:20Z</time>
      </trkpt>
      <trkpt lat="42.479219000" lon="-2.456978000">
        <ele>381.10</ele>
        <time>2017-02-18T10:26:21Z</time>
      </trkpt>
      <trkpt lat="42.479208000" lon="-2.456992000">
        <ele>381.10</ele>
        <time>2017-02-18T10:26:22Z</time>
      </trkpt>
      <trkpt lat="42.479198000" lon="-2.457007000">
        <ele>381.20</ele>
        <time>2017-02-18T10:26:23Z</time>
      </trkpt>
      <trkpt lat="42.479187000" lon="-2.457027000">
        <ele>381.20</ele>
        <time>2017-02-18T10:26:24Z</time>
      </trkpt>
      <trkpt lat="42.479175000" lon="-2.457047000">
        <ele>381.20</ele>
        <time>2017-02-18T10:26:25Z</time>
      </trkpt>
      <trkpt lat="42.479161000" lon="-2.457066000">
        <ele>381.30</ele>
        <time>2017-02-18T10:26:26Z</time>
      </trkpt>
      <trkpt lat="42.479144000" lon="-2.457088000">
        <ele>381.30</ele>
        <time>2017-02-18T10:26:27Z</time>
      </trkpt>
      <trkpt lat="42.479123000" lon="-2.457111000">
        <ele>381.30</ele>
        <time>2017-02-18T10:26:28Z</time>
      </trkpt>
      <trkpt lat="42.479100000" lon="-2.457132000">
        <ele>381.30</ele>
        <time>2017-02-18T10:26:29Z</time>
      </trkpt>
      <trkpt lat="42.479080000" lon="-2.457160000">
        <ele>381.30</ele>
        <time>2017-02-18T10:26:30Z</time>
      </trkpt>
      <trkpt lat="42.479060000" lon="-2.457186000">
        <ele>381.00</ele>
        <time>2017-02-18T10:26:31Z</time>
      </trkpt>
      <trkpt lat="42.479042000" lon="-2.457216000">
        <ele>380.80</ele>
        <time>2017-02-18T10:26:32Z</time>
      </trkpt>
      <trkpt lat="42.479022000" lon="-2.457244000">
        <ele>380.70</ele>
        <time>2017-02-18T10:26:33Z</time>
      </trkpt>
      <trkpt lat="42.479002000" lon="-2.457269000">
        <ele>380.60</ele>
        <time>2017-02-18T10:26:34Z</time>
      </trkpt>
      <trkpt lat="42.478979000" lon="-2.457296000">
        <ele>380.60</ele>
        <time>2017-02-18T10:26:35Z</time>
      </trkpt>
      <trkpt lat="42.478959000" lon="-2.457328000">
        <ele>380.60</ele>
        <time>2017-02-18T10:26:36Z</time>
      </trkpt>
      <trkpt lat="42.478937000" lon="-2.457357000">
        <ele>380.70</ele>
        <time>2017-02-18T10:26:37Z</time>
      </trkpt>
      <trkpt lat="42.478915000" lon="-2.457389000">
        <ele>380.70</ele>
        <time>2017-02-18T10:26:38Z</time>
      </trkpt>
      <trkpt lat="42.478895000" lon="-2.457422000">
        <ele>380.70</ele>
        <time>2017-02-18T10:26:39Z</time>
      </trkpt>
      <trkpt lat="42.478873000" lon="-2.457458000">
        <ele>380.70</ele>
        <time>2017-02-18T10:26:40Z</time>
      </trkpt>
      <trkpt lat="42.478851000" lon="-2.457490000">
        <ele>380.80</ele>
        <time>2017-02-18T10:26:41Z</time>
      </trkpt>
      <trkpt lat="42.478829000" lon="-2.457523000">
        <ele>380.80</ele>
        <time>2017-02-18T10:26:42Z</time>
      </trkpt>
      <trkpt lat="42.478803000" lon="-2.457557000">
        <ele>380.80</ele>
        <time>2017-02-18T10:26:43Z</time>
      </trkpt>
      <trkpt lat="42.478778000" lon="-2.457590000">
        <ele>380.90</ele>
        <time>2017-02-18T10:26:44Z</time>
      </trkpt>
      <trkpt lat="42.478753000" lon="-2.457621000">
        <ele>380.80</ele>
        <time>2017-02-18T10:26:45Z</time>
      </trkpt>
      <trkpt lat="42.478728000" lon="-2.457655000">
        <ele>380.80</ele>
        <time>2017-02-18T10:26:46Z</time>
      </trkpt>
      <trkpt lat="42.478702000" lon="-2.457685000">
        <ele>380.70</ele>
        <time>2017-02-18T10:26:47Z</time>
      </trkpt>
      <trkpt lat="42.478679000" lon="-2.457720000">
        <ele>380.70</ele>
        <time>2017-02-18T10:26:48Z</time>
      </trkpt>
      <trkpt lat="42.478654000" lon="-2.457752000">
        <ele>380.70</ele>
        <time>2017-02-18T10:26:49Z</time>
      </trkpt>
      <trkpt lat="42.478632000" lon="-2.457786000">
        <ele>380.70</ele>
        <time>2017-02-18T10:26:50Z</time>
      </trkpt>
      <trkpt lat="42.478609000" lon="-2.457822000">
        <ele>380.60</ele>
        <time>2017-02-18T10:26:51Z</time>
      </trkpt>
      <trkpt lat="42.478587000" lon="-2.457860000">
        <ele>380.60</ele>
        <time>2017-02-18T10:26:52Z</time>
      </trkpt>
      <trkpt lat="42.478562000" lon="-2.457894000">
        <ele>380.60</ele>
        <time>2017-02-18T10:26:53Z</time>
      </trkpt>
      <trkpt lat="42.478537000" lon="-2.457930000">
        <ele>380.60</ele>
        <time>2017-02-18T10:26:54Z</time>
      </trkpt>
      <trkpt lat="42.478513000" lon="-2.457967000">
        <ele>380.50</ele>
        <time>2017-02-18T10:26:55Z</time>
      </trkpt>
      <trkpt lat="42.478488000" lon="-2.458001000">
        <ele>380.50</ele>
        <time>2017-02-18T10:26:56Z</time>
      </trkpt>
      <trkpt lat="42.478463000" lon="-2.458035000">
        <ele>380.50</ele>
        <time>2017-02-18T10:26:57Z</time>
      </trkpt>
      <trkpt lat="42.478436000" lon="-2.458071000">
        <ele>380.50</ele>
        <time>2017-02-18T10:26:58Z</time>
      </trkpt>
      <trkpt lat="42.478411000" lon="-2.458108000">
        <ele>380.60</ele>
        <time>2017-02-18T10:26:59Z</time>
      </trkpt>
      <trkpt lat="42.478385000" lon="-2.458144000">
        <ele>380.60</ele>
        <time>2017-02-18T10:27:00Z</time>
      </trkpt>
      <trkpt lat="42.478357000" lon="-2.458176000">
        <ele>380.60</ele>
        <time>2017-02-18T10:27:01Z</time>
      </trkpt>
      <trkpt lat="42.478327000" lon="-2.458209000">
        <ele>380.60</ele>
        <time>2017-02-18T10:27:02Z</time>
      </trkpt>
      <trkpt lat="42.478298000" lon="-2.458245000">
        <ele>380.60</ele>
        <time>2017-02-18T10:27:03Z</time>
      </trkpt>
      <trkpt lat="42.478270000" lon="-2.458284000">
        <ele>380.60</ele>
        <time>2017-02-18T10:27:04Z</time>
      </trkpt>
      <trkpt lat="42.478243000" lon="-2.458323000">
        <ele>380.70</ele>
        <time>2017-02-18T10:27:05Z</time>
      </trkpt>
      <trkpt lat="42.478215000" lon="-2.458358000">
        <ele>380.70</ele>
        <time>2017-02-18T10:27:06Z</time>
      </trkpt>
      <trkpt lat="42.478186000" lon="-2.458393000">
        <ele>380.60</ele>
        <time>2017-02-18T10:27:07Z</time>
      </trkpt>
      <trkpt lat="42.478158000" lon="-2.458428000">
        <ele>380.50</ele>
        <time>2017-02-18T10:27:08Z</time>
      </trkpt>
      <trkpt lat="42.478129000" lon="-2.458463000">
        <ele>380.50</ele>
        <time>2017-02-18T10:27:09Z</time>
      </trkpt>
      <trkpt lat="42.478101000" lon="-2.458500000">
        <ele>380.50</ele>
        <time>2017-02-18T10:27:10Z</time>
      </trkpt>
      <trkpt lat="42.478071000" lon="-2.458536000">
        <ele>380.40</ele>
        <time>2017-02-18T10:27:11Z</time>
      </trkpt>
      <trkpt lat="42.478013000" lon="-2.458605000">
        <ele>380.40</ele>
        <time>2017-02-18T10:27:13Z</time>
      </trkpt>
      <trkpt lat="42.477986000" lon="-2.458641000">
        <ele>380.40</ele>
        <time>2017-02-18T10:27:14Z</time>
      </trkpt>
      <trkpt lat="42.477960000" lon="-2.458678000">
        <ele>380.40</ele>
        <time>2017-02-18T10:27:15Z</time>
      </trkpt>
      <trkpt lat="42.477931000" lon="-2.458713000">
        <ele>380.30</ele>
        <time>2017-02-18T10:27:16Z</time>
      </trkpt>
      <trkpt lat="42.477903000" lon="-2.458750000">
        <ele>380.30</ele>
        <time>2017-02-18T10:27:17Z</time>
      </trkpt>
      <trkpt lat="42.477876000" lon="-2.458787000">
        <ele>380.20</ele>
        <time>2017-02-18T10:27:18Z</time>
      </trkpt>
      <trkpt lat="42.477848000" lon="-2.458825000">
        <ele>380.10</ele>
        <time>2017-02-18T10:27:19Z</time>
      </trkpt>
      <trkpt lat="42.477821000" lon="-2.458864000">
        <ele>380.00</ele>
        <time>2017-02-18T10:27:20Z</time>
      </trkpt>
      <trkpt lat="42.477793000" lon="-2.458901000">
        <ele>379.90</ele>
        <time>2017-02-18T10:27:21Z</time>
      </trkpt>
      <trkpt lat="42.477762000" lon="-2.458935000">
        <ele>379.90</ele>
        <time>2017-02-18T10:27:22Z</time>
      </trkpt>
      <trkpt lat="42.477733000" lon="-2.458971000">
        <ele>379.80</ele>
        <time>2017-02-18T10:27:23Z</time>
      </trkpt>
      <trkpt lat="42.477707000" lon="-2.459006000">
        <ele>379.70</ele>
        <time>2017-02-18T10:27:24Z</time>
      </trkpt>
      <trkpt lat="42.477680000" lon="-2.459043000">
        <ele>379.80</ele>
        <time>2017-02-18T10:27:25Z</time>
      </trkpt>
      <trkpt lat="42.477653000" lon="-2.459078000">
        <ele>379.90</ele>
        <time>2017-02-18T10:27:26Z</time>
      </trkpt>
      <trkpt lat="42.477627000" lon="-2.459109000">
        <ele>379.70</ele>
        <time>2017-02-18T10:27:27Z</time>
      </trkpt>
      <trkpt lat="42.477602000" lon="-2.459143000">
        <ele>379.50</ele>
        <time>2017-02-18T10:27:28Z</time>
      </trkpt>
      <trkpt lat="42.477580000" lon="-2.459177000">
        <ele>379.70</ele>
        <time>2017-02-18T10:27:29Z</time>
      </trkpt>
      <trkpt lat="42.477560000" lon="-2.459211000">
        <ele>379.80</ele>
        <time>2017-02-18T10:27:30Z</time>
      </trkpt>
      <trkpt lat="42.477545000" lon="-2.459244000">
        <ele>379.70</ele>
        <time>2017-02-18T10:27:31Z</time>
      </trkpt>
      <trkpt lat="42.477532000" lon="-2.459282000">
        <ele>379.60</ele>
        <time>2017-02-18T10:27:32Z</time>
      </trkpt>
      <trkpt lat="42.477520000" lon="-2.459321000">
        <ele>379.70</ele>
        <time>2017-02-18T10:27:33Z</time>
      </trkpt>
      <trkpt lat="42.477518000" lon="-2.459362000">
        <ele>379.80</ele>
        <time>2017-02-18T10:27:34Z</time>
      </trkpt>
      <trkpt lat="42.477517000" lon="-2.459399000">
        <ele>379.90</ele>
        <time>2017-02-18T10:27:35Z</time>
      </trkpt>
      <trkpt lat="42.477520000" lon="-2.459433000">
        <ele>380.00</ele>
        <time>2017-02-18T10:27:36Z</time>
      </trkpt>
      <trkpt lat="42.477524000" lon="-2.459462000">
        <ele>380.10</ele>
        <time>2017-02-18T10:27:37Z</time>
      </trkpt>
      <trkpt lat="42.477529000" lon="-2.459493000">
        <ele>380.30</ele>
        <time>2017-02-18T10:27:38Z</time>
      </trkpt>
      <trkpt lat="42.477539000" lon="-2.459520000">
        <ele>380.40</ele>
        <time>2017-02-18T10:27:39Z</time>
      </trkpt>
      <trkpt lat="42.477544000" lon="-2.459542000">
        <ele>380.40</ele>
        <time>2017-02-18T10:27:40Z</time>
      </trkpt>
      <trkpt lat="42.477552000" lon="-2.459561000">
        <ele>380.60</ele>
        <time>2017-02-18T10:27:41Z</time>
      </trkpt>
      <trkpt lat="42.477562000" lon="-2.459581000">
        <ele>380.70</ele>
        <time>2017-02-18T10:27:42Z</time>
      </trkpt>
      <trkpt lat="42.477561000" lon="-2.459611000">
        <ele>381.00</ele>
        <time>2017-02-18T10:27:43Z</time>
      </trkpt>
      <trkpt lat="42.477556000" lon="-2.459639000">
        <ele>381.20</ele>
        <time>2017-02-18T10:27:44Z</time>
      </trkpt>
      <trkpt lat="42.477542000" lon="-2.459657000">
        <ele>381.50</ele>
        <time>2017-02-18T10:27:45Z</time>
      </trkpt>
      <trkpt lat="42.477518000" lon="-2.459676000">
        <ele>381.60</ele>
        <time>2017-02-18T10:27:46Z</time>
      </trkpt>
      <trkpt lat="42.477496000" lon="-2.459702000">
        <ele>381.70</ele>
        <time>2017-02-18T10:27:47Z</time>
      </trkpt>
      <trkpt lat="42.477473000" lon="-2.459733000">
        <ele>381.70</ele>
        <time>2017-02-18T10:27:48Z</time>
      </trkpt>
      <trkpt lat="42.477447000" lon="-2.459762000">
        <ele>381.70</ele>
        <time>2017-02-18T10:27:49Z</time>
      </trkpt>
      <trkpt lat="42.477425000" lon="-2.459795000">
        <ele>381.60</ele>
        <time>2017-02-18T10:27:50Z</time>
      </trkpt>
      <trkpt lat="42.477399000" lon="-2.459827000">
        <ele>381.60</ele>
        <time>2017-02-18T10:27:51Z</time>
      </trkpt>
      <trkpt lat="42.477372000" lon="-2.459856000">
        <ele>381.60</ele>
        <time>2017-02-18T10:27:52Z</time>
      </trkpt>
      <trkpt lat="42.477346000" lon="-2.459888000">
        <ele>381.70</ele>
        <time>2017-02-18T10:27:53Z</time>
      </trkpt>
      <trkpt lat="42.477319000" lon="-2.459920000">
        <ele>381.80</ele>
        <time>2017-02-18T10:27:54Z</time>
      </trkpt>
      <trkpt lat="42.477293000" lon="-2.459948000">
        <ele>381.90</ele>
        <time>2017-02-18T10:27:55Z</time>
      </trkpt>
      <trkpt lat="42.477266000" lon="-2.459979000">
        <ele>381.90</ele>
        <time>2017-02-18T10:27:56Z</time>
      </trkpt>
      <trkpt lat="42.477239000" lon="-2.460007000">
        <ele>381.90</ele>
        <time>2017-02-18T10:27:57Z</time>
      </trkpt>
      <trkpt lat="42.477210000" lon="-2.460035000">
        <ele>381.90</ele>
        <time>2017-02-18T10:27:58Z</time>
      </trkpt>
      <trkpt lat="42.477183000" lon="-2.460061000">
        <ele>382.00</ele>
        <time>2017-02-18T10:27:59Z</time>
      </trkpt>
      <trkpt lat="42.477159000" lon="-2.460092000">
        <ele>382.00</ele>
        <time>2017-02-18T10:28:00Z</time>
      </trkpt>
      <trkpt lat="42.477133000" lon="-2.460121000">
        <ele>382.00</ele>
        <time>2017-02-18T10:28:01Z</time>
      </trkpt>
      <trkpt lat="42.477106000" lon="-2.460143000">
        <ele>382.00</ele>
        <time>2017-02-18T10:28:02Z</time>
      </trkpt>
      <trkpt lat="42.477077000" lon="-2.460163000">
        <ele>382.00</ele>
        <time>2017-02-18T10:28:03Z</time>
      </trkpt>
      <trkpt lat="42.477047000" lon="-2.460182000">
        <ele>382.00</ele>
        <time>2017-02-18T10:28:04Z</time>
      </trkpt>
      <trkpt lat="42.477013000" lon="-2.460202000">
        <ele>381.90</ele>
        <time>2017-02-18T10:28:05Z</time>
      </trkpt>
      <trkpt lat="42.476981000" lon="-2.460223000">
        <ele>381.80</ele>
        <time>2017-02-18T10:28:06Z</time>
      </trkpt>
      <trkpt lat="42.476954000" lon="-2.460247000">
        <ele>381.90</ele>
        <time>2017-02-18T10:28:07Z</time>
      </trkpt>
      <trkpt lat="42.476926000" lon="-2.460271000">
        <ele>381.90</ele>
        <time>2017-02-18T10:28:08Z</time>
      </trkpt>
      <trkpt lat="42.476895000" lon="-2.460293000">
        <ele>381.90</ele>
        <time>2017-02-18T10:28:09Z</time>
      </trkpt>
      <trkpt lat="42.476861000" lon="-2.460316000">
        <ele>381.90</ele>
        <time>2017-02-18T10:28:10Z</time>
      </trkpt>
      <trkpt lat="42.476831000" lon="-2.460341000">
        <ele>381.90</ele>
        <time>2017-02-18T10:28:11Z</time>
      </trkpt>
      <trkpt lat="42.476800000" lon="-2.460365000">
        <ele>381.90</ele>
        <time>2017-02-18T10:28:12Z</time>
      </trkpt>
      <trkpt lat="42.476765000" lon="-2.460392000">
        <ele>381.90</ele>
        <time>2017-02-18T10:28:13Z</time>
      </trkpt>
      <trkpt lat="42.476698000" lon="-2.460446000">
        <ele>382.10</ele>
        <time>2017-02-18T10:28:15Z</time>
      </trkpt>
      <trkpt lat="42.476666000" lon="-2.460474000">
        <ele>382.20</ele>
        <time>2017-02-18T10:28:16Z</time>
      </trkpt>
      <trkpt lat="42.476633000" lon="-2.460504000">
        <ele>382.30</ele>
        <time>2017-02-18T10:28:17Z</time>
      </trkpt>
      <trkpt lat="42.476603000" lon="-2.460542000">
        <ele>382.30</ele>
        <time>2017-02-18T10:28:18Z</time>
      </trkpt>
      <trkpt lat="42.476571000" lon="-2.460577000">
        <ele>382.30</ele>
        <time>2017-02-18T10:28:19Z</time>
      </trkpt>
      <trkpt lat="42.476540000" lon="-2.460610000">
        <ele>382.30</ele>
        <time>2017-02-18T10:28:20Z</time>
      </trkpt>
      <trkpt lat="42.476510000" lon="-2.460646000">
        <ele>382.30</ele>
        <time>2017-02-18T10:28:21Z</time>
      </trkpt>
      <trkpt lat="42.476480000" lon="-2.460680000">
        <ele>382.30</ele>
        <time>2017-02-18T10:28:22Z</time>
      </trkpt>
      <trkpt lat="42.476453000" lon="-2.460716000">
        <ele>382.30</ele>
        <time>2017-02-18T10:28:23Z</time>
      </trkpt>
      <trkpt lat="42.476423000" lon="-2.460751000">
        <ele>382.40</ele>
        <time>2017-02-18T10:28:24Z</time>
      </trkpt>
      <trkpt lat="42.476396000" lon="-2.460788000">
        <ele>382.40</ele>
        <time>2017-02-18T10:28:25Z</time>
      </trkpt>
      <trkpt lat="42.476369000" lon="-2.460822000">
        <ele>382.40</ele>
        <time>2017-02-18T10:28:26Z</time>
      </trkpt>
      <trkpt lat="42.476342000" lon="-2.460860000">
        <ele>382.40</ele>
        <time>2017-02-18T10:28:27Z</time>
      </trkpt>
      <trkpt lat="42.476316000" lon="-2.460899000">
        <ele>382.40</ele>
        <time>2017-02-18T10:28:28Z</time>
      </trkpt>
      <trkpt lat="42.476290000" lon="-2.460938000">
        <ele>382.50</ele>
        <time>2017-02-18T10:28:29Z</time>
      </trkpt>
      <trkpt lat="42.476265000" lon="-2.460973000">
        <ele>382.50</ele>
        <time>2017-02-18T10:28:30Z</time>
      </trkpt>
      <trkpt lat="42.476242000" lon="-2.461010000">
        <ele>382.80</ele>
        <time>2017-02-18T10:28:31Z</time>
      </trkpt>
      <trkpt lat="42.476219000" lon="-2.461051000">
        <ele>383.00</ele>
        <time>2017-02-18T10:28:32Z</time>
      </trkpt>
      <trkpt lat="42.476196000" lon="-2.461093000">
        <ele>383.20</ele>
        <time>2017-02-18T10:28:33Z</time>
      </trkpt>
      <trkpt lat="42.476175000" lon="-2.461135000">
        <ele>383.30</ele>
        <time>2017-02-18T10:28:34Z</time>
      </trkpt>
      <trkpt lat="42.476156000" lon="-2.461174000">
        <ele>383.20</ele>
        <time>2017-02-18T10:28:35Z</time>
      </trkpt>
      <trkpt lat="42.476133000" lon="-2.461215000">
        <ele>383.10</ele>
        <time>2017-02-18T10:28:36Z</time>
      </trkpt>
      <trkpt lat="42.476111000" lon="-2.461252000">
        <ele>383.00</ele>
        <time>2017-02-18T10:28:37Z</time>
      </trkpt>
      <trkpt lat="42.476092000" lon="-2.461291000">
        <ele>382.90</ele>
        <time>2017-02-18T10:28:38Z</time>
      </trkpt>
      <trkpt lat="42.476074000" lon="-2.461332000">
        <ele>382.80</ele>
        <time>2017-02-18T10:28:39Z</time>
      </trkpt>
      <trkpt lat="42.476054000" lon="-2.461375000">
        <ele>382.80</ele>
        <time>2017-02-18T10:28:40Z</time>
      </trkpt>
      <trkpt lat="42.476034000" lon="-2.461414000">
        <ele>382.90</ele>
        <time>2017-02-18T10:28:41Z</time>
      </trkpt>
      <trkpt lat="42.476014000" lon="-2.461452000">
        <ele>382.90</ele>
        <time>2017-02-18T10:28:42Z</time>
      </trkpt>
      <trkpt lat="42.475995000" lon="-2.461485000">
        <ele>383.00</ele>
        <time>2017-02-18T10:28:43Z</time>
      </trkpt>
      <trkpt lat="42.475974000" lon="-2.461511000">
        <ele>383.00</ele>
        <time>2017-02-18T10:28:44Z</time>
      </trkpt>
      <trkpt lat="42.475953000" lon="-2.461536000">
        <ele>383.00</ele>
        <time>2017-02-18T10:28:45Z</time>
      </trkpt>
      <trkpt lat="42.475932000" lon="-2.461564000">
        <ele>383.00</ele>
        <time>2017-02-18T10:28:46Z</time>
      </trkpt>
      <trkpt lat="42.475907000" lon="-2.461591000">
        <ele>382.90</ele>
        <time>2017-02-18T10:28:47Z</time>
      </trkpt>
      <trkpt lat="42.475886000" lon="-2.461621000">
        <ele>382.80</ele>
        <time>2017-02-18T10:28:48Z</time>
      </trkpt>
      <trkpt lat="42.475861000" lon="-2.461651000">
        <ele>382.70</ele>
        <time>2017-02-18T10:28:49Z</time>
      </trkpt>
      <trkpt lat="42.475836000" lon="-2.461682000">
        <ele>382.70</ele>
        <time>2017-02-18T10:28:50Z</time>
      </trkpt>
      <trkpt lat="42.475811000" lon="-2.461712000">
        <ele>382.60</ele>
        <time>2017-02-18T10:28:51Z</time>
      </trkpt>
      <trkpt lat="42.475784000" lon="-2.461749000">
        <ele>382.60</ele>
        <time>2017-02-18T10:28:52Z</time>
      </trkpt>
      <trkpt lat="42.475755000" lon="-2.461784000">
        <ele>382.70</ele>
        <time>2017-02-18T10:28:53Z</time>
      </trkpt>
      <trkpt lat="42.475724000" lon="-2.461815000">
        <ele>382.80</ele>
        <time>2017-02-18T10:28:54Z</time>
      </trkpt>
      <trkpt lat="42.475694000" lon="-2.461850000">
        <ele>382.90</ele>
        <time>2017-02-18T10:28:55Z</time>
      </trkpt>
      <trkpt lat="42.475664000" lon="-2.461883000">
        <ele>383.00</ele>
        <time>2017-02-18T10:28:56Z</time>
      </trkpt>
      <trkpt lat="42.475634000" lon="-2.461911000">
        <ele>383.00</ele>
        <time>2017-02-18T10:28:57Z</time>
      </trkpt>
      <trkpt lat="42.475605000" lon="-2.461943000">
        <ele>383.10</ele>
        <time>2017-02-18T10:28:58Z</time>
      </trkpt>
      <trkpt lat="42.475576000" lon="-2.461978000">
        <ele>383.40</ele>
        <time>2017-02-18T10:28:59Z</time>
      </trkpt>
      <trkpt lat="42.475550000" lon="-2.462016000">
        <ele>383.60</ele>
        <time>2017-02-18T10:29:00Z</time>
      </trkpt>
      <trkpt lat="42.475526000" lon="-2.462049000">
        <ele>383.60</ele>
        <time>2017-02-18T10:29:01Z</time>
      </trkpt>
      <trkpt lat="42.475500000" lon="-2.462079000">
        <ele>383.60</ele>
        <time>2017-02-18T10:29:02Z</time>
      </trkpt>
      <trkpt lat="42.475473000" lon="-2.462109000">
        <ele>383.80</ele>
        <time>2017-02-18T10:29:03Z</time>
      </trkpt>
      <trkpt lat="42.475447000" lon="-2.462141000">
        <ele>383.90</ele>
        <time>2017-02-18T10:29:04Z</time>
      </trkpt>
      <trkpt lat="42.475423000" lon="-2.462170000">
        <ele>383.90</ele>
        <time>2017-02-18T10:29:05Z</time>
      </trkpt>
      <trkpt lat="42.475403000" lon="-2.462195000">
        <ele>383.90</ele>
        <time>2017-02-18T10:29:06Z</time>
      </trkpt>
      <trkpt lat="42.475385000" lon="-2.462213000">
        <ele>384.10</ele>
        <time>2017-02-18T10:29:07Z</time>
      </trkpt>
      <trkpt lat="42.475368000" lon="-2.462213000">
        <ele>384.20</ele>
        <time>2017-02-18T10:29:08Z</time>
      </trkpt>
      <trkpt lat="42.475367000" lon="-2.462181000">
        <ele>384.30</ele>
        <time>2017-02-18T10:29:09Z</time>
      </trkpt>
      <trkpt lat="42.475383000" lon="-2.462160000">
        <ele>384.40</ele>
        <time>2017-02-18T10:29:10Z</time>
      </trkpt>
      <trkpt lat="42.475403000" lon="-2.462128000">
        <ele>384.50</ele>
        <time>2017-02-18T10:29:11Z</time>
      </trkpt>
      <trkpt lat="42.475432000" lon="-2.462097000">
        <ele>384.50</ele>
        <time>2017-02-18T10:29:12Z</time>
      </trkpt>
      <trkpt lat="42.475463000" lon="-2.462062000">
        <ele>384.50</ele>
        <time>2017-02-18T10:29:13Z</time>
      </trkpt>
      <trkpt lat="42.475498000" lon="-2.462023000">
        <ele>384.60</ele>
        <time>2017-02-18T10:29:14Z</time>
      </trkpt>
      <trkpt lat="42.475570000" lon="-2.461951000">
        <ele>384.60</ele>
        <time>2017-02-18T10:29:16Z</time>
      </trkpt>
      <trkpt lat="42.475584000" lon="-2.461916000">
        <ele>384.50</ele>
        <time>2017-02-18T10:29:17Z</time>
      </trkpt>
      <trkpt lat="42.475586000" lon="-2.461880000">
        <ele>384.50</ele>
        <time>2017-02-18T10:29:18Z</time>
      </trkpt>
      <trkpt lat="42.475588000" lon="-2.461840000">
        <ele>384.00</ele>
        <time>2017-02-18T10:29:19Z</time>
      </trkpt>
      <trkpt lat="42.475584000" lon="-2.461805000">
        <ele>383.60</ele>
        <time>2017-02-18T10:29:20Z</time>
      </trkpt>
      <trkpt lat="42.475575000" lon="-2.461764000">
        <ele>383.30</ele>
        <time>2017-02-18T10:29:21Z</time>
      </trkpt>
      <trkpt lat="42.475565000" lon="-2.461724000">
        <ele>383.10</ele>
        <time>2017-02-18T10:29:22Z</time>
      </trkpt>
      <trkpt lat="42.475551000" lon="-2.461685000">
        <ele>382.90</ele>
        <time>2017-02-18T10:29:23Z</time>
      </trkpt>
      <trkpt lat="42.475530000" lon="-2.461647000">
        <ele>382.70</ele>
        <time>2017-02-18T10:29:24Z</time>
      </trkpt>
      <trkpt lat="42.475505000" lon="-2.461612000">
        <ele>382.60</ele>
        <time>2017-02-18T10:29:25Z</time>
      </trkpt>
      <trkpt lat="42.475470000" lon="-2.461589000">
        <ele>382.50</ele>
        <time>2017-02-18T10:29:26Z</time>
      </trkpt>
      <trkpt lat="42.475435000" lon="-2.461571000">
        <ele>382.40</ele>
        <time>2017-02-18T10:29:27Z</time>
      </trkpt>
      <trkpt lat="42.475402000" lon="-2.461554000">
        <ele>382.30</ele>
        <time>2017-02-18T10:29:28Z</time>
      </trkpt>
      <trkpt lat="42.475370000" lon="-2.461536000">
        <ele>382.20</ele>
        <time>2017-02-18T10:29:29Z</time>
      </trkpt>
      <trkpt lat="42.475336000" lon="-2.461519000">
        <ele>382.10</ele>
        <time>2017-02-18T10:29:30Z</time>
      </trkpt>
      <trkpt lat="42.475300000" lon="-2.461505000">
        <ele>382.00</ele>
        <time>2017-02-18T10:29:31Z</time>
      </trkpt>
      <trkpt lat="42.475264000" lon="-2.461488000">
        <ele>381.90</ele>
        <time>2017-02-18T10:29:32Z</time>
      </trkpt>
      <trkpt lat="42.475228000" lon="-2.461472000">
        <ele>381.80</ele>
        <time>2017-02-18T10:29:33Z</time>
      </trkpt>
      <trkpt lat="42.475192000" lon="-2.461456000">
        <ele>381.80</ele>
        <time>2017-02-18T10:29:34Z</time>
      </trkpt>
      <trkpt lat="42.475159000" lon="-2.461442000">
        <ele>381.70</ele>
        <time>2017-02-18T10:29:35Z</time>
      </trkpt>
      <trkpt lat="42.475125000" lon="-2.461426000">
        <ele>381.70</ele>
        <time>2017-02-18T10:29:36Z</time>
      </trkpt>
      <trkpt lat="42.475091000" lon="-2.461407000">
        <ele>381.70</ele>
        <time>2017-02-18T10:29:37Z</time>
      </trkpt>
      <trkpt lat="42.475054000" lon="-2.461389000">
        <ele>381.80</ele>
        <time>2017-02-18T10:29:38Z</time>
      </trkpt>
      <trkpt lat="42.475016000" lon="-2.461375000">
        <ele>381.80</ele>
        <time>2017-02-18T10:29:39Z</time>
      </trkpt>
      <trkpt lat="42.474980000" lon="-2.461359000">
        <ele>381.80</ele>
        <time>2017-02-18T10:29:40Z</time>
      </trkpt>
      <trkpt lat="42.474945000" lon="-2.461341000">
        <ele>381.80</ele>
        <time>2017-02-18T10:29:41Z</time>
      </trkpt>
      <trkpt lat="42.474907000" lon="-2.461326000">
        <ele>381.80</ele>
        <time>2017-02-18T10:29:42Z</time>
      </trkpt>
      <trkpt lat="42.474868000" lon="-2.461313000">
        <ele>381.90</ele>
        <time>2017-02-18T10:29:43Z</time>
      </trkpt>
      <trkpt lat="42.474832000" lon="-2.461295000">
        <ele>381.90</ele>
        <time>2017-02-18T10:29:44Z</time>
      </trkpt>
      <trkpt lat="42.474797000" lon="-2.461278000">
        <ele>381.90</ele>
        <time>2017-02-18T10:29:45Z</time>
      </trkpt>
      <trkpt lat="42.474760000" lon="-2.461262000">
        <ele>382.00</ele>
        <time>2017-02-18T10:29:46Z</time>
      </trkpt>
      <trkpt lat="42.474725000" lon="-2.461245000">
        <ele>382.00</ele>
        <time>2017-02-18T10:29:47Z</time>
      </trkpt>
      <trkpt lat="42.474688000" lon="-2.461228000">
        <ele>382.00</ele>
        <time>2017-02-18T10:29:48Z</time>
      </trkpt>
      <trkpt lat="42.474651000" lon="-2.461212000">
        <ele>382.00</ele>
        <time>2017-02-18T10:29:49Z</time>
      </trkpt>
      <trkpt lat="42.474613000" lon="-2.461196000">
        <ele>382.00</ele>
        <time>2017-02-18T10:29:50Z</time>
      </trkpt>
      <trkpt lat="42.474576000" lon="-2.461181000">
        <ele>382.10</ele>
        <time>2017-02-18T10:29:51Z</time>
      </trkpt>
      <trkpt lat="42.474540000" lon="-2.461162000">
        <ele>382.20</ele>
        <time>2017-02-18T10:29:52Z</time>
      </trkpt>
      <trkpt lat="42.474503000" lon="-2.461147000">
        <ele>382.30</ele>
        <time>2017-02-18T10:29:53Z</time>
      </trkpt>
      <trkpt lat="42.474464000" lon="-2.461129000">
        <ele>382.30</ele>
        <time>2017-02-18T10:29:54Z</time>
      </trkpt>
      <trkpt lat="42.474424000" lon="-2.461112000">
        <ele>382.30</ele>
        <time>2017-02-18T10:29:55Z</time>
      </trkpt>
      <trkpt lat="42.474385000" lon="-2.461094000">
        <ele>382.30</ele>
        <time>2017-02-18T10:29:56Z</time>
      </trkpt>
      <trkpt lat="42.474347000" lon="-2.461075000">
        <ele>382.10</ele>
        <time>2017-02-18T10:29:57Z</time>
      </trkpt>
      <trkpt lat="42.474309000" lon="-2.461057000">
        <ele>381.90</ele>
        <time>2017-02-18T10:29:58Z</time>
      </trkpt>
      <trkpt lat="42.474271000" lon="-2.461042000">
        <ele>381.80</ele>
        <time>2017-02-18T10:29:59Z</time>
      </trkpt>
      <trkpt lat="42.474235000" lon="-2.461024000">
        <ele>381.70</ele>
        <time>2017-02-18T10:30:00Z</time>
      </trkpt>
      <trkpt lat="42.474199000" lon="-2.461003000">
        <ele>381.60</ele>
        <time>2017-02-18T10:30:01Z</time>
      </trkpt>
      <trkpt lat="42.474161000" lon="-2.460985000">
        <ele>381.60</ele>
        <time>2017-02-18T10:30:02Z</time>
      </trkpt>
      <trkpt lat="42.474127000" lon="-2.460966000">
        <ele>381.50</ele>
        <time>2017-02-18T10:30:03Z</time>
      </trkpt>
      <trkpt lat="42.474092000" lon="-2.460950000">
        <ele>381.50</ele>
        <time>2017-02-18T10:30:04Z</time>
      </trkpt>
      <trkpt lat="42.474056000" lon="-2.460933000">
        <ele>381.40</ele>
        <time>2017-02-18T10:30:05Z</time>
      </trkpt>
      <trkpt lat="42.474020000" lon="-2.460917000">
        <ele>381.40</ele>
        <time>2017-02-18T10:30:06Z</time>
      </trkpt>
      <trkpt lat="42.473984000" lon="-2.460901000">
        <ele>381.50</ele>
        <time>2017-02-18T10:30:07Z</time>
      </trkpt>
      <trkpt lat="42.473947000" lon="-2.460884000">
        <ele>381.60</ele>
        <time>2017-02-18T10:30:08Z</time>
      </trkpt>
      <trkpt lat="42.473909000" lon="-2.460868000">
        <ele>381.70</ele>
        <time>2017-02-18T10:30:09Z</time>
      </trkpt>
      <trkpt lat="42.473872000" lon="-2.460852000">
        <ele>381.70</ele>
        <time>2017-02-18T10:30:10Z</time>
      </trkpt>
      <trkpt lat="42.473836000" lon="-2.460832000">
        <ele>381.70</ele>
        <time>2017-02-18T10:30:11Z</time>
      </trkpt>
      <trkpt lat="42.473801000" lon="-2.460815000">
        <ele>381.80</ele>
        <time>2017-02-18T10:30:12Z</time>
      </trkpt>
      <trkpt lat="42.473764000" lon="-2.460796000">
        <ele>381.80</ele>
        <time>2017-02-18T10:30:13Z</time>
      </trkpt>
      <trkpt lat="42.473727000" lon="-2.460777000">
        <ele>381.80</ele>
        <time>2017-02-18T10:30:14Z</time>
      </trkpt>
      <trkpt lat="42.473691000" lon="-2.460762000">
        <ele>381.90</ele>
        <time>2017-02-18T10:30:15Z</time>
      </trkpt>
      <trkpt lat="42.473616000" lon="-2.460728000">
        <ele>381.80</ele>
        <time>2017-02-18T10:30:17Z</time>
      </trkpt>
      <trkpt lat="42.473580000" lon="-2.460711000">
        <ele>381.80</ele>
        <time>2017-02-18T10:30:18Z</time>
      </trkpt>
      <trkpt lat="42.473542000" lon="-2.460697000">
        <ele>381.80</ele>
        <time>2017-02-18T10:30:19Z</time>
      </trkpt>
      <trkpt lat="42.473502000" lon="-2.460680000">
        <ele>381.70</ele>
        <time>2017-02-18T10:30:20Z</time>
      </trkpt>
      <trkpt lat="42.473464000" lon="-2.460665000">
        <ele>381.60</ele>
        <time>2017-02-18T10:30:21Z</time>
      </trkpt>
      <trkpt lat="42.473427000" lon="-2.460648000">
        <ele>381.50</ele>
        <time>2017-02-18T10:30:22Z</time>
      </trkpt>
      <trkpt lat="42.473389000" lon="-2.460630000">
        <ele>381.40</ele>
        <time>2017-02-18T10:30:23Z</time>
      </trkpt>
      <trkpt lat="42.473354000" lon="-2.460611000">
        <ele>381.30</ele>
        <time>2017-02-18T10:30:24Z</time>
      </trkpt>
      <trkpt lat="42.473316000" lon="-2.460593000">
        <ele>381.30</ele>
        <time>2017-02-18T10:30:25Z</time>
      </trkpt>
      <trkpt lat="42.473279000" lon="-2.460574000">
        <ele>381.20</ele>
        <time>2017-02-18T10:30:26Z</time>
      </trkpt>
      <trkpt lat="42.473241000" lon="-2.460557000">
        <ele>381.30</ele>
        <time>2017-02-18T10:30:27Z</time>
      </trkpt>
      <trkpt lat="42.473203000" lon="-2.460540000">
        <ele>381.40</ele>
        <time>2017-02-18T10:30:28Z</time>
      </trkpt>
      <trkpt lat="42.473165000" lon="-2.460520000">
        <ele>381.40</ele>
        <time>2017-02-18T10:30:29Z</time>
      </trkpt>
      <trkpt lat="42.473128000" lon="-2.460502000">
        <ele>381.50</ele>
        <time>2017-02-18T10:30:30Z</time>
      </trkpt>
      <trkpt lat="42.473091000" lon="-2.460484000">
        <ele>381.60</ele>
        <time>2017-02-18T10:30:31Z</time>
      </trkpt>
      <trkpt lat="42.473055000" lon="-2.460468000">
        <ele>381.70</ele>
        <time>2017-02-18T10:30:32Z</time>
      </trkpt>
      <trkpt lat="42.473020000" lon="-2.460449000">
        <ele>381.80</ele>
        <time>2017-02-18T10:30:33Z</time>
      </trkpt>
      <trkpt lat="42.472985000" lon="-2.460434000">
        <ele>381.90</ele>
        <time>2017-02-18T10:30:34Z</time>
      </trkpt>
      <trkpt lat="42.472947000" lon="-2.460425000">
        <ele>382.00</ele>
        <time>2017-02-18T10:30:35Z</time>
      </trkpt>
      <trkpt lat="42.472909000" lon="-2.460424000">
        <ele>382.10</ele>
        <time>2017-02-18T10:30:36Z</time>
      </trkpt>
      <trkpt lat="42.472873000" lon="-2.460425000">
        <ele>382.10</ele>
        <time>2017-02-18T10:30:37Z</time>
      </trkpt>
      <trkpt lat="42.472838000" lon="-2.460431000">
        <ele>382.20</ele>
        <time>2017-02-18T10:30:38Z</time>
      </trkpt>
      <trkpt lat="42.472803000" lon="-2.460445000">
        <ele>382.20</ele>
        <time>2017-02-18T10:30:39Z</time>
      </trkpt>
      <trkpt lat="42.472770000" lon="-2.460465000">
        <ele>382.20</ele>
        <time>2017-02-18T10:30:40Z</time>
      </trkpt>
      <trkpt lat="42.472739000" lon="-2.460490000">
        <ele>382.20</ele>
        <time>2017-02-18T10:30:41Z</time>
      </trkpt>
      <trkpt lat="42.472711000" lon="-2.460519000">
        <ele>382.20</ele>
        <time>2017-02-18T10:30:42Z</time>
      </trkpt>
      <trkpt lat="42.472686000" lon="-2.460552000">
        <ele>382.20</ele>
        <time>2017-02-18T10:30:43Z</time>
      </trkpt>
      <trkpt lat="42.472660000" lon="-2.460585000">
        <ele>382.20</ele>
        <time>2017-02-18T10:30:44Z</time>
      </trkpt>
      <trkpt lat="42.472633000" lon="-2.460616000">
        <ele>382.10</ele>
        <time>2017-02-18T10:30:45Z</time>
      </trkpt>
      <trkpt lat="42.472606000" lon="-2.460648000">
        <ele>382.00</ele>
        <time>2017-02-18T10:30:46Z</time>
      </trkpt>
      <trkpt lat="42.472581000" lon="-2.460679000">
        <ele>381.90</ele>
        <time>2017-02-18T10:30:47Z</time>
      </trkpt>
      <trkpt lat="42.472553000" lon="-2.460707000">
        <ele>381.90</ele>
        <time>2017-02-18T10:30:48Z</time>
      </trkpt>
      <trkpt lat="42.472527000" lon="-2.460735000">
        <ele>382.10</ele>
        <time>2017-02-18T10:30:49Z</time>
      </trkpt>
      <trkpt lat="42.472500000" lon="-2.460760000">
        <ele>382.20</ele>
        <time>2017-02-18T10:30:50Z</time>
      </trkpt>
      <trkpt lat="42.472474000" lon="-2.460786000">
        <ele>382.50</ele>
        <time>2017-02-18T10:30:51Z</time>
      </trkpt>
      <trkpt lat="42.472452000" lon="-2.460813000">
        <ele>382.60</ele>
        <time>2017-02-18T10:30:52Z</time>
      </trkpt>
      <trkpt lat="42.472429000" lon="-2.460844000">
        <ele>382.80</ele>
        <time>2017-02-18T10:30:53Z</time>
      </trkpt>
      <trkpt lat="42.472404000" lon="-2.460871000">
        <ele>382.90</ele>
        <time>2017-02-18T10:30:54Z</time>
      </trkpt>
      <trkpt lat="42.472378000" lon="-2.460898000">
        <ele>382.90</ele>
        <time>2017-02-18T10:30:55Z</time>
      </trkpt>
      <trkpt lat="42.472354000" lon="-2.460924000">
        <ele>383.00</ele>
        <time>2017-02-18T10:30:56Z</time>
      </trkpt>
      <trkpt lat="42.472328000" lon="-2.460949000">
        <ele>383.20</ele>
        <time>2017-02-18T10:30:57Z</time>
      </trkpt>
      <trkpt lat="42.472303000" lon="-2.460973000">
        <ele>383.30</ele>
        <time>2017-02-18T10:30:58Z</time>
      </trkpt>
      <trkpt lat="42.472277000" lon="-2.461003000">
        <ele>383.40</ele>
        <time>2017-02-18T10:30:59Z</time>
      </trkpt>
      <trkpt lat="42.472251000" lon="-2.461030000">
        <ele>383.40</ele>
        <time>2017-02-18T10:31:00Z</time>
      </trkpt>
      <trkpt lat="42.472224000" lon="-2.461060000">
        <ele>383.40</ele>
        <time>2017-02-18T10:31:01Z</time>
      </trkpt>
      <trkpt lat="42.472197000" lon="-2.461087000">
        <ele>383.40</ele>
        <time>2017-02-18T10:31:02Z</time>
      </trkpt>
      <trkpt lat="42.472176000" lon="-2.461112000">
        <ele>383.30</ele>
        <time>2017-02-18T10:31:03Z</time>
      </trkpt>
      <trkpt lat="42.472157000" lon="-2.461131000">
        <ele>383.20</ele>
        <time>2017-02-18T10:31:04Z</time>
      </trkpt>
      <trkpt lat="42.472140000" lon="-2.461157000">
        <ele>383.10</ele>
        <time>2017-02-18T10:31:05Z</time>
      </trkpt>
      <trkpt lat="42.472126000" lon="-2.461182000">
        <ele>383.00</ele>
        <time>2017-02-18T10:31:06Z</time>
      </trkpt>
      <trkpt lat="42.472108000" lon="-2.461208000">
        <ele>383.00</ele>
        <time>2017-02-18T10:31:07Z</time>
      </trkpt>
      <trkpt lat="42.472085000" lon="-2.461224000">
        <ele>383.00</ele>
        <time>2017-02-18T10:31:08Z</time>
      </trkpt>
      <trkpt lat="42.472063000" lon="-2.461244000">
        <ele>383.10</ele>
        <time>2017-02-18T10:31:09Z</time>
      </trkpt>
      <trkpt lat="42.472040000" lon="-2.461260000">
        <ele>383.10</ele>
        <time>2017-02-18T10:31:10Z</time>
      </trkpt>
      <trkpt lat="42.472013000" lon="-2.461259000">
        <ele>383.20</ele>
        <time>2017-02-18T10:31:11Z</time>
      </trkpt>
      <trkpt lat="42.471994000" lon="-2.461236000">
        <ele>383.20</ele>
        <time>2017-02-18T10:31:12Z</time>
      </trkpt>
      <trkpt lat="42.471984000" lon="-2.461205000">
        <ele>383.20</ele>
        <time>2017-02-18T10:31:13Z</time>
      </trkpt>
      <trkpt lat="42.471967000" lon="-2.461178000">
        <ele>383.20</ele>
        <time>2017-02-18T10:31:14Z</time>
      </trkpt>
      <trkpt lat="42.471953000" lon="-2.461145000">
        <ele>383.30</ele>
        <time>2017-02-18T10:31:15Z</time>
      </trkpt>
      <trkpt lat="42.471935000" lon="-2.461121000">
        <ele>383.30</ele>
        <time>2017-02-18T10:31:16Z</time>
      </trkpt>
      <trkpt lat="42.471892000" lon="-2.461065000">
        <ele>383.50</ele>
        <time>2017-02-18T10:31:18Z</time>
      </trkpt>
      <trkpt lat="42.471872000" lon="-2.461036000">
        <ele>383.80</ele>
        <time>2017-02-18T10:31:19Z</time>
      </trkpt>
      <trkpt lat="42.471849000" lon="-2.461010000">
        <ele>383.90</ele>
        <time>2017-02-18T10:31:20Z</time>
      </trkpt>
      <trkpt lat="42.471829000" lon="-2.460983000">
        <ele>384.20</ele>
        <time>2017-02-18T10:31:21Z</time>
      </trkpt>
      <trkpt lat="42.471805000" lon="-2.460951000">
        <ele>384.40</ele>
        <time>2017-02-18T10:31:22Z</time>
      </trkpt>
      <trkpt lat="42.471784000" lon="-2.460921000">
        <ele>384.50</ele>
        <time>2017-02-18T10:31:23Z</time>
      </trkpt>
      <trkpt lat="42.471765000" lon="-2.460888000">
        <ele>384.60</ele>
        <time>2017-02-18T10:31:24Z</time>
      </trkpt>
      <trkpt lat="42.471741000" lon="-2.460861000">
        <ele>385.00</ele>
        <time>2017-02-18T10:31:25Z</time>
      </trkpt>
      <trkpt lat="42.471717000" lon="-2.460834000">
        <ele>385.30</ele>
        <time>2017-02-18T10:31:26Z</time>
      </trkpt>
      <trkpt lat="42.471692000" lon="-2.460806000">
        <ele>385.60</ele>
        <time>2017-02-18T10:31:27Z</time>
      </trkpt>
      <trkpt lat="42.471669000" lon="-2.460778000">
        <ele>385.90</ele>
        <time>2017-02-18T10:31:28Z</time>
      </trkpt>
      <trkpt lat="42.471646000" lon="-2.460750000">
        <ele>386.20</ele>
        <time>2017-02-18T10:31:29Z</time>
      </trkpt>
      <trkpt lat="42.471623000" lon="-2.460719000">
        <ele>386.40</ele>
        <time>2017-02-18T10:31:30Z</time>
      </trkpt>
      <trkpt lat="42.471602000" lon="-2.460689000">
        <ele>386.90</ele>
        <time>2017-02-18T10:31:31Z</time>
      </trkpt>
      <trkpt lat="42.471582000" lon="-2.460663000">
        <ele>387.30</ele>
        <time>2017-02-18T10:31:32Z</time>
      </trkpt>
      <trkpt lat="42.471561000" lon="-2.460638000">
        <ele>387.70</ele>
        <time>2017-02-18T10:31:33Z</time>
      </trkpt>
      <trkpt lat="42.471538000" lon="-2.460606000">
        <ele>387.90</ele>
        <time>2017-02-18T10:31:34Z</time>
      </trkpt>
      <trkpt lat="42.471518000" lon="-2.460578000">
        <ele>388.20</ele>
        <time>2017-02-18T10:31:35Z</time>
      </trkpt>
      <trkpt lat="42.471501000" lon="-2.460548000">
        <ele>388.50</ele>
        <time>2017-02-18T10:31:36Z</time>
      </trkpt>
      <trkpt lat="42.471482000" lon="-2.460516000">
        <ele>388.60</ele>
        <time>2017-02-18T10:31:37Z</time>
      </trkpt>
      <trkpt lat="42.471462000" lon="-2.460483000">
        <ele>388.80</ele>
        <time>2017-02-18T10:31:38Z</time>
      </trkpt>
      <trkpt lat="42.471442000" lon="-2.460454000">
        <ele>388.90</ele>
        <time>2017-02-18T10:31:39Z</time>
      </trkpt>
      <trkpt lat="42.471419000" lon="-2.460423000">
        <ele>389.00</ele>
        <time>2017-02-18T10:31:40Z</time>
      </trkpt>
      <trkpt lat="42.471400000" lon="-2.460395000">
        <ele>389.40</ele>
        <time>2017-02-18T10:31:41Z</time>
      </trkpt>
      <trkpt lat="42.471386000" lon="-2.460366000">
        <ele>389.70</ele>
        <time>2017-02-18T10:31:42Z</time>
      </trkpt>
      <trkpt lat="42.471368000" lon="-2.460341000">
        <ele>390.00</ele>
        <time>2017-02-18T10:31:43Z</time>
      </trkpt>
      <trkpt lat="42.471354000" lon="-2.460319000">
        <ele>390.10</ele>
        <time>2017-02-18T10:31:44Z</time>
      </trkpt>
      <trkpt lat="42.471341000" lon="-2.460294000">
        <ele>390.40</ele>
        <time>2017-02-18T10:31:45Z</time>
      </trkpt>
      <trkpt lat="42.471322000" lon="-2.460278000">
        <ele>390.60</ele>
        <time>2017-02-18T10:31:46Z</time>
      </trkpt>
      <trkpt lat="42.471308000" lon="-2.460257000">
        <ele>390.80</ele>
        <time>2017-02-18T10:31:47Z</time>
      </trkpt>
      <trkpt lat="42.471293000" lon="-2.460234000">
        <ele>390.90</ele>
        <time>2017-02-18T10:31:48Z</time>
      </trkpt>
      <trkpt lat="42.471275000" lon="-2.460207000">
        <ele>391.00</ele>
        <time>2017-02-18T10:31:49Z</time>
      </trkpt>
      <trkpt lat="42.471256000" lon="-2.460181000">
        <ele>391.10</ele>
        <time>2017-02-18T10:31:50Z</time>
      </trkpt>
      <trkpt lat="42.471239000" lon="-2.460157000">
        <ele>391.20</ele>
        <time>2017-02-18T10:31:51Z</time>
      </trkpt>
      <trkpt lat="42.471221000" lon="-2.460135000">
        <ele>391.20</ele>
        <time>2017-02-18T10:31:52Z</time>
      </trkpt>
      <trkpt lat="42.471200000" lon="-2.460116000">
        <ele>391.40</ele>
        <time>2017-02-18T10:31:53Z</time>
      </trkpt>
      <trkpt lat="42.471182000" lon="-2.460097000">
        <ele>391.60</ele>
        <time>2017-02-18T10:31:54Z</time>
      </trkpt>
      <trkpt lat="42.471161000" lon="-2.460082000">
        <ele>391.70</ele>
        <time>2017-02-18T10:31:55Z</time>
      </trkpt>
      <trkpt lat="42.471139000" lon="-2.460090000">
        <ele>391.80</ele>
        <time>2017-02-18T10:31:56Z</time>
      </trkpt>
      <trkpt lat="42.471117000" lon="-2.460101000">
        <ele>391.80</ele>
        <time>2017-02-18T10:31:57Z</time>
      </trkpt>
      <trkpt lat="42.471095000" lon="-2.460118000">
        <ele>391.70</ele>
        <time>2017-02-18T10:31:58Z</time>
      </trkpt>
      <trkpt lat="42.471070000" lon="-2.460131000">
        <ele>391.50</ele>
        <time>2017-02-18T10:31:59Z</time>
      </trkpt>
      <trkpt lat="42.471047000" lon="-2.460145000">
        <ele>391.40</ele>
        <time>2017-02-18T10:32:00Z</time>
      </trkpt>
      <trkpt lat="42.471026000" lon="-2.460154000">
        <ele>391.30</ele>
        <time>2017-02-18T10:32:01Z</time>
      </trkpt>
      <trkpt lat="42.471010000" lon="-2.460165000">
        <ele>391.20</ele>
        <time>2017-02-18T10:32:02Z</time>
      </trkpt>
      <trkpt lat="42.470999000" lon="-2.460176000">
        <ele>391.20</ele>
        <time>2017-02-18T10:32:03Z</time>
      </trkpt>
      <trkpt lat="42.470987000" lon="-2.460185000">
        <ele>391.10</ele>
        <time>2017-02-18T10:32:04Z</time>
      </trkpt>
      <trkpt lat="42.470977000" lon="-2.460198000">
        <ele>391.10</ele>
        <time>2017-02-18T10:32:05Z</time>
      </trkpt>
      <trkpt lat="42.470971000" lon="-2.460220000">
        <ele>391.10</ele>
        <time>2017-02-18T10:32:06Z</time>
      </trkpt>
      <trkpt lat="42.470968000" lon="-2.460248000">
        <ele>391.10</ele>
        <time>2017-02-18T10:32:07Z</time>
      </trkpt>
      <trkpt lat="42.470974000" lon="-2.460273000">
        <ele>391.10</ele>
        <time>2017-02-18T10:32:08Z</time>
      </trkpt>
      <trkpt lat="42.470982000" lon="-2.460299000">
        <ele>391.30</ele>
        <time>2017-02-18T10:32:09Z</time>
      </trkpt>
      <trkpt lat="42.470991000" lon="-2.460326000">
        <ele>391.50</ele>
        <time>2017-02-18T10:32:10Z</time>
      </trkpt>
      <trkpt lat="42.471000000" lon="-2.460350000">
        <ele>391.60</ele>
        <time>2017-02-18T10:32:11Z</time>
      </trkpt>
      <trkpt lat="42.471002000" lon="-2.460371000">
        <ele>391.70</ele>
        <time>2017-02-18T10:32:12Z</time>
      </trkpt>
      <trkpt lat="42.471002000" lon="-2.460382000">
        <ele>391.70</ele>
        <time>2017-02-18T10:32:13Z</time>
      </trkpt>
      <trkpt lat="42.471001000" lon="-2.460393000">
        <ele>391.70</ele>
        <time>2017-02-18T10:32:14Z</time>
      </trkpt>
      <trkpt lat="42.470999000" lon="-2.460396000">
        <ele>391.70</ele>
        <time>2017-02-18T10:32:15Z</time>
      </trkpt>
      <trkpt lat="42.470993000" lon="-2.460397000">
        <ele>391.70</ele>
        <time>2017-02-18T10:32:16Z</time>
      </trkpt>
      <trkpt lat="42.470991000" lon="-2.460401000">
        <ele>391.70</ele>
        <time>2017-02-18T10:32:17Z</time>
      </trkpt>
      <trkpt lat="42.470980000" lon="-2.460413000">
        <ele>391.70</ele>
        <time>2017-02-18T10:32:19Z</time>
      </trkpt>
      <trkpt lat="42.470980000" lon="-2.460422000">
        <ele>391.70</ele>
        <time>2017-02-18T10:32:20Z</time>
      </trkpt>
      <trkpt lat="42.470963000" lon="-2.460438000">
        <ele>391.60</ele>
        <time>2017-02-18T10:32:21Z</time>
      </trkpt>
      <trkpt lat="42.470947000" lon="-2.460448000">
        <ele>391.50</ele>
        <time>2017-02-18T10:32:22Z</time>
      </trkpt>
      <trkpt lat="42.470930000" lon="-2.460459000">
        <ele>391.40</ele>
        <time>2017-02-18T10:32:23Z</time>
      </trkpt>
      <trkpt lat="42.470912000" lon="-2.460465000">
        <ele>391.30</ele>
        <time>2017-02-18T10:32:24Z</time>
      </trkpt>
      <trkpt lat="42.470893000" lon="-2.460465000">
        <ele>391.20</ele>
        <time>2017-02-18T10:32:25Z</time>
      </trkpt>
      <trkpt lat="42.470870000" lon="-2.460463000">
        <ele>391.10</ele>
        <time>2017-02-18T10:32:26Z</time>
      </trkpt>
      <trkpt lat="42.470846000" lon="-2.460458000">
        <ele>391.10</ele>
        <time>2017-02-18T10:32:27Z</time>
      </trkpt>
      <trkpt lat="42.470820000" lon="-2.460456000">
        <ele>391.00</ele>
        <time>2017-02-18T10:32:28Z</time>
      </trkpt>
      <trkpt lat="42.470795000" lon="-2.460464000">
        <ele>391.10</ele>
        <time>2017-02-18T10:32:29Z</time>
      </trkpt>
      <trkpt lat="42.470763000" lon="-2.460487000">
        <ele>391.20</ele>
        <time>2017-02-18T10:32:30Z</time>
      </trkpt>
      <trkpt lat="42.470729000" lon="-2.460506000">
        <ele>391.10</ele>
        <time>2017-02-18T10:32:31Z</time>
      </trkpt>
      <trkpt lat="42.470695000" lon="-2.460527000">
        <ele>391.00</ele>
        <time>2017-02-18T10:32:32Z</time>
      </trkpt>
      <trkpt lat="42.470656000" lon="-2.460549000">
        <ele>391.10</ele>
        <time>2017-02-18T10:32:33Z</time>
      </trkpt>
      <trkpt lat="42.470626000" lon="-2.460571000">
        <ele>391.20</ele>
        <time>2017-02-18T10:32:34Z</time>
      </trkpt>
      <trkpt lat="42.470596000" lon="-2.460595000">
        <ele>391.20</ele>
        <time>2017-02-18T10:32:35Z</time>
      </trkpt>
      <trkpt lat="42.470571000" lon="-2.460623000">
        <ele>391.20</ele>
        <time>2017-02-18T10:32:36Z</time>
      </trkpt>
      <trkpt lat="42.470546000" lon="-2.460655000">
        <ele>391.20</ele>
        <time>2017-02-18T10:32:37Z</time>
      </trkpt>
      <trkpt lat="42.470520000" lon="-2.460687000">
        <ele>391.20</ele>
        <time>2017-02-18T10:32:38Z</time>
      </trkpt>
      <trkpt lat="42.470489000" lon="-2.460718000">
        <ele>391.00</ele>
        <time>2017-02-18T10:32:39Z</time>
      </trkpt>
      <trkpt lat="42.470453000" lon="-2.460746000">
        <ele>390.90</ele>
        <time>2017-02-18T10:32:40Z</time>
      </trkpt>
      <trkpt lat="42.470415000" lon="-2.460772000">
        <ele>390.80</ele>
        <time>2017-02-18T10:32:41Z</time>
      </trkpt>
      <trkpt lat="42.470377000" lon="-2.460799000">
        <ele>390.70</ele>
        <time>2017-02-18T10:32:42Z</time>
      </trkpt>
      <trkpt lat="42.470337000" lon="-2.460827000">
        <ele>390.60</ele>
        <time>2017-02-18T10:32:43Z</time>
      </trkpt>
      <trkpt lat="42.470297000" lon="-2.460854000">
        <ele>390.60</ele>
        <time>2017-02-18T10:32:44Z</time>
      </trkpt>
      <trkpt lat="42.470257000" lon="-2.460884000">
        <ele>390.70</ele>
        <time>2017-02-18T10:32:45Z</time>
      </trkpt>
      <trkpt lat="42.470216000" lon="-2.460912000">
        <ele>390.70</ele>
        <time>2017-02-18T10:32:46Z</time>
      </trkpt>
      <trkpt lat="42.470177000" lon="-2.460942000">
        <ele>390.70</ele>
        <time>2017-02-18T10:32:47Z</time>
      </trkpt>
      <trkpt lat="42.470135000" lon="-2.460972000">
        <ele>390.60</ele>
        <time>2017-02-18T10:32:48Z</time>
      </trkpt>
      <trkpt lat="42.470095000" lon="-2.460999000">
        <ele>390.70</ele>
        <time>2017-02-18T10:32:49Z</time>
      </trkpt>
      <trkpt lat="42.470054000" lon="-2.461027000">
        <ele>390.70</ele>
        <time>2017-02-18T10:32:50Z</time>
      </trkpt>
      <trkpt lat="42.470015000" lon="-2.461054000">
        <ele>390.70</ele>
        <time>2017-02-18T10:32:51Z</time>
      </trkpt>
      <trkpt lat="42.469980000" lon="-2.461085000">
        <ele>390.80</ele>
        <time>2017-02-18T10:32:52Z</time>
      </trkpt>
      <trkpt lat="42.469945000" lon="-2.461112000">
        <ele>390.90</ele>
        <time>2017-02-18T10:32:53Z</time>
      </trkpt>
      <trkpt lat="42.469909000" lon="-2.461142000">
        <ele>390.90</ele>
        <time>2017-02-18T10:32:54Z</time>
      </trkpt>
      <trkpt lat="42.469874000" lon="-2.461174000">
        <ele>391.00</ele>
        <time>2017-02-18T10:32:55Z</time>
      </trkpt>
      <trkpt lat="42.469839000" lon="-2.461205000">
        <ele>391.00</ele>
        <time>2017-02-18T10:32:56Z</time>
      </trkpt>
      <trkpt lat="42.469805000" lon="-2.461233000">
        <ele>391.10</ele>
        <time>2017-02-18T10:32:57Z</time>
      </trkpt>
      <trkpt lat="42.469765000" lon="-2.461263000">
        <ele>391.20</ele>
        <time>2017-02-18T10:32:58Z</time>
      </trkpt>
      <trkpt lat="42.469727000" lon="-2.461290000">
        <ele>391.10</ele>
        <time>2017-02-18T10:32:59Z</time>
      </trkpt>
      <trkpt lat="42.469692000" lon="-2.461321000">
        <ele>391.00</ele>
        <time>2017-02-18T10:33:00Z</time>
      </trkpt>
      <trkpt lat="42.469655000" lon="-2.461350000">
        <ele>391.00</ele>
        <time>2017-02-18T10:33:01Z</time>
      </trkpt>
      <trkpt lat="42.469618000" lon="-2.461379000">
        <ele>391.00</ele>
        <time>2017-02-18T10:33:02Z</time>
      </trkpt>
      <trkpt lat="42.469584000" lon="-2.461409000">
        <ele>390.90</ele>
        <time>2017-02-18T10:33:03Z</time>
      </trkpt>
      <trkpt lat="42.469550000" lon="-2.461440000">
        <ele>390.90</ele>
        <time>2017-02-18T10:33:04Z</time>
      </trkpt>
      <trkpt lat="42.469518000" lon="-2.461468000">
        <ele>391.00</ele>
        <time>2017-02-18T10:33:05Z</time>
      </trkpt>
      <trkpt lat="42.469481000" lon="-2.461498000">
        <ele>391.00</ele>
        <time>2017-02-18T10:33:06Z</time>
      </trkpt>
      <trkpt lat="42.469449000" lon="-2.461528000">
        <ele>391.10</ele>
        <time>2017-02-18T10:33:07Z</time>
      </trkpt>
      <trkpt lat="42.469414000" lon="-2.461557000">
        <ele>391.20</ele>
        <time>2017-02-18T10:33:08Z</time>
      </trkpt>
      <trkpt lat="42.469378000" lon="-2.461582000">
        <ele>391.30</ele>
        <time>2017-02-18T10:33:09Z</time>
      </trkpt>
      <trkpt lat="42.469341000" lon="-2.461610000">
        <ele>391.40</ele>
        <time>2017-02-18T10:33:10Z</time>
      </trkpt>
      <trkpt lat="42.469305000" lon="-2.461636000">
        <ele>391.50</ele>
        <time>2017-02-18T10:33:11Z</time>
      </trkpt>
      <trkpt lat="42.469271000" lon="-2.461661000">
        <ele>391.60</ele>
        <time>2017-02-18T10:33:12Z</time>
      </trkpt>
      <trkpt lat="42.469236000" lon="-2.461687000">
        <ele>391.60</ele>
        <time>2017-02-18T10:33:13Z</time>
      </trkpt>
      <trkpt lat="42.469201000" lon="-2.461714000">
        <ele>391.60</ele>
        <time>2017-02-18T10:33:14Z</time>
      </trkpt>
      <trkpt lat="42.469164000" lon="-2.461740000">
        <ele>391.60</ele>
        <time>2017-02-18T10:33:15Z</time>
      </trkpt>
      <trkpt lat="42.469128000" lon="-2.461767000">
        <ele>391.50</ele>
        <time>2017-02-18T10:33:16Z</time>
      </trkpt>
      <trkpt lat="42.469091000" lon="-2.461797000">
        <ele>391.30</ele>
        <time>2017-02-18T10:33:17Z</time>
      </trkpt>
      <trkpt lat="42.469055000" lon="-2.461823000">
        <ele>391.20</ele>
        <time>2017-02-18T10:33:18Z</time>
      </trkpt>
      <trkpt lat="42.468986000" lon="-2.461879000">
        <ele>391.10</ele>
        <time>2017-02-18T10:33:20Z</time>
      </trkpt>
      <trkpt lat="42.468950000" lon="-2.461910000">
        <ele>391.00</ele>
        <time>2017-02-18T10:33:21Z</time>
      </trkpt>
      <trkpt lat="42.468919000" lon="-2.461944000">
        <ele>391.00</ele>
        <time>2017-02-18T10:33:22Z</time>
      </trkpt>
      <trkpt lat="42.468887000" lon="-2.461966000">
        <ele>391.10</ele>
        <time>2017-02-18T10:33:23Z</time>
      </trkpt>
      <trkpt lat="42.468857000" lon="-2.461988000">
        <ele>391.10</ele>
        <time>2017-02-18T10:33:24Z</time>
      </trkpt>
      <trkpt lat="42.468825000" lon="-2.462010000">
        <ele>391.30</ele>
        <time>2017-02-18T10:33:25Z</time>
      </trkpt>
      <trkpt lat="42.468793000" lon="-2.462031000">
        <ele>391.40</ele>
        <time>2017-02-18T10:33:26Z</time>
      </trkpt>
      <trkpt lat="42.468755000" lon="-2.462036000">
        <ele>391.40</ele>
        <time>2017-02-18T10:33:27Z</time>
      </trkpt>
      <trkpt lat="42.468716000" lon="-2.462040000">
        <ele>391.50</ele>
        <time>2017-02-18T10:33:28Z</time>
      </trkpt>
      <trkpt lat="42.468679000" lon="-2.462047000">
        <ele>391.50</ele>
        <time>2017-02-18T10:33:29Z</time>
      </trkpt>
      <trkpt lat="42.468642000" lon="-2.462049000">
        <ele>391.50</ele>
        <time>2017-02-18T10:33:30Z</time>
      </trkpt>
      <trkpt lat="42.468607000" lon="-2.462050000">
        <ele>391.60</ele>
        <time>2017-02-18T10:33:31Z</time>
      </trkpt>
      <trkpt lat="42.468568000" lon="-2.462053000">
        <ele>391.60</ele>
        <time>2017-02-18T10:33:32Z</time>
      </trkpt>
      <trkpt lat="42.468528000" lon="-2.462064000">
        <ele>391.60</ele>
        <time>2017-02-18T10:33:33Z</time>
      </trkpt>
      <trkpt lat="42.468490000" lon="-2.462070000">
        <ele>391.60</ele>
        <time>2017-02-18T10:33:34Z</time>
      </trkpt>
      <trkpt lat="42.468450000" lon="-2.462072000">
        <ele>391.70</ele>
        <time>2017-02-18T10:33:35Z</time>
      </trkpt>
      <trkpt lat="42.468411000" lon="-2.462075000">
        <ele>391.70</ele>
        <time>2017-02-18T10:33:36Z</time>
      </trkpt>
      <trkpt lat="42.468373000" lon="-2.462080000">
        <ele>391.80</ele>
        <time>2017-02-18T10:33:37Z</time>
      </trkpt>
      <trkpt lat="42.468336000" lon="-2.462085000">
        <ele>391.80</ele>
        <time>2017-02-18T10:33:38Z</time>
      </trkpt>
      <trkpt lat="42.468300000" lon="-2.462088000">
        <ele>391.80</ele>
        <time>2017-02-18T10:33:39Z</time>
      </trkpt>
      <trkpt lat="42.468261000" lon="-2.462092000">
        <ele>391.80</ele>
        <time>2017-02-18T10:33:40Z</time>
      </trkpt>
      <trkpt lat="42.468225000" lon="-2.462091000">
        <ele>391.80</ele>
        <time>2017-02-18T10:33:41Z</time>
      </trkpt>
      <trkpt lat="42.468188000" lon="-2.462096000">
        <ele>391.90</ele>
        <time>2017-02-18T10:33:42Z</time>
      </trkpt>
      <trkpt lat="42.468151000" lon="-2.462103000">
        <ele>391.90</ele>
        <time>2017-02-18T10:33:43Z</time>
      </trkpt>
      <trkpt lat="42.468113000" lon="-2.462107000">
        <ele>391.90</ele>
        <time>2017-02-18T10:33:44Z</time>
      </trkpt>
      <trkpt lat="42.468076000" lon="-2.462111000">
        <ele>392.10</ele>
        <time>2017-02-18T10:33:45Z</time>
      </trkpt>
      <trkpt lat="42.468041000" lon="-2.462112000">
        <ele>392.30</ele>
        <time>2017-02-18T10:33:46Z</time>
      </trkpt>
      <trkpt lat="42.468003000" lon="-2.462114000">
        <ele>392.40</ele>
        <time>2017-02-18T10:33:47Z</time>
      </trkpt>
      <trkpt lat="42.467968000" lon="-2.462116000">
        <ele>392.50</ele>
        <time>2017-02-18T10:33:48Z</time>
      </trkpt>
      <trkpt lat="42.467930000" lon="-2.462116000">
        <ele>392.60</ele>
        <time>2017-02-18T10:33:49Z</time>
      </trkpt>
      <trkpt lat="42.467897000" lon="-2.462121000">
        <ele>392.70</ele>
        <time>2017-02-18T10:33:50Z</time>
      </trkpt>
      <trkpt lat="42.467865000" lon="-2.462127000">
        <ele>392.70</ele>
        <time>2017-02-18T10:33:51Z</time>
      </trkpt>
      <trkpt lat="42.467830000" lon="-2.462134000">
        <ele>392.70</ele>
        <time>2017-02-18T10:33:52Z</time>
      </trkpt>
      <trkpt lat="42.467798000" lon="-2.462138000">
        <ele>392.80</ele>
        <time>2017-02-18T10:33:53Z</time>
      </trkpt>
      <trkpt lat="42.467766000" lon="-2.462143000">
        <ele>392.80</ele>
        <time>2017-02-18T10:33:54Z</time>
      </trkpt>
      <trkpt lat="42.467734000" lon="-2.462142000">
        <ele>392.80</ele>
        <time>2017-02-18T10:33:55Z</time>
      </trkpt>
      <trkpt lat="42.467701000" lon="-2.462145000">
        <ele>392.80</ele>
        <time>2017-02-18T10:33:56Z</time>
      </trkpt>
      <trkpt lat="42.467669000" lon="-2.462146000">
        <ele>392.80</ele>
        <time>2017-02-18T10:33:57Z</time>
      </trkpt>
      <trkpt lat="42.467637000" lon="-2.462149000">
        <ele>392.80</ele>
        <time>2017-02-18T10:33:58Z</time>
      </trkpt>
      <trkpt lat="42.467605000" lon="-2.462148000">
        <ele>392.90</ele>
        <time>2017-02-18T10:33:59Z</time>
      </trkpt>
      <trkpt lat="42.467575000" lon="-2.462146000">
        <ele>393.00</ele>
        <time>2017-02-18T10:34:00Z</time>
      </trkpt>
      <trkpt lat="42.467549000" lon="-2.462148000">
        <ele>393.30</ele>
        <time>2017-02-18T10:34:01Z</time>
      </trkpt>
      <trkpt lat="42.467519000" lon="-2.462150000">
        <ele>393.40</ele>
        <time>2017-02-18T10:34:02Z</time>
      </trkpt>
      <trkpt lat="42.467491000" lon="-2.462158000">
        <ele>393.50</ele>
        <time>2017-02-18T10:34:03Z</time>
      </trkpt>
      <trkpt lat="42.467464000" lon="-2.462175000">
        <ele>393.60</ele>
        <time>2017-02-18T10:34:04Z</time>
      </trkpt>
      <trkpt lat="42.467441000" lon="-2.462203000">
        <ele>393.70</ele>
        <time>2017-02-18T10:34:05Z</time>
      </trkpt>
      <trkpt lat="42.467426000" lon="-2.462239000">
        <ele>393.70</ele>
        <time>2017-02-18T10:34:06Z</time>
      </trkpt>
      <trkpt lat="42.467409000" lon="-2.462271000">
        <ele>393.80</ele>
        <time>2017-02-18T10:34:07Z</time>
      </trkpt>
      <trkpt lat="42.467389000" lon="-2.462296000">
        <ele>393.80</ele>
        <time>2017-02-18T10:34:08Z</time>
      </trkpt>
      <trkpt lat="42.467366000" lon="-2.462317000">
        <ele>393.90</ele>
        <time>2017-02-18T10:34:09Z</time>
      </trkpt>
      <trkpt lat="42.467344000" lon="-2.462337000">
        <ele>393.90</ele>
        <time>2017-02-18T10:34:10Z</time>
      </trkpt>
      <trkpt lat="42.467321000" lon="-2.462348000">
        <ele>394.00</ele>
        <time>2017-02-18T10:34:11Z</time>
      </trkpt>
      <trkpt lat="42.467293000" lon="-2.462354000">
        <ele>394.10</ele>
        <time>2017-02-18T10:34:12Z</time>
      </trkpt>
      <trkpt lat="42.467268000" lon="-2.462356000">
        <ele>394.20</ele>
        <time>2017-02-18T10:34:13Z</time>
      </trkpt>
      <trkpt lat="42.467241000" lon="-2.462348000">
        <ele>394.20</ele>
        <time>2017-02-18T10:34:14Z</time>
      </trkpt>
      <trkpt lat="42.467215000" lon="-2.462333000">
        <ele>394.30</ele>
        <time>2017-02-18T10:34:15Z</time>
      </trkpt>
      <trkpt lat="42.467187000" lon="-2.462315000">
        <ele>394.30</ele>
        <time>2017-02-18T10:34:16Z</time>
      </trkpt>
      <trkpt lat="42.467164000" lon="-2.462298000">
        <ele>394.30</ele>
        <time>2017-02-18T10:34:17Z</time>
      </trkpt>
      <trkpt lat="42.467149000" lon="-2.462284000">
        <ele>394.30</ele>
        <time>2017-02-18T10:34:18Z</time>
      </trkpt>
      <trkpt lat="42.467139000" lon="-2.462273000">
        <ele>394.20</ele>
        <time>2017-02-18T10:34:19Z</time>
      </trkpt>
      <trkpt lat="42.467120000" lon="-2.462258000">
        <ele>394.20</ele>
        <time>2017-02-18T10:34:21Z</time>
      </trkpt>
      <trkpt lat="42.467105000" lon="-2.462254000">
        <ele>394.20</ele>
        <time>2017-02-18T10:34:22Z</time>
      </trkpt>
      <trkpt lat="42.467088000" lon="-2.462252000">
        <ele>394.30</ele>
        <time>2017-02-18T10:34:23Z</time>
      </trkpt>
      <trkpt lat="42.467071000" lon="-2.462254000">
        <ele>394.30</ele>
        <time>2017-02-18T10:34:24Z</time>
      </trkpt>
      <trkpt lat="42.467051000" lon="-2.462260000">
        <ele>394.30</ele>
        <time>2017-02-18T10:34:25Z</time>
      </trkpt>
      <trkpt lat="42.467024000" lon="-2.462267000">
        <ele>394.30</ele>
        <time>2017-02-18T10:34:26Z</time>
      </trkpt>
      <trkpt lat="42.466995000" lon="-2.462280000">
        <ele>394.20</ele>
        <time>2017-02-18T10:34:27Z</time>
      </trkpt>
      <trkpt lat="42.466965000" lon="-2.462295000">
        <ele>394.10</ele>
        <time>2017-02-18T10:34:28Z</time>
      </trkpt>
      <trkpt lat="42.466936000" lon="-2.462311000">
        <ele>394.10</ele>
        <time>2017-02-18T10:34:29Z</time>
      </trkpt>
      <trkpt lat="42.466907000" lon="-2.462333000">
        <ele>394.00</ele>
        <time>2017-02-18T10:34:30Z</time>
      </trkpt>
      <trkpt lat="42.466881000" lon="-2.462351000">
        <ele>394.10</ele>
        <time>2017-02-18T10:34:31Z</time>
      </trkpt>
      <trkpt lat="42.466851000" lon="-2.462374000">
        <ele>394.20</ele>
        <time>2017-02-18T10:34:32Z</time>
      </trkpt>
      <trkpt lat="42.466821000" lon="-2.462394000">
        <ele>394.20</ele>
        <time>2017-02-18T10:34:33Z</time>
      </trkpt>
      <trkpt lat="42.466791000" lon="-2.462415000">
        <ele>394.30</ele>
        <time>2017-02-18T10:34:34Z</time>
      </trkpt>
      <trkpt lat="42.466760000" lon="-2.462434000">
        <ele>394.40</ele>
        <time>2017-02-18T10:34:35Z</time>
      </trkpt>
      <trkpt lat="42.466728000" lon="-2.462449000">
        <ele>394.50</ele>
        <time>2017-02-18T10:34:36Z</time>
      </trkpt>
      <trkpt lat="42.466695000" lon="-2.462463000">
        <ele>394.60</ele>
        <time>2017-02-18T10:34:37Z</time>
      </trkpt>
      <trkpt lat="42.466665000" lon="-2.462480000">
        <ele>394.70</ele>
        <time>2017-02-18T10:34:38Z</time>
      </trkpt>
      <trkpt lat="42.466634000" lon="-2.462492000">
        <ele>394.90</ele>
        <time>2017-02-18T10:34:39Z</time>
      </trkpt>
      <trkpt lat="42.466601000" lon="-2.462511000">
        <ele>395.10</ele>
        <time>2017-02-18T10:34:40Z</time>
      </trkpt>
      <trkpt lat="42.466569000" lon="-2.462533000">
        <ele>395.30</ele>
        <time>2017-02-18T10:34:41Z</time>
      </trkpt>
      <trkpt lat="42.466535000" lon="-2.462548000">
        <ele>395.40</ele>
        <time>2017-02-18T10:34:42Z</time>
      </trkpt>
      <trkpt lat="42.466502000" lon="-2.462562000">
        <ele>395.20</ele>
        <time>2017-02-18T10:34:43Z</time>
      </trkpt>
      <trkpt lat="42.466469000" lon="-2.462575000">
        <ele>395.00</ele>
        <time>2017-02-18T10:34:44Z</time>
      </trkpt>
      <trkpt lat="42.466438000" lon="-2.462588000">
        <ele>394.90</ele>
        <time>2017-02-18T10:34:45Z</time>
      </trkpt>
      <trkpt lat="42.466405000" lon="-2.462604000">
        <ele>394.90</ele>
        <time>2017-02-18T10:34:46Z</time>
      </trkpt>
      <trkpt lat="42.466370000" lon="-2.462615000">
        <ele>394.80</ele>
        <time>2017-02-18T10:34:47Z</time>
      </trkpt>
      <trkpt lat="42.466338000" lon="-2.462628000">
        <ele>394.80</ele>
        <time>2017-02-18T10:34:48Z</time>
      </trkpt>
      <trkpt lat="42.466305000" lon="-2.462641000">
        <ele>394.80</ele>
        <time>2017-02-18T10:34:49Z</time>
      </trkpt>
      <trkpt lat="42.466271000" lon="-2.462651000">
        <ele>394.80</ele>
        <time>2017-02-18T10:34:50Z</time>
      </trkpt>
      <trkpt lat="42.466238000" lon="-2.462660000">
        <ele>394.80</ele>
        <time>2017-02-18T10:34:51Z</time>
      </trkpt>
      <trkpt lat="42.466203000" lon="-2.462663000">
        <ele>394.90</ele>
        <time>2017-02-18T10:34:52Z</time>
      </trkpt>
      <trkpt lat="42.466168000" lon="-2.462668000">
        <ele>394.90</ele>
        <time>2017-02-18T10:34:53Z</time>
      </trkpt>
      <trkpt lat="42.466130000" lon="-2.462668000">
        <ele>394.90</ele>
        <time>2017-02-18T10:34:54Z</time>
      </trkpt>
      <trkpt lat="42.466097000" lon="-2.462670000">
        <ele>394.90</ele>
        <time>2017-02-18T10:34:55Z</time>
      </trkpt>
      <trkpt lat="42.466064000" lon="-2.462681000">
        <ele>394.90</ele>
        <time>2017-02-18T10:34:56Z</time>
      </trkpt>
      <trkpt lat="42.466032000" lon="-2.462693000">
        <ele>394.90</ele>
        <time>2017-02-18T10:34:57Z</time>
      </trkpt>
      <trkpt lat="42.466000000" lon="-2.462703000">
        <ele>395.00</ele>
        <time>2017-02-18T10:34:58Z</time>
      </trkpt>
      <trkpt lat="42.465966000" lon="-2.462710000">
        <ele>395.00</ele>
        <time>2017-02-18T10:34:59Z</time>
      </trkpt>
      <trkpt lat="42.465934000" lon="-2.462713000">
        <ele>395.10</ele>
        <time>2017-02-18T10:35:00Z</time>
      </trkpt>
      <trkpt lat="42.465900000" lon="-2.462719000">
        <ele>395.00</ele>
        <time>2017-02-18T10:35:01Z</time>
      </trkpt>
      <trkpt lat="42.465869000" lon="-2.462725000">
        <ele>395.00</ele>
        <time>2017-02-18T10:35:02Z</time>
      </trkpt>
      <trkpt lat="42.465836000" lon="-2.462730000">
        <ele>395.00</ele>
        <time>2017-02-18T10:35:03Z</time>
      </trkpt>
      <trkpt lat="42.465804000" lon="-2.462735000">
        <ele>394.90</ele>
        <time>2017-02-18T10:35:04Z</time>
      </trkpt>
      <trkpt lat="42.465767000" lon="-2.462740000">
        <ele>394.90</ele>
        <time>2017-02-18T10:35:05Z</time>
      </trkpt>
      <trkpt lat="42.465728000" lon="-2.462745000">
        <ele>394.90</ele>
        <time>2017-02-18T10:35:06Z</time>
      </trkpt>
      <trkpt lat="42.465693000" lon="-2.462750000">
        <ele>394.90</ele>
        <time>2017-02-18T10:35:07Z</time>
      </trkpt>
      <trkpt lat="42.465654000" lon="-2.462760000">
        <ele>394.90</ele>
        <time>2017-02-18T10:35:08Z</time>
      </trkpt>
      <trkpt lat="42.465615000" lon="-2.462767000">
        <ele>394.90</ele>
        <time>2017-02-18T10:35:09Z</time>
      </trkpt>
      <trkpt lat="42.465577000" lon="-2.462772000">
        <ele>394.90</ele>
        <time>2017-02-18T10:35:10Z</time>
      </trkpt>
      <trkpt lat="42.465536000" lon="-2.462777000">
        <ele>394.90</ele>
        <time>2017-02-18T10:35:11Z</time>
      </trkpt>
      <trkpt lat="42.465496000" lon="-2.462782000">
        <ele>394.90</ele>
        <time>2017-02-18T10:35:12Z</time>
      </trkpt>
      <trkpt lat="42.465456000" lon="-2.462787000">
        <ele>394.90</ele>
        <time>2017-02-18T10:35:13Z</time>
      </trkpt>
      <trkpt lat="42.465417000" lon="-2.462794000">
        <ele>394.90</ele>
        <time>2017-02-18T10:35:14Z</time>
      </trkpt>
      <trkpt lat="42.465378000" lon="-2.462798000">
        <ele>394.90</ele>
        <time>2017-02-18T10:35:15Z</time>
      </trkpt>
      <trkpt lat="42.465342000" lon="-2.462805000">
        <ele>394.90</ele>
        <time>2017-02-18T10:35:16Z</time>
      </trkpt>
      <trkpt lat="42.465311000" lon="-2.462813000">
        <ele>395.00</ele>
        <time>2017-02-18T10:35:17Z</time>
      </trkpt>
      <trkpt lat="42.465279000" lon="-2.462822000">
        <ele>395.00</ele>
        <time>2017-02-18T10:35:18Z</time>
      </trkpt>
      <trkpt lat="42.465247000" lon="-2.462829000">
        <ele>395.00</ele>
        <time>2017-02-18T10:35:19Z</time>
      </trkpt>
      <trkpt lat="42.465214000" lon="-2.462839000">
        <ele>395.10</ele>
        <time>2017-02-18T10:35:20Z</time>
      </trkpt>
      <trkpt lat="42.465181000" lon="-2.462851000">
        <ele>395.10</ele>
        <time>2017-02-18T10:35:21Z</time>
      </trkpt>
      <trkpt lat="42.465117000" lon="-2.462868000">
        <ele>395.10</ele>
        <time>2017-02-18T10:35:23Z</time>
      </trkpt>
      <trkpt lat="42.465084000" lon="-2.462873000">
        <ele>395.10</ele>
        <time>2017-02-18T10:35:24Z</time>
      </trkpt>
      <trkpt lat="42.465053000" lon="-2.462873000">
        <ele>395.30</ele>
        <time>2017-02-18T10:35:25Z</time>
      </trkpt>
      <trkpt lat="42.465024000" lon="-2.462874000">
        <ele>395.40</ele>
        <time>2017-02-18T10:35:26Z</time>
      </trkpt>
      <trkpt lat="42.464989000" lon="-2.462874000">
        <ele>395.40</ele>
        <time>2017-02-18T10:35:27Z</time>
      </trkpt>
      <trkpt lat="42.464954000" lon="-2.462880000">
        <ele>395.50</ele>
        <time>2017-02-18T10:35:28Z</time>
      </trkpt>
      <trkpt lat="42.464919000" lon="-2.462888000">
        <ele>395.50</ele>
        <time>2017-02-18T10:35:29Z</time>
      </trkpt>
      <trkpt lat="42.464882000" lon="-2.462895000">
        <ele>395.50</ele>
        <time>2017-02-18T10:35:30Z</time>
      </trkpt>
      <trkpt lat="42.464846000" lon="-2.462896000">
        <ele>395.40</ele>
        <time>2017-02-18T10:35:31Z</time>
      </trkpt>
      <trkpt lat="42.464810000" lon="-2.462897000">
        <ele>395.40</ele>
        <time>2017-02-18T10:35:32Z</time>
      </trkpt>
      <trkpt lat="42.464776000" lon="-2.462898000">
        <ele>395.40</ele>
        <time>2017-02-18T10:35:33Z</time>
      </trkpt>
      <trkpt lat="42.464743000" lon="-2.462894000">
        <ele>395.30</ele>
        <time>2017-02-18T10:35:34Z</time>
      </trkpt>
      <trkpt lat="42.464709000" lon="-2.462889000">
        <ele>395.30</ele>
        <time>2017-02-18T10:35:35Z</time>
      </trkpt>
      <trkpt lat="42.464674000" lon="-2.462884000">
        <ele>395.20</ele>
        <time>2017-02-18T10:35:36Z</time>
      </trkpt>
      <trkpt lat="42.464642000" lon="-2.462882000">
        <ele>395.30</ele>
        <time>2017-02-18T10:35:37Z</time>
      </trkpt>
      <trkpt lat="42.464609000" lon="-2.462878000">
        <ele>395.30</ele>
        <time>2017-02-18T10:35:38Z</time>
      </trkpt>
      <trkpt lat="42.464576000" lon="-2.462868000">
        <ele>395.50</ele>
        <time>2017-02-18T10:35:39Z</time>
      </trkpt>
      <trkpt lat="42.464545000" lon="-2.462862000">
        <ele>395.60</ele>
        <time>2017-02-18T10:35:40Z</time>
      </trkpt>
      <trkpt lat="42.464514000" lon="-2.462855000">
        <ele>395.50</ele>
        <time>2017-02-18T10:35:41Z</time>
      </trkpt>
      <trkpt lat="42.464483000" lon="-2.462847000">
        <ele>395.50</ele>
        <time>2017-02-18T10:35:42Z</time>
      </trkpt>
      <trkpt lat="42.464452000" lon="-2.462834000">
        <ele>395.50</ele>
        <time>2017-02-18T10:35:43Z</time>
      </trkpt>
      <trkpt lat="42.464421000" lon="-2.462825000">
        <ele>395.60</ele>
        <time>2017-02-18T10:35:44Z</time>
      </trkpt>
      <trkpt lat="42.464398000" lon="-2.462812000">
        <ele>395.50</ele>
        <time>2017-02-18T10:35:45Z</time>
      </trkpt>
      <trkpt lat="42.464375000" lon="-2.462804000">
        <ele>395.50</ele>
        <time>2017-02-18T10:35:46Z</time>
      </trkpt>
      <trkpt lat="42.464345000" lon="-2.462797000">
        <ele>395.50</ele>
        <time>2017-02-18T10:35:47Z</time>
      </trkpt>
      <trkpt lat="42.464315000" lon="-2.462790000">
        <ele>395.50</ele>
        <time>2017-02-18T10:35:48Z</time>
      </trkpt>
      <trkpt lat="42.464282000" lon="-2.462780000">
        <ele>395.40</ele>
        <time>2017-02-18T10:35:49Z</time>
      </trkpt>
      <trkpt lat="42.464253000" lon="-2.462766000">
        <ele>395.40</ele>
        <time>2017-02-18T10:35:50Z</time>
      </trkpt>
      <trkpt lat="42.464221000" lon="-2.462754000">
        <ele>395.50</ele>
        <time>2017-02-18T10:35:51Z</time>
      </trkpt>
      <trkpt lat="42.464191000" lon="-2.462750000">
        <ele>395.50</ele>
        <time>2017-02-18T10:35:52Z</time>
      </trkpt>
      <trkpt lat="42.464169000" lon="-2.462746000">
        <ele>395.60</ele>
        <time>2017-02-18T10:35:53Z</time>
      </trkpt>
      <trkpt lat="42.464147000" lon="-2.462742000">
        <ele>395.60</ele>
        <time>2017-02-18T10:35:54Z</time>
      </trkpt>
      <trkpt lat="42.464132000" lon="-2.462741000">
        <ele>395.60</ele>
        <time>2017-02-18T10:35:55Z</time>
      </trkpt>
      <trkpt lat="42.464113000" lon="-2.462734000">
        <ele>395.60</ele>
        <time>2017-02-18T10:35:56Z</time>
      </trkpt>
      <trkpt lat="42.464093000" lon="-2.462726000">
        <ele>395.60</ele>
        <time>2017-02-18T10:35:57Z</time>
      </trkpt>
      <trkpt lat="42.464071000" lon="-2.462718000">
        <ele>395.50</ele>
        <time>2017-02-18T10:35:58Z</time>
      </trkpt>
      <trkpt lat="42.464049000" lon="-2.462715000">
        <ele>395.60</ele>
        <time>2017-02-18T10:35:59Z</time>
      </trkpt>
      <trkpt lat="42.464025000" lon="-2.462708000">
        <ele>395.60</ele>
        <time>2017-02-18T10:36:00Z</time>
      </trkpt>
      <trkpt lat="42.464003000" lon="-2.462702000">
        <ele>395.80</ele>
        <time>2017-02-18T10:36:01Z</time>
      </trkpt>
      <trkpt lat="42.463984000" lon="-2.462691000">
        <ele>396.00</ele>
        <time>2017-02-18T10:36:02Z</time>
      </trkpt>
      <trkpt lat="42.463961000" lon="-2.462686000">
        <ele>396.20</ele>
        <time>2017-02-18T10:36:03Z</time>
      </trkpt>
      <trkpt lat="42.463942000" lon="-2.462680000">
        <ele>396.30</ele>
        <time>2017-02-18T10:36:04Z</time>
      </trkpt>
      <trkpt lat="42.463920000" lon="-2.462678000">
        <ele>396.30</ele>
        <time>2017-02-18T10:36:05Z</time>
      </trkpt>
      <trkpt lat="42.463898000" lon="-2.462669000">
        <ele>396.40</ele>
        <time>2017-02-18T10:36:06Z</time>
      </trkpt>
      <trkpt lat="42.463874000" lon="-2.462657000">
        <ele>396.40</ele>
        <time>2017-02-18T10:36:07Z</time>
      </trkpt>
      <trkpt lat="42.463845000" lon="-2.462653000">
        <ele>396.40</ele>
        <time>2017-02-18T10:36:08Z</time>
      </trkpt>
      <trkpt lat="42.463817000" lon="-2.462627000">
        <ele>396.40</ele>
        <time>2017-02-18T10:36:09Z</time>
      </trkpt>
      <trkpt lat="42.463788000" lon="-2.462611000">
        <ele>396.40</ele>
        <time>2017-02-18T10:36:10Z</time>
      </trkpt>
      <trkpt lat="42.463758000" lon="-2.462609000">
        <ele>396.50</ele>
        <time>2017-02-18T10:36:11Z</time>
      </trkpt>
      <trkpt lat="42.463728000" lon="-2.462601000">
        <ele>396.60</ele>
        <time>2017-02-18T10:36:12Z</time>
      </trkpt>
      <trkpt lat="42.463705000" lon="-2.462586000">
        <ele>396.70</ele>
        <time>2017-02-18T10:36:13Z</time>
      </trkpt>
      <trkpt lat="42.463682000" lon="-2.462579000">
        <ele>396.70</ele>
        <time>2017-02-18T10:36:14Z</time>
      </trkpt>
      <trkpt lat="42.463655000" lon="-2.462571000">
        <ele>396.80</ele>
        <time>2017-02-18T10:36:15Z</time>
      </trkpt>
      <trkpt lat="42.463625000" lon="-2.462564000">
        <ele>396.80</ele>
        <time>2017-02-18T10:36:16Z</time>
      </trkpt>
      <trkpt lat="42.463597000" lon="-2.462553000">
        <ele>396.70</ele>
        <time>2017-02-18T10:36:17Z</time>
      </trkpt>
      <trkpt lat="42.463568000" lon="-2.462541000">
        <ele>396.70</ele>
        <time>2017-02-18T10:36:18Z</time>
      </trkpt>
      <trkpt lat="42.463536000" lon="-2.462529000">
        <ele>396.70</ele>
        <time>2017-02-18T10:36:19Z</time>
      </trkpt>
      <trkpt lat="42.463504000" lon="-2.462526000">
        <ele>396.80</ele>
        <time>2017-02-18T10:36:20Z</time>
      </trkpt>
      <trkpt lat="42.463475000" lon="-2.462530000">
        <ele>397.10</ele>
        <time>2017-02-18T10:36:21Z</time>
      </trkpt>
      <trkpt lat="42.463441000" lon="-2.462539000">
        <ele>397.30</ele>
        <time>2017-02-18T10:36:22Z</time>
      </trkpt>
      <trkpt lat="42.463366000" lon="-2.462513000">
        <ele>397.70</ele>
        <time>2017-02-18T10:36:24Z</time>
      </trkpt>
      <trkpt lat="42.463328000" lon="-2.462487000">
        <ele>397.80</ele>
        <time>2017-02-18T10:36:25Z</time>
      </trkpt>
      <trkpt lat="42.463291000" lon="-2.462451000">
        <ele>397.90</ele>
        <time>2017-02-18T10:36:26Z</time>
      </trkpt>
      <trkpt lat="42.463253000" lon="-2.462421000">
        <ele>397.90</ele>
        <time>2017-02-18T10:36:27Z</time>
      </trkpt>
      <trkpt lat="42.463213000" lon="-2.462397000">
        <ele>397.90</ele>
        <time>2017-02-18T10:36:28Z</time>
      </trkpt>
      <trkpt lat="42.463160000" lon="-2.462369000">
        <ele>397.90</ele>
        <time>2017-02-18T10:36:29Z</time>
      </trkpt>
      <trkpt lat="42.463103000" lon="-2.462350000">
        <ele>397.90</ele>
        <time>2017-02-18T10:36:30Z</time>
      </trkpt>
      <trkpt lat="42.463048000" lon="-2.462323000">
        <ele>397.80</ele>
        <time>2017-02-18T10:36:31Z</time>
      </trkpt>
      <trkpt lat="42.462989000" lon="-2.462291000">
        <ele>397.70</ele>
        <time>2017-02-18T10:36:32Z</time>
      </trkpt>
      <trkpt lat="42.462937000" lon="-2.462265000">
        <ele>397.60</ele>
        <time>2017-02-18T10:36:33Z</time>
      </trkpt>
      <trkpt lat="42.462891000" lon="-2.462244000">
        <ele>397.50</ele>
        <time>2017-02-18T10:36:34Z</time>
      </trkpt>
      <trkpt lat="42.462845000" lon="-2.462222000">
        <ele>397.50</ele>
        <time>2017-02-18T10:36:35Z</time>
      </trkpt>
      <trkpt lat="42.462805000" lon="-2.462204000">
        <ele>397.50</ele>
        <time>2017-02-18T10:36:36Z</time>
      </trkpt>
      <trkpt lat="42.462761000" lon="-2.462190000">
        <ele>397.60</ele>
        <time>2017-02-18T10:36:37Z</time>
      </trkpt>
      <trkpt lat="42.462719000" lon="-2.462170000">
        <ele>397.70</ele>
        <time>2017-02-18T10:36:38Z</time>
      </trkpt>
      <trkpt lat="42.462680000" lon="-2.462152000">
        <ele>397.70</ele>
        <time>2017-02-18T10:36:39Z</time>
      </trkpt>
      <trkpt lat="42.462640000" lon="-2.462134000">
        <ele>397.80</ele>
        <time>2017-02-18T10:36:40Z</time>
      </trkpt>
      <trkpt lat="42.462600000" lon="-2.462116000">
        <ele>397.70</ele>
        <time>2017-02-18T10:36:41Z</time>
      </trkpt>
      <trkpt lat="42.462558000" lon="-2.462096000">
        <ele>397.70</ele>
        <time>2017-02-18T10:36:42Z</time>
      </trkpt>
      <trkpt lat="42.462518000" lon="-2.462070000">
        <ele>397.60</ele>
        <time>2017-02-18T10:36:43Z</time>
      </trkpt>
      <trkpt lat="42.462479000" lon="-2.462027000">
        <ele>397.50</ele>
        <time>2017-02-18T10:36:44Z</time>
      </trkpt>
      <trkpt lat="42.462435000" lon="-2.462000000">
        <ele>397.40</ele>
        <time>2017-02-18T10:36:45Z</time>
      </trkpt>
      <trkpt lat="42.462393000" lon="-2.461974000">
        <ele>397.30</ele>
        <time>2017-02-18T10:36:46Z</time>
      </trkpt>
      <trkpt lat="42.462352000" lon="-2.461947000">
        <ele>397.30</ele>
        <time>2017-02-18T10:36:47Z</time>
      </trkpt>
      <trkpt lat="42.462311000" lon="-2.461920000">
        <ele>397.20</ele>
        <time>2017-02-18T10:36:48Z</time>
      </trkpt>
      <trkpt lat="42.462274000" lon="-2.461898000">
        <ele>397.20</ele>
        <time>2017-02-18T10:36:49Z</time>
      </trkpt>
      <trkpt lat="42.462232000" lon="-2.461883000">
        <ele>397.20</ele>
        <time>2017-02-18T10:36:50Z</time>
      </trkpt>
      <trkpt lat="42.462192000" lon="-2.461867000">
        <ele>397.20</ele>
        <time>2017-02-18T10:36:51Z</time>
      </trkpt>
      <trkpt lat="42.462154000" lon="-2.461853000">
        <ele>397.30</ele>
        <time>2017-02-18T10:36:52Z</time>
      </trkpt>
      <trkpt lat="42.462115000" lon="-2.461836000">
        <ele>397.30</ele>
        <time>2017-02-18T10:36:53Z</time>
      </trkpt>
      <trkpt lat="42.462076000" lon="-2.461820000">
        <ele>397.30</ele>
        <time>2017-02-18T10:36:54Z</time>
      </trkpt>
      <trkpt lat="42.462039000" lon="-2.461808000">
        <ele>397.30</ele>
        <time>2017-02-18T10:36:55Z</time>
      </trkpt>
      <trkpt lat="42.462002000" lon="-2.461795000">
        <ele>397.40</ele>
        <time>2017-02-18T10:36:56Z</time>
      </trkpt>
      <trkpt lat="42.461966000" lon="-2.461781000">
        <ele>397.30</ele>
        <time>2017-02-18T10:36:57Z</time>
      </trkpt>
      <trkpt lat="42.461929000" lon="-2.461768000">
        <ele>397.30</ele>
        <time>2017-02-18T10:36:58Z</time>
      </trkpt>
      <trkpt lat="42.461893000" lon="-2.461755000">
        <ele>397.20</ele>
        <time>2017-02-18T10:36:59Z</time>
      </trkpt>
      <trkpt lat="42.461858000" lon="-2.461738000">
        <ele>397.20</ele>
        <time>2017-02-18T10:37:00Z</time>
      </trkpt>
      <trkpt lat="42.461827000" lon="-2.461719000">
        <ele>397.30</ele>
        <time>2017-02-18T10:37:01Z</time>
      </trkpt>
      <trkpt lat="42.461792000" lon="-2.461702000">
        <ele>397.40</ele>
        <time>2017-02-18T10:37:02Z</time>
      </trkpt>
      <trkpt lat="42.461757000" lon="-2.461688000">
        <ele>397.50</ele>
        <time>2017-02-18T10:37:03Z</time>
      </trkpt>
      <trkpt lat="42.461726000" lon="-2.461674000">
        <ele>397.60</ele>
        <time>2017-02-18T10:37:04Z</time>
      </trkpt>
      <trkpt lat="42.461692000" lon="-2.461656000">
        <ele>397.70</ele>
        <time>2017-02-18T10:37:05Z</time>
      </trkpt>
      <trkpt lat="42.461660000" lon="-2.461640000">
        <ele>397.70</ele>
        <time>2017-02-18T10:37:06Z</time>
      </trkpt>
      <trkpt lat="42.461625000" lon="-2.461614000">
        <ele>397.80</ele>
        <time>2017-02-18T10:37:07Z</time>
      </trkpt>
      <trkpt lat="42.461591000" lon="-2.461595000">
        <ele>397.80</ele>
        <time>2017-02-18T10:37:08Z</time>
      </trkpt>
      <trkpt lat="42.461559000" lon="-2.461573000">
        <ele>397.80</ele>
        <time>2017-02-18T10:37:09Z</time>
      </trkpt>
      <trkpt lat="42.461523000" lon="-2.461551000">
        <ele>397.90</ele>
        <time>2017-02-18T10:37:10Z</time>
      </trkpt>
      <trkpt lat="42.461489000" lon="-2.461531000">
        <ele>397.90</ele>
        <time>2017-02-18T10:37:11Z</time>
      </trkpt>
      <trkpt lat="42.461452000" lon="-2.461513000">
        <ele>397.90</ele>
        <time>2017-02-18T10:37:12Z</time>
      </trkpt>
      <trkpt lat="42.461419000" lon="-2.461491000">
        <ele>398.20</ele>
        <time>2017-02-18T10:37:13Z</time>
      </trkpt>
      <trkpt lat="42.461385000" lon="-2.461476000">
        <ele>398.40</ele>
        <time>2017-02-18T10:37:14Z</time>
      </trkpt>
      <trkpt lat="42.461349000" lon="-2.461458000">
        <ele>398.30</ele>
        <time>2017-02-18T10:37:15Z</time>
      </trkpt>
      <trkpt lat="42.461312000" lon="-2.461438000">
        <ele>398.30</ele>
        <time>2017-02-18T10:37:16Z</time>
      </trkpt>
      <trkpt lat="42.461278000" lon="-2.461416000">
        <ele>398.20</ele>
        <time>2017-02-18T10:37:17Z</time>
      </trkpt>
      <trkpt lat="42.461246000" lon="-2.461392000">
        <ele>398.20</ele>
        <time>2017-02-18T10:37:18Z</time>
      </trkpt>
      <trkpt lat="42.461214000" lon="-2.461364000">
        <ele>398.20</ele>
        <time>2017-02-18T10:37:19Z</time>
      </trkpt>
      <trkpt lat="42.461182000" lon="-2.461342000">
        <ele>398.10</ele>
        <time>2017-02-18T10:37:20Z</time>
      </trkpt>
      <trkpt lat="42.461155000" lon="-2.461322000">
        <ele>398.20</ele>
        <time>2017-02-18T10:37:21Z</time>
      </trkpt>
      <trkpt lat="42.461132000" lon="-2.461298000">
        <ele>398.30</ele>
        <time>2017-02-18T10:37:22Z</time>
      </trkpt>
      <trkpt lat="42.461108000" lon="-2.461280000">
        <ele>398.40</ele>
        <time>2017-02-18T10:37:23Z</time>
      </trkpt>
      <trkpt lat="42.461054000" lon="-2.461282000">
        <ele>398.50</ele>
        <time>2017-02-18T10:37:25Z</time>
      </trkpt>
      <trkpt lat="42.461029000" lon="-2.461289000">
        <ele>398.60</ele>
        <time>2017-02-18T10:37:26Z</time>
      </trkpt>
      <trkpt lat="42.461010000" lon="-2.461294000">
        <ele>398.70</ele>
        <time>2017-02-18T10:37:27Z</time>
      </trkpt>
      <trkpt lat="42.460992000" lon="-2.461305000">
        <ele>398.70</ele>
        <time>2017-02-18T10:37:28Z</time>
      </trkpt>
      <trkpt lat="42.460980000" lon="-2.461317000">
        <ele>398.80</ele>
        <time>2017-02-18T10:37:29Z</time>
      </trkpt>
      <trkpt lat="42.460970000" lon="-2.461335000">
        <ele>398.80</ele>
        <time>2017-02-18T10:37:30Z</time>
      </trkpt>
      <trkpt lat="42.460964000" lon="-2.461348000">
        <ele>398.80</ele>
        <time>2017-02-18T10:37:31Z</time>
      </trkpt>
      <trkpt lat="42.460944000" lon="-2.461364000">
        <ele>398.80</ele>
        <time>2017-02-18T10:37:32Z</time>
      </trkpt>
      <trkpt lat="42.460934000" lon="-2.461383000">
        <ele>398.80</ele>
        <time>2017-02-18T10:37:33Z</time>
      </trkpt>
      <trkpt lat="42.460922000" lon="-2.461401000">
        <ele>398.70</ele>
        <time>2017-02-18T10:37:34Z</time>
      </trkpt>
      <trkpt lat="42.460909000" lon="-2.461430000">
        <ele>398.70</ele>
        <time>2017-02-18T10:37:35Z</time>
      </trkpt>
      <trkpt lat="42.460893000" lon="-2.461462000">
        <ele>398.80</ele>
        <time>2017-02-18T10:37:36Z</time>
      </trkpt>
      <trkpt lat="42.460880000" lon="-2.461495000">
        <ele>398.90</ele>
        <time>2017-02-18T10:37:37Z</time>
      </trkpt>
      <trkpt lat="42.460867000" lon="-2.461517000">
        <ele>399.00</ele>
        <time>2017-02-18T10:37:38Z</time>
      </trkpt>
      <trkpt lat="42.460849000" lon="-2.461545000">
        <ele>399.10</ele>
        <time>2017-02-18T10:37:39Z</time>
      </trkpt>
      <trkpt lat="42.460838000" lon="-2.461571000">
        <ele>399.20</ele>
        <time>2017-02-18T10:37:40Z</time>
      </trkpt>
      <trkpt lat="42.460819000" lon="-2.461599000">
        <ele>399.20</ele>
        <time>2017-02-18T10:37:41Z</time>
      </trkpt>
      <trkpt lat="42.460802000" lon="-2.461623000">
        <ele>399.30</ele>
        <time>2017-02-18T10:37:42Z</time>
      </trkpt>
      <trkpt lat="42.460782000" lon="-2.461645000">
        <ele>399.40</ele>
        <time>2017-02-18T10:37:43Z</time>
      </trkpt>
      <trkpt lat="42.460770000" lon="-2.461666000">
        <ele>399.30</ele>
        <time>2017-02-18T10:37:44Z</time>
      </trkpt>
      <trkpt lat="42.460758000" lon="-2.461688000">
        <ele>399.30</ele>
        <time>2017-02-18T10:37:45Z</time>
      </trkpt>
      <trkpt lat="42.460743000" lon="-2.461711000">
        <ele>399.40</ele>
        <time>2017-02-18T10:37:46Z</time>
      </trkpt>
      <trkpt lat="42.460728000" lon="-2.461724000">
        <ele>399.40</ele>
        <time>2017-02-18T10:37:47Z</time>
      </trkpt>
      <trkpt lat="42.460714000" lon="-2.461736000">
        <ele>399.30</ele>
        <time>2017-02-18T10:37:48Z</time>
      </trkpt>
      <trkpt lat="42.460698000" lon="-2.461752000">
        <ele>399.30</ele>
        <time>2017-02-18T10:37:49Z</time>
      </trkpt>
      <trkpt lat="42.460678000" lon="-2.461771000">
        <ele>399.40</ele>
        <time>2017-02-18T10:37:50Z</time>
      </trkpt>
      <trkpt lat="42.460665000" lon="-2.461787000">
        <ele>399.40</ele>
        <time>2017-02-18T10:37:51Z</time>
      </trkpt>
      <trkpt lat="42.460647000" lon="-2.461801000">
        <ele>399.40</ele>
        <time>2017-02-18T10:37:52Z</time>
      </trkpt>
      <trkpt lat="42.460627000" lon="-2.461820000">
        <ele>399.40</ele>
        <time>2017-02-18T10:37:53Z</time>
      </trkpt>
      <trkpt lat="42.460609000" lon="-2.461840000">
        <ele>399.50</ele>
        <time>2017-02-18T10:37:54Z</time>
      </trkpt>
      <trkpt lat="42.460593000" lon="-2.461859000">
        <ele>399.50</ele>
        <time>2017-02-18T10:37:55Z</time>
      </trkpt>
      <trkpt lat="42.460589000" lon="-2.461883000">
        <ele>399.50</ele>
        <time>2017-02-18T10:37:56Z</time>
      </trkpt>
      <trkpt lat="42.460582000" lon="-2.461895000">
        <ele>399.60</ele>
        <time>2017-02-18T10:37:57Z</time>
      </trkpt>
      <trkpt lat="42.460579000" lon="-2.461916000">
        <ele>399.60</ele>
        <time>2017-02-18T10:37:58Z</time>
      </trkpt>
      <trkpt lat="42.460578000" lon="-2.461935000">
        <ele>399.70</ele>
        <time>2017-02-18T10:37:59Z</time>
      </trkpt>
      <trkpt lat="42.460574000" lon="-2.461955000">
        <ele>399.70</ele>
        <time>2017-02-18T10:38:00Z</time>
      </trkpt>
      <trkpt lat="42.460568000" lon="-2.461978000">
        <ele>399.80</ele>
        <time>2017-02-18T10:38:01Z</time>
      </trkpt>
      <trkpt lat="42.460558000" lon="-2.461988000">
        <ele>399.90</ele>
        <time>2017-02-18T10:38:02Z</time>
      </trkpt>
      <trkpt lat="42.460551000" lon="-2.462002000">
        <ele>399.90</ele>
        <time>2017-02-18T10:38:03Z</time>
      </trkpt>
      <trkpt lat="42.460538000" lon="-2.462012000">
        <ele>400.00</ele>
        <time>2017-02-18T10:38:04Z</time>
      </trkpt>
      <trkpt lat="42.460518000" lon="-2.462027000">
        <ele>400.00</ele>
        <time>2017-02-18T10:38:05Z</time>
      </trkpt>
      <trkpt lat="42.460497000" lon="-2.462045000">
        <ele>400.10</ele>
        <time>2017-02-18T10:38:06Z</time>
      </trkpt>
      <trkpt lat="42.460478000" lon="-2.462048000">
        <ele>400.20</ele>
        <time>2017-02-18T10:38:07Z</time>
      </trkpt>
      <trkpt lat="42.460457000" lon="-2.462047000">
        <ele>400.20</ele>
        <time>2017-02-18T10:38:08Z</time>
      </trkpt>
      <trkpt lat="42.460433000" lon="-2.462041000">
        <ele>400.30</ele>
        <time>2017-02-18T10:38:09Z</time>
      </trkpt>
      <trkpt lat="42.460410000" lon="-2.462025000">
        <ele>400.40</ele>
        <time>2017-02-18T10:38:10Z</time>
      </trkpt>
      <trkpt lat="42.460400000" lon="-2.462002000">
        <ele>400.40</ele>
        <time>2017-02-18T10:38:11Z</time>
      </trkpt>
      <trkpt lat="42.460387000" lon="-2.461989000">
        <ele>400.70</ele>
        <time>2017-02-18T10:38:12Z</time>
      </trkpt>
      <trkpt lat="42.460365000" lon="-2.461993000">
        <ele>400.80</ele>
        <time>2017-02-18T10:38:13Z</time>
      </trkpt>
      <trkpt lat="42.460347000" lon="-2.462019000">
        <ele>401.00</ele>
        <time>2017-02-18T10:38:14Z</time>
      </trkpt>
      <trkpt lat="42.460329000" lon="-2.462041000">
        <ele>401.20</ele>
        <time>2017-02-18T10:38:15Z</time>
      </trkpt>
      <trkpt lat="42.460316000" lon="-2.462060000">
        <ele>401.30</ele>
        <time>2017-02-18T10:38:16Z</time>
      </trkpt>
      <trkpt lat="42.460308000" lon="-2.462077000">
        <ele>401.40</ele>
        <time>2017-02-18T10:38:17Z</time>
      </trkpt>
      <trkpt lat="42.460298000" lon="-2.462095000">
        <ele>401.50</ele>
        <time>2017-02-18T10:38:18Z</time>
      </trkpt>
      <trkpt lat="42.460281000" lon="-2.462115000">
        <ele>401.50</ele>
        <time>2017-02-18T10:38:19Z</time>
      </trkpt>
      <trkpt lat="42.460263000" lon="-2.462135000">
        <ele>401.80</ele>
        <time>2017-02-18T10:38:20Z</time>
      </trkpt>
      <trkpt lat="42.460247000" lon="-2.462159000">
        <ele>402.00</ele>
        <time>2017-02-18T10:38:21Z</time>
      </trkpt>
      <trkpt lat="42.460233000" lon="-2.462182000">
        <ele>402.10</ele>
        <time>2017-02-18T10:38:22Z</time>
      </trkpt>
      <trkpt lat="42.460218000" lon="-2.462204000">
        <ele>402.20</ele>
        <time>2017-02-18T10:38:23Z</time>
      </trkpt>
      <trkpt lat="42.460206000" lon="-2.462225000">
        <ele>402.30</ele>
        <time>2017-02-18T10:38:24Z</time>
      </trkpt>
      <trkpt lat="42.460184000" lon="-2.462273000">
        <ele>402.40</ele>
        <time>2017-02-18T10:38:26Z</time>
      </trkpt>
      <trkpt lat="42.460186000" lon="-2.462300000">
        <ele>402.40</ele>
        <time>2017-02-18T10:38:27Z</time>
      </trkpt>
      <trkpt lat="42.460192000" lon="-2.462328000">
        <ele>402.60</ele>
        <time>2017-02-18T10:38:28Z</time>
      </trkpt>
      <trkpt lat="42.460199000" lon="-2.462353000">
        <ele>402.70</ele>
        <time>2017-02-18T10:38:29Z</time>
      </trkpt>
      <trkpt lat="42.460210000" lon="-2.462377000">
        <ele>403.00</ele>
        <time>2017-02-18T10:38:30Z</time>
      </trkpt>
      <trkpt lat="42.460221000" lon="-2.462405000">
        <ele>403.20</ele>
        <time>2017-02-18T10:38:31Z</time>
      </trkpt>
      <trkpt lat="42.460235000" lon="-2.462430000">
        <ele>403.40</ele>
        <time>2017-02-18T10:38:32Z</time>
      </trkpt>
      <trkpt lat="42.460249000" lon="-2.462461000">
        <ele>403.50</ele>
        <time>2017-02-18T10:38:33Z</time>
      </trkpt>
      <trkpt lat="42.460261000" lon="-2.462489000">
        <ele>403.60</ele>
        <time>2017-02-18T10:38:34Z</time>
      </trkpt>
      <trkpt lat="42.460275000" lon="-2.462517000">
        <ele>403.70</ele>
        <time>2017-02-18T10:38:35Z</time>
      </trkpt>
      <trkpt lat="42.460289000" lon="-2.462552000">
        <ele>403.80</ele>
        <time>2017-02-18T10:38:36Z</time>
      </trkpt>
      <trkpt lat="42.460305000" lon="-2.462588000">
        <ele>403.90</ele>
        <time>2017-02-18T10:38:37Z</time>
      </trkpt>
      <trkpt lat="42.460317000" lon="-2.462622000">
        <ele>403.90</ele>
        <time>2017-02-18T10:38:38Z</time>
      </trkpt>
      <trkpt lat="42.460329000" lon="-2.462650000">
        <ele>404.00</ele>
        <time>2017-02-18T10:38:39Z</time>
      </trkpt>
      <trkpt lat="42.460338000" lon="-2.462676000">
        <ele>403.90</ele>
        <time>2017-02-18T10:38:40Z</time>
      </trkpt>
      <trkpt lat="42.460347000" lon="-2.462699000">
        <ele>403.90</ele>
        <time>2017-02-18T10:38:41Z</time>
      </trkpt>
      <trkpt lat="42.460358000" lon="-2.462717000">
        <ele>403.90</ele>
        <time>2017-02-18T10:38:42Z</time>
      </trkpt>
      <trkpt lat="42.460372000" lon="-2.462735000">
        <ele>403.90</ele>
        <time>2017-02-18T10:38:43Z</time>
      </trkpt>
      <trkpt lat="42.460387000" lon="-2.462759000">
        <ele>403.90</ele>
        <time>2017-02-18T10:38:44Z</time>
      </trkpt>
      <trkpt lat="42.460400000" lon="-2.462788000">
        <ele>403.90</ele>
        <time>2017-02-18T10:38:45Z</time>
      </trkpt>
      <trkpt lat="42.460412000" lon="-2.462815000">
        <ele>403.90</ele>
        <time>2017-02-18T10:38:46Z</time>
      </trkpt>
      <trkpt lat="42.460424000" lon="-2.462845000">
        <ele>403.80</ele>
        <time>2017-02-18T10:38:47Z</time>
      </trkpt>
      <trkpt lat="42.460434000" lon="-2.462872000">
        <ele>403.80</ele>
        <time>2017-02-18T10:38:48Z</time>
      </trkpt>
      <trkpt lat="42.460445000" lon="-2.462902000">
        <ele>403.80</ele>
        <time>2017-02-18T10:38:49Z</time>
      </trkpt>
      <trkpt lat="42.460456000" lon="-2.462927000">
        <ele>403.80</ele>
        <time>2017-02-18T10:38:50Z</time>
      </trkpt>
      <trkpt lat="42.460467000" lon="-2.462955000">
        <ele>403.80</ele>
        <time>2017-02-18T10:38:51Z</time>
      </trkpt>
      <trkpt lat="42.460478000" lon="-2.462985000">
        <ele>403.90</ele>
        <time>2017-02-18T10:38:52Z</time>
      </trkpt>
      <trkpt lat="42.460490000" lon="-2.463016000">
        <ele>403.90</ele>
        <time>2017-02-18T10:38:53Z</time>
      </trkpt>
      <trkpt lat="42.460502000" lon="-2.463049000">
        <ele>403.90</ele>
        <time>2017-02-18T10:38:54Z</time>
      </trkpt>
      <trkpt lat="42.460511000" lon="-2.463081000">
        <ele>404.00</ele>
        <time>2017-02-18T10:38:55Z</time>
      </trkpt>
      <trkpt lat="42.460521000" lon="-2.463112000">
        <ele>404.10</ele>
        <time>2017-02-18T10:38:56Z</time>
      </trkpt>
      <trkpt lat="42.460536000" lon="-2.463142000">
        <ele>404.20</ele>
        <time>2017-02-18T10:38:57Z</time>
      </trkpt>
      <trkpt lat="42.460551000" lon="-2.463182000">
        <ele>404.20</ele>
        <time>2017-02-18T10:38:58Z</time>
      </trkpt>
      <trkpt lat="42.460565000" lon="-2.463223000">
        <ele>404.20</ele>
        <time>2017-02-18T10:38:59Z</time>
      </trkpt>
      <trkpt lat="42.460586000" lon="-2.463266000">
        <ele>404.20</ele>
        <time>2017-02-18T10:39:00Z</time>
      </trkpt>
      <trkpt lat="42.460606000" lon="-2.463310000">
        <ele>404.20</ele>
        <time>2017-02-18T10:39:01Z</time>
      </trkpt>
      <trkpt lat="42.460625000" lon="-2.463363000">
        <ele>403.90</ele>
        <time>2017-02-18T10:39:02Z</time>
      </trkpt>
      <trkpt lat="42.460640000" lon="-2.463415000">
        <ele>403.70</ele>
        <time>2017-02-18T10:39:03Z</time>
      </trkpt>
      <trkpt lat="42.460656000" lon="-2.463469000">
        <ele>403.60</ele>
        <time>2017-02-18T10:39:04Z</time>
      </trkpt>
      <trkpt lat="42.460677000" lon="-2.463524000">
        <ele>403.50</ele>
        <time>2017-02-18T10:39:05Z</time>
      </trkpt>
      <trkpt lat="42.460697000" lon="-2.463560000">
        <ele>403.10</ele>
        <time>2017-02-18T10:39:06Z</time>
      </trkpt>
      <trkpt lat="42.460712000" lon="-2.463582000">
        <ele>402.80</ele>
        <time>2017-02-18T10:39:07Z</time>
      </trkpt>
      <trkpt lat="42.460723000" lon="-2.463603000">
        <ele>402.50</ele>
        <time>2017-02-18T10:39:08Z</time>
      </trkpt>
      <trkpt lat="42.460751000" lon="-2.463622000">
        <ele>402.40</ele>
        <time>2017-02-18T10:39:09Z</time>
      </trkpt>
      <trkpt lat="42.460778000" lon="-2.463636000">
        <ele>402.20</ele>
        <time>2017-02-18T10:39:10Z</time>
      </trkpt>
      <trkpt lat="42.460800000" lon="-2.463648000">
        <ele>402.10</ele>
        <time>2017-02-18T10:39:11Z</time>
      </trkpt>
      <trkpt lat="42.460822000" lon="-2.463662000">
        <ele>402.10</ele>
        <time>2017-02-18T10:39:12Z</time>
      </trkpt>
      <trkpt lat="42.460845000" lon="-2.463676000">
        <ele>402.00</ele>
        <time>2017-02-18T10:39:13Z</time>
      </trkpt>
      <trkpt lat="42.460869000" lon="-2.463686000">
        <ele>402.00</ele>
        <time>2017-02-18T10:39:14Z</time>
      </trkpt>
      <trkpt lat="42.460898000" lon="-2.463698000">
        <ele>401.90</ele>
        <time>2017-02-18T10:39:15Z</time>
      </trkpt>
      <trkpt lat="42.460921000" lon="-2.463708000">
        <ele>401.90</ele>
        <time>2017-02-18T10:39:16Z</time>
      </trkpt>
      <trkpt lat="42.460943000" lon="-2.463720000">
        <ele>401.80</ele>
        <time>2017-02-18T10:39:17Z</time>
      </trkpt>
      <trkpt lat="42.460962000" lon="-2.463726000">
        <ele>401.80</ele>
        <time>2017-02-18T10:39:18Z</time>
      </trkpt>
      <trkpt lat="42.460986000" lon="-2.463729000">
        <ele>401.80</ele>
        <time>2017-02-18T10:39:19Z</time>
      </trkpt>
      <trkpt lat="42.461008000" lon="-2.463729000">
        <ele>401.80</ele>
        <time>2017-02-18T10:39:20Z</time>
      </trkpt>
      <trkpt lat="42.461021000" lon="-2.463739000">
        <ele>401.70</ele>
        <time>2017-02-18T10:39:21Z</time>
      </trkpt>
      <trkpt lat="42.461026000" lon="-2.463775000">
        <ele>401.70</ele>
        <time>2017-02-18T10:39:22Z</time>
      </trkpt>
      <trkpt lat="42.461026000" lon="-2.463805000">
        <ele>401.70</ele>
        <time>2017-02-18T10:39:23Z</time>
      </trkpt>
      <trkpt lat="42.461021000" lon="-2.463834000">
        <ele>401.70</ele>
        <time>2017-02-18T10:39:24Z</time>
      </trkpt>
      <trkpt lat="42.461010000" lon="-2.463862000">
        <ele>401.70</ele>
        <time>2017-02-18T10:39:25Z</time>
      </trkpt>
      <trkpt lat="42.460994000" lon="-2.463908000">
        <ele>401.70</ele>
        <time>2017-02-18T10:39:27Z</time>
      </trkpt>
      <trkpt lat="42.460994000" lon="-2.463908000">
        <ele>401.70</ele>
        <time>2017-02-18T10:39:27Z</time>
      </trkpt>
    </trkseg>
  </trk>
</gpx>
